<?xml version="1.0" encoding="UTF-8" standalone="yes"?>
<gpx version="1.1" creator="TomTom.2014 with Barometer" xsi:schemaLocation="http://www.topografix.com/GPX/1/1 http://www.topografix.com/GPX/1/1/gpx.xsd" xmlns="http://www.topografix.com/GPX/1/1" xmlns:gpxtpx="http://www.garmin.com/xmlschemas/TrackPointExtension/v1" xmlns:xsi="http://www.w3.org/2001/XMLSchema-instance">
    <metadata>
        <name>Activity</name>
    </metadata>
    <trk>
        <name>Running</name>
        <trkseg>
            <trkpt lat="40.916043" lon="-8.532617">
                <ele>170.2</ele>
                <time>2020-11-30T15:59:00.000Z</time>
            </trkpt>
            <trkpt lat="40.916049" lon="-8.532625">
                <ele>170.2</ele>
                <time>2020-11-30T15:59:01.000Z</time>
            </trkpt>
            <trkpt lat="40.916051" lon="-8.532635">
                <ele>170.3</ele>
                <time>2020-11-30T15:59:02.000Z</time>
            </trkpt>
            <trkpt lat="40.916051" lon="-8.532647">
                <ele>170.4</ele>
                <time>2020-11-30T15:59:03.000Z</time>
            </trkpt>
            <trkpt lat="40.916047" lon="-8.53266">
                <ele>170.5</ele>
                <time>2020-11-30T15:59:04.000Z</time>
            </trkpt>
            <trkpt lat="40.916041" lon="-8.532674">
                <ele>170.5</ele>
                <time>2020-11-30T15:59:05.000Z</time>
            </trkpt>
            <trkpt lat="40.916032" lon="-8.532688">
                <ele>170.6</ele>
                <time>2020-11-30T15:59:06.000Z</time>
            </trkpt>
            <trkpt lat="40.916021" lon="-8.532702">
                <ele>170.7</ele>
                <time>2020-11-30T15:59:07.000Z</time>
            </trkpt>
            <trkpt lat="40.916007" lon="-8.532714">
                <ele>170.8</ele>
                <time>2020-11-30T15:59:08.000Z</time>
            </trkpt>
            <trkpt lat="40.915991" lon="-8.532724">
                <ele>170.9</ele>
                <time>2020-11-30T15:59:09.000Z</time>
            </trkpt>
            <trkpt lat="40.915973" lon="-8.532732">
                <ele>171.0</ele>
                <time>2020-11-30T15:59:10.000Z</time>
            </trkpt>
            <trkpt lat="40.915952" lon="-8.532737">
                <ele>171.0</ele>
                <time>2020-11-30T15:59:11.000Z</time>
            </trkpt>
            <trkpt lat="40.91593" lon="-8.532739">
                <ele>171.0</ele>
                <time>2020-11-30T15:59:12.000Z</time>
            </trkpt>
            <trkpt lat="40.915907" lon="-8.532739">
                <ele>171.1</ele>
                <time>2020-11-30T15:59:13.000Z</time>
            </trkpt>
            <trkpt lat="40.915884" lon="-8.532741">
                <ele>171.1</ele>
                <time>2020-11-30T15:59:14.000Z</time>
            </trkpt>
            <trkpt lat="40.915861" lon="-8.532746">
                <ele>171.2</ele>
                <time>2020-11-30T15:59:15.000Z</time>
            </trkpt>
            <trkpt lat="40.915841" lon="-8.532757">
                <ele>171.2</ele>
                <time>2020-11-30T15:59:16.000Z</time>
            </trkpt>
            <trkpt lat="40.915823" lon="-8.532775">
                <ele>171.2</ele>
                <time>2020-11-30T15:59:17.000Z</time>
            </trkpt>
            <trkpt lat="40.915807" lon="-8.5328">
                <ele>171.2</ele>
                <time>2020-11-30T15:59:18.000Z</time>
            </trkpt>
            <trkpt lat="40.915794" lon="-8.53283">
                <ele>171.2</ele>
                <time>2020-11-30T15:59:19.000Z</time>
            </trkpt>
            <trkpt lat="40.915784" lon="-8.532864">
                <ele>171.2</ele>
                <time>2020-11-30T15:59:20.000Z</time>
            </trkpt>
            <trkpt lat="40.915776" lon="-8.532899">
                <ele>171.3</ele>
                <time>2020-11-30T15:59:21.000Z</time>
            </trkpt>
            <trkpt lat="40.915771" lon="-8.532934">
                <ele>171.4</ele>
                <time>2020-11-30T15:59:22.000Z</time>
            </trkpt>
            <trkpt lat="40.915767" lon="-8.53297">
                <ele>171.6</ele>
                <time>2020-11-30T15:59:23.000Z</time>
            </trkpt>
            <trkpt lat="40.915766" lon="-8.533005">
                <ele>171.7</ele>
                <time>2020-11-30T15:59:24.000Z</time>
            </trkpt>
            <trkpt lat="40.915766" lon="-8.533041">
                <ele>171.9</ele>
                <time>2020-11-30T15:59:25.000Z</time>
            </trkpt>
            <trkpt lat="40.915767" lon="-8.533076">
                <ele>172.1</ele>
                <time>2020-11-30T15:59:26.000Z</time>
            </trkpt>
            <trkpt lat="40.91577" lon="-8.53311">
                <ele>172.3</ele>
                <time>2020-11-30T15:59:27.000Z</time>
            </trkpt>
            <trkpt lat="40.915773" lon="-8.533144">
                <ele>172.5</ele>
                <time>2020-11-30T15:59:28.000Z</time>
            </trkpt>
            <trkpt lat="40.915778" lon="-8.533178">
                <ele>172.7</ele>
                <time>2020-11-30T15:59:29.000Z</time>
            </trkpt>
            <trkpt lat="40.915782" lon="-8.533211">
                <ele>172.9</ele>
                <time>2020-11-30T15:59:30.000Z</time>
            </trkpt>
            <trkpt lat="40.915787" lon="-8.533242">
                <ele>173.1</ele>
                <time>2020-11-30T15:59:31.000Z</time>
            </trkpt>
            <trkpt lat="40.915792" lon="-8.533273">
                <ele>173.3</ele>
                <time>2020-11-30T15:59:32.000Z</time>
            </trkpt>
            <trkpt lat="40.915797" lon="-8.533303">
                <ele>173.5</ele>
                <time>2020-11-30T15:59:33.000Z</time>
            </trkpt>
            <trkpt lat="40.915802" lon="-8.533332">
                <ele>173.7</ele>
                <time>2020-11-30T15:59:34.000Z</time>
            </trkpt>
            <trkpt lat="40.915806" lon="-8.53336">
                <ele>173.9</ele>
                <time>2020-11-30T15:59:35.000Z</time>
            </trkpt>
            <trkpt lat="40.91581" lon="-8.533387">
                <ele>174.2</ele>
                <time>2020-11-30T15:59:36.000Z</time>
            </trkpt>
            <trkpt lat="40.915814" lon="-8.533414">
                <ele>174.5</ele>
                <time>2020-11-30T15:59:37.000Z</time>
            </trkpt>
            <trkpt lat="40.915818" lon="-8.53344">
                <ele>174.7</ele>
                <time>2020-11-30T15:59:38.000Z</time>
            </trkpt>
            <trkpt lat="40.915822" lon="-8.533466">
                <ele>175.0</ele>
                <time>2020-11-30T15:59:39.000Z</time>
            </trkpt>
            <trkpt lat="40.915827" lon="-8.533491">
                <ele>175.3</ele>
                <time>2020-11-30T15:59:40.000Z</time>
            </trkpt>
            <trkpt lat="40.915831" lon="-8.533517">
                <ele>175.5</ele>
                <time>2020-11-30T15:59:41.000Z</time>
            </trkpt>
            <trkpt lat="40.915835" lon="-8.533542">
                <ele>175.8</ele>
                <time>2020-11-30T15:59:42.000Z</time>
            </trkpt>
            <trkpt lat="40.91584" lon="-8.533568">
                <ele>176.0</ele>
                <time>2020-11-30T15:59:43.000Z</time>
            </trkpt>
            <trkpt lat="40.915845" lon="-8.533594">
                <ele>176.2</ele>
                <time>2020-11-30T15:59:44.000Z</time>
            </trkpt>
            <trkpt lat="40.91585" lon="-8.53362">
                <ele>176.4</ele>
                <time>2020-11-30T15:59:45.000Z</time>
            </trkpt>
            <trkpt lat="40.915855" lon="-8.533646">
                <ele>176.6</ele>
                <time>2020-11-30T15:59:46.000Z</time>
            </trkpt>
            <trkpt lat="40.91586" lon="-8.533672">
                <ele>176.9</ele>
                <time>2020-11-30T15:59:47.000Z</time>
            </trkpt>
            <trkpt lat="40.915865" lon="-8.533699">
                <ele>177.1</ele>
                <time>2020-11-30T15:59:48.000Z</time>
            </trkpt>
            <trkpt lat="40.91587" lon="-8.533726">
                <ele>177.3</ele>
                <time>2020-11-30T15:59:49.000Z</time>
            </trkpt>
            <trkpt lat="40.915874" lon="-8.533753">
                <ele>177.5</ele>
                <time>2020-11-30T15:59:50.000Z</time>
            </trkpt>
            <trkpt lat="40.915879" lon="-8.533781">
                <ele>177.8</ele>
                <time>2020-11-30T15:59:51.000Z</time>
            </trkpt>
            <trkpt lat="40.915883" lon="-8.533809">
                <ele>178.0</ele>
                <time>2020-11-30T15:59:52.000Z</time>
            </trkpt>
            <trkpt lat="40.915887" lon="-8.533837">
                <ele>178.2</ele>
                <time>2020-11-30T15:59:53.000Z</time>
            </trkpt>
            <trkpt lat="40.915891" lon="-8.533866">
                <ele>178.5</ele>
                <time>2020-11-30T15:59:54.000Z</time>
            </trkpt>
            <trkpt lat="40.915894" lon="-8.533896">
                <ele>178.7</ele>
                <time>2020-11-30T15:59:55.000Z</time>
            </trkpt>
            <trkpt lat="40.915897" lon="-8.533925">
                <ele>179.0</ele>
                <time>2020-11-30T15:59:56.000Z</time>
            </trkpt>
            <trkpt lat="40.9159" lon="-8.533955">
                <ele>179.2</ele>
                <time>2020-11-30T15:59:57.000Z</time>
            </trkpt>
            <trkpt lat="40.915902" lon="-8.533985">
                <ele>179.4</ele>
                <time>2020-11-30T15:59:58.000Z</time>
            </trkpt>
            <trkpt lat="40.915905" lon="-8.534014">
                <ele>179.7</ele>
                <time>2020-11-30T15:59:59.000Z</time>
            </trkpt>
            <trkpt lat="40.915907" lon="-8.534044">
                <ele>179.9</ele>
                <time>2020-11-30T16:00:00.000Z</time>
            </trkpt>
            <trkpt lat="40.915909" lon="-8.534073">
                <ele>180.2</ele>
                <time>2020-11-30T16:00:01.000Z</time>
            </trkpt>
            <trkpt lat="40.915911" lon="-8.534102">
                <ele>180.4</ele>
                <time>2020-11-30T16:00:02.000Z</time>
            </trkpt>
            <trkpt lat="40.915913" lon="-8.534131">
                <ele>180.6</ele>
                <time>2020-11-30T16:00:03.000Z</time>
            </trkpt>
            <trkpt lat="40.915916" lon="-8.534158">
                <ele>180.8</ele>
                <time>2020-11-30T16:00:04.000Z</time>
            </trkpt>
            <trkpt lat="40.915918" lon="-8.534186">
                <ele>181.1</ele>
                <time>2020-11-30T16:00:05.000Z</time>
            </trkpt>
            <trkpt lat="40.91592" lon="-8.534212">
                <ele>181.4</ele>
                <time>2020-11-30T16:00:06.000Z</time>
            </trkpt>
            <trkpt lat="40.915923" lon="-8.534238">
                <ele>181.6</ele>
                <time>2020-11-30T16:00:07.000Z</time>
            </trkpt>
            <trkpt lat="40.915925" lon="-8.534263">
                <ele>181.9</ele>
                <time>2020-11-30T16:00:08.000Z</time>
            </trkpt>
            <trkpt lat="40.915928" lon="-8.534288">
                <ele>182.1</ele>
                <time>2020-11-30T16:00:09.000Z</time>
            </trkpt>
            <trkpt lat="40.915931" lon="-8.534311">
                <ele>182.3</ele>
                <time>2020-11-30T16:00:10.000Z</time>
            </trkpt>
            <trkpt lat="40.915935" lon="-8.534334">
                <ele>182.6</ele>
                <time>2020-11-30T16:00:11.000Z</time>
            </trkpt>
            <trkpt lat="40.915939" lon="-8.534356">
                <ele>182.8</ele>
                <time>2020-11-30T16:00:12.000Z</time>
            </trkpt>
            <trkpt lat="40.915943" lon="-8.534377">
                <ele>183.0</ele>
                <time>2020-11-30T16:00:13.000Z</time>
            </trkpt>
            <trkpt lat="40.915948" lon="-8.534397">
                <ele>183.2</ele>
                <time>2020-11-30T16:00:14.000Z</time>
            </trkpt>
            <trkpt lat="40.915953" lon="-8.534417">
                <ele>183.4</ele>
                <time>2020-11-30T16:00:15.000Z</time>
            </trkpt>
            <trkpt lat="40.915958" lon="-8.534436">
                <ele>183.6</ele>
                <time>2020-11-30T16:00:16.000Z</time>
            </trkpt>
            <trkpt lat="40.915962" lon="-8.534455">
                <ele>183.8</ele>
                <time>2020-11-30T16:00:17.000Z</time>
            </trkpt>
            <trkpt lat="40.915965" lon="-8.534474">
                <ele>184.0</ele>
                <time>2020-11-30T16:00:18.000Z</time>
            </trkpt>
            <trkpt lat="40.915966" lon="-8.534493">
                <ele>184.2</ele>
                <time>2020-11-30T16:00:19.000Z</time>
            </trkpt>
            <trkpt lat="40.915966" lon="-8.534513">
                <ele>184.4</ele>
                <time>2020-11-30T16:00:20.000Z</time>
            </trkpt>
            <trkpt lat="40.915964" lon="-8.534533">
                <ele>184.6</ele>
                <time>2020-11-30T16:00:21.000Z</time>
            </trkpt>
            <trkpt lat="40.915959" lon="-8.534555">
                <ele>184.9</ele>
                <time>2020-11-30T16:00:22.000Z</time>
            </trkpt>
            <trkpt lat="40.915952" lon="-8.534577">
                <ele>185.1</ele>
                <time>2020-11-30T16:00:23.000Z</time>
            </trkpt>
            <trkpt lat="40.915941" lon="-8.534601">
                <ele>185.3</ele>
                <time>2020-11-30T16:00:24.000Z</time>
            </trkpt>
            <trkpt lat="40.915928" lon="-8.534627">
                <ele>185.6</ele>
                <time>2020-11-30T16:00:25.000Z</time>
            </trkpt>
            <trkpt lat="40.915914" lon="-8.534653">
                <ele>185.8</ele>
                <time>2020-11-30T16:00:26.000Z</time>
            </trkpt>
            <trkpt lat="40.9159" lon="-8.534682">
                <ele>186.1</ele>
                <time>2020-11-30T16:00:27.000Z</time>
            </trkpt>
            <trkpt lat="40.915886" lon="-8.534711">
                <ele>186.3</ele>
                <time>2020-11-30T16:00:28.000Z</time>
            </trkpt>
            <trkpt lat="40.915874" lon="-8.534742">
                <ele>186.6</ele>
                <time>2020-11-30T16:00:29.000Z</time>
            </trkpt>
            <trkpt lat="40.915864" lon="-8.534774">
                <ele>186.9</ele>
                <time>2020-11-30T16:00:30.000Z</time>
            </trkpt>
            <trkpt lat="40.915857" lon="-8.534805">
                <ele>187.2</ele>
                <time>2020-11-30T16:00:31.000Z</time>
            </trkpt>
            <trkpt lat="40.915854" lon="-8.534834">
                <ele>187.5</ele>
                <time>2020-11-30T16:00:32.000Z</time>
            </trkpt>
            <trkpt lat="40.915855" lon="-8.534859">
                <ele>187.7</ele>
                <time>2020-11-30T16:00:33.000Z</time>
            </trkpt>
            <trkpt lat="40.915858" lon="-8.534882">
                <ele>187.9</ele>
                <time>2020-11-30T16:00:34.000Z</time>
            </trkpt>
            <trkpt lat="40.915861" lon="-8.534904">
                <ele>188.2</ele>
                <time>2020-11-30T16:00:35.000Z</time>
            </trkpt>
            <trkpt lat="40.915865" lon="-8.534925">
                <ele>188.4</ele>
                <time>2020-11-30T16:00:36.000Z</time>
            </trkpt>
            <trkpt lat="40.915869" lon="-8.534946">
                <ele>188.6</ele>
                <time>2020-11-30T16:00:37.000Z</time>
            </trkpt>
            <trkpt lat="40.915873" lon="-8.534966">
                <ele>188.8</ele>
                <time>2020-11-30T16:00:38.000Z</time>
            </trkpt>
            <trkpt lat="40.915879" lon="-8.534986">
                <ele>189.0</ele>
                <time>2020-11-30T16:00:39.000Z</time>
            </trkpt>
            <trkpt lat="40.915884" lon="-8.535006">
                <ele>189.2</ele>
                <time>2020-11-30T16:00:40.000Z</time>
            </trkpt>
            <trkpt lat="40.915891" lon="-8.535026">
                <ele>189.5</ele>
                <time>2020-11-30T16:00:41.000Z</time>
            </trkpt>
            <trkpt lat="40.915899" lon="-8.535046">
                <ele>189.8</ele>
                <time>2020-11-30T16:00:42.000Z</time>
            </trkpt>
            <trkpt lat="40.915908" lon="-8.535067">
                <ele>190.0</ele>
                <time>2020-11-30T16:00:43.000Z</time>
            </trkpt>
            <trkpt lat="40.915918" lon="-8.535087">
                <ele>190.3</ele>
                <time>2020-11-30T16:00:44.000Z</time>
            </trkpt>
            <trkpt lat="40.915929" lon="-8.535108">
                <ele>190.6</ele>
                <time>2020-11-30T16:00:45.000Z</time>
            </trkpt>
            <trkpt lat="40.915941" lon="-8.535129">
                <ele>190.9</ele>
                <time>2020-11-30T16:00:46.000Z</time>
            </trkpt>
            <trkpt lat="40.915954" lon="-8.53515">
                <ele>191.2</ele>
                <time>2020-11-30T16:00:47.000Z</time>
            </trkpt>
            <trkpt lat="40.915966" lon="-8.535171">
                <ele>191.5</ele>
                <time>2020-11-30T16:00:48.000Z</time>
            </trkpt>
            <trkpt lat="40.915978" lon="-8.535193">
                <ele>191.8</ele>
                <time>2020-11-30T16:00:49.000Z</time>
            </trkpt>
            <trkpt lat="40.915989" lon="-8.535214">
                <ele>192.1</ele>
                <time>2020-11-30T16:00:50.000Z</time>
            </trkpt>
            <trkpt lat="40.915997" lon="-8.535234">
                <ele>192.3</ele>
                <time>2020-11-30T16:00:51.000Z</time>
            </trkpt>
            <trkpt lat="40.916004" lon="-8.535254">
                <ele>192.6</ele>
                <time>2020-11-30T16:00:52.000Z</time>
            </trkpt>
            <trkpt lat="40.916007" lon="-8.535274">
                <ele>192.9</ele>
                <time>2020-11-30T16:00:53.000Z</time>
            </trkpt>
            <trkpt lat="40.916007" lon="-8.535293">
                <ele>193.1</ele>
                <time>2020-11-30T16:00:54.000Z</time>
            </trkpt>
            <trkpt lat="40.916003" lon="-8.535311">
                <ele>193.3</ele>
                <time>2020-11-30T16:00:55.000Z</time>
            </trkpt>
            <trkpt lat="40.915996" lon="-8.535329">
                <ele>193.4</ele>
                <time>2020-11-30T16:00:56.000Z</time>
            </trkpt>
            <trkpt lat="40.915987" lon="-8.535346">
                <ele>193.6</ele>
                <time>2020-11-30T16:00:57.000Z</time>
            </trkpt>
            <trkpt lat="40.915974" lon="-8.535363">
                <ele>193.7</ele>
                <time>2020-11-30T16:00:58.000Z</time>
            </trkpt>
            <trkpt lat="40.91596" lon="-8.53538">
                <ele>193.8</ele>
                <time>2020-11-30T16:00:59.000Z</time>
            </trkpt>
            <trkpt lat="40.915944" lon="-8.535397">
                <ele>193.9</ele>
                <time>2020-11-30T16:01:00.000Z</time>
            </trkpt>
            <trkpt lat="40.915928" lon="-8.535415">
                <ele>194.0</ele>
                <time>2020-11-30T16:01:01.000Z</time>
            </trkpt>
            <trkpt lat="40.915911" lon="-8.535433">
                <ele>194.1</ele>
                <time>2020-11-30T16:01:02.000Z</time>
            </trkpt>
            <trkpt lat="40.915895" lon="-8.535452">
                <ele>194.3</ele>
                <time>2020-11-30T16:01:03.000Z</time>
            </trkpt>
            <trkpt lat="40.915879" lon="-8.535473">
                <ele>194.4</ele>
                <time>2020-11-30T16:01:04.000Z</time>
            </trkpt>
            <trkpt lat="40.915864" lon="-8.535494">
                <ele>194.5</ele>
                <time>2020-11-30T16:01:05.000Z</time>
            </trkpt>
            <trkpt lat="40.91585" lon="-8.535516">
                <ele>194.7</ele>
                <time>2020-11-30T16:01:06.000Z</time>
            </trkpt>
            <trkpt lat="40.915837" lon="-8.53554">
                <ele>194.9</ele>
                <time>2020-11-30T16:01:07.000Z</time>
            </trkpt>
            <trkpt lat="40.915825" lon="-8.535564">
                <ele>195.1</ele>
                <time>2020-11-30T16:01:08.000Z</time>
            </trkpt>
            <trkpt lat="40.915813" lon="-8.53559">
                <ele>195.3</ele>
                <time>2020-11-30T16:01:09.000Z</time>
            </trkpt>
            <trkpt lat="40.915802" lon="-8.535616">
                <ele>195.6</ele>
                <time>2020-11-30T16:01:10.000Z</time>
            </trkpt>
            <trkpt lat="40.915792" lon="-8.535642">
                <ele>195.8</ele>
                <time>2020-11-30T16:01:11.000Z</time>
            </trkpt>
            <trkpt lat="40.915781" lon="-8.53567">
                <ele>196.1</ele>
                <time>2020-11-30T16:01:12.000Z</time>
            </trkpt>
            <trkpt lat="40.915771" lon="-8.535697">
                <ele>196.4</ele>
                <time>2020-11-30T16:01:13.000Z</time>
            </trkpt>
            <trkpt lat="40.915761" lon="-8.535726">
                <ele>196.6</ele>
                <time>2020-11-30T16:01:14.000Z</time>
            </trkpt>
            <trkpt lat="40.915751" lon="-8.535754">
                <ele>196.9</ele>
                <time>2020-11-30T16:01:15.000Z</time>
            </trkpt>
            <trkpt lat="40.915741" lon="-8.535782">
                <ele>197.1</ele>
                <time>2020-11-30T16:01:16.000Z</time>
            </trkpt>
            <trkpt lat="40.91573" lon="-8.535811">
                <ele>197.4</ele>
                <time>2020-11-30T16:01:17.000Z</time>
            </trkpt>
            <trkpt lat="40.91572" lon="-8.53584">
                <ele>197.6</ele>
                <time>2020-11-30T16:01:18.000Z</time>
            </trkpt>
            <trkpt lat="40.915709" lon="-8.535868">
                <ele>197.8</ele>
                <time>2020-11-30T16:01:19.000Z</time>
            </trkpt>
            <trkpt lat="40.915698" lon="-8.535897">
                <ele>197.9</ele>
                <time>2020-11-30T16:01:20.000Z</time>
            </trkpt>
            <trkpt lat="40.915686" lon="-8.535925">
                <ele>198.0</ele>
                <time>2020-11-30T16:01:21.000Z</time>
            </trkpt>
            <trkpt lat="40.915675" lon="-8.535954">
                <ele>198.2</ele>
                <time>2020-11-30T16:01:22.000Z</time>
            </trkpt>
            <trkpt lat="40.915663" lon="-8.535982">
                <ele>198.3</ele>
                <time>2020-11-30T16:01:23.000Z</time>
            </trkpt>
            <trkpt lat="40.915651" lon="-8.53601">
                <ele>198.4</ele>
                <time>2020-11-30T16:01:24.000Z</time>
            </trkpt>
            <trkpt lat="40.915639" lon="-8.536037">
                <ele>198.6</ele>
                <time>2020-11-30T16:01:25.000Z</time>
            </trkpt>
            <trkpt lat="40.915627" lon="-8.536065">
                <ele>198.7</ele>
                <time>2020-11-30T16:01:26.000Z</time>
            </trkpt>
            <trkpt lat="40.915614" lon="-8.536091">
                <ele>198.8</ele>
                <time>2020-11-30T16:01:27.000Z</time>
            </trkpt>
            <trkpt lat="40.915601" lon="-8.536118">
                <ele>199.0</ele>
                <time>2020-11-30T16:01:28.000Z</time>
            </trkpt>
            <trkpt lat="40.915588" lon="-8.536144">
                <ele>199.1</ele>
                <time>2020-11-30T16:01:29.000Z</time>
            </trkpt>
            <trkpt lat="40.915574" lon="-8.53617">
                <ele>199.2</ele>
                <time>2020-11-30T16:01:30.000Z</time>
            </trkpt>
            <trkpt lat="40.91556" lon="-8.536195">
                <ele>199.3</ele>
                <time>2020-11-30T16:01:31.000Z</time>
            </trkpt>
            <trkpt lat="40.915546" lon="-8.53622">
                <ele>199.4</ele>
                <time>2020-11-30T16:01:32.000Z</time>
            </trkpt>
            <trkpt lat="40.915531" lon="-8.536244">
                <ele>199.6</ele>
                <time>2020-11-30T16:01:33.000Z</time>
            </trkpt>
            <trkpt lat="40.915515" lon="-8.536269">
                <ele>199.7</ele>
                <time>2020-11-30T16:01:34.000Z</time>
            </trkpt>
            <trkpt lat="40.915498" lon="-8.536293">
                <ele>199.8</ele>
                <time>2020-11-30T16:01:35.000Z</time>
            </trkpt>
            <trkpt lat="40.915481" lon="-8.536316">
                <ele>199.9</ele>
                <time>2020-11-30T16:01:36.000Z</time>
            </trkpt>
            <trkpt lat="40.915463" lon="-8.536339">
                <ele>200.0</ele>
                <time>2020-11-30T16:01:37.000Z</time>
            </trkpt>
            <trkpt lat="40.915445" lon="-8.536362">
                <ele>200.1</ele>
                <time>2020-11-30T16:01:38.000Z</time>
            </trkpt>
            <trkpt lat="40.915426" lon="-8.536384">
                <ele>200.2</ele>
                <time>2020-11-30T16:01:39.000Z</time>
            </trkpt>
            <trkpt lat="40.915407" lon="-8.536406">
                <ele>200.3</ele>
                <time>2020-11-30T16:01:40.000Z</time>
            </trkpt>
            <trkpt lat="40.915387" lon="-8.536427">
                <ele>200.3</ele>
                <time>2020-11-30T16:01:41.000Z</time>
            </trkpt>
            <trkpt lat="40.915367" lon="-8.536448">
                <ele>200.4</ele>
                <time>2020-11-30T16:01:42.000Z</time>
            </trkpt>
            <trkpt lat="40.915347" lon="-8.536468">
                <ele>200.5</ele>
                <time>2020-11-30T16:01:43.000Z</time>
            </trkpt>
            <trkpt lat="40.915327" lon="-8.536487">
                <ele>200.6</ele>
                <time>2020-11-30T16:01:44.000Z</time>
            </trkpt>
            <trkpt lat="40.915307" lon="-8.536505">
                <ele>200.6</ele>
                <time>2020-11-30T16:01:45.000Z</time>
            </trkpt>
            <trkpt lat="40.915287" lon="-8.536523">
                <ele>200.7</ele>
                <time>2020-11-30T16:01:46.000Z</time>
            </trkpt>
            <trkpt lat="40.915267" lon="-8.53654">
                <ele>200.8</ele>
                <time>2020-11-30T16:01:47.000Z</time>
            </trkpt>
            <trkpt lat="40.915247" lon="-8.536556">
                <ele>200.8</ele>
                <time>2020-11-30T16:01:48.000Z</time>
            </trkpt>
            <trkpt lat="40.915227" lon="-8.536572">
                <ele>200.9</ele>
                <time>2020-11-30T16:01:49.000Z</time>
            </trkpt>
            <trkpt lat="40.915207" lon="-8.536587">
                <ele>200.9</ele>
                <time>2020-11-30T16:01:50.000Z</time>
            </trkpt>
            <trkpt lat="40.915187" lon="-8.536602">
                <ele>201.0</ele>
                <time>2020-11-30T16:01:51.000Z</time>
            </trkpt>
            <trkpt lat="40.915168" lon="-8.536616">
                <ele>201.1</ele>
                <time>2020-11-30T16:01:52.000Z</time>
            </trkpt>
            <trkpt lat="40.915148" lon="-8.53663">
                <ele>201.1</ele>
                <time>2020-11-30T16:01:53.000Z</time>
            </trkpt>
            <trkpt lat="40.915129" lon="-8.536644">
                <ele>201.2</ele>
                <time>2020-11-30T16:01:54.000Z</time>
            </trkpt>
            <trkpt lat="40.91511" lon="-8.536658">
                <ele>201.2</ele>
                <time>2020-11-30T16:01:55.000Z</time>
            </trkpt>
            <trkpt lat="40.915091" lon="-8.536671">
                <ele>201.2</ele>
                <time>2020-11-30T16:01:56.000Z</time>
            </trkpt>
            <trkpt lat="40.915072" lon="-8.536685">
                <ele>201.3</ele>
                <time>2020-11-30T16:01:57.000Z</time>
            </trkpt>
            <trkpt lat="40.915053" lon="-8.536698">
                <ele>201.3</ele>
                <time>2020-11-30T16:01:58.000Z</time>
            </trkpt>
            <trkpt lat="40.915034" lon="-8.536712">
                <ele>201.3</ele>
                <time>2020-11-30T16:01:59.000Z</time>
            </trkpt>
            <trkpt lat="40.915016" lon="-8.536726">
                <ele>201.4</ele>
                <time>2020-11-30T16:02:00.000Z</time>
            </trkpt>
            <trkpt lat="40.914998" lon="-8.53674">
                <ele>201.4</ele>
                <time>2020-11-30T16:02:01.000Z</time>
            </trkpt>
            <trkpt lat="40.91498" lon="-8.536754">
                <ele>201.6</ele>
                <time>2020-11-30T16:02:02.000Z</time>
            </trkpt>
            <trkpt lat="40.914962" lon="-8.536769">
                <ele>201.8</ele>
                <time>2020-11-30T16:02:03.000Z</time>
            </trkpt>
            <trkpt lat="40.914945" lon="-8.536784">
                <ele>201.9</ele>
                <time>2020-11-30T16:02:04.000Z</time>
            </trkpt>
            <trkpt lat="40.914928" lon="-8.5368">
                <ele>202.1</ele>
                <time>2020-11-30T16:02:05.000Z</time>
            </trkpt>
            <trkpt lat="40.914911" lon="-8.536817">
                <ele>202.3</ele>
                <time>2020-11-30T16:02:06.000Z</time>
            </trkpt>
            <trkpt lat="40.914894" lon="-8.536834">
                <ele>202.4</ele>
                <time>2020-11-30T16:02:07.000Z</time>
            </trkpt>
            <trkpt lat="40.914877" lon="-8.536851">
                <ele>202.6</ele>
                <time>2020-11-30T16:02:08.000Z</time>
            </trkpt>
            <trkpt lat="40.914861" lon="-8.536869">
                <ele>202.7</ele>
                <time>2020-11-30T16:02:09.000Z</time>
            </trkpt>
            <trkpt lat="40.914844" lon="-8.536888">
                <ele>202.9</ele>
                <time>2020-11-30T16:02:10.000Z</time>
            </trkpt>
            <trkpt lat="40.914828" lon="-8.536907">
                <ele>203.0</ele>
                <time>2020-11-30T16:02:11.000Z</time>
            </trkpt>
            <trkpt lat="40.914811" lon="-8.536926">
                <ele>203.2</ele>
                <time>2020-11-30T16:02:12.000Z</time>
            </trkpt>
            <trkpt lat="40.914794" lon="-8.536946">
                <ele>203.3</ele>
                <time>2020-11-30T16:02:13.000Z</time>
            </trkpt>
            <trkpt lat="40.914777" lon="-8.536966">
                <ele>203.5</ele>
                <time>2020-11-30T16:02:14.000Z</time>
            </trkpt>
            <trkpt lat="40.91476" lon="-8.536985">
                <ele>203.6</ele>
                <time>2020-11-30T16:02:15.000Z</time>
            </trkpt>
            <trkpt lat="40.914742" lon="-8.537005">
                <ele>203.8</ele>
                <time>2020-11-30T16:02:16.000Z</time>
            </trkpt>
            <trkpt lat="40.914724" lon="-8.537025">
                <ele>203.9</ele>
                <time>2020-11-30T16:02:17.000Z</time>
            </trkpt>
            <trkpt lat="40.914705" lon="-8.537044">
                <ele>204.0</ele>
                <time>2020-11-30T16:02:18.000Z</time>
            </trkpt>
            <trkpt lat="40.914686" lon="-8.537064">
                <ele>204.2</ele>
                <time>2020-11-30T16:02:19.000Z</time>
            </trkpt>
            <trkpt lat="40.914666" lon="-8.537083">
                <ele>204.3</ele>
                <time>2020-11-30T16:02:20.000Z</time>
            </trkpt>
            <trkpt lat="40.914646" lon="-8.537101">
                <ele>204.4</ele>
                <time>2020-11-30T16:02:21.000Z</time>
            </trkpt>
            <trkpt lat="40.914625" lon="-8.53712">
                <ele>204.5</ele>
                <time>2020-11-30T16:02:22.000Z</time>
            </trkpt>
            <trkpt lat="40.914604" lon="-8.537138">
                <ele>204.7</ele>
                <time>2020-11-30T16:02:23.000Z</time>
            </trkpt>
            <trkpt lat="40.914583" lon="-8.537156">
                <ele>204.8</ele>
                <time>2020-11-30T16:02:24.000Z</time>
            </trkpt>
            <trkpt lat="40.914561" lon="-8.537173">
                <ele>204.9</ele>
                <time>2020-11-30T16:02:25.000Z</time>
            </trkpt>
            <trkpt lat="40.91454" lon="-8.53719">
                <ele>205.0</ele>
                <time>2020-11-30T16:02:26.000Z</time>
            </trkpt>
            <trkpt lat="40.914517" lon="-8.537206">
                <ele>205.1</ele>
                <time>2020-11-30T16:02:27.000Z</time>
            </trkpt>
            <trkpt lat="40.914495" lon="-8.537222">
                <ele>205.1</ele>
                <time>2020-11-30T16:02:28.000Z</time>
            </trkpt>
            <trkpt lat="40.914473" lon="-8.537238">
                <ele>205.2</ele>
                <time>2020-11-30T16:02:29.000Z</time>
            </trkpt>
            <trkpt lat="40.91445" lon="-8.537254">
                <ele>205.3</ele>
                <time>2020-11-30T16:02:30.000Z</time>
            </trkpt>
            <trkpt lat="40.914428" lon="-8.53727">
                <ele>205.4</ele>
                <time>2020-11-30T16:02:31.000Z</time>
            </trkpt>
            <trkpt lat="40.914406" lon="-8.537286">
                <ele>205.4</ele>
                <time>2020-11-30T16:02:32.000Z</time>
            </trkpt>
            <trkpt lat="40.914384" lon="-8.537303">
                <ele>205.5</ele>
                <time>2020-11-30T16:02:33.000Z</time>
            </trkpt>
            <trkpt lat="40.914363" lon="-8.53732">
                <ele>205.6</ele>
                <time>2020-11-30T16:02:34.000Z</time>
            </trkpt>
            <trkpt lat="40.914342" lon="-8.537338">
                <ele>205.6</ele>
                <time>2020-11-30T16:02:35.000Z</time>
            </trkpt>
            <trkpt lat="40.914322" lon="-8.537357">
                <ele>205.7</ele>
                <time>2020-11-30T16:02:36.000Z</time>
            </trkpt>
            <trkpt lat="40.914303" lon="-8.537377">
                <ele>205.8</ele>
                <time>2020-11-30T16:02:37.000Z</time>
            </trkpt>
            <trkpt lat="40.914284" lon="-8.537399">
                <ele>205.8</ele>
                <time>2020-11-30T16:02:38.000Z</time>
            </trkpt>
            <trkpt lat="40.914268" lon="-8.537421">
                <ele>205.9</ele>
                <time>2020-11-30T16:02:39.000Z</time>
            </trkpt>
            <trkpt lat="40.914254" lon="-8.537445">
                <ele>205.9</ele>
                <time>2020-11-30T16:02:40.000Z</time>
            </trkpt>
            <trkpt lat="40.914245" lon="-8.537471">
                <ele>206.0</ele>
                <time>2020-11-30T16:02:41.000Z</time>
            </trkpt>
            <trkpt lat="40.914241" lon="-8.537498">
                <ele>206.0</ele>
                <time>2020-11-30T16:02:42.000Z</time>
            </trkpt>
            <trkpt lat="40.914243" lon="-8.537526">
                <ele>206.0</ele>
                <time>2020-11-30T16:02:43.000Z</time>
            </trkpt>
            <trkpt lat="40.91425" lon="-8.537555">
                <ele>205.9</ele>
                <time>2020-11-30T16:02:44.000Z</time>
            </trkpt>
            <trkpt lat="40.914262" lon="-8.537584">
                <ele>205.9</ele>
                <time>2020-11-30T16:02:45.000Z</time>
            </trkpt>
            <trkpt lat="40.914277" lon="-8.537611">
                <ele>205.9</ele>
                <time>2020-11-30T16:02:46.000Z</time>
            </trkpt>
            <trkpt lat="40.914295" lon="-8.537637">
                <ele>205.9</ele>
                <time>2020-11-30T16:02:47.000Z</time>
            </trkpt>
            <trkpt lat="40.914313" lon="-8.537659">
                <ele>205.9</ele>
                <time>2020-11-30T16:02:48.000Z</time>
            </trkpt>
            <trkpt lat="40.914333" lon="-8.53768">
                <ele>205.9</ele>
                <time>2020-11-30T16:02:49.000Z</time>
            </trkpt>
            <trkpt lat="40.914353" lon="-8.537698">
                <ele>205.9</ele>
                <time>2020-11-30T16:02:50.000Z</time>
            </trkpt>
            <trkpt lat="40.914375" lon="-8.537714">
                <ele>205.9</ele>
                <time>2020-11-30T16:02:51.000Z</time>
            </trkpt>
            <trkpt lat="40.914397" lon="-8.537729">
                <ele>205.9</ele>
                <time>2020-11-30T16:02:52.000Z</time>
            </trkpt>
            <trkpt lat="40.914419" lon="-8.537743">
                <ele>205.9</ele>
                <time>2020-11-30T16:02:53.000Z</time>
            </trkpt>
            <trkpt lat="40.914442" lon="-8.537756">
                <ele>205.9</ele>
                <time>2020-11-30T16:02:54.000Z</time>
            </trkpt>
            <trkpt lat="40.914465" lon="-8.537768">
                <ele>205.9</ele>
                <time>2020-11-30T16:02:55.000Z</time>
            </trkpt>
            <trkpt lat="40.914488" lon="-8.53778">
                <ele>205.9</ele>
                <time>2020-11-30T16:02:56.000Z</time>
            </trkpt>
            <trkpt lat="40.914511" lon="-8.537792">
                <ele>205.9</ele>
                <time>2020-11-30T16:02:57.000Z</time>
            </trkpt>
            <trkpt lat="40.914534" lon="-8.537804">
                <ele>206.0</ele>
                <time>2020-11-30T16:02:58.000Z</time>
            </trkpt>
            <trkpt lat="40.914557" lon="-8.537817">
                <ele>206.0</ele>
                <time>2020-11-30T16:02:59.000Z</time>
            </trkpt>
            <trkpt lat="40.91458" lon="-8.53783">
                <ele>206.0</ele>
                <time>2020-11-30T16:03:00.000Z</time>
            </trkpt>
            <trkpt lat="40.914602" lon="-8.537843">
                <ele>206.0</ele>
                <time>2020-11-30T16:03:01.000Z</time>
            </trkpt>
            <trkpt lat="40.914624" lon="-8.537857">
                <ele>206.0</ele>
                <time>2020-11-30T16:03:02.000Z</time>
            </trkpt>
            <trkpt lat="40.914646" lon="-8.537871">
                <ele>206.1</ele>
                <time>2020-11-30T16:03:03.000Z</time>
            </trkpt>
            <trkpt lat="40.914667" lon="-8.537885">
                <ele>206.1</ele>
                <time>2020-11-30T16:03:04.000Z</time>
            </trkpt>
            <trkpt lat="40.914688" lon="-8.5379">
                <ele>206.1</ele>
                <time>2020-11-30T16:03:05.000Z</time>
            </trkpt>
            <trkpt lat="40.914709" lon="-8.537915">
                <ele>206.2</ele>
                <time>2020-11-30T16:03:06.000Z</time>
            </trkpt>
            <trkpt lat="40.914729" lon="-8.53793">
                <ele>206.2</ele>
                <time>2020-11-30T16:03:07.000Z</time>
            </trkpt>
            <trkpt lat="40.914748" lon="-8.537945">
                <ele>206.2</ele>
                <time>2020-11-30T16:03:08.000Z</time>
            </trkpt>
            <trkpt lat="40.914767" lon="-8.53796">
                <ele>206.2</ele>
                <time>2020-11-30T16:03:09.000Z</time>
            </trkpt>
            <trkpt lat="40.914786" lon="-8.537975">
                <ele>206.3</ele>
                <time>2020-11-30T16:03:10.000Z</time>
            </trkpt>
            <trkpt lat="40.914805" lon="-8.53799">
                <ele>206.3</ele>
                <time>2020-11-30T16:03:11.000Z</time>
            </trkpt>
            <trkpt lat="40.914823" lon="-8.538004">
                <ele>206.3</ele>
                <time>2020-11-30T16:03:12.000Z</time>
            </trkpt>
            <trkpt lat="40.914842" lon="-8.538019">
                <ele>206.4</ele>
                <time>2020-11-30T16:03:13.000Z</time>
            </trkpt>
            <trkpt lat="40.914861" lon="-8.538033">
                <ele>206.4</ele>
                <time>2020-11-30T16:03:14.000Z</time>
            </trkpt>
            <trkpt lat="40.914881" lon="-8.538047">
                <ele>206.5</ele>
                <time>2020-11-30T16:03:15.000Z</time>
            </trkpt>
            <trkpt lat="40.914901" lon="-8.538061">
                <ele>206.5</ele>
                <time>2020-11-30T16:03:16.000Z</time>
            </trkpt>
            <trkpt lat="40.914922" lon="-8.538074">
                <ele>206.6</ele>
                <time>2020-11-30T16:03:17.000Z</time>
            </trkpt>
            <trkpt lat="40.914944" lon="-8.538087">
                <ele>206.6</ele>
                <time>2020-11-30T16:03:18.000Z</time>
            </trkpt>
            <trkpt lat="40.914967" lon="-8.538099">
                <ele>206.7</ele>
                <time>2020-11-30T16:03:19.000Z</time>
            </trkpt>
            <trkpt lat="40.91499" lon="-8.538111">
                <ele>206.7</ele>
                <time>2020-11-30T16:03:20.000Z</time>
            </trkpt>
            <trkpt lat="40.915014" lon="-8.538124">
                <ele>206.7</ele>
                <time>2020-11-30T16:03:21.000Z</time>
            </trkpt>
            <trkpt lat="40.915037" lon="-8.538138">
                <ele>206.7</ele>
                <time>2020-11-30T16:03:22.000Z</time>
            </trkpt>
            <trkpt lat="40.91506" lon="-8.538155">
                <ele>206.6</ele>
                <time>2020-11-30T16:03:23.000Z</time>
            </trkpt>
            <trkpt lat="40.915081" lon="-8.538175">
                <ele>206.6</ele>
                <time>2020-11-30T16:03:24.000Z</time>
            </trkpt>
            <trkpt lat="40.915098" lon="-8.538198">
                <ele>206.5</ele>
                <time>2020-11-30T16:03:25.000Z</time>
            </trkpt>
            <trkpt lat="40.915109" lon="-8.538226">
                <ele>206.5</ele>
                <time>2020-11-30T16:03:26.000Z</time>
            </trkpt>
            <trkpt lat="40.915111" lon="-8.538258">
                <ele>206.5</ele>
                <time>2020-11-30T16:03:27.000Z</time>
            </trkpt>
            <trkpt lat="40.915106" lon="-8.538292">
                <ele>206.6</ele>
                <time>2020-11-30T16:03:28.000Z</time>
            </trkpt>
            <trkpt lat="40.915096" lon="-8.538328">
                <ele>206.6</ele>
                <time>2020-11-30T16:03:29.000Z</time>
            </trkpt>
            <trkpt lat="40.915082" lon="-8.538365">
                <ele>206.6</ele>
                <time>2020-11-30T16:03:30.000Z</time>
            </trkpt>
            <trkpt lat="40.915065" lon="-8.538401">
                <ele>206.4</ele>
                <time>2020-11-30T16:03:31.000Z</time>
            </trkpt>
            <trkpt lat="40.915046" lon="-8.538436">
                <ele>206.3</ele>
                <time>2020-11-30T16:03:32.000Z</time>
            </trkpt>
            <trkpt lat="40.915028" lon="-8.53847">
                <ele>206.2</ele>
                <time>2020-11-30T16:03:33.000Z</time>
            </trkpt>
            <trkpt lat="40.915011" lon="-8.538502">
                <ele>206.2</ele>
                <time>2020-11-30T16:03:34.000Z</time>
            </trkpt>
            <trkpt lat="40.914994" lon="-8.538532">
                <ele>206.0</ele>
                <time>2020-11-30T16:03:35.000Z</time>
            </trkpt>
            <trkpt lat="40.914979" lon="-8.538561">
                <ele>205.9</ele>
                <time>2020-11-30T16:03:36.000Z</time>
            </trkpt>
            <trkpt lat="40.914965" lon="-8.538588">
                <ele>205.8</ele>
                <time>2020-11-30T16:03:37.000Z</time>
            </trkpt>
            <trkpt lat="40.914952" lon="-8.538616">
                <ele>205.7</ele>
                <time>2020-11-30T16:03:38.000Z</time>
            </trkpt>
            <trkpt lat="40.914939" lon="-8.538643">
                <ele>205.6</ele>
                <time>2020-11-30T16:03:39.000Z</time>
            </trkpt>
            <trkpt lat="40.914927" lon="-8.53867">
                <ele>205.5</ele>
                <time>2020-11-30T16:03:40.000Z</time>
            </trkpt>
            <trkpt lat="40.914916" lon="-8.538697">
                <ele>205.4</ele>
                <time>2020-11-30T16:03:41.000Z</time>
            </trkpt>
            <trkpt lat="40.914904" lon="-8.538724">
                <ele>205.3</ele>
                <time>2020-11-30T16:03:42.000Z</time>
            </trkpt>
            <trkpt lat="40.914892" lon="-8.538752">
                <ele>205.2</ele>
                <time>2020-11-30T16:03:43.000Z</time>
            </trkpt>
            <trkpt lat="40.91488" lon="-8.538779">
                <ele>205.1</ele>
                <time>2020-11-30T16:03:44.000Z</time>
            </trkpt>
            <trkpt lat="40.914867" lon="-8.538806">
                <ele>205.0</ele>
                <time>2020-11-30T16:03:45.000Z</time>
            </trkpt>
            <trkpt lat="40.914853" lon="-8.538834">
                <ele>205.0</ele>
                <time>2020-11-30T16:03:46.000Z</time>
            </trkpt>
            <trkpt lat="40.914838" lon="-8.538862">
                <ele>204.9</ele>
                <time>2020-11-30T16:03:47.000Z</time>
            </trkpt>
            <trkpt lat="40.914822" lon="-8.53889">
                <ele>204.9</ele>
                <time>2020-11-30T16:03:48.000Z</time>
            </trkpt>
            <trkpt lat="40.914804" lon="-8.538919">
                <ele>204.9</ele>
                <time>2020-11-30T16:03:49.000Z</time>
            </trkpt>
            <trkpt lat="40.914785" lon="-8.538948">
                <ele>204.9</ele>
                <time>2020-11-30T16:03:50.000Z</time>
            </trkpt>
            <trkpt lat="40.914767" lon="-8.538976">
                <ele>204.9</ele>
                <time>2020-11-30T16:03:51.000Z</time>
            </trkpt>
            <trkpt lat="40.91475" lon="-8.539004">
                <ele>204.9</ele>
                <time>2020-11-30T16:03:52.000Z</time>
            </trkpt>
            <trkpt lat="40.914734" lon="-8.539032">
                <ele>204.9</ele>
                <time>2020-11-30T16:03:53.000Z</time>
            </trkpt>
            <trkpt lat="40.914721" lon="-8.539059">
                <ele>204.9</ele>
                <time>2020-11-30T16:03:54.000Z</time>
            </trkpt>
            <trkpt lat="40.914711" lon="-8.539085">
                <ele>204.9</ele>
                <time>2020-11-30T16:03:55.000Z</time>
            </trkpt>
            <trkpt lat="40.914704" lon="-8.53911">
                <ele>204.9</ele>
                <time>2020-11-30T16:03:56.000Z</time>
            </trkpt>
            <trkpt lat="40.914699" lon="-8.539135">
                <ele>204.9</ele>
                <time>2020-11-30T16:03:57.000Z</time>
            </trkpt>
            <trkpt lat="40.914695" lon="-8.53916">
                <ele>204.8</ele>
                <time>2020-11-30T16:03:58.000Z</time>
            </trkpt>
            <trkpt lat="40.914692" lon="-8.539184">
                <ele>204.8</ele>
                <time>2020-11-30T16:03:59.000Z</time>
            </trkpt>
            <trkpt lat="40.914688" lon="-8.539209">
                <ele>204.8</ele>
                <time>2020-11-30T16:04:00.000Z</time>
            </trkpt>
            <trkpt lat="40.914685" lon="-8.539234">
                <ele>204.7</ele>
                <time>2020-11-30T16:04:01.000Z</time>
            </trkpt>
            <trkpt lat="40.914681" lon="-8.53926">
                <ele>204.7</ele>
                <time>2020-11-30T16:04:02.000Z</time>
            </trkpt>
            <trkpt lat="40.914677" lon="-8.539285">
                <ele>204.7</ele>
                <time>2020-11-30T16:04:03.000Z</time>
            </trkpt>
            <trkpt lat="40.914672" lon="-8.539311">
                <ele>204.7</ele>
                <time>2020-11-30T16:04:04.000Z</time>
            </trkpt>
            <trkpt lat="40.914668" lon="-8.539337">
                <ele>204.6</ele>
                <time>2020-11-30T16:04:05.000Z</time>
            </trkpt>
            <trkpt lat="40.914663" lon="-8.539362">
                <ele>204.6</ele>
                <time>2020-11-30T16:04:06.000Z</time>
            </trkpt>
            <trkpt lat="40.914658" lon="-8.539388">
                <ele>204.6</ele>
                <time>2020-11-30T16:04:07.000Z</time>
            </trkpt>
            <trkpt lat="40.914653" lon="-8.539414">
                <ele>204.6</ele>
                <time>2020-11-30T16:04:08.000Z</time>
            </trkpt>
            <trkpt lat="40.914647" lon="-8.539439">
                <ele>204.6</ele>
                <time>2020-11-30T16:04:09.000Z</time>
            </trkpt>
            <trkpt lat="40.914642" lon="-8.539465">
                <ele>204.5</ele>
                <time>2020-11-30T16:04:10.000Z</time>
            </trkpt>
            <trkpt lat="40.914636" lon="-8.53949">
                <ele>204.5</ele>
                <time>2020-11-30T16:04:11.000Z</time>
            </trkpt>
            <trkpt lat="40.91463" lon="-8.539515">
                <ele>204.5</ele>
                <time>2020-11-30T16:04:12.000Z</time>
            </trkpt>
            <trkpt lat="40.914624" lon="-8.539541">
                <ele>204.5</ele>
                <time>2020-11-30T16:04:13.000Z</time>
            </trkpt>
            <trkpt lat="40.914618" lon="-8.539567">
                <ele>204.5</ele>
                <time>2020-11-30T16:04:14.000Z</time>
            </trkpt>
            <trkpt lat="40.914612" lon="-8.539593">
                <ele>204.5</ele>
                <time>2020-11-30T16:04:15.000Z</time>
            </trkpt>
            <trkpt lat="40.914606" lon="-8.53962">
                <ele>204.5</ele>
                <time>2020-11-30T16:04:16.000Z</time>
            </trkpt>
            <trkpt lat="40.9146" lon="-8.539648">
                <ele>204.5</ele>
                <time>2020-11-30T16:04:17.000Z</time>
            </trkpt>
            <trkpt lat="40.914594" lon="-8.539676">
                <ele>204.5</ele>
                <time>2020-11-30T16:04:18.000Z</time>
            </trkpt>
            <trkpt lat="40.914588" lon="-8.539706">
                <ele>204.5</ele>
                <time>2020-11-30T16:04:19.000Z</time>
            </trkpt>
            <trkpt lat="40.914582" lon="-8.539736">
                <ele>204.5</ele>
                <time>2020-11-30T16:04:20.000Z</time>
            </trkpt>
            <trkpt lat="40.914577" lon="-8.539767">
                <ele>204.5</ele>
                <time>2020-11-30T16:04:21.000Z</time>
            </trkpt>
            <trkpt lat="40.914572" lon="-8.539799">
                <ele>204.5</ele>
                <time>2020-11-30T16:04:22.000Z</time>
            </trkpt>
            <trkpt lat="40.914567" lon="-8.539832">
                <ele>204.4</ele>
                <time>2020-11-30T16:04:23.000Z</time>
            </trkpt>
            <trkpt lat="40.914564" lon="-8.539865">
                <ele>204.4</ele>
                <time>2020-11-30T16:04:24.000Z</time>
            </trkpt>
            <trkpt lat="40.914561" lon="-8.539899">
                <ele>204.4</ele>
                <time>2020-11-30T16:04:25.000Z</time>
            </trkpt>
            <trkpt lat="40.914559" lon="-8.539932">
                <ele>204.3</ele>
                <time>2020-11-30T16:04:26.000Z</time>
            </trkpt>
            <trkpt lat="40.914558" lon="-8.539966">
                <ele>204.3</ele>
                <time>2020-11-30T16:04:27.000Z</time>
            </trkpt>
            <trkpt lat="40.914558" lon="-8.539999">
                <ele>204.2</ele>
                <time>2020-11-30T16:04:28.000Z</time>
            </trkpt>
            <trkpt lat="40.914559" lon="-8.540033">
                <ele>204.1</ele>
                <time>2020-11-30T16:04:29.000Z</time>
            </trkpt>
            <trkpt lat="40.914562" lon="-8.540066">
                <ele>203.9</ele>
                <time>2020-11-30T16:04:30.000Z</time>
            </trkpt>
            <trkpt lat="40.914566" lon="-8.540098">
                <ele>203.7</ele>
                <time>2020-11-30T16:04:31.000Z</time>
            </trkpt>
            <trkpt lat="40.914571" lon="-8.54013">
                <ele>203.6</ele>
                <time>2020-11-30T16:04:32.000Z</time>
            </trkpt>
            <trkpt lat="40.914576" lon="-8.54016">
                <ele>203.4</ele>
                <time>2020-11-30T16:04:33.000Z</time>
            </trkpt>
            <trkpt lat="40.914581" lon="-8.54019">
                <ele>203.2</ele>
                <time>2020-11-30T16:04:34.000Z</time>
            </trkpt>
            <trkpt lat="40.914586" lon="-8.540218">
                <ele>203.1</ele>
                <time>2020-11-30T16:04:35.000Z</time>
            </trkpt>
            <trkpt lat="40.914589" lon="-8.540244">
                <ele>202.9</ele>
                <time>2020-11-30T16:04:36.000Z</time>
            </trkpt>
            <trkpt lat="40.914592" lon="-8.540269">
                <ele>202.8</ele>
                <time>2020-11-30T16:04:37.000Z</time>
            </trkpt>
            <trkpt lat="40.914593" lon="-8.540291">
                <ele>202.7</ele>
                <time>2020-11-30T16:04:38.000Z</time>
            </trkpt>
            <trkpt lat="40.914592" lon="-8.540312">
                <ele>202.6</ele>
                <time>2020-11-30T16:04:39.000Z</time>
            </trkpt>
            <trkpt lat="40.914589" lon="-8.54033">
                <ele>202.6</ele>
                <time>2020-11-30T16:04:40.000Z</time>
            </trkpt>
            <trkpt lat="40.914583" lon="-8.540346">
                <ele>202.5</ele>
                <time>2020-11-30T16:04:41.000Z</time>
            </trkpt>
            <trkpt lat="40.914575" lon="-8.540361">
                <ele>202.5</ele>
                <time>2020-11-30T16:04:42.000Z</time>
            </trkpt>
            <trkpt lat="40.914565" lon="-8.540376">
                <ele>202.5</ele>
                <time>2020-11-30T16:04:43.000Z</time>
            </trkpt>
            <trkpt lat="40.914554" lon="-8.540392">
                <ele>202.5</ele>
                <time>2020-11-30T16:04:44.000Z</time>
            </trkpt>
            <trkpt lat="40.914542" lon="-8.540413">
                <ele>202.5</ele>
                <time>2020-11-30T16:04:45.000Z</time>
            </trkpt>
            <trkpt lat="40.91453" lon="-8.540437">
                <ele>202.4</ele>
                <time>2020-11-30T16:04:46.000Z</time>
            </trkpt>
            <trkpt lat="40.914517" lon="-8.540465">
                <ele>202.4</ele>
                <time>2020-11-30T16:04:47.000Z</time>
            </trkpt>
            <trkpt lat="40.914506" lon="-8.540496">
                <ele>202.3</ele>
                <time>2020-11-30T16:04:48.000Z</time>
            </trkpt>
            <trkpt lat="40.914495" lon="-8.540528">
                <ele>202.2</ele>
                <time>2020-11-30T16:04:49.000Z</time>
            </trkpt>
            <trkpt lat="40.914486" lon="-8.540561">
                <ele>202.0</ele>
                <time>2020-11-30T16:04:50.000Z</time>
            </trkpt>
            <trkpt lat="40.91448" lon="-8.540594">
                <ele>201.9</ele>
                <time>2020-11-30T16:04:51.000Z</time>
            </trkpt>
            <trkpt lat="40.914474" lon="-8.540626">
                <ele>201.7</ele>
                <time>2020-11-30T16:04:52.000Z</time>
            </trkpt>
            <trkpt lat="40.914469" lon="-8.540658">
                <ele>201.6</ele>
                <time>2020-11-30T16:04:53.000Z</time>
            </trkpt>
            <trkpt lat="40.914464" lon="-8.540688">
                <ele>201.4</ele>
                <time>2020-11-30T16:04:54.000Z</time>
            </trkpt>
            <trkpt lat="40.914457" lon="-8.540717">
                <ele>201.3</ele>
                <time>2020-11-30T16:04:55.000Z</time>
            </trkpt>
            <trkpt lat="40.914448" lon="-8.540743">
                <ele>201.2</ele>
                <time>2020-11-30T16:04:56.000Z</time>
            </trkpt>
            <trkpt lat="40.914437" lon="-8.540768">
                <ele>201.0</ele>
                <time>2020-11-30T16:04:57.000Z</time>
            </trkpt>
            <trkpt lat="40.914422" lon="-8.540792">
                <ele>200.9</ele>
                <time>2020-11-30T16:04:58.000Z</time>
            </trkpt>
            <trkpt lat="40.914407" lon="-8.540815">
                <ele>200.8</ele>
                <time>2020-11-30T16:04:59.000Z</time>
            </trkpt>
            <trkpt lat="40.91439" lon="-8.540838">
                <ele>200.7</ele>
                <time>2020-11-30T16:05:00.000Z</time>
            </trkpt>
            <trkpt lat="40.914373" lon="-8.540863">
                <ele>200.7</ele>
                <time>2020-11-30T16:05:01.000Z</time>
            </trkpt>
            <trkpt lat="40.914357" lon="-8.540889">
                <ele>200.6</ele>
                <time>2020-11-30T16:05:02.000Z</time>
            </trkpt>
            <trkpt lat="40.914342" lon="-8.540918">
                <ele>200.5</ele>
                <time>2020-11-30T16:05:03.000Z</time>
            </trkpt>
            <trkpt lat="40.914329" lon="-8.540948">
                <ele>200.4</ele>
                <time>2020-11-30T16:05:04.000Z</time>
            </trkpt>
            <trkpt lat="40.914317" lon="-8.54098">
                <ele>200.4</ele>
                <time>2020-11-30T16:05:05.000Z</time>
            </trkpt>
            <trkpt lat="40.914307" lon="-8.541012">
                <ele>200.3</ele>
                <time>2020-11-30T16:05:06.000Z</time>
            </trkpt>
            <trkpt lat="40.914299" lon="-8.541046">
                <ele>200.2</ele>
                <time>2020-11-30T16:05:07.000Z</time>
            </trkpt>
            <trkpt lat="40.914294" lon="-8.54108">
                <ele>200.0</ele>
                <time>2020-11-30T16:05:08.000Z</time>
            </trkpt>
            <trkpt lat="40.914291" lon="-8.541115">
                <ele>199.9</ele>
                <time>2020-11-30T16:05:09.000Z</time>
            </trkpt>
            <trkpt lat="40.914292" lon="-8.541149">
                <ele>199.8</ele>
                <time>2020-11-30T16:05:10.000Z</time>
            </trkpt>
            <trkpt lat="40.914296" lon="-8.541184">
                <ele>199.7</ele>
                <time>2020-11-30T16:05:11.000Z</time>
            </trkpt>
            <trkpt lat="40.914303" lon="-8.541218">
                <ele>199.6</ele>
                <time>2020-11-30T16:05:12.000Z</time>
            </trkpt>
            <trkpt lat="40.914312" lon="-8.541251">
                <ele>199.5</ele>
                <time>2020-11-30T16:05:13.000Z</time>
            </trkpt>
            <trkpt lat="40.914324" lon="-8.541284">
                <ele>199.4</ele>
                <time>2020-11-30T16:05:14.000Z</time>
            </trkpt>
            <trkpt lat="40.914337" lon="-8.541316">
                <ele>199.3</ele>
                <time>2020-11-30T16:05:15.000Z</time>
            </trkpt>
            <trkpt lat="40.914349" lon="-8.541347">
                <ele>199.2</ele>
                <time>2020-11-30T16:05:16.000Z</time>
            </trkpt>
            <trkpt lat="40.914361" lon="-8.541377">
                <ele>199.1</ele>
                <time>2020-11-30T16:05:17.000Z</time>
            </trkpt>
            <trkpt lat="40.914372" lon="-8.541405">
                <ele>199.0</ele>
                <time>2020-11-30T16:05:18.000Z</time>
            </trkpt>
            <trkpt lat="40.91438" lon="-8.541432">
                <ele>199.0</ele>
                <time>2020-11-30T16:05:19.000Z</time>
            </trkpt>
            <trkpt lat="40.914384" lon="-8.541457">
                <ele>198.9</ele>
                <time>2020-11-30T16:05:20.000Z</time>
            </trkpt>
            <trkpt lat="40.914384" lon="-8.54148">
                <ele>198.8</ele>
                <time>2020-11-30T16:05:21.000Z</time>
            </trkpt>
            <trkpt lat="40.91438" lon="-8.541502">
                <ele>198.7</ele>
                <time>2020-11-30T16:05:22.000Z</time>
            </trkpt>
            <trkpt lat="40.914369" lon="-8.541521">
                <ele>198.7</ele>
                <time>2020-11-30T16:05:23.000Z</time>
            </trkpt>
            <trkpt lat="40.914354" lon="-8.541538">
                <ele>198.6</ele>
                <time>2020-11-30T16:05:24.000Z</time>
            </trkpt>
            <trkpt lat="40.914335" lon="-8.541552">
                <ele>198.6</ele>
                <time>2020-11-30T16:05:25.000Z</time>
            </trkpt>
            <trkpt lat="40.914313" lon="-8.541564">
                <ele>198.5</ele>
                <time>2020-11-30T16:05:26.000Z</time>
            </trkpt>
            <trkpt lat="40.914289" lon="-8.541571">
                <ele>198.5</ele>
                <time>2020-11-30T16:05:27.000Z</time>
            </trkpt>
            <trkpt lat="40.914264" lon="-8.541576">
                <ele>198.4</ele>
                <time>2020-11-30T16:05:28.000Z</time>
            </trkpt>
            <trkpt lat="40.91424" lon="-8.541577">
                <ele>198.4</ele>
                <time>2020-11-30T16:05:29.000Z</time>
            </trkpt>
            <trkpt lat="40.914216" lon="-8.541577">
                <ele>198.4</ele>
                <time>2020-11-30T16:05:30.000Z</time>
            </trkpt>
            <trkpt lat="40.914194" lon="-8.541577">
                <ele>198.3</ele>
                <time>2020-11-30T16:05:31.000Z</time>
            </trkpt>
            <trkpt lat="40.914174" lon="-8.541577">
                <ele>198.3</ele>
                <time>2020-11-30T16:05:32.000Z</time>
            </trkpt>
            <trkpt lat="40.914156" lon="-8.541579">
                <ele>198.2</ele>
                <time>2020-11-30T16:05:33.000Z</time>
            </trkpt>
            <trkpt lat="40.914141" lon="-8.541581">
                <ele>198.0</ele>
                <time>2020-11-30T16:05:34.000Z</time>
            </trkpt>
            <trkpt lat="40.914127" lon="-8.541583">
                <ele>197.9</ele>
                <time>2020-11-30T16:05:35.000Z</time>
            </trkpt>
            <trkpt lat="40.914113" lon="-8.541583">
                <ele>197.7</ele>
                <time>2020-11-30T16:05:36.000Z</time>
            </trkpt>
            <trkpt lat="40.914097" lon="-8.541584">
                <ele>197.6</ele>
                <time>2020-11-30T16:05:37.000Z</time>
            </trkpt>
            <trkpt lat="40.91408" lon="-8.541587">
                <ele>197.4</ele>
                <time>2020-11-30T16:05:38.000Z</time>
            </trkpt>
            <trkpt lat="40.91406" lon="-8.541593">
                <ele>197.1</ele>
                <time>2020-11-30T16:05:39.000Z</time>
            </trkpt>
            <trkpt lat="40.914039" lon="-8.5416">
                <ele>196.9</ele>
                <time>2020-11-30T16:05:40.000Z</time>
            </trkpt>
            <trkpt lat="40.914017" lon="-8.541607">
                <ele>196.6</ele>
                <time>2020-11-30T16:05:41.000Z</time>
            </trkpt>
            <trkpt lat="40.913994" lon="-8.541613">
                <ele>196.4</ele>
                <time>2020-11-30T16:05:42.000Z</time>
            </trkpt>
            <trkpt lat="40.913972" lon="-8.541617">
                <ele>196.1</ele>
                <time>2020-11-30T16:05:43.000Z</time>
            </trkpt>
            <trkpt lat="40.913948" lon="-8.541619">
                <ele>195.8</ele>
                <time>2020-11-30T16:05:44.000Z</time>
            </trkpt>
            <trkpt lat="40.913925" lon="-8.541622">
                <ele>195.6</ele>
                <time>2020-11-30T16:05:45.000Z</time>
            </trkpt>
            <trkpt lat="40.9139" lon="-8.541625">
                <ele>195.3</ele>
                <time>2020-11-30T16:05:46.000Z</time>
            </trkpt>
            <trkpt lat="40.913875" lon="-8.541626">
                <ele>195.0</ele>
                <time>2020-11-30T16:05:47.000Z</time>
            </trkpt>
            <trkpt lat="40.913848" lon="-8.541624">
                <ele>194.8</ele>
                <time>2020-11-30T16:05:48.000Z</time>
            </trkpt>
            <trkpt lat="40.913821" lon="-8.541617">
                <ele>194.5</ele>
                <time>2020-11-30T16:05:49.000Z</time>
            </trkpt>
            <trkpt lat="40.913797" lon="-8.541608">
                <ele>194.3</ele>
                <time>2020-11-30T16:05:50.000Z</time>
            </trkpt>
            <trkpt lat="40.913778" lon="-8.541595">
                <ele>194.1</ele>
                <time>2020-11-30T16:05:51.000Z</time>
            </trkpt>
            <trkpt lat="40.913763" lon="-8.541579">
                <ele>194.1</ele>
                <time>2020-11-30T16:05:52.000Z</time>
            </trkpt>
            <trkpt lat="40.913748" lon="-8.541559">
                <ele>194.0</ele>
                <time>2020-11-30T16:05:53.000Z</time>
            </trkpt>
            <trkpt lat="40.913734" lon="-8.541535">
                <ele>194.0</ele>
                <time>2020-11-30T16:05:54.000Z</time>
            </trkpt>
            <trkpt lat="40.913722" lon="-8.541509">
                <ele>194.0</ele>
                <time>2020-11-30T16:05:55.000Z</time>
            </trkpt>
            <trkpt lat="40.913709" lon="-8.541482">
                <ele>194.0</ele>
                <time>2020-11-30T16:05:56.000Z</time>
            </trkpt>
            <trkpt lat="40.913697" lon="-8.541455">
                <ele>194.0</ele>
                <time>2020-11-30T16:05:57.000Z</time>
            </trkpt>
            <trkpt lat="40.913685" lon="-8.541429">
                <ele>194.0</ele>
                <time>2020-11-30T16:05:58.000Z</time>
            </trkpt>
            <trkpt lat="40.913673" lon="-8.541404">
                <ele>194.0</ele>
                <time>2020-11-30T16:05:59.000Z</time>
            </trkpt>
            <trkpt lat="40.91366" lon="-8.541382">
                <ele>194.0</ele>
                <time>2020-11-30T16:06:00.000Z</time>
            </trkpt>
            <trkpt lat="40.913646" lon="-8.541361">
                <ele>193.9</ele>
                <time>2020-11-30T16:06:01.000Z</time>
            </trkpt>
            <trkpt lat="40.913631" lon="-8.541342">
                <ele>193.9</ele>
                <time>2020-11-30T16:06:02.000Z</time>
            </trkpt>
            <trkpt lat="40.913614" lon="-8.541323">
                <ele>193.8</ele>
                <time>2020-11-30T16:06:03.000Z</time>
            </trkpt>
            <trkpt lat="40.913595" lon="-8.541305">
                <ele>193.7</ele>
                <time>2020-11-30T16:06:04.000Z</time>
            </trkpt>
            <trkpt lat="40.913575" lon="-8.541288">
                <ele>193.6</ele>
                <time>2020-11-30T16:06:05.000Z</time>
            </trkpt>
            <trkpt lat="40.913553" lon="-8.541272">
                <ele>193.5</ele>
                <time>2020-11-30T16:06:06.000Z</time>
            </trkpt>
            <trkpt lat="40.913532" lon="-8.541258">
                <ele>193.4</ele>
                <time>2020-11-30T16:06:07.000Z</time>
            </trkpt>
            <trkpt lat="40.913511" lon="-8.541246">
                <ele>193.2</ele>
                <time>2020-11-30T16:06:08.000Z</time>
            </trkpt>
            <trkpt lat="40.913491" lon="-8.541236">
                <ele>193.1</ele>
                <time>2020-11-30T16:06:09.000Z</time>
            </trkpt>
            <trkpt lat="40.913472" lon="-8.541228">
                <ele>193.0</ele>
                <time>2020-11-30T16:06:10.000Z</time>
            </trkpt>
            <trkpt lat="40.913454" lon="-8.541224">
                <ele>192.8</ele>
                <time>2020-11-30T16:06:11.000Z</time>
            </trkpt>
            <trkpt lat="40.913437" lon="-8.541223">
                <ele>192.6</ele>
                <time>2020-11-30T16:06:12.000Z</time>
            </trkpt>
            <trkpt lat="40.913419" lon="-8.541227">
                <ele>192.5</ele>
                <time>2020-11-30T16:06:13.000Z</time>
            </trkpt>
            <trkpt lat="40.913401" lon="-8.541235">
                <ele>192.2</ele>
                <time>2020-11-30T16:06:14.000Z</time>
            </trkpt>
            <trkpt lat="40.913383" lon="-8.541248">
                <ele>192.0</ele>
                <time>2020-11-30T16:06:15.000Z</time>
            </trkpt>
            <trkpt lat="40.913364" lon="-8.541263">
                <ele>191.7</ele>
                <time>2020-11-30T16:06:16.000Z</time>
            </trkpt>
            <trkpt lat="40.913345" lon="-8.541281">
                <ele>191.4</ele>
                <time>2020-11-30T16:06:17.000Z</time>
            </trkpt>
            <trkpt lat="40.913326" lon="-8.5413">
                <ele>191.1</ele>
                <time>2020-11-30T16:06:18.000Z</time>
            </trkpt>
            <trkpt lat="40.913307" lon="-8.541319">
                <ele>190.7</ele>
                <time>2020-11-30T16:06:19.000Z</time>
            </trkpt>
            <trkpt lat="40.913287" lon="-8.541338">
                <ele>190.2</ele>
                <time>2020-11-30T16:06:20.000Z</time>
            </trkpt>
            <trkpt lat="40.913267" lon="-8.541356">
                <ele>189.8</ele>
                <time>2020-11-30T16:06:21.000Z</time>
            </trkpt>
            <trkpt lat="40.913247" lon="-8.541372">
                <ele>189.4</ele>
                <time>2020-11-30T16:06:22.000Z</time>
            </trkpt>
            <trkpt lat="40.913227" lon="-8.541385">
                <ele>189.1</ele>
                <time>2020-11-30T16:06:23.000Z</time>
            </trkpt>
            <trkpt lat="40.913207" lon="-8.541395">
                <ele>188.7</ele>
                <time>2020-11-30T16:06:24.000Z</time>
            </trkpt>
            <trkpt lat="40.913186" lon="-8.541401">
                <ele>188.4</ele>
                <time>2020-11-30T16:06:25.000Z</time>
            </trkpt>
            <trkpt lat="40.913165" lon="-8.541404">
                <ele>188.0</ele>
                <time>2020-11-30T16:06:26.000Z</time>
            </trkpt>
            <trkpt lat="40.913144" lon="-8.541405">
                <ele>187.7</ele>
                <time>2020-11-30T16:06:27.000Z</time>
            </trkpt>
            <trkpt lat="40.913123" lon="-8.541405">
                <ele>187.4</ele>
                <time>2020-11-30T16:06:28.000Z</time>
            </trkpt>
            <trkpt lat="40.913102" lon="-8.541402">
                <ele>187.1</ele>
                <time>2020-11-30T16:06:29.000Z</time>
            </trkpt>
            <trkpt lat="40.913081" lon="-8.541399">
                <ele>186.8</ele>
                <time>2020-11-30T16:06:30.000Z</time>
            </trkpt>
            <trkpt lat="40.91306" lon="-8.541396">
                <ele>186.5</ele>
                <time>2020-11-30T16:06:31.000Z</time>
            </trkpt>
            <trkpt lat="40.913038" lon="-8.541393">
                <ele>186.2</ele>
                <time>2020-11-30T16:06:32.000Z</time>
            </trkpt>
            <trkpt lat="40.913017" lon="-8.54139">
                <ele>185.9</ele>
                <time>2020-11-30T16:06:33.000Z</time>
            </trkpt>
            <trkpt lat="40.912995" lon="-8.541388">
                <ele>185.5</ele>
                <time>2020-11-30T16:06:34.000Z</time>
            </trkpt>
            <trkpt lat="40.912973" lon="-8.541386">
                <ele>185.2</ele>
                <time>2020-11-30T16:06:35.000Z</time>
            </trkpt>
            <trkpt lat="40.912951" lon="-8.541384">
                <ele>184.9</ele>
                <time>2020-11-30T16:06:36.000Z</time>
            </trkpt>
            <trkpt lat="40.912929" lon="-8.541381">
                <ele>184.5</ele>
                <time>2020-11-30T16:06:37.000Z</time>
            </trkpt>
            <trkpt lat="40.912906" lon="-8.541375">
                <ele>184.2</ele>
                <time>2020-11-30T16:06:38.000Z</time>
            </trkpt>
            <trkpt lat="40.912883" lon="-8.541368">
                <ele>183.8</ele>
                <time>2020-11-30T16:06:39.000Z</time>
            </trkpt>
            <trkpt lat="40.912859" lon="-8.541357">
                <ele>183.5</ele>
                <time>2020-11-30T16:06:40.000Z</time>
            </trkpt>
            <trkpt lat="40.912836" lon="-8.541345">
                <ele>183.1</ele>
                <time>2020-11-30T16:06:41.000Z</time>
            </trkpt>
            <trkpt lat="40.912817" lon="-8.541332">
                <ele>182.8</ele>
                <time>2020-11-30T16:06:42.000Z</time>
            </trkpt>
            <trkpt lat="40.912803" lon="-8.541321">
                <ele>182.6</ele>
                <time>2020-11-30T16:06:43.000Z</time>
            </trkpt>
            <trkpt lat="40.91279" lon="-8.541315">
                <ele>182.4</ele>
                <time>2020-11-30T16:06:44.000Z</time>
            </trkpt>
            <trkpt lat="40.912777" lon="-8.541318">
                <ele>182.2</ele>
                <time>2020-11-30T16:06:45.000Z</time>
            </trkpt>
            <trkpt lat="40.912762" lon="-8.541329">
                <ele>181.9</ele>
                <time>2020-11-30T16:06:46.000Z</time>
            </trkpt>
            <trkpt lat="40.912747" lon="-8.541346">
                <ele>181.7</ele>
                <time>2020-11-30T16:06:47.000Z</time>
            </trkpt>
            <trkpt lat="40.912731" lon="-8.541366">
                <ele>181.5</ele>
                <time>2020-11-30T16:06:48.000Z</time>
            </trkpt>
            <trkpt lat="40.912714" lon="-8.541389">
                <ele>181.3</ele>
                <time>2020-11-30T16:06:49.000Z</time>
            </trkpt>
            <trkpt lat="40.912696" lon="-8.541412">
                <ele>181.0</ele>
                <time>2020-11-30T16:06:50.000Z</time>
            </trkpt>
            <trkpt lat="40.912678" lon="-8.541436">
                <ele>180.8</ele>
                <time>2020-11-30T16:06:51.000Z</time>
            </trkpt>
            <trkpt lat="40.912659" lon="-8.541459">
                <ele>180.5</ele>
                <time>2020-11-30T16:06:52.000Z</time>
            </trkpt>
            <trkpt lat="40.912639" lon="-8.541482">
                <ele>180.3</ele>
                <time>2020-11-30T16:06:53.000Z</time>
            </trkpt>
            <trkpt lat="40.912618" lon="-8.541506">
                <ele>180.1</ele>
                <time>2020-11-30T16:06:54.000Z</time>
            </trkpt>
            <trkpt lat="40.912596" lon="-8.541529">
                <ele>179.8</ele>
                <time>2020-11-30T16:06:55.000Z</time>
            </trkpt>
            <trkpt lat="40.912574" lon="-8.541551">
                <ele>179.6</ele>
                <time>2020-11-30T16:06:56.000Z</time>
            </trkpt>
            <trkpt lat="40.912552" lon="-8.541572">
                <ele>179.3</ele>
                <time>2020-11-30T16:06:57.000Z</time>
            </trkpt>
            <trkpt lat="40.912531" lon="-8.541593">
                <ele>179.1</ele>
                <time>2020-11-30T16:06:58.000Z</time>
            </trkpt>
            <trkpt lat="40.912513" lon="-8.541613">
                <ele>179.0</ele>
                <time>2020-11-30T16:06:59.000Z</time>
            </trkpt>
            <trkpt lat="40.912497" lon="-8.541634">
                <ele>178.8</ele>
                <time>2020-11-30T16:07:00.000Z</time>
            </trkpt>
            <trkpt lat="40.91248" lon="-8.541653">
                <ele>178.6</ele>
                <time>2020-11-30T16:07:01.000Z</time>
            </trkpt>
            <trkpt lat="40.912458" lon="-8.541671">
                <ele>178.3</ele>
                <time>2020-11-30T16:07:02.000Z</time>
            </trkpt>
            <trkpt lat="40.912431" lon="-8.541685">
                <ele>177.8</ele>
                <time>2020-11-30T16:07:03.000Z</time>
            </trkpt>
            <trkpt lat="40.912401" lon="-8.541698">
                <ele>177.2</ele>
                <time>2020-11-30T16:07:04.000Z</time>
            </trkpt>
            <trkpt lat="40.912373" lon="-8.541713">
                <ele>176.7</ele>
                <time>2020-11-30T16:07:05.000Z</time>
            </trkpt>
            <trkpt lat="40.912347" lon="-8.54173">
                <ele>176.3</ele>
                <time>2020-11-30T16:07:06.000Z</time>
            </trkpt>
            <trkpt lat="40.912324" lon="-8.541747">
                <ele>175.8</ele>
                <time>2020-11-30T16:07:07.000Z</time>
            </trkpt>
            <trkpt lat="40.912302" lon="-8.541764">
                <ele>175.5</ele>
                <time>2020-11-30T16:07:08.000Z</time>
            </trkpt>
            <trkpt lat="40.912281" lon="-8.54178">
                <ele>175.1</ele>
                <time>2020-11-30T16:07:09.000Z</time>
            </trkpt>
            <trkpt lat="40.912261" lon="-8.541793">
                <ele>174.8</ele>
                <time>2020-11-30T16:07:10.000Z</time>
            </trkpt>
            <trkpt lat="40.912241" lon="-8.541805">
                <ele>174.4</ele>
                <time>2020-11-30T16:07:11.000Z</time>
            </trkpt>
            <trkpt lat="40.912221" lon="-8.541814">
                <ele>174.1</ele>
                <time>2020-11-30T16:07:12.000Z</time>
            </trkpt>
            <trkpt lat="40.9122" lon="-8.541822">
                <ele>173.8</ele>
                <time>2020-11-30T16:07:13.000Z</time>
            </trkpt>
            <trkpt lat="40.912179" lon="-8.541829">
                <ele>173.5</ele>
                <time>2020-11-30T16:07:14.000Z</time>
            </trkpt>
            <trkpt lat="40.912157" lon="-8.541834">
                <ele>173.2</ele>
                <time>2020-11-30T16:07:15.000Z</time>
            </trkpt>
            <trkpt lat="40.912134" lon="-8.541838">
                <ele>172.8</ele>
                <time>2020-11-30T16:07:16.000Z</time>
            </trkpt>
            <trkpt lat="40.91211" lon="-8.541842">
                <ele>172.5</ele>
                <time>2020-11-30T16:07:17.000Z</time>
            </trkpt>
            <trkpt lat="40.912085" lon="-8.541846">
                <ele>172.1</ele>
                <time>2020-11-30T16:07:18.000Z</time>
            </trkpt>
            <trkpt lat="40.912059" lon="-8.54185">
                <ele>171.8</ele>
                <time>2020-11-30T16:07:19.000Z</time>
            </trkpt>
            <trkpt lat="40.912032" lon="-8.541856">
                <ele>171.4</ele>
                <time>2020-11-30T16:07:20.000Z</time>
            </trkpt>
            <trkpt lat="40.912005" lon="-8.541863">
                <ele>171.0</ele>
                <time>2020-11-30T16:07:21.000Z</time>
            </trkpt>
            <trkpt lat="40.911977" lon="-8.54187">
                <ele>170.6</ele>
                <time>2020-11-30T16:07:22.000Z</time>
            </trkpt>
            <trkpt lat="40.91195" lon="-8.541879">
                <ele>170.3</ele>
                <time>2020-11-30T16:07:23.000Z</time>
            </trkpt>
            <trkpt lat="40.911923" lon="-8.541887">
                <ele>169.9</ele>
                <time>2020-11-30T16:07:24.000Z</time>
            </trkpt>
            <trkpt lat="40.911897" lon="-8.541895">
                <ele>169.6</ele>
                <time>2020-11-30T16:07:25.000Z</time>
            </trkpt>
            <trkpt lat="40.911872" lon="-8.541903">
                <ele>169.2</ele>
                <time>2020-11-30T16:07:26.000Z</time>
            </trkpt>
            <trkpt lat="40.911849" lon="-8.541909">
                <ele>168.9</ele>
                <time>2020-11-30T16:07:27.000Z</time>
            </trkpt>
            <trkpt lat="40.911826" lon="-8.541915">
                <ele>168.7</ele>
                <time>2020-11-30T16:07:28.000Z</time>
            </trkpt>
            <trkpt lat="40.911803" lon="-8.541921">
                <ele>168.4</ele>
                <time>2020-11-30T16:07:29.000Z</time>
            </trkpt>
            <trkpt lat="40.911779" lon="-8.541925">
                <ele>168.1</ele>
                <time>2020-11-30T16:07:30.000Z</time>
            </trkpt>
            <trkpt lat="40.911755" lon="-8.541929">
                <ele>167.8</ele>
                <time>2020-11-30T16:07:31.000Z</time>
            </trkpt>
            <trkpt lat="40.911731" lon="-8.541932">
                <ele>167.5</ele>
                <time>2020-11-30T16:07:32.000Z</time>
            </trkpt>
            <trkpt lat="40.911706" lon="-8.541935">
                <ele>167.1</ele>
                <time>2020-11-30T16:07:33.000Z</time>
            </trkpt>
            <trkpt lat="40.91168" lon="-8.541937">
                <ele>166.8</ele>
                <time>2020-11-30T16:07:34.000Z</time>
            </trkpt>
            <trkpt lat="40.911653" lon="-8.541939">
                <ele>166.6</ele>
                <time>2020-11-30T16:07:35.000Z</time>
            </trkpt>
            <trkpt lat="40.911626" lon="-8.54194">
                <ele>166.4</ele>
                <time>2020-11-30T16:07:36.000Z</time>
            </trkpt>
            <trkpt lat="40.911599" lon="-8.541941">
                <ele>166.3</ele>
                <time>2020-11-30T16:07:37.000Z</time>
            </trkpt>
            <trkpt lat="40.911572" lon="-8.541942">
                <ele>166.2</ele>
                <time>2020-11-30T16:07:38.000Z</time>
            </trkpt>
            <trkpt lat="40.911544" lon="-8.541943">
                <ele>166.1</ele>
                <time>2020-11-30T16:07:39.000Z</time>
            </trkpt>
            <trkpt lat="40.911517" lon="-8.541943">
                <ele>165.9</ele>
                <time>2020-11-30T16:07:40.000Z</time>
            </trkpt>
            <trkpt lat="40.911489" lon="-8.541943">
                <ele>165.8</ele>
                <time>2020-11-30T16:07:41.000Z</time>
            </trkpt>
            <trkpt lat="40.911462" lon="-8.541942">
                <ele>165.7</ele>
                <time>2020-11-30T16:07:42.000Z</time>
            </trkpt>
            <trkpt lat="40.911436" lon="-8.541941">
                <ele>165.5</ele>
                <time>2020-11-30T16:07:43.000Z</time>
            </trkpt>
            <trkpt lat="40.91141" lon="-8.54194">
                <ele>165.4</ele>
                <time>2020-11-30T16:07:44.000Z</time>
            </trkpt>
            <trkpt lat="40.911384" lon="-8.541938">
                <ele>165.3</ele>
                <time>2020-11-30T16:07:45.000Z</time>
            </trkpt>
            <trkpt lat="40.911359" lon="-8.541936">
                <ele>165.1</ele>
                <time>2020-11-30T16:07:46.000Z</time>
            </trkpt>
            <trkpt lat="40.911335" lon="-8.541934">
                <ele>165.0</ele>
                <time>2020-11-30T16:07:47.000Z</time>
            </trkpt>
            <trkpt lat="40.911311" lon="-8.541932">
                <ele>164.9</ele>
                <time>2020-11-30T16:07:48.000Z</time>
            </trkpt>
            <trkpt lat="40.911286" lon="-8.54193">
                <ele>164.8</ele>
                <time>2020-11-30T16:07:49.000Z</time>
            </trkpt>
            <trkpt lat="40.911261" lon="-8.541929">
                <ele>164.6</ele>
                <time>2020-11-30T16:07:50.000Z</time>
            </trkpt>
            <trkpt lat="40.911234" lon="-8.541928">
                <ele>164.5</ele>
                <time>2020-11-30T16:07:51.000Z</time>
            </trkpt>
            <trkpt lat="40.911207" lon="-8.541928">
                <ele>164.4</ele>
                <time>2020-11-30T16:07:52.000Z</time>
            </trkpt>
            <trkpt lat="40.911179" lon="-8.541929">
                <ele>164.2</ele>
                <time>2020-11-30T16:07:53.000Z</time>
            </trkpt>
            <trkpt lat="40.911151" lon="-8.541929">
                <ele>164.1</ele>
                <time>2020-11-30T16:07:54.000Z</time>
            </trkpt>
            <trkpt lat="40.911122" lon="-8.541928">
                <ele>164.0</ele>
                <time>2020-11-30T16:07:55.000Z</time>
            </trkpt>
            <trkpt lat="40.911094" lon="-8.541927">
                <ele>163.8</ele>
                <time>2020-11-30T16:07:56.000Z</time>
            </trkpt>
            <trkpt lat="40.911065" lon="-8.541926">
                <ele>163.7</ele>
                <time>2020-11-30T16:07:57.000Z</time>
            </trkpt>
            <trkpt lat="40.911036" lon="-8.541924">
                <ele>163.5</ele>
                <time>2020-11-30T16:07:58.000Z</time>
            </trkpt>
            <trkpt lat="40.911007" lon="-8.541922">
                <ele>163.4</ele>
                <time>2020-11-30T16:07:59.000Z</time>
            </trkpt>
            <trkpt lat="40.910978" lon="-8.541919">
                <ele>163.2</ele>
                <time>2020-11-30T16:08:00.000Z</time>
            </trkpt>
            <trkpt lat="40.91095" lon="-8.541917">
                <ele>163.1</ele>
                <time>2020-11-30T16:08:01.000Z</time>
            </trkpt>
            <trkpt lat="40.910921" lon="-8.541915">
                <ele>162.9</ele>
                <time>2020-11-30T16:08:02.000Z</time>
            </trkpt>
            <trkpt lat="40.910893" lon="-8.541912">
                <ele>162.8</ele>
                <time>2020-11-30T16:08:03.000Z</time>
            </trkpt>
            <trkpt lat="40.910864" lon="-8.541911">
                <ele>162.6</ele>
                <time>2020-11-30T16:08:04.000Z</time>
            </trkpt>
            <trkpt lat="40.910836" lon="-8.541909">
                <ele>162.5</ele>
                <time>2020-11-30T16:08:05.000Z</time>
            </trkpt>
            <trkpt lat="40.910808" lon="-8.541909">
                <ele>162.4</ele>
                <time>2020-11-30T16:08:06.000Z</time>
            </trkpt>
            <trkpt lat="40.91078" lon="-8.541909">
                <ele>162.4</ele>
                <time>2020-11-30T16:08:07.000Z</time>
            </trkpt>
            <trkpt lat="40.910753" lon="-8.54191">
                <ele>162.4</ele>
                <time>2020-11-30T16:08:08.000Z</time>
            </trkpt>
            <trkpt lat="40.910725" lon="-8.541911">
                <ele>162.4</ele>
                <time>2020-11-30T16:08:09.000Z</time>
            </trkpt>
            <trkpt lat="40.910698" lon="-8.541913">
                <ele>162.4</ele>
                <time>2020-11-30T16:08:10.000Z</time>
            </trkpt>
            <trkpt lat="40.91067" lon="-8.541915">
                <ele>162.4</ele>
                <time>2020-11-30T16:08:11.000Z</time>
            </trkpt>
            <trkpt lat="40.910643" lon="-8.541917">
                <ele>162.4</ele>
                <time>2020-11-30T16:08:12.000Z</time>
            </trkpt>
            <trkpt lat="40.910616" lon="-8.54192">
                <ele>162.4</ele>
                <time>2020-11-30T16:08:13.000Z</time>
            </trkpt>
            <trkpt lat="40.910589" lon="-8.541923">
                <ele>162.4</ele>
                <time>2020-11-30T16:08:14.000Z</time>
            </trkpt>
            <trkpt lat="40.910562" lon="-8.541925">
                <ele>162.4</ele>
                <time>2020-11-30T16:08:15.000Z</time>
            </trkpt>
            <trkpt lat="40.910535" lon="-8.541928">
                <ele>162.5</ele>
                <time>2020-11-30T16:08:16.000Z</time>
            </trkpt>
            <trkpt lat="40.910508" lon="-8.54193">
                <ele>162.5</ele>
                <time>2020-11-30T16:08:17.000Z</time>
            </trkpt>
            <trkpt lat="40.910481" lon="-8.541932">
                <ele>162.5</ele>
                <time>2020-11-30T16:08:18.000Z</time>
            </trkpt>
            <trkpt lat="40.910454" lon="-8.541934">
                <ele>162.5</ele>
                <time>2020-11-30T16:08:19.000Z</time>
            </trkpt>
            <trkpt lat="40.910427" lon="-8.541935">
                <ele>162.5</ele>
                <time>2020-11-30T16:08:20.000Z</time>
            </trkpt>
            <trkpt lat="40.910401" lon="-8.541936">
                <ele>162.4</ele>
                <time>2020-11-30T16:08:21.000Z</time>
            </trkpt>
            <trkpt lat="40.910374" lon="-8.541937">
                <ele>162.4</ele>
                <time>2020-11-30T16:08:22.000Z</time>
            </trkpt>
            <trkpt lat="40.910348" lon="-8.541937">
                <ele>162.4</ele>
                <time>2020-11-30T16:08:23.000Z</time>
            </trkpt>
            <trkpt lat="40.910321" lon="-8.541937">
                <ele>162.4</ele>
                <time>2020-11-30T16:08:24.000Z</time>
            </trkpt>
            <trkpt lat="40.910295" lon="-8.541937">
                <ele>162.4</ele>
                <time>2020-11-30T16:08:25.000Z</time>
            </trkpt>
            <trkpt lat="40.91027" lon="-8.541936">
                <ele>162.4</ele>
                <time>2020-11-30T16:08:26.000Z</time>
            </trkpt>
            <trkpt lat="40.910244" lon="-8.541934">
                <ele>162.4</ele>
                <time>2020-11-30T16:08:27.000Z</time>
            </trkpt>
            <trkpt lat="40.910219" lon="-8.541933">
                <ele>162.4</ele>
                <time>2020-11-30T16:08:28.000Z</time>
            </trkpt>
            <trkpt lat="40.910194" lon="-8.541931">
                <ele>162.3</ele>
                <time>2020-11-30T16:08:29.000Z</time>
            </trkpt>
            <trkpt lat="40.910169" lon="-8.541929">
                <ele>162.3</ele>
                <time>2020-11-30T16:08:30.000Z</time>
            </trkpt>
            <trkpt lat="40.910143" lon="-8.541927">
                <ele>162.3</ele>
                <time>2020-11-30T16:08:31.000Z</time>
            </trkpt>
            <trkpt lat="40.910118" lon="-8.541926">
                <ele>162.3</ele>
                <time>2020-11-30T16:08:32.000Z</time>
            </trkpt>
            <trkpt lat="40.910092" lon="-8.541925">
                <ele>162.3</ele>
                <time>2020-11-30T16:08:33.000Z</time>
            </trkpt>
            <trkpt lat="40.910066" lon="-8.541925">
                <ele>162.3</ele>
                <time>2020-11-30T16:08:34.000Z</time>
            </trkpt>
            <trkpt lat="40.910039" lon="-8.541925">
                <ele>162.3</ele>
                <time>2020-11-30T16:08:35.000Z</time>
            </trkpt>
            <trkpt lat="40.910012" lon="-8.541927">
                <ele>162.3</ele>
                <time>2020-11-30T16:08:36.000Z</time>
            </trkpt>
            <trkpt lat="40.909984" lon="-8.54193">
                <ele>162.3</ele>
                <time>2020-11-30T16:08:37.000Z</time>
            </trkpt>
            <trkpt lat="40.909956" lon="-8.541933">
                <ele>162.3</ele>
                <time>2020-11-30T16:08:38.000Z</time>
            </trkpt>
            <trkpt lat="40.909928" lon="-8.541936">
                <ele>162.4</ele>
                <time>2020-11-30T16:08:39.000Z</time>
            </trkpt>
            <trkpt lat="40.909901" lon="-8.541939">
                <ele>162.4</ele>
                <time>2020-11-30T16:08:40.000Z</time>
            </trkpt>
            <trkpt lat="40.909875" lon="-8.54194">
                <ele>162.5</ele>
                <time>2020-11-30T16:08:41.000Z</time>
            </trkpt>
            <trkpt lat="40.90985" lon="-8.54194">
                <ele>162.5</ele>
                <time>2020-11-30T16:08:42.000Z</time>
            </trkpt>
            <trkpt lat="40.909828" lon="-8.541937">
                <ele>162.5</ele>
                <time>2020-11-30T16:08:43.000Z</time>
            </trkpt>
            <trkpt lat="40.909807" lon="-8.541932">
                <ele>162.5</ele>
                <time>2020-11-30T16:08:44.000Z</time>
            </trkpt>
            <trkpt lat="40.909786" lon="-8.541926">
                <ele>162.5</ele>
                <time>2020-11-30T16:08:45.000Z</time>
            </trkpt>
            <trkpt lat="40.909766" lon="-8.54192">
                <ele>162.5</ele>
                <time>2020-11-30T16:08:46.000Z</time>
            </trkpt>
            <trkpt lat="40.909745" lon="-8.541913">
                <ele>162.5</ele>
                <time>2020-11-30T16:08:47.000Z</time>
            </trkpt>
            <trkpt lat="40.909723" lon="-8.541906">
                <ele>162.5</ele>
                <time>2020-11-30T16:08:48.000Z</time>
            </trkpt>
            <trkpt lat="40.9097" lon="-8.5419">
                <ele>162.5</ele>
                <time>2020-11-30T16:08:49.000Z</time>
            </trkpt>
            <trkpt lat="40.909676" lon="-8.541894">
                <ele>162.6</ele>
                <time>2020-11-30T16:08:50.000Z</time>
            </trkpt>
            <trkpt lat="40.909651" lon="-8.541889">
                <ele>162.6</ele>
                <time>2020-11-30T16:08:51.000Z</time>
            </trkpt>
            <trkpt lat="40.909625" lon="-8.541884">
                <ele>162.6</ele>
                <time>2020-11-30T16:08:52.000Z</time>
            </trkpt>
            <trkpt lat="40.909598" lon="-8.54188">
                <ele>162.6</ele>
                <time>2020-11-30T16:08:53.000Z</time>
            </trkpt>
            <trkpt lat="40.90957" lon="-8.541876">
                <ele>162.6</ele>
                <time>2020-11-30T16:08:54.000Z</time>
            </trkpt>
            <trkpt lat="40.909542" lon="-8.541873">
                <ele>162.7</ele>
                <time>2020-11-30T16:08:55.000Z</time>
            </trkpt>
            <trkpt lat="40.909513" lon="-8.54187">
                <ele>162.7</ele>
                <time>2020-11-30T16:08:56.000Z</time>
            </trkpt>
            <trkpt lat="40.909483" lon="-8.541869">
                <ele>162.8</ele>
                <time>2020-11-30T16:08:57.000Z</time>
            </trkpt>
            <trkpt lat="40.909453" lon="-8.541867">
                <ele>162.8</ele>
                <time>2020-11-30T16:08:58.000Z</time>
            </trkpt>
            <trkpt lat="40.909424" lon="-8.541866">
                <ele>162.8</ele>
                <time>2020-11-30T16:08:59.000Z</time>
            </trkpt>
            <trkpt lat="40.909395" lon="-8.541865">
                <ele>162.9</ele>
                <time>2020-11-30T16:09:00.000Z</time>
            </trkpt>
            <trkpt lat="40.909367" lon="-8.541864">
                <ele>162.9</ele>
                <time>2020-11-30T16:09:01.000Z</time>
            </trkpt>
            <trkpt lat="40.909341" lon="-8.541862">
                <ele>163.0</ele>
                <time>2020-11-30T16:09:02.000Z</time>
            </trkpt>
            <trkpt lat="40.909318" lon="-8.541859">
                <ele>163.0</ele>
                <time>2020-11-30T16:09:03.000Z</time>
            </trkpt>
            <trkpt lat="40.909297" lon="-8.541855">
                <ele>163.0</ele>
                <time>2020-11-30T16:09:04.000Z</time>
            </trkpt>
            <trkpt lat="40.909278" lon="-8.541851">
                <ele>163.0</ele>
                <time>2020-11-30T16:09:05.000Z</time>
            </trkpt>
            <trkpt lat="40.909259" lon="-8.541846">
                <ele>163.1</ele>
                <time>2020-11-30T16:09:06.000Z</time>
            </trkpt>
            <trkpt lat="40.90924" lon="-8.541841">
                <ele>163.1</ele>
                <time>2020-11-30T16:09:07.000Z</time>
            </trkpt>
            <trkpt lat="40.909221" lon="-8.541836">
                <ele>163.1</ele>
                <time>2020-11-30T16:09:08.000Z</time>
            </trkpt>
            <trkpt lat="40.909201" lon="-8.541831">
                <ele>163.1</ele>
                <time>2020-11-30T16:09:09.000Z</time>
            </trkpt>
            <trkpt lat="40.909179" lon="-8.541826">
                <ele>163.2</ele>
                <time>2020-11-30T16:09:10.000Z</time>
            </trkpt>
            <trkpt lat="40.909155" lon="-8.54182">
                <ele>163.2</ele>
                <time>2020-11-30T16:09:11.000Z</time>
            </trkpt>
            <trkpt lat="40.909128" lon="-8.541815">
                <ele>163.1</ele>
                <time>2020-11-30T16:09:12.000Z</time>
            </trkpt>
            <trkpt lat="40.909097" lon="-8.54181">
                <ele>163.0</ele>
                <time>2020-11-30T16:09:13.000Z</time>
            </trkpt>
            <trkpt lat="40.909064" lon="-8.541805">
                <ele>162.9</ele>
                <time>2020-11-30T16:09:14.000Z</time>
            </trkpt>
            <trkpt lat="40.90903" lon="-8.541801">
                <ele>162.8</ele>
                <time>2020-11-30T16:09:15.000Z</time>
            </trkpt>
            <trkpt lat="40.908995" lon="-8.541797">
                <ele>162.7</ele>
                <time>2020-11-30T16:09:16.000Z</time>
            </trkpt>
            <trkpt lat="40.90896" lon="-8.541795">
                <ele>162.6</ele>
                <time>2020-11-30T16:09:17.000Z</time>
            </trkpt>
            <trkpt lat="40.908927" lon="-8.541795">
                <ele>162.6</ele>
                <time>2020-11-30T16:09:18.000Z</time>
            </trkpt>
            <trkpt lat="40.908896" lon="-8.541795">
                <ele>162.5</ele>
                <time>2020-11-30T16:09:19.000Z</time>
            </trkpt>
            <trkpt lat="40.908866" lon="-8.541797">
                <ele>162.4</ele>
                <time>2020-11-30T16:09:20.000Z</time>
            </trkpt>
            <trkpt lat="40.908837" lon="-8.541799">
                <ele>162.3</ele>
                <time>2020-11-30T16:09:21.000Z</time>
            </trkpt>
            <trkpt lat="40.90881" lon="-8.541802">
                <ele>162.2</ele>
                <time>2020-11-30T16:09:22.000Z</time>
            </trkpt>
            <trkpt lat="40.908783" lon="-8.541804">
                <ele>162.2</ele>
                <time>2020-11-30T16:09:23.000Z</time>
            </trkpt>
            <trkpt lat="40.908758" lon="-8.541806">
                <ele>162.1</ele>
                <time>2020-11-30T16:09:24.000Z</time>
            </trkpt>
            <trkpt lat="40.908733" lon="-8.541808">
                <ele>162.0</ele>
                <time>2020-11-30T16:09:25.000Z</time>
            </trkpt>
            <trkpt lat="40.908709" lon="-8.541809">
                <ele>162.0</ele>
                <time>2020-11-30T16:09:26.000Z</time>
            </trkpt>
            <trkpt lat="40.908685" lon="-8.541808">
                <ele>161.9</ele>
                <time>2020-11-30T16:09:27.000Z</time>
            </trkpt>
            <trkpt lat="40.908661" lon="-8.541807">
                <ele>161.8</ele>
                <time>2020-11-30T16:09:28.000Z</time>
            </trkpt>
            <trkpt lat="40.908638" lon="-8.541803">
                <ele>161.8</ele>
                <time>2020-11-30T16:09:29.000Z</time>
            </trkpt>
            <trkpt lat="40.908614" lon="-8.541798">
                <ele>161.8</ele>
                <time>2020-11-30T16:09:30.000Z</time>
            </trkpt>
            <trkpt lat="40.908591" lon="-8.541791">
                <ele>161.7</ele>
                <time>2020-11-30T16:09:31.000Z</time>
            </trkpt>
            <trkpt lat="40.908568" lon="-8.541784">
                <ele>161.7</ele>
                <time>2020-11-30T16:09:32.000Z</time>
            </trkpt>
            <trkpt lat="40.908544" lon="-8.541776">
                <ele>161.7</ele>
                <time>2020-11-30T16:09:33.000Z</time>
            </trkpt>
            <trkpt lat="40.908521" lon="-8.541767">
                <ele>161.7</ele>
                <time>2020-11-30T16:09:34.000Z</time>
            </trkpt>
            <trkpt lat="40.908497" lon="-8.541758">
                <ele>161.7</ele>
                <time>2020-11-30T16:09:35.000Z</time>
            </trkpt>
            <trkpt lat="40.908474" lon="-8.541749">
                <ele>161.7</ele>
                <time>2020-11-30T16:09:36.000Z</time>
            </trkpt>
            <trkpt lat="40.90845" lon="-8.54174">
                <ele>161.7</ele>
                <time>2020-11-30T16:09:37.000Z</time>
            </trkpt>
            <trkpt lat="40.908426" lon="-8.541732">
                <ele>161.7</ele>
                <time>2020-11-30T16:09:38.000Z</time>
            </trkpt>
            <trkpt lat="40.908402" lon="-8.541724">
                <ele>161.7</ele>
                <time>2020-11-30T16:09:39.000Z</time>
            </trkpt>
            <trkpt lat="40.908377" lon="-8.541717">
                <ele>161.7</ele>
                <time>2020-11-30T16:09:40.000Z</time>
            </trkpt>
            <trkpt lat="40.908352" lon="-8.541711">
                <ele>161.7</ele>
                <time>2020-11-30T16:09:41.000Z</time>
            </trkpt>
            <trkpt lat="40.908326" lon="-8.541705">
                <ele>161.7</ele>
                <time>2020-11-30T16:09:42.000Z</time>
            </trkpt>
            <trkpt lat="40.9083" lon="-8.5417">
                <ele>161.5</ele>
                <time>2020-11-30T16:09:43.000Z</time>
            </trkpt>
            <trkpt lat="40.908273" lon="-8.541695">
                <ele>161.4</ele>
                <time>2020-11-30T16:09:44.000Z</time>
            </trkpt>
            <trkpt lat="40.908245" lon="-8.541691">
                <ele>161.2</ele>
                <time>2020-11-30T16:09:45.000Z</time>
            </trkpt>
            <trkpt lat="40.908217" lon="-8.541687">
                <ele>161.0</ele>
                <time>2020-11-30T16:09:46.000Z</time>
            </trkpt>
            <trkpt lat="40.908187" lon="-8.541682">
                <ele>160.8</ele>
                <time>2020-11-30T16:09:47.000Z</time>
            </trkpt>
            <trkpt lat="40.908156" lon="-8.541678">
                <ele>160.6</ele>
                <time>2020-11-30T16:09:48.000Z</time>
            </trkpt>
            <trkpt lat="40.908124" lon="-8.541674">
                <ele>160.4</ele>
                <time>2020-11-30T16:09:49.000Z</time>
            </trkpt>
            <trkpt lat="40.908091" lon="-8.54167">
                <ele>160.2</ele>
                <time>2020-11-30T16:09:50.000Z</time>
            </trkpt>
            <trkpt lat="40.908057" lon="-8.541666">
                <ele>160.0</ele>
                <time>2020-11-30T16:09:51.000Z</time>
            </trkpt>
            <trkpt lat="40.908022" lon="-8.541663">
                <ele>159.7</ele>
                <time>2020-11-30T16:09:52.000Z</time>
            </trkpt>
            <trkpt lat="40.907987" lon="-8.541659">
                <ele>159.4</ele>
                <time>2020-11-30T16:09:53.000Z</time>
            </trkpt>
            <trkpt lat="40.907952" lon="-8.541656">
                <ele>159.1</ele>
                <time>2020-11-30T16:09:54.000Z</time>
            </trkpt>
            <trkpt lat="40.907916" lon="-8.541653">
                <ele>158.8</ele>
                <time>2020-11-30T16:09:55.000Z</time>
            </trkpt>
            <trkpt lat="40.907881" lon="-8.54165">
                <ele>158.6</ele>
                <time>2020-11-30T16:09:56.000Z</time>
            </trkpt>
            <trkpt lat="40.907845" lon="-8.541648">
                <ele>158.3</ele>
                <time>2020-11-30T16:09:57.000Z</time>
            </trkpt>
            <trkpt lat="40.90781" lon="-8.541646">
                <ele>158.0</ele>
                <time>2020-11-30T16:09:58.000Z</time>
            </trkpt>
            <trkpt lat="40.907776" lon="-8.541645">
                <ele>157.8</ele>
                <time>2020-11-30T16:09:59.000Z</time>
            </trkpt>
            <trkpt lat="40.907742" lon="-8.541645">
                <ele>157.5</ele>
                <time>2020-11-30T16:10:00.000Z</time>
            </trkpt>
            <trkpt lat="40.907709" lon="-8.541644">
                <ele>157.3</ele>
                <time>2020-11-30T16:10:01.000Z</time>
            </trkpt>
            <trkpt lat="40.907677" lon="-8.541643">
                <ele>157.0</ele>
                <time>2020-11-30T16:10:02.000Z</time>
            </trkpt>
            <trkpt lat="40.907645" lon="-8.541642">
                <ele>156.8</ele>
                <time>2020-11-30T16:10:03.000Z</time>
            </trkpt>
            <trkpt lat="40.907614" lon="-8.54164">
                <ele>156.6</ele>
                <time>2020-11-30T16:10:04.000Z</time>
            </trkpt>
            <trkpt lat="40.907585" lon="-8.541637">
                <ele>156.3</ele>
                <time>2020-11-30T16:10:05.000Z</time>
            </trkpt>
            <trkpt lat="40.907555" lon="-8.541634">
                <ele>156.1</ele>
                <time>2020-11-30T16:10:06.000Z</time>
            </trkpt>
            <trkpt lat="40.907527" lon="-8.54163">
                <ele>155.8</ele>
                <time>2020-11-30T16:10:07.000Z</time>
            </trkpt>
            <trkpt lat="40.907498" lon="-8.541626">
                <ele>155.6</ele>
                <time>2020-11-30T16:10:08.000Z</time>
            </trkpt>
            <trkpt lat="40.90747" lon="-8.541621">
                <ele>155.1</ele>
                <time>2020-11-30T16:10:09.000Z</time>
            </trkpt>
            <trkpt lat="40.907441" lon="-8.541616">
                <ele>154.5</ele>
                <time>2020-11-30T16:10:10.000Z</time>
            </trkpt>
            <trkpt lat="40.907411" lon="-8.541612">
                <ele>154.0</ele>
                <time>2020-11-30T16:10:11.000Z</time>
            </trkpt>
            <trkpt lat="40.907382" lon="-8.541607">
                <ele>153.5</ele>
                <time>2020-11-30T16:10:12.000Z</time>
            </trkpt>
            <trkpt lat="40.907352" lon="-8.541603">
                <ele>153.0</ele>
                <time>2020-11-30T16:10:13.000Z</time>
            </trkpt>
            <trkpt lat="40.907322" lon="-8.541599">
                <ele>152.5</ele>
                <time>2020-11-30T16:10:14.000Z</time>
            </trkpt>
            <trkpt lat="40.907292" lon="-8.541595">
                <ele>151.9</ele>
                <time>2020-11-30T16:10:15.000Z</time>
            </trkpt>
            <trkpt lat="40.907262" lon="-8.541592">
                <ele>151.4</ele>
                <time>2020-11-30T16:10:16.000Z</time>
            </trkpt>
            <trkpt lat="40.907232" lon="-8.54159">
                <ele>150.9</ele>
                <time>2020-11-30T16:10:17.000Z</time>
            </trkpt>
            <trkpt lat="40.907202" lon="-8.541589">
                <ele>150.4</ele>
                <time>2020-11-30T16:10:18.000Z</time>
            </trkpt>
            <trkpt lat="40.907173" lon="-8.541589">
                <ele>150.0</ele>
                <time>2020-11-30T16:10:19.000Z</time>
            </trkpt>
            <trkpt lat="40.907144" lon="-8.54159">
                <ele>149.5</ele>
                <time>2020-11-30T16:10:20.000Z</time>
            </trkpt>
            <trkpt lat="40.907115" lon="-8.541591">
                <ele>149.1</ele>
                <time>2020-11-30T16:10:21.000Z</time>
            </trkpt>
            <trkpt lat="40.907086" lon="-8.541594">
                <ele>148.6</ele>
                <time>2020-11-30T16:10:22.000Z</time>
            </trkpt>
            <trkpt lat="40.907057" lon="-8.541597">
                <ele>148.2</ele>
                <time>2020-11-30T16:10:23.000Z</time>
            </trkpt>
            <trkpt lat="40.907028" lon="-8.5416">
                <ele>147.7</ele>
                <time>2020-11-30T16:10:24.000Z</time>
            </trkpt>
            <trkpt lat="40.906998" lon="-8.541603">
                <ele>147.2</ele>
                <time>2020-11-30T16:10:25.000Z</time>
            </trkpt>
            <trkpt lat="40.906968" lon="-8.541606">
                <ele>146.8</ele>
                <time>2020-11-30T16:10:26.000Z</time>
            </trkpt>
            <trkpt lat="40.906937" lon="-8.541608">
                <ele>146.3</ele>
                <time>2020-11-30T16:10:27.000Z</time>
            </trkpt>
            <trkpt lat="40.906906" lon="-8.54161">
                <ele>145.8</ele>
                <time>2020-11-30T16:10:28.000Z</time>
            </trkpt>
            <trkpt lat="40.906876" lon="-8.541611">
                <ele>145.3</ele>
                <time>2020-11-30T16:10:29.000Z</time>
            </trkpt>
            <trkpt lat="40.906847" lon="-8.541611">
                <ele>144.8</ele>
                <time>2020-11-30T16:10:30.000Z</time>
            </trkpt>
            <trkpt lat="40.906819" lon="-8.54161">
                <ele>144.3</ele>
                <time>2020-11-30T16:10:31.000Z</time>
            </trkpt>
            <trkpt lat="40.906792" lon="-8.541608">
                <ele>143.9</ele>
                <time>2020-11-30T16:10:32.000Z</time>
            </trkpt>
            <trkpt lat="40.906766" lon="-8.541605">
                <ele>143.5</ele>
                <time>2020-11-30T16:10:33.000Z</time>
            </trkpt>
            <trkpt lat="40.906741" lon="-8.541601">
                <ele>143.0</ele>
                <time>2020-11-30T16:10:34.000Z</time>
            </trkpt>
            <trkpt lat="40.906717" lon="-8.541595">
                <ele>142.6</ele>
                <time>2020-11-30T16:10:35.000Z</time>
            </trkpt>
            <trkpt lat="40.906693" lon="-8.54159">
                <ele>142.2</ele>
                <time>2020-11-30T16:10:36.000Z</time>
            </trkpt>
            <trkpt lat="40.90667" lon="-8.541583">
                <ele>141.9</ele>
                <time>2020-11-30T16:10:37.000Z</time>
            </trkpt>
            <trkpt lat="40.906648" lon="-8.541575">
                <ele>141.4</ele>
                <time>2020-11-30T16:10:38.000Z</time>
            </trkpt>
            <trkpt lat="40.906626" lon="-8.541568">
                <ele>141.0</ele>
                <time>2020-11-30T16:10:39.000Z</time>
            </trkpt>
            <trkpt lat="40.906604" lon="-8.541559">
                <ele>140.6</ele>
                <time>2020-11-30T16:10:40.000Z</time>
            </trkpt>
            <trkpt lat="40.906582" lon="-8.54155">
                <ele>140.1</ele>
                <time>2020-11-30T16:10:41.000Z</time>
            </trkpt>
            <trkpt lat="40.90656" lon="-8.541541">
                <ele>139.7</ele>
                <time>2020-11-30T16:10:42.000Z</time>
            </trkpt>
            <trkpt lat="40.906539" lon="-8.541532">
                <ele>139.3</ele>
                <time>2020-11-30T16:10:43.000Z</time>
            </trkpt>
            <trkpt lat="40.906517" lon="-8.541523">
                <ele>138.8</ele>
                <time>2020-11-30T16:10:44.000Z</time>
            </trkpt>
            <trkpt lat="40.906496" lon="-8.541513">
                <ele>138.4</ele>
                <time>2020-11-30T16:10:45.000Z</time>
            </trkpt>
            <trkpt lat="40.906474" lon="-8.541504">
                <ele>138.0</ele>
                <time>2020-11-30T16:10:46.000Z</time>
            </trkpt>
            <trkpt lat="40.906452" lon="-8.541495">
                <ele>137.6</ele>
                <time>2020-11-30T16:10:47.000Z</time>
            </trkpt>
            <trkpt lat="40.90643" lon="-8.541486">
                <ele>137.1</ele>
                <time>2020-11-30T16:10:48.000Z</time>
            </trkpt>
            <trkpt lat="40.906408" lon="-8.541477">
                <ele>136.7</ele>
                <time>2020-11-30T16:10:49.000Z</time>
            </trkpt>
            <trkpt lat="40.906385" lon="-8.541469">
                <ele>136.3</ele>
                <time>2020-11-30T16:10:50.000Z</time>
            </trkpt>
            <trkpt lat="40.906363" lon="-8.541461">
                <ele>135.9</ele>
                <time>2020-11-30T16:10:51.000Z</time>
            </trkpt>
            <trkpt lat="40.906339" lon="-8.541454">
                <ele>135.4</ele>
                <time>2020-11-30T16:10:52.000Z</time>
            </trkpt>
            <trkpt lat="40.906316" lon="-8.541447">
                <ele>135.0</ele>
                <time>2020-11-30T16:10:53.000Z</time>
            </trkpt>
            <trkpt lat="40.906293" lon="-8.54144">
                <ele>134.5</ele>
                <time>2020-11-30T16:10:54.000Z</time>
            </trkpt>
            <trkpt lat="40.90627" lon="-8.541432">
                <ele>134.1</ele>
                <time>2020-11-30T16:10:55.000Z</time>
            </trkpt>
            <trkpt lat="40.906247" lon="-8.541425">
                <ele>133.7</ele>
                <time>2020-11-30T16:10:56.000Z</time>
            </trkpt>
            <trkpt lat="40.906225" lon="-8.541416">
                <ele>133.2</ele>
                <time>2020-11-30T16:10:57.000Z</time>
            </trkpt>
            <trkpt lat="40.906204" lon="-8.541407">
                <ele>132.8</ele>
                <time>2020-11-30T16:10:58.000Z</time>
            </trkpt>
            <trkpt lat="40.906182" lon="-8.541397">
                <ele>132.4</ele>
                <time>2020-11-30T16:10:59.000Z</time>
            </trkpt>
            <trkpt lat="40.906162" lon="-8.541386">
                <ele>132.0</ele>
                <time>2020-11-30T16:11:00.000Z</time>
            </trkpt>
            <trkpt lat="40.906141" lon="-8.541376">
                <ele>131.6</ele>
                <time>2020-11-30T16:11:01.000Z</time>
            </trkpt>
            <trkpt lat="40.90612" lon="-8.541365">
                <ele>131.3</ele>
                <time>2020-11-30T16:11:02.000Z</time>
            </trkpt>
            <trkpt lat="40.9061" lon="-8.541353">
                <ele>130.9</ele>
                <time>2020-11-30T16:11:03.000Z</time>
            </trkpt>
            <trkpt lat="40.906079" lon="-8.541342">
                <ele>130.5</ele>
                <time>2020-11-30T16:11:04.000Z</time>
            </trkpt>
            <trkpt lat="40.906058" lon="-8.54133">
                <ele>130.1</ele>
                <time>2020-11-30T16:11:05.000Z</time>
            </trkpt>
            <trkpt lat="40.906038" lon="-8.541317">
                <ele>129.7</ele>
                <time>2020-11-30T16:11:06.000Z</time>
            </trkpt>
            <trkpt lat="40.906017" lon="-8.541304">
                <ele>129.3</ele>
                <time>2020-11-30T16:11:07.000Z</time>
            </trkpt>
            <trkpt lat="40.905997" lon="-8.54129">
                <ele>129.0</ele>
                <time>2020-11-30T16:11:08.000Z</time>
            </trkpt>
            <trkpt lat="40.905977" lon="-8.541276">
                <ele>128.6</ele>
                <time>2020-11-30T16:11:09.000Z</time>
            </trkpt>
            <trkpt lat="40.905957" lon="-8.541261">
                <ele>128.2</ele>
                <time>2020-11-30T16:11:10.000Z</time>
            </trkpt>
            <trkpt lat="40.905938" lon="-8.541245">
                <ele>127.9</ele>
                <time>2020-11-30T16:11:11.000Z</time>
            </trkpt>
            <trkpt lat="40.905919" lon="-8.541227">
                <ele>127.5</ele>
                <time>2020-11-30T16:11:12.000Z</time>
            </trkpt>
            <trkpt lat="40.9059" lon="-8.541209">
                <ele>127.2</ele>
                <time>2020-11-30T16:11:13.000Z</time>
            </trkpt>
            <trkpt lat="40.905882" lon="-8.54119">
                <ele>126.9</ele>
                <time>2020-11-30T16:11:14.000Z</time>
            </trkpt>
            <trkpt lat="40.905864" lon="-8.54117">
                <ele>126.5</ele>
                <time>2020-11-30T16:11:15.000Z</time>
            </trkpt>
            <trkpt lat="40.905847" lon="-8.541148">
                <ele>126.2</ele>
                <time>2020-11-30T16:11:16.000Z</time>
            </trkpt>
            <trkpt lat="40.90583" lon="-8.541126">
                <ele>126.0</ele>
                <time>2020-11-30T16:11:17.000Z</time>
            </trkpt>
            <trkpt lat="40.905814" lon="-8.541101">
                <ele>125.7</ele>
                <time>2020-11-30T16:11:18.000Z</time>
            </trkpt>
            <trkpt lat="40.905798" lon="-8.541076">
                <ele>125.5</ele>
                <time>2020-11-30T16:11:19.000Z</time>
            </trkpt>
            <trkpt lat="40.905784" lon="-8.541048">
                <ele>125.2</ele>
                <time>2020-11-30T16:11:20.000Z</time>
            </trkpt>
            <trkpt lat="40.905769" lon="-8.54102">
                <ele>125.0</ele>
                <time>2020-11-30T16:11:21.000Z</time>
            </trkpt>
            <trkpt lat="40.905756" lon="-8.540989">
                <ele>124.8</ele>
                <time>2020-11-30T16:11:22.000Z</time>
            </trkpt>
            <trkpt lat="40.905744" lon="-8.540958">
                <ele>124.5</ele>
                <time>2020-11-30T16:11:23.000Z</time>
            </trkpt>
            <trkpt lat="40.905732" lon="-8.540925">
                <ele>124.3</ele>
                <time>2020-11-30T16:11:24.000Z</time>
            </trkpt>
            <trkpt lat="40.90572" lon="-8.540891">
                <ele>124.0</ele>
                <time>2020-11-30T16:11:25.000Z</time>
            </trkpt>
            <trkpt lat="40.905709" lon="-8.540857">
                <ele>123.8</ele>
                <time>2020-11-30T16:11:26.000Z</time>
            </trkpt>
            <trkpt lat="40.905699" lon="-8.540823">
                <ele>123.5</ele>
                <time>2020-11-30T16:11:27.000Z</time>
            </trkpt>
            <trkpt lat="40.905689" lon="-8.540789">
                <ele>123.1</ele>
                <time>2020-11-30T16:11:28.000Z</time>
            </trkpt>
            <trkpt lat="40.90568" lon="-8.540755">
                <ele>122.7</ele>
                <time>2020-11-30T16:11:29.000Z</time>
            </trkpt>
            <trkpt lat="40.905671" lon="-8.540723">
                <ele>122.3</ele>
                <time>2020-11-30T16:11:30.000Z</time>
            </trkpt>
            <trkpt lat="40.905662" lon="-8.540691">
                <ele>121.9</ele>
                <time>2020-11-30T16:11:31.000Z</time>
            </trkpt>
            <trkpt lat="40.905653" lon="-8.540661">
                <ele>121.6</ele>
                <time>2020-11-30T16:11:32.000Z</time>
            </trkpt>
            <trkpt lat="40.905644" lon="-8.540632">
                <ele>121.2</ele>
                <time>2020-11-30T16:11:33.000Z</time>
            </trkpt>
            <trkpt lat="40.905635" lon="-8.540604">
                <ele>120.8</ele>
                <time>2020-11-30T16:11:34.000Z</time>
            </trkpt>
            <trkpt lat="40.905625" lon="-8.540578">
                <ele>120.5</ele>
                <time>2020-11-30T16:11:35.000Z</time>
            </trkpt>
            <trkpt lat="40.905614" lon="-8.540552">
                <ele>120.1</ele>
                <time>2020-11-30T16:11:36.000Z</time>
            </trkpt>
            <trkpt lat="40.9056" lon="-8.540526">
                <ele>119.7</ele>
                <time>2020-11-30T16:11:37.000Z</time>
            </trkpt>
            <trkpt lat="40.905585" lon="-8.5405">
                <ele>119.2</ele>
                <time>2020-11-30T16:11:38.000Z</time>
            </trkpt>
            <trkpt lat="40.905569" lon="-8.540474">
                <ele>118.8</ele>
                <time>2020-11-30T16:11:39.000Z</time>
            </trkpt>
            <trkpt lat="40.905554" lon="-8.540449">
                <ele>118.4</ele>
                <time>2020-11-30T16:11:40.000Z</time>
            </trkpt>
            <trkpt lat="40.905541" lon="-8.540426">
                <ele>118.0</ele>
                <time>2020-11-30T16:11:41.000Z</time>
            </trkpt>
            <trkpt lat="40.905531" lon="-8.540406">
                <ele>117.7</ele>
                <time>2020-11-30T16:11:42.000Z</time>
            </trkpt>
            <trkpt lat="40.905527" lon="-8.540389">
                <ele>117.5</ele>
                <time>2020-11-30T16:11:43.000Z</time>
            </trkpt>
            <trkpt lat="40.905528" lon="-8.540374">
                <ele>117.4</ele>
                <time>2020-11-30T16:11:44.000Z</time>
            </trkpt>
            <trkpt lat="40.905533" lon="-8.540363">
                <ele>117.4</ele>
                <time>2020-11-30T16:11:45.000Z</time>
            </trkpt>
            <trkpt lat="40.905543" lon="-8.540353">
                <ele>117.5</ele>
                <time>2020-11-30T16:11:46.000Z</time>
            </trkpt>
            <trkpt lat="40.905555" lon="-8.540346">
                <ele>117.7</ele>
                <time>2020-11-30T16:11:47.000Z</time>
            </trkpt>
            <trkpt lat="40.905571" lon="-8.54034">
                <ele>117.9</ele>
                <time>2020-11-30T16:11:48.000Z</time>
            </trkpt>
            <trkpt lat="40.905589" lon="-8.540336">
                <ele>118.2</ele>
                <time>2020-11-30T16:11:49.000Z</time>
            </trkpt>
            <trkpt lat="40.905609" lon="-8.540332">
                <ele>118.5</ele>
                <time>2020-11-30T16:11:50.000Z</time>
            </trkpt>
            <trkpt lat="40.90563" lon="-8.540329">
                <ele>118.9</ele>
                <time>2020-11-30T16:11:51.000Z</time>
            </trkpt>
            <trkpt lat="40.905652" lon="-8.540327">
                <ele>119.2</ele>
                <time>2020-11-30T16:11:52.000Z</time>
            </trkpt>
            <trkpt lat="40.905675" lon="-8.540324">
                <ele>119.6</ele>
                <time>2020-11-30T16:11:53.000Z</time>
            </trkpt>
            <trkpt lat="40.905698" lon="-8.540321">
                <ele>120.0</ele>
                <time>2020-11-30T16:11:54.000Z</time>
            </trkpt>
            <trkpt lat="40.905721" lon="-8.540317">
                <ele>120.3</ele>
                <time>2020-11-30T16:11:55.000Z</time>
            </trkpt>
            <trkpt lat="40.905744" lon="-8.540313">
                <ele>120.7</ele>
                <time>2020-11-30T16:11:56.000Z</time>
            </trkpt>
            <trkpt lat="40.905767" lon="-8.540307">
                <ele>121.1</ele>
                <time>2020-11-30T16:11:57.000Z</time>
            </trkpt>
            <trkpt lat="40.90579" lon="-8.5403">
                <ele>121.4</ele>
                <time>2020-11-30T16:11:58.000Z</time>
            </trkpt>
            <trkpt lat="40.905813" lon="-8.540291">
                <ele>121.7</ele>
                <time>2020-11-30T16:11:59.000Z</time>
            </trkpt>
            <trkpt lat="40.905836" lon="-8.540279">
                <ele>122.1</ele>
                <time>2020-11-30T16:12:00.000Z</time>
            </trkpt>
            <trkpt lat="40.905858" lon="-8.540266">
                <ele>122.3</ele>
                <time>2020-11-30T16:12:01.000Z</time>
            </trkpt>
            <trkpt lat="40.90588" lon="-8.54025">
                <ele>122.6</ele>
                <time>2020-11-30T16:12:02.000Z</time>
            </trkpt>
            <trkpt lat="40.905901" lon="-8.540231">
                <ele>122.8</ele>
                <time>2020-11-30T16:12:03.000Z</time>
            </trkpt>
            <trkpt lat="40.905922" lon="-8.54021">
                <ele>123.0</ele>
                <time>2020-11-30T16:12:04.000Z</time>
            </trkpt>
            <trkpt lat="40.905943" lon="-8.540186">
                <ele>123.2</ele>
                <time>2020-11-30T16:12:05.000Z</time>
            </trkpt>
            <trkpt lat="40.905963" lon="-8.540161">
                <ele>123.3</ele>
                <time>2020-11-30T16:12:06.000Z</time>
            </trkpt>
            <trkpt lat="40.905982" lon="-8.540134">
                <ele>123.5</ele>
                <time>2020-11-30T16:12:07.000Z</time>
            </trkpt>
            <trkpt lat="40.906002" lon="-8.540105">
                <ele>123.6</ele>
                <time>2020-11-30T16:12:08.000Z</time>
            </trkpt>
            <trkpt lat="40.906021" lon="-8.540075">
                <ele>123.7</ele>
                <time>2020-11-30T16:12:09.000Z</time>
            </trkpt>
            <trkpt lat="40.906039" lon="-8.540044">
                <ele>123.8</ele>
                <time>2020-11-30T16:12:10.000Z</time>
            </trkpt>
            <trkpt lat="40.906057" lon="-8.540013">
                <ele>123.9</ele>
                <time>2020-11-30T16:12:11.000Z</time>
            </trkpt>
            <trkpt lat="40.906075" lon="-8.539982">
                <ele>123.8</ele>
                <time>2020-11-30T16:12:12.000Z</time>
            </trkpt>
            <trkpt lat="40.906092" lon="-8.539951">
                <ele>123.8</ele>
                <time>2020-11-30T16:12:13.000Z</time>
            </trkpt>
            <trkpt lat="40.90611" lon="-8.53992">
                <ele>123.7</ele>
                <time>2020-11-30T16:12:14.000Z</time>
            </trkpt>
            <trkpt lat="40.906127" lon="-8.53989">
                <ele>123.6</ele>
                <time>2020-11-30T16:12:15.000Z</time>
            </trkpt>
            <trkpt lat="40.906143" lon="-8.53986">
                <ele>123.5</ele>
                <time>2020-11-30T16:12:16.000Z</time>
            </trkpt>
            <trkpt lat="40.906159" lon="-8.53983">
                <ele>123.4</ele>
                <time>2020-11-30T16:12:17.000Z</time>
            </trkpt>
            <trkpt lat="40.906175" lon="-8.5398">
                <ele>123.3</ele>
                <time>2020-11-30T16:12:18.000Z</time>
            </trkpt>
            <trkpt lat="40.90619" lon="-8.539771">
                <ele>123.2</ele>
                <time>2020-11-30T16:12:19.000Z</time>
            </trkpt>
            <trkpt lat="40.906205" lon="-8.539742">
                <ele>123.1</ele>
                <time>2020-11-30T16:12:20.000Z</time>
            </trkpt>
            <trkpt lat="40.906219" lon="-8.539713">
                <ele>123.0</ele>
                <time>2020-11-30T16:12:21.000Z</time>
            </trkpt>
            <trkpt lat="40.906232" lon="-8.539684">
                <ele>122.9</ele>
                <time>2020-11-30T16:12:22.000Z</time>
            </trkpt>
            <trkpt lat="40.906245" lon="-8.539655">
                <ele>122.8</ele>
                <time>2020-11-30T16:12:23.000Z</time>
            </trkpt>
            <trkpt lat="40.906256" lon="-8.539626">
                <ele>122.6</ele>
                <time>2020-11-30T16:12:24.000Z</time>
            </trkpt>
            <trkpt lat="40.906267" lon="-8.539597">
                <ele>122.4</ele>
                <time>2020-11-30T16:12:25.000Z</time>
            </trkpt>
            <trkpt lat="40.906277" lon="-8.539569">
                <ele>122.3</ele>
                <time>2020-11-30T16:12:26.000Z</time>
            </trkpt>
            <trkpt lat="40.906285" lon="-8.53954">
                <ele>122.1</ele>
                <time>2020-11-30T16:12:27.000Z</time>
            </trkpt>
            <trkpt lat="40.906291" lon="-8.539511">
                <ele>121.8</ele>
                <time>2020-11-30T16:12:28.000Z</time>
            </trkpt>
            <trkpt lat="40.906296" lon="-8.539483">
                <ele>121.6</ele>
                <time>2020-11-30T16:12:29.000Z</time>
            </trkpt>
            <trkpt lat="40.906298" lon="-8.539455">
                <ele>121.3</ele>
                <time>2020-11-30T16:12:30.000Z</time>
            </trkpt>
            <trkpt lat="40.906298" lon="-8.539426">
                <ele>120.9</ele>
                <time>2020-11-30T16:12:31.000Z</time>
            </trkpt>
            <trkpt lat="40.906295" lon="-8.539398">
                <ele>120.5</ele>
                <time>2020-11-30T16:12:32.000Z</time>
            </trkpt>
            <trkpt lat="40.906289" lon="-8.53937">
                <ele>120.1</ele>
                <time>2020-11-30T16:12:33.000Z</time>
            </trkpt>
            <trkpt lat="40.90628" lon="-8.539343">
                <ele>119.6</ele>
                <time>2020-11-30T16:12:34.000Z</time>
            </trkpt>
            <trkpt lat="40.906269" lon="-8.539315">
                <ele>119.1</ele>
                <time>2020-11-30T16:12:35.000Z</time>
            </trkpt>
            <trkpt lat="40.906256" lon="-8.539287">
                <ele>118.5</ele>
                <time>2020-11-30T16:12:36.000Z</time>
            </trkpt>
            <trkpt lat="40.906244" lon="-8.53926">
                <ele>118.0</ele>
                <time>2020-11-30T16:12:37.000Z</time>
            </trkpt>
            <trkpt lat="40.906232" lon="-8.539233">
                <ele>117.5</ele>
                <time>2020-11-30T16:12:38.000Z</time>
            </trkpt>
            <trkpt lat="40.906221" lon="-8.539205">
                <ele>117.0</ele>
                <time>2020-11-30T16:12:39.000Z</time>
            </trkpt>
            <trkpt lat="40.906212" lon="-8.539181">
                <ele>116.5</ele>
                <time>2020-11-30T16:12:40.000Z</time>
            </trkpt>
            <trkpt lat="40.906205" lon="-8.539161">
                <ele>116.2</ele>
                <time>2020-11-30T16:12:41.000Z</time>
            </trkpt>
            <trkpt lat="40.906199" lon="-8.539148">
                <ele>116.1</ele>
                <time>2020-11-30T16:12:42.000Z</time>
            </trkpt>
            <trkpt lat="40.906194" lon="-8.539144">
                <ele>116.0</ele>
                <time>2020-11-30T16:12:43.000Z</time>
            </trkpt>
            <trkpt lat="40.90619" lon="-8.539151">
                <ele>116.0</ele>
                <time>2020-11-30T16:12:44.000Z</time>
            </trkpt>
            <trkpt lat="40.906188" lon="-8.539164">
                <ele>116.0</ele>
                <time>2020-11-30T16:12:45.000Z</time>
            </trkpt>
            <trkpt lat="40.906187" lon="-8.539178">
                <ele>116.1</ele>
                <time>2020-11-30T16:12:46.000Z</time>
            </trkpt>
            <trkpt lat="40.906188" lon="-8.539188">
                <ele>116.2</ele>
                <time>2020-11-30T16:12:47.000Z</time>
            </trkpt>
            <trkpt lat="40.906189" lon="-8.539194">
                <ele>116.3</ele>
                <time>2020-11-30T16:12:48.000Z</time>
            </trkpt>
            <trkpt lat="40.90619" lon="-8.539197">
                <ele>116.4</ele>
                <time>2020-11-30T16:12:49.000Z</time>
            </trkpt>
            <trkpt lat="40.90619" lon="-8.539198">
                <ele>116.4</ele>
                <time>2020-11-30T16:12:50.000Z</time>
            </trkpt>
            <trkpt lat="40.90619" lon="-8.539198">
                <ele>116.4</ele>
                <time>2020-11-30T16:12:51.000Z</time>
            </trkpt>
            <trkpt lat="40.90619" lon="-8.539197">
                <ele>116.4</ele>
                <time>2020-11-30T16:12:52.000Z</time>
            </trkpt>
            <trkpt lat="40.906191" lon="-8.539195">
                <ele>116.3</ele>
                <time>2020-11-30T16:12:53.000Z</time>
            </trkpt>
            <trkpt lat="40.906196" lon="-8.539191">
                <ele>116.4</ele>
                <time>2020-11-30T16:12:54.000Z</time>
            </trkpt>
            <trkpt lat="40.906204" lon="-8.539187">
                <ele>116.5</ele>
                <time>2020-11-30T16:12:55.000Z</time>
            </trkpt>
            <trkpt lat="40.906214" lon="-8.539181">
                <ele>116.6</ele>
                <time>2020-11-30T16:12:56.000Z</time>
            </trkpt>
            <trkpt lat="40.906223" lon="-8.539173">
                <ele>116.6</ele>
                <time>2020-11-30T16:12:57.000Z</time>
            </trkpt>
            <trkpt lat="40.906231" lon="-8.539161">
                <ele>116.7</ele>
                <time>2020-11-30T16:12:58.000Z</time>
            </trkpt>
            <trkpt lat="40.906235" lon="-8.539144">
                <ele>116.7</ele>
                <time>2020-11-30T16:12:59.000Z</time>
            </trkpt>
            <trkpt lat="40.906234" lon="-8.539122">
                <ele>116.6</ele>
                <time>2020-11-30T16:13:00.000Z</time>
            </trkpt>
            <trkpt lat="40.906228" lon="-8.539095">
                <ele>116.5</ele>
                <time>2020-11-30T16:13:01.000Z</time>
            </trkpt>
            <trkpt lat="40.90622" lon="-8.539067">
                <ele>116.3</ele>
                <time>2020-11-30T16:13:02.000Z</time>
            </trkpt>
            <trkpt lat="40.906212" lon="-8.539036">
                <ele>116.1</ele>
                <time>2020-11-30T16:13:03.000Z</time>
            </trkpt>
            <trkpt lat="40.906204" lon="-8.539006">
                <ele>115.9</ele>
                <time>2020-11-30T16:13:04.000Z</time>
            </trkpt>
            <trkpt lat="40.906199" lon="-8.538978">
                <ele>115.7</ele>
                <time>2020-11-30T16:13:05.000Z</time>
            </trkpt>
            <trkpt lat="40.906197" lon="-8.538951">
                <ele>115.6</ele>
                <time>2020-11-30T16:13:06.000Z</time>
            </trkpt>
            <trkpt lat="40.906198" lon="-8.538925">
                <ele>115.6</ele>
                <time>2020-11-30T16:13:07.000Z</time>
            </trkpt>
            <trkpt lat="40.906201" lon="-8.538901">
                <ele>115.6</ele>
                <time>2020-11-30T16:13:08.000Z</time>
            </trkpt>
            <trkpt lat="40.906206" lon="-8.538878">
                <ele>115.6</ele>
                <time>2020-11-30T16:13:09.000Z</time>
            </trkpt>
            <trkpt lat="40.906214" lon="-8.538855">
                <ele>115.7</ele>
                <time>2020-11-30T16:13:10.000Z</time>
            </trkpt>
            <trkpt lat="40.906224" lon="-8.538833">
                <ele>115.8</ele>
                <time>2020-11-30T16:13:11.000Z</time>
            </trkpt>
            <trkpt lat="40.906236" lon="-8.538812">
                <ele>115.9</ele>
                <time>2020-11-30T16:13:12.000Z</time>
            </trkpt>
            <trkpt lat="40.906249" lon="-8.538791">
                <ele>116.1</ele>
                <time>2020-11-30T16:13:13.000Z</time>
            </trkpt>
            <trkpt lat="40.906265" lon="-8.53877">
                <ele>116.3</ele>
                <time>2020-11-30T16:13:14.000Z</time>
            </trkpt>
            <trkpt lat="40.906282" lon="-8.538749">
                <ele>116.5</ele>
                <time>2020-11-30T16:13:15.000Z</time>
            </trkpt>
            <trkpt lat="40.906301" lon="-8.538729">
                <ele>116.7</ele>
                <time>2020-11-30T16:13:16.000Z</time>
            </trkpt>
            <trkpt lat="40.906321" lon="-8.538711">
                <ele>117.0</ele>
                <time>2020-11-30T16:13:17.000Z</time>
            </trkpt>
            <trkpt lat="40.906342" lon="-8.538696">
                <ele>117.3</ele>
                <time>2020-11-30T16:13:18.000Z</time>
            </trkpt>
            <trkpt lat="40.90636" lon="-8.538685">
                <ele>117.5</ele>
                <time>2020-11-30T16:13:19.000Z</time>
            </trkpt>
            <trkpt lat="40.906372" lon="-8.538676">
                <ele>117.7</ele>
                <time>2020-11-30T16:13:20.000Z</time>
            </trkpt>
            <trkpt lat="40.906382" lon="-8.538669">
                <ele>117.8</ele>
                <time>2020-11-30T16:13:21.000Z</time>
            </trkpt>
            <trkpt lat="40.906394" lon="-8.538659">
                <ele>118.0</ele>
                <time>2020-11-30T16:13:22.000Z</time>
            </trkpt>
            <trkpt lat="40.906414" lon="-8.538644">
                <ele>118.3</ele>
                <time>2020-11-30T16:13:23.000Z</time>
            </trkpt>
            <trkpt lat="40.906437" lon="-8.538627">
                <ele>118.6</ele>
                <time>2020-11-30T16:13:24.000Z</time>
            </trkpt>
            <trkpt lat="40.906462" lon="-8.538611">
                <ele>118.9</ele>
                <time>2020-11-30T16:13:25.000Z</time>
            </trkpt>
            <trkpt lat="40.906486" lon="-8.538597">
                <ele>119.2</ele>
                <time>2020-11-30T16:13:26.000Z</time>
            </trkpt>
            <trkpt lat="40.906511" lon="-8.538584">
                <ele>119.5</ele>
                <time>2020-11-30T16:13:27.000Z</time>
            </trkpt>
            <trkpt lat="40.906535" lon="-8.538572">
                <ele>119.9</ele>
                <time>2020-11-30T16:13:28.000Z</time>
            </trkpt>
            <trkpt lat="40.906558" lon="-8.538561">
                <ele>120.2</ele>
                <time>2020-11-30T16:13:29.000Z</time>
            </trkpt>
            <trkpt lat="40.906581" lon="-8.53855">
                <ele>120.5</ele>
                <time>2020-11-30T16:13:30.000Z</time>
            </trkpt>
            <trkpt lat="40.906604" lon="-8.53854">
                <ele>120.8</ele>
                <time>2020-11-30T16:13:31.000Z</time>
            </trkpt>
            <trkpt lat="40.906625" lon="-8.53853">
                <ele>121.1</ele>
                <time>2020-11-30T16:13:32.000Z</time>
            </trkpt>
            <trkpt lat="40.906646" lon="-8.538521">
                <ele>121.4</ele>
                <time>2020-11-30T16:13:33.000Z</time>
            </trkpt>
            <trkpt lat="40.906665" lon="-8.53851">
                <ele>121.6</ele>
                <time>2020-11-30T16:13:34.000Z</time>
            </trkpt>
            <trkpt lat="40.906683" lon="-8.5385">
                <ele>121.6</ele>
                <time>2020-11-30T16:13:35.000Z</time>
            </trkpt>
            <trkpt lat="40.9067" lon="-8.538488">
                <ele>121.6</ele>
                <time>2020-11-30T16:13:36.000Z</time>
            </trkpt>
            <trkpt lat="40.906715" lon="-8.538477">
                <ele>121.6</ele>
                <time>2020-11-30T16:13:37.000Z</time>
            </trkpt>
            <trkpt lat="40.90673" lon="-8.538465">
                <ele>121.6</ele>
                <time>2020-11-30T16:13:38.000Z</time>
            </trkpt>
            <trkpt lat="40.906743" lon="-8.538452">
                <ele>121.6</ele>
                <time>2020-11-30T16:13:39.000Z</time>
            </trkpt>
            <trkpt lat="40.906756" lon="-8.53844">
                <ele>121.6</ele>
                <time>2020-11-30T16:13:40.000Z</time>
            </trkpt>
            <trkpt lat="40.906769" lon="-8.538428">
                <ele>121.6</ele>
                <time>2020-11-30T16:13:41.000Z</time>
            </trkpt>
            <trkpt lat="40.906781" lon="-8.538417">
                <ele>121.5</ele>
                <time>2020-11-30T16:13:42.000Z</time>
            </trkpt>
            <trkpt lat="40.906794" lon="-8.538406">
                <ele>121.5</ele>
                <time>2020-11-30T16:13:43.000Z</time>
            </trkpt>
            <trkpt lat="40.906807" lon="-8.538396">
                <ele>121.5</ele>
                <time>2020-11-30T16:13:44.000Z</time>
            </trkpt>
            <trkpt lat="40.90682" lon="-8.538387">
                <ele>121.5</ele>
                <time>2020-11-30T16:13:45.000Z</time>
            </trkpt>
            <trkpt lat="40.906834" lon="-8.538379">
                <ele>121.5</ele>
                <time>2020-11-30T16:13:46.000Z</time>
            </trkpt>
            <trkpt lat="40.906848" lon="-8.538372">
                <ele>121.6</ele>
                <time>2020-11-30T16:13:47.000Z</time>
            </trkpt>
            <trkpt lat="40.906863" lon="-8.538365">
                <ele>121.6</ele>
                <time>2020-11-30T16:13:48.000Z</time>
            </trkpt>
            <trkpt lat="40.906878" lon="-8.538358">
                <ele>121.6</ele>
                <time>2020-11-30T16:13:49.000Z</time>
            </trkpt>
            <trkpt lat="40.906893" lon="-8.538349">
                <ele>121.6</ele>
                <time>2020-11-30T16:13:50.000Z</time>
            </trkpt>
            <trkpt lat="40.906907" lon="-8.53834">
                <ele>121.6</ele>
                <time>2020-11-30T16:13:51.000Z</time>
            </trkpt>
            <trkpt lat="40.906921" lon="-8.538329">
                <ele>121.7</ele>
                <time>2020-11-30T16:13:52.000Z</time>
            </trkpt>
            <trkpt lat="40.906932" lon="-8.538317">
                <ele>121.8</ele>
                <time>2020-11-30T16:13:53.000Z</time>
            </trkpt>
            <trkpt lat="40.90694" lon="-8.538304">
                <ele>122.0</ele>
                <time>2020-11-30T16:13:54.000Z</time>
            </trkpt>
            <trkpt lat="40.906944" lon="-8.53829">
                <ele>122.2</ele>
                <time>2020-11-30T16:13:55.000Z</time>
            </trkpt>
            <trkpt lat="40.906943" lon="-8.538275">
                <ele>122.3</ele>
                <time>2020-11-30T16:13:56.000Z</time>
            </trkpt>
            <trkpt lat="40.906937" lon="-8.53826">
                <ele>122.5</ele>
                <time>2020-11-30T16:13:57.000Z</time>
            </trkpt>
            <trkpt lat="40.906928" lon="-8.538247">
                <ele>122.6</ele>
                <time>2020-11-30T16:13:58.000Z</time>
            </trkpt>
            <trkpt lat="40.906917" lon="-8.538237">
                <ele>122.7</ele>
                <time>2020-11-30T16:13:59.000Z</time>
            </trkpt>
            <trkpt lat="40.906902" lon="-8.538231">
                <ele>122.7</ele>
                <time>2020-11-30T16:14:00.000Z</time>
            </trkpt>
            <trkpt lat="40.906886" lon="-8.53823">
                <ele>122.7</ele>
                <time>2020-11-30T16:14:01.000Z</time>
            </trkpt>
            <trkpt lat="40.906869" lon="-8.538232">
                <ele>122.6</ele>
                <time>2020-11-30T16:14:02.000Z</time>
            </trkpt>
            <trkpt lat="40.906851" lon="-8.538236">
                <ele>122.5</ele>
                <time>2020-11-30T16:14:03.000Z</time>
            </trkpt>
            <trkpt lat="40.906832" lon="-8.53824">
                <ele>122.4</ele>
                <time>2020-11-30T16:14:04.000Z</time>
            </trkpt>
            <trkpt lat="40.906813" lon="-8.538242">
                <ele>122.4</ele>
                <time>2020-11-30T16:14:05.000Z</time>
            </trkpt>
            <trkpt lat="40.906795" lon="-8.538241">
                <ele>122.3</ele>
                <time>2020-11-30T16:14:06.000Z</time>
            </trkpt>
            <trkpt lat="40.906776" lon="-8.538237">
                <ele>122.3</ele>
                <time>2020-11-30T16:14:07.000Z</time>
            </trkpt>
            <trkpt lat="40.906757" lon="-8.53823">
                <ele>122.4</ele>
                <time>2020-11-30T16:14:08.000Z</time>
            </trkpt>
            <trkpt lat="40.906737" lon="-8.538221">
                <ele>122.4</ele>
                <time>2020-11-30T16:14:09.000Z</time>
            </trkpt>
            <trkpt lat="40.906717" lon="-8.538209">
                <ele>122.5</ele>
                <time>2020-11-30T16:14:10.000Z</time>
            </trkpt>
            <trkpt lat="40.906697" lon="-8.538196">
                <ele>122.6</ele>
                <time>2020-11-30T16:14:11.000Z</time>
            </trkpt>
            <trkpt lat="40.906676" lon="-8.538182">
                <ele>122.7</ele>
                <time>2020-11-30T16:14:12.000Z</time>
            </trkpt>
            <trkpt lat="40.906655" lon="-8.538167">
                <ele>122.6</ele>
                <time>2020-11-30T16:14:13.000Z</time>
            </trkpt>
            <trkpt lat="40.906633" lon="-8.538151">
                <ele>122.4</ele>
                <time>2020-11-30T16:14:14.000Z</time>
            </trkpt>
            <trkpt lat="40.906613" lon="-8.538136">
                <ele>122.3</ele>
                <time>2020-11-30T16:14:15.000Z</time>
            </trkpt>
            <trkpt lat="40.906593" lon="-8.538121">
                <ele>122.1</ele>
                <time>2020-11-30T16:14:16.000Z</time>
            </trkpt>
            <trkpt lat="40.906575" lon="-8.538107">
                <ele>122.0</ele>
                <time>2020-11-30T16:14:17.000Z</time>
            </trkpt>
            <trkpt lat="40.906558" lon="-8.538093">
                <ele>121.8</ele>
                <time>2020-11-30T16:14:18.000Z</time>
            </trkpt>
            <trkpt lat="40.906542" lon="-8.538079">
                <ele>121.7</ele>
                <time>2020-11-30T16:14:19.000Z</time>
            </trkpt>
            <trkpt lat="40.906527" lon="-8.538065">
                <ele>121.6</ele>
                <time>2020-11-30T16:14:20.000Z</time>
            </trkpt>
            <trkpt lat="40.906512" lon="-8.53805">
                <ele>121.5</ele>
                <time>2020-11-30T16:14:21.000Z</time>
            </trkpt>
            <trkpt lat="40.906498" lon="-8.538034">
                <ele>121.4</ele>
                <time>2020-11-30T16:14:22.000Z</time>
            </trkpt>
            <trkpt lat="40.906485" lon="-8.538017">
                <ele>121.4</ele>
                <time>2020-11-30T16:14:23.000Z</time>
            </trkpt>
            <trkpt lat="40.906473" lon="-8.538">
                <ele>121.3</ele>
                <time>2020-11-30T16:14:24.000Z</time>
            </trkpt>
            <trkpt lat="40.906461" lon="-8.537985">
                <ele>121.3</ele>
                <time>2020-11-30T16:14:25.000Z</time>
            </trkpt>
            <trkpt lat="40.906452" lon="-8.537971">
                <ele>121.3</ele>
                <time>2020-11-30T16:14:26.000Z</time>
            </trkpt>
            <trkpt lat="40.906444" lon="-8.537959">
                <ele>121.2</ele>
                <time>2020-11-30T16:14:27.000Z</time>
            </trkpt>
            <trkpt lat="40.906439" lon="-8.53795">
                <ele>121.2</ele>
                <time>2020-11-30T16:14:28.000Z</time>
            </trkpt>
            <trkpt lat="40.906434" lon="-8.537943">
                <ele>121.2</ele>
                <time>2020-11-30T16:14:29.000Z</time>
            </trkpt>
            <trkpt lat="40.906431" lon="-8.537938">
                <ele>121.2</ele>
                <time>2020-11-30T16:14:30.000Z</time>
            </trkpt>
            <trkpt lat="40.906429" lon="-8.537934">
                <ele>121.2</ele>
                <time>2020-11-30T16:14:31.000Z</time>
            </trkpt>
            <trkpt lat="40.906428" lon="-8.537932">
                <ele>121.2</ele>
                <time>2020-11-30T16:14:32.000Z</time>
            </trkpt>
            <trkpt lat="40.906427" lon="-8.53793">
                <ele>121.2</ele>
                <time>2020-11-30T16:14:33.000Z</time>
            </trkpt>
            <trkpt lat="40.906427" lon="-8.53793">
                <ele>121.2</ele>
                <time>2020-11-30T16:14:34.000Z</time>
            </trkpt>
            <trkpt lat="40.906427" lon="-8.53793">
                <ele>121.2</ele>
                <time>2020-11-30T16:14:35.000Z</time>
            </trkpt>
            <trkpt lat="40.906428" lon="-8.53793">
                <ele>121.2</ele>
                <time>2020-11-30T16:14:36.000Z</time>
            </trkpt>
            <trkpt lat="40.906428" lon="-8.53793">
                <ele>121.2</ele>
                <time>2020-11-30T16:14:37.000Z</time>
            </trkpt>
            <trkpt lat="40.906428" lon="-8.53793">
                <ele>121.2</ele>
                <time>2020-11-30T16:14:38.000Z</time>
            </trkpt>
            <trkpt lat="40.906428" lon="-8.53793">
                <ele>121.2</ele>
                <time>2020-11-30T16:14:39.000Z</time>
            </trkpt>
            <trkpt lat="40.906428" lon="-8.53793">
                <ele>121.2</ele>
                <time>2020-11-30T16:14:40.000Z</time>
            </trkpt>
            <trkpt lat="40.906427" lon="-8.53793">
                <ele>121.2</ele>
                <time>2020-11-30T16:14:41.000Z</time>
            </trkpt>
            <trkpt lat="40.906427" lon="-8.53793">
                <ele>121.2</ele>
                <time>2020-11-30T16:14:42.000Z</time>
            </trkpt>
            <trkpt lat="40.906427" lon="-8.53793">
                <ele>121.2</ele>
                <time>2020-11-30T16:14:43.000Z</time>
            </trkpt>
            <trkpt lat="40.906427" lon="-8.537929">
                <ele>121.2</ele>
                <time>2020-11-30T16:14:44.000Z</time>
            </trkpt>
            <trkpt lat="40.906427" lon="-8.537929">
                <ele>121.2</ele>
                <time>2020-11-30T16:14:45.000Z</time>
            </trkpt>
            <trkpt lat="40.906427" lon="-8.537929">
                <ele>121.2</ele>
                <time>2020-11-30T16:14:46.000Z</time>
            </trkpt>
            <trkpt lat="40.906427" lon="-8.537929">
                <ele>121.2</ele>
                <time>2020-11-30T16:14:47.000Z</time>
            </trkpt>
            <trkpt lat="40.906427" lon="-8.537929">
                <ele>121.2</ele>
                <time>2020-11-30T16:14:48.000Z</time>
            </trkpt>
            <trkpt lat="40.906427" lon="-8.537929">
                <ele>121.2</ele>
                <time>2020-11-30T16:14:49.000Z</time>
            </trkpt>
            <trkpt lat="40.906427" lon="-8.537929">
                <ele>121.2</ele>
                <time>2020-11-30T16:14:50.000Z</time>
            </trkpt>
            <trkpt lat="40.906425" lon="-8.537927">
                <ele>121.2</ele>
                <time>2020-11-30T16:14:51.000Z</time>
            </trkpt>
            <trkpt lat="40.906423" lon="-8.537926">
                <ele>121.2</ele>
                <time>2020-11-30T16:14:52.000Z</time>
            </trkpt>
            <trkpt lat="40.906419" lon="-8.537923">
                <ele>121.1</ele>
                <time>2020-11-30T16:14:53.000Z</time>
            </trkpt>
            <trkpt lat="40.906414" lon="-8.53792">
                <ele>121.1</ele>
                <time>2020-11-30T16:14:54.000Z</time>
            </trkpt>
            <trkpt lat="40.906408" lon="-8.537915">
                <ele>121.0</ele>
                <time>2020-11-30T16:14:55.000Z</time>
            </trkpt>
            <trkpt lat="40.906399" lon="-8.537909">
                <ele>120.9</ele>
                <time>2020-11-30T16:14:56.000Z</time>
            </trkpt>
            <trkpt lat="40.906389" lon="-8.537902">
                <ele>120.8</ele>
                <time>2020-11-30T16:14:57.000Z</time>
            </trkpt>
            <trkpt lat="40.906376" lon="-8.537894">
                <ele>120.6</ele>
                <time>2020-11-30T16:14:58.000Z</time>
            </trkpt>
            <trkpt lat="40.906362" lon="-8.537884">
                <ele>120.5</ele>
                <time>2020-11-30T16:14:59.000Z</time>
            </trkpt>
            <trkpt lat="40.906346" lon="-8.537874">
                <ele>120.3</ele>
                <time>2020-11-30T16:15:00.000Z</time>
            </trkpt>
            <trkpt lat="40.906327" lon="-8.537863">
                <ele>120.0</ele>
                <time>2020-11-30T16:15:01.000Z</time>
            </trkpt>
            <trkpt lat="40.906308" lon="-8.537853">
                <ele>119.8</ele>
                <time>2020-11-30T16:15:02.000Z</time>
            </trkpt>
            <trkpt lat="40.906287" lon="-8.537842">
                <ele>119.5</ele>
                <time>2020-11-30T16:15:03.000Z</time>
            </trkpt>
            <trkpt lat="40.906266" lon="-8.537832">
                <ele>119.2</ele>
                <time>2020-11-30T16:15:04.000Z</time>
            </trkpt>
            <trkpt lat="40.906244" lon="-8.537824">
                <ele>118.9</ele>
                <time>2020-11-30T16:15:05.000Z</time>
            </trkpt>
            <trkpt lat="40.906221" lon="-8.537817">
                <ele>118.5</ele>
                <time>2020-11-30T16:15:06.000Z</time>
            </trkpt>
            <trkpt lat="40.906198" lon="-8.537811">
                <ele>118.1</ele>
                <time>2020-11-30T16:15:07.000Z</time>
            </trkpt>
            <trkpt lat="40.906174" lon="-8.537808">
                <ele>117.7</ele>
                <time>2020-11-30T16:15:08.000Z</time>
            </trkpt>
            <trkpt lat="40.906151" lon="-8.537806">
                <ele>117.3</ele>
                <time>2020-11-30T16:15:09.000Z</time>
            </trkpt>
            <trkpt lat="40.906128" lon="-8.537806">
                <ele>116.9</ele>
                <time>2020-11-30T16:15:10.000Z</time>
            </trkpt>
            <trkpt lat="40.906105" lon="-8.537807">
                <ele>116.5</ele>
                <time>2020-11-30T16:15:11.000Z</time>
            </trkpt>
            <trkpt lat="40.906083" lon="-8.537809">
                <ele>116.1</ele>
                <time>2020-11-30T16:15:12.000Z</time>
            </trkpt>
            <trkpt lat="40.906062" lon="-8.537811">
                <ele>115.7</ele>
                <time>2020-11-30T16:15:13.000Z</time>
            </trkpt>
            <trkpt lat="40.906041" lon="-8.537812">
                <ele>115.3</ele>
                <time>2020-11-30T16:15:14.000Z</time>
            </trkpt>
            <trkpt lat="40.906022" lon="-8.537813">
                <ele>114.9</ele>
                <time>2020-11-30T16:15:15.000Z</time>
            </trkpt>
            <trkpt lat="40.906003" lon="-8.537814">
                <ele>114.6</ele>
                <time>2020-11-30T16:15:16.000Z</time>
            </trkpt>
            <trkpt lat="40.905986" lon="-8.537813">
                <ele>114.3</ele>
                <time>2020-11-30T16:15:17.000Z</time>
            </trkpt>
            <trkpt lat="40.905971" lon="-8.537811">
                <ele>114.0</ele>
                <time>2020-11-30T16:15:18.000Z</time>
            </trkpt>
            <trkpt lat="40.905959" lon="-8.537808">
                <ele>113.8</ele>
                <time>2020-11-30T16:15:19.000Z</time>
            </trkpt>
            <trkpt lat="40.905952" lon="-8.537807">
                <ele>113.7</ele>
                <time>2020-11-30T16:15:20.000Z</time>
            </trkpt>
            <trkpt lat="40.90595" lon="-8.537808">
                <ele>113.6</ele>
                <time>2020-11-30T16:15:21.000Z</time>
            </trkpt>
            <trkpt lat="40.905951" lon="-8.53781">
                <ele>113.6</ele>
                <time>2020-11-30T16:15:22.000Z</time>
            </trkpt>
            <trkpt lat="40.90595" lon="-8.537811">
                <ele>113.6</ele>
                <time>2020-11-30T16:15:23.000Z</time>
            </trkpt>
            <trkpt lat="40.905948" lon="-8.537812">
                <ele>113.6</ele>
                <time>2020-11-30T16:15:24.000Z</time>
            </trkpt>
            <trkpt lat="40.905944" lon="-8.537813">
                <ele>113.5</ele>
                <time>2020-11-30T16:15:25.000Z</time>
            </trkpt>
            <trkpt lat="40.905938" lon="-8.537815">
                <ele>113.4</ele>
                <time>2020-11-30T16:15:26.000Z</time>
            </trkpt>
            <trkpt lat="40.90593" lon="-8.537819">
                <ele>113.2</ele>
                <time>2020-11-30T16:15:27.000Z</time>
            </trkpt>
            <trkpt lat="40.905921" lon="-8.537826">
                <ele>113.0</ele>
                <time>2020-11-30T16:15:28.000Z</time>
            </trkpt>
            <trkpt lat="40.90591" lon="-8.537835">
                <ele>112.8</ele>
                <time>2020-11-30T16:15:29.000Z</time>
            </trkpt>
            <trkpt lat="40.905899" lon="-8.537845">
                <ele>112.5</ele>
                <time>2020-11-30T16:15:30.000Z</time>
            </trkpt>
            <trkpt lat="40.905888" lon="-8.537856">
                <ele>112.3</ele>
                <time>2020-11-30T16:15:31.000Z</time>
            </trkpt>
            <trkpt lat="40.905878" lon="-8.537867">
                <ele>112.0</ele>
                <time>2020-11-30T16:15:32.000Z</time>
            </trkpt>
            <trkpt lat="40.905869" lon="-8.537876">
                <ele>111.8</ele>
                <time>2020-11-30T16:15:33.000Z</time>
            </trkpt>
            <trkpt lat="40.905861" lon="-8.537884">
                <ele>111.6</ele>
                <time>2020-11-30T16:15:34.000Z</time>
            </trkpt>
            <trkpt lat="40.905855" lon="-8.537891">
                <ele>111.5</ele>
                <time>2020-11-30T16:15:35.000Z</time>
            </trkpt>
            <trkpt lat="40.905851" lon="-8.537897">
                <ele>111.4</ele>
                <time>2020-11-30T16:15:36.000Z</time>
            </trkpt>
            <trkpt lat="40.905847" lon="-8.537904">
                <ele>111.3</ele>
                <time>2020-11-30T16:15:37.000Z</time>
            </trkpt>
            <trkpt lat="40.905845" lon="-8.537912">
                <ele>111.2</ele>
                <time>2020-11-30T16:15:38.000Z</time>
            </trkpt>
            <trkpt lat="40.905842" lon="-8.537921">
                <ele>111.1</ele>
                <time>2020-11-30T16:15:39.000Z</time>
            </trkpt>
            <trkpt lat="40.90584" lon="-8.537932">
                <ele>111.0</ele>
                <time>2020-11-30T16:15:40.000Z</time>
            </trkpt>
            <trkpt lat="40.905839" lon="-8.537944">
                <ele>111.0</ele>
                <time>2020-11-30T16:15:41.000Z</time>
            </trkpt>
            <trkpt lat="40.905838" lon="-8.537956">
                <ele>110.9</ele>
                <time>2020-11-30T16:15:42.000Z</time>
            </trkpt>
            <trkpt lat="40.905838" lon="-8.537968">
                <ele>110.8</ele>
                <time>2020-11-30T16:15:43.000Z</time>
            </trkpt>
            <trkpt lat="40.905838" lon="-8.537979">
                <ele>110.8</ele>
                <time>2020-11-30T16:15:44.000Z</time>
            </trkpt>
            <trkpt lat="40.905839" lon="-8.53799">
                <ele>110.7</ele>
                <time>2020-11-30T16:15:45.000Z</time>
            </trkpt>
            <trkpt lat="40.90584" lon="-8.538001">
                <ele>110.7</ele>
                <time>2020-11-30T16:15:46.000Z</time>
            </trkpt>
            <trkpt lat="40.90584" lon="-8.538011">
                <ele>110.7</ele>
                <time>2020-11-30T16:15:47.000Z</time>
            </trkpt>
            <trkpt lat="40.90584" lon="-8.538023">
                <ele>110.6</ele>
                <time>2020-11-30T16:15:48.000Z</time>
            </trkpt>
            <trkpt lat="40.905839" lon="-8.538035">
                <ele>110.5</ele>
                <time>2020-11-30T16:15:49.000Z</time>
            </trkpt>
            <trkpt lat="40.905837" lon="-8.538048">
                <ele>110.4</ele>
                <time>2020-11-30T16:15:50.000Z</time>
            </trkpt>
            <trkpt lat="40.905835" lon="-8.538061">
                <ele>110.3</ele>
                <time>2020-11-30T16:15:51.000Z</time>
            </trkpt>
            <trkpt lat="40.905833" lon="-8.538075">
                <ele>110.2</ele>
                <time>2020-11-30T16:15:52.000Z</time>
            </trkpt>
            <trkpt lat="40.90583" lon="-8.538089">
                <ele>110.2</ele>
                <time>2020-11-30T16:15:53.000Z</time>
            </trkpt>
            <trkpt lat="40.905827" lon="-8.538102">
                <ele>110.1</ele>
                <time>2020-11-30T16:15:54.000Z</time>
            </trkpt>
            <trkpt lat="40.905825" lon="-8.538116">
                <ele>110.1</ele>
                <time>2020-11-30T16:15:55.000Z</time>
            </trkpt>
            <trkpt lat="40.905822" lon="-8.538129">
                <ele>110.0</ele>
                <time>2020-11-30T16:15:56.000Z</time>
            </trkpt>
            <trkpt lat="40.905821" lon="-8.538142">
                <ele>109.9</ele>
                <time>2020-11-30T16:15:57.000Z</time>
            </trkpt>
            <trkpt lat="40.905819" lon="-8.538153">
                <ele>109.9</ele>
                <time>2020-11-30T16:15:58.000Z</time>
            </trkpt>
            <trkpt lat="40.905819" lon="-8.538164">
                <ele>109.8</ele>
                <time>2020-11-30T16:15:59.000Z</time>
            </trkpt>
            <trkpt lat="40.905819" lon="-8.538175">
                <ele>109.8</ele>
                <time>2020-11-30T16:16:00.000Z</time>
            </trkpt>
            <trkpt lat="40.905819" lon="-8.538186">
                <ele>109.7</ele>
                <time>2020-11-30T16:16:01.000Z</time>
            </trkpt>
            <trkpt lat="40.905819" lon="-8.538197">
                <ele>109.7</ele>
                <time>2020-11-30T16:16:02.000Z</time>
            </trkpt>
            <trkpt lat="40.90582" lon="-8.538211">
                <ele>109.6</ele>
                <time>2020-11-30T16:16:03.000Z</time>
            </trkpt>
            <trkpt lat="40.90582" lon="-8.538226">
                <ele>109.5</ele>
                <time>2020-11-30T16:16:04.000Z</time>
            </trkpt>
            <trkpt lat="40.905819" lon="-8.538242">
                <ele>109.5</ele>
                <time>2020-11-30T16:16:05.000Z</time>
            </trkpt>
            <trkpt lat="40.905819" lon="-8.538259">
                <ele>109.4</ele>
                <time>2020-11-30T16:16:06.000Z</time>
            </trkpt>
            <trkpt lat="40.905818" lon="-8.538275">
                <ele>109.3</ele>
                <time>2020-11-30T16:16:07.000Z</time>
            </trkpt>
            <trkpt lat="40.905817" lon="-8.53829">
                <ele>109.2</ele>
                <time>2020-11-30T16:16:08.000Z</time>
            </trkpt>
            <trkpt lat="40.905815" lon="-8.538303">
                <ele>109.2</ele>
                <time>2020-11-30T16:16:09.000Z</time>
            </trkpt>
            <trkpt lat="40.905813" lon="-8.538315">
                <ele>109.1</ele>
                <time>2020-11-30T16:16:10.000Z</time>
            </trkpt>
            <trkpt lat="40.905811" lon="-8.538324">
                <ele>109.1</ele>
                <time>2020-11-30T16:16:11.000Z</time>
            </trkpt>
            <trkpt lat="40.905809" lon="-8.538332">
                <ele>109.1</ele>
                <time>2020-11-30T16:16:12.000Z</time>
            </trkpt>
            <trkpt lat="40.905807" lon="-8.538339">
                <ele>109.1</ele>
                <time>2020-11-30T16:16:13.000Z</time>
            </trkpt>
            <trkpt lat="40.905804" lon="-8.538344">
                <ele>109.1</ele>
                <time>2020-11-30T16:16:14.000Z</time>
            </trkpt>
            <trkpt lat="40.905802" lon="-8.538348">
                <ele>109.1</ele>
                <time>2020-11-30T16:16:15.000Z</time>
            </trkpt>
            <trkpt lat="40.9058" lon="-8.538351">
                <ele>109.1</ele>
                <time>2020-11-30T16:16:16.000Z</time>
            </trkpt>
            <trkpt lat="40.905798" lon="-8.538354">
                <ele>109.1</ele>
                <time>2020-11-30T16:16:17.000Z</time>
            </trkpt>
            <trkpt lat="40.905796" lon="-8.538355">
                <ele>109.1</ele>
                <time>2020-11-30T16:16:18.000Z</time>
            </trkpt>
            <trkpt lat="40.905795" lon="-8.538357">
                <ele>109.1</ele>
                <time>2020-11-30T16:16:19.000Z</time>
            </trkpt>
            <trkpt lat="40.905793" lon="-8.538358">
                <ele>109.1</ele>
                <time>2020-11-30T16:16:20.000Z</time>
            </trkpt>
            <trkpt lat="40.905792" lon="-8.538359">
                <ele>109.1</ele>
                <time>2020-11-30T16:16:21.000Z</time>
            </trkpt>
            <trkpt lat="40.905792" lon="-8.538359">
                <ele>109.1</ele>
                <time>2020-11-30T16:16:22.000Z</time>
            </trkpt>
            <trkpt lat="40.905791" lon="-8.538359">
                <ele>109.1</ele>
                <time>2020-11-30T16:16:23.000Z</time>
            </trkpt>
            <trkpt lat="40.905791" lon="-8.53836">
                <ele>109.1</ele>
                <time>2020-11-30T16:16:24.000Z</time>
            </trkpt>
            <trkpt lat="40.905791" lon="-8.53836">
                <ele>109.1</ele>
                <time>2020-11-30T16:16:25.000Z</time>
            </trkpt>
            <trkpt lat="40.905791" lon="-8.53836">
                <ele>109.1</ele>
                <time>2020-11-30T16:16:26.000Z</time>
            </trkpt>
            <trkpt lat="40.905791" lon="-8.53836">
                <ele>109.1</ele>
                <time>2020-11-30T16:16:27.000Z</time>
            </trkpt>
            <trkpt lat="40.905791" lon="-8.53836">
                <ele>109.1</ele>
                <time>2020-11-30T16:16:28.000Z</time>
            </trkpt>
            <trkpt lat="40.905791" lon="-8.53836">
                <ele>109.1</ele>
                <time>2020-11-30T16:16:29.000Z</time>
            </trkpt>
            <trkpt lat="40.905791" lon="-8.53836">
                <ele>109.1</ele>
                <time>2020-11-30T16:16:30.000Z</time>
            </trkpt>
            <trkpt lat="40.905791" lon="-8.53836">
                <ele>109.1</ele>
                <time>2020-11-30T16:16:31.000Z</time>
            </trkpt>
            <trkpt lat="40.905791" lon="-8.53836">
                <ele>109.1</ele>
                <time>2020-11-30T16:16:32.000Z</time>
            </trkpt>
            <trkpt lat="40.905791" lon="-8.53836">
                <ele>109.1</ele>
                <time>2020-11-30T16:16:33.000Z</time>
            </trkpt>
            <trkpt lat="40.905791" lon="-8.53836">
                <ele>109.1</ele>
                <time>2020-11-30T16:16:34.000Z</time>
            </trkpt>
            <trkpt lat="40.905791" lon="-8.53836">
                <ele>109.1</ele>
                <time>2020-11-30T16:16:35.000Z</time>
            </trkpt>
            <trkpt lat="40.90579" lon="-8.538359">
                <ele>109.1</ele>
                <time>2020-11-30T16:16:36.000Z</time>
            </trkpt>
            <trkpt lat="40.905788" lon="-8.538358">
                <ele>109.1</ele>
                <time>2020-11-30T16:16:37.000Z</time>
            </trkpt>
            <trkpt lat="40.905782" lon="-8.538356">
                <ele>109.1</ele>
                <time>2020-11-30T16:16:38.000Z</time>
            </trkpt>
            <trkpt lat="40.905768" lon="-8.538354">
                <ele>109.2</ele>
                <time>2020-11-30T16:16:39.000Z</time>
            </trkpt>
            <trkpt lat="40.905756" lon="-8.538352">
                <ele>109.2</ele>
                <time>2020-11-30T16:16:40.000Z</time>
            </trkpt>
            <trkpt lat="40.905748" lon="-8.538351">
                <ele>109.2</ele>
                <time>2020-11-30T16:16:41.000Z</time>
            </trkpt>
            <trkpt lat="40.905744" lon="-8.53835">
                <ele>109.2</ele>
                <time>2020-11-30T16:16:42.000Z</time>
            </trkpt>
            <trkpt lat="40.905743" lon="-8.53835">
                <ele>109.2</ele>
                <time>2020-11-30T16:16:43.000Z</time>
            </trkpt>
            <trkpt lat="40.905743" lon="-8.53835">
                <ele>109.2</ele>
                <time>2020-11-30T16:16:44.000Z</time>
            </trkpt>
            <trkpt lat="40.905743" lon="-8.53835">
                <ele>109.2</ele>
                <time>2020-11-30T16:16:45.000Z</time>
            </trkpt>
            <trkpt lat="40.905742" lon="-8.538351">
                <ele>109.2</ele>
                <time>2020-11-30T16:16:46.000Z</time>
            </trkpt>
            <trkpt lat="40.90574" lon="-8.538351">
                <ele>109.2</ele>
                <time>2020-11-30T16:16:47.000Z</time>
            </trkpt>
            <trkpt lat="40.905736" lon="-8.538353">
                <ele>109.2</ele>
                <time>2020-11-30T16:16:48.000Z</time>
            </trkpt>
            <trkpt lat="40.905731" lon="-8.538354">
                <ele>109.2</ele>
                <time>2020-11-30T16:16:49.000Z</time>
            </trkpt>
            <trkpt lat="40.905722" lon="-8.538357">
                <ele>109.3</ele>
                <time>2020-11-30T16:16:50.000Z</time>
            </trkpt>
            <trkpt lat="40.905712" lon="-8.538359">
                <ele>109.3</ele>
                <time>2020-11-30T16:16:51.000Z</time>
            </trkpt>
            <trkpt lat="40.905701" lon="-8.538361">
                <ele>109.3</ele>
                <time>2020-11-30T16:16:52.000Z</time>
            </trkpt>
            <trkpt lat="40.90569" lon="-8.538363">
                <ele>109.3</ele>
                <time>2020-11-30T16:16:53.000Z</time>
            </trkpt>
            <trkpt lat="40.905679" lon="-8.538364">
                <ele>109.4</ele>
                <time>2020-11-30T16:16:54.000Z</time>
            </trkpt>
            <trkpt lat="40.90567" lon="-8.538365">
                <ele>109.4</ele>
                <time>2020-11-30T16:16:55.000Z</time>
            </trkpt>
            <trkpt lat="40.905662" lon="-8.538364">
                <ele>109.4</ele>
                <time>2020-11-30T16:16:56.000Z</time>
            </trkpt>
            <trkpt lat="40.905656" lon="-8.538362">
                <ele>109.4</ele>
                <time>2020-11-30T16:16:57.000Z</time>
            </trkpt>
            <trkpt lat="40.905652" lon="-8.53836">
                <ele>109.4</ele>
                <time>2020-11-30T16:16:58.000Z</time>
            </trkpt>
            <trkpt lat="40.905649" lon="-8.538358">
                <ele>109.4</ele>
                <time>2020-11-30T16:16:59.000Z</time>
            </trkpt>
            <trkpt lat="40.905647" lon="-8.538356">
                <ele>109.4</ele>
                <time>2020-11-30T16:17:00.000Z</time>
            </trkpt>
            <trkpt lat="40.905646" lon="-8.538355">
                <ele>109.4</ele>
                <time>2020-11-30T16:17:01.000Z</time>
            </trkpt>
            <trkpt lat="40.905645" lon="-8.538354">
                <ele>109.4</ele>
                <time>2020-11-30T16:17:02.000Z</time>
            </trkpt>
            <trkpt lat="40.905645" lon="-8.538353">
                <ele>109.4</ele>
                <time>2020-11-30T16:17:03.000Z</time>
            </trkpt>
            <trkpt lat="40.905645" lon="-8.538353">
                <ele>109.4</ele>
                <time>2020-11-30T16:17:04.000Z</time>
            </trkpt>
            <trkpt lat="40.905645" lon="-8.538353">
                <ele>109.4</ele>
                <time>2020-11-30T16:17:05.000Z</time>
            </trkpt>
            <trkpt lat="40.905646" lon="-8.538353">
                <ele>109.4</ele>
                <time>2020-11-30T16:17:06.000Z</time>
            </trkpt>
            <trkpt lat="40.905646" lon="-8.538353">
                <ele>109.4</ele>
                <time>2020-11-30T16:17:07.000Z</time>
            </trkpt>
            <trkpt lat="40.905645" lon="-8.538351">
                <ele>109.4</ele>
                <time>2020-11-30T16:17:08.000Z</time>
            </trkpt>
            <trkpt lat="40.905643" lon="-8.538349">
                <ele>109.4</ele>
                <time>2020-11-30T16:17:09.000Z</time>
            </trkpt>
            <trkpt lat="40.905641" lon="-8.538346">
                <ele>109.5</ele>
                <time>2020-11-30T16:17:10.000Z</time>
            </trkpt>
            <trkpt lat="40.905636" lon="-8.53834">
                <ele>109.5</ele>
                <time>2020-11-30T16:17:11.000Z</time>
            </trkpt>
            <trkpt lat="40.905631" lon="-8.538333">
                <ele>109.5</ele>
                <time>2020-11-30T16:17:12.000Z</time>
            </trkpt>
            <trkpt lat="40.905626" lon="-8.538324">
                <ele>109.5</ele>
                <time>2020-11-30T16:17:13.000Z</time>
            </trkpt>
            <trkpt lat="40.905623" lon="-8.538313">
                <ele>109.6</ele>
                <time>2020-11-30T16:17:14.000Z</time>
            </trkpt>
            <trkpt lat="40.905622" lon="-8.5383">
                <ele>109.7</ele>
                <time>2020-11-30T16:17:15.000Z</time>
            </trkpt>
            <trkpt lat="40.905625" lon="-8.538283">
                <ele>109.7</ele>
                <time>2020-11-30T16:17:16.000Z</time>
            </trkpt>
            <trkpt lat="40.90563" lon="-8.538265">
                <ele>109.8</ele>
                <time>2020-11-30T16:17:17.000Z</time>
            </trkpt>
            <trkpt lat="40.905636" lon="-8.538244">
                <ele>109.9</ele>
                <time>2020-11-30T16:17:18.000Z</time>
            </trkpt>
            <trkpt lat="40.905643" lon="-8.538221">
                <ele>110.0</ele>
                <time>2020-11-30T16:17:19.000Z</time>
            </trkpt>
            <trkpt lat="40.905649" lon="-8.538197">
                <ele>110.1</ele>
                <time>2020-11-30T16:17:20.000Z</time>
            </trkpt>
            <trkpt lat="40.905655" lon="-8.538171">
                <ele>110.2</ele>
                <time>2020-11-30T16:17:21.000Z</time>
            </trkpt>
            <trkpt lat="40.905658" lon="-8.538143">
                <ele>110.3</ele>
                <time>2020-11-30T16:17:22.000Z</time>
            </trkpt>
            <trkpt lat="40.905661" lon="-8.538114">
                <ele>110.5</ele>
                <time>2020-11-30T16:17:23.000Z</time>
            </trkpt>
            <trkpt lat="40.905661" lon="-8.538084">
                <ele>110.6</ele>
                <time>2020-11-30T16:17:24.000Z</time>
            </trkpt>
            <trkpt lat="40.905661" lon="-8.538052">
                <ele>110.8</ele>
                <time>2020-11-30T16:17:25.000Z</time>
            </trkpt>
            <trkpt lat="40.905659" lon="-8.538019">
                <ele>110.9</ele>
                <time>2020-11-30T16:17:26.000Z</time>
            </trkpt>
            <trkpt lat="40.905656" lon="-8.537985">
                <ele>111.1</ele>
                <time>2020-11-30T16:17:27.000Z</time>
            </trkpt>
            <trkpt lat="40.905651" lon="-8.537951">
                <ele>111.3</ele>
                <time>2020-11-30T16:17:28.000Z</time>
            </trkpt>
            <trkpt lat="40.905646" lon="-8.537915">
                <ele>111.5</ele>
                <time>2020-11-30T16:17:29.000Z</time>
            </trkpt>
            <trkpt lat="40.905639" lon="-8.537878">
                <ele>111.7</ele>
                <time>2020-11-30T16:17:30.000Z</time>
            </trkpt>
            <trkpt lat="40.905631" lon="-8.537841">
                <ele>111.8</ele>
                <time>2020-11-30T16:17:31.000Z</time>
            </trkpt>
            <trkpt lat="40.905621" lon="-8.537803">
                <ele>112.1</ele>
                <time>2020-11-30T16:17:32.000Z</time>
            </trkpt>
            <trkpt lat="40.905612" lon="-8.537765">
                <ele>112.3</ele>
                <time>2020-11-30T16:17:33.000Z</time>
            </trkpt>
            <trkpt lat="40.905601" lon="-8.537727">
                <ele>112.5</ele>
                <time>2020-11-30T16:17:34.000Z</time>
            </trkpt>
            <trkpt lat="40.90559" lon="-8.53769">
                <ele>112.7</ele>
                <time>2020-11-30T16:17:35.000Z</time>
            </trkpt>
            <trkpt lat="40.90558" lon="-8.537653">
                <ele>112.9</ele>
                <time>2020-11-30T16:17:36.000Z</time>
            </trkpt>
            <trkpt lat="40.905569" lon="-8.537616">
                <ele>113.1</ele>
                <time>2020-11-30T16:17:37.000Z</time>
            </trkpt>
            <trkpt lat="40.905559" lon="-8.537581">
                <ele>113.3</ele>
                <time>2020-11-30T16:17:38.000Z</time>
            </trkpt>
            <trkpt lat="40.90555" lon="-8.537548">
                <ele>113.4</ele>
                <time>2020-11-30T16:17:39.000Z</time>
            </trkpt>
            <trkpt lat="40.905541" lon="-8.537516">
                <ele>113.6</ele>
                <time>2020-11-30T16:17:40.000Z</time>
            </trkpt>
            <trkpt lat="40.905534" lon="-8.537485">
                <ele>113.8</ele>
                <time>2020-11-30T16:17:41.000Z</time>
            </trkpt>
            <trkpt lat="40.905528" lon="-8.537457">
                <ele>114.1</ele>
                <time>2020-11-30T16:17:42.000Z</time>
            </trkpt>
            <trkpt lat="40.905522" lon="-8.537431">
                <ele>114.3</ele>
                <time>2020-11-30T16:17:43.000Z</time>
            </trkpt>
            <trkpt lat="40.905516" lon="-8.537406">
                <ele>114.5</ele>
                <time>2020-11-30T16:17:44.000Z</time>
            </trkpt>
            <trkpt lat="40.905508" lon="-8.537382">
                <ele>114.7</ele>
                <time>2020-11-30T16:17:45.000Z</time>
            </trkpt>
            <trkpt lat="40.905496" lon="-8.537359">
                <ele>114.8</ele>
                <time>2020-11-30T16:17:46.000Z</time>
            </trkpt>
            <trkpt lat="40.905482" lon="-8.537336">
                <ele>115.0</ele>
                <time>2020-11-30T16:17:47.000Z</time>
            </trkpt>
            <trkpt lat="40.905464" lon="-8.537314">
                <ele>115.2</ele>
                <time>2020-11-30T16:17:48.000Z</time>
            </trkpt>
            <trkpt lat="40.905444" lon="-8.537293">
                <ele>115.3</ele>
                <time>2020-11-30T16:17:49.000Z</time>
            </trkpt>
            <trkpt lat="40.905423" lon="-8.537275">
                <ele>115.4</ele>
                <time>2020-11-30T16:17:50.000Z</time>
            </trkpt>
            <trkpt lat="40.905402" lon="-8.537259">
                <ele>115.4</ele>
                <time>2020-11-30T16:17:51.000Z</time>
            </trkpt>
            <trkpt lat="40.905382" lon="-8.537247">
                <ele>115.4</ele>
                <time>2020-11-30T16:17:52.000Z</time>
            </trkpt>
            <trkpt lat="40.905362" lon="-8.537236">
                <ele>115.5</ele>
                <time>2020-11-30T16:17:53.000Z</time>
            </trkpt>
            <trkpt lat="40.905342" lon="-8.537227">
                <ele>115.5</ele>
                <time>2020-11-30T16:17:54.000Z</time>
            </trkpt>
            <trkpt lat="40.905323" lon="-8.537217">
                <ele>115.5</ele>
                <time>2020-11-30T16:17:55.000Z</time>
            </trkpt>
            <trkpt lat="40.905303" lon="-8.537206">
                <ele>115.5</ele>
                <time>2020-11-30T16:17:56.000Z</time>
            </trkpt>
            <trkpt lat="40.905284" lon="-8.537193">
                <ele>115.5</ele>
                <time>2020-11-30T16:17:57.000Z</time>
            </trkpt>
            <trkpt lat="40.905265" lon="-8.537177">
                <ele>115.5</ele>
                <time>2020-11-30T16:17:58.000Z</time>
            </trkpt>
            <trkpt lat="40.905246" lon="-8.537161">
                <ele>115.4</ele>
                <time>2020-11-30T16:17:59.000Z</time>
            </trkpt>
            <trkpt lat="40.905228" lon="-8.537144">
                <ele>115.4</ele>
                <time>2020-11-30T16:18:00.000Z</time>
            </trkpt>
            <trkpt lat="40.905212" lon="-8.537129">
                <ele>115.4</ele>
                <time>2020-11-30T16:18:01.000Z</time>
            </trkpt>
            <trkpt lat="40.905197" lon="-8.537115">
                <ele>115.4</ele>
                <time>2020-11-30T16:18:02.000Z</time>
            </trkpt>
            <trkpt lat="40.905183" lon="-8.537103">
                <ele>115.3</ele>
                <time>2020-11-30T16:18:03.000Z</time>
            </trkpt>
            <trkpt lat="40.905171" lon="-8.537092">
                <ele>115.3</ele>
                <time>2020-11-30T16:18:04.000Z</time>
            </trkpt>
            <trkpt lat="40.90516" lon="-8.537081">
                <ele>115.3</ele>
                <time>2020-11-30T16:18:05.000Z</time>
            </trkpt>
            <trkpt lat="40.90515" lon="-8.53707">
                <ele>115.2</ele>
                <time>2020-11-30T16:18:06.000Z</time>
            </trkpt>
            <trkpt lat="40.905141" lon="-8.537059">
                <ele>115.2</ele>
                <time>2020-11-30T16:18:07.000Z</time>
            </trkpt>
            <trkpt lat="40.905134" lon="-8.537047">
                <ele>115.2</ele>
                <time>2020-11-30T16:18:08.000Z</time>
            </trkpt>
            <trkpt lat="40.905126" lon="-8.537034">
                <ele>115.2</ele>
                <time>2020-11-30T16:18:09.000Z</time>
            </trkpt>
            <trkpt lat="40.905119" lon="-8.53702">
                <ele>115.1</ele>
                <time>2020-11-30T16:18:10.000Z</time>
            </trkpt>
            <trkpt lat="40.905113" lon="-8.537005">
                <ele>115.1</ele>
                <time>2020-11-30T16:18:11.000Z</time>
            </trkpt>
            <trkpt lat="40.905105" lon="-8.536989">
                <ele>115.1</ele>
                <time>2020-11-30T16:18:12.000Z</time>
            </trkpt>
            <trkpt lat="40.905098" lon="-8.536971">
                <ele>115.0</ele>
                <time>2020-11-30T16:18:13.000Z</time>
            </trkpt>
            <trkpt lat="40.90509" lon="-8.536953">
                <ele>115.0</ele>
                <time>2020-11-30T16:18:14.000Z</time>
            </trkpt>
            <trkpt lat="40.905082" lon="-8.536934">
                <ele>114.9</ele>
                <time>2020-11-30T16:18:15.000Z</time>
            </trkpt>
            <trkpt lat="40.905073" lon="-8.536914">
                <ele>114.9</ele>
                <time>2020-11-30T16:18:16.000Z</time>
            </trkpt>
            <trkpt lat="40.905064" lon="-8.536894">
                <ele>114.8</ele>
                <time>2020-11-30T16:18:17.000Z</time>
            </trkpt>
            <trkpt lat="40.905054" lon="-8.536873">
                <ele>114.7</ele>
                <time>2020-11-30T16:18:18.000Z</time>
            </trkpt>
            <trkpt lat="40.905044" lon="-8.536852">
                <ele>114.6</ele>
                <time>2020-11-30T16:18:19.000Z</time>
            </trkpt>
            <trkpt lat="40.905035" lon="-8.536831">
                <ele>114.5</ele>
                <time>2020-11-30T16:18:20.000Z</time>
            </trkpt>
            <trkpt lat="40.905027" lon="-8.53681">
                <ele>114.4</ele>
                <time>2020-11-30T16:18:21.000Z</time>
            </trkpt>
            <trkpt lat="40.905021" lon="-8.536789">
                <ele>114.4</ele>
                <time>2020-11-30T16:18:22.000Z</time>
            </trkpt>
            <trkpt lat="40.905017" lon="-8.536769">
                <ele>114.3</ele>
                <time>2020-11-30T16:18:23.000Z</time>
            </trkpt>
            <trkpt lat="40.905014" lon="-8.536749">
                <ele>114.2</ele>
                <time>2020-11-30T16:18:24.000Z</time>
            </trkpt>
            <trkpt lat="40.905013" lon="-8.536731">
                <ele>114.2</ele>
                <time>2020-11-30T16:18:25.000Z</time>
            </trkpt>
            <trkpt lat="40.905012" lon="-8.536715">
                <ele>114.2</ele>
                <time>2020-11-30T16:18:26.000Z</time>
            </trkpt>
            <trkpt lat="40.905011" lon="-8.536701">
                <ele>114.2</ele>
                <time>2020-11-30T16:18:27.000Z</time>
            </trkpt>
            <trkpt lat="40.905009" lon="-8.53669">
                <ele>114.1</ele>
                <time>2020-11-30T16:18:28.000Z</time>
            </trkpt>
            <trkpt lat="40.905006" lon="-8.536682">
                <ele>114.1</ele>
                <time>2020-11-30T16:18:29.000Z</time>
            </trkpt>
            <trkpt lat="40.905002" lon="-8.536674">
                <ele>114.0</ele>
                <time>2020-11-30T16:18:30.000Z</time>
            </trkpt>
            <trkpt lat="40.904998" lon="-8.536667">
                <ele>114.0</ele>
                <time>2020-11-30T16:18:31.000Z</time>
            </trkpt>
            <trkpt lat="40.904994" lon="-8.536658">
                <ele>114.0</ele>
                <time>2020-11-30T16:18:32.000Z</time>
            </trkpt>
            <trkpt lat="40.90499" lon="-8.536648">
                <ele>114.0</ele>
                <time>2020-11-30T16:18:33.000Z</time>
            </trkpt>
            <trkpt lat="40.904986" lon="-8.536636">
                <ele>114.0</ele>
                <time>2020-11-30T16:18:34.000Z</time>
            </trkpt>
            <trkpt lat="40.90498" lon="-8.536621">
                <ele>114.0</ele>
                <time>2020-11-30T16:18:35.000Z</time>
            </trkpt>
            <trkpt lat="40.904974" lon="-8.536604">
                <ele>114.0</ele>
                <time>2020-11-30T16:18:36.000Z</time>
            </trkpt>
            <trkpt lat="40.904967" lon="-8.536585">
                <ele>114.0</ele>
                <time>2020-11-30T16:18:37.000Z</time>
            </trkpt>
            <trkpt lat="40.904958" lon="-8.536563">
                <ele>114.0</ele>
                <time>2020-11-30T16:18:38.000Z</time>
            </trkpt>
            <trkpt lat="40.904947" lon="-8.53654">
                <ele>114.0</ele>
                <time>2020-11-30T16:18:39.000Z</time>
            </trkpt>
            <trkpt lat="40.904935" lon="-8.536516">
                <ele>114.1</ele>
                <time>2020-11-30T16:18:40.000Z</time>
            </trkpt>
            <trkpt lat="40.904922" lon="-8.536493">
                <ele>114.1</ele>
                <time>2020-11-30T16:18:41.000Z</time>
            </trkpt>
            <trkpt lat="40.904908" lon="-8.536473">
                <ele>114.1</ele>
                <time>2020-11-30T16:18:42.000Z</time>
            </trkpt>
            <trkpt lat="40.904893" lon="-8.536455">
                <ele>114.2</ele>
                <time>2020-11-30T16:18:43.000Z</time>
            </trkpt>
            <trkpt lat="40.904879" lon="-8.536439">
                <ele>114.2</ele>
                <time>2020-11-30T16:18:44.000Z</time>
            </trkpt>
            <trkpt lat="40.904865" lon="-8.536427">
                <ele>114.2</ele>
                <time>2020-11-30T16:18:45.000Z</time>
            </trkpt>
            <trkpt lat="40.904853" lon="-8.536417">
                <ele>114.3</ele>
                <time>2020-11-30T16:18:46.000Z</time>
            </trkpt>
            <trkpt lat="40.904843" lon="-8.53641">
                <ele>114.3</ele>
                <time>2020-11-30T16:18:47.000Z</time>
            </trkpt>
            <trkpt lat="40.904837" lon="-8.536405">
                <ele>114.3</ele>
                <time>2020-11-30T16:18:48.000Z</time>
            </trkpt>
            <trkpt lat="40.904833" lon="-8.536402">
                <ele>114.3</ele>
                <time>2020-11-30T16:18:49.000Z</time>
            </trkpt>
            <trkpt lat="40.904831" lon="-8.5364">
                <ele>114.4</ele>
                <time>2020-11-30T16:18:50.000Z</time>
            </trkpt>
            <trkpt lat="40.90483" lon="-8.5364">
                <ele>114.4</ele>
                <time>2020-11-30T16:18:51.000Z</time>
            </trkpt>
            <trkpt lat="40.90483" lon="-8.5364">
                <ele>114.4</ele>
                <time>2020-11-30T16:18:52.000Z</time>
            </trkpt>
            <trkpt lat="40.90483" lon="-8.5364">
                <ele>114.4</ele>
                <time>2020-11-30T16:18:53.000Z</time>
            </trkpt>
            <trkpt lat="40.90483" lon="-8.5364">
                <ele>114.4</ele>
                <time>2020-11-30T16:18:54.000Z</time>
            </trkpt>
            <trkpt lat="40.90483" lon="-8.5364">
                <ele>114.4</ele>
                <time>2020-11-30T16:18:55.000Z</time>
            </trkpt>
            <trkpt lat="40.904831" lon="-8.536401">
                <ele>114.4</ele>
                <time>2020-11-30T16:18:56.000Z</time>
            </trkpt>
            <trkpt lat="40.904831" lon="-8.536401">
                <ele>114.4</ele>
                <time>2020-11-30T16:18:57.000Z</time>
            </trkpt>
            <trkpt lat="40.90483" lon="-8.5364">
                <ele>114.4</ele>
                <time>2020-11-30T16:18:58.000Z</time>
            </trkpt>
            <trkpt lat="40.90483" lon="-8.5364">
                <ele>114.4</ele>
                <time>2020-11-30T16:18:59.000Z</time>
            </trkpt>
            <trkpt lat="40.904829" lon="-8.536399">
                <ele>114.4</ele>
                <time>2020-11-30T16:19:00.000Z</time>
            </trkpt>
            <trkpt lat="40.904828" lon="-8.536397">
                <ele>114.4</ele>
                <time>2020-11-30T16:19:01.000Z</time>
            </trkpt>
            <trkpt lat="40.904826" lon="-8.536395">
                <ele>114.4</ele>
                <time>2020-11-30T16:19:02.000Z</time>
            </trkpt>
            <trkpt lat="40.904824" lon="-8.536392">
                <ele>114.4</ele>
                <time>2020-11-30T16:19:03.000Z</time>
            </trkpt>
            <trkpt lat="40.90482" lon="-8.536389">
                <ele>114.4</ele>
                <time>2020-11-30T16:19:04.000Z</time>
            </trkpt>
            <trkpt lat="40.904815" lon="-8.536386">
                <ele>114.4</ele>
                <time>2020-11-30T16:19:05.000Z</time>
            </trkpt>
            <trkpt lat="40.904805" lon="-8.536384">
                <ele>114.4</ele>
                <time>2020-11-30T16:19:06.000Z</time>
            </trkpt>
            <trkpt lat="40.90479" lon="-8.536383">
                <ele>114.5</ele>
                <time>2020-11-30T16:19:07.000Z</time>
            </trkpt>
            <trkpt lat="40.904772" lon="-8.536381">
                <ele>114.6</ele>
                <time>2020-11-30T16:19:08.000Z</time>
            </trkpt>
            <trkpt lat="40.904755" lon="-8.536373">
                <ele>114.6</ele>
                <time>2020-11-30T16:19:09.000Z</time>
            </trkpt>
            <trkpt lat="40.904739" lon="-8.536359">
                <ele>114.7</ele>
                <time>2020-11-30T16:19:10.000Z</time>
            </trkpt>
            <trkpt lat="40.904724" lon="-8.53634">
                <ele>114.7</ele>
                <time>2020-11-30T16:19:11.000Z</time>
            </trkpt>
            <trkpt lat="40.90471" lon="-8.536317">
                <ele>114.8</ele>
                <time>2020-11-30T16:19:12.000Z</time>
            </trkpt>
            <trkpt lat="40.904696" lon="-8.536291">
                <ele>114.8</ele>
                <time>2020-11-30T16:19:13.000Z</time>
            </trkpt>
            <trkpt lat="40.904683" lon="-8.536262">
                <ele>114.8</ele>
                <time>2020-11-30T16:19:14.000Z</time>
            </trkpt>
            <trkpt lat="40.90467" lon="-8.536231">
                <ele>114.9</ele>
                <time>2020-11-30T16:19:15.000Z</time>
            </trkpt>
            <trkpt lat="40.904657" lon="-8.536199">
                <ele>114.9</ele>
                <time>2020-11-30T16:19:16.000Z</time>
            </trkpt>
            <trkpt lat="40.904644" lon="-8.536165">
                <ele>114.9</ele>
                <time>2020-11-30T16:19:17.000Z</time>
            </trkpt>
            <trkpt lat="40.904632" lon="-8.536131">
                <ele>115.0</ele>
                <time>2020-11-30T16:19:18.000Z</time>
            </trkpt>
            <trkpt lat="40.90462" lon="-8.536096">
                <ele>115.0</ele>
                <time>2020-11-30T16:19:19.000Z</time>
            </trkpt>
            <trkpt lat="40.904609" lon="-8.536062">
                <ele>115.0</ele>
                <time>2020-11-30T16:19:20.000Z</time>
            </trkpt>
            <trkpt lat="40.904597" lon="-8.536027">
                <ele>115.1</ele>
                <time>2020-11-30T16:19:21.000Z</time>
            </trkpt>
            <trkpt lat="40.904586" lon="-8.535994">
                <ele>115.1</ele>
                <time>2020-11-30T16:19:22.000Z</time>
            </trkpt>
            <trkpt lat="40.904575" lon="-8.535962">
                <ele>115.1</ele>
                <time>2020-11-30T16:19:23.000Z</time>
            </trkpt>
            <trkpt lat="40.904565" lon="-8.535931">
                <ele>115.1</ele>
                <time>2020-11-30T16:19:24.000Z</time>
            </trkpt>
            <trkpt lat="40.904555" lon="-8.535902">
                <ele>115.2</ele>
                <time>2020-11-30T16:19:25.000Z</time>
            </trkpt>
            <trkpt lat="40.904545" lon="-8.535874">
                <ele>115.2</ele>
                <time>2020-11-30T16:19:26.000Z</time>
            </trkpt>
            <trkpt lat="40.904535" lon="-8.535847">
                <ele>115.2</ele>
                <time>2020-11-30T16:19:27.000Z</time>
            </trkpt>
            <trkpt lat="40.904526" lon="-8.53582">
                <ele>115.3</ele>
                <time>2020-11-30T16:19:28.000Z</time>
            </trkpt>
            <trkpt lat="40.904516" lon="-8.535794">
                <ele>115.5</ele>
                <time>2020-11-30T16:19:29.000Z</time>
            </trkpt>
            <trkpt lat="40.904507" lon="-8.535768">
                <ele>115.7</ele>
                <time>2020-11-30T16:19:30.000Z</time>
            </trkpt>
            <trkpt lat="40.904498" lon="-8.535741">
                <ele>115.9</ele>
                <time>2020-11-30T16:19:31.000Z</time>
            </trkpt>
            <trkpt lat="40.904489" lon="-8.535713">
                <ele>116.1</ele>
                <time>2020-11-30T16:19:32.000Z</time>
            </trkpt>
            <trkpt lat="40.90448" lon="-8.535685">
                <ele>116.3</ele>
                <time>2020-11-30T16:19:33.000Z</time>
            </trkpt>
            <trkpt lat="40.904471" lon="-8.535656">
                <ele>116.5</ele>
                <time>2020-11-30T16:19:34.000Z</time>
            </trkpt>
            <trkpt lat="40.904462" lon="-8.535627">
                <ele>116.7</ele>
                <time>2020-11-30T16:19:35.000Z</time>
            </trkpt>
            <trkpt lat="40.904454" lon="-8.535597">
                <ele>116.9</ele>
                <time>2020-11-30T16:19:36.000Z</time>
            </trkpt>
            <trkpt lat="40.904445" lon="-8.535569">
                <ele>117.1</ele>
                <time>2020-11-30T16:19:37.000Z</time>
            </trkpt>
            <trkpt lat="40.904437" lon="-8.535543">
                <ele>117.4</ele>
                <time>2020-11-30T16:19:38.000Z</time>
            </trkpt>
            <trkpt lat="40.90443" lon="-8.53552">
                <ele>117.5</ele>
                <time>2020-11-30T16:19:39.000Z</time>
            </trkpt>
            <trkpt lat="40.904423" lon="-8.5355">
                <ele>117.7</ele>
                <time>2020-11-30T16:19:40.000Z</time>
            </trkpt>
            <trkpt lat="40.904417" lon="-8.535482">
                <ele>117.9</ele>
                <time>2020-11-30T16:19:41.000Z</time>
            </trkpt>
            <trkpt lat="40.904412" lon="-8.535465">
                <ele>118.0</ele>
                <time>2020-11-30T16:19:42.000Z</time>
            </trkpt>
            <trkpt lat="40.904408" lon="-8.535449">
                <ele>118.1</ele>
                <time>2020-11-30T16:19:43.000Z</time>
            </trkpt>
            <trkpt lat="40.904406" lon="-8.535431">
                <ele>118.3</ele>
                <time>2020-11-30T16:19:44.000Z</time>
            </trkpt>
            <trkpt lat="40.904406" lon="-8.535412">
                <ele>118.4</ele>
                <time>2020-11-30T16:19:45.000Z</time>
            </trkpt>
            <trkpt lat="40.904406" lon="-8.535391">
                <ele>118.5</ele>
                <time>2020-11-30T16:19:46.000Z</time>
            </trkpt>
            <trkpt lat="40.904407" lon="-8.535369">
                <ele>118.6</ele>
                <time>2020-11-30T16:19:47.000Z</time>
            </trkpt>
            <trkpt lat="40.904407" lon="-8.535348">
                <ele>118.7</ele>
                <time>2020-11-30T16:19:48.000Z</time>
            </trkpt>
            <trkpt lat="40.904406" lon="-8.535326">
                <ele>118.9</ele>
                <time>2020-11-30T16:19:49.000Z</time>
            </trkpt>
            <trkpt lat="40.904403" lon="-8.535306">
                <ele>119.0</ele>
                <time>2020-11-30T16:19:50.000Z</time>
            </trkpt>
            <trkpt lat="40.904399" lon="-8.535287">
                <ele>119.2</ele>
                <time>2020-11-30T16:19:51.000Z</time>
            </trkpt>
            <trkpt lat="40.904393" lon="-8.535269">
                <ele>119.4</ele>
                <time>2020-11-30T16:19:52.000Z</time>
            </trkpt>
            <trkpt lat="40.904387" lon="-8.535251">
                <ele>119.5</ele>
                <time>2020-11-30T16:19:53.000Z</time>
            </trkpt>
            <trkpt lat="40.904379" lon="-8.535235">
                <ele>119.7</ele>
                <time>2020-11-30T16:19:54.000Z</time>
            </trkpt>
            <trkpt lat="40.904371" lon="-8.535219">
                <ele>119.9</ele>
                <time>2020-11-30T16:19:55.000Z</time>
            </trkpt>
            <trkpt lat="40.904364" lon="-8.535204">
                <ele>120.1</ele>
                <time>2020-11-30T16:19:56.000Z</time>
            </trkpt>
            <trkpt lat="40.904356" lon="-8.53519">
                <ele>120.3</ele>
                <time>2020-11-30T16:19:57.000Z</time>
            </trkpt>
            <trkpt lat="40.904348" lon="-8.535177">
                <ele>120.4</ele>
                <time>2020-11-30T16:19:58.000Z</time>
            </trkpt>
            <trkpt lat="40.90434" lon="-8.535166">
                <ele>120.6</ele>
                <time>2020-11-30T16:19:59.000Z</time>
            </trkpt>
            <trkpt lat="40.904334" lon="-8.535155">
                <ele>120.8</ele>
                <time>2020-11-30T16:20:00.000Z</time>
            </trkpt>
            <trkpt lat="40.904327" lon="-8.535146">
                <ele>120.9</ele>
                <time>2020-11-30T16:20:01.000Z</time>
            </trkpt>
            <trkpt lat="40.904322" lon="-8.535138">
                <ele>121.0</ele>
                <time>2020-11-30T16:20:02.000Z</time>
            </trkpt>
            <trkpt lat="40.904317" lon="-8.535132">
                <ele>121.1</ele>
                <time>2020-11-30T16:20:03.000Z</time>
            </trkpt>
            <trkpt lat="40.904314" lon="-8.535128">
                <ele>121.2</ele>
                <time>2020-11-30T16:20:04.000Z</time>
            </trkpt>
            <trkpt lat="40.904312" lon="-8.535125">
                <ele>121.2</ele>
                <time>2020-11-30T16:20:05.000Z</time>
            </trkpt>
            <trkpt lat="40.904311" lon="-8.535124">
                <ele>121.2</ele>
                <time>2020-11-30T16:20:06.000Z</time>
            </trkpt>
            <trkpt lat="40.904311" lon="-8.535123">
                <ele>121.2</ele>
                <time>2020-11-30T16:20:07.000Z</time>
            </trkpt>
            <trkpt lat="40.904312" lon="-8.535123">
                <ele>121.2</ele>
                <time>2020-11-30T16:20:08.000Z</time>
            </trkpt>
            <trkpt lat="40.904313" lon="-8.535123">
                <ele>121.2</ele>
                <time>2020-11-30T16:20:09.000Z</time>
            </trkpt>
            <trkpt lat="40.904314" lon="-8.535123">
                <ele>121.2</ele>
                <time>2020-11-30T16:20:10.000Z</time>
            </trkpt>
            <trkpt lat="40.904315" lon="-8.535122">
                <ele>121.2</ele>
                <time>2020-11-30T16:20:11.000Z</time>
            </trkpt>
            <trkpt lat="40.904316" lon="-8.53512">
                <ele>121.2</ele>
                <time>2020-11-30T16:20:12.000Z</time>
            </trkpt>
            <trkpt lat="40.904317" lon="-8.535116">
                <ele>121.2</ele>
                <time>2020-11-30T16:20:13.000Z</time>
            </trkpt>
            <trkpt lat="40.904316" lon="-8.53511">
                <ele>121.3</ele>
                <time>2020-11-30T16:20:14.000Z</time>
            </trkpt>
            <trkpt lat="40.904315" lon="-8.535102">
                <ele>121.3</ele>
                <time>2020-11-30T16:20:15.000Z</time>
            </trkpt>
            <trkpt lat="40.904313" lon="-8.535091">
                <ele>121.4</ele>
                <time>2020-11-30T16:20:16.000Z</time>
            </trkpt>
            <trkpt lat="40.90431" lon="-8.535077">
                <ele>121.6</ele>
                <time>2020-11-30T16:20:17.000Z</time>
            </trkpt>
            <trkpt lat="40.904307" lon="-8.535059">
                <ele>121.7</ele>
                <time>2020-11-30T16:20:18.000Z</time>
            </trkpt>
            <trkpt lat="40.904302" lon="-8.535036">
                <ele>122.0</ele>
                <time>2020-11-30T16:20:19.000Z</time>
            </trkpt>
            <trkpt lat="40.904297" lon="-8.535009">
                <ele>122.2</ele>
                <time>2020-11-30T16:20:20.000Z</time>
            </trkpt>
            <trkpt lat="40.904291" lon="-8.534977">
                <ele>122.3</ele>
                <time>2020-11-30T16:20:21.000Z</time>
            </trkpt>
            <trkpt lat="40.904285" lon="-8.534946">
                <ele>122.2</ele>
                <time>2020-11-30T16:20:22.000Z</time>
            </trkpt>
            <trkpt lat="40.90428" lon="-8.534921">
                <ele>122.2</ele>
                <time>2020-11-30T16:20:23.000Z</time>
            </trkpt>
            <trkpt lat="40.904275" lon="-8.534906">
                <ele>122.2</ele>
                <time>2020-11-30T16:20:24.000Z</time>
            </trkpt>
            <trkpt lat="40.904272" lon="-8.534896">
                <ele>122.2</ele>
                <time>2020-11-30T16:20:25.000Z</time>
            </trkpt>
            <trkpt lat="40.904268" lon="-8.534887">
                <ele>122.2</ele>
                <time>2020-11-30T16:20:26.000Z</time>
            </trkpt>
            <trkpt lat="40.904265" lon="-8.534878">
                <ele>122.2</ele>
                <time>2020-11-30T16:20:27.000Z</time>
            </trkpt>
            <trkpt lat="40.904261" lon="-8.534868">
                <ele>122.2</ele>
                <time>2020-11-30T16:20:28.000Z</time>
            </trkpt>
            <trkpt lat="40.904258" lon="-8.534857">
                <ele>122.2</ele>
                <time>2020-11-30T16:20:29.000Z</time>
            </trkpt>
            <trkpt lat="40.904254" lon="-8.534845">
                <ele>122.2</ele>
                <time>2020-11-30T16:20:30.000Z</time>
            </trkpt>
            <trkpt lat="40.904249" lon="-8.534832">
                <ele>122.2</ele>
                <time>2020-11-30T16:20:31.000Z</time>
            </trkpt>
            <trkpt lat="40.904245" lon="-8.534818">
                <ele>122.2</ele>
                <time>2020-11-30T16:20:32.000Z</time>
            </trkpt>
            <trkpt lat="40.904239" lon="-8.534802">
                <ele>122.2</ele>
                <time>2020-11-30T16:20:33.000Z</time>
            </trkpt>
            <trkpt lat="40.904233" lon="-8.534785">
                <ele>122.2</ele>
                <time>2020-11-30T16:20:34.000Z</time>
            </trkpt>
            <trkpt lat="40.904225" lon="-8.534766">
                <ele>122.2</ele>
                <time>2020-11-30T16:20:35.000Z</time>
            </trkpt>
            <trkpt lat="40.904217" lon="-8.534745">
                <ele>122.2</ele>
                <time>2020-11-30T16:20:36.000Z</time>
            </trkpt>
            <trkpt lat="40.904208" lon="-8.534723">
                <ele>122.2</ele>
                <time>2020-11-30T16:20:37.000Z</time>
            </trkpt>
            <trkpt lat="40.904198" lon="-8.5347">
                <ele>122.2</ele>
                <time>2020-11-30T16:20:38.000Z</time>
            </trkpt>
            <trkpt lat="40.904187" lon="-8.534676">
                <ele>122.2</ele>
                <time>2020-11-30T16:20:39.000Z</time>
            </trkpt>
            <trkpt lat="40.904176" lon="-8.534651">
                <ele>122.2</ele>
                <time>2020-11-30T16:20:40.000Z</time>
            </trkpt>
            <trkpt lat="40.904166" lon="-8.534627">
                <ele>122.2</ele>
                <time>2020-11-30T16:20:41.000Z</time>
            </trkpt>
            <trkpt lat="40.904155" lon="-8.534604">
                <ele>122.3</ele>
                <time>2020-11-30T16:20:42.000Z</time>
            </trkpt>
            <trkpt lat="40.904145" lon="-8.534581">
                <ele>122.4</ele>
                <time>2020-11-30T16:20:43.000Z</time>
            </trkpt>
            <trkpt lat="40.904135" lon="-8.534559">
                <ele>122.5</ele>
                <time>2020-11-30T16:20:44.000Z</time>
            </trkpt>
            <trkpt lat="40.904126" lon="-8.534539">
                <ele>122.6</ele>
                <time>2020-11-30T16:20:45.000Z</time>
            </trkpt>
            <trkpt lat="40.904117" lon="-8.534522">
                <ele>122.7</ele>
                <time>2020-11-30T16:20:46.000Z</time>
            </trkpt>
            <trkpt lat="40.90411" lon="-8.534506">
                <ele>122.8</ele>
                <time>2020-11-30T16:20:47.000Z</time>
            </trkpt>
            <trkpt lat="40.904104" lon="-8.534493">
                <ele>122.8</ele>
                <time>2020-11-30T16:20:48.000Z</time>
            </trkpt>
            <trkpt lat="40.904098" lon="-8.534482">
                <ele>122.9</ele>
                <time>2020-11-30T16:20:49.000Z</time>
            </trkpt>
            <trkpt lat="40.904092" lon="-8.534473">
                <ele>123.0</ele>
                <time>2020-11-30T16:20:50.000Z</time>
            </trkpt>
            <trkpt lat="40.904087" lon="-8.534467">
                <ele>123.0</ele>
                <time>2020-11-30T16:20:51.000Z</time>
            </trkpt>
            <trkpt lat="40.904083" lon="-8.534461">
                <ele>123.1</ele>
                <time>2020-11-30T16:20:52.000Z</time>
            </trkpt>
            <trkpt lat="40.904079" lon="-8.534454">
                <ele>123.1</ele>
                <time>2020-11-30T16:20:53.000Z</time>
            </trkpt>
            <trkpt lat="40.904076" lon="-8.534445">
                <ele>123.1</ele>
                <time>2020-11-30T16:20:54.000Z</time>
            </trkpt>
            <trkpt lat="40.904073" lon="-8.534432">
                <ele>123.1</ele>
                <time>2020-11-30T16:20:55.000Z</time>
            </trkpt>
            <trkpt lat="40.904071" lon="-8.534413">
                <ele>123.1</ele>
                <time>2020-11-30T16:20:56.000Z</time>
            </trkpt>
            <trkpt lat="40.904069" lon="-8.53439">
                <ele>123.0</ele>
                <time>2020-11-30T16:20:57.000Z</time>
            </trkpt>
            <trkpt lat="40.904068" lon="-8.534363">
                <ele>122.9</ele>
                <time>2020-11-30T16:20:58.000Z</time>
            </trkpt>
            <trkpt lat="40.904065" lon="-8.534334">
                <ele>122.9</ele>
                <time>2020-11-30T16:20:59.000Z</time>
            </trkpt>
            <trkpt lat="40.904062" lon="-8.534305">
                <ele>122.8</ele>
                <time>2020-11-30T16:21:00.000Z</time>
            </trkpt>
            <trkpt lat="40.904057" lon="-8.534275">
                <ele>122.7</ele>
                <time>2020-11-30T16:21:01.000Z</time>
            </trkpt>
            <trkpt lat="40.90405" lon="-8.534248">
                <ele>122.8</ele>
                <time>2020-11-30T16:21:02.000Z</time>
            </trkpt>
            <trkpt lat="40.904042" lon="-8.534223">
                <ele>122.8</ele>
                <time>2020-11-30T16:21:03.000Z</time>
            </trkpt>
            <trkpt lat="40.904032" lon="-8.534201">
                <ele>122.9</ele>
                <time>2020-11-30T16:21:04.000Z</time>
            </trkpt>
            <trkpt lat="40.904021" lon="-8.534183">
                <ele>123.0</ele>
                <time>2020-11-30T16:21:05.000Z</time>
            </trkpt>
            <trkpt lat="40.904009" lon="-8.534169">
                <ele>123.2</ele>
                <time>2020-11-30T16:21:06.000Z</time>
            </trkpt>
            <trkpt lat="40.903996" lon="-8.534161">
                <ele>123.5</ele>
                <time>2020-11-30T16:21:07.000Z</time>
            </trkpt>
            <trkpt lat="40.903982" lon="-8.534157">
                <ele>123.8</ele>
                <time>2020-11-30T16:21:08.000Z</time>
            </trkpt>
            <trkpt lat="40.903966" lon="-8.534157">
                <ele>124.1</ele>
                <time>2020-11-30T16:21:09.000Z</time>
            </trkpt>
            <trkpt lat="40.903949" lon="-8.534157">
                <ele>124.5</ele>
                <time>2020-11-30T16:21:10.000Z</time>
            </trkpt>
            <trkpt lat="40.903931" lon="-8.534158">
                <ele>124.9</ele>
                <time>2020-11-30T16:21:11.000Z</time>
            </trkpt>
            <trkpt lat="40.903912" lon="-8.534159">
                <ele>125.2</ele>
                <time>2020-11-30T16:21:12.000Z</time>
            </trkpt>
            <trkpt lat="40.903892" lon="-8.534158">
                <ele>125.6</ele>
                <time>2020-11-30T16:21:13.000Z</time>
            </trkpt>
            <trkpt lat="40.903872" lon="-8.534155">
                <ele>126.1</ele>
                <time>2020-11-30T16:21:14.000Z</time>
            </trkpt>
            <trkpt lat="40.903853" lon="-8.534151">
                <ele>126.5</ele>
                <time>2020-11-30T16:21:15.000Z</time>
            </trkpt>
            <trkpt lat="40.903835" lon="-8.534146">
                <ele>126.9</ele>
                <time>2020-11-30T16:21:16.000Z</time>
            </trkpt>
            <trkpt lat="40.90382" lon="-8.534138">
                <ele>127.2</ele>
                <time>2020-11-30T16:21:17.000Z</time>
            </trkpt>
            <trkpt lat="40.903807" lon="-8.534129">
                <ele>127.5</ele>
                <time>2020-11-30T16:21:18.000Z</time>
            </trkpt>
            <trkpt lat="40.903796" lon="-8.534118">
                <ele>127.8</ele>
                <time>2020-11-30T16:21:19.000Z</time>
            </trkpt>
            <trkpt lat="40.903787" lon="-8.534105">
                <ele>128.0</ele>
                <time>2020-11-30T16:21:20.000Z</time>
            </trkpt>
            <trkpt lat="40.90378" lon="-8.53409">
                <ele>128.2</ele>
                <time>2020-11-30T16:21:21.000Z</time>
            </trkpt>
            <trkpt lat="40.903775" lon="-8.534073">
                <ele>128.4</ele>
                <time>2020-11-30T16:21:22.000Z</time>
            </trkpt>
            <trkpt lat="40.903772" lon="-8.534055">
                <ele>128.5</ele>
                <time>2020-11-30T16:21:23.000Z</time>
            </trkpt>
            <trkpt lat="40.903771" lon="-8.534036">
                <ele>128.6</ele>
                <time>2020-11-30T16:21:24.000Z</time>
            </trkpt>
            <trkpt lat="40.903772" lon="-8.534014">
                <ele>128.7</ele>
                <time>2020-11-30T16:21:25.000Z</time>
            </trkpt>
            <trkpt lat="40.903775" lon="-8.533992">
                <ele>128.8</ele>
                <time>2020-11-30T16:21:26.000Z</time>
            </trkpt>
            <trkpt lat="40.90378" lon="-8.533968">
                <ele>128.8</ele>
                <time>2020-11-30T16:21:27.000Z</time>
            </trkpt>
            <trkpt lat="40.903786" lon="-8.533942">
                <ele>128.8</ele>
                <time>2020-11-30T16:21:28.000Z</time>
            </trkpt>
            <trkpt lat="40.903794" lon="-8.533916">
                <ele>128.7</ele>
                <time>2020-11-30T16:21:29.000Z</time>
            </trkpt>
            <trkpt lat="40.903801" lon="-8.533889">
                <ele>128.7</ele>
                <time>2020-11-30T16:21:30.000Z</time>
            </trkpt>
            <trkpt lat="40.903808" lon="-8.533861">
                <ele>128.7</ele>
                <time>2020-11-30T16:21:31.000Z</time>
            </trkpt>
            <trkpt lat="40.903813" lon="-8.533833">
                <ele>128.8</ele>
                <time>2020-11-30T16:21:32.000Z</time>
            </trkpt>
            <trkpt lat="40.903816" lon="-8.533806">
                <ele>128.8</ele>
                <time>2020-11-30T16:21:33.000Z</time>
            </trkpt>
            <trkpt lat="40.903817" lon="-8.533778">
                <ele>129.0</ele>
                <time>2020-11-30T16:21:34.000Z</time>
            </trkpt>
            <trkpt lat="40.903817" lon="-8.533751">
                <ele>129.1</ele>
                <time>2020-11-30T16:21:35.000Z</time>
            </trkpt>
            <trkpt lat="40.903816" lon="-8.533723">
                <ele>129.2</ele>
                <time>2020-11-30T16:21:36.000Z</time>
            </trkpt>
            <trkpt lat="40.903815" lon="-8.533696">
                <ele>129.4</ele>
                <time>2020-11-30T16:21:37.000Z</time>
            </trkpt>
            <trkpt lat="40.903814" lon="-8.533668">
                <ele>129.5</ele>
                <time>2020-11-30T16:21:38.000Z</time>
            </trkpt>
            <trkpt lat="40.903813" lon="-8.53364">
                <ele>129.7</ele>
                <time>2020-11-30T16:21:39.000Z</time>
            </trkpt>
            <trkpt lat="40.903814" lon="-8.533613">
                <ele>129.8</ele>
                <time>2020-11-30T16:21:40.000Z</time>
            </trkpt>
            <trkpt lat="40.903815" lon="-8.533588">
                <ele>129.9</ele>
                <time>2020-11-30T16:21:41.000Z</time>
            </trkpt>
            <trkpt lat="40.903818" lon="-8.533565">
                <ele>129.9</ele>
                <time>2020-11-30T16:21:42.000Z</time>
            </trkpt>
            <trkpt lat="40.903823" lon="-8.533544">
                <ele>130.0</ele>
                <time>2020-11-30T16:21:43.000Z</time>
            </trkpt>
            <trkpt lat="40.903829" lon="-8.533526">
                <ele>129.9</ele>
                <time>2020-11-30T16:21:44.000Z</time>
            </trkpt>
            <trkpt lat="40.903837" lon="-8.533511">
                <ele>129.9</ele>
                <time>2020-11-30T16:21:45.000Z</time>
            </trkpt>
            <trkpt lat="40.903848" lon="-8.533498">
                <ele>129.8</ele>
                <time>2020-11-30T16:21:46.000Z</time>
            </trkpt>
            <trkpt lat="40.90386" lon="-8.533487">
                <ele>129.6</ele>
                <time>2020-11-30T16:21:47.000Z</time>
            </trkpt>
            <trkpt lat="40.903875" lon="-8.533479">
                <ele>129.5</ele>
                <time>2020-11-30T16:21:48.000Z</time>
            </trkpt>
            <trkpt lat="40.903891" lon="-8.533473">
                <ele>129.2</ele>
                <time>2020-11-30T16:21:49.000Z</time>
            </trkpt>
            <trkpt lat="40.90391" lon="-8.533467">
                <ele>129.0</ele>
                <time>2020-11-30T16:21:50.000Z</time>
            </trkpt>
            <trkpt lat="40.903931" lon="-8.533464">
                <ele>128.7</ele>
                <time>2020-11-30T16:21:51.000Z</time>
            </trkpt>
            <trkpt lat="40.903953" lon="-8.53346">
                <ele>128.4</ele>
                <time>2020-11-30T16:21:52.000Z</time>
            </trkpt>
            <trkpt lat="40.903976" lon="-8.533458">
                <ele>128.0</ele>
                <time>2020-11-30T16:21:53.000Z</time>
            </trkpt>
            <trkpt lat="40.904" lon="-8.533456">
                <ele>127.7</ele>
                <time>2020-11-30T16:21:54.000Z</time>
            </trkpt>
            <trkpt lat="40.904025" lon="-8.533454">
                <ele>127.3</ele>
                <time>2020-11-30T16:21:55.000Z</time>
            </trkpt>
            <trkpt lat="40.90405" lon="-8.533452">
                <ele>126.9</ele>
                <time>2020-11-30T16:21:56.000Z</time>
            </trkpt>
            <trkpt lat="40.904075" lon="-8.533449">
                <ele>126.6</ele>
                <time>2020-11-30T16:21:57.000Z</time>
            </trkpt>
            <trkpt lat="40.9041" lon="-8.533446">
                <ele>126.2</ele>
                <time>2020-11-30T16:21:58.000Z</time>
            </trkpt>
            <trkpt lat="40.904125" lon="-8.533441">
                <ele>125.9</ele>
                <time>2020-11-30T16:21:59.000Z</time>
            </trkpt>
            <trkpt lat="40.904149" lon="-8.533436">
                <ele>125.5</ele>
                <time>2020-11-30T16:22:00.000Z</time>
            </trkpt>
            <trkpt lat="40.904173" lon="-8.53343">
                <ele>125.3</ele>
                <time>2020-11-30T16:22:01.000Z</time>
            </trkpt>
            <trkpt lat="40.904198" lon="-8.533424">
                <ele>125.2</ele>
                <time>2020-11-30T16:22:02.000Z</time>
            </trkpt>
            <trkpt lat="40.904223" lon="-8.533418">
                <ele>125.0</ele>
                <time>2020-11-30T16:22:03.000Z</time>
            </trkpt>
            <trkpt lat="40.904249" lon="-8.533413">
                <ele>124.9</ele>
                <time>2020-11-30T16:22:04.000Z</time>
            </trkpt>
            <trkpt lat="40.904276" lon="-8.533409">
                <ele>124.8</ele>
                <time>2020-11-30T16:22:05.000Z</time>
            </trkpt>
            <trkpt lat="40.904305" lon="-8.533408">
                <ele>124.6</ele>
                <time>2020-11-30T16:22:06.000Z</time>
            </trkpt>
            <trkpt lat="40.904335" lon="-8.533409">
                <ele>124.4</ele>
                <time>2020-11-30T16:22:07.000Z</time>
            </trkpt>
            <trkpt lat="40.904367" lon="-8.533414">
                <ele>124.2</ele>
                <time>2020-11-30T16:22:08.000Z</time>
            </trkpt>
            <trkpt lat="40.904401" lon="-8.533423">
                <ele>123.9</ele>
                <time>2020-11-30T16:22:09.000Z</time>
            </trkpt>
            <trkpt lat="40.904436" lon="-8.533435">
                <ele>123.6</ele>
                <time>2020-11-30T16:22:10.000Z</time>
            </trkpt>
            <trkpt lat="40.904471" lon="-8.533448">
                <ele>123.3</ele>
                <time>2020-11-30T16:22:11.000Z</time>
            </trkpt>
            <trkpt lat="40.904506" lon="-8.53346">
                <ele>123.0</ele>
                <time>2020-11-30T16:22:12.000Z</time>
            </trkpt>
            <trkpt lat="40.904538" lon="-8.533471">
                <ele>122.7</ele>
                <time>2020-11-30T16:22:13.000Z</time>
            </trkpt>
            <trkpt lat="40.904569" lon="-8.533478">
                <ele>122.5</ele>
                <time>2020-11-30T16:22:14.000Z</time>
            </trkpt>
            <trkpt lat="40.904597" lon="-8.533482">
                <ele>122.3</ele>
                <time>2020-11-30T16:22:15.000Z</time>
            </trkpt>
            <trkpt lat="40.904624" lon="-8.533484">
                <ele>122.1</ele>
                <time>2020-11-30T16:22:16.000Z</time>
            </trkpt>
            <trkpt lat="40.90465" lon="-8.533485">
                <ele>121.9</ele>
                <time>2020-11-30T16:22:17.000Z</time>
            </trkpt>
            <trkpt lat="40.904675" lon="-8.533485">
                <ele>121.7</ele>
                <time>2020-11-30T16:22:18.000Z</time>
            </trkpt>
            <trkpt lat="40.9047" lon="-8.533486">
                <ele>121.6</ele>
                <time>2020-11-30T16:22:19.000Z</time>
            </trkpt>
            <trkpt lat="40.904724" lon="-8.533487">
                <ele>121.4</ele>
                <time>2020-11-30T16:22:20.000Z</time>
            </trkpt>
            <trkpt lat="40.904748" lon="-8.533488">
                <ele>121.3</ele>
                <time>2020-11-30T16:22:21.000Z</time>
            </trkpt>
            <trkpt lat="40.904771" lon="-8.533489">
                <ele>121.1</ele>
                <time>2020-11-30T16:22:22.000Z</time>
            </trkpt>
            <trkpt lat="40.904793" lon="-8.533489">
                <ele>121.0</ele>
                <time>2020-11-30T16:22:23.000Z</time>
            </trkpt>
            <trkpt lat="40.904813" lon="-8.53349">
                <ele>120.8</ele>
                <time>2020-11-30T16:22:24.000Z</time>
            </trkpt>
            <trkpt lat="40.904831" lon="-8.53349">
                <ele>120.7</ele>
                <time>2020-11-30T16:22:25.000Z</time>
            </trkpt>
            <trkpt lat="40.904849" lon="-8.533489">
                <ele>120.6</ele>
                <time>2020-11-30T16:22:26.000Z</time>
            </trkpt>
            <trkpt lat="40.904866" lon="-8.533486">
                <ele>120.6</ele>
                <time>2020-11-30T16:22:27.000Z</time>
            </trkpt>
            <trkpt lat="40.904883" lon="-8.533481">
                <ele>120.5</ele>
                <time>2020-11-30T16:22:28.000Z</time>
            </trkpt>
            <trkpt lat="40.904903" lon="-8.533473">
                <ele>120.4</ele>
                <time>2020-11-30T16:22:29.000Z</time>
            </trkpt>
            <trkpt lat="40.904924" lon="-8.533461">
                <ele>120.4</ele>
                <time>2020-11-30T16:22:30.000Z</time>
            </trkpt>
            <trkpt lat="40.904948" lon="-8.533446">
                <ele>120.4</ele>
                <time>2020-11-30T16:22:31.000Z</time>
            </trkpt>
            <trkpt lat="40.904972" lon="-8.53343">
                <ele>120.4</ele>
                <time>2020-11-30T16:22:32.000Z</time>
            </trkpt>
            <trkpt lat="40.904997" lon="-8.533413">
                <ele>120.3</ele>
                <time>2020-11-30T16:22:33.000Z</time>
            </trkpt>
            <trkpt lat="40.905022" lon="-8.533396">
                <ele>120.6</ele>
                <time>2020-11-30T16:22:34.000Z</time>
            </trkpt>
            <trkpt lat="40.905046" lon="-8.533381">
                <ele>120.9</ele>
                <time>2020-11-30T16:22:35.000Z</time>
            </trkpt>
            <trkpt lat="40.905069" lon="-8.533366">
                <ele>121.1</ele>
                <time>2020-11-30T16:22:36.000Z</time>
            </trkpt>
            <trkpt lat="40.90509" lon="-8.533351">
                <ele>121.3</ele>
                <time>2020-11-30T16:22:37.000Z</time>
            </trkpt>
            <trkpt lat="40.90511" lon="-8.533337">
                <ele>121.5</ele>
                <time>2020-11-30T16:22:38.000Z</time>
            </trkpt>
            <trkpt lat="40.905129" lon="-8.533322">
                <ele>121.7</ele>
                <time>2020-11-30T16:22:39.000Z</time>
            </trkpt>
            <trkpt lat="40.905146" lon="-8.533306">
                <ele>121.9</ele>
                <time>2020-11-30T16:22:40.000Z</time>
            </trkpt>
            <trkpt lat="40.905161" lon="-8.533289">
                <ele>122.0</ele>
                <time>2020-11-30T16:22:41.000Z</time>
            </trkpt>
            <trkpt lat="40.905175" lon="-8.533272">
                <ele>122.2</ele>
                <time>2020-11-30T16:22:42.000Z</time>
            </trkpt>
            <trkpt lat="40.905189" lon="-8.533255">
                <ele>122.3</ele>
                <time>2020-11-30T16:22:43.000Z</time>
            </trkpt>
            <trkpt lat="40.905203" lon="-8.533238">
                <ele>122.5</ele>
                <time>2020-11-30T16:22:44.000Z</time>
            </trkpt>
            <trkpt lat="40.905217" lon="-8.533221">
                <ele>122.6</ele>
                <time>2020-11-30T16:22:45.000Z</time>
            </trkpt>
            <trkpt lat="40.905232" lon="-8.533205">
                <ele>122.7</ele>
                <time>2020-11-30T16:22:46.000Z</time>
            </trkpt>
            <trkpt lat="40.905248" lon="-8.53319">
                <ele>122.8</ele>
                <time>2020-11-30T16:22:47.000Z</time>
            </trkpt>
            <trkpt lat="40.905266" lon="-8.533176">
                <ele>122.9</ele>
                <time>2020-11-30T16:22:48.000Z</time>
            </trkpt>
            <trkpt lat="40.905287" lon="-8.533164">
                <ele>123.0</ele>
                <time>2020-11-30T16:22:49.000Z</time>
            </trkpt>
            <trkpt lat="40.905309" lon="-8.533154">
                <ele>123.1</ele>
                <time>2020-11-30T16:22:50.000Z</time>
            </trkpt>
            <trkpt lat="40.905333" lon="-8.533146">
                <ele>123.2</ele>
                <time>2020-11-30T16:22:51.000Z</time>
            </trkpt>
            <trkpt lat="40.905357" lon="-8.53314">
                <ele>123.2</ele>
                <time>2020-11-30T16:22:52.000Z</time>
            </trkpt>
            <trkpt lat="40.905378" lon="-8.533137">
                <ele>123.3</ele>
                <time>2020-11-30T16:22:53.000Z</time>
            </trkpt>
            <trkpt lat="40.905395" lon="-8.533138">
                <ele>123.3</ele>
                <time>2020-11-30T16:22:54.000Z</time>
            </trkpt>
            <trkpt lat="40.905408" lon="-8.533142">
                <ele>123.3</ele>
                <time>2020-11-30T16:22:55.000Z</time>
            </trkpt>
            <trkpt lat="40.905417" lon="-8.533148">
                <ele>123.3</ele>
                <time>2020-11-30T16:22:56.000Z</time>
            </trkpt>
            <trkpt lat="40.905422" lon="-8.533155">
                <ele>123.3</ele>
                <time>2020-11-30T16:22:57.000Z</time>
            </trkpt>
            <trkpt lat="40.905426" lon="-8.533162">
                <ele>123.3</ele>
                <time>2020-11-30T16:22:58.000Z</time>
            </trkpt>
            <trkpt lat="40.905428" lon="-8.533166">
                <ele>123.3</ele>
                <time>2020-11-30T16:22:59.000Z</time>
            </trkpt>
            <trkpt lat="40.905429" lon="-8.533168">
                <ele>123.3</ele>
                <time>2020-11-30T16:23:00.000Z</time>
            </trkpt>
            <trkpt lat="40.905429" lon="-8.533169">
                <ele>123.3</ele>
                <time>2020-11-30T16:23:01.000Z</time>
            </trkpt>
            <trkpt lat="40.905431" lon="-8.533173">
                <ele>123.3</ele>
                <time>2020-11-30T16:23:02.000Z</time>
            </trkpt>
        </trkseg>
        <trkseg>
            <trkpt lat="40.905435" lon="-8.533182">
                <ele>123.3</ele>
                <time>2020-11-30T16:24:05.000Z</time>
            </trkpt>
            <trkpt lat="40.905441" lon="-8.533196">
                <ele>123.3</ele>
                <time>2020-11-30T16:24:06.000Z</time>
            </trkpt>
            <trkpt lat="40.905449" lon="-8.533212">
                <ele>123.3</ele>
                <time>2020-11-30T16:24:07.000Z</time>
            </trkpt>
            <trkpt lat="40.905459" lon="-8.533231">
                <ele>123.3</ele>
                <time>2020-11-30T16:24:08.000Z</time>
            </trkpt>
            <trkpt lat="40.905469" lon="-8.533252">
                <ele>123.3</ele>
                <time>2020-11-30T16:24:09.000Z</time>
            </trkpt>
            <trkpt lat="40.905481" lon="-8.533274">
                <ele>123.4</ele>
                <time>2020-11-30T16:24:10.000Z</time>
            </trkpt>
            <trkpt lat="40.905493" lon="-8.533297">
                <ele>123.4</ele>
                <time>2020-11-30T16:24:11.000Z</time>
            </trkpt>
            <trkpt lat="40.905505" lon="-8.533322">
                <ele>123.4</ele>
                <time>2020-11-30T16:24:12.000Z</time>
            </trkpt>
            <trkpt lat="40.905518" lon="-8.533347">
                <ele>123.5</ele>
                <time>2020-11-30T16:24:13.000Z</time>
            </trkpt>
            <trkpt lat="40.90553" lon="-8.533373">
                <ele>123.5</ele>
                <time>2020-11-30T16:24:14.000Z</time>
            </trkpt>
            <trkpt lat="40.905542" lon="-8.533399">
                <ele>123.6</ele>
                <time>2020-11-30T16:24:15.000Z</time>
            </trkpt>
            <trkpt lat="40.905554" lon="-8.533426">
                <ele>123.6</ele>
                <time>2020-11-30T16:24:16.000Z</time>
            </trkpt>
            <trkpt lat="40.905566" lon="-8.533453">
                <ele>123.7</ele>
                <time>2020-11-30T16:24:17.000Z</time>
            </trkpt>
            <trkpt lat="40.905578" lon="-8.533481">
                <ele>123.8</ele>
                <time>2020-11-30T16:24:18.000Z</time>
            </trkpt>
            <trkpt lat="40.905588" lon="-8.533509">
                <ele>123.8</ele>
                <time>2020-11-30T16:24:19.000Z</time>
            </trkpt>
            <trkpt lat="40.905598" lon="-8.533538">
                <ele>123.9</ele>
                <time>2020-11-30T16:24:20.000Z</time>
            </trkpt>
            <trkpt lat="40.905608" lon="-8.533566">
                <ele>124.0</ele>
                <time>2020-11-30T16:24:21.000Z</time>
            </trkpt>
            <trkpt lat="40.905616" lon="-8.533595">
                <ele>124.1</ele>
                <time>2020-11-30T16:24:22.000Z</time>
            </trkpt>
            <trkpt lat="40.905623" lon="-8.533624">
                <ele>124.2</ele>
                <time>2020-11-30T16:24:23.000Z</time>
            </trkpt>
            <trkpt lat="40.90563" lon="-8.533653">
                <ele>124.2</ele>
                <time>2020-11-30T16:24:24.000Z</time>
            </trkpt>
            <trkpt lat="40.905636" lon="-8.533682">
                <ele>124.3</ele>
                <time>2020-11-30T16:24:25.000Z</time>
            </trkpt>
            <trkpt lat="40.905641" lon="-8.533712">
                <ele>124.4</ele>
                <time>2020-11-30T16:24:26.000Z</time>
            </trkpt>
            <trkpt lat="40.905647" lon="-8.533743">
                <ele>124.5</ele>
                <time>2020-11-30T16:24:27.000Z</time>
            </trkpt>
            <trkpt lat="40.905652" lon="-8.533774">
                <ele>124.6</ele>
                <time>2020-11-30T16:24:28.000Z</time>
            </trkpt>
            <trkpt lat="40.905657" lon="-8.533806">
                <ele>124.7</ele>
                <time>2020-11-30T16:24:29.000Z</time>
            </trkpt>
            <trkpt lat="40.905663" lon="-8.533837">
                <ele>124.8</ele>
                <time>2020-11-30T16:24:30.000Z</time>
            </trkpt>
            <trkpt lat="40.905669" lon="-8.533868">
                <ele>124.9</ele>
                <time>2020-11-30T16:24:31.000Z</time>
            </trkpt>
            <trkpt lat="40.905675" lon="-8.533897">
                <ele>125.0</ele>
                <time>2020-11-30T16:24:32.000Z</time>
            </trkpt>
            <trkpt lat="40.905683" lon="-8.533925">
                <ele>125.1</ele>
                <time>2020-11-30T16:24:33.000Z</time>
            </trkpt>
            <trkpt lat="40.90569" lon="-8.533952">
                <ele>125.3</ele>
                <time>2020-11-30T16:24:34.000Z</time>
            </trkpt>
            <trkpt lat="40.905699" lon="-8.533977">
                <ele>125.4</ele>
                <time>2020-11-30T16:24:35.000Z</time>
            </trkpt>
            <trkpt lat="40.905707" lon="-8.534001">
                <ele>125.6</ele>
                <time>2020-11-30T16:24:36.000Z</time>
            </trkpt>
            <trkpt lat="40.905717" lon="-8.534024">
                <ele>125.8</ele>
                <time>2020-11-30T16:24:37.000Z</time>
            </trkpt>
            <trkpt lat="40.905726" lon="-8.534047">
                <ele>126.0</ele>
                <time>2020-11-30T16:24:38.000Z</time>
            </trkpt>
            <trkpt lat="40.905736" lon="-8.534068">
                <ele>126.1</ele>
                <time>2020-11-30T16:24:39.000Z</time>
            </trkpt>
            <trkpt lat="40.905745" lon="-8.534089">
                <ele>126.3</ele>
                <time>2020-11-30T16:24:40.000Z</time>
            </trkpt>
            <trkpt lat="40.905755" lon="-8.53411">
                <ele>126.5</ele>
                <time>2020-11-30T16:24:41.000Z</time>
            </trkpt>
            <trkpt lat="40.905765" lon="-8.53413">
                <ele>126.8</ele>
                <time>2020-11-30T16:24:42.000Z</time>
            </trkpt>
            <trkpt lat="40.905775" lon="-8.53415">
                <ele>127.0</ele>
                <time>2020-11-30T16:24:43.000Z</time>
            </trkpt>
            <trkpt lat="40.905785" lon="-8.534169">
                <ele>127.2</ele>
                <time>2020-11-30T16:24:44.000Z</time>
            </trkpt>
            <trkpt lat="40.905794" lon="-8.534189">
                <ele>127.3</ele>
                <time>2020-11-30T16:24:45.000Z</time>
            </trkpt>
            <trkpt lat="40.905804" lon="-8.534208">
                <ele>127.4</ele>
                <time>2020-11-30T16:24:46.000Z</time>
            </trkpt>
            <trkpt lat="40.905813" lon="-8.534227">
                <ele>127.4</ele>
                <time>2020-11-30T16:24:47.000Z</time>
            </trkpt>
            <trkpt lat="40.905823" lon="-8.534246">
                <ele>127.5</ele>
                <time>2020-11-30T16:24:48.000Z</time>
            </trkpt>
            <trkpt lat="40.905832" lon="-8.534265">
                <ele>127.6</ele>
                <time>2020-11-30T16:24:49.000Z</time>
            </trkpt>
            <trkpt lat="40.905842" lon="-8.534282">
                <ele>127.7</ele>
                <time>2020-11-30T16:24:50.000Z</time>
            </trkpt>
            <trkpt lat="40.905852" lon="-8.534299">
                <ele>127.8</ele>
                <time>2020-11-30T16:24:51.000Z</time>
            </trkpt>
            <trkpt lat="40.905862" lon="-8.534315">
                <ele>127.9</ele>
                <time>2020-11-30T16:24:52.000Z</time>
            </trkpt>
            <trkpt lat="40.905873" lon="-8.53433">
                <ele>128.1</ele>
                <time>2020-11-30T16:24:53.000Z</time>
            </trkpt>
            <trkpt lat="40.905886" lon="-8.534344">
                <ele>128.2</ele>
                <time>2020-11-30T16:24:54.000Z</time>
            </trkpt>
            <trkpt lat="40.905899" lon="-8.534356">
                <ele>128.4</ele>
                <time>2020-11-30T16:24:55.000Z</time>
            </trkpt>
            <trkpt lat="40.905912" lon="-8.534367">
                <ele>128.6</ele>
                <time>2020-11-30T16:24:56.000Z</time>
            </trkpt>
            <trkpt lat="40.905926" lon="-8.534378">
                <ele>128.8</ele>
                <time>2020-11-30T16:24:57.000Z</time>
            </trkpt>
            <trkpt lat="40.905941" lon="-8.534387">
                <ele>129.0</ele>
                <time>2020-11-30T16:24:58.000Z</time>
            </trkpt>
            <trkpt lat="40.905955" lon="-8.534396">
                <ele>129.2</ele>
                <time>2020-11-30T16:24:59.000Z</time>
            </trkpt>
            <trkpt lat="40.905969" lon="-8.534405">
                <ele>129.4</ele>
                <time>2020-11-30T16:25:00.000Z</time>
            </trkpt>
            <trkpt lat="40.905983" lon="-8.534414">
                <ele>129.6</ele>
                <time>2020-11-30T16:25:01.000Z</time>
            </trkpt>
            <trkpt lat="40.905996" lon="-8.534424">
                <ele>129.8</ele>
                <time>2020-11-30T16:25:02.000Z</time>
            </trkpt>
            <trkpt lat="40.906008" lon="-8.534433">
                <ele>130.0</ele>
                <time>2020-11-30T16:25:03.000Z</time>
            </trkpt>
            <trkpt lat="40.90602" lon="-8.534443">
                <ele>130.1</ele>
                <time>2020-11-30T16:25:04.000Z</time>
            </trkpt>
            <trkpt lat="40.906031" lon="-8.534454">
                <ele>130.3</ele>
                <time>2020-11-30T16:25:05.000Z</time>
            </trkpt>
            <trkpt lat="40.906042" lon="-8.534465">
                <ele>130.5</ele>
                <time>2020-11-30T16:25:06.000Z</time>
            </trkpt>
            <trkpt lat="40.906054" lon="-8.534476">
                <ele>130.6</ele>
                <time>2020-11-30T16:25:07.000Z</time>
            </trkpt>
            <trkpt lat="40.906067" lon="-8.534488">
                <ele>130.8</ele>
                <time>2020-11-30T16:25:08.000Z</time>
            </trkpt>
            <trkpt lat="40.906082" lon="-8.534501">
                <ele>131.0</ele>
                <time>2020-11-30T16:25:09.000Z</time>
            </trkpt>
            <trkpt lat="40.906098" lon="-8.534513">
                <ele>131.3</ele>
                <time>2020-11-30T16:25:10.000Z</time>
            </trkpt>
            <trkpt lat="40.906116" lon="-8.534526">
                <ele>131.6</ele>
                <time>2020-11-30T16:25:11.000Z</time>
            </trkpt>
            <trkpt lat="40.906135" lon="-8.534538">
                <ele>131.9</ele>
                <time>2020-11-30T16:25:12.000Z</time>
            </trkpt>
            <trkpt lat="40.906154" lon="-8.53455">
                <ele>132.2</ele>
                <time>2020-11-30T16:25:13.000Z</time>
            </trkpt>
            <trkpt lat="40.906175" lon="-8.534561">
                <ele>132.5</ele>
                <time>2020-11-30T16:25:14.000Z</time>
            </trkpt>
            <trkpt lat="40.906195" lon="-8.534571">
                <ele>132.8</ele>
                <time>2020-11-30T16:25:15.000Z</time>
            </trkpt>
            <trkpt lat="40.906216" lon="-8.53458">
                <ele>133.2</ele>
                <time>2020-11-30T16:25:16.000Z</time>
            </trkpt>
            <trkpt lat="40.906236" lon="-8.534589">
                <ele>133.5</ele>
                <time>2020-11-30T16:25:17.000Z</time>
            </trkpt>
            <trkpt lat="40.906257" lon="-8.534598">
                <ele>133.8</ele>
                <time>2020-11-30T16:25:18.000Z</time>
            </trkpt>
            <trkpt lat="40.906278" lon="-8.534607">
                <ele>134.2</ele>
                <time>2020-11-30T16:25:19.000Z</time>
            </trkpt>
            <trkpt lat="40.906298" lon="-8.534616">
                <ele>134.5</ele>
                <time>2020-11-30T16:25:20.000Z</time>
            </trkpt>
            <trkpt lat="40.906318" lon="-8.534626">
                <ele>134.9</ele>
                <time>2020-11-30T16:25:21.000Z</time>
            </trkpt>
            <trkpt lat="40.906338" lon="-8.534636">
                <ele>135.2</ele>
                <time>2020-11-30T16:25:22.000Z</time>
            </trkpt>
            <trkpt lat="40.906358" lon="-8.534646">
                <ele>135.5</ele>
                <time>2020-11-30T16:25:23.000Z</time>
            </trkpt>
            <trkpt lat="40.906376" lon="-8.534658">
                <ele>135.8</ele>
                <time>2020-11-30T16:25:24.000Z</time>
            </trkpt>
            <trkpt lat="40.906395" lon="-8.534669">
                <ele>136.2</ele>
                <time>2020-11-30T16:25:25.000Z</time>
            </trkpt>
            <trkpt lat="40.906413" lon="-8.534681">
                <ele>136.5</ele>
                <time>2020-11-30T16:25:26.000Z</time>
            </trkpt>
            <trkpt lat="40.906432" lon="-8.534693">
                <ele>136.8</ele>
                <time>2020-11-30T16:25:27.000Z</time>
            </trkpt>
            <trkpt lat="40.906451" lon="-8.534703">
                <ele>137.1</ele>
                <time>2020-11-30T16:25:28.000Z</time>
            </trkpt>
            <trkpt lat="40.906472" lon="-8.534713">
                <ele>137.5</ele>
                <time>2020-11-30T16:25:29.000Z</time>
            </trkpt>
            <trkpt lat="40.906494" lon="-8.53472">
                <ele>137.9</ele>
                <time>2020-11-30T16:25:30.000Z</time>
            </trkpt>
            <trkpt lat="40.906516" lon="-8.534726">
                <ele>138.3</ele>
                <time>2020-11-30T16:25:31.000Z</time>
            </trkpt>
            <trkpt lat="40.906539" lon="-8.534731">
                <ele>138.7</ele>
                <time>2020-11-30T16:25:32.000Z</time>
            </trkpt>
            <trkpt lat="40.906563" lon="-8.534733">
                <ele>139.1</ele>
                <time>2020-11-30T16:25:33.000Z</time>
            </trkpt>
            <trkpt lat="40.906585" lon="-8.534734">
                <ele>139.5</ele>
                <time>2020-11-30T16:25:34.000Z</time>
            </trkpt>
            <trkpt lat="40.906607" lon="-8.534732">
                <ele>139.9</ele>
                <time>2020-11-30T16:25:35.000Z</time>
            </trkpt>
            <trkpt lat="40.906629" lon="-8.534729">
                <ele>140.3</ele>
                <time>2020-11-30T16:25:36.000Z</time>
            </trkpt>
            <trkpt lat="40.906649" lon="-8.534724">
                <ele>140.7</ele>
                <time>2020-11-30T16:25:37.000Z</time>
            </trkpt>
            <trkpt lat="40.906669" lon="-8.534717">
                <ele>141.0</ele>
                <time>2020-11-30T16:25:38.000Z</time>
            </trkpt>
            <trkpt lat="40.906689" lon="-8.534709">
                <ele>141.0</ele>
                <time>2020-11-30T16:25:39.000Z</time>
            </trkpt>
            <trkpt lat="40.906709" lon="-8.534699">
                <ele>141.0</ele>
                <time>2020-11-30T16:25:40.000Z</time>
            </trkpt>
            <trkpt lat="40.906729" lon="-8.534688">
                <ele>140.9</ele>
                <time>2020-11-30T16:25:41.000Z</time>
            </trkpt>
            <trkpt lat="40.906749" lon="-8.534677">
                <ele>140.9</ele>
                <time>2020-11-30T16:25:42.000Z</time>
            </trkpt>
            <trkpt lat="40.906769" lon="-8.534664">
                <ele>140.9</ele>
                <time>2020-11-30T16:25:43.000Z</time>
            </trkpt>
            <trkpt lat="40.906789" lon="-8.53465">
                <ele>140.9</ele>
                <time>2020-11-30T16:25:44.000Z</time>
            </trkpt>
            <trkpt lat="40.90681" lon="-8.534635">
                <ele>140.8</ele>
                <time>2020-11-30T16:25:45.000Z</time>
            </trkpt>
            <trkpt lat="40.906831" lon="-8.53462">
                <ele>140.8</ele>
                <time>2020-11-30T16:25:46.000Z</time>
            </trkpt>
            <trkpt lat="40.906853" lon="-8.534604">
                <ele>140.8</ele>
                <time>2020-11-30T16:25:47.000Z</time>
            </trkpt>
            <trkpt lat="40.906874" lon="-8.534588">
                <ele>140.8</ele>
                <time>2020-11-30T16:25:48.000Z</time>
            </trkpt>
            <trkpt lat="40.906896" lon="-8.534572">
                <ele>140.7</ele>
                <time>2020-11-30T16:25:49.000Z</time>
            </trkpt>
            <trkpt lat="40.906917" lon="-8.534556">
                <ele>140.7</ele>
                <time>2020-11-30T16:25:50.000Z</time>
            </trkpt>
            <trkpt lat="40.906937" lon="-8.53454">
                <ele>140.6</ele>
                <time>2020-11-30T16:25:51.000Z</time>
            </trkpt>
            <trkpt lat="40.906957" lon="-8.534524">
                <ele>140.6</ele>
                <time>2020-11-30T16:25:52.000Z</time>
            </trkpt>
            <trkpt lat="40.906975" lon="-8.534509">
                <ele>140.6</ele>
                <time>2020-11-30T16:25:53.000Z</time>
            </trkpt>
            <trkpt lat="40.906993" lon="-8.534494">
                <ele>140.5</ele>
                <time>2020-11-30T16:25:54.000Z</time>
            </trkpt>
            <trkpt lat="40.907009" lon="-8.53448">
                <ele>140.5</ele>
                <time>2020-11-30T16:25:55.000Z</time>
            </trkpt>
            <trkpt lat="40.907024" lon="-8.534466">
                <ele>140.5</ele>
                <time>2020-11-30T16:25:56.000Z</time>
            </trkpt>
            <trkpt lat="40.907038" lon="-8.534452">
                <ele>140.4</ele>
                <time>2020-11-30T16:25:57.000Z</time>
            </trkpt>
            <trkpt lat="40.907052" lon="-8.534439">
                <ele>140.4</ele>
                <time>2020-11-30T16:25:58.000Z</time>
            </trkpt>
            <trkpt lat="40.907065" lon="-8.534426">
                <ele>140.3</ele>
                <time>2020-11-30T16:25:59.000Z</time>
            </trkpt>
            <trkpt lat="40.907078" lon="-8.534412">
                <ele>140.3</ele>
                <time>2020-11-30T16:26:00.000Z</time>
            </trkpt>
            <trkpt lat="40.907091" lon="-8.534398">
                <ele>140.3</ele>
                <time>2020-11-30T16:26:01.000Z</time>
            </trkpt>
            <trkpt lat="40.907104" lon="-8.534383">
                <ele>140.2</ele>
                <time>2020-11-30T16:26:02.000Z</time>
            </trkpt>
            <trkpt lat="40.907118" lon="-8.534368">
                <ele>140.2</ele>
                <time>2020-11-30T16:26:03.000Z</time>
            </trkpt>
            <trkpt lat="40.907132" lon="-8.534351">
                <ele>140.1</ele>
                <time>2020-11-30T16:26:04.000Z</time>
            </trkpt>
            <trkpt lat="40.907147" lon="-8.534333">
                <ele>140.1</ele>
                <time>2020-11-30T16:26:05.000Z</time>
            </trkpt>
            <trkpt lat="40.907163" lon="-8.534314">
                <ele>140.0</ele>
                <time>2020-11-30T16:26:06.000Z</time>
            </trkpt>
            <trkpt lat="40.907178" lon="-8.534294">
                <ele>140.0</ele>
                <time>2020-11-30T16:26:07.000Z</time>
            </trkpt>
            <trkpt lat="40.907194" lon="-8.534274">
                <ele>139.9</ele>
                <time>2020-11-30T16:26:08.000Z</time>
            </trkpt>
            <trkpt lat="40.907209" lon="-8.534254">
                <ele>139.8</ele>
                <time>2020-11-30T16:26:09.000Z</time>
            </trkpt>
            <trkpt lat="40.907223" lon="-8.534234">
                <ele>139.8</ele>
                <time>2020-11-30T16:26:10.000Z</time>
            </trkpt>
            <trkpt lat="40.907236" lon="-8.534215">
                <ele>139.7</ele>
                <time>2020-11-30T16:26:11.000Z</time>
            </trkpt>
            <trkpt lat="40.907249" lon="-8.534196">
                <ele>139.7</ele>
                <time>2020-11-30T16:26:12.000Z</time>
            </trkpt>
            <trkpt lat="40.907261" lon="-8.534178">
                <ele>139.6</ele>
                <time>2020-11-30T16:26:13.000Z</time>
            </trkpt>
            <trkpt lat="40.907275" lon="-8.53416">
                <ele>139.5</ele>
                <time>2020-11-30T16:26:14.000Z</time>
            </trkpt>
            <trkpt lat="40.907291" lon="-8.534142">
                <ele>139.5</ele>
                <time>2020-11-30T16:26:15.000Z</time>
            </trkpt>
            <trkpt lat="40.90731" lon="-8.534125">
                <ele>139.4</ele>
                <time>2020-11-30T16:26:16.000Z</time>
            </trkpt>
            <trkpt lat="40.907331" lon="-8.534109">
                <ele>139.4</ele>
                <time>2020-11-30T16:26:17.000Z</time>
            </trkpt>
            <trkpt lat="40.907352" lon="-8.534093">
                <ele>139.3</ele>
                <time>2020-11-30T16:26:18.000Z</time>
            </trkpt>
            <trkpt lat="40.907374" lon="-8.534077">
                <ele>139.3</ele>
                <time>2020-11-30T16:26:19.000Z</time>
            </trkpt>
            <trkpt lat="40.907396" lon="-8.534061">
                <ele>139.3</ele>
                <time>2020-11-30T16:26:20.000Z</time>
            </trkpt>
            <trkpt lat="40.907416" lon="-8.534046">
                <ele>139.3</ele>
                <time>2020-11-30T16:26:21.000Z</time>
            </trkpt>
            <trkpt lat="40.907435" lon="-8.534031">
                <ele>139.2</ele>
                <time>2020-11-30T16:26:22.000Z</time>
            </trkpt>
            <trkpt lat="40.907454" lon="-8.534017">
                <ele>139.2</ele>
                <time>2020-11-30T16:26:23.000Z</time>
            </trkpt>
            <trkpt lat="40.907473" lon="-8.534004">
                <ele>139.2</ele>
                <time>2020-11-30T16:26:24.000Z</time>
            </trkpt>
            <trkpt lat="40.907492" lon="-8.533991">
                <ele>139.2</ele>
                <time>2020-11-30T16:26:25.000Z</time>
            </trkpt>
            <trkpt lat="40.907512" lon="-8.53398">
                <ele>139.3</ele>
                <time>2020-11-30T16:26:26.000Z</time>
            </trkpt>
            <trkpt lat="40.907533" lon="-8.53397">
                <ele>139.4</ele>
                <time>2020-11-30T16:26:27.000Z</time>
            </trkpt>
            <trkpt lat="40.907554" lon="-8.533961">
                <ele>139.6</ele>
                <time>2020-11-30T16:26:28.000Z</time>
            </trkpt>
            <trkpt lat="40.907576" lon="-8.533953">
                <ele>139.7</ele>
                <time>2020-11-30T16:26:29.000Z</time>
            </trkpt>
            <trkpt lat="40.907599" lon="-8.533945">
                <ele>139.8</ele>
                <time>2020-11-30T16:26:30.000Z</time>
            </trkpt>
            <trkpt lat="40.907622" lon="-8.533937">
                <ele>140.0</ele>
                <time>2020-11-30T16:26:31.000Z</time>
            </trkpt>
            <trkpt lat="40.907645" lon="-8.533929">
                <ele>140.1</ele>
                <time>2020-11-30T16:26:32.000Z</time>
            </trkpt>
            <trkpt lat="40.907668" lon="-8.533922">
                <ele>140.3</ele>
                <time>2020-11-30T16:26:33.000Z</time>
            </trkpt>
            <trkpt lat="40.907691" lon="-8.533914">
                <ele>140.4</ele>
                <time>2020-11-30T16:26:34.000Z</time>
            </trkpt>
            <trkpt lat="40.907714" lon="-8.533905">
                <ele>140.6</ele>
                <time>2020-11-30T16:26:35.000Z</time>
            </trkpt>
            <trkpt lat="40.907737" lon="-8.533896">
                <ele>140.7</ele>
                <time>2020-11-30T16:26:36.000Z</time>
            </trkpt>
            <trkpt lat="40.90776" lon="-8.533886">
                <ele>140.9</ele>
                <time>2020-11-30T16:26:37.000Z</time>
            </trkpt>
            <trkpt lat="40.907782" lon="-8.533876">
                <ele>141.1</ele>
                <time>2020-11-30T16:26:38.000Z</time>
            </trkpt>
            <trkpt lat="40.907804" lon="-8.533865">
                <ele>141.2</ele>
                <time>2020-11-30T16:26:39.000Z</time>
            </trkpt>
            <trkpt lat="40.907826" lon="-8.533854">
                <ele>141.4</ele>
                <time>2020-11-30T16:26:40.000Z</time>
            </trkpt>
            <trkpt lat="40.907848" lon="-8.533842">
                <ele>141.5</ele>
                <time>2020-11-30T16:26:41.000Z</time>
            </trkpt>
            <trkpt lat="40.90787" lon="-8.533829">
                <ele>141.7</ele>
                <time>2020-11-30T16:26:42.000Z</time>
            </trkpt>
            <trkpt lat="40.907891" lon="-8.533817">
                <ele>141.9</ele>
                <time>2020-11-30T16:26:43.000Z</time>
            </trkpt>
            <trkpt lat="40.907912" lon="-8.533803">
                <ele>142.1</ele>
                <time>2020-11-30T16:26:44.000Z</time>
            </trkpt>
            <trkpt lat="40.907933" lon="-8.53379">
                <ele>142.2</ele>
                <time>2020-11-30T16:26:45.000Z</time>
            </trkpt>
            <trkpt lat="40.907954" lon="-8.533776">
                <ele>142.4</ele>
                <time>2020-11-30T16:26:46.000Z</time>
            </trkpt>
            <trkpt lat="40.907975" lon="-8.533762">
                <ele>142.6</ele>
                <time>2020-11-30T16:26:47.000Z</time>
            </trkpt>
            <trkpt lat="40.907995" lon="-8.533748">
                <ele>142.8</ele>
                <time>2020-11-30T16:26:48.000Z</time>
            </trkpt>
            <trkpt lat="40.908015" lon="-8.533734">
                <ele>143.0</ele>
                <time>2020-11-30T16:26:49.000Z</time>
            </trkpt>
            <trkpt lat="40.908035" lon="-8.533719">
                <ele>143.1</ele>
                <time>2020-11-30T16:26:50.000Z</time>
            </trkpt>
            <trkpt lat="40.908054" lon="-8.533704">
                <ele>143.3</ele>
                <time>2020-11-30T16:26:51.000Z</time>
            </trkpt>
            <trkpt lat="40.908073" lon="-8.533689">
                <ele>143.5</ele>
                <time>2020-11-30T16:26:52.000Z</time>
            </trkpt>
            <trkpt lat="40.90809" lon="-8.533674">
                <ele>143.7</ele>
                <time>2020-11-30T16:26:53.000Z</time>
            </trkpt>
            <trkpt lat="40.908107" lon="-8.533658">
                <ele>143.9</ele>
                <time>2020-11-30T16:26:54.000Z</time>
            </trkpt>
            <trkpt lat="40.908124" lon="-8.533643">
                <ele>144.0</ele>
                <time>2020-11-30T16:26:55.000Z</time>
            </trkpt>
            <trkpt lat="40.908139" lon="-8.533627">
                <ele>144.2</ele>
                <time>2020-11-30T16:26:56.000Z</time>
            </trkpt>
            <trkpt lat="40.908153" lon="-8.533611">
                <ele>144.4</ele>
                <time>2020-11-30T16:26:57.000Z</time>
            </trkpt>
            <trkpt lat="40.908168" lon="-8.533595">
                <ele>144.5</ele>
                <time>2020-11-30T16:26:58.000Z</time>
            </trkpt>
            <trkpt lat="40.908182" lon="-8.533578">
                <ele>144.7</ele>
                <time>2020-11-30T16:26:59.000Z</time>
            </trkpt>
            <trkpt lat="40.908197" lon="-8.533561">
                <ele>144.9</ele>
                <time>2020-11-30T16:27:00.000Z</time>
            </trkpt>
            <trkpt lat="40.908214" lon="-8.533544">
                <ele>145.1</ele>
                <time>2020-11-30T16:27:01.000Z</time>
            </trkpt>
            <trkpt lat="40.908232" lon="-8.533526">
                <ele>145.3</ele>
                <time>2020-11-30T16:27:02.000Z</time>
            </trkpt>
            <trkpt lat="40.908252" lon="-8.533508">
                <ele>145.5</ele>
                <time>2020-11-30T16:27:03.000Z</time>
            </trkpt>
            <trkpt lat="40.908273" lon="-8.53349">
                <ele>145.8</ele>
                <time>2020-11-30T16:27:04.000Z</time>
            </trkpt>
            <trkpt lat="40.908295" lon="-8.533472">
                <ele>146.0</ele>
                <time>2020-11-30T16:27:05.000Z</time>
            </trkpt>
            <trkpt lat="40.908317" lon="-8.533456">
                <ele>146.3</ele>
                <time>2020-11-30T16:27:06.000Z</time>
            </trkpt>
            <trkpt lat="40.90834" lon="-8.53344">
                <ele>146.5</ele>
                <time>2020-11-30T16:27:07.000Z</time>
            </trkpt>
            <trkpt lat="40.908362" lon="-8.533426">
                <ele>146.7</ele>
                <time>2020-11-30T16:27:08.000Z</time>
            </trkpt>
            <trkpt lat="40.908385" lon="-8.533413">
                <ele>146.9</ele>
                <time>2020-11-30T16:27:09.000Z</time>
            </trkpt>
            <trkpt lat="40.908407" lon="-8.5334">
                <ele>147.0</ele>
                <time>2020-11-30T16:27:10.000Z</time>
            </trkpt>
            <trkpt lat="40.90843" lon="-8.533389">
                <ele>147.2</ele>
                <time>2020-11-30T16:27:11.000Z</time>
            </trkpt>
            <trkpt lat="40.908452" lon="-8.533379">
                <ele>147.4</ele>
                <time>2020-11-30T16:27:12.000Z</time>
            </trkpt>
            <trkpt lat="40.908475" lon="-8.53337">
                <ele>147.5</ele>
                <time>2020-11-30T16:27:13.000Z</time>
            </trkpt>
            <trkpt lat="40.908498" lon="-8.533361">
                <ele>147.7</ele>
                <time>2020-11-30T16:27:14.000Z</time>
            </trkpt>
            <trkpt lat="40.90852" lon="-8.533354">
                <ele>147.8</ele>
                <time>2020-11-30T16:27:15.000Z</time>
            </trkpt>
            <trkpt lat="40.908543" lon="-8.533347">
                <ele>147.9</ele>
                <time>2020-11-30T16:27:16.000Z</time>
            </trkpt>
            <trkpt lat="40.908566" lon="-8.533342">
                <ele>148.1</ele>
                <time>2020-11-30T16:27:17.000Z</time>
            </trkpt>
            <trkpt lat="40.908589" lon="-8.533337">
                <ele>148.2</ele>
                <time>2020-11-30T16:27:18.000Z</time>
            </trkpt>
            <trkpt lat="40.908612" lon="-8.533332">
                <ele>148.3</ele>
                <time>2020-11-30T16:27:19.000Z</time>
            </trkpt>
            <trkpt lat="40.908635" lon="-8.533329">
                <ele>148.4</ele>
                <time>2020-11-30T16:27:20.000Z</time>
            </trkpt>
            <trkpt lat="40.908658" lon="-8.533326">
                <ele>148.5</ele>
                <time>2020-11-30T16:27:21.000Z</time>
            </trkpt>
            <trkpt lat="40.908682" lon="-8.533323">
                <ele>148.6</ele>
                <time>2020-11-30T16:27:22.000Z</time>
            </trkpt>
            <trkpt lat="40.908705" lon="-8.533322">
                <ele>148.7</ele>
                <time>2020-11-30T16:27:23.000Z</time>
            </trkpt>
            <trkpt lat="40.908728" lon="-8.53332">
                <ele>148.8</ele>
                <time>2020-11-30T16:27:24.000Z</time>
            </trkpt>
            <trkpt lat="40.908752" lon="-8.53332">
                <ele>149.0</ele>
                <time>2020-11-30T16:27:25.000Z</time>
            </trkpt>
            <trkpt lat="40.908776" lon="-8.53332">
                <ele>149.1</ele>
                <time>2020-11-30T16:27:26.000Z</time>
            </trkpt>
            <trkpt lat="40.9088" lon="-8.53332">
                <ele>149.2</ele>
                <time>2020-11-30T16:27:27.000Z</time>
            </trkpt>
            <trkpt lat="40.908824" lon="-8.53332">
                <ele>149.3</ele>
                <time>2020-11-30T16:27:28.000Z</time>
            </trkpt>
            <trkpt lat="40.908848" lon="-8.533321">
                <ele>149.4</ele>
                <time>2020-11-30T16:27:29.000Z</time>
            </trkpt>
            <trkpt lat="40.908872" lon="-8.533321">
                <ele>149.5</ele>
                <time>2020-11-30T16:27:30.000Z</time>
            </trkpt>
            <trkpt lat="40.908897" lon="-8.533322">
                <ele>149.7</ele>
                <time>2020-11-30T16:27:31.000Z</time>
            </trkpt>
            <trkpt lat="40.908922" lon="-8.533322">
                <ele>149.8</ele>
                <time>2020-11-30T16:27:32.000Z</time>
            </trkpt>
            <trkpt lat="40.908948" lon="-8.533322">
                <ele>149.9</ele>
                <time>2020-11-30T16:27:33.000Z</time>
            </trkpt>
            <trkpt lat="40.908973" lon="-8.533321">
                <ele>150.0</ele>
                <time>2020-11-30T16:27:34.000Z</time>
            </trkpt>
            <trkpt lat="40.908998" lon="-8.533318">
                <ele>150.1</ele>
                <time>2020-11-30T16:27:35.000Z</time>
            </trkpt>
            <trkpt lat="40.909023" lon="-8.533312">
                <ele>150.2</ele>
                <time>2020-11-30T16:27:36.000Z</time>
            </trkpt>
            <trkpt lat="40.909046" lon="-8.533304">
                <ele>150.3</ele>
                <time>2020-11-30T16:27:37.000Z</time>
            </trkpt>
            <trkpt lat="40.909068" lon="-8.533291">
                <ele>150.3</ele>
                <time>2020-11-30T16:27:38.000Z</time>
            </trkpt>
            <trkpt lat="40.909088" lon="-8.533275">
                <ele>150.3</ele>
                <time>2020-11-30T16:27:39.000Z</time>
            </trkpt>
            <trkpt lat="40.909108" lon="-8.533257">
                <ele>150.3</ele>
                <time>2020-11-30T16:27:40.000Z</time>
            </trkpt>
            <trkpt lat="40.909126" lon="-8.533235">
                <ele>150.2</ele>
                <time>2020-11-30T16:27:41.000Z</time>
            </trkpt>
            <trkpt lat="40.909144" lon="-8.533212">
                <ele>150.2</ele>
                <time>2020-11-30T16:27:42.000Z</time>
            </trkpt>
            <trkpt lat="40.909161" lon="-8.533188">
                <ele>150.1</ele>
                <time>2020-11-30T16:27:43.000Z</time>
            </trkpt>
            <trkpt lat="40.909178" lon="-8.533163">
                <ele>150.0</ele>
                <time>2020-11-30T16:27:44.000Z</time>
            </trkpt>
            <trkpt lat="40.909194" lon="-8.533137">
                <ele>149.9</ele>
                <time>2020-11-30T16:27:45.000Z</time>
            </trkpt>
            <trkpt lat="40.90921" lon="-8.533112">
                <ele>149.8</ele>
                <time>2020-11-30T16:27:46.000Z</time>
            </trkpt>
            <trkpt lat="40.909226" lon="-8.533087">
                <ele>149.7</ele>
                <time>2020-11-30T16:27:47.000Z</time>
            </trkpt>
            <trkpt lat="40.909242" lon="-8.533064">
                <ele>149.6</ele>
                <time>2020-11-30T16:27:48.000Z</time>
            </trkpt>
            <trkpt lat="40.909259" lon="-8.533041">
                <ele>149.5</ele>
                <time>2020-11-30T16:27:49.000Z</time>
            </trkpt>
            <trkpt lat="40.909275" lon="-8.53302">
                <ele>149.4</ele>
                <time>2020-11-30T16:27:50.000Z</time>
            </trkpt>
            <trkpt lat="40.909292" lon="-8.532999">
                <ele>149.4</ele>
                <time>2020-11-30T16:27:51.000Z</time>
            </trkpt>
            <trkpt lat="40.909309" lon="-8.532979">
                <ele>149.3</ele>
                <time>2020-11-30T16:27:52.000Z</time>
            </trkpt>
            <trkpt lat="40.909327" lon="-8.53296">
                <ele>149.2</ele>
                <time>2020-11-30T16:27:53.000Z</time>
            </trkpt>
            <trkpt lat="40.909344" lon="-8.532941">
                <ele>149.2</ele>
                <time>2020-11-30T16:27:54.000Z</time>
            </trkpt>
            <trkpt lat="40.909363" lon="-8.532923">
                <ele>149.1</ele>
                <time>2020-11-30T16:27:55.000Z</time>
            </trkpt>
            <trkpt lat="40.909381" lon="-8.532904">
                <ele>149.1</ele>
                <time>2020-11-30T16:27:56.000Z</time>
            </trkpt>
            <trkpt lat="40.9094" lon="-8.532886">
                <ele>149.0</ele>
                <time>2020-11-30T16:27:57.000Z</time>
            </trkpt>
            <trkpt lat="40.909419" lon="-8.532869">
                <ele>149.0</ele>
                <time>2020-11-30T16:27:58.000Z</time>
            </trkpt>
            <trkpt lat="40.909438" lon="-8.532851">
                <ele>148.9</ele>
                <time>2020-11-30T16:27:59.000Z</time>
            </trkpt>
            <trkpt lat="40.909458" lon="-8.532833">
                <ele>148.9</ele>
                <time>2020-11-30T16:28:00.000Z</time>
            </trkpt>
            <trkpt lat="40.909479" lon="-8.532815">
                <ele>148.9</ele>
                <time>2020-11-30T16:28:01.000Z</time>
            </trkpt>
            <trkpt lat="40.9095" lon="-8.532797">
                <ele>148.8</ele>
                <time>2020-11-30T16:28:02.000Z</time>
            </trkpt>
            <trkpt lat="40.909521" lon="-8.53278">
                <ele>148.8</ele>
                <time>2020-11-30T16:28:03.000Z</time>
            </trkpt>
            <trkpt lat="40.909542" lon="-8.532763">
                <ele>148.8</ele>
                <time>2020-11-30T16:28:04.000Z</time>
            </trkpt>
            <trkpt lat="40.909564" lon="-8.532746">
                <ele>148.8</ele>
                <time>2020-11-30T16:28:05.000Z</time>
            </trkpt>
            <trkpt lat="40.909587" lon="-8.53273">
                <ele>148.8</ele>
                <time>2020-11-30T16:28:06.000Z</time>
            </trkpt>
            <trkpt lat="40.90961" lon="-8.532715">
                <ele>148.7</ele>
                <time>2020-11-30T16:28:07.000Z</time>
            </trkpt>
            <trkpt lat="40.909633" lon="-8.5327">
                <ele>148.7</ele>
                <time>2020-11-30T16:28:08.000Z</time>
            </trkpt>
            <trkpt lat="40.909656" lon="-8.532686">
                <ele>148.7</ele>
                <time>2020-11-30T16:28:09.000Z</time>
            </trkpt>
            <trkpt lat="40.90968" lon="-8.532673">
                <ele>148.8</ele>
                <time>2020-11-30T16:28:10.000Z</time>
            </trkpt>
            <trkpt lat="40.909705" lon="-8.53266">
                <ele>148.8</ele>
                <time>2020-11-30T16:28:11.000Z</time>
            </trkpt>
            <trkpt lat="40.909729" lon="-8.532648">
                <ele>148.8</ele>
                <time>2020-11-30T16:28:12.000Z</time>
            </trkpt>
            <trkpt lat="40.909754" lon="-8.532636">
                <ele>148.8</ele>
                <time>2020-11-30T16:28:13.000Z</time>
            </trkpt>
            <trkpt lat="40.909778" lon="-8.532625">
                <ele>148.8</ele>
                <time>2020-11-30T16:28:14.000Z</time>
            </trkpt>
            <trkpt lat="40.909803" lon="-8.532614">
                <ele>148.9</ele>
                <time>2020-11-30T16:28:15.000Z</time>
            </trkpt>
            <trkpt lat="40.909828" lon="-8.532603">
                <ele>148.9</ele>
                <time>2020-11-30T16:28:16.000Z</time>
            </trkpt>
            <trkpt lat="40.909853" lon="-8.532593">
                <ele>148.9</ele>
                <time>2020-11-30T16:28:17.000Z</time>
            </trkpt>
            <trkpt lat="40.909878" lon="-8.532582">
                <ele>149.0</ele>
                <time>2020-11-30T16:28:18.000Z</time>
            </trkpt>
            <trkpt lat="40.909903" lon="-8.532571">
                <ele>149.0</ele>
                <time>2020-11-30T16:28:19.000Z</time>
            </trkpt>
            <trkpt lat="40.909927" lon="-8.532561">
                <ele>149.0</ele>
                <time>2020-11-30T16:28:20.000Z</time>
            </trkpt>
            <trkpt lat="40.909952" lon="-8.53255">
                <ele>149.1</ele>
                <time>2020-11-30T16:28:21.000Z</time>
            </trkpt>
            <trkpt lat="40.909976" lon="-8.532539">
                <ele>149.1</ele>
                <time>2020-11-30T16:28:22.000Z</time>
            </trkpt>
            <trkpt lat="40.91" lon="-8.532528">
                <ele>149.1</ele>
                <time>2020-11-30T16:28:23.000Z</time>
            </trkpt>
            <trkpt lat="40.910025" lon="-8.532517">
                <ele>149.2</ele>
                <time>2020-11-30T16:28:24.000Z</time>
            </trkpt>
            <trkpt lat="40.910049" lon="-8.532505">
                <ele>149.3</ele>
                <time>2020-11-30T16:28:25.000Z</time>
            </trkpt>
            <trkpt lat="40.910073" lon="-8.532494">
                <ele>149.3</ele>
                <time>2020-11-30T16:28:26.000Z</time>
            </trkpt>
            <trkpt lat="40.910098" lon="-8.532482">
                <ele>149.3</ele>
                <time>2020-11-30T16:28:27.000Z</time>
            </trkpt>
            <trkpt lat="40.910122" lon="-8.53247">
                <ele>149.4</ele>
                <time>2020-11-30T16:28:28.000Z</time>
            </trkpt>
            <trkpt lat="40.910146" lon="-8.532457">
                <ele>149.4</ele>
                <time>2020-11-30T16:28:29.000Z</time>
            </trkpt>
            <trkpt lat="40.910171" lon="-8.532445">
                <ele>149.4</ele>
                <time>2020-11-30T16:28:30.000Z</time>
            </trkpt>
            <trkpt lat="40.910195" lon="-8.532432">
                <ele>149.5</ele>
                <time>2020-11-30T16:28:31.000Z</time>
            </trkpt>
            <trkpt lat="40.91022" lon="-8.532419">
                <ele>149.5</ele>
                <time>2020-11-30T16:28:32.000Z</time>
            </trkpt>
            <trkpt lat="40.910244" lon="-8.532405">
                <ele>149.5</ele>
                <time>2020-11-30T16:28:33.000Z</time>
            </trkpt>
            <trkpt lat="40.910269" lon="-8.53239">
                <ele>149.5</ele>
                <time>2020-11-30T16:28:34.000Z</time>
            </trkpt>
            <trkpt lat="40.910293" lon="-8.532375">
                <ele>149.6</ele>
                <time>2020-11-30T16:28:35.000Z</time>
            </trkpt>
            <trkpt lat="40.910316" lon="-8.532359">
                <ele>149.6</ele>
                <time>2020-11-30T16:28:36.000Z</time>
            </trkpt>
            <trkpt lat="40.910339" lon="-8.532342">
                <ele>149.6</ele>
                <time>2020-11-30T16:28:37.000Z</time>
            </trkpt>
            <trkpt lat="40.910362" lon="-8.532325">
                <ele>149.6</ele>
                <time>2020-11-30T16:28:38.000Z</time>
            </trkpt>
            <trkpt lat="40.910384" lon="-8.532306">
                <ele>149.6</ele>
                <time>2020-11-30T16:28:39.000Z</time>
            </trkpt>
            <trkpt lat="40.910406" lon="-8.532286">
                <ele>149.5</ele>
                <time>2020-11-30T16:28:40.000Z</time>
            </trkpt>
            <trkpt lat="40.910427" lon="-8.532265">
                <ele>149.5</ele>
                <time>2020-11-30T16:28:41.000Z</time>
            </trkpt>
            <trkpt lat="40.910447" lon="-8.532243">
                <ele>149.5</ele>
                <time>2020-11-30T16:28:42.000Z</time>
            </trkpt>
            <trkpt lat="40.910466" lon="-8.532219">
                <ele>149.4</ele>
                <time>2020-11-30T16:28:43.000Z</time>
            </trkpt>
            <trkpt lat="40.910485" lon="-8.532194">
                <ele>149.3</ele>
                <time>2020-11-30T16:28:44.000Z</time>
            </trkpt>
            <trkpt lat="40.910502" lon="-8.532167">
                <ele>149.3</ele>
                <time>2020-11-30T16:28:45.000Z</time>
            </trkpt>
            <trkpt lat="40.910519" lon="-8.532139">
                <ele>149.2</ele>
                <time>2020-11-30T16:28:46.000Z</time>
            </trkpt>
            <trkpt lat="40.910534" lon="-8.532109">
                <ele>149.0</ele>
                <time>2020-11-30T16:28:47.000Z</time>
            </trkpt>
            <trkpt lat="40.910548" lon="-8.532077">
                <ele>148.9</ele>
                <time>2020-11-30T16:28:48.000Z</time>
            </trkpt>
            <trkpt lat="40.910561" lon="-8.532043">
                <ele>148.8</ele>
                <time>2020-11-30T16:28:49.000Z</time>
            </trkpt>
            <trkpt lat="40.910572" lon="-8.532007">
                <ele>148.6</ele>
                <time>2020-11-30T16:28:50.000Z</time>
            </trkpt>
            <trkpt lat="40.910583" lon="-8.53197">
                <ele>148.4</ele>
                <time>2020-11-30T16:28:51.000Z</time>
            </trkpt>
            <trkpt lat="40.910591" lon="-8.531931">
                <ele>148.2</ele>
                <time>2020-11-30T16:28:52.000Z</time>
            </trkpt>
            <trkpt lat="40.910598" lon="-8.531892">
                <ele>148.0</ele>
                <time>2020-11-30T16:28:53.000Z</time>
            </trkpt>
            <trkpt lat="40.910603" lon="-8.531852">
                <ele>147.8</ele>
                <time>2020-11-30T16:28:54.000Z</time>
            </trkpt>
            <trkpt lat="40.910606" lon="-8.531811">
                <ele>147.5</ele>
                <time>2020-11-30T16:28:55.000Z</time>
            </trkpt>
            <trkpt lat="40.910607" lon="-8.531771">
                <ele>147.3</ele>
                <time>2020-11-30T16:28:56.000Z</time>
            </trkpt>
            <trkpt lat="40.910607" lon="-8.531731">
                <ele>147.0</ele>
                <time>2020-11-30T16:28:57.000Z</time>
            </trkpt>
            <trkpt lat="40.910606" lon="-8.531691">
                <ele>146.8</ele>
                <time>2020-11-30T16:28:58.000Z</time>
            </trkpt>
            <trkpt lat="40.910605" lon="-8.531652">
                <ele>146.6</ele>
                <time>2020-11-30T16:28:59.000Z</time>
            </trkpt>
            <trkpt lat="40.910604" lon="-8.531614">
                <ele>146.5</ele>
                <time>2020-11-30T16:29:00.000Z</time>
            </trkpt>
            <trkpt lat="40.910604" lon="-8.531576">
                <ele>146.4</ele>
                <time>2020-11-30T16:29:01.000Z</time>
            </trkpt>
            <trkpt lat="40.910605" lon="-8.53154">
                <ele>146.4</ele>
                <time>2020-11-30T16:29:02.000Z</time>
            </trkpt>
            <trkpt lat="40.910607" lon="-8.531504">
                <ele>146.3</ele>
                <time>2020-11-30T16:29:03.000Z</time>
            </trkpt>
            <trkpt lat="40.910609" lon="-8.531469">
                <ele>146.2</ele>
                <time>2020-11-30T16:29:04.000Z</time>
            </trkpt>
            <trkpt lat="40.910611" lon="-8.531435">
                <ele>146.2</ele>
                <time>2020-11-30T16:29:05.000Z</time>
            </trkpt>
            <trkpt lat="40.910614" lon="-8.5314">
                <ele>146.1</ele>
                <time>2020-11-30T16:29:06.000Z</time>
            </trkpt>
            <trkpt lat="40.910616" lon="-8.531366">
                <ele>146.1</ele>
                <time>2020-11-30T16:29:07.000Z</time>
            </trkpt>
            <trkpt lat="40.910619" lon="-8.531333">
                <ele>146.0</ele>
                <time>2020-11-30T16:29:08.000Z</time>
            </trkpt>
            <trkpt lat="40.91062" lon="-8.531299">
                <ele>146.0</ele>
                <time>2020-11-30T16:29:09.000Z</time>
            </trkpt>
            <trkpt lat="40.910621" lon="-8.531265">
                <ele>145.9</ele>
                <time>2020-11-30T16:29:10.000Z</time>
            </trkpt>
            <trkpt lat="40.910622" lon="-8.53123">
                <ele>145.8</ele>
                <time>2020-11-30T16:29:11.000Z</time>
            </trkpt>
            <trkpt lat="40.910622" lon="-8.531196">
                <ele>145.7</ele>
                <time>2020-11-30T16:29:12.000Z</time>
            </trkpt>
            <trkpt lat="40.910622" lon="-8.531161">
                <ele>145.7</ele>
                <time>2020-11-30T16:29:13.000Z</time>
            </trkpt>
            <trkpt lat="40.910621" lon="-8.531126">
                <ele>145.6</ele>
                <time>2020-11-30T16:29:14.000Z</time>
            </trkpt>
            <trkpt lat="40.910622" lon="-8.53109">
                <ele>145.5</ele>
                <time>2020-11-30T16:29:15.000Z</time>
            </trkpt>
            <trkpt lat="40.910623" lon="-8.531055">
                <ele>145.5</ele>
                <time>2020-11-30T16:29:16.000Z</time>
            </trkpt>
            <trkpt lat="40.910624" lon="-8.531019">
                <ele>145.4</ele>
                <time>2020-11-30T16:29:17.000Z</time>
            </trkpt>
            <trkpt lat="40.910626" lon="-8.530983">
                <ele>145.3</ele>
                <time>2020-11-30T16:29:18.000Z</time>
            </trkpt>
            <trkpt lat="40.910628" lon="-8.530946">
                <ele>145.3</ele>
                <time>2020-11-30T16:29:19.000Z</time>
            </trkpt>
            <trkpt lat="40.91063" lon="-8.530909">
                <ele>145.2</ele>
                <time>2020-11-30T16:29:20.000Z</time>
            </trkpt>
            <trkpt lat="40.910631" lon="-8.530872">
                <ele>145.1</ele>
                <time>2020-11-30T16:29:21.000Z</time>
            </trkpt>
            <trkpt lat="40.910632" lon="-8.530834">
                <ele>145.0</ele>
                <time>2020-11-30T16:29:22.000Z</time>
            </trkpt>
            <trkpt lat="40.910633" lon="-8.530797">
                <ele>144.9</ele>
                <time>2020-11-30T16:29:23.000Z</time>
            </trkpt>
            <trkpt lat="40.910633" lon="-8.530761">
                <ele>144.7</ele>
                <time>2020-11-30T16:29:24.000Z</time>
            </trkpt>
            <trkpt lat="40.910632" lon="-8.530727">
                <ele>144.5</ele>
                <time>2020-11-30T16:29:25.000Z</time>
            </trkpt>
            <trkpt lat="40.91063" lon="-8.530694">
                <ele>144.3</ele>
                <time>2020-11-30T16:29:26.000Z</time>
            </trkpt>
            <trkpt lat="40.910628" lon="-8.530663">
                <ele>144.1</ele>
                <time>2020-11-30T16:29:27.000Z</time>
            </trkpt>
            <trkpt lat="40.910624" lon="-8.530634">
                <ele>144.0</ele>
                <time>2020-11-30T16:29:28.000Z</time>
            </trkpt>
            <trkpt lat="40.910618" lon="-8.530607">
                <ele>143.8</ele>
                <time>2020-11-30T16:29:29.000Z</time>
            </trkpt>
            <trkpt lat="40.910609" lon="-8.530581">
                <ele>143.7</ele>
                <time>2020-11-30T16:29:30.000Z</time>
            </trkpt>
            <trkpt lat="40.910599" lon="-8.530557">
                <ele>143.5</ele>
                <time>2020-11-30T16:29:31.000Z</time>
            </trkpt>
            <trkpt lat="40.910586" lon="-8.530535">
                <ele>143.3</ele>
                <time>2020-11-30T16:29:32.000Z</time>
            </trkpt>
            <trkpt lat="40.910572" lon="-8.530515">
                <ele>143.2</ele>
                <time>2020-11-30T16:29:33.000Z</time>
            </trkpt>
            <trkpt lat="40.910557" lon="-8.530497">
                <ele>143.1</ele>
                <time>2020-11-30T16:29:34.000Z</time>
            </trkpt>
            <trkpt lat="40.910542" lon="-8.530481">
                <ele>142.9</ele>
                <time>2020-11-30T16:29:35.000Z</time>
            </trkpt>
            <trkpt lat="40.910527" lon="-8.530466">
                <ele>142.8</ele>
                <time>2020-11-30T16:29:36.000Z</time>
            </trkpt>
            <trkpt lat="40.910512" lon="-8.530454">
                <ele>142.7</ele>
                <time>2020-11-30T16:29:37.000Z</time>
            </trkpt>
            <trkpt lat="40.910499" lon="-8.530444">
                <ele>142.6</ele>
                <time>2020-11-30T16:29:38.000Z</time>
            </trkpt>
            <trkpt lat="40.910488" lon="-8.530436">
                <ele>142.6</ele>
                <time>2020-11-30T16:29:39.000Z</time>
            </trkpt>
            <trkpt lat="40.910479" lon="-8.530431">
                <ele>142.5</ele>
                <time>2020-11-30T16:29:40.000Z</time>
            </trkpt>
            <trkpt lat="40.910474" lon="-8.530428">
                <ele>142.5</ele>
                <time>2020-11-30T16:29:41.000Z</time>
            </trkpt>
            <trkpt lat="40.910471" lon="-8.530427">
                <ele>142.5</ele>
                <time>2020-11-30T16:29:42.000Z</time>
            </trkpt>
            <trkpt lat="40.910471" lon="-8.530427">
                <ele>142.5</ele>
                <time>2020-11-30T16:29:43.000Z</time>
            </trkpt>
            <trkpt lat="40.910472" lon="-8.530426">
                <ele>142.5</ele>
                <time>2020-11-30T16:29:44.000Z</time>
            </trkpt>
            <trkpt lat="40.910473" lon="-8.530424">
                <ele>142.5</ele>
                <time>2020-11-30T16:29:45.000Z</time>
            </trkpt>
            <trkpt lat="40.910472" lon="-8.530419">
                <ele>142.4</ele>
                <time>2020-11-30T16:29:46.000Z</time>
            </trkpt>
            <trkpt lat="40.91047" lon="-8.530409">
                <ele>142.4</ele>
                <time>2020-11-30T16:29:47.000Z</time>
            </trkpt>
            <trkpt lat="40.910465" lon="-8.530395">
                <ele>142.3</ele>
                <time>2020-11-30T16:29:48.000Z</time>
            </trkpt>
            <trkpt lat="40.910461" lon="-8.530377">
                <ele>142.2</ele>
                <time>2020-11-30T16:29:49.000Z</time>
            </trkpt>
            <trkpt lat="40.910457" lon="-8.530354">
                <ele>142.1</ele>
                <time>2020-11-30T16:29:50.000Z</time>
            </trkpt>
            <trkpt lat="40.910456" lon="-8.530328">
                <ele>142.0</ele>
                <time>2020-11-30T16:29:51.000Z</time>
            </trkpt>
            <trkpt lat="40.910458" lon="-8.530297">
                <ele>141.9</ele>
                <time>2020-11-30T16:29:52.000Z</time>
            </trkpt>
            <trkpt lat="40.910462" lon="-8.530264">
                <ele>141.7</ele>
                <time>2020-11-30T16:29:53.000Z</time>
            </trkpt>
            <trkpt lat="40.910469" lon="-8.530229">
                <ele>141.6</ele>
                <time>2020-11-30T16:29:54.000Z</time>
            </trkpt>
            <trkpt lat="40.910478" lon="-8.530193">
                <ele>141.4</ele>
                <time>2020-11-30T16:29:55.000Z</time>
            </trkpt>
            <trkpt lat="40.910488" lon="-8.530159">
                <ele>141.3</ele>
                <time>2020-11-30T16:29:56.000Z</time>
            </trkpt>
            <trkpt lat="40.910499" lon="-8.530126">
                <ele>141.2</ele>
                <time>2020-11-30T16:29:57.000Z</time>
            </trkpt>
            <trkpt lat="40.910509" lon="-8.530094">
                <ele>141.0</ele>
                <time>2020-11-30T16:29:58.000Z</time>
            </trkpt>
            <trkpt lat="40.91052" lon="-8.530062">
                <ele>140.9</ele>
                <time>2020-11-30T16:29:59.000Z</time>
            </trkpt>
            <trkpt lat="40.910531" lon="-8.530029">
                <ele>140.8</ele>
                <time>2020-11-30T16:30:00.000Z</time>
            </trkpt>
            <trkpt lat="40.910541" lon="-8.529995">
                <ele>140.6</ele>
                <time>2020-11-30T16:30:01.000Z</time>
            </trkpt>
            <trkpt lat="40.91055" lon="-8.529959">
                <ele>140.3</ele>
                <time>2020-11-30T16:30:02.000Z</time>
            </trkpt>
            <trkpt lat="40.910559" lon="-8.529922">
                <ele>140.0</ele>
                <time>2020-11-30T16:30:03.000Z</time>
            </trkpt>
            <trkpt lat="40.910568" lon="-8.529886">
                <ele>139.6</ele>
                <time>2020-11-30T16:30:04.000Z</time>
            </trkpt>
            <trkpt lat="40.910578" lon="-8.529853">
                <ele>139.3</ele>
                <time>2020-11-30T16:30:05.000Z</time>
            </trkpt>
            <trkpt lat="40.91059" lon="-8.529823">
                <ele>139.1</ele>
                <time>2020-11-30T16:30:06.000Z</time>
            </trkpt>
            <trkpt lat="40.910604" lon="-8.5298">
                <ele>138.9</ele>
                <time>2020-11-30T16:30:07.000Z</time>
            </trkpt>
            <trkpt lat="40.910619" lon="-8.529782">
                <ele>138.7</ele>
                <time>2020-11-30T16:30:08.000Z</time>
            </trkpt>
            <trkpt lat="40.910637" lon="-8.529771">
                <ele>138.6</ele>
                <time>2020-11-30T16:30:09.000Z</time>
            </trkpt>
            <trkpt lat="40.910656" lon="-8.529767">
                <ele>138.6</ele>
                <time>2020-11-30T16:30:10.000Z</time>
            </trkpt>
            <trkpt lat="40.910677" lon="-8.529769">
                <ele>138.6</ele>
                <time>2020-11-30T16:30:11.000Z</time>
            </trkpt>
            <trkpt lat="40.910699" lon="-8.529778">
                <ele>138.8</ele>
                <time>2020-11-30T16:30:12.000Z</time>
            </trkpt>
            <trkpt lat="40.910722" lon="-8.529793">
                <ele>138.9</ele>
                <time>2020-11-30T16:30:13.000Z</time>
            </trkpt>
            <trkpt lat="40.910747" lon="-8.52981">
                <ele>139.1</ele>
                <time>2020-11-30T16:30:14.000Z</time>
            </trkpt>
            <trkpt lat="40.910773" lon="-8.529829">
                <ele>139.3</ele>
                <time>2020-11-30T16:30:15.000Z</time>
            </trkpt>
            <trkpt lat="40.9108" lon="-8.529846">
                <ele>139.5</ele>
                <time>2020-11-30T16:30:16.000Z</time>
            </trkpt>
            <trkpt lat="40.910829" lon="-8.529861">
                <ele>139.7</ele>
                <time>2020-11-30T16:30:17.000Z</time>
            </trkpt>
            <trkpt lat="40.910858" lon="-8.529872">
                <ele>139.8</ele>
                <time>2020-11-30T16:30:18.000Z</time>
            </trkpt>
            <trkpt lat="40.910887" lon="-8.529879">
                <ele>139.9</ele>
                <time>2020-11-30T16:30:19.000Z</time>
            </trkpt>
            <trkpt lat="40.910913" lon="-8.529882">
                <ele>140.0</ele>
                <time>2020-11-30T16:30:20.000Z</time>
            </trkpt>
            <trkpt lat="40.910935" lon="-8.529884">
                <ele>140.0</ele>
                <time>2020-11-30T16:30:21.000Z</time>
            </trkpt>
            <trkpt lat="40.91095" lon="-8.529884">
                <ele>140.0</ele>
                <time>2020-11-30T16:30:22.000Z</time>
            </trkpt>
            <trkpt lat="40.910958" lon="-8.529883">
                <ele>140.0</ele>
                <time>2020-11-30T16:30:23.000Z</time>
            </trkpt>
            <trkpt lat="40.910961" lon="-8.529882">
                <ele>140.0</ele>
                <time>2020-11-30T16:30:24.000Z</time>
            </trkpt>
            <trkpt lat="40.910961" lon="-8.529882">
                <ele>140.0</ele>
                <time>2020-11-30T16:30:25.000Z</time>
            </trkpt>
            <trkpt lat="40.910961" lon="-8.529882">
                <ele>140.0</ele>
                <time>2020-11-30T16:30:26.000Z</time>
            </trkpt>
            <trkpt lat="40.910964" lon="-8.529883">
                <ele>140.1</ele>
                <time>2020-11-30T16:30:27.000Z</time>
            </trkpt>
            <trkpt lat="40.910971" lon="-8.529885">
                <ele>140.1</ele>
                <time>2020-11-30T16:30:28.000Z</time>
            </trkpt>
            <trkpt lat="40.910982" lon="-8.529887">
                <ele>140.1</ele>
                <time>2020-11-30T16:30:29.000Z</time>
            </trkpt>
            <trkpt lat="40.910998" lon="-8.52989">
                <ele>140.2</ele>
                <time>2020-11-30T16:30:30.000Z</time>
            </trkpt>
            <trkpt lat="40.911015" lon="-8.529893">
                <ele>140.2</ele>
                <time>2020-11-30T16:30:31.000Z</time>
            </trkpt>
            <trkpt lat="40.911035" lon="-8.529896">
                <ele>140.3</ele>
                <time>2020-11-30T16:30:32.000Z</time>
            </trkpt>
            <trkpt lat="40.911057" lon="-8.529897">
                <ele>140.3</ele>
                <time>2020-11-30T16:30:33.000Z</time>
            </trkpt>
            <trkpt lat="40.911079" lon="-8.529898">
                <ele>140.4</ele>
                <time>2020-11-30T16:30:34.000Z</time>
            </trkpt>
            <trkpt lat="40.911102" lon="-8.529898">
                <ele>140.4</ele>
                <time>2020-11-30T16:30:35.000Z</time>
            </trkpt>
            <trkpt lat="40.911126" lon="-8.529897">
                <ele>140.4</ele>
                <time>2020-11-30T16:30:36.000Z</time>
            </trkpt>
            <trkpt lat="40.911151" lon="-8.529895">
                <ele>140.4</ele>
                <time>2020-11-30T16:30:37.000Z</time>
            </trkpt>
            <trkpt lat="40.911176" lon="-8.529893">
                <ele>140.4</ele>
                <time>2020-11-30T16:30:38.000Z</time>
            </trkpt>
            <trkpt lat="40.911202" lon="-8.529891">
                <ele>140.5</ele>
                <time>2020-11-30T16:30:39.000Z</time>
            </trkpt>
            <trkpt lat="40.911228" lon="-8.529887">
                <ele>140.5</ele>
                <time>2020-11-30T16:30:40.000Z</time>
            </trkpt>
            <trkpt lat="40.911254" lon="-8.529884">
                <ele>140.5</ele>
                <time>2020-11-30T16:30:41.000Z</time>
            </trkpt>
            <trkpt lat="40.91128" lon="-8.529879">
                <ele>140.5</ele>
                <time>2020-11-30T16:30:42.000Z</time>
            </trkpt>
            <trkpt lat="40.911306" lon="-8.529875">
                <ele>140.5</ele>
                <time>2020-11-30T16:30:43.000Z</time>
            </trkpt>
            <trkpt lat="40.911332" lon="-8.529871">
                <ele>140.5</ele>
                <time>2020-11-30T16:30:44.000Z</time>
            </trkpt>
            <trkpt lat="40.911358" lon="-8.529866">
                <ele>140.4</ele>
                <time>2020-11-30T16:30:45.000Z</time>
            </trkpt>
            <trkpt lat="40.911384" lon="-8.529863">
                <ele>140.5</ele>
                <time>2020-11-30T16:30:46.000Z</time>
            </trkpt>
            <trkpt lat="40.911412" lon="-8.529861">
                <ele>140.5</ele>
                <time>2020-11-30T16:30:47.000Z</time>
            </trkpt>
            <trkpt lat="40.91144" lon="-8.529859">
                <ele>140.5</ele>
                <time>2020-11-30T16:30:48.000Z</time>
            </trkpt>
            <trkpt lat="40.911468" lon="-8.52986">
                <ele>140.5</ele>
                <time>2020-11-30T16:30:49.000Z</time>
            </trkpt>
            <trkpt lat="40.911496" lon="-8.529861">
                <ele>140.6</ele>
                <time>2020-11-30T16:30:50.000Z</time>
            </trkpt>
            <trkpt lat="40.911524" lon="-8.529863">
                <ele>140.6</ele>
                <time>2020-11-30T16:30:51.000Z</time>
            </trkpt>
            <trkpt lat="40.911551" lon="-8.529865">
                <ele>140.7</ele>
                <time>2020-11-30T16:30:52.000Z</time>
            </trkpt>
            <trkpt lat="40.911577" lon="-8.529869">
                <ele>140.8</ele>
                <time>2020-11-30T16:30:53.000Z</time>
            </trkpt>
            <trkpt lat="40.911602" lon="-8.529872">
                <ele>140.8</ele>
                <time>2020-11-30T16:30:54.000Z</time>
            </trkpt>
            <trkpt lat="40.911625" lon="-8.529875">
                <ele>140.9</ele>
                <time>2020-11-30T16:30:55.000Z</time>
            </trkpt>
            <trkpt lat="40.911648" lon="-8.529876">
                <ele>140.9</ele>
                <time>2020-11-30T16:30:56.000Z</time>
            </trkpt>
            <trkpt lat="40.911669" lon="-8.529876">
                <ele>141.0</ele>
                <time>2020-11-30T16:30:57.000Z</time>
            </trkpt>
            <trkpt lat="40.911689" lon="-8.529873">
                <ele>140.9</ele>
                <time>2020-11-30T16:30:58.000Z</time>
            </trkpt>
            <trkpt lat="40.911708" lon="-8.529867">
                <ele>140.8</ele>
                <time>2020-11-30T16:30:59.000Z</time>
            </trkpt>
            <trkpt lat="40.911726" lon="-8.52986">
                <ele>140.7</ele>
                <time>2020-11-30T16:31:00.000Z</time>
            </trkpt>
            <trkpt lat="40.911742" lon="-8.529851">
                <ele>140.5</ele>
                <time>2020-11-30T16:31:01.000Z</time>
            </trkpt>
            <trkpt lat="40.911757" lon="-8.529843">
                <ele>140.4</ele>
                <time>2020-11-30T16:31:02.000Z</time>
            </trkpt>
            <trkpt lat="40.911771" lon="-8.529835">
                <ele>140.3</ele>
                <time>2020-11-30T16:31:03.000Z</time>
            </trkpt>
            <trkpt lat="40.911782" lon="-8.529828">
                <ele>140.3</ele>
                <time>2020-11-30T16:31:04.000Z</time>
            </trkpt>
            <trkpt lat="40.911793" lon="-8.529823">
                <ele>140.2</ele>
                <time>2020-11-30T16:31:05.000Z</time>
            </trkpt>
            <trkpt lat="40.911801" lon="-8.529819">
                <ele>140.1</ele>
                <time>2020-11-30T16:31:06.000Z</time>
            </trkpt>
            <trkpt lat="40.911808" lon="-8.529815">
                <ele>140.1</ele>
                <time>2020-11-30T16:31:07.000Z</time>
            </trkpt>
            <trkpt lat="40.911814" lon="-8.529811">
                <ele>140.0</ele>
                <time>2020-11-30T16:31:08.000Z</time>
            </trkpt>
            <trkpt lat="40.911818" lon="-8.529807">
                <ele>140.0</ele>
                <time>2020-11-30T16:31:09.000Z</time>
            </trkpt>
            <trkpt lat="40.911821" lon="-8.529802">
                <ele>140.0</ele>
                <time>2020-11-30T16:31:10.000Z</time>
            </trkpt>
            <trkpt lat="40.911823" lon="-8.529796">
                <ele>139.9</ele>
                <time>2020-11-30T16:31:11.000Z</time>
            </trkpt>
            <trkpt lat="40.911826" lon="-8.52979">
                <ele>139.9</ele>
                <time>2020-11-30T16:31:12.000Z</time>
            </trkpt>
            <trkpt lat="40.911829" lon="-8.529782">
                <ele>139.8</ele>
                <time>2020-11-30T16:31:13.000Z</time>
            </trkpt>
            <trkpt lat="40.911832" lon="-8.529774">
                <ele>139.7</ele>
                <time>2020-11-30T16:31:14.000Z</time>
            </trkpt>
            <trkpt lat="40.911837" lon="-8.529764">
                <ele>139.6</ele>
                <time>2020-11-30T16:31:15.000Z</time>
            </trkpt>
            <trkpt lat="40.911842" lon="-8.529755">
                <ele>139.6</ele>
                <time>2020-11-30T16:31:16.000Z</time>
            </trkpt>
            <trkpt lat="40.911848" lon="-8.529746">
                <ele>139.5</ele>
                <time>2020-11-30T16:31:17.000Z</time>
            </trkpt>
            <trkpt lat="40.911855" lon="-8.529739">
                <ele>139.4</ele>
                <time>2020-11-30T16:31:18.000Z</time>
            </trkpt>
            <trkpt lat="40.911861" lon="-8.529733">
                <ele>139.4</ele>
                <time>2020-11-30T16:31:19.000Z</time>
            </trkpt>
            <trkpt lat="40.911868" lon="-8.529729">
                <ele>139.3</ele>
                <time>2020-11-30T16:31:20.000Z</time>
            </trkpt>
            <trkpt lat="40.911875" lon="-8.529725">
                <ele>139.3</ele>
                <time>2020-11-30T16:31:21.000Z</time>
            </trkpt>
            <trkpt lat="40.911881" lon="-8.529721">
                <ele>139.2</ele>
                <time>2020-11-30T16:31:22.000Z</time>
            </trkpt>
            <trkpt lat="40.911888" lon="-8.529717">
                <ele>139.2</ele>
                <time>2020-11-30T16:31:23.000Z</time>
            </trkpt>
            <trkpt lat="40.911894" lon="-8.529712">
                <ele>139.1</ele>
                <time>2020-11-30T16:31:24.000Z</time>
            </trkpt>
            <trkpt lat="40.911899" lon="-8.529706">
                <ele>139.1</ele>
                <time>2020-11-30T16:31:25.000Z</time>
            </trkpt>
            <trkpt lat="40.911904" lon="-8.529699">
                <ele>139.0</ele>
                <time>2020-11-30T16:31:26.000Z</time>
            </trkpt>
            <trkpt lat="40.911909" lon="-8.529692">
                <ele>139.0</ele>
                <time>2020-11-30T16:31:27.000Z</time>
            </trkpt>
            <trkpt lat="40.911912" lon="-8.529685">
                <ele>138.9</ele>
                <time>2020-11-30T16:31:28.000Z</time>
            </trkpt>
            <trkpt lat="40.911915" lon="-8.529679">
                <ele>138.9</ele>
                <time>2020-11-30T16:31:29.000Z</time>
            </trkpt>
            <trkpt lat="40.911918" lon="-8.529673">
                <ele>138.8</ele>
                <time>2020-11-30T16:31:30.000Z</time>
            </trkpt>
            <trkpt lat="40.91192" lon="-8.529669">
                <ele>138.8</ele>
                <time>2020-11-30T16:31:31.000Z</time>
            </trkpt>
            <trkpt lat="40.911921" lon="-8.529666">
                <ele>138.8</ele>
                <time>2020-11-30T16:31:32.000Z</time>
            </trkpt>
            <trkpt lat="40.911921" lon="-8.529664">
                <ele>138.8</ele>
                <time>2020-11-30T16:31:33.000Z</time>
            </trkpt>
            <trkpt lat="40.91192" lon="-8.529664">
                <ele>138.8</ele>
                <time>2020-11-30T16:31:34.000Z</time>
            </trkpt>
            <trkpt lat="40.911919" lon="-8.529665">
                <ele>138.8</ele>
                <time>2020-11-30T16:31:35.000Z</time>
            </trkpt>
            <trkpt lat="40.911918" lon="-8.529665">
                <ele>138.8</ele>
                <time>2020-11-30T16:31:36.000Z</time>
            </trkpt>
            <trkpt lat="40.911918" lon="-8.529664">
                <ele>138.8</ele>
                <time>2020-11-30T16:31:37.000Z</time>
            </trkpt>
            <trkpt lat="40.911919" lon="-8.529659">
                <ele>138.7</ele>
                <time>2020-11-30T16:31:38.000Z</time>
            </trkpt>
            <trkpt lat="40.911922" lon="-8.529653">
                <ele>138.7</ele>
                <time>2020-11-30T16:31:39.000Z</time>
            </trkpt>
            <trkpt lat="40.911926" lon="-8.529643">
                <ele>138.6</ele>
                <time>2020-11-30T16:31:40.000Z</time>
            </trkpt>
            <trkpt lat="40.911932" lon="-8.529632">
                <ele>138.5</ele>
                <time>2020-11-30T16:31:41.000Z</time>
            </trkpt>
            <trkpt lat="40.911938" lon="-8.529619">
                <ele>138.4</ele>
                <time>2020-11-30T16:31:42.000Z</time>
            </trkpt>
            <trkpt lat="40.911943" lon="-8.529606">
                <ele>138.3</ele>
                <time>2020-11-30T16:31:43.000Z</time>
            </trkpt>
            <trkpt lat="40.911947" lon="-8.529593">
                <ele>138.2</ele>
                <time>2020-11-30T16:31:44.000Z</time>
            </trkpt>
            <trkpt lat="40.91195" lon="-8.529581">
                <ele>138.1</ele>
                <time>2020-11-30T16:31:45.000Z</time>
            </trkpt>
            <trkpt lat="40.911951" lon="-8.52957">
                <ele>138.1</ele>
                <time>2020-11-30T16:31:46.000Z</time>
            </trkpt>
            <trkpt lat="40.911952" lon="-8.529559">
                <ele>138.0</ele>
                <time>2020-11-30T16:31:47.000Z</time>
            </trkpt>
            <trkpt lat="40.911952" lon="-8.529548">
                <ele>137.9</ele>
                <time>2020-11-30T16:31:48.000Z</time>
            </trkpt>
            <trkpt lat="40.911951" lon="-8.529536">
                <ele>137.8</ele>
                <time>2020-11-30T16:31:49.000Z</time>
            </trkpt>
            <trkpt lat="40.911951" lon="-8.529524">
                <ele>137.8</ele>
                <time>2020-11-30T16:31:50.000Z</time>
            </trkpt>
            <trkpt lat="40.911952" lon="-8.529511">
                <ele>137.7</ele>
                <time>2020-11-30T16:31:51.000Z</time>
            </trkpt>
            <trkpt lat="40.911952" lon="-8.529499">
                <ele>137.6</ele>
                <time>2020-11-30T16:31:52.000Z</time>
            </trkpt>
            <trkpt lat="40.911951" lon="-8.529487">
                <ele>137.5</ele>
                <time>2020-11-30T16:31:53.000Z</time>
            </trkpt>
            <trkpt lat="40.911949" lon="-8.529476">
                <ele>137.4</ele>
                <time>2020-11-30T16:31:54.000Z</time>
            </trkpt>
            <trkpt lat="40.911945" lon="-8.529467">
                <ele>137.4</ele>
                <time>2020-11-30T16:31:55.000Z</time>
            </trkpt>
            <trkpt lat="40.911941" lon="-8.529458">
                <ele>137.3</ele>
                <time>2020-11-30T16:31:56.000Z</time>
            </trkpt>
            <trkpt lat="40.911936" lon="-8.52945">
                <ele>137.3</ele>
                <time>2020-11-30T16:31:57.000Z</time>
            </trkpt>
            <trkpt lat="40.91193" lon="-8.529442">
                <ele>137.2</ele>
                <time>2020-11-30T16:31:58.000Z</time>
            </trkpt>
            <trkpt lat="40.911924" lon="-8.529434">
                <ele>137.2</ele>
                <time>2020-11-30T16:31:59.000Z</time>
            </trkpt>
            <trkpt lat="40.911918" lon="-8.529425">
                <ele>137.1</ele>
                <time>2020-11-30T16:32:00.000Z</time>
            </trkpt>
            <trkpt lat="40.911913" lon="-8.529416">
                <ele>137.0</ele>
                <time>2020-11-30T16:32:01.000Z</time>
            </trkpt>
            <trkpt lat="40.911908" lon="-8.529406">
                <ele>137.0</ele>
                <time>2020-11-30T16:32:02.000Z</time>
            </trkpt>
            <trkpt lat="40.911903" lon="-8.529395">
                <ele>136.9</ele>
                <time>2020-11-30T16:32:03.000Z</time>
            </trkpt>
            <trkpt lat="40.911898" lon="-8.529385">
                <ele>136.8</ele>
                <time>2020-11-30T16:32:04.000Z</time>
            </trkpt>
            <trkpt lat="40.911894" lon="-8.529375">
                <ele>136.8</ele>
                <time>2020-11-30T16:32:05.000Z</time>
            </trkpt>
            <trkpt lat="40.911891" lon="-8.529365">
                <ele>136.7</ele>
                <time>2020-11-30T16:32:06.000Z</time>
            </trkpt>
            <trkpt lat="40.911887" lon="-8.529355">
                <ele>136.6</ele>
                <time>2020-11-30T16:32:07.000Z</time>
            </trkpt>
            <trkpt lat="40.911884" lon="-8.529345">
                <ele>136.5</ele>
                <time>2020-11-30T16:32:08.000Z</time>
            </trkpt>
            <trkpt lat="40.91188" lon="-8.529336">
                <ele>136.5</ele>
                <time>2020-11-30T16:32:09.000Z</time>
            </trkpt>
            <trkpt lat="40.911877" lon="-8.529327">
                <ele>136.4</ele>
                <time>2020-11-30T16:32:10.000Z</time>
            </trkpt>
            <trkpt lat="40.911873" lon="-8.529318">
                <ele>136.3</ele>
                <time>2020-11-30T16:32:11.000Z</time>
            </trkpt>
            <trkpt lat="40.911868" lon="-8.529309">
                <ele>136.3</ele>
                <time>2020-11-30T16:32:12.000Z</time>
            </trkpt>
            <trkpt lat="40.911864" lon="-8.5293">
                <ele>136.2</ele>
                <time>2020-11-30T16:32:13.000Z</time>
            </trkpt>
            <trkpt lat="40.911858" lon="-8.529292">
                <ele>136.1</ele>
                <time>2020-11-30T16:32:14.000Z</time>
            </trkpt>
            <trkpt lat="40.911852" lon="-8.529283">
                <ele>136.1</ele>
                <time>2020-11-30T16:32:15.000Z</time>
            </trkpt>
            <trkpt lat="40.911845" lon="-8.529275">
                <ele>136.0</ele>
                <time>2020-11-30T16:32:16.000Z</time>
            </trkpt>
            <trkpt lat="40.911837" lon="-8.529267">
                <ele>135.9</ele>
                <time>2020-11-30T16:32:17.000Z</time>
            </trkpt>
            <trkpt lat="40.911829" lon="-8.52926">
                <ele>135.9</ele>
                <time>2020-11-30T16:32:18.000Z</time>
            </trkpt>
            <trkpt lat="40.911821" lon="-8.529252">
                <ele>135.8</ele>
                <time>2020-11-30T16:32:19.000Z</time>
            </trkpt>
            <trkpt lat="40.911813" lon="-8.529243">
                <ele>135.8</ele>
                <time>2020-11-30T16:32:20.000Z</time>
            </trkpt>
            <trkpt lat="40.911804" lon="-8.529235">
                <ele>135.7</ele>
                <time>2020-11-30T16:32:21.000Z</time>
            </trkpt>
            <trkpt lat="40.911796" lon="-8.529226">
                <ele>135.6</ele>
                <time>2020-11-30T16:32:22.000Z</time>
            </trkpt>
            <trkpt lat="40.911788" lon="-8.529217">
                <ele>135.5</ele>
                <time>2020-11-30T16:32:23.000Z</time>
            </trkpt>
            <trkpt lat="40.911781" lon="-8.529208">
                <ele>135.5</ele>
                <time>2020-11-30T16:32:24.000Z</time>
            </trkpt>
            <trkpt lat="40.911774" lon="-8.529198">
                <ele>135.4</ele>
                <time>2020-11-30T16:32:25.000Z</time>
            </trkpt>
            <trkpt lat="40.911767" lon="-8.529187">
                <ele>135.3</ele>
                <time>2020-11-30T16:32:26.000Z</time>
            </trkpt>
            <trkpt lat="40.911761" lon="-8.529176">
                <ele>135.2</ele>
                <time>2020-11-30T16:32:27.000Z</time>
            </trkpt>
            <trkpt lat="40.911756" lon="-8.529164">
                <ele>135.1</ele>
                <time>2020-11-30T16:32:28.000Z</time>
            </trkpt>
            <trkpt lat="40.911752" lon="-8.529152">
                <ele>135.0</ele>
                <time>2020-11-30T16:32:29.000Z</time>
            </trkpt>
            <trkpt lat="40.911747" lon="-8.529139">
                <ele>135.0</ele>
                <time>2020-11-30T16:32:30.000Z</time>
            </trkpt>
            <trkpt lat="40.911743" lon="-8.529126">
                <ele>134.9</ele>
                <time>2020-11-30T16:32:31.000Z</time>
            </trkpt>
            <trkpt lat="40.91174" lon="-8.529113">
                <ele>134.9</ele>
                <time>2020-11-30T16:32:32.000Z</time>
            </trkpt>
            <trkpt lat="40.911737" lon="-8.529099">
                <ele>134.8</ele>
                <time>2020-11-30T16:32:33.000Z</time>
            </trkpt>
            <trkpt lat="40.911734" lon="-8.529085">
                <ele>134.8</ele>
                <time>2020-11-30T16:32:34.000Z</time>
            </trkpt>
            <trkpt lat="40.911731" lon="-8.52907">
                <ele>134.7</ele>
                <time>2020-11-30T16:32:35.000Z</time>
            </trkpt>
            <trkpt lat="40.911728" lon="-8.529055">
                <ele>134.7</ele>
                <time>2020-11-30T16:32:36.000Z</time>
            </trkpt>
            <trkpt lat="40.911726" lon="-8.52904">
                <ele>134.6</ele>
                <time>2020-11-30T16:32:37.000Z</time>
            </trkpt>
            <trkpt lat="40.911724" lon="-8.529025">
                <ele>134.6</ele>
                <time>2020-11-30T16:32:38.000Z</time>
            </trkpt>
            <trkpt lat="40.911722" lon="-8.529009">
                <ele>134.5</ele>
                <time>2020-11-30T16:32:39.000Z</time>
            </trkpt>
            <trkpt lat="40.91172" lon="-8.528993">
                <ele>134.4</ele>
                <time>2020-11-30T16:32:40.000Z</time>
            </trkpt>
            <trkpt lat="40.911718" lon="-8.528977">
                <ele>134.4</ele>
                <time>2020-11-30T16:32:41.000Z</time>
            </trkpt>
            <trkpt lat="40.911717" lon="-8.528961">
                <ele>134.3</ele>
                <time>2020-11-30T16:32:42.000Z</time>
            </trkpt>
            <trkpt lat="40.911716" lon="-8.528944">
                <ele>134.3</ele>
                <time>2020-11-30T16:32:43.000Z</time>
            </trkpt>
            <trkpt lat="40.911715" lon="-8.528928">
                <ele>134.2</ele>
                <time>2020-11-30T16:32:44.000Z</time>
            </trkpt>
            <trkpt lat="40.911714" lon="-8.528911">
                <ele>134.1</ele>
                <time>2020-11-30T16:32:45.000Z</time>
            </trkpt>
            <trkpt lat="40.911714" lon="-8.528894">
                <ele>134.1</ele>
                <time>2020-11-30T16:32:46.000Z</time>
            </trkpt>
            <trkpt lat="40.911715" lon="-8.528877">
                <ele>134.0</ele>
                <time>2020-11-30T16:32:47.000Z</time>
            </trkpt>
            <trkpt lat="40.911715" lon="-8.52886">
                <ele>134.0</ele>
                <time>2020-11-30T16:32:48.000Z</time>
            </trkpt>
            <trkpt lat="40.911716" lon="-8.528843">
                <ele>133.9</ele>
                <time>2020-11-30T16:32:49.000Z</time>
            </trkpt>
            <trkpt lat="40.911718" lon="-8.528825">
                <ele>133.8</ele>
                <time>2020-11-30T16:32:50.000Z</time>
            </trkpt>
            <trkpt lat="40.91172" lon="-8.528808">
                <ele>133.8</ele>
                <time>2020-11-30T16:32:51.000Z</time>
            </trkpt>
            <trkpt lat="40.911722" lon="-8.528791">
                <ele>133.7</ele>
                <time>2020-11-30T16:32:52.000Z</time>
            </trkpt>
            <trkpt lat="40.911725" lon="-8.528773">
                <ele>133.7</ele>
                <time>2020-11-30T16:32:53.000Z</time>
            </trkpt>
            <trkpt lat="40.911729" lon="-8.528756">
                <ele>133.6</ele>
                <time>2020-11-30T16:32:54.000Z</time>
            </trkpt>
            <trkpt lat="40.911733" lon="-8.528739">
                <ele>133.5</ele>
                <time>2020-11-30T16:32:55.000Z</time>
            </trkpt>
            <trkpt lat="40.911738" lon="-8.528721">
                <ele>133.5</ele>
                <time>2020-11-30T16:32:56.000Z</time>
            </trkpt>
            <trkpt lat="40.911742" lon="-8.528704">
                <ele>133.4</ele>
                <time>2020-11-30T16:32:57.000Z</time>
            </trkpt>
            <trkpt lat="40.911746" lon="-8.528687">
                <ele>133.4</ele>
                <time>2020-11-30T16:32:58.000Z</time>
            </trkpt>
            <trkpt lat="40.911749" lon="-8.528671">
                <ele>133.3</ele>
                <time>2020-11-30T16:32:59.000Z</time>
            </trkpt>
            <trkpt lat="40.91175" lon="-8.528655">
                <ele>133.3</ele>
                <time>2020-11-30T16:33:00.000Z</time>
            </trkpt>
            <trkpt lat="40.911749" lon="-8.52864">
                <ele>133.2</ele>
                <time>2020-11-30T16:33:01.000Z</time>
            </trkpt>
            <trkpt lat="40.911745" lon="-8.528626">
                <ele>133.1</ele>
                <time>2020-11-30T16:33:02.000Z</time>
            </trkpt>
            <trkpt lat="40.911739" lon="-8.528612">
                <ele>133.1</ele>
                <time>2020-11-30T16:33:03.000Z</time>
            </trkpt>
            <trkpt lat="40.911732" lon="-8.528599">
                <ele>133.0</ele>
                <time>2020-11-30T16:33:04.000Z</time>
            </trkpt>
            <trkpt lat="40.911724" lon="-8.528586">
                <ele>133.0</ele>
                <time>2020-11-30T16:33:05.000Z</time>
            </trkpt>
            <trkpt lat="40.911716" lon="-8.528574">
                <ele>132.9</ele>
                <time>2020-11-30T16:33:06.000Z</time>
            </trkpt>
            <trkpt lat="40.911708" lon="-8.528561">
                <ele>132.9</ele>
                <time>2020-11-30T16:33:07.000Z</time>
            </trkpt>
            <trkpt lat="40.911701" lon="-8.528548">
                <ele>132.8</ele>
                <time>2020-11-30T16:33:08.000Z</time>
            </trkpt>
            <trkpt lat="40.911694" lon="-8.528535">
                <ele>132.8</ele>
                <time>2020-11-30T16:33:09.000Z</time>
            </trkpt>
            <trkpt lat="40.911688" lon="-8.528521">
                <ele>132.7</ele>
                <time>2020-11-30T16:33:10.000Z</time>
            </trkpt>
            <trkpt lat="40.911683" lon="-8.528508">
                <ele>132.6</ele>
                <time>2020-11-30T16:33:11.000Z</time>
            </trkpt>
            <trkpt lat="40.911678" lon="-8.528494">
                <ele>132.6</ele>
                <time>2020-11-30T16:33:12.000Z</time>
            </trkpt>
            <trkpt lat="40.911674" lon="-8.52848">
                <ele>132.5</ele>
                <time>2020-11-30T16:33:13.000Z</time>
            </trkpt>
            <trkpt lat="40.911671" lon="-8.528466">
                <ele>132.5</ele>
                <time>2020-11-30T16:33:14.000Z</time>
            </trkpt>
            <trkpt lat="40.911669" lon="-8.528451">
                <ele>132.4</ele>
                <time>2020-11-30T16:33:15.000Z</time>
            </trkpt>
            <trkpt lat="40.911667" lon="-8.528436">
                <ele>132.4</ele>
                <time>2020-11-30T16:33:16.000Z</time>
            </trkpt>
            <trkpt lat="40.911667" lon="-8.528421">
                <ele>132.3</ele>
                <time>2020-11-30T16:33:17.000Z</time>
            </trkpt>
            <trkpt lat="40.911667" lon="-8.528406">
                <ele>132.3</ele>
                <time>2020-11-30T16:33:18.000Z</time>
            </trkpt>
            <trkpt lat="40.911667" lon="-8.52839">
                <ele>132.2</ele>
                <time>2020-11-30T16:33:19.000Z</time>
            </trkpt>
            <trkpt lat="40.911669" lon="-8.528375">
                <ele>132.2</ele>
                <time>2020-11-30T16:33:20.000Z</time>
            </trkpt>
            <trkpt lat="40.91167" lon="-8.52836">
                <ele>132.1</ele>
                <time>2020-11-30T16:33:21.000Z</time>
            </trkpt>
            <trkpt lat="40.911672" lon="-8.528347">
                <ele>132.1</ele>
                <time>2020-11-30T16:33:22.000Z</time>
            </trkpt>
            <trkpt lat="40.911674" lon="-8.528334">
                <ele>132.0</ele>
                <time>2020-11-30T16:33:23.000Z</time>
            </trkpt>
            <trkpt lat="40.911675" lon="-8.528322">
                <ele>132.1</ele>
                <time>2020-11-30T16:33:24.000Z</time>
            </trkpt>
            <trkpt lat="40.911677" lon="-8.528311">
                <ele>132.1</ele>
                <time>2020-11-30T16:33:25.000Z</time>
            </trkpt>
            <trkpt lat="40.911678" lon="-8.528303">
                <ele>132.2</ele>
                <time>2020-11-30T16:33:26.000Z</time>
            </trkpt>
            <trkpt lat="40.911679" lon="-8.528296">
                <ele>132.2</ele>
                <time>2020-11-30T16:33:27.000Z</time>
            </trkpt>
            <trkpt lat="40.911679" lon="-8.528291">
                <ele>132.2</ele>
                <time>2020-11-30T16:33:28.000Z</time>
            </trkpt>
            <trkpt lat="40.911679" lon="-8.528287">
                <ele>132.2</ele>
                <time>2020-11-30T16:33:29.000Z</time>
            </trkpt>
            <trkpt lat="40.911681" lon="-8.528284">
                <ele>132.3</ele>
                <time>2020-11-30T16:33:30.000Z</time>
            </trkpt>
            <trkpt lat="40.911684" lon="-8.528281">
                <ele>132.3</ele>
                <time>2020-11-30T16:33:31.000Z</time>
            </trkpt>
        </trkseg>
        <trkseg>
            <trkpt lat="40.91169" lon="-8.528277">
                <ele>132.3</ele>
                <time>2020-11-30T16:33:56.000Z</time>
            </trkpt>
            <trkpt lat="40.911699" lon="-8.528272">
                <ele>132.3</ele>
                <time>2020-11-30T16:33:57.000Z</time>
            </trkpt>
            <trkpt lat="40.91171" lon="-8.528265">
                <ele>132.4</ele>
                <time>2020-11-30T16:33:58.000Z</time>
            </trkpt>
            <trkpt lat="40.911724" lon="-8.528257">
                <ele>132.4</ele>
                <time>2020-11-30T16:33:59.000Z</time>
            </trkpt>
            <trkpt lat="40.911738" lon="-8.528247">
                <ele>132.5</ele>
                <time>2020-11-30T16:34:00.000Z</time>
            </trkpt>
            <trkpt lat="40.911753" lon="-8.528235">
                <ele>132.6</ele>
                <time>2020-11-30T16:34:01.000Z</time>
            </trkpt>
            <trkpt lat="40.911768" lon="-8.52822">
                <ele>132.7</ele>
                <time>2020-11-30T16:34:02.000Z</time>
            </trkpt>
            <trkpt lat="40.911782" lon="-8.528204">
                <ele>132.8</ele>
                <time>2020-11-30T16:34:03.000Z</time>
            </trkpt>
            <trkpt lat="40.911795" lon="-8.528186">
                <ele>132.9</ele>
                <time>2020-11-30T16:34:04.000Z</time>
            </trkpt>
            <trkpt lat="40.911808" lon="-8.528166">
                <ele>133.0</ele>
                <time>2020-11-30T16:34:05.000Z</time>
            </trkpt>
            <trkpt lat="40.91182" lon="-8.528145">
                <ele>133.1</ele>
                <time>2020-11-30T16:34:06.000Z</time>
            </trkpt>
            <trkpt lat="40.911832" lon="-8.528122">
                <ele>133.2</ele>
                <time>2020-11-30T16:34:07.000Z</time>
            </trkpt>
            <trkpt lat="40.911843" lon="-8.528097">
                <ele>133.3</ele>
                <time>2020-11-30T16:34:08.000Z</time>
            </trkpt>
            <trkpt lat="40.911854" lon="-8.528071">
                <ele>133.5</ele>
                <time>2020-11-30T16:34:09.000Z</time>
            </trkpt>
            <trkpt lat="40.911863" lon="-8.528044">
                <ele>133.6</ele>
                <time>2020-11-30T16:34:10.000Z</time>
            </trkpt>
            <trkpt lat="40.911872" lon="-8.528016">
                <ele>133.8</ele>
                <time>2020-11-30T16:34:11.000Z</time>
            </trkpt>
            <trkpt lat="40.911881" lon="-8.527987">
                <ele>133.9</ele>
                <time>2020-11-30T16:34:12.000Z</time>
            </trkpt>
            <trkpt lat="40.911888" lon="-8.527957">
                <ele>134.1</ele>
                <time>2020-11-30T16:34:13.000Z</time>
            </trkpt>
            <trkpt lat="40.911895" lon="-8.527926">
                <ele>134.2</ele>
                <time>2020-11-30T16:34:14.000Z</time>
            </trkpt>
            <trkpt lat="40.911902" lon="-8.527895">
                <ele>134.4</ele>
                <time>2020-11-30T16:34:15.000Z</time>
            </trkpt>
            <trkpt lat="40.911908" lon="-8.527863">
                <ele>134.5</ele>
                <time>2020-11-30T16:34:16.000Z</time>
            </trkpt>
            <trkpt lat="40.911913" lon="-8.527832">
                <ele>134.7</ele>
                <time>2020-11-30T16:34:17.000Z</time>
            </trkpt>
            <trkpt lat="40.911919" lon="-8.5278">
                <ele>134.9</ele>
                <time>2020-11-30T16:34:18.000Z</time>
            </trkpt>
            <trkpt lat="40.911924" lon="-8.527769">
                <ele>135.0</ele>
                <time>2020-11-30T16:34:19.000Z</time>
            </trkpt>
            <trkpt lat="40.91193" lon="-8.527738">
                <ele>135.2</ele>
                <time>2020-11-30T16:34:20.000Z</time>
            </trkpt>
            <trkpt lat="40.911935" lon="-8.527708">
                <ele>135.3</ele>
                <time>2020-11-30T16:34:21.000Z</time>
            </trkpt>
            <trkpt lat="40.911941" lon="-8.527678">
                <ele>135.5</ele>
                <time>2020-11-30T16:34:22.000Z</time>
            </trkpt>
            <trkpt lat="40.911947" lon="-8.52765">
                <ele>135.6</ele>
                <time>2020-11-30T16:34:23.000Z</time>
            </trkpt>
            <trkpt lat="40.911953" lon="-8.527622">
                <ele>135.8</ele>
                <time>2020-11-30T16:34:24.000Z</time>
            </trkpt>
            <trkpt lat="40.911959" lon="-8.527595">
                <ele>135.9</ele>
                <time>2020-11-30T16:34:25.000Z</time>
            </trkpt>
            <trkpt lat="40.911965" lon="-8.527568">
                <ele>136.0</ele>
                <time>2020-11-30T16:34:26.000Z</time>
            </trkpt>
            <trkpt lat="40.91197" lon="-8.52754">
                <ele>136.2</ele>
                <time>2020-11-30T16:34:27.000Z</time>
            </trkpt>
            <trkpt lat="40.911975" lon="-8.527513">
                <ele>136.3</ele>
                <time>2020-11-30T16:34:28.000Z</time>
            </trkpt>
            <trkpt lat="40.911979" lon="-8.527487">
                <ele>136.4</ele>
                <time>2020-11-30T16:34:29.000Z</time>
            </trkpt>
            <trkpt lat="40.911981" lon="-8.527464">
                <ele>136.5</ele>
                <time>2020-11-30T16:34:30.000Z</time>
            </trkpt>
            <trkpt lat="40.911983" lon="-8.527443">
                <ele>136.7</ele>
                <time>2020-11-30T16:34:31.000Z</time>
            </trkpt>
            <trkpt lat="40.911983" lon="-8.527428">
                <ele>136.7</ele>
                <time>2020-11-30T16:34:32.000Z</time>
            </trkpt>
            <trkpt lat="40.911982" lon="-8.527419">
                <ele>136.8</ele>
                <time>2020-11-30T16:34:33.000Z</time>
            </trkpt>
            <trkpt lat="40.911982" lon="-8.527414">
                <ele>136.8</ele>
                <time>2020-11-30T16:34:34.000Z</time>
            </trkpt>
            <trkpt lat="40.911984" lon="-8.527411">
                <ele>136.8</ele>
                <time>2020-11-30T16:34:35.000Z</time>
            </trkpt>
            <trkpt lat="40.911991" lon="-8.527409">
                <ele>136.8</ele>
                <time>2020-11-30T16:34:36.000Z</time>
            </trkpt>
            <trkpt lat="40.912001" lon="-8.527405">
                <ele>136.9</ele>
                <time>2020-11-30T16:34:37.000Z</time>
            </trkpt>
            <trkpt lat="40.912012" lon="-8.5274">
                <ele>136.9</ele>
                <time>2020-11-30T16:34:38.000Z</time>
            </trkpt>
            <trkpt lat="40.912022" lon="-8.527391">
                <ele>136.9</ele>
                <time>2020-11-30T16:34:39.000Z</time>
            </trkpt>
            <trkpt lat="40.91203" lon="-8.527374">
                <ele>137.0</ele>
                <time>2020-11-30T16:34:40.000Z</time>
            </trkpt>
            <trkpt lat="40.912034" lon="-8.527347">
                <ele>137.2</ele>
                <time>2020-11-30T16:34:41.000Z</time>
            </trkpt>
            <trkpt lat="40.912035" lon="-8.527315">
                <ele>137.3</ele>
                <time>2020-11-30T16:34:42.000Z</time>
            </trkpt>
            <trkpt lat="40.912036" lon="-8.527281">
                <ele>137.5</ele>
                <time>2020-11-30T16:34:43.000Z</time>
            </trkpt>
            <trkpt lat="40.912037" lon="-8.527246">
                <ele>137.7</ele>
                <time>2020-11-30T16:34:44.000Z</time>
            </trkpt>
            <trkpt lat="40.912038" lon="-8.52721">
                <ele>137.8</ele>
                <time>2020-11-30T16:34:45.000Z</time>
            </trkpt>
            <trkpt lat="40.912039" lon="-8.527174">
                <ele>138.0</ele>
                <time>2020-11-30T16:34:46.000Z</time>
            </trkpt>
            <trkpt lat="40.912041" lon="-8.527138">
                <ele>138.2</ele>
                <time>2020-11-30T16:34:47.000Z</time>
            </trkpt>
            <trkpt lat="40.912043" lon="-8.527102">
                <ele>138.4</ele>
                <time>2020-11-30T16:34:48.000Z</time>
            </trkpt>
            <trkpt lat="40.912045" lon="-8.527067">
                <ele>138.5</ele>
                <time>2020-11-30T16:34:49.000Z</time>
            </trkpt>
            <trkpt lat="40.912047" lon="-8.527031">
                <ele>138.7</ele>
                <time>2020-11-30T16:34:50.000Z</time>
            </trkpt>
            <trkpt lat="40.91205" lon="-8.526996">
                <ele>138.9</ele>
                <time>2020-11-30T16:34:51.000Z</time>
            </trkpt>
            <trkpt lat="40.912053" lon="-8.526962">
                <ele>139.0</ele>
                <time>2020-11-30T16:34:52.000Z</time>
            </trkpt>
            <trkpt lat="40.912057" lon="-8.526928">
                <ele>139.2</ele>
                <time>2020-11-30T16:34:53.000Z</time>
            </trkpt>
            <trkpt lat="40.912061" lon="-8.526896">
                <ele>139.4</ele>
                <time>2020-11-30T16:34:54.000Z</time>
            </trkpt>
            <trkpt lat="40.912065" lon="-8.526865">
                <ele>139.5</ele>
                <time>2020-11-30T16:34:55.000Z</time>
            </trkpt>
            <trkpt lat="40.91207" lon="-8.526834">
                <ele>139.7</ele>
                <time>2020-11-30T16:34:56.000Z</time>
            </trkpt>
            <trkpt lat="40.912074" lon="-8.526804">
                <ele>139.8</ele>
                <time>2020-11-30T16:34:57.000Z</time>
            </trkpt>
            <trkpt lat="40.912079" lon="-8.526773">
                <ele>140.0</ele>
                <time>2020-11-30T16:34:58.000Z</time>
            </trkpt>
            <trkpt lat="40.912084" lon="-8.526743">
                <ele>140.1</ele>
                <time>2020-11-30T16:34:59.000Z</time>
            </trkpt>
            <trkpt lat="40.91209" lon="-8.526713">
                <ele>140.3</ele>
                <time>2020-11-30T16:35:00.000Z</time>
            </trkpt>
            <trkpt lat="40.912095" lon="-8.526683">
                <ele>140.4</ele>
                <time>2020-11-30T16:35:01.000Z</time>
            </trkpt>
            <trkpt lat="40.912101" lon="-8.526651">
                <ele>140.6</ele>
                <time>2020-11-30T16:35:02.000Z</time>
            </trkpt>
            <trkpt lat="40.912106" lon="-8.526619">
                <ele>140.8</ele>
                <time>2020-11-30T16:35:03.000Z</time>
            </trkpt>
            <trkpt lat="40.912111" lon="-8.526586">
                <ele>141.1</ele>
                <time>2020-11-30T16:35:04.000Z</time>
            </trkpt>
            <trkpt lat="40.912117" lon="-8.526553">
                <ele>141.3</ele>
                <time>2020-11-30T16:35:05.000Z</time>
            </trkpt>
            <trkpt lat="40.912122" lon="-8.526518">
                <ele>141.6</ele>
                <time>2020-11-30T16:35:06.000Z</time>
            </trkpt>
            <trkpt lat="40.912127" lon="-8.526484">
                <ele>141.8</ele>
                <time>2020-11-30T16:35:07.000Z</time>
            </trkpt>
            <trkpt lat="40.912133" lon="-8.52645">
                <ele>142.0</ele>
                <time>2020-11-30T16:35:08.000Z</time>
            </trkpt>
            <trkpt lat="40.912139" lon="-8.526416">
                <ele>142.3</ele>
                <time>2020-11-30T16:35:09.000Z</time>
            </trkpt>
            <trkpt lat="40.912145" lon="-8.526384">
                <ele>142.5</ele>
                <time>2020-11-30T16:35:10.000Z</time>
            </trkpt>
            <trkpt lat="40.912151" lon="-8.526352">
                <ele>142.7</ele>
                <time>2020-11-30T16:35:11.000Z</time>
            </trkpt>
            <trkpt lat="40.912158" lon="-8.526321">
                <ele>143.0</ele>
                <time>2020-11-30T16:35:12.000Z</time>
            </trkpt>
            <trkpt lat="40.912165" lon="-8.526293">
                <ele>143.2</ele>
                <time>2020-11-30T16:35:13.000Z</time>
            </trkpt>
            <trkpt lat="40.912173" lon="-8.526266">
                <ele>143.4</ele>
                <time>2020-11-30T16:35:14.000Z</time>
            </trkpt>
            <trkpt lat="40.912181" lon="-8.52624">
                <ele>143.6</ele>
                <time>2020-11-30T16:35:15.000Z</time>
            </trkpt>
            <trkpt lat="40.912189" lon="-8.526215">
                <ele>143.8</ele>
                <time>2020-11-30T16:35:16.000Z</time>
            </trkpt>
            <trkpt lat="40.912197" lon="-8.526191">
                <ele>144.0</ele>
                <time>2020-11-30T16:35:17.000Z</time>
            </trkpt>
            <trkpt lat="40.912204" lon="-8.526165">
                <ele>144.2</ele>
                <time>2020-11-30T16:35:18.000Z</time>
            </trkpt>
            <trkpt lat="40.912211" lon="-8.526139">
                <ele>144.4</ele>
                <time>2020-11-30T16:35:19.000Z</time>
            </trkpt>
            <trkpt lat="40.912217" lon="-8.526112">
                <ele>144.6</ele>
                <time>2020-11-30T16:35:20.000Z</time>
            </trkpt>
            <trkpt lat="40.91222" lon="-8.526084">
                <ele>144.9</ele>
                <time>2020-11-30T16:35:21.000Z</time>
            </trkpt>
            <trkpt lat="40.912219" lon="-8.526056">
                <ele>145.1</ele>
                <time>2020-11-30T16:35:22.000Z</time>
            </trkpt>
            <trkpt lat="40.912215" lon="-8.526028">
                <ele>145.2</ele>
                <time>2020-11-30T16:35:23.000Z</time>
            </trkpt>
            <trkpt lat="40.912205" lon="-8.526">
                <ele>145.4</ele>
                <time>2020-11-30T16:35:24.000Z</time>
            </trkpt>
            <trkpt lat="40.912191" lon="-8.525972">
                <ele>145.5</ele>
                <time>2020-11-30T16:35:25.000Z</time>
            </trkpt>
            <trkpt lat="40.912173" lon="-8.525946">
                <ele>145.6</ele>
                <time>2020-11-30T16:35:26.000Z</time>
            </trkpt>
            <trkpt lat="40.912152" lon="-8.525921">
                <ele>145.7</ele>
                <time>2020-11-30T16:35:27.000Z</time>
            </trkpt>
            <trkpt lat="40.912129" lon="-8.525898">
                <ele>145.8</ele>
                <time>2020-11-30T16:35:28.000Z</time>
            </trkpt>
            <trkpt lat="40.912105" lon="-8.525878">
                <ele>145.8</ele>
                <time>2020-11-30T16:35:29.000Z</time>
            </trkpt>
            <trkpt lat="40.912081" lon="-8.52586">
                <ele>145.8</ele>
                <time>2020-11-30T16:35:30.000Z</time>
            </trkpt>
            <trkpt lat="40.912056" lon="-8.525845">
                <ele>145.8</ele>
                <time>2020-11-30T16:35:31.000Z</time>
            </trkpt>
            <trkpt lat="40.912032" lon="-8.525831">
                <ele>145.8</ele>
                <time>2020-11-30T16:35:32.000Z</time>
            </trkpt>
            <trkpt lat="40.912007" lon="-8.525818">
                <ele>145.7</ele>
                <time>2020-11-30T16:35:33.000Z</time>
            </trkpt>
            <trkpt lat="40.911982" lon="-8.525805">
                <ele>145.6</ele>
                <time>2020-11-30T16:35:34.000Z</time>
            </trkpt>
            <trkpt lat="40.911958" lon="-8.525792">
                <ele>145.5</ele>
                <time>2020-11-30T16:35:35.000Z</time>
            </trkpt>
            <trkpt lat="40.911934" lon="-8.525779">
                <ele>145.5</ele>
                <time>2020-11-30T16:35:36.000Z</time>
            </trkpt>
            <trkpt lat="40.91191" lon="-8.525766">
                <ele>145.4</ele>
                <time>2020-11-30T16:35:37.000Z</time>
            </trkpt>
            <trkpt lat="40.911886" lon="-8.525752">
                <ele>145.4</ele>
                <time>2020-11-30T16:35:38.000Z</time>
            </trkpt>
            <trkpt lat="40.911862" lon="-8.525738">
                <ele>145.3</ele>
                <time>2020-11-30T16:35:39.000Z</time>
            </trkpt>
            <trkpt lat="40.911839" lon="-8.525725">
                <ele>145.3</ele>
                <time>2020-11-30T16:35:40.000Z</time>
            </trkpt>
            <trkpt lat="40.911816" lon="-8.525711">
                <ele>145.2</ele>
                <time>2020-11-30T16:35:41.000Z</time>
            </trkpt>
            <trkpt lat="40.911792" lon="-8.525698">
                <ele>145.2</ele>
                <time>2020-11-30T16:35:42.000Z</time>
            </trkpt>
            <trkpt lat="40.911769" lon="-8.525685">
                <ele>145.1</ele>
                <time>2020-11-30T16:35:43.000Z</time>
            </trkpt>
            <trkpt lat="40.911746" lon="-8.525672">
                <ele>145.1</ele>
                <time>2020-11-30T16:35:44.000Z</time>
            </trkpt>
            <trkpt lat="40.911723" lon="-8.525659">
                <ele>145.1</ele>
                <time>2020-11-30T16:35:45.000Z</time>
            </trkpt>
            <trkpt lat="40.911699" lon="-8.525647">
                <ele>145.0</ele>
                <time>2020-11-30T16:35:46.000Z</time>
            </trkpt>
            <trkpt lat="40.911676" lon="-8.525636">
                <ele>145.0</ele>
                <time>2020-11-30T16:35:47.000Z</time>
            </trkpt>
            <trkpt lat="40.911653" lon="-8.525624">
                <ele>145.0</ele>
                <time>2020-11-30T16:35:48.000Z</time>
            </trkpt>
            <trkpt lat="40.91163" lon="-8.525613">
                <ele>145.0</ele>
                <time>2020-11-30T16:35:49.000Z</time>
            </trkpt>
            <trkpt lat="40.911607" lon="-8.525602">
                <ele>145.0</ele>
                <time>2020-11-30T16:35:50.000Z</time>
            </trkpt>
            <trkpt lat="40.911584" lon="-8.525591">
                <ele>145.1</ele>
                <time>2020-11-30T16:35:51.000Z</time>
            </trkpt>
            <trkpt lat="40.91156" lon="-8.52558">
                <ele>145.1</ele>
                <time>2020-11-30T16:35:52.000Z</time>
            </trkpt>
            <trkpt lat="40.911537" lon="-8.52557">
                <ele>145.1</ele>
                <time>2020-11-30T16:35:53.000Z</time>
            </trkpt>
            <trkpt lat="40.911514" lon="-8.525559">
                <ele>145.1</ele>
                <time>2020-11-30T16:35:54.000Z</time>
            </trkpt>
            <trkpt lat="40.911491" lon="-8.525548">
                <ele>145.2</ele>
                <time>2020-11-30T16:35:55.000Z</time>
            </trkpt>
            <trkpt lat="40.911468" lon="-8.525538">
                <ele>145.2</ele>
                <time>2020-11-30T16:35:56.000Z</time>
            </trkpt>
            <trkpt lat="40.911445" lon="-8.525527">
                <ele>145.2</ele>
                <time>2020-11-30T16:35:57.000Z</time>
            </trkpt>
            <trkpt lat="40.911422" lon="-8.525515">
                <ele>145.2</ele>
                <time>2020-11-30T16:35:58.000Z</time>
            </trkpt>
            <trkpt lat="40.9114" lon="-8.525504">
                <ele>145.3</ele>
                <time>2020-11-30T16:35:59.000Z</time>
            </trkpt>
            <trkpt lat="40.911377" lon="-8.525493">
                <ele>145.3</ele>
                <time>2020-11-30T16:36:00.000Z</time>
            </trkpt>
            <trkpt lat="40.911354" lon="-8.525481">
                <ele>145.3</ele>
                <time>2020-11-30T16:36:01.000Z</time>
            </trkpt>
            <trkpt lat="40.911331" lon="-8.525468">
                <ele>145.4</ele>
                <time>2020-11-30T16:36:02.000Z</time>
            </trkpt>
            <trkpt lat="40.911309" lon="-8.525456">
                <ele>145.4</ele>
                <time>2020-11-30T16:36:03.000Z</time>
            </trkpt>
            <trkpt lat="40.911286" lon="-8.525443">
                <ele>145.4</ele>
                <time>2020-11-30T16:36:04.000Z</time>
            </trkpt>
            <trkpt lat="40.911263" lon="-8.525429">
                <ele>145.5</ele>
                <time>2020-11-30T16:36:05.000Z</time>
            </trkpt>
            <trkpt lat="40.911241" lon="-8.525415">
                <ele>145.5</ele>
                <time>2020-11-30T16:36:06.000Z</time>
            </trkpt>
            <trkpt lat="40.911219" lon="-8.525401">
                <ele>145.5</ele>
                <time>2020-11-30T16:36:07.000Z</time>
            </trkpt>
            <trkpt lat="40.911196" lon="-8.525387">
                <ele>145.6</ele>
                <time>2020-11-30T16:36:08.000Z</time>
            </trkpt>
            <trkpt lat="40.911174" lon="-8.525374">
                <ele>145.6</ele>
                <time>2020-11-30T16:36:09.000Z</time>
            </trkpt>
            <trkpt lat="40.911151" lon="-8.525361">
                <ele>145.6</ele>
                <time>2020-11-30T16:36:10.000Z</time>
            </trkpt>
            <trkpt lat="40.911129" lon="-8.525349">
                <ele>145.7</ele>
                <time>2020-11-30T16:36:11.000Z</time>
            </trkpt>
            <trkpt lat="40.911107" lon="-8.525336">
                <ele>145.7</ele>
                <time>2020-11-30T16:36:12.000Z</time>
            </trkpt>
            <trkpt lat="40.911084" lon="-8.525324">
                <ele>145.7</ele>
                <time>2020-11-30T16:36:13.000Z</time>
            </trkpt>
            <trkpt lat="40.911062" lon="-8.525311">
                <ele>145.8</ele>
                <time>2020-11-30T16:36:14.000Z</time>
            </trkpt>
            <trkpt lat="40.911039" lon="-8.525296">
                <ele>145.8</ele>
                <time>2020-11-30T16:36:15.000Z</time>
            </trkpt>
            <trkpt lat="40.911016" lon="-8.52528">
                <ele>145.9</ele>
                <time>2020-11-30T16:36:16.000Z</time>
            </trkpt>
            <trkpt lat="40.910993" lon="-8.525263">
                <ele>145.9</ele>
                <time>2020-11-30T16:36:17.000Z</time>
            </trkpt>
            <trkpt lat="40.910969" lon="-8.525246">
                <ele>146.0</ele>
                <time>2020-11-30T16:36:18.000Z</time>
            </trkpt>
            <trkpt lat="40.910946" lon="-8.52523">
                <ele>146.0</ele>
                <time>2020-11-30T16:36:19.000Z</time>
            </trkpt>
            <trkpt lat="40.910922" lon="-8.525215">
                <ele>146.1</ele>
                <time>2020-11-30T16:36:20.000Z</time>
            </trkpt>
            <trkpt lat="40.910898" lon="-8.525203">
                <ele>146.1</ele>
                <time>2020-11-30T16:36:21.000Z</time>
            </trkpt>
            <trkpt lat="40.910874" lon="-8.525192">
                <ele>146.1</ele>
                <time>2020-11-30T16:36:22.000Z</time>
            </trkpt>
            <trkpt lat="40.910853" lon="-8.525181">
                <ele>146.2</ele>
                <time>2020-11-30T16:36:23.000Z</time>
            </trkpt>
            <trkpt lat="40.910834" lon="-8.525167">
                <ele>146.2</ele>
                <time>2020-11-30T16:36:24.000Z</time>
            </trkpt>
            <trkpt lat="40.910819" lon="-8.52515">
                <ele>146.2</ele>
                <time>2020-11-30T16:36:25.000Z</time>
            </trkpt>
            <trkpt lat="40.910809" lon="-8.525129">
                <ele>146.2</ele>
                <time>2020-11-30T16:36:26.000Z</time>
            </trkpt>
            <trkpt lat="40.910802" lon="-8.525103">
                <ele>146.3</ele>
                <time>2020-11-30T16:36:27.000Z</time>
            </trkpt>
            <trkpt lat="40.910798" lon="-8.525074">
                <ele>146.4</ele>
                <time>2020-11-30T16:36:28.000Z</time>
            </trkpt>
            <trkpt lat="40.910794" lon="-8.525044">
                <ele>146.5</ele>
                <time>2020-11-30T16:36:29.000Z</time>
            </trkpt>
            <trkpt lat="40.91079" lon="-8.525013">
                <ele>146.6</ele>
                <time>2020-11-30T16:36:30.000Z</time>
            </trkpt>
            <trkpt lat="40.910786" lon="-8.524981">
                <ele>146.6</ele>
                <time>2020-11-30T16:36:31.000Z</time>
            </trkpt>
            <trkpt lat="40.910781" lon="-8.524951">
                <ele>146.7</ele>
                <time>2020-11-30T16:36:32.000Z</time>
            </trkpt>
            <trkpt lat="40.910777" lon="-8.524922">
                <ele>146.7</ele>
                <time>2020-11-30T16:36:33.000Z</time>
            </trkpt>
            <trkpt lat="40.910776" lon="-8.524895">
                <ele>146.7</ele>
                <time>2020-11-30T16:36:34.000Z</time>
            </trkpt>
            <trkpt lat="40.910778" lon="-8.52487">
                <ele>146.8</ele>
                <time>2020-11-30T16:36:35.000Z</time>
            </trkpt>
            <trkpt lat="40.910785" lon="-8.524848">
                <ele>146.9</ele>
                <time>2020-11-30T16:36:36.000Z</time>
            </trkpt>
            <trkpt lat="40.910796" lon="-8.524829">
                <ele>147.1</ele>
                <time>2020-11-30T16:36:37.000Z</time>
            </trkpt>
            <trkpt lat="40.91081" lon="-8.524812">
                <ele>147.2</ele>
                <time>2020-11-30T16:36:38.000Z</time>
            </trkpt>
            <trkpt lat="40.910826" lon="-8.524797">
                <ele>147.4</ele>
                <time>2020-11-30T16:36:39.000Z</time>
            </trkpt>
            <trkpt lat="40.910843" lon="-8.524784">
                <ele>147.5</ele>
                <time>2020-11-30T16:36:40.000Z</time>
            </trkpt>
            <trkpt lat="40.910861" lon="-8.524772">
                <ele>147.6</ele>
                <time>2020-11-30T16:36:41.000Z</time>
            </trkpt>
            <trkpt lat="40.910878" lon="-8.524761">
                <ele>147.6</ele>
                <time>2020-11-30T16:36:42.000Z</time>
            </trkpt>
            <trkpt lat="40.910894" lon="-8.524749">
                <ele>147.7</ele>
                <time>2020-11-30T16:36:43.000Z</time>
            </trkpt>
            <trkpt lat="40.910908" lon="-8.524737">
                <ele>147.7</ele>
                <time>2020-11-30T16:36:44.000Z</time>
            </trkpt>
            <trkpt lat="40.910918" lon="-8.524723">
                <ele>147.7</ele>
                <time>2020-11-30T16:36:45.000Z</time>
            </trkpt>
            <trkpt lat="40.910925" lon="-8.524707">
                <ele>147.8</ele>
                <time>2020-11-30T16:36:46.000Z</time>
            </trkpt>
            <trkpt lat="40.910929" lon="-8.524691">
                <ele>147.8</ele>
                <time>2020-11-30T16:36:47.000Z</time>
            </trkpt>
            <trkpt lat="40.910931" lon="-8.524677">
                <ele>147.8</ele>
                <time>2020-11-30T16:36:48.000Z</time>
            </trkpt>
            <trkpt lat="40.910931" lon="-8.524666">
                <ele>147.9</ele>
                <time>2020-11-30T16:36:49.000Z</time>
            </trkpt>
            <trkpt lat="40.910932" lon="-8.524657">
                <ele>147.9</ele>
                <time>2020-11-30T16:36:50.000Z</time>
            </trkpt>
            <trkpt lat="40.910933" lon="-8.524648">
                <ele>147.9</ele>
                <time>2020-11-30T16:36:51.000Z</time>
            </trkpt>
            <trkpt lat="40.910937" lon="-8.524639">
                <ele>147.9</ele>
                <time>2020-11-30T16:36:52.000Z</time>
            </trkpt>
            <trkpt lat="40.910943" lon="-8.52463">
                <ele>148.0</ele>
                <time>2020-11-30T16:36:53.000Z</time>
            </trkpt>
            <trkpt lat="40.910951" lon="-8.524619">
                <ele>148.0</ele>
                <time>2020-11-30T16:36:54.000Z</time>
            </trkpt>
            <trkpt lat="40.910959" lon="-8.524607">
                <ele>148.0</ele>
                <time>2020-11-30T16:36:55.000Z</time>
            </trkpt>
            <trkpt lat="40.910967" lon="-8.524593">
                <ele>148.1</ele>
                <time>2020-11-30T16:36:56.000Z</time>
            </trkpt>
            <trkpt lat="40.910974" lon="-8.524578">
                <ele>148.1</ele>
                <time>2020-11-30T16:36:57.000Z</time>
            </trkpt>
            <trkpt lat="40.910978" lon="-8.524561">
                <ele>148.1</ele>
                <time>2020-11-30T16:36:58.000Z</time>
            </trkpt>
            <trkpt lat="40.910975" lon="-8.524544">
                <ele>148.2</ele>
                <time>2020-11-30T16:36:59.000Z</time>
            </trkpt>
            <trkpt lat="40.910964" lon="-8.524528">
                <ele>148.2</ele>
                <time>2020-11-30T16:37:00.000Z</time>
            </trkpt>
            <trkpt lat="40.910948" lon="-8.524515">
                <ele>148.2</ele>
                <time>2020-11-30T16:37:01.000Z</time>
            </trkpt>
            <trkpt lat="40.910929" lon="-8.524507">
                <ele>148.2</ele>
                <time>2020-11-30T16:37:02.000Z</time>
            </trkpt>
            <trkpt lat="40.91091" lon="-8.524504">
                <ele>148.2</ele>
                <time>2020-11-30T16:37:03.000Z</time>
            </trkpt>
            <trkpt lat="40.91089" lon="-8.524504">
                <ele>148.2</ele>
                <time>2020-11-30T16:37:04.000Z</time>
            </trkpt>
            <trkpt lat="40.910869" lon="-8.524506">
                <ele>148.2</ele>
                <time>2020-11-30T16:37:05.000Z</time>
            </trkpt>
            <trkpt lat="40.910849" lon="-8.524508">
                <ele>148.2</ele>
                <time>2020-11-30T16:37:06.000Z</time>
            </trkpt>
            <trkpt lat="40.910828" lon="-8.524509">
                <ele>148.1</ele>
                <time>2020-11-30T16:37:07.000Z</time>
            </trkpt>
            <trkpt lat="40.910808" lon="-8.524508">
                <ele>147.9</ele>
                <time>2020-11-30T16:37:08.000Z</time>
            </trkpt>
            <trkpt lat="40.910787" lon="-8.524506">
                <ele>147.7</ele>
                <time>2020-11-30T16:37:09.000Z</time>
            </trkpt>
            <trkpt lat="40.910766" lon="-8.524504">
                <ele>147.5</ele>
                <time>2020-11-30T16:37:10.000Z</time>
            </trkpt>
            <trkpt lat="40.910746" lon="-8.524499">
                <ele>147.3</ele>
                <time>2020-11-30T16:37:11.000Z</time>
            </trkpt>
            <trkpt lat="40.910725" lon="-8.524494">
                <ele>147.1</ele>
                <time>2020-11-30T16:37:12.000Z</time>
            </trkpt>
            <trkpt lat="40.910704" lon="-8.524488">
                <ele>146.9</ele>
                <time>2020-11-30T16:37:13.000Z</time>
            </trkpt>
            <trkpt lat="40.910683" lon="-8.524481">
                <ele>146.6</ele>
                <time>2020-11-30T16:37:14.000Z</time>
            </trkpt>
            <trkpt lat="40.910661" lon="-8.524472">
                <ele>146.4</ele>
                <time>2020-11-30T16:37:15.000Z</time>
            </trkpt>
            <trkpt lat="40.91064" lon="-8.524463">
                <ele>146.2</ele>
                <time>2020-11-30T16:37:16.000Z</time>
            </trkpt>
            <trkpt lat="40.910617" lon="-8.524453">
                <ele>146.0</ele>
                <time>2020-11-30T16:37:17.000Z</time>
            </trkpt>
            <trkpt lat="40.910595" lon="-8.524442">
                <ele>145.8</ele>
                <time>2020-11-30T16:37:18.000Z</time>
            </trkpt>
            <trkpt lat="40.910571" lon="-8.524431">
                <ele>145.5</ele>
                <time>2020-11-30T16:37:19.000Z</time>
            </trkpt>
            <trkpt lat="40.910548" lon="-8.52442">
                <ele>145.3</ele>
                <time>2020-11-30T16:37:20.000Z</time>
            </trkpt>
            <trkpt lat="40.910523" lon="-8.524409">
                <ele>145.0</ele>
                <time>2020-11-30T16:37:21.000Z</time>
            </trkpt>
            <trkpt lat="40.910499" lon="-8.524399">
                <ele>144.8</ele>
                <time>2020-11-30T16:37:22.000Z</time>
            </trkpt>
            <trkpt lat="40.910473" lon="-8.524389">
                <ele>144.5</ele>
                <time>2020-11-30T16:37:23.000Z</time>
            </trkpt>
            <trkpt lat="40.910447" lon="-8.524381">
                <ele>144.2</ele>
                <time>2020-11-30T16:37:24.000Z</time>
            </trkpt>
            <trkpt lat="40.91042" lon="-8.524374">
                <ele>143.9</ele>
                <time>2020-11-30T16:37:25.000Z</time>
            </trkpt>
            <trkpt lat="40.910393" lon="-8.524369">
                <ele>143.6</ele>
                <time>2020-11-30T16:37:26.000Z</time>
            </trkpt>
            <trkpt lat="40.910365" lon="-8.524367">
                <ele>143.3</ele>
                <time>2020-11-30T16:37:27.000Z</time>
            </trkpt>
            <trkpt lat="40.910336" lon="-8.524365">
                <ele>143.0</ele>
                <time>2020-11-30T16:37:28.000Z</time>
            </trkpt>
            <trkpt lat="40.910306" lon="-8.524365">
                <ele>142.6</ele>
                <time>2020-11-30T16:37:29.000Z</time>
            </trkpt>
            <trkpt lat="40.910276" lon="-8.524365">
                <ele>142.3</ele>
                <time>2020-11-30T16:37:30.000Z</time>
            </trkpt>
            <trkpt lat="40.910246" lon="-8.524365">
                <ele>142.0</ele>
                <time>2020-11-30T16:37:31.000Z</time>
            </trkpt>
            <trkpt lat="40.910215" lon="-8.524364">
                <ele>141.6</ele>
                <time>2020-11-30T16:37:32.000Z</time>
            </trkpt>
            <trkpt lat="40.910184" lon="-8.524362">
                <ele>141.3</ele>
                <time>2020-11-30T16:37:33.000Z</time>
            </trkpt>
            <trkpt lat="40.910153" lon="-8.524358">
                <ele>140.9</ele>
                <time>2020-11-30T16:37:34.000Z</time>
            </trkpt>
            <trkpt lat="40.910122" lon="-8.524353">
                <ele>140.6</ele>
                <time>2020-11-30T16:37:35.000Z</time>
            </trkpt>
            <trkpt lat="40.910092" lon="-8.524345">
                <ele>140.2</ele>
                <time>2020-11-30T16:37:36.000Z</time>
            </trkpt>
            <trkpt lat="40.910062" lon="-8.524335">
                <ele>139.9</ele>
                <time>2020-11-30T16:37:37.000Z</time>
            </trkpt>
            <trkpt lat="40.910034" lon="-8.524322">
                <ele>139.6</ele>
                <time>2020-11-30T16:37:38.000Z</time>
            </trkpt>
            <trkpt lat="40.910006" lon="-8.524307">
                <ele>139.2</ele>
                <time>2020-11-30T16:37:39.000Z</time>
            </trkpt>
            <trkpt lat="40.90998" lon="-8.524289">
                <ele>139.0</ele>
                <time>2020-11-30T16:37:40.000Z</time>
            </trkpt>
            <trkpt lat="40.909955" lon="-8.524269">
                <ele>138.8</ele>
                <time>2020-11-30T16:37:41.000Z</time>
            </trkpt>
            <trkpt lat="40.90993" lon="-8.524247">
                <ele>138.5</ele>
                <time>2020-11-30T16:37:42.000Z</time>
            </trkpt>
            <trkpt lat="40.909907" lon="-8.524223">
                <ele>138.3</ele>
                <time>2020-11-30T16:37:43.000Z</time>
            </trkpt>
            <trkpt lat="40.909884" lon="-8.524198">
                <ele>138.1</ele>
                <time>2020-11-30T16:37:44.000Z</time>
            </trkpt>
            <trkpt lat="40.909863" lon="-8.524171">
                <ele>137.9</ele>
                <time>2020-11-30T16:37:45.000Z</time>
            </trkpt>
            <trkpt lat="40.909842" lon="-8.524143">
                <ele>137.6</ele>
                <time>2020-11-30T16:37:46.000Z</time>
            </trkpt>
            <trkpt lat="40.909822" lon="-8.524114">
                <ele>137.3</ele>
                <time>2020-11-30T16:37:47.000Z</time>
            </trkpt>
            <trkpt lat="40.909803" lon="-8.524084">
                <ele>137.1</ele>
                <time>2020-11-30T16:37:48.000Z</time>
            </trkpt>
            <trkpt lat="40.909785" lon="-8.524053">
                <ele>136.8</ele>
                <time>2020-11-30T16:37:49.000Z</time>
            </trkpt>
            <trkpt lat="40.909767" lon="-8.524022">
                <ele>136.6</ele>
                <time>2020-11-30T16:37:50.000Z</time>
            </trkpt>
            <trkpt lat="40.90975" lon="-8.52399">
                <ele>136.3</ele>
                <time>2020-11-30T16:37:51.000Z</time>
            </trkpt>
            <trkpt lat="40.909733" lon="-8.523958">
                <ele>136.1</ele>
                <time>2020-11-30T16:37:52.000Z</time>
            </trkpt>
            <trkpt lat="40.909716" lon="-8.523926">
                <ele>135.8</ele>
                <time>2020-11-30T16:37:53.000Z</time>
            </trkpt>
            <trkpt lat="40.9097" lon="-8.523894">
                <ele>135.6</ele>
                <time>2020-11-30T16:37:54.000Z</time>
            </trkpt>
            <trkpt lat="40.909683" lon="-8.523862">
                <ele>135.4</ele>
                <time>2020-11-30T16:37:55.000Z</time>
            </trkpt>
            <trkpt lat="40.909665" lon="-8.523831">
                <ele>135.1</ele>
                <time>2020-11-30T16:37:56.000Z</time>
            </trkpt>
            <trkpt lat="40.909648" lon="-8.523799">
                <ele>134.9</ele>
                <time>2020-11-30T16:37:57.000Z</time>
            </trkpt>
            <trkpt lat="40.90963" lon="-8.523769">
                <ele>134.7</ele>
                <time>2020-11-30T16:37:58.000Z</time>
            </trkpt>
            <trkpt lat="40.909611" lon="-8.523739">
                <ele>134.4</ele>
                <time>2020-11-30T16:37:59.000Z</time>
            </trkpt>
            <trkpt lat="40.909593" lon="-8.523711">
                <ele>134.2</ele>
                <time>2020-11-30T16:38:00.000Z</time>
            </trkpt>
            <trkpt lat="40.909575" lon="-8.523684">
                <ele>134.0</ele>
                <time>2020-11-30T16:38:01.000Z</time>
            </trkpt>
            <trkpt lat="40.909559" lon="-8.52366">
                <ele>133.8</ele>
                <time>2020-11-30T16:38:02.000Z</time>
            </trkpt>
            <trkpt lat="40.909543" lon="-8.523639">
                <ele>133.6</ele>
                <time>2020-11-30T16:38:03.000Z</time>
            </trkpt>
            <trkpt lat="40.90953" lon="-8.523621">
                <ele>133.5</ele>
                <time>2020-11-30T16:38:04.000Z</time>
            </trkpt>
            <trkpt lat="40.909518" lon="-8.523606">
                <ele>133.3</ele>
                <time>2020-11-30T16:38:05.000Z</time>
            </trkpt>
            <trkpt lat="40.909509" lon="-8.523595">
                <ele>133.2</ele>
                <time>2020-11-30T16:38:06.000Z</time>
            </trkpt>
            <trkpt lat="40.909502" lon="-8.523587">
                <ele>133.1</ele>
                <time>2020-11-30T16:38:07.000Z</time>
            </trkpt>
            <trkpt lat="40.909498" lon="-8.523583">
                <ele>133.1</ele>
                <time>2020-11-30T16:38:08.000Z</time>
            </trkpt>
            <trkpt lat="40.909496" lon="-8.523581">
                <ele>133.1</ele>
                <time>2020-11-30T16:38:09.000Z</time>
            </trkpt>
            <trkpt lat="40.909494" lon="-8.523579">
                <ele>133.1</ele>
                <time>2020-11-30T16:38:10.000Z</time>
            </trkpt>
            <trkpt lat="40.909492" lon="-8.523577">
                <ele>133.0</ele>
                <time>2020-11-30T16:38:11.000Z</time>
            </trkpt>
            <trkpt lat="40.909488" lon="-8.523571">
                <ele>133.0</ele>
                <time>2020-11-30T16:38:12.000Z</time>
            </trkpt>
            <trkpt lat="40.90948" lon="-8.523561">
                <ele>132.9</ele>
                <time>2020-11-30T16:38:13.000Z</time>
            </trkpt>
            <trkpt lat="40.909469" lon="-8.523546">
                <ele>132.8</ele>
                <time>2020-11-30T16:38:14.000Z</time>
            </trkpt>
            <trkpt lat="40.909454" lon="-8.523525">
                <ele>132.6</ele>
                <time>2020-11-30T16:38:15.000Z</time>
            </trkpt>
            <trkpt lat="40.909436" lon="-8.523501">
                <ele>132.4</ele>
                <time>2020-11-30T16:38:16.000Z</time>
            </trkpt>
            <trkpt lat="40.909417" lon="-8.523474">
                <ele>132.2</ele>
                <time>2020-11-30T16:38:17.000Z</time>
            </trkpt>
            <trkpt lat="40.909397" lon="-8.523446">
                <ele>132.0</ele>
                <time>2020-11-30T16:38:18.000Z</time>
            </trkpt>
            <trkpt lat="40.909377" lon="-8.523417">
                <ele>131.7</ele>
                <time>2020-11-30T16:38:19.000Z</time>
            </trkpt>
            <trkpt lat="40.909357" lon="-8.523389">
                <ele>131.5</ele>
                <time>2020-11-30T16:38:20.000Z</time>
            </trkpt>
            <trkpt lat="40.909338" lon="-8.523361">
                <ele>131.3</ele>
                <time>2020-11-30T16:38:21.000Z</time>
            </trkpt>
            <trkpt lat="40.909319" lon="-8.523332">
                <ele>131.1</ele>
                <time>2020-11-30T16:38:22.000Z</time>
            </trkpt>
            <trkpt lat="40.909301" lon="-8.523303">
                <ele>131.0</ele>
                <time>2020-11-30T16:38:23.000Z</time>
            </trkpt>
            <trkpt lat="40.909283" lon="-8.523273">
                <ele>131.0</ele>
                <time>2020-11-30T16:38:24.000Z</time>
            </trkpt>
            <trkpt lat="40.909266" lon="-8.523243">
                <ele>131.0</ele>
                <time>2020-11-30T16:38:25.000Z</time>
            </trkpt>
            <trkpt lat="40.90925" lon="-8.523213">
                <ele>130.9</ele>
                <time>2020-11-30T16:38:26.000Z</time>
            </trkpt>
            <trkpt lat="40.909235" lon="-8.523181">
                <ele>131.0</ele>
                <time>2020-11-30T16:38:27.000Z</time>
            </trkpt>
            <trkpt lat="40.909221" lon="-8.523149">
                <ele>131.0</ele>
                <time>2020-11-30T16:38:28.000Z</time>
            </trkpt>
            <trkpt lat="40.909208" lon="-8.523116">
                <ele>131.0</ele>
                <time>2020-11-30T16:38:29.000Z</time>
            </trkpt>
            <trkpt lat="40.909196" lon="-8.523082">
                <ele>131.1</ele>
                <time>2020-11-30T16:38:30.000Z</time>
            </trkpt>
            <trkpt lat="40.909185" lon="-8.523048">
                <ele>131.1</ele>
                <time>2020-11-30T16:38:31.000Z</time>
            </trkpt>
            <trkpt lat="40.909176" lon="-8.523013">
                <ele>131.2</ele>
                <time>2020-11-30T16:38:32.000Z</time>
            </trkpt>
            <trkpt lat="40.909167" lon="-8.522978">
                <ele>131.3</ele>
                <time>2020-11-30T16:38:33.000Z</time>
            </trkpt>
            <trkpt lat="40.909158" lon="-8.522943">
                <ele>131.4</ele>
                <time>2020-11-30T16:38:34.000Z</time>
            </trkpt>
            <trkpt lat="40.909151" lon="-8.522907">
                <ele>131.5</ele>
                <time>2020-11-30T16:38:35.000Z</time>
            </trkpt>
            <trkpt lat="40.909144" lon="-8.522872">
                <ele>131.7</ele>
                <time>2020-11-30T16:38:36.000Z</time>
            </trkpt>
            <trkpt lat="40.909138" lon="-8.522837">
                <ele>131.8</ele>
                <time>2020-11-30T16:38:37.000Z</time>
            </trkpt>
            <trkpt lat="40.909132" lon="-8.522803">
                <ele>131.9</ele>
                <time>2020-11-30T16:38:38.000Z</time>
            </trkpt>
            <trkpt lat="40.909126" lon="-8.522769">
                <ele>132.0</ele>
                <time>2020-11-30T16:38:39.000Z</time>
            </trkpt>
            <trkpt lat="40.909121" lon="-8.522736">
                <ele>132.2</ele>
                <time>2020-11-30T16:38:40.000Z</time>
            </trkpt>
            <trkpt lat="40.909116" lon="-8.522702">
                <ele>132.3</ele>
                <time>2020-11-30T16:38:41.000Z</time>
            </trkpt>
            <trkpt lat="40.909111" lon="-8.52267">
                <ele>132.4</ele>
                <time>2020-11-30T16:38:42.000Z</time>
            </trkpt>
            <trkpt lat="40.909106" lon="-8.522637">
                <ele>132.6</ele>
                <time>2020-11-30T16:38:43.000Z</time>
            </trkpt>
            <trkpt lat="40.909102" lon="-8.522605">
                <ele>132.7</ele>
                <time>2020-11-30T16:38:44.000Z</time>
            </trkpt>
            <trkpt lat="40.909098" lon="-8.522572">
                <ele>132.8</ele>
                <time>2020-11-30T16:38:45.000Z</time>
            </trkpt>
            <trkpt lat="40.909094" lon="-8.52254">
                <ele>132.9</ele>
                <time>2020-11-30T16:38:46.000Z</time>
            </trkpt>
            <trkpt lat="40.90909" lon="-8.522507">
                <ele>133.1</ele>
                <time>2020-11-30T16:38:47.000Z</time>
            </trkpt>
            <trkpt lat="40.909085" lon="-8.522474">
                <ele>133.4</ele>
                <time>2020-11-30T16:38:48.000Z</time>
            </trkpt>
            <trkpt lat="40.909081" lon="-8.52244">
                <ele>133.9</ele>
                <time>2020-11-30T16:38:49.000Z</time>
            </trkpt>
            <trkpt lat="40.909077" lon="-8.522407">
                <ele>134.3</ele>
                <time>2020-11-30T16:38:50.000Z</time>
            </trkpt>
            <trkpt lat="40.909073" lon="-8.522373">
                <ele>134.8</ele>
                <time>2020-11-30T16:38:51.000Z</time>
            </trkpt>
            <trkpt lat="40.909069" lon="-8.52234">
                <ele>135.3</ele>
                <time>2020-11-30T16:38:52.000Z</time>
            </trkpt>
            <trkpt lat="40.909065" lon="-8.522307">
                <ele>135.7</ele>
                <time>2020-11-30T16:38:53.000Z</time>
            </trkpt>
            <trkpt lat="40.909062" lon="-8.522275">
                <ele>136.1</ele>
                <time>2020-11-30T16:38:54.000Z</time>
            </trkpt>
            <trkpt lat="40.909059" lon="-8.522243">
                <ele>136.6</ele>
                <time>2020-11-30T16:38:55.000Z</time>
            </trkpt>
            <trkpt lat="40.909056" lon="-8.522213">
                <ele>137.0</ele>
                <time>2020-11-30T16:38:56.000Z</time>
            </trkpt>
            <trkpt lat="40.909054" lon="-8.522184">
                <ele>137.4</ele>
                <time>2020-11-30T16:38:57.000Z</time>
            </trkpt>
            <trkpt lat="40.909052" lon="-8.522156">
                <ele>137.7</ele>
                <time>2020-11-30T16:38:58.000Z</time>
            </trkpt>
            <trkpt lat="40.909051" lon="-8.522129">
                <ele>138.1</ele>
                <time>2020-11-30T16:38:59.000Z</time>
            </trkpt>
            <trkpt lat="40.909051" lon="-8.522104">
                <ele>138.4</ele>
                <time>2020-11-30T16:39:00.000Z</time>
            </trkpt>
            <trkpt lat="40.909051" lon="-8.522081">
                <ele>138.7</ele>
                <time>2020-11-30T16:39:01.000Z</time>
            </trkpt>
            <trkpt lat="40.909053" lon="-8.522059">
                <ele>139.0</ele>
                <time>2020-11-30T16:39:02.000Z</time>
            </trkpt>
            <trkpt lat="40.909055" lon="-8.522038">
                <ele>139.3</ele>
                <time>2020-11-30T16:39:03.000Z</time>
            </trkpt>
            <trkpt lat="40.909059" lon="-8.522017">
                <ele>139.6</ele>
                <time>2020-11-30T16:39:04.000Z</time>
            </trkpt>
            <trkpt lat="40.909064" lon="-8.521997">
                <ele>139.8</ele>
                <time>2020-11-30T16:39:05.000Z</time>
            </trkpt>
            <trkpt lat="40.909071" lon="-8.521976">
                <ele>140.1</ele>
                <time>2020-11-30T16:39:06.000Z</time>
            </trkpt>
            <trkpt lat="40.909079" lon="-8.521956">
                <ele>140.4</ele>
                <time>2020-11-30T16:39:07.000Z</time>
            </trkpt>
            <trkpt lat="40.909089" lon="-8.521934">
                <ele>140.6</ele>
                <time>2020-11-30T16:39:08.000Z</time>
            </trkpt>
            <trkpt lat="40.909101" lon="-8.521912">
                <ele>140.9</ele>
                <time>2020-11-30T16:39:09.000Z</time>
            </trkpt>
            <trkpt lat="40.909114" lon="-8.521888">
                <ele>141.2</ele>
                <time>2020-11-30T16:39:10.000Z</time>
            </trkpt>
            <trkpt lat="40.909127" lon="-8.521865">
                <ele>141.5</ele>
                <time>2020-11-30T16:39:11.000Z</time>
            </trkpt>
            <trkpt lat="40.909137" lon="-8.521842">
                <ele>141.7</ele>
                <time>2020-11-30T16:39:12.000Z</time>
            </trkpt>
            <trkpt lat="40.909142" lon="-8.521821">
                <ele>142.0</ele>
                <time>2020-11-30T16:39:13.000Z</time>
            </trkpt>
            <trkpt lat="40.909149" lon="-8.521802">
                <ele>142.3</ele>
                <time>2020-11-30T16:39:14.000Z</time>
            </trkpt>
            <trkpt lat="40.909163" lon="-8.521787">
                <ele>142.4</ele>
                <time>2020-11-30T16:39:15.000Z</time>
            </trkpt>
            <trkpt lat="40.909184" lon="-8.521774">
                <ele>142.5</ele>
                <time>2020-11-30T16:39:16.000Z</time>
            </trkpt>
            <trkpt lat="40.90921" lon="-8.521763">
                <ele>142.6</ele>
                <time>2020-11-30T16:39:17.000Z</time>
            </trkpt>
            <trkpt lat="40.909238" lon="-8.521753">
                <ele>142.7</ele>
                <time>2020-11-30T16:39:18.000Z</time>
            </trkpt>
            <trkpt lat="40.909267" lon="-8.521743">
                <ele>142.8</ele>
                <time>2020-11-30T16:39:19.000Z</time>
            </trkpt>
            <trkpt lat="40.909294" lon="-8.521733">
                <ele>142.8</ele>
                <time>2020-11-30T16:39:20.000Z</time>
            </trkpt>
            <trkpt lat="40.90932" lon="-8.521723">
                <ele>142.9</ele>
                <time>2020-11-30T16:39:21.000Z</time>
            </trkpt>
            <trkpt lat="40.909345" lon="-8.521712">
                <ele>143.0</ele>
                <time>2020-11-30T16:39:22.000Z</time>
            </trkpt>
            <trkpt lat="40.909369" lon="-8.5217">
                <ele>143.1</ele>
                <time>2020-11-30T16:39:23.000Z</time>
            </trkpt>
            <trkpt lat="40.909393" lon="-8.521688">
                <ele>143.2</ele>
                <time>2020-11-30T16:39:24.000Z</time>
            </trkpt>
            <trkpt lat="40.909417" lon="-8.521675">
                <ele>143.3</ele>
                <time>2020-11-30T16:39:25.000Z</time>
            </trkpt>
            <trkpt lat="40.909442" lon="-8.521662">
                <ele>143.4</ele>
                <time>2020-11-30T16:39:26.000Z</time>
            </trkpt>
            <trkpt lat="40.909467" lon="-8.521648">
                <ele>143.5</ele>
                <time>2020-11-30T16:39:27.000Z</time>
            </trkpt>
            <trkpt lat="40.909494" lon="-8.521634">
                <ele>143.5</ele>
                <time>2020-11-30T16:39:28.000Z</time>
            </trkpt>
            <trkpt lat="40.909522" lon="-8.52162">
                <ele>143.6</ele>
                <time>2020-11-30T16:39:29.000Z</time>
            </trkpt>
            <trkpt lat="40.909552" lon="-8.521605">
                <ele>143.7</ele>
                <time>2020-11-30T16:39:30.000Z</time>
            </trkpt>
            <trkpt lat="40.909582" lon="-8.521593">
                <ele>143.8</ele>
                <time>2020-11-30T16:39:31.000Z</time>
            </trkpt>
            <trkpt lat="40.909611" lon="-8.521587">
                <ele>143.8</ele>
                <time>2020-11-30T16:39:32.000Z</time>
            </trkpt>
            <trkpt lat="40.909637" lon="-8.521588">
                <ele>143.7</ele>
                <time>2020-11-30T16:39:33.000Z</time>
            </trkpt>
            <trkpt lat="40.909661" lon="-8.521597">
                <ele>143.5</ele>
                <time>2020-11-30T16:39:34.000Z</time>
            </trkpt>
            <trkpt lat="40.909683" lon="-8.521611">
                <ele>143.4</ele>
                <time>2020-11-30T16:39:35.000Z</time>
            </trkpt>
            <trkpt lat="40.909705" lon="-8.52163">
                <ele>143.1</ele>
                <time>2020-11-30T16:39:36.000Z</time>
            </trkpt>
            <trkpt lat="40.909727" lon="-8.521652">
                <ele>142.8</ele>
                <time>2020-11-30T16:39:37.000Z</time>
            </trkpt>
            <trkpt lat="40.909749" lon="-8.521676">
                <ele>142.5</ele>
                <time>2020-11-30T16:39:38.000Z</time>
            </trkpt>
            <trkpt lat="40.909772" lon="-8.5217">
                <ele>142.2</ele>
                <time>2020-11-30T16:39:39.000Z</time>
            </trkpt>
            <trkpt lat="40.909794" lon="-8.521722">
                <ele>141.9</ele>
                <time>2020-11-30T16:39:40.000Z</time>
            </trkpt>
            <trkpt lat="40.909817" lon="-8.521742">
                <ele>141.6</ele>
                <time>2020-11-30T16:39:41.000Z</time>
            </trkpt>
            <trkpt lat="40.909841" lon="-8.521761">
                <ele>141.3</ele>
                <time>2020-11-30T16:39:42.000Z</time>
            </trkpt>
            <trkpt lat="40.909865" lon="-8.521777">
                <ele>141.1</ele>
                <time>2020-11-30T16:39:43.000Z</time>
            </trkpt>
            <trkpt lat="40.90989" lon="-8.521792">
                <ele>140.9</ele>
                <time>2020-11-30T16:39:44.000Z</time>
            </trkpt>
            <trkpt lat="40.909916" lon="-8.521805">
                <ele>140.7</ele>
                <time>2020-11-30T16:39:45.000Z</time>
            </trkpt>
            <trkpt lat="40.909942" lon="-8.521818">
                <ele>140.5</ele>
                <time>2020-11-30T16:39:46.000Z</time>
            </trkpt>
            <trkpt lat="40.909969" lon="-8.521829">
                <ele>140.3</ele>
                <time>2020-11-30T16:39:47.000Z</time>
            </trkpt>
            <trkpt lat="40.909997" lon="-8.521839">
                <ele>140.1</ele>
                <time>2020-11-30T16:39:48.000Z</time>
            </trkpt>
            <trkpt lat="40.910024" lon="-8.521846">
                <ele>140.0</ele>
                <time>2020-11-30T16:39:49.000Z</time>
            </trkpt>
            <trkpt lat="40.910051" lon="-8.521851">
                <ele>139.9</ele>
                <time>2020-11-30T16:39:50.000Z</time>
            </trkpt>
            <trkpt lat="40.910077" lon="-8.521853">
                <ele>139.8</ele>
                <time>2020-11-30T16:39:51.000Z</time>
            </trkpt>
            <trkpt lat="40.910102" lon="-8.521853">
                <ele>139.7</ele>
                <time>2020-11-30T16:39:52.000Z</time>
            </trkpt>
            <trkpt lat="40.910128" lon="-8.521851">
                <ele>139.6</ele>
                <time>2020-11-30T16:39:53.000Z</time>
            </trkpt>
            <trkpt lat="40.910153" lon="-8.521849">
                <ele>139.6</ele>
                <time>2020-11-30T16:39:54.000Z</time>
            </trkpt>
            <trkpt lat="40.910179" lon="-8.521846">
                <ele>139.5</ele>
                <time>2020-11-30T16:39:55.000Z</time>
            </trkpt>
            <trkpt lat="40.910207" lon="-8.521844">
                <ele>139.5</ele>
                <time>2020-11-30T16:39:56.000Z</time>
            </trkpt>
            <trkpt lat="40.910234" lon="-8.521842">
                <ele>139.4</ele>
                <time>2020-11-30T16:39:57.000Z</time>
            </trkpt>
            <trkpt lat="40.910262" lon="-8.52184">
                <ele>139.3</ele>
                <time>2020-11-30T16:39:58.000Z</time>
            </trkpt>
            <trkpt lat="40.91029" lon="-8.521837">
                <ele>139.3</ele>
                <time>2020-11-30T16:39:59.000Z</time>
            </trkpt>
            <trkpt lat="40.910317" lon="-8.521834">
                <ele>139.2</ele>
                <time>2020-11-30T16:40:00.000Z</time>
            </trkpt>
            <trkpt lat="40.910344" lon="-8.52183">
                <ele>139.2</ele>
                <time>2020-11-30T16:40:01.000Z</time>
            </trkpt>
            <trkpt lat="40.91037" lon="-8.521826">
                <ele>139.1</ele>
                <time>2020-11-30T16:40:02.000Z</time>
            </trkpt>
            <trkpt lat="40.910395" lon="-8.52182">
                <ele>139.1</ele>
                <time>2020-11-30T16:40:03.000Z</time>
            </trkpt>
            <trkpt lat="40.910419" lon="-8.521813">
                <ele>139.0</ele>
                <time>2020-11-30T16:40:04.000Z</time>
            </trkpt>
            <trkpt lat="40.910443" lon="-8.521805">
                <ele>139.0</ele>
                <time>2020-11-30T16:40:05.000Z</time>
            </trkpt>
            <trkpt lat="40.910466" lon="-8.521796">
                <ele>139.0</ele>
                <time>2020-11-30T16:40:06.000Z</time>
            </trkpt>
            <trkpt lat="40.910488" lon="-8.521785">
                <ele>139.0</ele>
                <time>2020-11-30T16:40:07.000Z</time>
            </trkpt>
            <trkpt lat="40.91051" lon="-8.521774">
                <ele>138.9</ele>
                <time>2020-11-30T16:40:08.000Z</time>
            </trkpt>
            <trkpt lat="40.910531" lon="-8.521761">
                <ele>138.9</ele>
                <time>2020-11-30T16:40:09.000Z</time>
            </trkpt>
            <trkpt lat="40.910551" lon="-8.521747">
                <ele>138.9</ele>
                <time>2020-11-30T16:40:10.000Z</time>
            </trkpt>
            <trkpt lat="40.91057" lon="-8.521732">
                <ele>138.9</ele>
                <time>2020-11-30T16:40:11.000Z</time>
            </trkpt>
            <trkpt lat="40.910589" lon="-8.521715">
                <ele>138.9</ele>
                <time>2020-11-30T16:40:12.000Z</time>
            </trkpt>
            <trkpt lat="40.910608" lon="-8.521696">
                <ele>138.9</ele>
                <time>2020-11-30T16:40:13.000Z</time>
            </trkpt>
            <trkpt lat="40.910626" lon="-8.521676">
                <ele>139.0</ele>
                <time>2020-11-30T16:40:14.000Z</time>
            </trkpt>
            <trkpt lat="40.910644" lon="-8.521654">
                <ele>139.0</ele>
                <time>2020-11-30T16:40:15.000Z</time>
            </trkpt>
            <trkpt lat="40.910663" lon="-8.52163">
                <ele>139.0</ele>
                <time>2020-11-30T16:40:16.000Z</time>
            </trkpt>
            <trkpt lat="40.910681" lon="-8.521605">
                <ele>139.0</ele>
                <time>2020-11-30T16:40:17.000Z</time>
            </trkpt>
            <trkpt lat="40.9107" lon="-8.521577">
                <ele>139.1</ele>
                <time>2020-11-30T16:40:18.000Z</time>
            </trkpt>
            <trkpt lat="40.910719" lon="-8.521549">
                <ele>139.1</ele>
                <time>2020-11-30T16:40:19.000Z</time>
            </trkpt>
            <trkpt lat="40.910739" lon="-8.521521">
                <ele>139.1</ele>
                <time>2020-11-30T16:40:20.000Z</time>
            </trkpt>
            <trkpt lat="40.910759" lon="-8.521493">
                <ele>139.1</ele>
                <time>2020-11-30T16:40:21.000Z</time>
            </trkpt>
            <trkpt lat="40.91078" lon="-8.521466">
                <ele>139.1</ele>
                <time>2020-11-30T16:40:22.000Z</time>
            </trkpt>
            <trkpt lat="40.910801" lon="-8.521439">
                <ele>139.0</ele>
                <time>2020-11-30T16:40:23.000Z</time>
            </trkpt>
            <trkpt lat="40.910821" lon="-8.521413">
                <ele>139.0</ele>
                <time>2020-11-30T16:40:24.000Z</time>
            </trkpt>
            <trkpt lat="40.91084" lon="-8.521387">
                <ele>139.0</ele>
                <time>2020-11-30T16:40:25.000Z</time>
            </trkpt>
            <trkpt lat="40.910857" lon="-8.521359">
                <ele>139.1</ele>
                <time>2020-11-30T16:40:26.000Z</time>
            </trkpt>
            <trkpt lat="40.91087" lon="-8.521331">
                <ele>139.1</ele>
                <time>2020-11-30T16:40:27.000Z</time>
            </trkpt>
            <trkpt lat="40.91088" lon="-8.521302">
                <ele>139.2</ele>
                <time>2020-11-30T16:40:28.000Z</time>
            </trkpt>
            <trkpt lat="40.910887" lon="-8.521273">
                <ele>139.3</ele>
                <time>2020-11-30T16:40:29.000Z</time>
            </trkpt>
            <trkpt lat="40.910891" lon="-8.521245">
                <ele>139.4</ele>
                <time>2020-11-30T16:40:30.000Z</time>
            </trkpt>
            <trkpt lat="40.91089" lon="-8.521219">
                <ele>139.5</ele>
                <time>2020-11-30T16:40:31.000Z</time>
            </trkpt>
            <trkpt lat="40.910885" lon="-8.521195">
                <ele>139.6</ele>
                <time>2020-11-30T16:40:32.000Z</time>
            </trkpt>
            <trkpt lat="40.910877" lon="-8.521173">
                <ele>139.7</ele>
                <time>2020-11-30T16:40:33.000Z</time>
            </trkpt>
            <trkpt lat="40.910866" lon="-8.521154">
                <ele>139.7</ele>
                <time>2020-11-30T16:40:34.000Z</time>
            </trkpt>
            <trkpt lat="40.910851" lon="-8.521136">
                <ele>139.9</ele>
                <time>2020-11-30T16:40:35.000Z</time>
            </trkpt>
            <trkpt lat="40.910835" lon="-8.521119">
                <ele>140.0</ele>
                <time>2020-11-30T16:40:36.000Z</time>
            </trkpt>
            <trkpt lat="40.910816" lon="-8.521104">
                <ele>140.2</ele>
                <time>2020-11-30T16:40:37.000Z</time>
            </trkpt>
            <trkpt lat="40.910796" lon="-8.52109">
                <ele>140.5</ele>
                <time>2020-11-30T16:40:38.000Z</time>
            </trkpt>
            <trkpt lat="40.910775" lon="-8.521076">
                <ele>140.8</ele>
                <time>2020-11-30T16:40:39.000Z</time>
            </trkpt>
            <trkpt lat="40.910753" lon="-8.521064">
                <ele>141.0</ele>
                <time>2020-11-30T16:40:40.000Z</time>
            </trkpt>
            <trkpt lat="40.910731" lon="-8.521052">
                <ele>141.3</ele>
                <time>2020-11-30T16:40:41.000Z</time>
            </trkpt>
            <trkpt lat="40.91071" lon="-8.52104">
                <ele>141.6</ele>
                <time>2020-11-30T16:40:42.000Z</time>
            </trkpt>
            <trkpt lat="40.910688" lon="-8.521028">
                <ele>141.9</ele>
                <time>2020-11-30T16:40:43.000Z</time>
            </trkpt>
            <trkpt lat="40.910668" lon="-8.521016">
                <ele>142.2</ele>
                <time>2020-11-30T16:40:44.000Z</time>
            </trkpt>
            <trkpt lat="40.910648" lon="-8.521003">
                <ele>142.5</ele>
                <time>2020-11-30T16:40:45.000Z</time>
            </trkpt>
            <trkpt lat="40.910629" lon="-8.520989">
                <ele>142.8</ele>
                <time>2020-11-30T16:40:46.000Z</time>
            </trkpt>
            <trkpt lat="40.910611" lon="-8.520974">
                <ele>143.1</ele>
                <time>2020-11-30T16:40:47.000Z</time>
            </trkpt>
            <trkpt lat="40.910595" lon="-8.520957">
                <ele>143.4</ele>
                <time>2020-11-30T16:40:48.000Z</time>
            </trkpt>
            <trkpt lat="40.910581" lon="-8.520937">
                <ele>143.7</ele>
                <time>2020-11-30T16:40:49.000Z</time>
            </trkpt>
            <trkpt lat="40.910568" lon="-8.520916">
                <ele>144.0</ele>
                <time>2020-11-30T16:40:50.000Z</time>
            </trkpt>
            <trkpt lat="40.910557" lon="-8.520892">
                <ele>144.3</ele>
                <time>2020-11-30T16:40:51.000Z</time>
            </trkpt>
            <trkpt lat="40.910549" lon="-8.520865">
                <ele>144.5</ele>
                <time>2020-11-30T16:40:52.000Z</time>
            </trkpt>
            <trkpt lat="40.910542" lon="-8.520835">
                <ele>144.8</ele>
                <time>2020-11-30T16:40:53.000Z</time>
            </trkpt>
            <trkpt lat="40.910537" lon="-8.520804">
                <ele>145.0</ele>
                <time>2020-11-30T16:40:54.000Z</time>
            </trkpt>
            <trkpt lat="40.910531" lon="-8.520772">
                <ele>145.2</ele>
                <time>2020-11-30T16:40:55.000Z</time>
            </trkpt>
            <trkpt lat="40.910526" lon="-8.52074">
                <ele>145.4</ele>
                <time>2020-11-30T16:40:56.000Z</time>
            </trkpt>
            <trkpt lat="40.910519" lon="-8.520709">
                <ele>145.7</ele>
                <time>2020-11-30T16:40:57.000Z</time>
            </trkpt>
            <trkpt lat="40.910512" lon="-8.520679">
                <ele>145.9</ele>
                <time>2020-11-30T16:40:58.000Z</time>
            </trkpt>
            <trkpt lat="40.910503" lon="-8.520651">
                <ele>146.1</ele>
                <time>2020-11-30T16:40:59.000Z</time>
            </trkpt>
            <trkpt lat="40.910494" lon="-8.520625">
                <ele>146.3</ele>
                <time>2020-11-30T16:41:00.000Z</time>
            </trkpt>
            <trkpt lat="40.910486" lon="-8.520604">
                <ele>146.5</ele>
                <time>2020-11-30T16:41:01.000Z</time>
            </trkpt>
            <trkpt lat="40.910478" lon="-8.520586">
                <ele>146.7</ele>
                <time>2020-11-30T16:41:02.000Z</time>
            </trkpt>
            <trkpt lat="40.910471" lon="-8.520574">
                <ele>146.9</ele>
                <time>2020-11-30T16:41:03.000Z</time>
            </trkpt>
            <trkpt lat="40.910467" lon="-8.520565">
                <ele>146.9</ele>
                <time>2020-11-30T16:41:04.000Z</time>
            </trkpt>
            <trkpt lat="40.910463" lon="-8.52056">
                <ele>147.0</ele>
                <time>2020-11-30T16:41:05.000Z</time>
            </trkpt>
            <trkpt lat="40.91046" lon="-8.520557">
                <ele>147.1</ele>
                <time>2020-11-30T16:41:06.000Z</time>
            </trkpt>
            <trkpt lat="40.910458" lon="-8.520555">
                <ele>147.1</ele>
                <time>2020-11-30T16:41:07.000Z</time>
            </trkpt>
            <trkpt lat="40.910457" lon="-8.520553">
                <ele>147.1</ele>
                <time>2020-11-30T16:41:08.000Z</time>
            </trkpt>
            <trkpt lat="40.910457" lon="-8.520551">
                <ele>147.1</ele>
                <time>2020-11-30T16:41:09.000Z</time>
            </trkpt>
            <trkpt lat="40.910457" lon="-8.52055">
                <ele>147.1</ele>
                <time>2020-11-30T16:41:10.000Z</time>
            </trkpt>
            <trkpt lat="40.910457" lon="-8.52055">
                <ele>147.1</ele>
                <time>2020-11-30T16:41:11.000Z</time>
            </trkpt>
            <trkpt lat="40.910458" lon="-8.520549">
                <ele>147.1</ele>
                <time>2020-11-30T16:41:12.000Z</time>
            </trkpt>
            <trkpt lat="40.910458" lon="-8.520549">
                <ele>147.1</ele>
                <time>2020-11-30T16:41:13.000Z</time>
            </trkpt>
            <trkpt lat="40.910458" lon="-8.520549">
                <ele>147.1</ele>
                <time>2020-11-30T16:41:14.000Z</time>
            </trkpt>
            <trkpt lat="40.910458" lon="-8.520548">
                <ele>147.1</ele>
                <time>2020-11-30T16:41:15.000Z</time>
            </trkpt>
            <trkpt lat="40.910458" lon="-8.520546">
                <ele>147.1</ele>
                <time>2020-11-30T16:41:16.000Z</time>
            </trkpt>
            <trkpt lat="40.910457" lon="-8.520541">
                <ele>147.2</ele>
                <time>2020-11-30T16:41:17.000Z</time>
            </trkpt>
            <trkpt lat="40.910455" lon="-8.520534">
                <ele>147.2</ele>
                <time>2020-11-30T16:41:18.000Z</time>
            </trkpt>
            <trkpt lat="40.910453" lon="-8.520524">
                <ele>147.3</ele>
                <time>2020-11-30T16:41:19.000Z</time>
            </trkpt>
            <trkpt lat="40.910451" lon="-8.520515">
                <ele>147.4</ele>
                <time>2020-11-30T16:41:20.000Z</time>
            </trkpt>
            <trkpt lat="40.91045" lon="-8.520506">
                <ele>147.4</ele>
                <time>2020-11-30T16:41:21.000Z</time>
            </trkpt>
            <trkpt lat="40.910449" lon="-8.520499">
                <ele>147.5</ele>
                <time>2020-11-30T16:41:22.000Z</time>
            </trkpt>
            <trkpt lat="40.910449" lon="-8.520494">
                <ele>147.5</ele>
                <time>2020-11-30T16:41:23.000Z</time>
            </trkpt>
            <trkpt lat="40.91045" lon="-8.520492">
                <ele>147.5</ele>
                <time>2020-11-30T16:41:24.000Z</time>
            </trkpt>
            <trkpt lat="40.910451" lon="-8.52049">
                <ele>147.5</ele>
                <time>2020-11-30T16:41:25.000Z</time>
            </trkpt>
            <trkpt lat="40.910452" lon="-8.520487">
                <ele>147.5</ele>
                <time>2020-11-30T16:41:26.000Z</time>
            </trkpt>
            <trkpt lat="40.910452" lon="-8.520482">
                <ele>147.5</ele>
                <time>2020-11-30T16:41:27.000Z</time>
            </trkpt>
            <trkpt lat="40.910451" lon="-8.520474">
                <ele>147.5</ele>
                <time>2020-11-30T16:41:28.000Z</time>
            </trkpt>
            <trkpt lat="40.910449" lon="-8.520463">
                <ele>147.6</ele>
                <time>2020-11-30T16:41:29.000Z</time>
            </trkpt>
            <trkpt lat="40.910448" lon="-8.52045">
                <ele>147.7</ele>
                <time>2020-11-30T16:41:30.000Z</time>
            </trkpt>
            <trkpt lat="40.910446" lon="-8.520435">
                <ele>147.8</ele>
                <time>2020-11-30T16:41:31.000Z</time>
            </trkpt>
            <trkpt lat="40.910446" lon="-8.520417">
                <ele>147.8</ele>
                <time>2020-11-30T16:41:32.000Z</time>
            </trkpt>
            <trkpt lat="40.910447" lon="-8.520399">
                <ele>147.9</ele>
                <time>2020-11-30T16:41:33.000Z</time>
            </trkpt>
            <trkpt lat="40.910448" lon="-8.52038">
                <ele>148.0</ele>
                <time>2020-11-30T16:41:34.000Z</time>
            </trkpt>
            <trkpt lat="40.910451" lon="-8.52036">
                <ele>148.0</ele>
                <time>2020-11-30T16:41:35.000Z</time>
            </trkpt>
            <trkpt lat="40.910453" lon="-8.520339">
                <ele>148.1</ele>
                <time>2020-11-30T16:41:36.000Z</time>
            </trkpt>
            <trkpt lat="40.910455" lon="-8.520319">
                <ele>148.1</ele>
                <time>2020-11-30T16:41:37.000Z</time>
            </trkpt>
            <trkpt lat="40.910457" lon="-8.520298">
                <ele>148.2</ele>
                <time>2020-11-30T16:41:38.000Z</time>
            </trkpt>
            <trkpt lat="40.910457" lon="-8.520277">
                <ele>148.3</ele>
                <time>2020-11-30T16:41:39.000Z</time>
            </trkpt>
            <trkpt lat="40.910457" lon="-8.520256">
                <ele>148.4</ele>
                <time>2020-11-30T16:41:40.000Z</time>
            </trkpt>
            <trkpt lat="40.910455" lon="-8.520234">
                <ele>148.5</ele>
                <time>2020-11-30T16:41:41.000Z</time>
            </trkpt>
            <trkpt lat="40.910451" lon="-8.520212">
                <ele>148.6</ele>
                <time>2020-11-30T16:41:42.000Z</time>
            </trkpt>
            <trkpt lat="40.910446" lon="-8.520188">
                <ele>148.8</ele>
                <time>2020-11-30T16:41:43.000Z</time>
            </trkpt>
            <trkpt lat="40.91044" lon="-8.520163">
                <ele>149.0</ele>
                <time>2020-11-30T16:41:44.000Z</time>
            </trkpt>
            <trkpt lat="40.910432" lon="-8.520137">
                <ele>149.2</ele>
                <time>2020-11-30T16:41:45.000Z</time>
            </trkpt>
            <trkpt lat="40.910424" lon="-8.52011">
                <ele>149.4</ele>
                <time>2020-11-30T16:41:46.000Z</time>
            </trkpt>
            <trkpt lat="40.910417" lon="-8.520084">
                <ele>149.6</ele>
                <time>2020-11-30T16:41:47.000Z</time>
            </trkpt>
            <trkpt lat="40.910411" lon="-8.520058">
                <ele>149.8</ele>
                <time>2020-11-30T16:41:48.000Z</time>
            </trkpt>
            <trkpt lat="40.910408" lon="-8.520034">
                <ele>150.0</ele>
                <time>2020-11-30T16:41:49.000Z</time>
            </trkpt>
            <trkpt lat="40.910405" lon="-8.520011">
                <ele>150.1</ele>
                <time>2020-11-30T16:41:50.000Z</time>
            </trkpt>
            <trkpt lat="40.910404" lon="-8.519988">
                <ele>150.1</ele>
                <time>2020-11-30T16:41:51.000Z</time>
            </trkpt>
            <trkpt lat="40.910404" lon="-8.519966">
                <ele>150.1</ele>
                <time>2020-11-30T16:41:52.000Z</time>
            </trkpt>
            <trkpt lat="40.910405" lon="-8.519945">
                <ele>150.0</ele>
                <time>2020-11-30T16:41:53.000Z</time>
            </trkpt>
            <trkpt lat="40.910405" lon="-8.519923">
                <ele>149.9</ele>
                <time>2020-11-30T16:41:54.000Z</time>
            </trkpt>
            <trkpt lat="40.910406" lon="-8.519902">
                <ele>149.8</ele>
                <time>2020-11-30T16:41:55.000Z</time>
            </trkpt>
            <trkpt lat="40.910406" lon="-8.519881">
                <ele>149.7</ele>
                <time>2020-11-30T16:41:56.000Z</time>
            </trkpt>
            <trkpt lat="40.910406" lon="-8.519861">
                <ele>149.7</ele>
                <time>2020-11-30T16:41:57.000Z</time>
            </trkpt>
            <trkpt lat="40.910405" lon="-8.519841">
                <ele>149.6</ele>
                <time>2020-11-30T16:41:58.000Z</time>
            </trkpt>
            <trkpt lat="40.910404" lon="-8.519822">
                <ele>149.5</ele>
                <time>2020-11-30T16:41:59.000Z</time>
            </trkpt>
            <trkpt lat="40.910402" lon="-8.519803">
                <ele>149.5</ele>
                <time>2020-11-30T16:42:00.000Z</time>
            </trkpt>
            <trkpt lat="40.910399" lon="-8.519786">
                <ele>149.5</ele>
                <time>2020-11-30T16:42:01.000Z</time>
            </trkpt>
            <trkpt lat="40.910395" lon="-8.519769">
                <ele>149.5</ele>
                <time>2020-11-30T16:42:02.000Z</time>
            </trkpt>
            <trkpt lat="40.910389" lon="-8.519754">
                <ele>149.5</ele>
                <time>2020-11-30T16:42:03.000Z</time>
            </trkpt>
            <trkpt lat="40.910382" lon="-8.519739">
                <ele>149.6</ele>
                <time>2020-11-30T16:42:04.000Z</time>
            </trkpt>
            <trkpt lat="40.910374" lon="-8.519726">
                <ele>149.6</ele>
                <time>2020-11-30T16:42:05.000Z</time>
            </trkpt>
            <trkpt lat="40.910364" lon="-8.519713">
                <ele>149.7</ele>
                <time>2020-11-30T16:42:06.000Z</time>
            </trkpt>
            <trkpt lat="40.910354" lon="-8.519702">
                <ele>149.8</ele>
                <time>2020-11-30T16:42:07.000Z</time>
            </trkpt>
            <trkpt lat="40.910343" lon="-8.519691">
                <ele>149.9</ele>
                <time>2020-11-30T16:42:08.000Z</time>
            </trkpt>
            <trkpt lat="40.910332" lon="-8.519681">
                <ele>150.1</ele>
                <time>2020-11-30T16:42:09.000Z</time>
            </trkpt>
            <trkpt lat="40.91032" lon="-8.519672">
                <ele>150.2</ele>
                <time>2020-11-30T16:42:10.000Z</time>
            </trkpt>
            <trkpt lat="40.910309" lon="-8.519664">
                <ele>150.3</ele>
                <time>2020-11-30T16:42:11.000Z</time>
            </trkpt>
            <trkpt lat="40.910298" lon="-8.519656">
                <ele>150.5</ele>
                <time>2020-11-30T16:42:12.000Z</time>
            </trkpt>
            <trkpt lat="40.910287" lon="-8.519649">
                <ele>150.6</ele>
                <time>2020-11-30T16:42:13.000Z</time>
            </trkpt>
            <trkpt lat="40.910277" lon="-8.519642">
                <ele>150.7</ele>
                <time>2020-11-30T16:42:14.000Z</time>
            </trkpt>
            <trkpt lat="40.910268" lon="-8.519635">
                <ele>150.8</ele>
                <time>2020-11-30T16:42:15.000Z</time>
            </trkpt>
            <trkpt lat="40.910259" lon="-8.519626">
                <ele>150.9</ele>
                <time>2020-11-30T16:42:16.000Z</time>
            </trkpt>
            <trkpt lat="40.910251" lon="-8.519615">
                <ele>151.0</ele>
                <time>2020-11-30T16:42:17.000Z</time>
            </trkpt>
            <trkpt lat="40.910243" lon="-8.5196">
                <ele>151.1</ele>
                <time>2020-11-30T16:42:18.000Z</time>
            </trkpt>
            <trkpt lat="40.910235" lon="-8.519581">
                <ele>151.1</ele>
                <time>2020-11-30T16:42:19.000Z</time>
            </trkpt>
            <trkpt lat="40.910228" lon="-8.519557">
                <ele>151.1</ele>
                <time>2020-11-30T16:42:20.000Z</time>
            </trkpt>
            <trkpt lat="40.910221" lon="-8.519529">
                <ele>151.1</ele>
                <time>2020-11-30T16:42:21.000Z</time>
            </trkpt>
            <trkpt lat="40.910213" lon="-8.519499">
                <ele>151.1</ele>
                <time>2020-11-30T16:42:22.000Z</time>
            </trkpt>
            <trkpt lat="40.910205" lon="-8.519469">
                <ele>151.1</ele>
                <time>2020-11-30T16:42:23.000Z</time>
            </trkpt>
            <trkpt lat="40.910197" lon="-8.51944">
                <ele>151.1</ele>
                <time>2020-11-30T16:42:24.000Z</time>
            </trkpt>
            <trkpt lat="40.910188" lon="-8.519413">
                <ele>151.2</ele>
                <time>2020-11-30T16:42:25.000Z</time>
            </trkpt>
            <trkpt lat="40.910178" lon="-8.519388">
                <ele>151.2</ele>
                <time>2020-11-30T16:42:26.000Z</time>
            </trkpt>
            <trkpt lat="40.910167" lon="-8.519363">
                <ele>151.3</ele>
                <time>2020-11-30T16:42:27.000Z</time>
            </trkpt>
            <trkpt lat="40.910154" lon="-8.519339">
                <ele>151.4</ele>
                <time>2020-11-30T16:42:28.000Z</time>
            </trkpt>
            <trkpt lat="40.91014" lon="-8.519314">
                <ele>151.5</ele>
                <time>2020-11-30T16:42:29.000Z</time>
            </trkpt>
            <trkpt lat="40.910124" lon="-8.519286">
                <ele>151.6</ele>
                <time>2020-11-30T16:42:30.000Z</time>
            </trkpt>
            <trkpt lat="40.910107" lon="-8.519258">
                <ele>151.8</ele>
                <time>2020-11-30T16:42:31.000Z</time>
            </trkpt>
            <trkpt lat="40.910089" lon="-8.519229">
                <ele>151.9</ele>
                <time>2020-11-30T16:42:32.000Z</time>
            </trkpt>
            <trkpt lat="40.910071" lon="-8.519201">
                <ele>152.1</ele>
                <time>2020-11-30T16:42:33.000Z</time>
            </trkpt>
            <trkpt lat="40.910054" lon="-8.519175">
                <ele>152.3</ele>
                <time>2020-11-30T16:42:34.000Z</time>
            </trkpt>
            <trkpt lat="40.910038" lon="-8.519151">
                <ele>152.4</ele>
                <time>2020-11-30T16:42:35.000Z</time>
            </trkpt>
            <trkpt lat="40.910022" lon="-8.519129">
                <ele>152.6</ele>
                <time>2020-11-30T16:42:36.000Z</time>
            </trkpt>
            <trkpt lat="40.910008" lon="-8.519109">
                <ele>152.8</ele>
                <time>2020-11-30T16:42:37.000Z</time>
            </trkpt>
            <trkpt lat="40.909994" lon="-8.519091">
                <ele>152.9</ele>
                <time>2020-11-30T16:42:38.000Z</time>
            </trkpt>
            <trkpt lat="40.909981" lon="-8.519074">
                <ele>153.0</ele>
                <time>2020-11-30T16:42:39.000Z</time>
            </trkpt>
            <trkpt lat="40.909968" lon="-8.519058">
                <ele>153.1</ele>
                <time>2020-11-30T16:42:40.000Z</time>
            </trkpt>
            <trkpt lat="40.909956" lon="-8.519043">
                <ele>153.2</ele>
                <time>2020-11-30T16:42:41.000Z</time>
            </trkpt>
            <trkpt lat="40.909944" lon="-8.519028">
                <ele>153.3</ele>
                <time>2020-11-30T16:42:42.000Z</time>
            </trkpt>
            <trkpt lat="40.909932" lon="-8.519014">
                <ele>153.4</ele>
                <time>2020-11-30T16:42:43.000Z</time>
            </trkpt>
            <trkpt lat="40.90992" lon="-8.519">
                <ele>153.4</ele>
                <time>2020-11-30T16:42:44.000Z</time>
            </trkpt>
            <trkpt lat="40.909908" lon="-8.518986">
                <ele>153.5</ele>
                <time>2020-11-30T16:42:45.000Z</time>
            </trkpt>
            <trkpt lat="40.909896" lon="-8.518972">
                <ele>153.6</ele>
                <time>2020-11-30T16:42:46.000Z</time>
            </trkpt>
            <trkpt lat="40.909883" lon="-8.518957">
                <ele>153.7</ele>
                <time>2020-11-30T16:42:47.000Z</time>
            </trkpt>
            <trkpt lat="40.909871" lon="-8.518941">
                <ele>153.8</ele>
                <time>2020-11-30T16:42:48.000Z</time>
            </trkpt>
            <trkpt lat="40.909859" lon="-8.518925">
                <ele>153.9</ele>
                <time>2020-11-30T16:42:49.000Z</time>
            </trkpt>
            <trkpt lat="40.909847" lon="-8.518908">
                <ele>154.0</ele>
                <time>2020-11-30T16:42:50.000Z</time>
            </trkpt>
            <trkpt lat="40.909836" lon="-8.51889">
                <ele>154.0</ele>
                <time>2020-11-30T16:42:51.000Z</time>
            </trkpt>
            <trkpt lat="40.909824" lon="-8.518872">
                <ele>154.1</ele>
                <time>2020-11-30T16:42:52.000Z</time>
            </trkpt>
            <trkpt lat="40.909813" lon="-8.518852">
                <ele>154.2</ele>
                <time>2020-11-30T16:42:53.000Z</time>
            </trkpt>
            <trkpt lat="40.909802" lon="-8.51883">
                <ele>154.2</ele>
                <time>2020-11-30T16:42:54.000Z</time>
            </trkpt>
            <trkpt lat="40.909792" lon="-8.518808">
                <ele>154.3</ele>
                <time>2020-11-30T16:42:55.000Z</time>
            </trkpt>
            <trkpt lat="40.909782" lon="-8.518784">
                <ele>154.3</ele>
                <time>2020-11-30T16:42:56.000Z</time>
            </trkpt>
            <trkpt lat="40.909774" lon="-8.518758">
                <ele>154.3</ele>
                <time>2020-11-30T16:42:57.000Z</time>
            </trkpt>
            <trkpt lat="40.909766" lon="-8.518732">
                <ele>154.3</ele>
                <time>2020-11-30T16:42:58.000Z</time>
            </trkpt>
            <trkpt lat="40.909759" lon="-8.518705">
                <ele>154.3</ele>
                <time>2020-11-30T16:42:59.000Z</time>
            </trkpt>
            <trkpt lat="40.909753" lon="-8.518676">
                <ele>154.3</ele>
                <time>2020-11-30T16:43:00.000Z</time>
            </trkpt>
            <trkpt lat="40.909748" lon="-8.518647">
                <ele>154.3</ele>
                <time>2020-11-30T16:43:01.000Z</time>
            </trkpt>
            <trkpt lat="40.909744" lon="-8.518617">
                <ele>154.2</ele>
                <time>2020-11-30T16:43:02.000Z</time>
            </trkpt>
            <trkpt lat="40.909741" lon="-8.518586">
                <ele>154.2</ele>
                <time>2020-11-30T16:43:03.000Z</time>
            </trkpt>
            <trkpt lat="40.909739" lon="-8.518555">
                <ele>154.1</ele>
                <time>2020-11-30T16:43:04.000Z</time>
            </trkpt>
            <trkpt lat="40.909737" lon="-8.518524">
                <ele>154.1</ele>
                <time>2020-11-30T16:43:05.000Z</time>
            </trkpt>
            <trkpt lat="40.909734" lon="-8.518492">
                <ele>154.0</ele>
                <time>2020-11-30T16:43:06.000Z</time>
            </trkpt>
            <trkpt lat="40.909732" lon="-8.518461">
                <ele>153.9</ele>
                <time>2020-11-30T16:43:07.000Z</time>
            </trkpt>
            <trkpt lat="40.90973" lon="-8.518429">
                <ele>153.9</ele>
                <time>2020-11-30T16:43:08.000Z</time>
            </trkpt>
            <trkpt lat="40.909729" lon="-8.518398">
                <ele>153.8</ele>
                <time>2020-11-30T16:43:09.000Z</time>
            </trkpt>
            <trkpt lat="40.909729" lon="-8.518368">
                <ele>153.7</ele>
                <time>2020-11-30T16:43:10.000Z</time>
            </trkpt>
            <trkpt lat="40.909729" lon="-8.518338">
                <ele>153.6</ele>
                <time>2020-11-30T16:43:11.000Z</time>
            </trkpt>
            <trkpt lat="40.90973" lon="-8.518309">
                <ele>153.8</ele>
                <time>2020-11-30T16:43:12.000Z</time>
            </trkpt>
            <trkpt lat="40.909731" lon="-8.51828">
                <ele>153.9</ele>
                <time>2020-11-30T16:43:13.000Z</time>
            </trkpt>
            <trkpt lat="40.909733" lon="-8.518252">
                <ele>154.1</ele>
                <time>2020-11-30T16:43:14.000Z</time>
            </trkpt>
            <trkpt lat="40.909734" lon="-8.518224">
                <ele>154.3</ele>
                <time>2020-11-30T16:43:15.000Z</time>
            </trkpt>
            <trkpt lat="40.909735" lon="-8.518196">
                <ele>154.5</ele>
                <time>2020-11-30T16:43:16.000Z</time>
            </trkpt>
            <trkpt lat="40.909736" lon="-8.518168">
                <ele>154.7</ele>
                <time>2020-11-30T16:43:17.000Z</time>
            </trkpt>
            <trkpt lat="40.909736" lon="-8.51814">
                <ele>154.9</ele>
                <time>2020-11-30T16:43:18.000Z</time>
            </trkpt>
            <trkpt lat="40.909736" lon="-8.518112">
                <ele>155.1</ele>
                <time>2020-11-30T16:43:19.000Z</time>
            </trkpt>
            <trkpt lat="40.909737" lon="-8.518085">
                <ele>155.2</ele>
                <time>2020-11-30T16:43:20.000Z</time>
            </trkpt>
            <trkpt lat="40.909737" lon="-8.518057">
                <ele>155.4</ele>
                <time>2020-11-30T16:43:21.000Z</time>
            </trkpt>
            <trkpt lat="40.909737" lon="-8.518029">
                <ele>155.6</ele>
                <time>2020-11-30T16:43:22.000Z</time>
            </trkpt>
            <trkpt lat="40.909738" lon="-8.518001">
                <ele>155.8</ele>
                <time>2020-11-30T16:43:23.000Z</time>
            </trkpt>
            <trkpt lat="40.909738" lon="-8.517974">
                <ele>156.0</ele>
                <time>2020-11-30T16:43:24.000Z</time>
            </trkpt>
            <trkpt lat="40.90974" lon="-8.517946">
                <ele>156.2</ele>
                <time>2020-11-30T16:43:25.000Z</time>
            </trkpt>
            <trkpt lat="40.909741" lon="-8.517917">
                <ele>156.4</ele>
                <time>2020-11-30T16:43:26.000Z</time>
            </trkpt>
            <trkpt lat="40.909743" lon="-8.517889">
                <ele>156.5</ele>
                <time>2020-11-30T16:43:27.000Z</time>
            </trkpt>
            <trkpt lat="40.909745" lon="-8.517861">
                <ele>156.7</ele>
                <time>2020-11-30T16:43:28.000Z</time>
            </trkpt>
            <trkpt lat="40.909747" lon="-8.517833">
                <ele>156.9</ele>
                <time>2020-11-30T16:43:29.000Z</time>
            </trkpt>
            <trkpt lat="40.909749" lon="-8.517805">
                <ele>157.1</ele>
                <time>2020-11-30T16:43:30.000Z</time>
            </trkpt>
            <trkpt lat="40.90975" lon="-8.517778">
                <ele>157.3</ele>
                <time>2020-11-30T16:43:31.000Z</time>
            </trkpt>
            <trkpt lat="40.909751" lon="-8.517751">
                <ele>157.4</ele>
                <time>2020-11-30T16:43:32.000Z</time>
            </trkpt>
            <trkpt lat="40.909751" lon="-8.517726">
                <ele>157.6</ele>
                <time>2020-11-30T16:43:33.000Z</time>
            </trkpt>
            <trkpt lat="40.909751" lon="-8.5177">
                <ele>157.8</ele>
                <time>2020-11-30T16:43:34.000Z</time>
            </trkpt>
            <trkpt lat="40.909749" lon="-8.517676">
                <ele>158.0</ele>
                <time>2020-11-30T16:43:35.000Z</time>
            </trkpt>
            <trkpt lat="40.909745" lon="-8.517653">
                <ele>158.2</ele>
                <time>2020-11-30T16:43:36.000Z</time>
            </trkpt>
            <trkpt lat="40.909741" lon="-8.517631">
                <ele>158.3</ele>
                <time>2020-11-30T16:43:37.000Z</time>
            </trkpt>
            <trkpt lat="40.909736" lon="-8.51761">
                <ele>158.5</ele>
                <time>2020-11-30T16:43:38.000Z</time>
            </trkpt>
            <trkpt lat="40.909729" lon="-8.517591">
                <ele>158.7</ele>
                <time>2020-11-30T16:43:39.000Z</time>
            </trkpt>
            <trkpt lat="40.909722" lon="-8.517572">
                <ele>158.8</ele>
                <time>2020-11-30T16:43:40.000Z</time>
            </trkpt>
            <trkpt lat="40.909715" lon="-8.517555">
                <ele>159.0</ele>
                <time>2020-11-30T16:43:41.000Z</time>
            </trkpt>
            <trkpt lat="40.909706" lon="-8.517539">
                <ele>159.1</ele>
                <time>2020-11-30T16:43:42.000Z</time>
            </trkpt>
            <trkpt lat="40.909698" lon="-8.517524">
                <ele>159.3</ele>
                <time>2020-11-30T16:43:43.000Z</time>
            </trkpt>
            <trkpt lat="40.909688" lon="-8.51751">
                <ele>159.4</ele>
                <time>2020-11-30T16:43:44.000Z</time>
            </trkpt>
            <trkpt lat="40.909679" lon="-8.517497">
                <ele>159.6</ele>
                <time>2020-11-30T16:43:45.000Z</time>
            </trkpt>
            <trkpt lat="40.90967" lon="-8.517486">
                <ele>159.7</ele>
                <time>2020-11-30T16:43:46.000Z</time>
            </trkpt>
            <trkpt lat="40.90966" lon="-8.517476">
                <ele>159.8</ele>
                <time>2020-11-30T16:43:47.000Z</time>
            </trkpt>
            <trkpt lat="40.909651" lon="-8.517467">
                <ele>160.0</ele>
                <time>2020-11-30T16:43:48.000Z</time>
            </trkpt>
            <trkpt lat="40.909641" lon="-8.517459">
                <ele>160.1</ele>
                <time>2020-11-30T16:43:49.000Z</time>
            </trkpt>
            <trkpt lat="40.909631" lon="-8.517451">
                <ele>160.2</ele>
                <time>2020-11-30T16:43:50.000Z</time>
            </trkpt>
            <trkpt lat="40.909621" lon="-8.517444">
                <ele>160.3</ele>
                <time>2020-11-30T16:43:51.000Z</time>
            </trkpt>
            <trkpt lat="40.90961" lon="-8.517437">
                <ele>160.4</ele>
                <time>2020-11-30T16:43:52.000Z</time>
            </trkpt>
            <trkpt lat="40.909598" lon="-8.517429">
                <ele>160.5</ele>
                <time>2020-11-30T16:43:53.000Z</time>
            </trkpt>
            <trkpt lat="40.909587" lon="-8.517421">
                <ele>160.6</ele>
                <time>2020-11-30T16:43:54.000Z</time>
            </trkpt>
            <trkpt lat="40.909576" lon="-8.517413">
                <ele>160.8</ele>
                <time>2020-11-30T16:43:55.000Z</time>
            </trkpt>
            <trkpt lat="40.909565" lon="-8.517404">
                <ele>160.9</ele>
                <time>2020-11-30T16:43:56.000Z</time>
            </trkpt>
            <trkpt lat="40.909555" lon="-8.517395">
                <ele>161.0</ele>
                <time>2020-11-30T16:43:57.000Z</time>
            </trkpt>
            <trkpt lat="40.909545" lon="-8.517384">
                <ele>161.1</ele>
                <time>2020-11-30T16:43:58.000Z</time>
            </trkpt>
            <trkpt lat="40.909536" lon="-8.517373">
                <ele>161.3</ele>
                <time>2020-11-30T16:43:59.000Z</time>
            </trkpt>
            <trkpt lat="40.909527" lon="-8.517362">
                <ele>161.4</ele>
                <time>2020-11-30T16:44:00.000Z</time>
            </trkpt>
            <trkpt lat="40.909517" lon="-8.517349">
                <ele>161.6</ele>
                <time>2020-11-30T16:44:01.000Z</time>
            </trkpt>
            <trkpt lat="40.909507" lon="-8.517337">
                <ele>161.7</ele>
                <time>2020-11-30T16:44:02.000Z</time>
            </trkpt>
            <trkpt lat="40.909496" lon="-8.517323">
                <ele>161.9</ele>
                <time>2020-11-30T16:44:03.000Z</time>
            </trkpt>
            <trkpt lat="40.909484" lon="-8.51731">
                <ele>162.0</ele>
                <time>2020-11-30T16:44:04.000Z</time>
            </trkpt>
            <trkpt lat="40.90947" lon="-8.517296">
                <ele>162.2</ele>
                <time>2020-11-30T16:44:05.000Z</time>
            </trkpt>
            <trkpt lat="40.909455" lon="-8.517282">
                <ele>162.4</ele>
                <time>2020-11-30T16:44:06.000Z</time>
            </trkpt>
            <trkpt lat="40.909438" lon="-8.517268">
                <ele>162.5</ele>
                <time>2020-11-30T16:44:07.000Z</time>
            </trkpt>
            <trkpt lat="40.90942" lon="-8.517255">
                <ele>162.7</ele>
                <time>2020-11-30T16:44:08.000Z</time>
            </trkpt>
            <trkpt lat="40.909402" lon="-8.517242">
                <ele>162.9</ele>
                <time>2020-11-30T16:44:09.000Z</time>
            </trkpt>
            <trkpt lat="40.909386" lon="-8.51723">
                <ele>163.1</ele>
                <time>2020-11-30T16:44:10.000Z</time>
            </trkpt>
            <trkpt lat="40.909371" lon="-8.517219">
                <ele>163.2</ele>
                <time>2020-11-30T16:44:11.000Z</time>
            </trkpt>
            <trkpt lat="40.909359" lon="-8.517211">
                <ele>163.3</ele>
                <time>2020-11-30T16:44:12.000Z</time>
            </trkpt>
            <trkpt lat="40.90935" lon="-8.517203">
                <ele>163.4</ele>
                <time>2020-11-30T16:44:13.000Z</time>
            </trkpt>
            <trkpt lat="40.909343" lon="-8.517196">
                <ele>163.5</ele>
                <time>2020-11-30T16:44:14.000Z</time>
            </trkpt>
            <trkpt lat="40.909338" lon="-8.51719">
                <ele>163.6</ele>
                <time>2020-11-30T16:44:15.000Z</time>
            </trkpt>
            <trkpt lat="40.909336" lon="-8.517183">
                <ele>163.6</ele>
                <time>2020-11-30T16:44:16.000Z</time>
            </trkpt>
            <trkpt lat="40.909335" lon="-8.517175">
                <ele>163.7</ele>
                <time>2020-11-30T16:44:17.000Z</time>
            </trkpt>
            <trkpt lat="40.909335" lon="-8.517166">
                <ele>163.8</ele>
                <time>2020-11-30T16:44:18.000Z</time>
            </trkpt>
            <trkpt lat="40.909337" lon="-8.517156">
                <ele>163.8</ele>
                <time>2020-11-30T16:44:19.000Z</time>
            </trkpt>
            <trkpt lat="40.909341" lon="-8.517145">
                <ele>163.9</ele>
                <time>2020-11-30T16:44:20.000Z</time>
            </trkpt>
            <trkpt lat="40.909345" lon="-8.517133">
                <ele>164.0</ele>
                <time>2020-11-30T16:44:21.000Z</time>
            </trkpt>
            <trkpt lat="40.90935" lon="-8.51712">
                <ele>164.1</ele>
                <time>2020-11-30T16:44:22.000Z</time>
            </trkpt>
            <trkpt lat="40.909355" lon="-8.517106">
                <ele>164.1</ele>
                <time>2020-11-30T16:44:23.000Z</time>
            </trkpt>
            <trkpt lat="40.909361" lon="-8.51709">
                <ele>164.2</ele>
                <time>2020-11-30T16:44:24.000Z</time>
            </trkpt>
            <trkpt lat="40.909367" lon="-8.517073">
                <ele>164.4</ele>
                <time>2020-11-30T16:44:25.000Z</time>
            </trkpt>
            <trkpt lat="40.909373" lon="-8.517054">
                <ele>164.5</ele>
                <time>2020-11-30T16:44:26.000Z</time>
            </trkpt>
            <trkpt lat="40.909379" lon="-8.517034">
                <ele>164.6</ele>
                <time>2020-11-30T16:44:27.000Z</time>
            </trkpt>
            <trkpt lat="40.909385" lon="-8.517013">
                <ele>164.8</ele>
                <time>2020-11-30T16:44:28.000Z</time>
            </trkpt>
            <trkpt lat="40.909391" lon="-8.51699">
                <ele>164.9</ele>
                <time>2020-11-30T16:44:29.000Z</time>
            </trkpt>
            <trkpt lat="40.909397" lon="-8.516967">
                <ele>165.1</ele>
                <time>2020-11-30T16:44:30.000Z</time>
            </trkpt>
            <trkpt lat="40.909403" lon="-8.516943">
                <ele>165.3</ele>
                <time>2020-11-30T16:44:31.000Z</time>
            </trkpt>
            <trkpt lat="40.909409" lon="-8.51692">
                <ele>165.4</ele>
                <time>2020-11-30T16:44:32.000Z</time>
            </trkpt>
            <trkpt lat="40.909416" lon="-8.516897">
                <ele>165.6</ele>
                <time>2020-11-30T16:44:33.000Z</time>
            </trkpt>
            <trkpt lat="40.909423" lon="-8.516875">
                <ele>165.7</ele>
                <time>2020-11-30T16:44:34.000Z</time>
            </trkpt>
            <trkpt lat="40.90943" lon="-8.516853">
                <ele>165.9</ele>
                <time>2020-11-30T16:44:35.000Z</time>
            </trkpt>
            <trkpt lat="40.909437" lon="-8.516831">
                <ele>166.0</ele>
                <time>2020-11-30T16:44:36.000Z</time>
            </trkpt>
            <trkpt lat="40.909444" lon="-8.516809">
                <ele>166.2</ele>
                <time>2020-11-30T16:44:37.000Z</time>
            </trkpt>
            <trkpt lat="40.909449" lon="-8.516787">
                <ele>166.4</ele>
                <time>2020-11-30T16:44:38.000Z</time>
            </trkpt>
            <trkpt lat="40.909454" lon="-8.516764">
                <ele>166.5</ele>
                <time>2020-11-30T16:44:39.000Z</time>
            </trkpt>
            <trkpt lat="40.909459" lon="-8.516741">
                <ele>166.7</ele>
                <time>2020-11-30T16:44:40.000Z</time>
            </trkpt>
            <trkpt lat="40.909463" lon="-8.516719">
                <ele>166.9</ele>
                <time>2020-11-30T16:44:41.000Z</time>
            </trkpt>
            <trkpt lat="40.909467" lon="-8.516697">
                <ele>167.0</ele>
                <time>2020-11-30T16:44:42.000Z</time>
            </trkpt>
            <trkpt lat="40.909472" lon="-8.516676">
                <ele>167.2</ele>
                <time>2020-11-30T16:44:43.000Z</time>
            </trkpt>
            <trkpt lat="40.909477" lon="-8.516656">
                <ele>167.3</ele>
                <time>2020-11-30T16:44:44.000Z</time>
            </trkpt>
            <trkpt lat="40.909483" lon="-8.516637">
                <ele>167.5</ele>
                <time>2020-11-30T16:44:45.000Z</time>
            </trkpt>
            <trkpt lat="40.909489" lon="-8.51662">
                <ele>167.6</ele>
                <time>2020-11-30T16:44:46.000Z</time>
            </trkpt>
            <trkpt lat="40.909497" lon="-8.516605">
                <ele>167.7</ele>
                <time>2020-11-30T16:44:47.000Z</time>
            </trkpt>
            <trkpt lat="40.909506" lon="-8.516592">
                <ele>167.8</ele>
                <time>2020-11-30T16:44:48.000Z</time>
            </trkpt>
            <trkpt lat="40.909517" lon="-8.51658">
                <ele>167.9</ele>
                <time>2020-11-30T16:44:49.000Z</time>
            </trkpt>
            <trkpt lat="40.909528" lon="-8.516571">
                <ele>167.9</ele>
                <time>2020-11-30T16:44:50.000Z</time>
            </trkpt>
            <trkpt lat="40.909541" lon="-8.516564">
                <ele>167.9</ele>
                <time>2020-11-30T16:44:51.000Z</time>
            </trkpt>
            <trkpt lat="40.909555" lon="-8.516557">
                <ele>167.9</ele>
                <time>2020-11-30T16:44:52.000Z</time>
            </trkpt>
            <trkpt lat="40.909569" lon="-8.516552">
                <ele>167.9</ele>
                <time>2020-11-30T16:44:53.000Z</time>
            </trkpt>
            <trkpt lat="40.909584" lon="-8.516547">
                <ele>167.9</ele>
                <time>2020-11-30T16:44:54.000Z</time>
            </trkpt>
            <trkpt lat="40.909598" lon="-8.516542">
                <ele>167.9</ele>
                <time>2020-11-30T16:44:55.000Z</time>
            </trkpt>
            <trkpt lat="40.909613" lon="-8.516537">
                <ele>167.9</ele>
                <time>2020-11-30T16:44:56.000Z</time>
            </trkpt>
            <trkpt lat="40.909627" lon="-8.516531">
                <ele>167.9</ele>
                <time>2020-11-30T16:44:57.000Z</time>
            </trkpt>
            <trkpt lat="40.90964" lon="-8.516525">
                <ele>167.9</ele>
                <time>2020-11-30T16:44:58.000Z</time>
            </trkpt>
            <trkpt lat="40.909653" lon="-8.516517">
                <ele>168.0</ele>
                <time>2020-11-30T16:44:59.000Z</time>
            </trkpt>
            <trkpt lat="40.909665" lon="-8.516508">
                <ele>168.0</ele>
                <time>2020-11-30T16:45:00.000Z</time>
            </trkpt>
            <trkpt lat="40.909675" lon="-8.516497">
                <ele>168.0</ele>
                <time>2020-11-30T16:45:01.000Z</time>
            </trkpt>
            <trkpt lat="40.909685" lon="-8.516485">
                <ele>168.1</ele>
                <time>2020-11-30T16:45:02.000Z</time>
            </trkpt>
            <trkpt lat="40.909693" lon="-8.516472">
                <ele>168.2</ele>
                <time>2020-11-30T16:45:03.000Z</time>
            </trkpt>
            <trkpt lat="40.9097" lon="-8.516457">
                <ele>168.2</ele>
                <time>2020-11-30T16:45:04.000Z</time>
            </trkpt>
            <trkpt lat="40.909706" lon="-8.51644">
                <ele>168.4</ele>
                <time>2020-11-30T16:45:05.000Z</time>
            </trkpt>
            <trkpt lat="40.90971" lon="-8.516422">
                <ele>168.5</ele>
                <time>2020-11-30T16:45:06.000Z</time>
            </trkpt>
            <trkpt lat="40.909713" lon="-8.516401">
                <ele>168.6</ele>
                <time>2020-11-30T16:45:07.000Z</time>
            </trkpt>
            <trkpt lat="40.909714" lon="-8.516379">
                <ele>168.8</ele>
                <time>2020-11-30T16:45:08.000Z</time>
            </trkpt>
            <trkpt lat="40.909713" lon="-8.516355">
                <ele>168.9</ele>
                <time>2020-11-30T16:45:09.000Z</time>
            </trkpt>
            <trkpt lat="40.909711" lon="-8.516329">
                <ele>169.1</ele>
                <time>2020-11-30T16:45:10.000Z</time>
            </trkpt>
            <trkpt lat="40.909706" lon="-8.516301">
                <ele>169.4</ele>
                <time>2020-11-30T16:45:11.000Z</time>
            </trkpt>
            <trkpt lat="40.909701" lon="-8.516272">
                <ele>169.6</ele>
                <time>2020-11-30T16:45:12.000Z</time>
            </trkpt>
            <trkpt lat="40.909694" lon="-8.516243">
                <ele>169.8</ele>
                <time>2020-11-30T16:45:13.000Z</time>
            </trkpt>
            <trkpt lat="40.909686" lon="-8.516213">
                <ele>170.1</ele>
                <time>2020-11-30T16:45:14.000Z</time>
            </trkpt>
            <trkpt lat="40.909678" lon="-8.516183">
                <ele>170.3</ele>
                <time>2020-11-30T16:45:15.000Z</time>
            </trkpt>
            <trkpt lat="40.909668" lon="-8.516153">
                <ele>170.6</ele>
                <time>2020-11-30T16:45:16.000Z</time>
            </trkpt>
            <trkpt lat="40.909659" lon="-8.516124">
                <ele>170.9</ele>
                <time>2020-11-30T16:45:17.000Z</time>
            </trkpt>
            <trkpt lat="40.909649" lon="-8.516097">
                <ele>171.1</ele>
                <time>2020-11-30T16:45:18.000Z</time>
            </trkpt>
            <trkpt lat="40.909639" lon="-8.516071">
                <ele>171.4</ele>
                <time>2020-11-30T16:45:19.000Z</time>
            </trkpt>
            <trkpt lat="40.90963" lon="-8.516047">
                <ele>171.6</ele>
                <time>2020-11-30T16:45:20.000Z</time>
            </trkpt>
            <trkpt lat="40.909622" lon="-8.516023">
                <ele>171.8</ele>
                <time>2020-11-30T16:45:21.000Z</time>
            </trkpt>
            <trkpt lat="40.909617" lon="-8.515997">
                <ele>172.0</ele>
                <time>2020-11-30T16:45:22.000Z</time>
            </trkpt>
            <trkpt lat="40.909614" lon="-8.515966">
                <ele>172.3</ele>
                <time>2020-11-30T16:45:23.000Z</time>
            </trkpt>
            <trkpt lat="40.909612" lon="-8.515934">
                <ele>172.6</ele>
                <time>2020-11-30T16:45:24.000Z</time>
            </trkpt>
            <trkpt lat="40.909607" lon="-8.515902">
                <ele>172.8</ele>
                <time>2020-11-30T16:45:25.000Z</time>
            </trkpt>
            <trkpt lat="40.9096" lon="-8.515873">
                <ele>173.1</ele>
                <time>2020-11-30T16:45:26.000Z</time>
            </trkpt>
            <trkpt lat="40.909591" lon="-8.515845">
                <ele>173.4</ele>
                <time>2020-11-30T16:45:27.000Z</time>
            </trkpt>
            <trkpt lat="40.909581" lon="-8.515818">
                <ele>173.7</ele>
                <time>2020-11-30T16:45:28.000Z</time>
            </trkpt>
            <trkpt lat="40.90957" lon="-8.515793">
                <ele>174.1</ele>
                <time>2020-11-30T16:45:29.000Z</time>
            </trkpt>
            <trkpt lat="40.909559" lon="-8.515769">
                <ele>174.5</ele>
                <time>2020-11-30T16:45:30.000Z</time>
            </trkpt>
            <trkpt lat="40.909548" lon="-8.515747">
                <ele>174.9</ele>
                <time>2020-11-30T16:45:31.000Z</time>
            </trkpt>
            <trkpt lat="40.909537" lon="-8.515726">
                <ele>175.3</ele>
                <time>2020-11-30T16:45:32.000Z</time>
            </trkpt>
            <trkpt lat="40.909526" lon="-8.515705">
                <ele>175.6</ele>
                <time>2020-11-30T16:45:33.000Z</time>
            </trkpt>
            <trkpt lat="40.909515" lon="-8.515686">
                <ele>176.0</ele>
                <time>2020-11-30T16:45:34.000Z</time>
            </trkpt>
            <trkpt lat="40.909504" lon="-8.515667">
                <ele>176.3</ele>
                <time>2020-11-30T16:45:35.000Z</time>
            </trkpt>
            <trkpt lat="40.909492" lon="-8.515648">
                <ele>176.6</ele>
                <time>2020-11-30T16:45:36.000Z</time>
            </trkpt>
            <trkpt lat="40.909479" lon="-8.51563">
                <ele>177.0</ele>
                <time>2020-11-30T16:45:37.000Z</time>
            </trkpt>
            <trkpt lat="40.909467" lon="-8.515613">
                <ele>177.3</ele>
                <time>2020-11-30T16:45:38.000Z</time>
            </trkpt>
            <trkpt lat="40.909453" lon="-8.515595">
                <ele>177.6</ele>
                <time>2020-11-30T16:45:39.000Z</time>
            </trkpt>
            <trkpt lat="40.909439" lon="-8.515577">
                <ele>178.0</ele>
                <time>2020-11-30T16:45:40.000Z</time>
            </trkpt>
            <trkpt lat="40.909424" lon="-8.51556">
                <ele>178.3</ele>
                <time>2020-11-30T16:45:41.000Z</time>
            </trkpt>
            <trkpt lat="40.909409" lon="-8.515542">
                <ele>178.6</ele>
                <time>2020-11-30T16:45:42.000Z</time>
            </trkpt>
            <trkpt lat="40.909393" lon="-8.515525">
                <ele>179.0</ele>
                <time>2020-11-30T16:45:43.000Z</time>
            </trkpt>
            <trkpt lat="40.909377" lon="-8.515507">
                <ele>179.3</ele>
                <time>2020-11-30T16:45:44.000Z</time>
            </trkpt>
            <trkpt lat="40.909361" lon="-8.51549">
                <ele>179.7</ele>
                <time>2020-11-30T16:45:45.000Z</time>
            </trkpt>
            <trkpt lat="40.909344" lon="-8.515473">
                <ele>180.0</ele>
                <time>2020-11-30T16:45:46.000Z</time>
            </trkpt>
            <trkpt lat="40.909327" lon="-8.515456">
                <ele>180.4</ele>
                <time>2020-11-30T16:45:47.000Z</time>
            </trkpt>
            <trkpt lat="40.90931" lon="-8.515439">
                <ele>180.7</ele>
                <time>2020-11-30T16:45:48.000Z</time>
            </trkpt>
            <trkpt lat="40.909294" lon="-8.515423">
                <ele>181.1</ele>
                <time>2020-11-30T16:45:49.000Z</time>
            </trkpt>
            <trkpt lat="40.909277" lon="-8.515407">
                <ele>181.4</ele>
                <time>2020-11-30T16:45:50.000Z</time>
            </trkpt>
            <trkpt lat="40.90926" lon="-8.515391">
                <ele>181.8</ele>
                <time>2020-11-30T16:45:51.000Z</time>
            </trkpt>
            <trkpt lat="40.909244" lon="-8.515375">
                <ele>182.1</ele>
                <time>2020-11-30T16:45:52.000Z</time>
            </trkpt>
            <trkpt lat="40.909228" lon="-8.51536">
                <ele>182.4</ele>
                <time>2020-11-30T16:45:53.000Z</time>
            </trkpt>
            <trkpt lat="40.909213" lon="-8.515345">
                <ele>182.7</ele>
                <time>2020-11-30T16:45:54.000Z</time>
            </trkpt>
            <trkpt lat="40.909198" lon="-8.515331">
                <ele>183.0</ele>
                <time>2020-11-30T16:45:55.000Z</time>
            </trkpt>
            <trkpt lat="40.909184" lon="-8.515317">
                <ele>183.3</ele>
                <time>2020-11-30T16:45:56.000Z</time>
            </trkpt>
            <trkpt lat="40.90917" lon="-8.515304">
                <ele>183.6</ele>
                <time>2020-11-30T16:45:57.000Z</time>
            </trkpt>
            <trkpt lat="40.909157" lon="-8.515291">
                <ele>183.8</ele>
                <time>2020-11-30T16:45:58.000Z</time>
            </trkpt>
            <trkpt lat="40.909145" lon="-8.515278">
                <ele>183.9</ele>
                <time>2020-11-30T16:45:59.000Z</time>
            </trkpt>
            <trkpt lat="40.909134" lon="-8.515267">
                <ele>184.0</ele>
                <time>2020-11-30T16:46:00.000Z</time>
            </trkpt>
            <trkpt lat="40.909124" lon="-8.515255">
                <ele>184.1</ele>
                <time>2020-11-30T16:46:01.000Z</time>
            </trkpt>
            <trkpt lat="40.909115" lon="-8.515245">
                <ele>184.1</ele>
                <time>2020-11-30T16:46:02.000Z</time>
            </trkpt>
            <trkpt lat="40.909108" lon="-8.515234">
                <ele>184.3</ele>
                <time>2020-11-30T16:46:03.000Z</time>
            </trkpt>
            <trkpt lat="40.909104" lon="-8.515223">
                <ele>184.4</ele>
                <time>2020-11-30T16:46:04.000Z</time>
            </trkpt>
            <trkpt lat="40.909102" lon="-8.515211">
                <ele>184.5</ele>
                <time>2020-11-30T16:46:05.000Z</time>
            </trkpt>
            <trkpt lat="40.909102" lon="-8.515199">
                <ele>184.7</ele>
                <time>2020-11-30T16:46:06.000Z</time>
            </trkpt>
            <trkpt lat="40.909105" lon="-8.515185">
                <ele>184.9</ele>
                <time>2020-11-30T16:46:07.000Z</time>
            </trkpt>
            <trkpt lat="40.909109" lon="-8.515169">
                <ele>185.2</ele>
                <time>2020-11-30T16:46:08.000Z</time>
            </trkpt>
            <trkpt lat="40.909113" lon="-8.51515">
                <ele>185.5</ele>
                <time>2020-11-30T16:46:09.000Z</time>
            </trkpt>
            <trkpt lat="40.909116" lon="-8.515127">
                <ele>185.8</ele>
                <time>2020-11-30T16:46:10.000Z</time>
            </trkpt>
            <trkpt lat="40.909118" lon="-8.515099">
                <ele>186.2</ele>
                <time>2020-11-30T16:46:11.000Z</time>
            </trkpt>
            <trkpt lat="40.909119" lon="-8.515069">
                <ele>186.6</ele>
                <time>2020-11-30T16:46:12.000Z</time>
            </trkpt>
            <trkpt lat="40.90912" lon="-8.515039">
                <ele>187.1</ele>
                <time>2020-11-30T16:46:13.000Z</time>
            </trkpt>
            <trkpt lat="40.909123" lon="-8.51501">
                <ele>187.5</ele>
                <time>2020-11-30T16:46:14.000Z</time>
            </trkpt>
            <trkpt lat="40.909129" lon="-8.514985">
                <ele>187.7</ele>
                <time>2020-11-30T16:46:15.000Z</time>
            </trkpt>
            <trkpt lat="40.909138" lon="-8.514965">
                <ele>187.8</ele>
                <time>2020-11-30T16:46:16.000Z</time>
            </trkpt>
            <trkpt lat="40.909151" lon="-8.51495">
                <ele>188.0</ele>
                <time>2020-11-30T16:46:17.000Z</time>
            </trkpt>
            <trkpt lat="40.909167" lon="-8.514937">
                <ele>188.1</ele>
                <time>2020-11-30T16:46:18.000Z</time>
            </trkpt>
            <trkpt lat="40.909187" lon="-8.514926">
                <ele>188.1</ele>
                <time>2020-11-30T16:46:19.000Z</time>
            </trkpt>
            <trkpt lat="40.909211" lon="-8.514914">
                <ele>187.9</ele>
                <time>2020-11-30T16:46:20.000Z</time>
            </trkpt>
            <trkpt lat="40.909238" lon="-8.5149">
                <ele>187.8</ele>
                <time>2020-11-30T16:46:21.000Z</time>
            </trkpt>
            <trkpt lat="40.909267" lon="-8.514884">
                <ele>187.7</ele>
                <time>2020-11-30T16:46:22.000Z</time>
            </trkpt>
            <trkpt lat="40.909297" lon="-8.514866">
                <ele>187.6</ele>
                <time>2020-11-30T16:46:23.000Z</time>
            </trkpt>
            <trkpt lat="40.909326" lon="-8.514846">
                <ele>187.5</ele>
                <time>2020-11-30T16:46:24.000Z</time>
            </trkpt>
            <trkpt lat="40.909354" lon="-8.514823">
                <ele>187.5</ele>
                <time>2020-11-30T16:46:25.000Z</time>
            </trkpt>
            <trkpt lat="40.909379" lon="-8.514798">
                <ele>187.5</ele>
                <time>2020-11-30T16:46:26.000Z</time>
            </trkpt>
            <trkpt lat="40.9094" lon="-8.514771">
                <ele>187.6</ele>
                <time>2020-11-30T16:46:27.000Z</time>
            </trkpt>
            <trkpt lat="40.909418" lon="-8.514742">
                <ele>187.6</ele>
                <time>2020-11-30T16:46:28.000Z</time>
            </trkpt>
            <trkpt lat="40.909432" lon="-8.514712">
                <ele>187.8</ele>
                <time>2020-11-30T16:46:29.000Z</time>
            </trkpt>
            <trkpt lat="40.909444" lon="-8.514682">
                <ele>187.9</ele>
                <time>2020-11-30T16:46:30.000Z</time>
            </trkpt>
            <trkpt lat="40.909454" lon="-8.514652">
                <ele>188.1</ele>
                <time>2020-11-30T16:46:31.000Z</time>
            </trkpt>
            <trkpt lat="40.909463" lon="-8.514622">
                <ele>188.2</ele>
                <time>2020-11-30T16:46:32.000Z</time>
            </trkpt>
            <trkpt lat="40.909472" lon="-8.514594">
                <ele>188.4</ele>
                <time>2020-11-30T16:46:33.000Z</time>
            </trkpt>
            <trkpt lat="40.90948" lon="-8.514566">
                <ele>188.5</ele>
                <time>2020-11-30T16:46:34.000Z</time>
            </trkpt>
            <trkpt lat="40.909489" lon="-8.51454">
                <ele>188.7</ele>
                <time>2020-11-30T16:46:35.000Z</time>
            </trkpt>
            <trkpt lat="40.909498" lon="-8.514514">
                <ele>188.9</ele>
                <time>2020-11-30T16:46:36.000Z</time>
            </trkpt>
            <trkpt lat="40.909508" lon="-8.51449">
                <ele>189.0</ele>
                <time>2020-11-30T16:46:37.000Z</time>
            </trkpt>
            <trkpt lat="40.909519" lon="-8.514467">
                <ele>189.2</ele>
                <time>2020-11-30T16:46:38.000Z</time>
            </trkpt>
            <trkpt lat="40.909531" lon="-8.514443">
                <ele>189.3</ele>
                <time>2020-11-30T16:46:39.000Z</time>
            </trkpt>
            <trkpt lat="40.909542" lon="-8.51442">
                <ele>189.5</ele>
                <time>2020-11-30T16:46:40.000Z</time>
            </trkpt>
            <trkpt lat="40.909552" lon="-8.514395">
                <ele>189.7</ele>
                <time>2020-11-30T16:46:41.000Z</time>
            </trkpt>
            <trkpt lat="40.909561" lon="-8.514369">
                <ele>189.9</ele>
                <time>2020-11-30T16:46:42.000Z</time>
            </trkpt>
            <trkpt lat="40.90957" lon="-8.514344">
                <ele>190.1</ele>
                <time>2020-11-30T16:46:43.000Z</time>
            </trkpt>
            <trkpt lat="40.909579" lon="-8.514322">
                <ele>190.3</ele>
                <time>2020-11-30T16:46:44.000Z</time>
            </trkpt>
            <trkpt lat="40.909589" lon="-8.514305">
                <ele>190.4</ele>
                <time>2020-11-30T16:46:45.000Z</time>
            </trkpt>
            <trkpt lat="40.909601" lon="-8.514295">
                <ele>190.5</ele>
                <time>2020-11-30T16:46:46.000Z</time>
            </trkpt>
            <trkpt lat="40.909615" lon="-8.514294">
                <ele>190.6</ele>
                <time>2020-11-30T16:46:47.000Z</time>
            </trkpt>
            <trkpt lat="40.909632" lon="-8.5143">
                <ele>190.6</ele>
                <time>2020-11-30T16:46:48.000Z</time>
            </trkpt>
            <trkpt lat="40.90965" lon="-8.514313">
                <ele>190.5</ele>
                <time>2020-11-30T16:46:49.000Z</time>
            </trkpt>
            <trkpt lat="40.909669" lon="-8.51433">
                <ele>190.4</ele>
                <time>2020-11-30T16:46:50.000Z</time>
            </trkpt>
            <trkpt lat="40.909688" lon="-8.51435">
                <ele>190.2</ele>
                <time>2020-11-30T16:46:51.000Z</time>
            </trkpt>
            <trkpt lat="40.909706" lon="-8.514372">
                <ele>190.0</ele>
                <time>2020-11-30T16:46:52.000Z</time>
            </trkpt>
            <trkpt lat="40.909724" lon="-8.514395">
                <ele>189.8</ele>
                <time>2020-11-30T16:46:53.000Z</time>
            </trkpt>
            <trkpt lat="40.909741" lon="-8.514419">
                <ele>189.6</ele>
                <time>2020-11-30T16:46:54.000Z</time>
            </trkpt>
            <trkpt lat="40.909758" lon="-8.514443">
                <ele>189.3</ele>
                <time>2020-11-30T16:46:55.000Z</time>
            </trkpt>
            <trkpt lat="40.909776" lon="-8.514468">
                <ele>189.1</ele>
                <time>2020-11-30T16:46:56.000Z</time>
            </trkpt>
            <trkpt lat="40.909793" lon="-8.514493">
                <ele>188.8</ele>
                <time>2020-11-30T16:46:57.000Z</time>
            </trkpt>
            <trkpt lat="40.90981" lon="-8.514517">
                <ele>188.6</ele>
                <time>2020-11-30T16:46:58.000Z</time>
            </trkpt>
            <trkpt lat="40.909828" lon="-8.514542">
                <ele>188.3</ele>
                <time>2020-11-30T16:46:59.000Z</time>
            </trkpt>
            <trkpt lat="40.909847" lon="-8.514565">
                <ele>188.0</ele>
                <time>2020-11-30T16:47:00.000Z</time>
            </trkpt>
            <trkpt lat="40.909866" lon="-8.514588">
                <ele>187.7</ele>
                <time>2020-11-30T16:47:01.000Z</time>
            </trkpt>
            <trkpt lat="40.909885" lon="-8.514609">
                <ele>187.4</ele>
                <time>2020-11-30T16:47:02.000Z</time>
            </trkpt>
            <trkpt lat="40.909906" lon="-8.514629">
                <ele>187.1</ele>
                <time>2020-11-30T16:47:03.000Z</time>
            </trkpt>
            <trkpt lat="40.909927" lon="-8.514649">
                <ele>186.8</ele>
                <time>2020-11-30T16:47:04.000Z</time>
            </trkpt>
            <trkpt lat="40.909949" lon="-8.514667">
                <ele>186.5</ele>
                <time>2020-11-30T16:47:05.000Z</time>
            </trkpt>
            <trkpt lat="40.909972" lon="-8.514685">
                <ele>186.2</ele>
                <time>2020-11-30T16:47:06.000Z</time>
            </trkpt>
            <trkpt lat="40.909995" lon="-8.514702">
                <ele>186.0</ele>
                <time>2020-11-30T16:47:07.000Z</time>
            </trkpt>
            <trkpt lat="40.910018" lon="-8.514719">
                <ele>185.8</ele>
                <time>2020-11-30T16:47:08.000Z</time>
            </trkpt>
            <trkpt lat="40.910042" lon="-8.514735">
                <ele>185.6</ele>
                <time>2020-11-30T16:47:09.000Z</time>
            </trkpt>
            <trkpt lat="40.910066" lon="-8.514751">
                <ele>185.5</ele>
                <time>2020-11-30T16:47:10.000Z</time>
            </trkpt>
            <trkpt lat="40.910091" lon="-8.514767">
                <ele>185.4</ele>
                <time>2020-11-30T16:47:11.000Z</time>
            </trkpt>
            <trkpt lat="40.910116" lon="-8.514783">
                <ele>185.2</ele>
                <time>2020-11-30T16:47:12.000Z</time>
            </trkpt>
            <trkpt lat="40.910141" lon="-8.514799">
                <ele>185.1</ele>
                <time>2020-11-30T16:47:13.000Z</time>
            </trkpt>
            <trkpt lat="40.910166" lon="-8.514815">
                <ele>185.0</ele>
                <time>2020-11-30T16:47:14.000Z</time>
            </trkpt>
            <trkpt lat="40.910191" lon="-8.514831">
                <ele>184.9</ele>
                <time>2020-11-30T16:47:15.000Z</time>
            </trkpt>
            <trkpt lat="40.910216" lon="-8.514848">
                <ele>184.7</ele>
                <time>2020-11-30T16:47:16.000Z</time>
            </trkpt>
            <trkpt lat="40.910241" lon="-8.514865">
                <ele>184.6</ele>
                <time>2020-11-30T16:47:17.000Z</time>
            </trkpt>
            <trkpt lat="40.910266" lon="-8.514883">
                <ele>184.5</ele>
                <time>2020-11-30T16:47:18.000Z</time>
            </trkpt>
            <trkpt lat="40.910291" lon="-8.514901">
                <ele>184.3</ele>
                <time>2020-11-30T16:47:19.000Z</time>
            </trkpt>
            <trkpt lat="40.910315" lon="-8.514919">
                <ele>184.2</ele>
                <time>2020-11-30T16:47:20.000Z</time>
            </trkpt>
            <trkpt lat="40.910339" lon="-8.514939">
                <ele>184.0</ele>
                <time>2020-11-30T16:47:21.000Z</time>
            </trkpt>
            <trkpt lat="40.910362" lon="-8.514959">
                <ele>183.8</ele>
                <time>2020-11-30T16:47:22.000Z</time>
            </trkpt>
            <trkpt lat="40.910384" lon="-8.51498">
                <ele>183.6</ele>
                <time>2020-11-30T16:47:23.000Z</time>
            </trkpt>
            <trkpt lat="40.910406" lon="-8.515001">
                <ele>183.4</ele>
                <time>2020-11-30T16:47:24.000Z</time>
            </trkpt>
            <trkpt lat="40.910428" lon="-8.515024">
                <ele>183.2</ele>
                <time>2020-11-30T16:47:25.000Z</time>
            </trkpt>
            <trkpt lat="40.910449" lon="-8.515047">
                <ele>183.0</ele>
                <time>2020-11-30T16:47:26.000Z</time>
            </trkpt>
            <trkpt lat="40.910469" lon="-8.515071">
                <ele>182.8</ele>
                <time>2020-11-30T16:47:27.000Z</time>
            </trkpt>
            <trkpt lat="40.910489" lon="-8.515095">
                <ele>182.6</ele>
                <time>2020-11-30T16:47:28.000Z</time>
            </trkpt>
            <trkpt lat="40.910509" lon="-8.515121">
                <ele>182.3</ele>
                <time>2020-11-30T16:47:29.000Z</time>
            </trkpt>
            <trkpt lat="40.910528" lon="-8.515146">
                <ele>182.1</ele>
                <time>2020-11-30T16:47:30.000Z</time>
            </trkpt>
            <trkpt lat="40.910546" lon="-8.515173">
                <ele>181.8</ele>
                <time>2020-11-30T16:47:31.000Z</time>
            </trkpt>
            <trkpt lat="40.910564" lon="-8.5152">
                <ele>181.6</ele>
                <time>2020-11-30T16:47:32.000Z</time>
            </trkpt>
            <trkpt lat="40.910582" lon="-8.515227">
                <ele>181.3</ele>
                <time>2020-11-30T16:47:33.000Z</time>
            </trkpt>
            <trkpt lat="40.910599" lon="-8.515256">
                <ele>181.0</ele>
                <time>2020-11-30T16:47:34.000Z</time>
            </trkpt>
            <trkpt lat="40.910617" lon="-8.515284">
                <ele>180.7</ele>
                <time>2020-11-30T16:47:35.000Z</time>
            </trkpt>
            <trkpt lat="40.910633" lon="-8.515313">
                <ele>180.4</ele>
                <time>2020-11-30T16:47:36.000Z</time>
            </trkpt>
            <trkpt lat="40.91065" lon="-8.515343">
                <ele>180.1</ele>
                <time>2020-11-30T16:47:37.000Z</time>
            </trkpt>
            <trkpt lat="40.910666" lon="-8.515372">
                <ele>179.8</ele>
                <time>2020-11-30T16:47:38.000Z</time>
            </trkpt>
            <trkpt lat="40.910682" lon="-8.515403">
                <ele>179.5</ele>
                <time>2020-11-30T16:47:39.000Z</time>
            </trkpt>
            <trkpt lat="40.910698" lon="-8.515433">
                <ele>179.2</ele>
                <time>2020-11-30T16:47:40.000Z</time>
            </trkpt>
            <trkpt lat="40.910713" lon="-8.515464">
                <ele>178.9</ele>
                <time>2020-11-30T16:47:41.000Z</time>
            </trkpt>
            <trkpt lat="40.910729" lon="-8.515495">
                <ele>178.6</ele>
                <time>2020-11-30T16:47:42.000Z</time>
            </trkpt>
            <trkpt lat="40.910744" lon="-8.515527">
                <ele>178.3</ele>
                <time>2020-11-30T16:47:43.000Z</time>
            </trkpt>
            <trkpt lat="40.910759" lon="-8.515558">
                <ele>178.0</ele>
                <time>2020-11-30T16:47:44.000Z</time>
            </trkpt>
            <trkpt lat="40.910774" lon="-8.51559">
                <ele>177.7</ele>
                <time>2020-11-30T16:47:45.000Z</time>
            </trkpt>
            <trkpt lat="40.910789" lon="-8.515621">
                <ele>177.3</ele>
                <time>2020-11-30T16:47:46.000Z</time>
            </trkpt>
            <trkpt lat="40.910804" lon="-8.515651">
                <ele>177.1</ele>
                <time>2020-11-30T16:47:47.000Z</time>
            </trkpt>
            <trkpt lat="40.910819" lon="-8.515682">
                <ele>176.8</ele>
                <time>2020-11-30T16:47:48.000Z</time>
            </trkpt>
            <trkpt lat="40.910833" lon="-8.515711">
                <ele>176.5</ele>
                <time>2020-11-30T16:47:49.000Z</time>
            </trkpt>
            <trkpt lat="40.910848" lon="-8.51574">
                <ele>176.3</ele>
                <time>2020-11-30T16:47:50.000Z</time>
            </trkpt>
            <trkpt lat="40.910864" lon="-8.515767">
                <ele>176.1</ele>
                <time>2020-11-30T16:47:51.000Z</time>
            </trkpt>
            <trkpt lat="40.910881" lon="-8.515793">
                <ele>176.0</ele>
                <time>2020-11-30T16:47:52.000Z</time>
            </trkpt>
            <trkpt lat="40.910899" lon="-8.515818">
                <ele>175.9</ele>
                <time>2020-11-30T16:47:53.000Z</time>
            </trkpt>
            <trkpt lat="40.910919" lon="-8.515842">
                <ele>175.8</ele>
                <time>2020-11-30T16:47:54.000Z</time>
            </trkpt>
            <trkpt lat="40.910941" lon="-8.515864">
                <ele>175.8</ele>
                <time>2020-11-30T16:47:55.000Z</time>
            </trkpt>
            <trkpt lat="40.910963" lon="-8.515885">
                <ele>175.8</ele>
                <time>2020-11-30T16:47:56.000Z</time>
            </trkpt>
            <trkpt lat="40.910987" lon="-8.515905">
                <ele>175.9</ele>
                <time>2020-11-30T16:47:57.000Z</time>
            </trkpt>
            <trkpt lat="40.911012" lon="-8.515923">
                <ele>176.0</ele>
                <time>2020-11-30T16:47:58.000Z</time>
            </trkpt>
            <trkpt lat="40.911037" lon="-8.515941">
                <ele>176.0</ele>
                <time>2020-11-30T16:47:59.000Z</time>
            </trkpt>
            <trkpt lat="40.911062" lon="-8.515958">
                <ele>176.1</ele>
                <time>2020-11-30T16:48:00.000Z</time>
            </trkpt>
            <trkpt lat="40.911087" lon="-8.515974">
                <ele>176.2</ele>
                <time>2020-11-30T16:48:01.000Z</time>
            </trkpt>
            <trkpt lat="40.911112" lon="-8.51599">
                <ele>176.3</ele>
                <time>2020-11-30T16:48:02.000Z</time>
            </trkpt>
            <trkpt lat="40.911136" lon="-8.516005">
                <ele>176.4</ele>
                <time>2020-11-30T16:48:03.000Z</time>
            </trkpt>
            <trkpt lat="40.911159" lon="-8.51602">
                <ele>176.5</ele>
                <time>2020-11-30T16:48:04.000Z</time>
            </trkpt>
            <trkpt lat="40.911182" lon="-8.516035">
                <ele>176.6</ele>
                <time>2020-11-30T16:48:05.000Z</time>
            </trkpt>
            <trkpt lat="40.911204" lon="-8.516049">
                <ele>176.7</ele>
                <time>2020-11-30T16:48:06.000Z</time>
            </trkpt>
            <trkpt lat="40.911226" lon="-8.516062">
                <ele>176.8</ele>
                <time>2020-11-30T16:48:07.000Z</time>
            </trkpt>
            <trkpt lat="40.911247" lon="-8.516075">
                <ele>176.9</ele>
                <time>2020-11-30T16:48:08.000Z</time>
            </trkpt>
            <trkpt lat="40.911268" lon="-8.516087">
                <ele>177.0</ele>
                <time>2020-11-30T16:48:09.000Z</time>
            </trkpt>
            <trkpt lat="40.91129" lon="-8.516099">
                <ele>177.1</ele>
                <time>2020-11-30T16:48:10.000Z</time>
            </trkpt>
            <trkpt lat="40.911311" lon="-8.516109">
                <ele>177.2</ele>
                <time>2020-11-30T16:48:11.000Z</time>
            </trkpt>
            <trkpt lat="40.911333" lon="-8.516119">
                <ele>177.3</ele>
                <time>2020-11-30T16:48:12.000Z</time>
            </trkpt>
            <trkpt lat="40.911355" lon="-8.516127">
                <ele>177.5</ele>
                <time>2020-11-30T16:48:13.000Z</time>
            </trkpt>
            <trkpt lat="40.911377" lon="-8.516134">
                <ele>177.6</ele>
                <time>2020-11-30T16:48:14.000Z</time>
            </trkpt>
            <trkpt lat="40.911401" lon="-8.516141">
                <ele>177.8</ele>
                <time>2020-11-30T16:48:15.000Z</time>
            </trkpt>
            <trkpt lat="40.911424" lon="-8.516146">
                <ele>178.0</ele>
                <time>2020-11-30T16:48:16.000Z</time>
            </trkpt>
            <trkpt lat="40.911448" lon="-8.516151">
                <ele>178.2</ele>
                <time>2020-11-30T16:48:17.000Z</time>
            </trkpt>
            <trkpt lat="40.911472" lon="-8.516156">
                <ele>178.4</ele>
                <time>2020-11-30T16:48:18.000Z</time>
            </trkpt>
            <trkpt lat="40.911496" lon="-8.51616">
                <ele>178.6</ele>
                <time>2020-11-30T16:48:19.000Z</time>
            </trkpt>
            <trkpt lat="40.911519" lon="-8.516164">
                <ele>178.8</ele>
                <time>2020-11-30T16:48:20.000Z</time>
            </trkpt>
            <trkpt lat="40.911543" lon="-8.516168">
                <ele>179.0</ele>
                <time>2020-11-30T16:48:21.000Z</time>
            </trkpt>
            <trkpt lat="40.911567" lon="-8.516172">
                <ele>179.3</ele>
                <time>2020-11-30T16:48:22.000Z</time>
            </trkpt>
            <trkpt lat="40.911589" lon="-8.516176">
                <ele>179.5</ele>
                <time>2020-11-30T16:48:23.000Z</time>
            </trkpt>
            <trkpt lat="40.911612" lon="-8.516181">
                <ele>179.7</ele>
                <time>2020-11-30T16:48:24.000Z</time>
            </trkpt>
            <trkpt lat="40.911634" lon="-8.516186">
                <ele>179.8</ele>
                <time>2020-11-30T16:48:25.000Z</time>
            </trkpt>
            <trkpt lat="40.911655" lon="-8.516193">
                <ele>180.0</ele>
                <time>2020-11-30T16:48:26.000Z</time>
            </trkpt>
            <trkpt lat="40.911676" lon="-8.516201">
                <ele>180.1</ele>
                <time>2020-11-30T16:48:27.000Z</time>
            </trkpt>
            <trkpt lat="40.911696" lon="-8.51621">
                <ele>180.1</ele>
                <time>2020-11-30T16:48:28.000Z</time>
            </trkpt>
            <trkpt lat="40.911716" lon="-8.516222">
                <ele>180.1</ele>
                <time>2020-11-30T16:48:29.000Z</time>
            </trkpt>
            <trkpt lat="40.911735" lon="-8.516235">
                <ele>180.0</ele>
                <time>2020-11-30T16:48:30.000Z</time>
            </trkpt>
            <trkpt lat="40.911753" lon="-8.516251">
                <ele>180.0</ele>
                <time>2020-11-30T16:48:31.000Z</time>
            </trkpt>
            <trkpt lat="40.911772" lon="-8.516268">
                <ele>179.9</ele>
                <time>2020-11-30T16:48:32.000Z</time>
            </trkpt>
            <trkpt lat="40.911791" lon="-8.516287">
                <ele>179.8</ele>
                <time>2020-11-30T16:48:33.000Z</time>
            </trkpt>
            <trkpt lat="40.911811" lon="-8.516307">
                <ele>179.6</ele>
                <time>2020-11-30T16:48:34.000Z</time>
            </trkpt>
            <trkpt lat="40.911831" lon="-8.516327">
                <ele>179.5</ele>
                <time>2020-11-30T16:48:35.000Z</time>
            </trkpt>
            <trkpt lat="40.911852" lon="-8.516348">
                <ele>179.4</ele>
                <time>2020-11-30T16:48:36.000Z</time>
            </trkpt>
            <trkpt lat="40.911874" lon="-8.516368">
                <ele>179.2</ele>
                <time>2020-11-30T16:48:37.000Z</time>
            </trkpt>
            <trkpt lat="40.911897" lon="-8.516386">
                <ele>179.1</ele>
                <time>2020-11-30T16:48:38.000Z</time>
            </trkpt>
            <trkpt lat="40.911919" lon="-8.516401">
                <ele>179.1</ele>
                <time>2020-11-30T16:48:39.000Z</time>
            </trkpt>
            <trkpt lat="40.911942" lon="-8.516413">
                <ele>179.0</ele>
                <time>2020-11-30T16:48:40.000Z</time>
            </trkpt>
            <trkpt lat="40.911965" lon="-8.516422">
                <ele>179.0</ele>
                <time>2020-11-30T16:48:41.000Z</time>
            </trkpt>
            <trkpt lat="40.911989" lon="-8.516429">
                <ele>179.1</ele>
                <time>2020-11-30T16:48:42.000Z</time>
            </trkpt>
            <trkpt lat="40.912012" lon="-8.516436">
                <ele>179.1</ele>
                <time>2020-11-30T16:48:43.000Z</time>
            </trkpt>
            <trkpt lat="40.912037" lon="-8.516441">
                <ele>179.1</ele>
                <time>2020-11-30T16:48:44.000Z</time>
            </trkpt>
            <trkpt lat="40.912062" lon="-8.516448">
                <ele>179.2</ele>
                <time>2020-11-30T16:48:45.000Z</time>
            </trkpt>
            <trkpt lat="40.912087" lon="-8.516454">
                <ele>179.2</ele>
                <time>2020-11-30T16:48:46.000Z</time>
            </trkpt>
            <trkpt lat="40.912113" lon="-8.51646">
                <ele>179.2</ele>
                <time>2020-11-30T16:48:47.000Z</time>
            </trkpt>
            <trkpt lat="40.912138" lon="-8.516467">
                <ele>179.3</ele>
                <time>2020-11-30T16:48:48.000Z</time>
            </trkpt>
            <trkpt lat="40.912165" lon="-8.516473">
                <ele>179.3</ele>
                <time>2020-11-30T16:48:49.000Z</time>
            </trkpt>
            <trkpt lat="40.912191" lon="-8.516479">
                <ele>179.3</ele>
                <time>2020-11-30T16:48:50.000Z</time>
            </trkpt>
            <trkpt lat="40.912217" lon="-8.516483">
                <ele>179.4</ele>
                <time>2020-11-30T16:48:51.000Z</time>
            </trkpt>
            <trkpt lat="40.912243" lon="-8.516487">
                <ele>179.5</ele>
                <time>2020-11-30T16:48:52.000Z</time>
            </trkpt>
            <trkpt lat="40.912269" lon="-8.51649">
                <ele>179.5</ele>
                <time>2020-11-30T16:48:53.000Z</time>
            </trkpt>
            <trkpt lat="40.912294" lon="-8.516492">
                <ele>179.6</ele>
                <time>2020-11-30T16:48:54.000Z</time>
            </trkpt>
            <trkpt lat="40.91232" lon="-8.516492">
                <ele>179.7</ele>
                <time>2020-11-30T16:48:55.000Z</time>
            </trkpt>
            <trkpt lat="40.912344" lon="-8.516491">
                <ele>179.8</ele>
                <time>2020-11-30T16:48:56.000Z</time>
            </trkpt>
            <trkpt lat="40.912369" lon="-8.516488">
                <ele>180.0</ele>
                <time>2020-11-30T16:48:57.000Z</time>
            </trkpt>
            <trkpt lat="40.912393" lon="-8.516485">
                <ele>180.1</ele>
                <time>2020-11-30T16:48:58.000Z</time>
            </trkpt>
            <trkpt lat="40.912418" lon="-8.516481">
                <ele>180.3</ele>
                <time>2020-11-30T16:48:59.000Z</time>
            </trkpt>
            <trkpt lat="40.912442" lon="-8.516477">
                <ele>180.5</ele>
                <time>2020-11-30T16:49:00.000Z</time>
            </trkpt>
            <trkpt lat="40.912466" lon="-8.516473">
                <ele>180.6</ele>
                <time>2020-11-30T16:49:01.000Z</time>
            </trkpt>
            <trkpt lat="40.91249" lon="-8.516468">
                <ele>180.8</ele>
                <time>2020-11-30T16:49:02.000Z</time>
            </trkpt>
            <trkpt lat="40.912515" lon="-8.516464">
                <ele>180.9</ele>
                <time>2020-11-30T16:49:03.000Z</time>
            </trkpt>
            <trkpt lat="40.912539" lon="-8.516461">
                <ele>180.9</ele>
                <time>2020-11-30T16:49:04.000Z</time>
            </trkpt>
            <trkpt lat="40.912564" lon="-8.516458">
                <ele>180.9</ele>
                <time>2020-11-30T16:49:05.000Z</time>
            </trkpt>
            <trkpt lat="40.912589" lon="-8.516456">
                <ele>180.9</ele>
                <time>2020-11-30T16:49:06.000Z</time>
            </trkpt>
            <trkpt lat="40.912614" lon="-8.516453">
                <ele>180.9</ele>
                <time>2020-11-30T16:49:07.000Z</time>
            </trkpt>
            <trkpt lat="40.912639" lon="-8.51645">
                <ele>180.9</ele>
                <time>2020-11-30T16:49:08.000Z</time>
            </trkpt>
            <trkpt lat="40.912664" lon="-8.516446">
                <ele>180.9</ele>
                <time>2020-11-30T16:49:09.000Z</time>
            </trkpt>
            <trkpt lat="40.912689" lon="-8.516441">
                <ele>181.0</ele>
                <time>2020-11-30T16:49:10.000Z</time>
            </trkpt>
            <trkpt lat="40.912714" lon="-8.516434">
                <ele>181.0</ele>
                <time>2020-11-30T16:49:11.000Z</time>
            </trkpt>
            <trkpt lat="40.912739" lon="-8.516426">
                <ele>181.1</ele>
                <time>2020-11-30T16:49:12.000Z</time>
            </trkpt>
            <trkpt lat="40.912762" lon="-8.516418">
                <ele>181.2</ele>
                <time>2020-11-30T16:49:13.000Z</time>
            </trkpt>
            <trkpt lat="40.912786" lon="-8.516411">
                <ele>181.2</ele>
                <time>2020-11-30T16:49:14.000Z</time>
            </trkpt>
            <trkpt lat="40.912808" lon="-8.516404">
                <ele>181.3</ele>
                <time>2020-11-30T16:49:15.000Z</time>
            </trkpt>
            <trkpt lat="40.91283" lon="-8.516399">
                <ele>181.3</ele>
                <time>2020-11-30T16:49:16.000Z</time>
            </trkpt>
            <trkpt lat="40.912851" lon="-8.516396">
                <ele>181.3</ele>
                <time>2020-11-30T16:49:17.000Z</time>
            </trkpt>
            <trkpt lat="40.912872" lon="-8.516394">
                <ele>181.3</ele>
                <time>2020-11-30T16:49:18.000Z</time>
            </trkpt>
            <trkpt lat="40.912893" lon="-8.516393">
                <ele>181.3</ele>
                <time>2020-11-30T16:49:19.000Z</time>
            </trkpt>
            <trkpt lat="40.912914" lon="-8.516393">
                <ele>181.3</ele>
                <time>2020-11-30T16:49:20.000Z</time>
            </trkpt>
            <trkpt lat="40.912935" lon="-8.516395">
                <ele>181.2</ele>
                <time>2020-11-30T16:49:21.000Z</time>
            </trkpt>
            <trkpt lat="40.912957" lon="-8.516398">
                <ele>181.1</ele>
                <time>2020-11-30T16:49:22.000Z</time>
            </trkpt>
            <trkpt lat="40.91298" lon="-8.516401">
                <ele>181.1</ele>
                <time>2020-11-30T16:49:23.000Z</time>
            </trkpt>
            <trkpt lat="40.913005" lon="-8.516405">
                <ele>181.0</ele>
                <time>2020-11-30T16:49:24.000Z</time>
            </trkpt>
            <trkpt lat="40.91303" lon="-8.51641">
                <ele>180.9</ele>
                <time>2020-11-30T16:49:25.000Z</time>
            </trkpt>
            <trkpt lat="40.913058" lon="-8.516415">
                <ele>180.8</ele>
                <time>2020-11-30T16:49:26.000Z</time>
            </trkpt>
            <trkpt lat="40.913086" lon="-8.51642">
                <ele>180.6</ele>
                <time>2020-11-30T16:49:27.000Z</time>
            </trkpt>
            <trkpt lat="40.913113" lon="-8.516425">
                <ele>180.5</ele>
                <time>2020-11-30T16:49:28.000Z</time>
            </trkpt>
            <trkpt lat="40.913139" lon="-8.51643">
                <ele>180.4</ele>
                <time>2020-11-30T16:49:29.000Z</time>
            </trkpt>
            <trkpt lat="40.913163" lon="-8.516435">
                <ele>180.3</ele>
                <time>2020-11-30T16:49:30.000Z</time>
            </trkpt>
            <trkpt lat="40.913183" lon="-8.51644">
                <ele>180.2</ele>
                <time>2020-11-30T16:49:31.000Z</time>
            </trkpt>
            <trkpt lat="40.9132" lon="-8.516445">
                <ele>180.1</ele>
                <time>2020-11-30T16:49:32.000Z</time>
            </trkpt>
            <trkpt lat="40.913215" lon="-8.516451">
                <ele>180.0</ele>
                <time>2020-11-30T16:49:33.000Z</time>
            </trkpt>
            <trkpt lat="40.913229" lon="-8.516459">
                <ele>179.9</ele>
                <time>2020-11-30T16:49:34.000Z</time>
            </trkpt>
            <trkpt lat="40.913242" lon="-8.51647">
                <ele>179.7</ele>
                <time>2020-11-30T16:49:35.000Z</time>
            </trkpt>
            <trkpt lat="40.913256" lon="-8.516484">
                <ele>179.5</ele>
                <time>2020-11-30T16:49:36.000Z</time>
            </trkpt>
            <trkpt lat="40.913269" lon="-8.516501">
                <ele>179.3</ele>
                <time>2020-11-30T16:49:37.000Z</time>
            </trkpt>
            <trkpt lat="40.913284" lon="-8.516519">
                <ele>179.0</ele>
                <time>2020-11-30T16:49:38.000Z</time>
            </trkpt>
            <trkpt lat="40.913298" lon="-8.516537">
                <ele>178.8</ele>
                <time>2020-11-30T16:49:39.000Z</time>
            </trkpt>
            <trkpt lat="40.913313" lon="-8.516555">
                <ele>178.5</ele>
                <time>2020-11-30T16:49:40.000Z</time>
            </trkpt>
            <trkpt lat="40.913329" lon="-8.51657">
                <ele>178.3</ele>
                <time>2020-11-30T16:49:41.000Z</time>
            </trkpt>
            <trkpt lat="40.913345" lon="-8.516584">
                <ele>178.0</ele>
                <time>2020-11-30T16:49:42.000Z</time>
            </trkpt>
            <trkpt lat="40.913362" lon="-8.516596">
                <ele>177.7</ele>
                <time>2020-11-30T16:49:43.000Z</time>
            </trkpt>
            <trkpt lat="40.913379" lon="-8.516605">
                <ele>177.4</ele>
                <time>2020-11-30T16:49:44.000Z</time>
            </trkpt>
            <trkpt lat="40.913398" lon="-8.516613">
                <ele>177.1</ele>
                <time>2020-11-30T16:49:45.000Z</time>
            </trkpt>
            <trkpt lat="40.913419" lon="-8.516619">
                <ele>176.8</ele>
                <time>2020-11-30T16:49:46.000Z</time>
            </trkpt>
            <trkpt lat="40.91344" lon="-8.516624">
                <ele>176.6</ele>
                <time>2020-11-30T16:49:47.000Z</time>
            </trkpt>
            <trkpt lat="40.913463" lon="-8.516627">
                <ele>176.3</ele>
                <time>2020-11-30T16:49:48.000Z</time>
            </trkpt>
            <trkpt lat="40.913486" lon="-8.516629">
                <ele>176.1</ele>
                <time>2020-11-30T16:49:49.000Z</time>
            </trkpt>
            <trkpt lat="40.913509" lon="-8.51663">
                <ele>175.8</ele>
                <time>2020-11-30T16:49:50.000Z</time>
            </trkpt>
            <trkpt lat="40.913533" lon="-8.516631">
                <ele>175.6</ele>
                <time>2020-11-30T16:49:51.000Z</time>
            </trkpt>
            <trkpt lat="40.913556" lon="-8.516632">
                <ele>175.4</ele>
                <time>2020-11-30T16:49:52.000Z</time>
            </trkpt>
            <trkpt lat="40.913579" lon="-8.516632">
                <ele>175.1</ele>
                <time>2020-11-30T16:49:53.000Z</time>
            </trkpt>
            <trkpt lat="40.913602" lon="-8.516633">
                <ele>174.9</ele>
                <time>2020-11-30T16:49:54.000Z</time>
            </trkpt>
            <trkpt lat="40.913625" lon="-8.516635">
                <ele>174.7</ele>
                <time>2020-11-30T16:49:55.000Z</time>
            </trkpt>
            <trkpt lat="40.913647" lon="-8.516639">
                <ele>174.4</ele>
                <time>2020-11-30T16:49:56.000Z</time>
            </trkpt>
            <trkpt lat="40.913669" lon="-8.516644">
                <ele>174.1</ele>
                <time>2020-11-30T16:49:57.000Z</time>
            </trkpt>
            <trkpt lat="40.913691" lon="-8.51665">
                <ele>173.8</ele>
                <time>2020-11-30T16:49:58.000Z</time>
            </trkpt>
            <trkpt lat="40.913713" lon="-8.516657">
                <ele>173.5</ele>
                <time>2020-11-30T16:49:59.000Z</time>
            </trkpt>
            <trkpt lat="40.913735" lon="-8.516666">
                <ele>173.2</ele>
                <time>2020-11-30T16:50:00.000Z</time>
            </trkpt>
            <trkpt lat="40.913757" lon="-8.516674">
                <ele>172.8</ele>
                <time>2020-11-30T16:50:01.000Z</time>
            </trkpt>
            <trkpt lat="40.913779" lon="-8.516684">
                <ele>172.3</ele>
                <time>2020-11-30T16:50:02.000Z</time>
            </trkpt>
            <trkpt lat="40.913802" lon="-8.516693">
                <ele>171.9</ele>
                <time>2020-11-30T16:50:03.000Z</time>
            </trkpt>
            <trkpt lat="40.913824" lon="-8.516702">
                <ele>171.5</ele>
                <time>2020-11-30T16:50:04.000Z</time>
            </trkpt>
            <trkpt lat="40.913847" lon="-8.516711">
                <ele>171.0</ele>
                <time>2020-11-30T16:50:05.000Z</time>
            </trkpt>
            <trkpt lat="40.91387" lon="-8.516719">
                <ele>170.6</ele>
                <time>2020-11-30T16:50:06.000Z</time>
            </trkpt>
            <trkpt lat="40.913893" lon="-8.516726">
                <ele>170.3</ele>
                <time>2020-11-30T16:50:07.000Z</time>
            </trkpt>
            <trkpt lat="40.913916" lon="-8.516729">
                <ele>170.0</ele>
                <time>2020-11-30T16:50:08.000Z</time>
            </trkpt>
            <trkpt lat="40.913938" lon="-8.516727">
                <ele>169.9</ele>
                <time>2020-11-30T16:50:09.000Z</time>
            </trkpt>
            <trkpt lat="40.913957" lon="-8.516718">
                <ele>169.9</ele>
                <time>2020-11-30T16:50:10.000Z</time>
            </trkpt>
            <trkpt lat="40.913975" lon="-8.516702">
                <ele>170.1</ele>
                <time>2020-11-30T16:50:11.000Z</time>
            </trkpt>
            <trkpt lat="40.91399" lon="-8.516684">
                <ele>170.3</ele>
                <time>2020-11-30T16:50:12.000Z</time>
            </trkpt>
            <trkpt lat="40.914004" lon="-8.516664">
                <ele>170.6</ele>
                <time>2020-11-30T16:50:13.000Z</time>
            </trkpt>
            <trkpt lat="40.914017" lon="-8.516643">
                <ele>170.8</ele>
                <time>2020-11-30T16:50:14.000Z</time>
            </trkpt>
            <trkpt lat="40.914029" lon="-8.516622">
                <ele>171.1</ele>
                <time>2020-11-30T16:50:15.000Z</time>
            </trkpt>
            <trkpt lat="40.91404" lon="-8.5166">
                <ele>171.4</ele>
                <time>2020-11-30T16:50:16.000Z</time>
            </trkpt>
            <trkpt lat="40.914051" lon="-8.51658">
                <ele>171.6</ele>
                <time>2020-11-30T16:50:17.000Z</time>
            </trkpt>
            <trkpt lat="40.914063" lon="-8.51656">
                <ele>171.9</ele>
                <time>2020-11-30T16:50:18.000Z</time>
            </trkpt>
            <trkpt lat="40.914074" lon="-8.516541">
                <ele>172.1</ele>
                <time>2020-11-30T16:50:19.000Z</time>
            </trkpt>
            <trkpt lat="40.914086" lon="-8.516522">
                <ele>172.3</ele>
                <time>2020-11-30T16:50:20.000Z</time>
            </trkpt>
            <trkpt lat="40.914099" lon="-8.516503">
                <ele>172.5</ele>
                <time>2020-11-30T16:50:21.000Z</time>
            </trkpt>
            <trkpt lat="40.914111" lon="-8.516484">
                <ele>172.8</ele>
                <time>2020-11-30T16:50:22.000Z</time>
            </trkpt>
            <trkpt lat="40.914124" lon="-8.516465">
                <ele>173.0</ele>
                <time>2020-11-30T16:50:23.000Z</time>
            </trkpt>
            <trkpt lat="40.914137" lon="-8.516445">
                <ele>173.2</ele>
                <time>2020-11-30T16:50:24.000Z</time>
            </trkpt>
            <trkpt lat="40.914149" lon="-8.516424">
                <ele>173.5</ele>
                <time>2020-11-30T16:50:25.000Z</time>
            </trkpt>
            <trkpt lat="40.914162" lon="-8.516402">
                <ele>173.8</ele>
                <time>2020-11-30T16:50:26.000Z</time>
            </trkpt>
            <trkpt lat="40.914175" lon="-8.516378">
                <ele>174.0</ele>
                <time>2020-11-30T16:50:27.000Z</time>
            </trkpt>
            <trkpt lat="40.914188" lon="-8.516353">
                <ele>174.2</ele>
                <time>2020-11-30T16:50:28.000Z</time>
            </trkpt>
            <trkpt lat="40.914201" lon="-8.516327">
                <ele>174.3</ele>
                <time>2020-11-30T16:50:29.000Z</time>
            </trkpt>
            <trkpt lat="40.914214" lon="-8.5163">
                <ele>174.5</ele>
                <time>2020-11-30T16:50:30.000Z</time>
            </trkpt>
            <trkpt lat="40.914226" lon="-8.516273">
                <ele>174.7</ele>
                <time>2020-11-30T16:50:31.000Z</time>
            </trkpt>
            <trkpt lat="40.914238" lon="-8.516247">
                <ele>174.8</ele>
                <time>2020-11-30T16:50:32.000Z</time>
            </trkpt>
            <trkpt lat="40.914248" lon="-8.516223">
                <ele>174.9</ele>
                <time>2020-11-30T16:50:33.000Z</time>
            </trkpt>
            <trkpt lat="40.914258" lon="-8.5162">
                <ele>175.1</ele>
                <time>2020-11-30T16:50:34.000Z</time>
            </trkpt>
            <trkpt lat="40.914268" lon="-8.516178">
                <ele>175.2</ele>
                <time>2020-11-30T16:50:35.000Z</time>
            </trkpt>
            <trkpt lat="40.914277" lon="-8.516156">
                <ele>175.3</ele>
                <time>2020-11-30T16:50:36.000Z</time>
            </trkpt>
            <trkpt lat="40.914286" lon="-8.516135">
                <ele>175.4</ele>
                <time>2020-11-30T16:50:37.000Z</time>
            </trkpt>
            <trkpt lat="40.914295" lon="-8.516113">
                <ele>175.5</ele>
                <time>2020-11-30T16:50:38.000Z</time>
            </trkpt>
            <trkpt lat="40.914305" lon="-8.51609">
                <ele>175.6</ele>
                <time>2020-11-30T16:50:39.000Z</time>
            </trkpt>
            <trkpt lat="40.914316" lon="-8.516065">
                <ele>175.6</ele>
                <time>2020-11-30T16:50:40.000Z</time>
            </trkpt>
            <trkpt lat="40.914326" lon="-8.516039">
                <ele>175.7</ele>
                <time>2020-11-30T16:50:41.000Z</time>
            </trkpt>
            <trkpt lat="40.914336" lon="-8.516013">
                <ele>175.8</ele>
                <time>2020-11-30T16:50:42.000Z</time>
            </trkpt>
            <trkpt lat="40.914346" lon="-8.515986">
                <ele>176.0</ele>
                <time>2020-11-30T16:50:43.000Z</time>
            </trkpt>
            <trkpt lat="40.914355" lon="-8.515958">
                <ele>176.1</ele>
                <time>2020-11-30T16:50:44.000Z</time>
            </trkpt>
            <trkpt lat="40.914363" lon="-8.51593">
                <ele>176.3</ele>
                <time>2020-11-30T16:50:45.000Z</time>
            </trkpt>
            <trkpt lat="40.91437" lon="-8.515902">
                <ele>176.4</ele>
                <time>2020-11-30T16:50:46.000Z</time>
            </trkpt>
            <trkpt lat="40.914375" lon="-8.515873">
                <ele>176.7</ele>
                <time>2020-11-30T16:50:47.000Z</time>
            </trkpt>
            <trkpt lat="40.914378" lon="-8.515845">
                <ele>177.0</ele>
                <time>2020-11-30T16:50:48.000Z</time>
            </trkpt>
            <trkpt lat="40.914379" lon="-8.515817">
                <ele>177.2</ele>
                <time>2020-11-30T16:50:49.000Z</time>
            </trkpt>
            <trkpt lat="40.91438" lon="-8.51579">
                <ele>177.3</ele>
                <time>2020-11-30T16:50:50.000Z</time>
            </trkpt>
            <trkpt lat="40.91438" lon="-8.515763">
                <ele>177.5</ele>
                <time>2020-11-30T16:50:51.000Z</time>
            </trkpt>
            <trkpt lat="40.914382" lon="-8.515736">
                <ele>177.6</ele>
                <time>2020-11-30T16:50:52.000Z</time>
            </trkpt>
            <trkpt lat="40.914386" lon="-8.51571">
                <ele>177.6</ele>
                <time>2020-11-30T16:50:53.000Z</time>
            </trkpt>
            <trkpt lat="40.914394" lon="-8.515685">
                <ele>177.5</ele>
                <time>2020-11-30T16:50:54.000Z</time>
            </trkpt>
            <trkpt lat="40.914404" lon="-8.515661">
                <ele>177.3</ele>
                <time>2020-11-30T16:50:55.000Z</time>
            </trkpt>
            <trkpt lat="40.914418" lon="-8.515637">
                <ele>177.0</ele>
                <time>2020-11-30T16:50:56.000Z</time>
            </trkpt>
            <trkpt lat="40.914433" lon="-8.515614">
                <ele>176.7</ele>
                <time>2020-11-30T16:50:57.000Z</time>
            </trkpt>
            <trkpt lat="40.91445" lon="-8.515592">
                <ele>176.3</ele>
                <time>2020-11-30T16:50:58.000Z</time>
            </trkpt>
            <trkpt lat="40.914467" lon="-8.51557">
                <ele>175.9</ele>
                <time>2020-11-30T16:50:59.000Z</time>
            </trkpt>
            <trkpt lat="40.914486" lon="-8.515548">
                <ele>175.4</ele>
                <time>2020-11-30T16:51:00.000Z</time>
            </trkpt>
            <trkpt lat="40.914505" lon="-8.515527">
                <ele>175.0</ele>
                <time>2020-11-30T16:51:01.000Z</time>
            </trkpt>
            <trkpt lat="40.914524" lon="-8.515506">
                <ele>174.5</ele>
                <time>2020-11-30T16:51:02.000Z</time>
            </trkpt>
            <trkpt lat="40.914544" lon="-8.515485">
                <ele>174.0</ele>
                <time>2020-11-30T16:51:03.000Z</time>
            </trkpt>
            <trkpt lat="40.914563" lon="-8.515464">
                <ele>173.6</ele>
                <time>2020-11-30T16:51:04.000Z</time>
            </trkpt>
            <trkpt lat="40.914583" lon="-8.515443">
                <ele>173.1</ele>
                <time>2020-11-30T16:51:05.000Z</time>
            </trkpt>
            <trkpt lat="40.914603" lon="-8.515422">
                <ele>172.6</ele>
                <time>2020-11-30T16:51:06.000Z</time>
            </trkpt>
            <trkpt lat="40.914623" lon="-8.5154">
                <ele>172.1</ele>
                <time>2020-11-30T16:51:07.000Z</time>
            </trkpt>
            <trkpt lat="40.914642" lon="-8.515379">
                <ele>171.7</ele>
                <time>2020-11-30T16:51:08.000Z</time>
            </trkpt>
            <trkpt lat="40.91466" lon="-8.515357">
                <ele>171.3</ele>
                <time>2020-11-30T16:51:09.000Z</time>
            </trkpt>
            <trkpt lat="40.914678" lon="-8.515335">
                <ele>170.9</ele>
                <time>2020-11-30T16:51:10.000Z</time>
            </trkpt>
            <trkpt lat="40.914695" lon="-8.515313">
                <ele>170.6</ele>
                <time>2020-11-30T16:51:11.000Z</time>
            </trkpt>
            <trkpt lat="40.914712" lon="-8.515292">
                <ele>170.2</ele>
                <time>2020-11-30T16:51:12.000Z</time>
            </trkpt>
            <trkpt lat="40.914727" lon="-8.515272">
                <ele>169.9</ele>
                <time>2020-11-30T16:51:13.000Z</time>
            </trkpt>
            <trkpt lat="40.914742" lon="-8.515254">
                <ele>169.6</ele>
                <time>2020-11-30T16:51:14.000Z</time>
            </trkpt>
            <trkpt lat="40.914756" lon="-8.515236">
                <ele>169.3</ele>
                <time>2020-11-30T16:51:15.000Z</time>
            </trkpt>
            <trkpt lat="40.914768" lon="-8.515221">
                <ele>169.0</ele>
                <time>2020-11-30T16:51:16.000Z</time>
            </trkpt>
            <trkpt lat="40.914779" lon="-8.515206">
                <ele>168.8</ele>
                <time>2020-11-30T16:51:17.000Z</time>
            </trkpt>
            <trkpt lat="40.914788" lon="-8.515192">
                <ele>168.7</ele>
                <time>2020-11-30T16:51:18.000Z</time>
            </trkpt>
            <trkpt lat="40.914794" lon="-8.515178">
                <ele>168.6</ele>
                <time>2020-11-30T16:51:19.000Z</time>
            </trkpt>
            <trkpt lat="40.914798" lon="-8.515165">
                <ele>168.6</ele>
                <time>2020-11-30T16:51:20.000Z</time>
            </trkpt>
            <trkpt lat="40.914799" lon="-8.515151">
                <ele>168.7</ele>
                <time>2020-11-30T16:51:21.000Z</time>
            </trkpt>
            <trkpt lat="40.914798" lon="-8.515138">
                <ele>168.8</ele>
                <time>2020-11-30T16:51:22.000Z</time>
            </trkpt>
            <trkpt lat="40.914795" lon="-8.515126">
                <ele>169.0</ele>
                <time>2020-11-30T16:51:23.000Z</time>
            </trkpt>
            <trkpt lat="40.91479" lon="-8.515114">
                <ele>169.2</ele>
                <time>2020-11-30T16:51:24.000Z</time>
            </trkpt>
            <trkpt lat="40.914783" lon="-8.515102">
                <ele>169.5</ele>
                <time>2020-11-30T16:51:25.000Z</time>
            </trkpt>
            <trkpt lat="40.914774" lon="-8.515092">
                <ele>169.8</ele>
                <time>2020-11-30T16:51:26.000Z</time>
            </trkpt>
            <trkpt lat="40.914764" lon="-8.515082">
                <ele>170.2</ele>
                <time>2020-11-30T16:51:27.000Z</time>
            </trkpt>
            <trkpt lat="40.914752" lon="-8.515073">
                <ele>170.6</ele>
                <time>2020-11-30T16:51:28.000Z</time>
            </trkpt>
            <trkpt lat="40.91474" lon="-8.515065">
                <ele>171.0</ele>
                <time>2020-11-30T16:51:29.000Z</time>
            </trkpt>
            <trkpt lat="40.914727" lon="-8.515058">
                <ele>171.4</ele>
                <time>2020-11-30T16:51:30.000Z</time>
            </trkpt>
            <trkpt lat="40.914713" lon="-8.515052">
                <ele>171.9</ele>
                <time>2020-11-30T16:51:31.000Z</time>
            </trkpt>
            <trkpt lat="40.914698" lon="-8.515045">
                <ele>172.4</ele>
                <time>2020-11-30T16:51:32.000Z</time>
            </trkpt>
            <trkpt lat="40.914684" lon="-8.515038">
                <ele>172.8</ele>
                <time>2020-11-30T16:51:33.000Z</time>
            </trkpt>
            <trkpt lat="40.91467" lon="-8.515029">
                <ele>173.3</ele>
                <time>2020-11-30T16:51:34.000Z</time>
            </trkpt>
            <trkpt lat="40.914655" lon="-8.515017">
                <ele>173.8</ele>
                <time>2020-11-30T16:51:35.000Z</time>
            </trkpt>
            <trkpt lat="40.914642" lon="-8.515004">
                <ele>174.3</ele>
                <time>2020-11-30T16:51:36.000Z</time>
            </trkpt>
            <trkpt lat="40.914628" lon="-8.51499">
                <ele>174.7</ele>
                <time>2020-11-30T16:51:37.000Z</time>
            </trkpt>
            <trkpt lat="40.914615" lon="-8.514977">
                <ele>175.1</ele>
                <time>2020-11-30T16:51:38.000Z</time>
            </trkpt>
            <trkpt lat="40.914603" lon="-8.514965">
                <ele>175.5</ele>
                <time>2020-11-30T16:51:39.000Z</time>
            </trkpt>
            <trkpt lat="40.91459" lon="-8.514954">
                <ele>175.9</ele>
                <time>2020-11-30T16:51:40.000Z</time>
            </trkpt>
            <trkpt lat="40.914578" lon="-8.514946">
                <ele>176.2</ele>
                <time>2020-11-30T16:51:41.000Z</time>
            </trkpt>
            <trkpt lat="40.914567" lon="-8.514939">
                <ele>176.5</ele>
                <time>2020-11-30T16:51:42.000Z</time>
            </trkpt>
            <trkpt lat="40.914557" lon="-8.514933">
                <ele>176.8</ele>
                <time>2020-11-30T16:51:43.000Z</time>
            </trkpt>
            <trkpt lat="40.914548" lon="-8.514929">
                <ele>177.1</ele>
                <time>2020-11-30T16:51:44.000Z</time>
            </trkpt>
            <trkpt lat="40.91454" lon="-8.514926">
                <ele>177.3</ele>
                <time>2020-11-30T16:51:45.000Z</time>
            </trkpt>
            <trkpt lat="40.914533" lon="-8.514924">
                <ele>177.6</ele>
                <time>2020-11-30T16:51:46.000Z</time>
            </trkpt>
            <trkpt lat="40.914528" lon="-8.514921">
                <ele>177.7</ele>
                <time>2020-11-30T16:51:47.000Z</time>
            </trkpt>
            <trkpt lat="40.914523" lon="-8.514917">
                <ele>177.9</ele>
                <time>2020-11-30T16:51:48.000Z</time>
            </trkpt>
            <trkpt lat="40.914518" lon="-8.514911">
                <ele>178.0</ele>
                <time>2020-11-30T16:51:49.000Z</time>
            </trkpt>
            <trkpt lat="40.914514" lon="-8.514903">
                <ele>178.1</ele>
                <time>2020-11-30T16:51:50.000Z</time>
            </trkpt>
            <trkpt lat="40.914509" lon="-8.514892">
                <ele>178.3</ele>
                <time>2020-11-30T16:51:51.000Z</time>
            </trkpt>
            <trkpt lat="40.914504" lon="-8.514879">
                <ele>178.5</ele>
                <time>2020-11-30T16:51:52.000Z</time>
            </trkpt>
            <trkpt lat="40.9145" lon="-8.514864">
                <ele>178.6</ele>
                <time>2020-11-30T16:51:53.000Z</time>
            </trkpt>
            <trkpt lat="40.914496" lon="-8.514847">
                <ele>178.7</ele>
                <time>2020-11-30T16:51:54.000Z</time>
            </trkpt>
            <trkpt lat="40.914491" lon="-8.514828">
                <ele>178.9</ele>
                <time>2020-11-30T16:51:55.000Z</time>
            </trkpt>
            <trkpt lat="40.914487" lon="-8.514808">
                <ele>179.1</ele>
                <time>2020-11-30T16:51:56.000Z</time>
            </trkpt>
            <trkpt lat="40.914482" lon="-8.514787">
                <ele>179.2</ele>
                <time>2020-11-30T16:51:57.000Z</time>
            </trkpt>
            <trkpt lat="40.914476" lon="-8.514767">
                <ele>179.4</ele>
                <time>2020-11-30T16:51:58.000Z</time>
            </trkpt>
            <trkpt lat="40.914468" lon="-8.514747">
                <ele>179.7</ele>
                <time>2020-11-30T16:51:59.000Z</time>
            </trkpt>
            <trkpt lat="40.914459" lon="-8.514728">
                <ele>180.0</ele>
                <time>2020-11-30T16:52:00.000Z</time>
            </trkpt>
            <trkpt lat="40.914446" lon="-8.514712">
                <ele>180.4</ele>
                <time>2020-11-30T16:52:01.000Z</time>
            </trkpt>
            <trkpt lat="40.914431" lon="-8.514698">
                <ele>180.9</ele>
                <time>2020-11-30T16:52:02.000Z</time>
            </trkpt>
            <trkpt lat="40.914416" lon="-8.514684">
                <ele>181.4</ele>
                <time>2020-11-30T16:52:03.000Z</time>
            </trkpt>
            <trkpt lat="40.914399" lon="-8.51467">
                <ele>181.9</ele>
                <time>2020-11-30T16:52:04.000Z</time>
            </trkpt>
            <trkpt lat="40.914383" lon="-8.514656">
                <ele>182.4</ele>
                <time>2020-11-30T16:52:05.000Z</time>
            </trkpt>
            <trkpt lat="40.914368" lon="-8.514642">
                <ele>182.9</ele>
                <time>2020-11-30T16:52:06.000Z</time>
            </trkpt>
            <trkpt lat="40.914354" lon="-8.514626">
                <ele>183.3</ele>
                <time>2020-11-30T16:52:07.000Z</time>
            </trkpt>
            <trkpt lat="40.91434" lon="-8.514609">
                <ele>183.8</ele>
                <time>2020-11-30T16:52:08.000Z</time>
            </trkpt>
            <trkpt lat="40.914327" lon="-8.514593">
                <ele>184.2</ele>
                <time>2020-11-30T16:52:09.000Z</time>
            </trkpt>
            <trkpt lat="40.914314" lon="-8.514576">
                <ele>184.6</ele>
                <time>2020-11-30T16:52:10.000Z</time>
            </trkpt>
            <trkpt lat="40.9143" lon="-8.51456">
                <ele>185.0</ele>
                <time>2020-11-30T16:52:11.000Z</time>
            </trkpt>
            <trkpt lat="40.914286" lon="-8.514543">
                <ele>185.5</ele>
                <time>2020-11-30T16:52:12.000Z</time>
            </trkpt>
            <trkpt lat="40.914272" lon="-8.514528">
                <ele>186.0</ele>
                <time>2020-11-30T16:52:13.000Z</time>
            </trkpt>
            <trkpt lat="40.914258" lon="-8.514512">
                <ele>186.4</ele>
                <time>2020-11-30T16:52:14.000Z</time>
            </trkpt>
            <trkpt lat="40.914244" lon="-8.514497">
                <ele>186.9</ele>
                <time>2020-11-30T16:52:15.000Z</time>
            </trkpt>
            <trkpt lat="40.91423" lon="-8.514482">
                <ele>187.3</ele>
                <time>2020-11-30T16:52:16.000Z</time>
            </trkpt>
            <trkpt lat="40.914217" lon="-8.514467">
                <ele>187.8</ele>
                <time>2020-11-30T16:52:17.000Z</time>
            </trkpt>
            <trkpt lat="40.914204" lon="-8.514452">
                <ele>188.2</ele>
                <time>2020-11-30T16:52:18.000Z</time>
            </trkpt>
            <trkpt lat="40.914192" lon="-8.514438">
                <ele>188.6</ele>
                <time>2020-11-30T16:52:19.000Z</time>
            </trkpt>
            <trkpt lat="40.914181" lon="-8.514424">
                <ele>188.9</ele>
                <time>2020-11-30T16:52:20.000Z</time>
            </trkpt>
            <trkpt lat="40.91417" lon="-8.51441">
                <ele>189.3</ele>
                <time>2020-11-30T16:52:21.000Z</time>
            </trkpt>
            <trkpt lat="40.91416" lon="-8.514396">
                <ele>189.5</ele>
                <time>2020-11-30T16:52:22.000Z</time>
            </trkpt>
            <trkpt lat="40.914151" lon="-8.514382">
                <ele>189.7</ele>
                <time>2020-11-30T16:52:23.000Z</time>
            </trkpt>
            <trkpt lat="40.914142" lon="-8.514368">
                <ele>189.9</ele>
                <time>2020-11-30T16:52:24.000Z</time>
            </trkpt>
            <trkpt lat="40.914133" lon="-8.514355">
                <ele>190.0</ele>
                <time>2020-11-30T16:52:25.000Z</time>
            </trkpt>
            <trkpt lat="40.914125" lon="-8.514342">
                <ele>190.2</ele>
                <time>2020-11-30T16:52:26.000Z</time>
            </trkpt>
            <trkpt lat="40.914117" lon="-8.514329">
                <ele>190.3</ele>
                <time>2020-11-30T16:52:27.000Z</time>
            </trkpt>
            <trkpt lat="40.914109" lon="-8.514317">
                <ele>190.5</ele>
                <time>2020-11-30T16:52:28.000Z</time>
            </trkpt>
            <trkpt lat="40.914101" lon="-8.514305">
                <ele>190.6</ele>
                <time>2020-11-30T16:52:29.000Z</time>
            </trkpt>
            <trkpt lat="40.914093" lon="-8.514293">
                <ele>190.8</ele>
                <time>2020-11-30T16:52:30.000Z</time>
            </trkpt>
            <trkpt lat="40.914085" lon="-8.514282">
                <ele>190.9</ele>
                <time>2020-11-30T16:52:31.000Z</time>
            </trkpt>
            <trkpt lat="40.914077" lon="-8.514271">
                <ele>191.1</ele>
                <time>2020-11-30T16:52:32.000Z</time>
            </trkpt>
            <trkpt lat="40.914068" lon="-8.514261">
                <ele>191.3</ele>
                <time>2020-11-30T16:52:33.000Z</time>
            </trkpt>
            <trkpt lat="40.914058" lon="-8.51425">
                <ele>191.4</ele>
                <time>2020-11-30T16:52:34.000Z</time>
            </trkpt>
            <trkpt lat="40.914048" lon="-8.51424">
                <ele>191.6</ele>
                <time>2020-11-30T16:52:35.000Z</time>
            </trkpt>
            <trkpt lat="40.914038" lon="-8.514231">
                <ele>191.8</ele>
                <time>2020-11-30T16:52:36.000Z</time>
            </trkpt>
            <trkpt lat="40.914027" lon="-8.514221">
                <ele>192.0</ele>
                <time>2020-11-30T16:52:37.000Z</time>
            </trkpt>
            <trkpt lat="40.914016" lon="-8.514211">
                <ele>192.2</ele>
                <time>2020-11-30T16:52:38.000Z</time>
            </trkpt>
            <trkpt lat="40.914003" lon="-8.514202">
                <ele>192.4</ele>
                <time>2020-11-30T16:52:39.000Z</time>
            </trkpt>
            <trkpt lat="40.913991" lon="-8.514192">
                <ele>192.7</ele>
                <time>2020-11-30T16:52:40.000Z</time>
            </trkpt>
            <trkpt lat="40.913977" lon="-8.514183">
                <ele>192.9</ele>
                <time>2020-11-30T16:52:41.000Z</time>
            </trkpt>
            <trkpt lat="40.913962" lon="-8.514173">
                <ele>193.2</ele>
                <time>2020-11-30T16:52:42.000Z</time>
            </trkpt>
            <trkpt lat="40.913948" lon="-8.514163">
                <ele>193.4</ele>
                <time>2020-11-30T16:52:43.000Z</time>
            </trkpt>
            <trkpt lat="40.913934" lon="-8.514152">
                <ele>193.4</ele>
                <time>2020-11-30T16:52:44.000Z</time>
            </trkpt>
            <trkpt lat="40.913921" lon="-8.51414">
                <ele>193.4</ele>
                <time>2020-11-30T16:52:45.000Z</time>
            </trkpt>
            <trkpt lat="40.913911" lon="-8.514127">
                <ele>193.4</ele>
                <time>2020-11-30T16:52:46.000Z</time>
            </trkpt>
            <trkpt lat="40.913903" lon="-8.514113">
                <ele>193.3</ele>
                <time>2020-11-30T16:52:47.000Z</time>
            </trkpt>
            <trkpt lat="40.913897" lon="-8.514097">
                <ele>193.2</ele>
                <time>2020-11-30T16:52:48.000Z</time>
            </trkpt>
            <trkpt lat="40.913893" lon="-8.514081">
                <ele>193.0</ele>
                <time>2020-11-30T16:52:49.000Z</time>
            </trkpt>
            <trkpt lat="40.91389" lon="-8.514064">
                <ele>192.8</ele>
                <time>2020-11-30T16:52:50.000Z</time>
            </trkpt>
            <trkpt lat="40.913888" lon="-8.514047">
                <ele>192.6</ele>
                <time>2020-11-30T16:52:51.000Z</time>
            </trkpt>
            <trkpt lat="40.913885" lon="-8.514029">
                <ele>192.4</ele>
                <time>2020-11-30T16:52:52.000Z</time>
            </trkpt>
            <trkpt lat="40.913882" lon="-8.514013">
                <ele>192.2</ele>
                <time>2020-11-30T16:52:53.000Z</time>
            </trkpt>
            <trkpt lat="40.913879" lon="-8.513997">
                <ele>192.1</ele>
                <time>2020-11-30T16:52:54.000Z</time>
            </trkpt>
            <trkpt lat="40.913874" lon="-8.513984">
                <ele>191.9</ele>
                <time>2020-11-30T16:52:55.000Z</time>
            </trkpt>
            <trkpt lat="40.913867" lon="-8.513973">
                <ele>191.9</ele>
                <time>2020-11-30T16:52:56.000Z</time>
            </trkpt>
            <trkpt lat="40.913857" lon="-8.513966">
                <ele>192.0</ele>
                <time>2020-11-30T16:52:57.000Z</time>
            </trkpt>
            <trkpt lat="40.913846" lon="-8.513961">
                <ele>192.1</ele>
                <time>2020-11-30T16:52:58.000Z</time>
            </trkpt>
            <trkpt lat="40.913834" lon="-8.513959">
                <ele>192.2</ele>
                <time>2020-11-30T16:52:59.000Z</time>
            </trkpt>
            <trkpt lat="40.91382" lon="-8.513958">
                <ele>192.5</ele>
                <time>2020-11-30T16:53:00.000Z</time>
            </trkpt>
            <trkpt lat="40.913807" lon="-8.513958">
                <ele>192.7</ele>
                <time>2020-11-30T16:53:01.000Z</time>
            </trkpt>
            <trkpt lat="40.913793" lon="-8.513959">
                <ele>192.9</ele>
                <time>2020-11-30T16:53:02.000Z</time>
            </trkpt>
            <trkpt lat="40.913779" lon="-8.513959">
                <ele>193.2</ele>
                <time>2020-11-30T16:53:03.000Z</time>
            </trkpt>
            <trkpt lat="40.913765" lon="-8.51396">
                <ele>193.4</ele>
                <time>2020-11-30T16:53:04.000Z</time>
            </trkpt>
            <trkpt lat="40.913751" lon="-8.513961">
                <ele>193.6</ele>
                <time>2020-11-30T16:53:05.000Z</time>
            </trkpt>
            <trkpt lat="40.913736" lon="-8.513962">
                <ele>193.9</ele>
                <time>2020-11-30T16:53:06.000Z</time>
            </trkpt>
            <trkpt lat="40.913722" lon="-8.513963">
                <ele>194.2</ele>
                <time>2020-11-30T16:53:07.000Z</time>
            </trkpt>
            <trkpt lat="40.913707" lon="-8.513963">
                <ele>194.4</ele>
                <time>2020-11-30T16:53:08.000Z</time>
            </trkpt>
            <trkpt lat="40.913691" lon="-8.513963">
                <ele>194.7</ele>
                <time>2020-11-30T16:53:09.000Z</time>
            </trkpt>
            <trkpt lat="40.913675" lon="-8.513963">
                <ele>194.9</ele>
                <time>2020-11-30T16:53:10.000Z</time>
            </trkpt>
            <trkpt lat="40.913659" lon="-8.513962">
                <ele>195.2</ele>
                <time>2020-11-30T16:53:11.000Z</time>
            </trkpt>
            <trkpt lat="40.913642" lon="-8.51396">
                <ele>195.4</ele>
                <time>2020-11-30T16:53:12.000Z</time>
            </trkpt>
            <trkpt lat="40.913624" lon="-8.513958">
                <ele>195.7</ele>
                <time>2020-11-30T16:53:13.000Z</time>
            </trkpt>
            <trkpt lat="40.913606" lon="-8.513955">
                <ele>196.0</ele>
                <time>2020-11-30T16:53:14.000Z</time>
            </trkpt>
            <trkpt lat="40.913588" lon="-8.513951">
                <ele>196.2</ele>
                <time>2020-11-30T16:53:15.000Z</time>
            </trkpt>
            <trkpt lat="40.913569" lon="-8.513947">
                <ele>196.5</ele>
                <time>2020-11-30T16:53:16.000Z</time>
            </trkpt>
            <trkpt lat="40.91355" lon="-8.513942">
                <ele>196.7</ele>
                <time>2020-11-30T16:53:17.000Z</time>
            </trkpt>
            <trkpt lat="40.913531" lon="-8.513937">
                <ele>197.0</ele>
                <time>2020-11-30T16:53:18.000Z</time>
            </trkpt>
            <trkpt lat="40.913512" lon="-8.51393">
                <ele>197.2</ele>
                <time>2020-11-30T16:53:19.000Z</time>
            </trkpt>
            <trkpt lat="40.913494" lon="-8.513924">
                <ele>197.4</ele>
                <time>2020-11-30T16:53:20.000Z</time>
            </trkpt>
            <trkpt lat="40.913475" lon="-8.513916">
                <ele>197.6</ele>
                <time>2020-11-30T16:53:21.000Z</time>
            </trkpt>
            <trkpt lat="40.913457" lon="-8.513908">
                <ele>197.8</ele>
                <time>2020-11-30T16:53:22.000Z</time>
            </trkpt>
            <trkpt lat="40.913439" lon="-8.513899">
                <ele>198.0</ele>
                <time>2020-11-30T16:53:23.000Z</time>
            </trkpt>
            <trkpt lat="40.913422" lon="-8.513889">
                <ele>198.2</ele>
                <time>2020-11-30T16:53:24.000Z</time>
            </trkpt>
            <trkpt lat="40.913405" lon="-8.513878">
                <ele>198.3</ele>
                <time>2020-11-30T16:53:25.000Z</time>
            </trkpt>
            <trkpt lat="40.913388" lon="-8.513867">
                <ele>198.5</ele>
                <time>2020-11-30T16:53:26.000Z</time>
            </trkpt>
            <trkpt lat="40.913371" lon="-8.513854">
                <ele>198.6</ele>
                <time>2020-11-30T16:53:27.000Z</time>
            </trkpt>
            <trkpt lat="40.913354" lon="-8.51384">
                <ele>198.7</ele>
                <time>2020-11-30T16:53:28.000Z</time>
            </trkpt>
            <trkpt lat="40.913338" lon="-8.513825">
                <ele>198.8</ele>
                <time>2020-11-30T16:53:29.000Z</time>
            </trkpt>
            <trkpt lat="40.913321" lon="-8.513808">
                <ele>198.9</ele>
                <time>2020-11-30T16:53:30.000Z</time>
            </trkpt>
            <trkpt lat="40.913305" lon="-8.513791">
                <ele>198.9</ele>
                <time>2020-11-30T16:53:31.000Z</time>
            </trkpt>
            <trkpt lat="40.913288" lon="-8.513771">
                <ele>198.8</ele>
                <time>2020-11-30T16:53:32.000Z</time>
            </trkpt>
            <trkpt lat="40.913271" lon="-8.51375">
                <ele>198.8</ele>
                <time>2020-11-30T16:53:33.000Z</time>
            </trkpt>
            <trkpt lat="40.913255" lon="-8.513728">
                <ele>198.8</ele>
                <time>2020-11-30T16:53:34.000Z</time>
            </trkpt>
            <trkpt lat="40.913238" lon="-8.513705">
                <ele>198.8</ele>
                <time>2020-11-30T16:53:35.000Z</time>
            </trkpt>
            <trkpt lat="40.913222" lon="-8.513681">
                <ele>198.7</ele>
                <time>2020-11-30T16:53:36.000Z</time>
            </trkpt>
            <trkpt lat="40.913206" lon="-8.513659">
                <ele>198.7</ele>
                <time>2020-11-30T16:53:37.000Z</time>
            </trkpt>
            <trkpt lat="40.91319" lon="-8.513636">
                <ele>198.7</ele>
                <time>2020-11-30T16:53:38.000Z</time>
            </trkpt>
            <trkpt lat="40.913175" lon="-8.513614">
                <ele>198.7</ele>
                <time>2020-11-30T16:53:39.000Z</time>
            </trkpt>
            <trkpt lat="40.913161" lon="-8.513592">
                <ele>198.7</ele>
                <time>2020-11-30T16:53:40.000Z</time>
            </trkpt>
            <trkpt lat="40.913148" lon="-8.51357">
                <ele>198.7</ele>
                <time>2020-11-30T16:53:41.000Z</time>
            </trkpt>
            <trkpt lat="40.913137" lon="-8.513547">
                <ele>198.6</ele>
                <time>2020-11-30T16:53:42.000Z</time>
            </trkpt>
            <trkpt lat="40.913127" lon="-8.513522">
                <ele>198.5</ele>
                <time>2020-11-30T16:53:43.000Z</time>
            </trkpt>
            <trkpt lat="40.913119" lon="-8.513497">
                <ele>198.4</ele>
                <time>2020-11-30T16:53:44.000Z</time>
            </trkpt>
            <trkpt lat="40.913111" lon="-8.51347">
                <ele>198.3</ele>
                <time>2020-11-30T16:53:45.000Z</time>
            </trkpt>
            <trkpt lat="40.913104" lon="-8.513443">
                <ele>198.2</ele>
                <time>2020-11-30T16:53:46.000Z</time>
            </trkpt>
            <trkpt lat="40.913097" lon="-8.513414">
                <ele>198.0</ele>
                <time>2020-11-30T16:53:47.000Z</time>
            </trkpt>
            <trkpt lat="40.91309" lon="-8.513386">
                <ele>197.9</ele>
                <time>2020-11-30T16:53:48.000Z</time>
            </trkpt>
            <trkpt lat="40.913082" lon="-8.513356">
                <ele>197.7</ele>
                <time>2020-11-30T16:53:49.000Z</time>
            </trkpt>
            <trkpt lat="40.913074" lon="-8.513326">
                <ele>197.6</ele>
                <time>2020-11-30T16:53:50.000Z</time>
            </trkpt>
            <trkpt lat="40.913064" lon="-8.513296">
                <ele>197.6</ele>
                <time>2020-11-30T16:53:51.000Z</time>
            </trkpt>
            <trkpt lat="40.913053" lon="-8.513266">
                <ele>197.6</ele>
                <time>2020-11-30T16:53:52.000Z</time>
            </trkpt>
            <trkpt lat="40.91304" lon="-8.513235">
                <ele>197.6</ele>
                <time>2020-11-30T16:53:53.000Z</time>
            </trkpt>
            <trkpt lat="40.913025" lon="-8.513205">
                <ele>197.7</ele>
                <time>2020-11-30T16:53:54.000Z</time>
            </trkpt>
            <trkpt lat="40.913009" lon="-8.513174">
                <ele>197.7</ele>
                <time>2020-11-30T16:53:55.000Z</time>
            </trkpt>
            <trkpt lat="40.912992" lon="-8.513144">
                <ele>197.8</ele>
                <time>2020-11-30T16:53:56.000Z</time>
            </trkpt>
            <trkpt lat="40.912974" lon="-8.513114">
                <ele>197.9</ele>
                <time>2020-11-30T16:53:57.000Z</time>
            </trkpt>
            <trkpt lat="40.912956" lon="-8.513085">
                <ele>198.0</ele>
                <time>2020-11-30T16:53:58.000Z</time>
            </trkpt>
            <trkpt lat="40.912937" lon="-8.513056">
                <ele>198.2</ele>
                <time>2020-11-30T16:53:59.000Z</time>
            </trkpt>
            <trkpt lat="40.912919" lon="-8.513028">
                <ele>198.3</ele>
                <time>2020-11-30T16:54:00.000Z</time>
            </trkpt>
            <trkpt lat="40.912901" lon="-8.513">
                <ele>198.4</ele>
                <time>2020-11-30T16:54:01.000Z</time>
            </trkpt>
            <trkpt lat="40.912883" lon="-8.512974">
                <ele>198.5</ele>
                <time>2020-11-30T16:54:02.000Z</time>
            </trkpt>
            <trkpt lat="40.912867" lon="-8.512948">
                <ele>198.6</ele>
                <time>2020-11-30T16:54:03.000Z</time>
            </trkpt>
            <trkpt lat="40.912851" lon="-8.512923">
                <ele>198.6</ele>
                <time>2020-11-30T16:54:04.000Z</time>
            </trkpt>
            <trkpt lat="40.912837" lon="-8.512899">
                <ele>198.7</ele>
                <time>2020-11-30T16:54:05.000Z</time>
            </trkpt>
            <trkpt lat="40.912823" lon="-8.512875">
                <ele>198.8</ele>
                <time>2020-11-30T16:54:06.000Z</time>
            </trkpt>
            <trkpt lat="40.912811" lon="-8.512851">
                <ele>198.8</ele>
                <time>2020-11-30T16:54:07.000Z</time>
            </trkpt>
            <trkpt lat="40.9128" lon="-8.512825">
                <ele>198.8</ele>
                <time>2020-11-30T16:54:08.000Z</time>
            </trkpt>
            <trkpt lat="40.912789" lon="-8.512799">
                <ele>198.8</ele>
                <time>2020-11-30T16:54:09.000Z</time>
            </trkpt>
            <trkpt lat="40.912779" lon="-8.512771">
                <ele>198.7</ele>
                <time>2020-11-30T16:54:10.000Z</time>
            </trkpt>
            <trkpt lat="40.91277" lon="-8.512744">
                <ele>198.6</ele>
                <time>2020-11-30T16:54:11.000Z</time>
            </trkpt>
            <trkpt lat="40.91276" lon="-8.512717">
                <ele>198.6</ele>
                <time>2020-11-30T16:54:12.000Z</time>
            </trkpt>
            <trkpt lat="40.91275" lon="-8.512691">
                <ele>198.6</ele>
                <time>2020-11-30T16:54:13.000Z</time>
            </trkpt>
            <trkpt lat="40.912739" lon="-8.512667">
                <ele>198.6</ele>
                <time>2020-11-30T16:54:14.000Z</time>
            </trkpt>
            <trkpt lat="40.912729" lon="-8.512645">
                <ele>198.5</ele>
                <time>2020-11-30T16:54:15.000Z</time>
            </trkpt>
            <trkpt lat="40.912717" lon="-8.512624">
                <ele>198.6</ele>
                <time>2020-11-30T16:54:16.000Z</time>
            </trkpt>
            <trkpt lat="40.912706" lon="-8.512604">
                <ele>198.6</ele>
                <time>2020-11-30T16:54:17.000Z</time>
            </trkpt>
            <trkpt lat="40.912694" lon="-8.512584">
                <ele>198.6</ele>
                <time>2020-11-30T16:54:18.000Z</time>
            </trkpt>
            <trkpt lat="40.912683" lon="-8.512565">
                <ele>198.7</ele>
                <time>2020-11-30T16:54:19.000Z</time>
            </trkpt>
            <trkpt lat="40.912672" lon="-8.512547">
                <ele>198.7</ele>
                <time>2020-11-30T16:54:20.000Z</time>
            </trkpt>
            <trkpt lat="40.912661" lon="-8.512528">
                <ele>198.7</ele>
                <time>2020-11-30T16:54:21.000Z</time>
            </trkpt>
            <trkpt lat="40.91265" lon="-8.512508">
                <ele>198.7</ele>
                <time>2020-11-30T16:54:22.000Z</time>
            </trkpt>
            <trkpt lat="40.91264" lon="-8.512488">
                <ele>198.8</ele>
                <time>2020-11-30T16:54:23.000Z</time>
            </trkpt>
            <trkpt lat="40.912631" lon="-8.512468">
                <ele>198.9</ele>
                <time>2020-11-30T16:54:24.000Z</time>
            </trkpt>
            <trkpt lat="40.912622" lon="-8.512446">
                <ele>199.0</ele>
                <time>2020-11-30T16:54:25.000Z</time>
            </trkpt>
            <trkpt lat="40.912614" lon="-8.512424">
                <ele>199.1</ele>
                <time>2020-11-30T16:54:26.000Z</time>
            </trkpt>
            <trkpt lat="40.912605" lon="-8.512401">
                <ele>199.1</ele>
                <time>2020-11-30T16:54:27.000Z</time>
            </trkpt>
            <trkpt lat="40.912597" lon="-8.512379">
                <ele>199.2</ele>
                <time>2020-11-30T16:54:28.000Z</time>
            </trkpt>
            <trkpt lat="40.912588" lon="-8.512357">
                <ele>199.3</ele>
                <time>2020-11-30T16:54:29.000Z</time>
            </trkpt>
            <trkpt lat="40.912578" lon="-8.512335">
                <ele>199.4</ele>
                <time>2020-11-30T16:54:30.000Z</time>
            </trkpt>
            <trkpt lat="40.912568" lon="-8.512313">
                <ele>199.5</ele>
                <time>2020-11-30T16:54:31.000Z</time>
            </trkpt>
            <trkpt lat="40.912557" lon="-8.512293">
                <ele>199.6</ele>
                <time>2020-11-30T16:54:32.000Z</time>
            </trkpt>
            <trkpt lat="40.912545" lon="-8.512274">
                <ele>199.8</ele>
                <time>2020-11-30T16:54:33.000Z</time>
            </trkpt>
            <trkpt lat="40.912531" lon="-8.512255">
                <ele>199.9</ele>
                <time>2020-11-30T16:54:34.000Z</time>
            </trkpt>
            <trkpt lat="40.912517" lon="-8.512238">
                <ele>200.1</ele>
                <time>2020-11-30T16:54:35.000Z</time>
            </trkpt>
            <trkpt lat="40.912501" lon="-8.512222">
                <ele>200.3</ele>
                <time>2020-11-30T16:54:36.000Z</time>
            </trkpt>
            <trkpt lat="40.912485" lon="-8.512207">
                <ele>200.3</ele>
                <time>2020-11-30T16:54:37.000Z</time>
            </trkpt>
            <trkpt lat="40.912469" lon="-8.512193">
                <ele>200.3</ele>
                <time>2020-11-30T16:54:38.000Z</time>
            </trkpt>
            <trkpt lat="40.912453" lon="-8.512179">
                <ele>200.3</ele>
                <time>2020-11-30T16:54:39.000Z</time>
            </trkpt>
            <trkpt lat="40.912437" lon="-8.512166">
                <ele>200.3</ele>
                <time>2020-11-30T16:54:40.000Z</time>
            </trkpt>
            <trkpt lat="40.912422" lon="-8.512153">
                <ele>200.2</ele>
                <time>2020-11-30T16:54:41.000Z</time>
            </trkpt>
            <trkpt lat="40.912408" lon="-8.51214">
                <ele>200.2</ele>
                <time>2020-11-30T16:54:42.000Z</time>
            </trkpt>
            <trkpt lat="40.912395" lon="-8.512128">
                <ele>200.2</ele>
                <time>2020-11-30T16:54:43.000Z</time>
            </trkpt>
            <trkpt lat="40.912383" lon="-8.512115">
                <ele>200.2</ele>
                <time>2020-11-30T16:54:44.000Z</time>
            </trkpt>
            <trkpt lat="40.912374" lon="-8.512102">
                <ele>200.2</ele>
                <time>2020-11-30T16:54:45.000Z</time>
            </trkpt>
            <trkpt lat="40.912365" lon="-8.51209">
                <ele>200.2</ele>
                <time>2020-11-30T16:54:46.000Z</time>
            </trkpt>
            <trkpt lat="40.912359" lon="-8.512078">
                <ele>200.2</ele>
                <time>2020-11-30T16:54:47.000Z</time>
            </trkpt>
            <trkpt lat="40.912354" lon="-8.512068">
                <ele>200.1</ele>
                <time>2020-11-30T16:54:48.000Z</time>
            </trkpt>
            <trkpt lat="40.912351" lon="-8.512059">
                <ele>200.1</ele>
                <time>2020-11-30T16:54:49.000Z</time>
            </trkpt>
            <trkpt lat="40.912349" lon="-8.512052">
                <ele>200.1</ele>
                <time>2020-11-30T16:54:50.000Z</time>
            </trkpt>
            <trkpt lat="40.912349" lon="-8.512047">
                <ele>200.1</ele>
                <time>2020-11-30T16:54:51.000Z</time>
            </trkpt>
            <trkpt lat="40.912351" lon="-8.512044">
                <ele>200.1</ele>
                <time>2020-11-30T16:54:52.000Z</time>
            </trkpt>
            <trkpt lat="40.912354" lon="-8.512041">
                <ele>200.1</ele>
                <time>2020-11-30T16:54:53.000Z</time>
            </trkpt>
            <trkpt lat="40.91236" lon="-8.512039">
                <ele>200.1</ele>
                <time>2020-11-30T16:54:54.000Z</time>
            </trkpt>
            <trkpt lat="40.912367" lon="-8.512038">
                <ele>200.1</ele>
                <time>2020-11-30T16:54:55.000Z</time>
            </trkpt>
            <trkpt lat="40.912376" lon="-8.512036">
                <ele>200.1</ele>
                <time>2020-11-30T16:54:56.000Z</time>
            </trkpt>
            <trkpt lat="40.912385" lon="-8.512035">
                <ele>200.0</ele>
                <time>2020-11-30T16:54:57.000Z</time>
            </trkpt>
            <trkpt lat="40.912396" lon="-8.512033">
                <ele>200.0</ele>
                <time>2020-11-30T16:54:58.000Z</time>
            </trkpt>
            <trkpt lat="40.912406" lon="-8.512031">
                <ele>200.0</ele>
                <time>2020-11-30T16:54:59.000Z</time>
            </trkpt>
            <trkpt lat="40.912417" lon="-8.512028">
                <ele>200.0</ele>
                <time>2020-11-30T16:55:00.000Z</time>
            </trkpt>
            <trkpt lat="40.912426" lon="-8.512024">
                <ele>200.0</ele>
                <time>2020-11-30T16:55:01.000Z</time>
            </trkpt>
            <trkpt lat="40.912435" lon="-8.512019">
                <ele>199.9</ele>
                <time>2020-11-30T16:55:02.000Z</time>
            </trkpt>
            <trkpt lat="40.912441" lon="-8.512012">
                <ele>199.9</ele>
                <time>2020-11-30T16:55:03.000Z</time>
            </trkpt>
            <trkpt lat="40.912446" lon="-8.512005">
                <ele>199.9</ele>
                <time>2020-11-30T16:55:04.000Z</time>
            </trkpt>
            <trkpt lat="40.912448" lon="-8.511995">
                <ele>199.9</ele>
                <time>2020-11-30T16:55:05.000Z</time>
            </trkpt>
            <trkpt lat="40.912448" lon="-8.511984">
                <ele>199.8</ele>
                <time>2020-11-30T16:55:06.000Z</time>
            </trkpt>
            <trkpt lat="40.912446" lon="-8.511971">
                <ele>199.8</ele>
                <time>2020-11-30T16:55:07.000Z</time>
            </trkpt>
            <trkpt lat="40.912444" lon="-8.511957">
                <ele>199.8</ele>
                <time>2020-11-30T16:55:08.000Z</time>
            </trkpt>
            <trkpt lat="40.912441" lon="-8.511942">
                <ele>199.8</ele>
                <time>2020-11-30T16:55:09.000Z</time>
            </trkpt>
            <trkpt lat="40.912437" lon="-8.511926">
                <ele>199.7</ele>
                <time>2020-11-30T16:55:10.000Z</time>
            </trkpt>
            <trkpt lat="40.912434" lon="-8.511908">
                <ele>199.7</ele>
                <time>2020-11-30T16:55:11.000Z</time>
            </trkpt>
            <trkpt lat="40.912432" lon="-8.51189">
                <ele>199.7</ele>
                <time>2020-11-30T16:55:12.000Z</time>
            </trkpt>
            <trkpt lat="40.912431" lon="-8.511871">
                <ele>199.6</ele>
                <time>2020-11-30T16:55:13.000Z</time>
            </trkpt>
            <trkpt lat="40.912432" lon="-8.511851">
                <ele>199.6</ele>
                <time>2020-11-30T16:55:14.000Z</time>
            </trkpt>
            <trkpt lat="40.912435" lon="-8.51183">
                <ele>199.5</ele>
                <time>2020-11-30T16:55:15.000Z</time>
            </trkpt>
            <trkpt lat="40.912441" lon="-8.511809">
                <ele>199.5</ele>
                <time>2020-11-30T16:55:16.000Z</time>
            </trkpt>
            <trkpt lat="40.912449" lon="-8.511788">
                <ele>199.4</ele>
                <time>2020-11-30T16:55:17.000Z</time>
            </trkpt>
            <trkpt lat="40.912458" lon="-8.511768">
                <ele>199.3</ele>
                <time>2020-11-30T16:55:18.000Z</time>
            </trkpt>
            <trkpt lat="40.91247" lon="-8.511747">
                <ele>199.3</ele>
                <time>2020-11-30T16:55:19.000Z</time>
            </trkpt>
            <trkpt lat="40.912483" lon="-8.511728">
                <ele>199.2</ele>
                <time>2020-11-30T16:55:20.000Z</time>
            </trkpt>
            <trkpt lat="40.912498" lon="-8.511709">
                <ele>199.1</ele>
                <time>2020-11-30T16:55:21.000Z</time>
            </trkpt>
            <trkpt lat="40.912515" lon="-8.511691">
                <ele>198.8</ele>
                <time>2020-11-30T16:55:22.000Z</time>
            </trkpt>
            <trkpt lat="40.912531" lon="-8.511672">
                <ele>198.6</ele>
                <time>2020-11-30T16:55:23.000Z</time>
            </trkpt>
            <trkpt lat="40.912546" lon="-8.511653">
                <ele>198.2</ele>
                <time>2020-11-30T16:55:24.000Z</time>
            </trkpt>
            <trkpt lat="40.91256" lon="-8.511633">
                <ele>197.9</ele>
                <time>2020-11-30T16:55:25.000Z</time>
            </trkpt>
            <trkpt lat="40.912572" lon="-8.511611">
                <ele>197.6</ele>
                <time>2020-11-30T16:55:26.000Z</time>
            </trkpt>
            <trkpt lat="40.912581" lon="-8.511588">
                <ele>197.3</ele>
                <time>2020-11-30T16:55:27.000Z</time>
            </trkpt>
            <trkpt lat="40.912589" lon="-8.511562">
                <ele>197.0</ele>
                <time>2020-11-30T16:55:28.000Z</time>
            </trkpt>
            <trkpt lat="40.912594" lon="-8.511536">
                <ele>196.7</ele>
                <time>2020-11-30T16:55:29.000Z</time>
            </trkpt>
            <trkpt lat="40.912597" lon="-8.511508">
                <ele>196.5</ele>
                <time>2020-11-30T16:55:30.000Z</time>
            </trkpt>
            <trkpt lat="40.912598" lon="-8.51148">
                <ele>196.3</ele>
                <time>2020-11-30T16:55:31.000Z</time>
            </trkpt>
            <trkpt lat="40.912598" lon="-8.51145">
                <ele>196.1</ele>
                <time>2020-11-30T16:55:32.000Z</time>
            </trkpt>
            <trkpt lat="40.912595" lon="-8.51142">
                <ele>195.9</ele>
                <time>2020-11-30T16:55:33.000Z</time>
            </trkpt>
            <trkpt lat="40.912592" lon="-8.511389">
                <ele>195.7</ele>
                <time>2020-11-30T16:55:34.000Z</time>
            </trkpt>
            <trkpt lat="40.912587" lon="-8.511358">
                <ele>195.6</ele>
                <time>2020-11-30T16:55:35.000Z</time>
            </trkpt>
            <trkpt lat="40.91258" lon="-8.511326">
                <ele>195.5</ele>
                <time>2020-11-30T16:55:36.000Z</time>
            </trkpt>
            <trkpt lat="40.912573" lon="-8.511295">
                <ele>195.4</ele>
                <time>2020-11-30T16:55:37.000Z</time>
            </trkpt>
            <trkpt lat="40.912564" lon="-8.511263">
                <ele>195.2</ele>
                <time>2020-11-30T16:55:38.000Z</time>
            </trkpt>
            <trkpt lat="40.912555" lon="-8.511232">
                <ele>195.1</ele>
                <time>2020-11-30T16:55:39.000Z</time>
            </trkpt>
            <trkpt lat="40.912546" lon="-8.511202">
                <ele>195.1</ele>
                <time>2020-11-30T16:55:40.000Z</time>
            </trkpt>
            <trkpt lat="40.912537" lon="-8.511173">
                <ele>195.0</ele>
                <time>2020-11-30T16:55:41.000Z</time>
            </trkpt>
            <trkpt lat="40.912527" lon="-8.511145">
                <ele>194.9</ele>
                <time>2020-11-30T16:55:42.000Z</time>
            </trkpt>
            <trkpt lat="40.912518" lon="-8.511119">
                <ele>194.8</ele>
                <time>2020-11-30T16:55:43.000Z</time>
            </trkpt>
            <trkpt lat="40.91251" lon="-8.511094">
                <ele>194.7</ele>
                <time>2020-11-30T16:55:44.000Z</time>
            </trkpt>
            <trkpt lat="40.912502" lon="-8.511071">
                <ele>194.7</ele>
                <time>2020-11-30T16:55:45.000Z</time>
            </trkpt>
            <trkpt lat="40.912496" lon="-8.511051">
                <ele>194.6</ele>
                <time>2020-11-30T16:55:46.000Z</time>
            </trkpt>
            <trkpt lat="40.91249" lon="-8.511033">
                <ele>194.5</ele>
                <time>2020-11-30T16:55:47.000Z</time>
            </trkpt>
            <trkpt lat="40.912486" lon="-8.511016">
                <ele>194.4</ele>
                <time>2020-11-30T16:55:48.000Z</time>
            </trkpt>
            <trkpt lat="40.912481" lon="-8.510999">
                <ele>194.3</ele>
                <time>2020-11-30T16:55:49.000Z</time>
            </trkpt>
            <trkpt lat="40.912477" lon="-8.510981">
                <ele>194.2</ele>
                <time>2020-11-30T16:55:50.000Z</time>
            </trkpt>
            <trkpt lat="40.912471" lon="-8.510961">
                <ele>194.1</ele>
                <time>2020-11-30T16:55:51.000Z</time>
            </trkpt>
            <trkpt lat="40.912465" lon="-8.510938">
                <ele>194.0</ele>
                <time>2020-11-30T16:55:52.000Z</time>
            </trkpt>
            <trkpt lat="40.912458" lon="-8.510913">
                <ele>193.9</ele>
                <time>2020-11-30T16:55:53.000Z</time>
            </trkpt>
            <trkpt lat="40.912453" lon="-8.51089">
                <ele>193.7</ele>
                <time>2020-11-30T16:55:54.000Z</time>
            </trkpt>
            <trkpt lat="40.912451" lon="-8.510869">
                <ele>193.6</ele>
                <time>2020-11-30T16:55:55.000Z</time>
            </trkpt>
            <trkpt lat="40.912454" lon="-8.510849">
                <ele>193.4</ele>
                <time>2020-11-30T16:55:56.000Z</time>
            </trkpt>
            <trkpt lat="40.912461" lon="-8.510826">
                <ele>193.2</ele>
                <time>2020-11-30T16:55:57.000Z</time>
            </trkpt>
            <trkpt lat="40.912471" lon="-8.5108">
                <ele>193.0</ele>
                <time>2020-11-30T16:55:58.000Z</time>
            </trkpt>
            <trkpt lat="40.912484" lon="-8.510772">
                <ele>192.7</ele>
                <time>2020-11-30T16:55:59.000Z</time>
            </trkpt>
            <trkpt lat="40.912497" lon="-8.510743">
                <ele>192.5</ele>
                <time>2020-11-30T16:56:00.000Z</time>
            </trkpt>
            <trkpt lat="40.912509" lon="-8.510713">
                <ele>192.2</ele>
                <time>2020-11-30T16:56:01.000Z</time>
            </trkpt>
            <trkpt lat="40.912519" lon="-8.510684">
                <ele>191.9</ele>
                <time>2020-11-30T16:56:02.000Z</time>
            </trkpt>
            <trkpt lat="40.912524" lon="-8.510654">
                <ele>191.7</ele>
                <time>2020-11-30T16:56:03.000Z</time>
            </trkpt>
            <trkpt lat="40.912527" lon="-8.510625">
                <ele>191.5</ele>
                <time>2020-11-30T16:56:04.000Z</time>
            </trkpt>
            <trkpt lat="40.912527" lon="-8.510596">
                <ele>191.3</ele>
                <time>2020-11-30T16:56:05.000Z</time>
            </trkpt>
            <trkpt lat="40.912526" lon="-8.510568">
                <ele>191.2</ele>
                <time>2020-11-30T16:56:06.000Z</time>
            </trkpt>
            <trkpt lat="40.912525" lon="-8.510539">
                <ele>191.0</ele>
                <time>2020-11-30T16:56:07.000Z</time>
            </trkpt>
            <trkpt lat="40.912525" lon="-8.510511">
                <ele>190.9</ele>
                <time>2020-11-30T16:56:08.000Z</time>
            </trkpt>
            <trkpt lat="40.912526" lon="-8.510483">
                <ele>190.7</ele>
                <time>2020-11-30T16:56:09.000Z</time>
            </trkpt>
            <trkpt lat="40.912529" lon="-8.510455">
                <ele>190.5</ele>
                <time>2020-11-30T16:56:10.000Z</time>
            </trkpt>
            <trkpt lat="40.912534" lon="-8.510427">
                <ele>190.3</ele>
                <time>2020-11-30T16:56:11.000Z</time>
            </trkpt>
            <trkpt lat="40.912541" lon="-8.5104">
                <ele>190.1</ele>
                <time>2020-11-30T16:56:12.000Z</time>
            </trkpt>
            <trkpt lat="40.912551" lon="-8.510374">
                <ele>189.9</ele>
                <time>2020-11-30T16:56:13.000Z</time>
            </trkpt>
            <trkpt lat="40.912562" lon="-8.510347">
                <ele>189.7</ele>
                <time>2020-11-30T16:56:14.000Z</time>
            </trkpt>
            <trkpt lat="40.912574" lon="-8.51032">
                <ele>189.5</ele>
                <time>2020-11-30T16:56:15.000Z</time>
            </trkpt>
            <trkpt lat="40.912586" lon="-8.510291">
                <ele>189.3</ele>
                <time>2020-11-30T16:56:16.000Z</time>
            </trkpt>
            <trkpt lat="40.912596" lon="-8.51026">
                <ele>189.0</ele>
                <time>2020-11-30T16:56:17.000Z</time>
            </trkpt>
            <trkpt lat="40.912605" lon="-8.510226">
                <ele>188.8</ele>
                <time>2020-11-30T16:56:18.000Z</time>
            </trkpt>
            <trkpt lat="40.912612" lon="-8.510191">
                <ele>188.6</ele>
                <time>2020-11-30T16:56:19.000Z</time>
            </trkpt>
            <trkpt lat="40.912618" lon="-8.510154">
                <ele>188.4</ele>
                <time>2020-11-30T16:56:20.000Z</time>
            </trkpt>
            <trkpt lat="40.912621" lon="-8.510119">
                <ele>188.3</ele>
                <time>2020-11-30T16:56:21.000Z</time>
            </trkpt>
            <trkpt lat="40.912622" lon="-8.510085">
                <ele>188.1</ele>
                <time>2020-11-30T16:56:22.000Z</time>
            </trkpt>
            <trkpt lat="40.912621" lon="-8.510053">
                <ele>188.0</ele>
                <time>2020-11-30T16:56:23.000Z</time>
            </trkpt>
            <trkpt lat="40.91262" lon="-8.510025">
                <ele>187.8</ele>
                <time>2020-11-30T16:56:24.000Z</time>
            </trkpt>
            <trkpt lat="40.912621" lon="-8.510001">
                <ele>187.7</ele>
                <time>2020-11-30T16:56:25.000Z</time>
            </trkpt>
            <trkpt lat="40.912625" lon="-8.509981">
                <ele>187.8</ele>
                <time>2020-11-30T16:56:26.000Z</time>
            </trkpt>
            <trkpt lat="40.912634" lon="-8.509966">
                <ele>187.8</ele>
                <time>2020-11-30T16:56:27.000Z</time>
            </trkpt>
            <trkpt lat="40.91265" lon="-8.509955">
                <ele>187.8</ele>
                <time>2020-11-30T16:56:28.000Z</time>
            </trkpt>
            <trkpt lat="40.912671" lon="-8.509949">
                <ele>187.8</ele>
                <time>2020-11-30T16:56:29.000Z</time>
            </trkpt>
            <trkpt lat="40.912697" lon="-8.509947">
                <ele>187.8</ele>
                <time>2020-11-30T16:56:30.000Z</time>
            </trkpt>
            <trkpt lat="40.912725" lon="-8.509948">
                <ele>187.7</ele>
                <time>2020-11-30T16:56:31.000Z</time>
            </trkpt>
            <trkpt lat="40.912754" lon="-8.509951">
                <ele>187.6</ele>
                <time>2020-11-30T16:56:32.000Z</time>
            </trkpt>
            <trkpt lat="40.912783" lon="-8.509957">
                <ele>187.5</ele>
                <time>2020-11-30T16:56:33.000Z</time>
            </trkpt>
            <trkpt lat="40.912812" lon="-8.509965">
                <ele>187.4</ele>
                <time>2020-11-30T16:56:34.000Z</time>
            </trkpt>
            <trkpt lat="40.912841" lon="-8.509973">
                <ele>187.3</ele>
                <time>2020-11-30T16:56:35.000Z</time>
            </trkpt>
            <trkpt lat="40.91287" lon="-8.509982">
                <ele>187.2</ele>
                <time>2020-11-30T16:56:36.000Z</time>
            </trkpt>
            <trkpt lat="40.912899" lon="-8.509991">
                <ele>187.1</ele>
                <time>2020-11-30T16:56:37.000Z</time>
            </trkpt>
            <trkpt lat="40.912927" lon="-8.509999">
                <ele>187.0</ele>
                <time>2020-11-30T16:56:38.000Z</time>
            </trkpt>
            <trkpt lat="40.912955" lon="-8.510007">
                <ele>186.9</ele>
                <time>2020-11-30T16:56:39.000Z</time>
            </trkpt>
            <trkpt lat="40.912983" lon="-8.510014">
                <ele>186.8</ele>
                <time>2020-11-30T16:56:40.000Z</time>
            </trkpt>
            <trkpt lat="40.913011" lon="-8.510023">
                <ele>186.8</ele>
                <time>2020-11-30T16:56:41.000Z</time>
            </trkpt>
            <trkpt lat="40.91304" lon="-8.510032">
                <ele>186.7</ele>
                <time>2020-11-30T16:56:42.000Z</time>
            </trkpt>
            <trkpt lat="40.913068" lon="-8.510043">
                <ele>186.6</ele>
                <time>2020-11-30T16:56:43.000Z</time>
            </trkpt>
            <trkpt lat="40.913096" lon="-8.510056">
                <ele>186.5</ele>
                <time>2020-11-30T16:56:44.000Z</time>
            </trkpt>
            <trkpt lat="40.913123" lon="-8.510071">
                <ele>186.4</ele>
                <time>2020-11-30T16:56:45.000Z</time>
            </trkpt>
            <trkpt lat="40.91315" lon="-8.510087">
                <ele>186.3</ele>
                <time>2020-11-30T16:56:46.000Z</time>
            </trkpt>
            <trkpt lat="40.913177" lon="-8.510103">
                <ele>186.2</ele>
                <time>2020-11-30T16:56:47.000Z</time>
            </trkpt>
            <trkpt lat="40.913202" lon="-8.510119">
                <ele>186.1</ele>
                <time>2020-11-30T16:56:48.000Z</time>
            </trkpt>
            <trkpt lat="40.913226" lon="-8.510134">
                <ele>185.9</ele>
                <time>2020-11-30T16:56:49.000Z</time>
            </trkpt>
            <trkpt lat="40.913249" lon="-8.510149">
                <ele>185.8</ele>
                <time>2020-11-30T16:56:50.000Z</time>
            </trkpt>
            <trkpt lat="40.913271" lon="-8.510164">
                <ele>185.7</ele>
                <time>2020-11-30T16:56:51.000Z</time>
            </trkpt>
            <trkpt lat="40.913294" lon="-8.510179">
                <ele>185.5</ele>
                <time>2020-11-30T16:56:52.000Z</time>
            </trkpt>
            <trkpt lat="40.913318" lon="-8.510195">
                <ele>185.4</ele>
                <time>2020-11-30T16:56:53.000Z</time>
            </trkpt>
            <trkpt lat="40.913343" lon="-8.510211">
                <ele>185.3</ele>
                <time>2020-11-30T16:56:54.000Z</time>
            </trkpt>
            <trkpt lat="40.913369" lon="-8.510228">
                <ele>185.6</ele>
                <time>2020-11-30T16:56:55.000Z</time>
            </trkpt>
            <trkpt lat="40.913396" lon="-8.510245">
                <ele>185.8</ele>
                <time>2020-11-30T16:56:56.000Z</time>
            </trkpt>
            <trkpt lat="40.913422" lon="-8.510264">
                <ele>186.0</ele>
                <time>2020-11-30T16:56:57.000Z</time>
            </trkpt>
            <trkpt lat="40.913449" lon="-8.510282">
                <ele>186.2</ele>
                <time>2020-11-30T16:56:58.000Z</time>
            </trkpt>
            <trkpt lat="40.913474" lon="-8.510302">
                <ele>186.4</ele>
                <time>2020-11-30T16:56:59.000Z</time>
            </trkpt>
            <trkpt lat="40.913499" lon="-8.510322">
                <ele>186.6</ele>
                <time>2020-11-30T16:57:00.000Z</time>
            </trkpt>
            <trkpt lat="40.913524" lon="-8.510343">
                <ele>186.8</ele>
                <time>2020-11-30T16:57:01.000Z</time>
            </trkpt>
            <trkpt lat="40.913548" lon="-8.510364">
                <ele>187.0</ele>
                <time>2020-11-30T16:57:02.000Z</time>
            </trkpt>
            <trkpt lat="40.913571" lon="-8.510385">
                <ele>187.2</ele>
                <time>2020-11-30T16:57:03.000Z</time>
            </trkpt>
            <trkpt lat="40.913595" lon="-8.510407">
                <ele>187.4</ele>
                <time>2020-11-30T16:57:04.000Z</time>
            </trkpt>
            <trkpt lat="40.913618" lon="-8.510429">
                <ele>187.5</ele>
                <time>2020-11-30T16:57:05.000Z</time>
            </trkpt>
            <trkpt lat="40.91364" lon="-8.510451">
                <ele>187.7</ele>
                <time>2020-11-30T16:57:06.000Z</time>
            </trkpt>
            <trkpt lat="40.913663" lon="-8.510473">
                <ele>187.9</ele>
                <time>2020-11-30T16:57:07.000Z</time>
            </trkpt>
            <trkpt lat="40.913685" lon="-8.510495">
                <ele>188.0</ele>
                <time>2020-11-30T16:57:08.000Z</time>
            </trkpt>
            <trkpt lat="40.913708" lon="-8.510517">
                <ele>188.2</ele>
                <time>2020-11-30T16:57:09.000Z</time>
            </trkpt>
            <trkpt lat="40.91373" lon="-8.510539">
                <ele>188.3</ele>
                <time>2020-11-30T16:57:10.000Z</time>
            </trkpt>
            <trkpt lat="40.913753" lon="-8.510561">
                <ele>188.5</ele>
                <time>2020-11-30T16:57:11.000Z</time>
            </trkpt>
            <trkpt lat="40.913775" lon="-8.510582">
                <ele>188.7</ele>
                <time>2020-11-30T16:57:12.000Z</time>
            </trkpt>
            <trkpt lat="40.913798" lon="-8.510604">
                <ele>188.8</ele>
                <time>2020-11-30T16:57:13.000Z</time>
            </trkpt>
            <trkpt lat="40.91382" lon="-8.510626">
                <ele>189.0</ele>
                <time>2020-11-30T16:57:14.000Z</time>
            </trkpt>
            <trkpt lat="40.913842" lon="-8.510648">
                <ele>189.2</ele>
                <time>2020-11-30T16:57:15.000Z</time>
            </trkpt>
            <trkpt lat="40.913864" lon="-8.51067">
                <ele>189.3</ele>
                <time>2020-11-30T16:57:16.000Z</time>
            </trkpt>
            <trkpt lat="40.913886" lon="-8.510691">
                <ele>189.5</ele>
                <time>2020-11-30T16:57:17.000Z</time>
            </trkpt>
            <trkpt lat="40.913908" lon="-8.510713">
                <ele>189.6</ele>
                <time>2020-11-30T16:57:18.000Z</time>
            </trkpt>
            <trkpt lat="40.91393" lon="-8.510735">
                <ele>189.8</ele>
                <time>2020-11-30T16:57:19.000Z</time>
            </trkpt>
            <trkpt lat="40.913951" lon="-8.510757">
                <ele>189.9</ele>
                <time>2020-11-30T16:57:20.000Z</time>
            </trkpt>
            <trkpt lat="40.913973" lon="-8.510779">
                <ele>190.1</ele>
                <time>2020-11-30T16:57:21.000Z</time>
            </trkpt>
            <trkpt lat="40.913994" lon="-8.5108">
                <ele>190.3</ele>
                <time>2020-11-30T16:57:22.000Z</time>
            </trkpt>
            <trkpt lat="40.914015" lon="-8.510822">
                <ele>190.4</ele>
                <time>2020-11-30T16:57:23.000Z</time>
            </trkpt>
            <trkpt lat="40.914036" lon="-8.510844">
                <ele>190.5</ele>
                <time>2020-11-30T16:57:24.000Z</time>
            </trkpt>
            <trkpt lat="40.914057" lon="-8.510865">
                <ele>190.4</ele>
                <time>2020-11-30T16:57:25.000Z</time>
            </trkpt>
            <trkpt lat="40.914078" lon="-8.510887">
                <ele>190.3</ele>
                <time>2020-11-30T16:57:26.000Z</time>
            </trkpt>
            <trkpt lat="40.9141" lon="-8.510908">
                <ele>190.2</ele>
                <time>2020-11-30T16:57:27.000Z</time>
            </trkpt>
            <trkpt lat="40.914121" lon="-8.51093">
                <ele>190.1</ele>
                <time>2020-11-30T16:57:28.000Z</time>
            </trkpt>
            <trkpt lat="40.914142" lon="-8.510951">
                <ele>190.0</ele>
                <time>2020-11-30T16:57:29.000Z</time>
            </trkpt>
            <trkpt lat="40.914163" lon="-8.510972">
                <ele>189.8</ele>
                <time>2020-11-30T16:57:30.000Z</time>
            </trkpt>
            <trkpt lat="40.914185" lon="-8.510994">
                <ele>189.3</ele>
                <time>2020-11-30T16:57:31.000Z</time>
            </trkpt>
            <trkpt lat="40.914207" lon="-8.511016">
                <ele>188.8</ele>
                <time>2020-11-30T16:57:32.000Z</time>
            </trkpt>
            <trkpt lat="40.914228" lon="-8.511038">
                <ele>188.3</ele>
                <time>2020-11-30T16:57:33.000Z</time>
            </trkpt>
            <trkpt lat="40.91425" lon="-8.511062">
                <ele>187.8</ele>
                <time>2020-11-30T16:57:34.000Z</time>
            </trkpt>
            <trkpt lat="40.914273" lon="-8.511086">
                <ele>187.3</ele>
                <time>2020-11-30T16:57:35.000Z</time>
            </trkpt>
            <trkpt lat="40.914295" lon="-8.511112">
                <ele>186.8</ele>
                <time>2020-11-30T16:57:36.000Z</time>
            </trkpt>
            <trkpt lat="40.914317" lon="-8.511138">
                <ele>186.3</ele>
                <time>2020-11-30T16:57:37.000Z</time>
            </trkpt>
            <trkpt lat="40.914339" lon="-8.511164">
                <ele>185.9</ele>
                <time>2020-11-30T16:57:38.000Z</time>
            </trkpt>
            <trkpt lat="40.914361" lon="-8.511191">
                <ele>185.4</ele>
                <time>2020-11-30T16:57:39.000Z</time>
            </trkpt>
            <trkpt lat="40.914382" lon="-8.511217">
                <ele>185.0</ele>
                <time>2020-11-30T16:57:40.000Z</time>
            </trkpt>
            <trkpt lat="40.914403" lon="-8.511243">
                <ele>184.6</ele>
                <time>2020-11-30T16:57:41.000Z</time>
            </trkpt>
            <trkpt lat="40.914423" lon="-8.511268">
                <ele>184.2</ele>
                <time>2020-11-30T16:57:42.000Z</time>
            </trkpt>
            <trkpt lat="40.914443" lon="-8.511294">
                <ele>183.8</ele>
                <time>2020-11-30T16:57:43.000Z</time>
            </trkpt>
            <trkpt lat="40.914463" lon="-8.511319">
                <ele>183.5</ele>
                <time>2020-11-30T16:57:44.000Z</time>
            </trkpt>
            <trkpt lat="40.914482" lon="-8.511344">
                <ele>183.2</ele>
                <time>2020-11-30T16:57:45.000Z</time>
            </trkpt>
            <trkpt lat="40.914501" lon="-8.51137">
                <ele>182.9</ele>
                <time>2020-11-30T16:57:46.000Z</time>
            </trkpt>
            <trkpt lat="40.91452" lon="-8.511395">
                <ele>182.6</ele>
                <time>2020-11-30T16:57:47.000Z</time>
            </trkpt>
            <trkpt lat="40.91454" lon="-8.51142">
                <ele>182.3</ele>
                <time>2020-11-30T16:57:48.000Z</time>
            </trkpt>
            <trkpt lat="40.914559" lon="-8.511446">
                <ele>182.0</ele>
                <time>2020-11-30T16:57:49.000Z</time>
            </trkpt>
            <trkpt lat="40.914578" lon="-8.511471">
                <ele>181.8</ele>
                <time>2020-11-30T16:57:50.000Z</time>
            </trkpt>
            <trkpt lat="40.914598" lon="-8.511497">
                <ele>181.5</ele>
                <time>2020-11-30T16:57:51.000Z</time>
            </trkpt>
            <trkpt lat="40.914617" lon="-8.511523">
                <ele>181.3</ele>
                <time>2020-11-30T16:57:52.000Z</time>
            </trkpt>
            <trkpt lat="40.914637" lon="-8.51155">
                <ele>181.1</ele>
                <time>2020-11-30T16:57:53.000Z</time>
            </trkpt>
            <trkpt lat="40.914656" lon="-8.511576">
                <ele>180.9</ele>
                <time>2020-11-30T16:57:54.000Z</time>
            </trkpt>
            <trkpt lat="40.914676" lon="-8.511603">
                <ele>180.7</ele>
                <time>2020-11-30T16:57:55.000Z</time>
            </trkpt>
            <trkpt lat="40.914696" lon="-8.51163">
                <ele>180.5</ele>
                <time>2020-11-30T16:57:56.000Z</time>
            </trkpt>
            <trkpt lat="40.914715" lon="-8.511657">
                <ele>180.4</ele>
                <time>2020-11-30T16:57:57.000Z</time>
            </trkpt>
            <trkpt lat="40.914735" lon="-8.511684">
                <ele>180.2</ele>
                <time>2020-11-30T16:57:58.000Z</time>
            </trkpt>
            <trkpt lat="40.914755" lon="-8.511712">
                <ele>179.9</ele>
                <time>2020-11-30T16:57:59.000Z</time>
            </trkpt>
            <trkpt lat="40.914774" lon="-8.511739">
                <ele>179.7</ele>
                <time>2020-11-30T16:58:00.000Z</time>
            </trkpt>
            <trkpt lat="40.914794" lon="-8.511767">
                <ele>179.4</ele>
                <time>2020-11-30T16:58:01.000Z</time>
            </trkpt>
            <trkpt lat="40.914813" lon="-8.511795">
                <ele>179.1</ele>
                <time>2020-11-30T16:58:02.000Z</time>
            </trkpt>
            <trkpt lat="40.914833" lon="-8.511824">
                <ele>178.8</ele>
                <time>2020-11-30T16:58:03.000Z</time>
            </trkpt>
            <trkpt lat="40.914853" lon="-8.511852">
                <ele>178.5</ele>
                <time>2020-11-30T16:58:04.000Z</time>
            </trkpt>
            <trkpt lat="40.914872" lon="-8.51188">
                <ele>178.3</ele>
                <time>2020-11-30T16:58:05.000Z</time>
            </trkpt>
            <trkpt lat="40.914892" lon="-8.511908">
                <ele>178.0</ele>
                <time>2020-11-30T16:58:06.000Z</time>
            </trkpt>
            <trkpt lat="40.914912" lon="-8.511936">
                <ele>177.7</ele>
                <time>2020-11-30T16:58:07.000Z</time>
            </trkpt>
            <trkpt lat="40.914932" lon="-8.511964">
                <ele>177.4</ele>
                <time>2020-11-30T16:58:08.000Z</time>
            </trkpt>
            <trkpt lat="40.914953" lon="-8.511992">
                <ele>177.0</ele>
                <time>2020-11-30T16:58:09.000Z</time>
            </trkpt>
            <trkpt lat="40.914973" lon="-8.512019">
                <ele>176.7</ele>
                <time>2020-11-30T16:58:10.000Z</time>
            </trkpt>
            <trkpt lat="40.914994" lon="-8.512046">
                <ele>176.4</ele>
                <time>2020-11-30T16:58:11.000Z</time>
            </trkpt>
            <trkpt lat="40.915015" lon="-8.512073">
                <ele>176.2</ele>
                <time>2020-11-30T16:58:12.000Z</time>
            </trkpt>
            <trkpt lat="40.915036" lon="-8.512099">
                <ele>175.9</ele>
                <time>2020-11-30T16:58:13.000Z</time>
            </trkpt>
            <trkpt lat="40.915058" lon="-8.512125">
                <ele>175.7</ele>
                <time>2020-11-30T16:58:14.000Z</time>
            </trkpt>
            <trkpt lat="40.91508" lon="-8.51215">
                <ele>175.4</ele>
                <time>2020-11-30T16:58:15.000Z</time>
            </trkpt>
            <trkpt lat="40.915103" lon="-8.512174">
                <ele>175.2</ele>
                <time>2020-11-30T16:58:16.000Z</time>
            </trkpt>
            <trkpt lat="40.915126" lon="-8.512199">
                <ele>175.0</ele>
                <time>2020-11-30T16:58:17.000Z</time>
            </trkpt>
            <trkpt lat="40.915149" lon="-8.512222">
                <ele>174.8</ele>
                <time>2020-11-30T16:58:18.000Z</time>
            </trkpt>
            <trkpt lat="40.915173" lon="-8.512245">
                <ele>174.5</ele>
                <time>2020-11-30T16:58:19.000Z</time>
            </trkpt>
            <trkpt lat="40.915197" lon="-8.512266">
                <ele>174.3</ele>
                <time>2020-11-30T16:58:20.000Z</time>
            </trkpt>
            <trkpt lat="40.915222" lon="-8.512288">
                <ele>174.1</ele>
                <time>2020-11-30T16:58:21.000Z</time>
            </trkpt>
            <trkpt lat="40.915248" lon="-8.512308">
                <ele>174.0</ele>
                <time>2020-11-30T16:58:22.000Z</time>
            </trkpt>
            <trkpt lat="40.915273" lon="-8.512327">
                <ele>173.8</ele>
                <time>2020-11-30T16:58:23.000Z</time>
            </trkpt>
            <trkpt lat="40.915299" lon="-8.512346">
                <ele>173.6</ele>
                <time>2020-11-30T16:58:24.000Z</time>
            </trkpt>
            <trkpt lat="40.915325" lon="-8.512363">
                <ele>173.5</ele>
                <time>2020-11-30T16:58:25.000Z</time>
            </trkpt>
            <trkpt lat="40.915351" lon="-8.512379">
                <ele>173.4</ele>
                <time>2020-11-30T16:58:26.000Z</time>
            </trkpt>
            <trkpt lat="40.915377" lon="-8.512395">
                <ele>173.2</ele>
                <time>2020-11-30T16:58:27.000Z</time>
            </trkpt>
            <trkpt lat="40.915402" lon="-8.512409">
                <ele>173.1</ele>
                <time>2020-11-30T16:58:28.000Z</time>
            </trkpt>
            <trkpt lat="40.915427" lon="-8.512423">
                <ele>173.0</ele>
                <time>2020-11-30T16:58:29.000Z</time>
            </trkpt>
            <trkpt lat="40.915452" lon="-8.512435">
                <ele>172.9</ele>
                <time>2020-11-30T16:58:30.000Z</time>
            </trkpt>
            <trkpt lat="40.915476" lon="-8.512446">
                <ele>172.8</ele>
                <time>2020-11-30T16:58:31.000Z</time>
            </trkpt>
            <trkpt lat="40.9155" lon="-8.512456">
                <ele>172.8</ele>
                <time>2020-11-30T16:58:32.000Z</time>
            </trkpt>
            <trkpt lat="40.915523" lon="-8.512465">
                <ele>172.7</ele>
                <time>2020-11-30T16:58:33.000Z</time>
            </trkpt>
            <trkpt lat="40.915546" lon="-8.512473">
                <ele>172.7</ele>
                <time>2020-11-30T16:58:34.000Z</time>
            </trkpt>
            <trkpt lat="40.91557" lon="-8.51248">
                <ele>172.6</ele>
                <time>2020-11-30T16:58:35.000Z</time>
            </trkpt>
            <trkpt lat="40.915593" lon="-8.512486">
                <ele>172.6</ele>
                <time>2020-11-30T16:58:36.000Z</time>
            </trkpt>
            <trkpt lat="40.915616" lon="-8.512491">
                <ele>172.6</ele>
                <time>2020-11-30T16:58:37.000Z</time>
            </trkpt>
            <trkpt lat="40.915639" lon="-8.512496">
                <ele>172.6</ele>
                <time>2020-11-30T16:58:38.000Z</time>
            </trkpt>
            <trkpt lat="40.915663" lon="-8.512499">
                <ele>172.6</ele>
                <time>2020-11-30T16:58:39.000Z</time>
            </trkpt>
            <trkpt lat="40.915688" lon="-8.512502">
                <ele>172.6</ele>
                <time>2020-11-30T16:58:40.000Z</time>
            </trkpt>
            <trkpt lat="40.915713" lon="-8.512505">
                <ele>172.6</ele>
                <time>2020-11-30T16:58:41.000Z</time>
            </trkpt>
            <trkpt lat="40.915738" lon="-8.512507">
                <ele>172.7</ele>
                <time>2020-11-30T16:58:42.000Z</time>
            </trkpt>
            <trkpt lat="40.915764" lon="-8.512508">
                <ele>172.7</ele>
                <time>2020-11-30T16:58:43.000Z</time>
            </trkpt>
            <trkpt lat="40.915791" lon="-8.512509">
                <ele>172.8</ele>
                <time>2020-11-30T16:58:44.000Z</time>
            </trkpt>
            <trkpt lat="40.915818" lon="-8.512509">
                <ele>172.8</ele>
                <time>2020-11-30T16:58:45.000Z</time>
            </trkpt>
            <trkpt lat="40.915846" lon="-8.51251">
                <ele>172.9</ele>
                <time>2020-11-30T16:58:46.000Z</time>
            </trkpt>
            <trkpt lat="40.915874" lon="-8.51251">
                <ele>172.9</ele>
                <time>2020-11-30T16:58:47.000Z</time>
            </trkpt>
            <trkpt lat="40.915902" lon="-8.512509">
                <ele>172.9</ele>
                <time>2020-11-30T16:58:48.000Z</time>
            </trkpt>
            <trkpt lat="40.91593" lon="-8.512509">
                <ele>172.9</ele>
                <time>2020-11-30T16:58:49.000Z</time>
            </trkpt>
            <trkpt lat="40.915959" lon="-8.51251">
                <ele>172.9</ele>
                <time>2020-11-30T16:58:50.000Z</time>
            </trkpt>
            <trkpt lat="40.915988" lon="-8.51251">
                <ele>172.9</ele>
                <time>2020-11-30T16:58:51.000Z</time>
            </trkpt>
            <trkpt lat="40.916017" lon="-8.51251">
                <ele>172.9</ele>
                <time>2020-11-30T16:58:52.000Z</time>
            </trkpt>
            <trkpt lat="40.916044" lon="-8.512511">
                <ele>172.9</ele>
                <time>2020-11-30T16:58:53.000Z</time>
            </trkpt>
            <trkpt lat="40.916069" lon="-8.512513">
                <ele>172.8</ele>
                <time>2020-11-30T16:58:54.000Z</time>
            </trkpt>
            <trkpt lat="40.916091" lon="-8.512514">
                <ele>172.8</ele>
                <time>2020-11-30T16:58:55.000Z</time>
            </trkpt>
            <trkpt lat="40.916108" lon="-8.512516">
                <ele>172.8</ele>
                <time>2020-11-30T16:58:56.000Z</time>
            </trkpt>
            <trkpt lat="40.916119" lon="-8.512519">
                <ele>172.8</ele>
                <time>2020-11-30T16:58:57.000Z</time>
            </trkpt>
            <trkpt lat="40.916126" lon="-8.512521">
                <ele>172.7</ele>
                <time>2020-11-30T16:58:58.000Z</time>
            </trkpt>
            <trkpt lat="40.916129" lon="-8.512523">
                <ele>172.7</ele>
                <time>2020-11-30T16:58:59.000Z</time>
            </trkpt>
            <trkpt lat="40.91613" lon="-8.512525">
                <ele>172.7</ele>
                <time>2020-11-30T16:59:00.000Z</time>
            </trkpt>
            <trkpt lat="40.91613" lon="-8.512526">
                <ele>172.7</ele>
                <time>2020-11-30T16:59:01.000Z</time>
            </trkpt>
            <trkpt lat="40.91613" lon="-8.512527">
                <ele>172.7</ele>
                <time>2020-11-30T16:59:02.000Z</time>
            </trkpt>
            <trkpt lat="40.91613" lon="-8.512527">
                <ele>172.7</ele>
                <time>2020-11-30T16:59:03.000Z</time>
            </trkpt>
            <trkpt lat="40.916131" lon="-8.512527">
                <ele>172.7</ele>
                <time>2020-11-30T16:59:04.000Z</time>
            </trkpt>
            <trkpt lat="40.916133" lon="-8.512527">
                <ele>172.7</ele>
                <time>2020-11-30T16:59:05.000Z</time>
            </trkpt>
            <trkpt lat="40.916138" lon="-8.512528">
                <ele>172.7</ele>
                <time>2020-11-30T16:59:06.000Z</time>
            </trkpt>
            <trkpt lat="40.916144" lon="-8.51253">
                <ele>172.6</ele>
                <time>2020-11-30T16:59:07.000Z</time>
            </trkpt>
            <trkpt lat="40.916154" lon="-8.512533">
                <ele>172.6</ele>
                <time>2020-11-30T16:59:08.000Z</time>
            </trkpt>
            <trkpt lat="40.916165" lon="-8.512535">
                <ele>172.6</ele>
                <time>2020-11-30T16:59:09.000Z</time>
            </trkpt>
            <trkpt lat="40.916179" lon="-8.512538">
                <ele>172.5</ele>
                <time>2020-11-30T16:59:10.000Z</time>
            </trkpt>
            <trkpt lat="40.916196" lon="-8.51254">
                <ele>172.5</ele>
                <time>2020-11-30T16:59:11.000Z</time>
            </trkpt>
            <trkpt lat="40.916215" lon="-8.512542">
                <ele>172.5</ele>
                <time>2020-11-30T16:59:12.000Z</time>
            </trkpt>
            <trkpt lat="40.916235" lon="-8.512542">
                <ele>172.5</ele>
                <time>2020-11-30T16:59:13.000Z</time>
            </trkpt>
            <trkpt lat="40.916258" lon="-8.512542">
                <ele>172.5</ele>
                <time>2020-11-30T16:59:14.000Z</time>
            </trkpt>
            <trkpt lat="40.916282" lon="-8.512541">
                <ele>172.5</ele>
                <time>2020-11-30T16:59:15.000Z</time>
            </trkpt>
            <trkpt lat="40.916307" lon="-8.51254">
                <ele>172.5</ele>
                <time>2020-11-30T16:59:16.000Z</time>
            </trkpt>
            <trkpt lat="40.916333" lon="-8.512538">
                <ele>172.6</ele>
                <time>2020-11-30T16:59:17.000Z</time>
            </trkpt>
            <trkpt lat="40.916359" lon="-8.512537">
                <ele>172.6</ele>
                <time>2020-11-30T16:59:18.000Z</time>
            </trkpt>
            <trkpt lat="40.916386" lon="-8.512535">
                <ele>172.6</ele>
                <time>2020-11-30T16:59:19.000Z</time>
            </trkpt>
            <trkpt lat="40.916413" lon="-8.512534">
                <ele>172.6</ele>
                <time>2020-11-30T16:59:20.000Z</time>
            </trkpt>
            <trkpt lat="40.916439" lon="-8.512533">
                <ele>172.6</ele>
                <time>2020-11-30T16:59:21.000Z</time>
            </trkpt>
            <trkpt lat="40.916465" lon="-8.512533">
                <ele>172.6</ele>
                <time>2020-11-30T16:59:22.000Z</time>
            </trkpt>
            <trkpt lat="40.91649" lon="-8.512533">
                <ele>172.6</ele>
                <time>2020-11-30T16:59:23.000Z</time>
            </trkpt>
            <trkpt lat="40.916515" lon="-8.512533">
                <ele>172.6</ele>
                <time>2020-11-30T16:59:24.000Z</time>
            </trkpt>
            <trkpt lat="40.916539" lon="-8.512533">
                <ele>172.6</ele>
                <time>2020-11-30T16:59:25.000Z</time>
            </trkpt>
            <trkpt lat="40.916563" lon="-8.512533">
                <ele>172.6</ele>
                <time>2020-11-30T16:59:26.000Z</time>
            </trkpt>
            <trkpt lat="40.916587" lon="-8.512533">
                <ele>172.6</ele>
                <time>2020-11-30T16:59:27.000Z</time>
            </trkpt>
            <trkpt lat="40.916611" lon="-8.512533">
                <ele>172.6</ele>
                <time>2020-11-30T16:59:28.000Z</time>
            </trkpt>
            <trkpt lat="40.916635" lon="-8.512532">
                <ele>172.7</ele>
                <time>2020-11-30T16:59:29.000Z</time>
            </trkpt>
            <trkpt lat="40.916659" lon="-8.512531">
                <ele>172.7</ele>
                <time>2020-11-30T16:59:30.000Z</time>
            </trkpt>
            <trkpt lat="40.916683" lon="-8.512528">
                <ele>172.9</ele>
                <time>2020-11-30T16:59:31.000Z</time>
            </trkpt>
            <trkpt lat="40.916707" lon="-8.512525">
                <ele>173.2</ele>
                <time>2020-11-30T16:59:32.000Z</time>
            </trkpt>
            <trkpt lat="40.916731" lon="-8.51252">
                <ele>173.5</ele>
                <time>2020-11-30T16:59:33.000Z</time>
            </trkpt>
            <trkpt lat="40.916756" lon="-8.512515">
                <ele>173.9</ele>
                <time>2020-11-30T16:59:34.000Z</time>
            </trkpt>
            <trkpt lat="40.916781" lon="-8.51251">
                <ele>174.3</ele>
                <time>2020-11-30T16:59:35.000Z</time>
            </trkpt>
            <trkpt lat="40.916806" lon="-8.512507">
                <ele>174.6</ele>
                <time>2020-11-30T16:59:36.000Z</time>
            </trkpt>
            <trkpt lat="40.916831" lon="-8.512506">
                <ele>174.9</ele>
                <time>2020-11-30T16:59:37.000Z</time>
            </trkpt>
            <trkpt lat="40.916855" lon="-8.512507">
                <ele>175.2</ele>
                <time>2020-11-30T16:59:38.000Z</time>
            </trkpt>
            <trkpt lat="40.91688" lon="-8.51251">
                <ele>175.4</ele>
                <time>2020-11-30T16:59:39.000Z</time>
            </trkpt>
            <trkpt lat="40.916905" lon="-8.512514">
                <ele>175.7</ele>
                <time>2020-11-30T16:59:40.000Z</time>
            </trkpt>
            <trkpt lat="40.91693" lon="-8.512518">
                <ele>175.9</ele>
                <time>2020-11-30T16:59:41.000Z</time>
            </trkpt>
            <trkpt lat="40.916955" lon="-8.512521">
                <ele>176.2</ele>
                <time>2020-11-30T16:59:42.000Z</time>
            </trkpt>
            <trkpt lat="40.91698" lon="-8.512523">
                <ele>176.5</ele>
                <time>2020-11-30T16:59:43.000Z</time>
            </trkpt>
            <trkpt lat="40.917006" lon="-8.512524">
                <ele>176.8</ele>
                <time>2020-11-30T16:59:44.000Z</time>
            </trkpt>
            <trkpt lat="40.917032" lon="-8.512524">
                <ele>177.1</ele>
                <time>2020-11-30T16:59:45.000Z</time>
            </trkpt>
            <trkpt lat="40.917057" lon="-8.512525">
                <ele>177.3</ele>
                <time>2020-11-30T16:59:46.000Z</time>
            </trkpt>
            <trkpt lat="40.917083" lon="-8.512527">
                <ele>177.6</ele>
                <time>2020-11-30T16:59:47.000Z</time>
            </trkpt>
            <trkpt lat="40.917108" lon="-8.51253">
                <ele>177.9</ele>
                <time>2020-11-30T16:59:48.000Z</time>
            </trkpt>
            <trkpt lat="40.917133" lon="-8.512535">
                <ele>178.1</ele>
                <time>2020-11-30T16:59:49.000Z</time>
            </trkpt>
            <trkpt lat="40.917157" lon="-8.512544">
                <ele>178.3</ele>
                <time>2020-11-30T16:59:50.000Z</time>
            </trkpt>
            <trkpt lat="40.917181" lon="-8.512555">
                <ele>178.4</ele>
                <time>2020-11-30T16:59:51.000Z</time>
            </trkpt>
            <trkpt lat="40.917203" lon="-8.512571">
                <ele>178.4</ele>
                <time>2020-11-30T16:59:52.000Z</time>
            </trkpt>
            <trkpt lat="40.917225" lon="-8.512591">
                <ele>178.4</ele>
                <time>2020-11-30T16:59:53.000Z</time>
            </trkpt>
            <trkpt lat="40.917246" lon="-8.512615">
                <ele>178.2</ele>
                <time>2020-11-30T16:59:54.000Z</time>
            </trkpt>
            <trkpt lat="40.917266" lon="-8.512643">
                <ele>178.0</ele>
                <time>2020-11-30T16:59:55.000Z</time>
            </trkpt>
            <trkpt lat="40.917284" lon="-8.512673">
                <ele>177.8</ele>
                <time>2020-11-30T16:59:56.000Z</time>
            </trkpt>
            <trkpt lat="40.917302" lon="-8.512707">
                <ele>177.4</ele>
                <time>2020-11-30T16:59:57.000Z</time>
            </trkpt>
            <trkpt lat="40.917318" lon="-8.512742">
                <ele>177.1</ele>
                <time>2020-11-30T16:59:58.000Z</time>
            </trkpt>
            <trkpt lat="40.917333" lon="-8.512779">
                <ele>176.6</ele>
                <time>2020-11-30T16:59:59.000Z</time>
            </trkpt>
            <trkpt lat="40.917347" lon="-8.512817">
                <ele>176.2</ele>
                <time>2020-11-30T17:00:00.000Z</time>
            </trkpt>
            <trkpt lat="40.917359" lon="-8.512856">
                <ele>175.7</ele>
                <time>2020-11-30T17:00:01.000Z</time>
            </trkpt>
            <trkpt lat="40.91737" lon="-8.512894">
                <ele>175.2</ele>
                <time>2020-11-30T17:00:02.000Z</time>
            </trkpt>
            <trkpt lat="40.917379" lon="-8.512932">
                <ele>174.7</ele>
                <time>2020-11-30T17:00:03.000Z</time>
            </trkpt>
            <trkpt lat="40.917387" lon="-8.512969">
                <ele>174.1</ele>
                <time>2020-11-30T17:00:04.000Z</time>
            </trkpt>
            <trkpt lat="40.917393" lon="-8.513007">
                <ele>173.6</ele>
                <time>2020-11-30T17:00:05.000Z</time>
            </trkpt>
            <trkpt lat="40.917398" lon="-8.513043">
                <ele>173.1</ele>
                <time>2020-11-30T17:00:06.000Z</time>
            </trkpt>
            <trkpt lat="40.917402" lon="-8.51308">
                <ele>172.5</ele>
                <time>2020-11-30T17:00:07.000Z</time>
            </trkpt>
            <trkpt lat="40.917405" lon="-8.513116">
                <ele>171.9</ele>
                <time>2020-11-30T17:00:08.000Z</time>
            </trkpt>
            <trkpt lat="40.917407" lon="-8.513152">
                <ele>171.4</ele>
                <time>2020-11-30T17:00:09.000Z</time>
            </trkpt>
            <trkpt lat="40.917408" lon="-8.513188">
                <ele>170.8</ele>
                <time>2020-11-30T17:00:10.000Z</time>
            </trkpt>
            <trkpt lat="40.917409" lon="-8.513224">
                <ele>170.2</ele>
                <time>2020-11-30T17:00:11.000Z</time>
            </trkpt>
            <trkpt lat="40.917408" lon="-8.51326">
                <ele>169.6</ele>
                <time>2020-11-30T17:00:12.000Z</time>
            </trkpt>
            <trkpt lat="40.917407" lon="-8.513297">
                <ele>169.0</ele>
                <time>2020-11-30T17:00:13.000Z</time>
            </trkpt>
            <trkpt lat="40.917405" lon="-8.513334">
                <ele>168.4</ele>
                <time>2020-11-30T17:00:14.000Z</time>
            </trkpt>
            <trkpt lat="40.917403" lon="-8.51337">
                <ele>168.4</ele>
                <time>2020-11-30T17:00:15.000Z</time>
            </trkpt>
            <trkpt lat="40.917401" lon="-8.513408">
                <ele>168.4</ele>
                <time>2020-11-30T17:00:16.000Z</time>
            </trkpt>
            <trkpt lat="40.917398" lon="-8.513445">
                <ele>168.4</ele>
                <time>2020-11-30T17:00:17.000Z</time>
            </trkpt>
            <trkpt lat="40.917395" lon="-8.513482">
                <ele>168.4</ele>
                <time>2020-11-30T17:00:18.000Z</time>
            </trkpt>
            <trkpt lat="40.917391" lon="-8.51352">
                <ele>168.4</ele>
                <time>2020-11-30T17:00:19.000Z</time>
            </trkpt>
            <trkpt lat="40.917388" lon="-8.513558">
                <ele>168.4</ele>
                <time>2020-11-30T17:00:20.000Z</time>
            </trkpt>
            <trkpt lat="40.917384" lon="-8.513596">
                <ele>168.3</ele>
                <time>2020-11-30T17:00:21.000Z</time>
            </trkpt>
            <trkpt lat="40.917381" lon="-8.513633">
                <ele>168.3</ele>
                <time>2020-11-30T17:00:22.000Z</time>
            </trkpt>
            <trkpt lat="40.917377" lon="-8.513671">
                <ele>168.3</ele>
                <time>2020-11-30T17:00:23.000Z</time>
            </trkpt>
            <trkpt lat="40.917374" lon="-8.513709">
                <ele>168.3</ele>
                <time>2020-11-30T17:00:24.000Z</time>
            </trkpt>
            <trkpt lat="40.91737" lon="-8.513747">
                <ele>168.3</ele>
                <time>2020-11-30T17:00:25.000Z</time>
            </trkpt>
            <trkpt lat="40.917367" lon="-8.513784">
                <ele>168.3</ele>
                <time>2020-11-30T17:00:26.000Z</time>
            </trkpt>
            <trkpt lat="40.917364" lon="-8.513822">
                <ele>168.3</ele>
                <time>2020-11-30T17:00:27.000Z</time>
            </trkpt>
            <trkpt lat="40.917361" lon="-8.513859">
                <ele>168.3</ele>
                <time>2020-11-30T17:00:28.000Z</time>
            </trkpt>
            <trkpt lat="40.917358" lon="-8.513896">
                <ele>168.3</ele>
                <time>2020-11-30T17:00:29.000Z</time>
            </trkpt>
            <trkpt lat="40.917356" lon="-8.513933">
                <ele>168.3</ele>
                <time>2020-11-30T17:00:30.000Z</time>
            </trkpt>
            <trkpt lat="40.917353" lon="-8.51397">
                <ele>168.3</ele>
                <time>2020-11-30T17:00:31.000Z</time>
            </trkpt>
            <trkpt lat="40.91735" lon="-8.514006">
                <ele>168.2</ele>
                <time>2020-11-30T17:00:32.000Z</time>
            </trkpt>
            <trkpt lat="40.917348" lon="-8.514042">
                <ele>168.2</ele>
                <time>2020-11-30T17:00:33.000Z</time>
            </trkpt>
            <trkpt lat="40.917345" lon="-8.514078">
                <ele>168.2</ele>
                <time>2020-11-30T17:00:34.000Z</time>
            </trkpt>
            <trkpt lat="40.917343" lon="-8.514113">
                <ele>168.2</ele>
                <time>2020-11-30T17:00:35.000Z</time>
            </trkpt>
            <trkpt lat="40.917341" lon="-8.514148">
                <ele>168.2</ele>
                <time>2020-11-30T17:00:36.000Z</time>
            </trkpt>
            <trkpt lat="40.917339" lon="-8.514182">
                <ele>168.3</ele>
                <time>2020-11-30T17:00:37.000Z</time>
            </trkpt>
            <trkpt lat="40.917338" lon="-8.514215">
                <ele>168.5</ele>
                <time>2020-11-30T17:00:38.000Z</time>
            </trkpt>
            <trkpt lat="40.917337" lon="-8.514249">
                <ele>168.7</ele>
                <time>2020-11-30T17:00:39.000Z</time>
            </trkpt>
            <trkpt lat="40.917337" lon="-8.514281">
                <ele>168.9</ele>
                <time>2020-11-30T17:00:40.000Z</time>
            </trkpt>
            <trkpt lat="40.917337" lon="-8.514313">
                <ele>169.1</ele>
                <time>2020-11-30T17:00:41.000Z</time>
            </trkpt>
            <trkpt lat="40.917338" lon="-8.514345">
                <ele>169.3</ele>
                <time>2020-11-30T17:00:42.000Z</time>
            </trkpt>
            <trkpt lat="40.91734" lon="-8.514375">
                <ele>169.4</ele>
                <time>2020-11-30T17:00:43.000Z</time>
            </trkpt>
            <trkpt lat="40.917343" lon="-8.514405">
                <ele>169.6</ele>
                <time>2020-11-30T17:00:44.000Z</time>
            </trkpt>
            <trkpt lat="40.917346" lon="-8.514435">
                <ele>169.8</ele>
                <time>2020-11-30T17:00:45.000Z</time>
            </trkpt>
            <trkpt lat="40.91735" lon="-8.514463">
                <ele>170.0</ele>
                <time>2020-11-30T17:00:46.000Z</time>
            </trkpt>
            <trkpt lat="40.917355" lon="-8.514492">
                <ele>170.2</ele>
                <time>2020-11-30T17:00:47.000Z</time>
            </trkpt>
            <trkpt lat="40.917361" lon="-8.514519">
                <ele>170.4</ele>
                <time>2020-11-30T17:00:48.000Z</time>
            </trkpt>
            <trkpt lat="40.917367" lon="-8.514547">
                <ele>170.6</ele>
                <time>2020-11-30T17:00:49.000Z</time>
            </trkpt>
            <trkpt lat="40.917374" lon="-8.514574">
                <ele>170.8</ele>
                <time>2020-11-30T17:00:50.000Z</time>
            </trkpt>
            <trkpt lat="40.917381" lon="-8.5146">
                <ele>171.0</ele>
                <time>2020-11-30T17:00:51.000Z</time>
            </trkpt>
            <trkpt lat="40.917389" lon="-8.514627">
                <ele>171.2</ele>
                <time>2020-11-30T17:00:52.000Z</time>
            </trkpt>
            <trkpt lat="40.917397" lon="-8.514653">
                <ele>171.4</ele>
                <time>2020-11-30T17:00:53.000Z</time>
            </trkpt>
            <trkpt lat="40.917406" lon="-8.514679">
                <ele>171.6</ele>
                <time>2020-11-30T17:00:54.000Z</time>
            </trkpt>
            <trkpt lat="40.917415" lon="-8.514705">
                <ele>171.8</ele>
                <time>2020-11-30T17:00:55.000Z</time>
            </trkpt>
            <trkpt lat="40.917424" lon="-8.514731">
                <ele>172.0</ele>
                <time>2020-11-30T17:00:56.000Z</time>
            </trkpt>
            <trkpt lat="40.917434" lon="-8.514757">
                <ele>172.2</ele>
                <time>2020-11-30T17:00:57.000Z</time>
            </trkpt>
            <trkpt lat="40.917444" lon="-8.514783">
                <ele>172.4</ele>
                <time>2020-11-30T17:00:58.000Z</time>
            </trkpt>
            <trkpt lat="40.917454" lon="-8.514809">
                <ele>172.6</ele>
                <time>2020-11-30T17:00:59.000Z</time>
            </trkpt>
            <trkpt lat="40.917464" lon="-8.514835">
                <ele>172.8</ele>
                <time>2020-11-30T17:01:00.000Z</time>
            </trkpt>
            <trkpt lat="40.917474" lon="-8.514861">
                <ele>173.0</ele>
                <time>2020-11-30T17:01:01.000Z</time>
            </trkpt>
            <trkpt lat="40.917485" lon="-8.514888">
                <ele>173.2</ele>
                <time>2020-11-30T17:01:02.000Z</time>
            </trkpt>
            <trkpt lat="40.917495" lon="-8.514915">
                <ele>173.5</ele>
                <time>2020-11-30T17:01:03.000Z</time>
            </trkpt>
            <trkpt lat="40.917505" lon="-8.514942">
                <ele>173.6</ele>
                <time>2020-11-30T17:01:04.000Z</time>
            </trkpt>
            <trkpt lat="40.917515" lon="-8.51497">
                <ele>173.8</ele>
                <time>2020-11-30T17:01:05.000Z</time>
            </trkpt>
            <trkpt lat="40.917525" lon="-8.514998">
                <ele>174.0</ele>
                <time>2020-11-30T17:01:06.000Z</time>
            </trkpt>
            <trkpt lat="40.917534" lon="-8.515026">
                <ele>174.0</ele>
                <time>2020-11-30T17:01:07.000Z</time>
            </trkpt>
            <trkpt lat="40.917542" lon="-8.515054">
                <ele>174.1</ele>
                <time>2020-11-30T17:01:08.000Z</time>
            </trkpt>
            <trkpt lat="40.91755" lon="-8.515082">
                <ele>174.1</ele>
                <time>2020-11-30T17:01:09.000Z</time>
            </trkpt>
            <trkpt lat="40.917555" lon="-8.515109">
                <ele>174.2</ele>
                <time>2020-11-30T17:01:10.000Z</time>
            </trkpt>
            <trkpt lat="40.91756" lon="-8.515136">
                <ele>174.3</ele>
                <time>2020-11-30T17:01:11.000Z</time>
            </trkpt>
            <trkpt lat="40.917565" lon="-8.515162">
                <ele>174.3</ele>
                <time>2020-11-30T17:01:12.000Z</time>
            </trkpt>
            <trkpt lat="40.91757" lon="-8.515188">
                <ele>174.4</ele>
                <time>2020-11-30T17:01:13.000Z</time>
            </trkpt>
            <trkpt lat="40.917576" lon="-8.515215">
                <ele>174.5</ele>
                <time>2020-11-30T17:01:14.000Z</time>
            </trkpt>
            <trkpt lat="40.917582" lon="-8.515241">
                <ele>174.5</ele>
                <time>2020-11-30T17:01:15.000Z</time>
            </trkpt>
            <trkpt lat="40.91759" lon="-8.515268">
                <ele>174.6</ele>
                <time>2020-11-30T17:01:16.000Z</time>
            </trkpt>
            <trkpt lat="40.9176" lon="-8.515295">
                <ele>174.7</ele>
                <time>2020-11-30T17:01:17.000Z</time>
            </trkpt>
            <trkpt lat="40.91761" lon="-8.515321">
                <ele>174.7</ele>
                <time>2020-11-30T17:01:18.000Z</time>
            </trkpt>
            <trkpt lat="40.917621" lon="-8.515348">
                <ele>174.8</ele>
                <time>2020-11-30T17:01:19.000Z</time>
            </trkpt>
            <trkpt lat="40.917633" lon="-8.515375">
                <ele>174.9</ele>
                <time>2020-11-30T17:01:20.000Z</time>
            </trkpt>
            <trkpt lat="40.917647" lon="-8.515402">
                <ele>175.0</ele>
                <time>2020-11-30T17:01:21.000Z</time>
            </trkpt>
            <trkpt lat="40.91766" lon="-8.515428">
                <ele>175.0</ele>
                <time>2020-11-30T17:01:22.000Z</time>
            </trkpt>
            <trkpt lat="40.917675" lon="-8.515455">
                <ele>175.1</ele>
                <time>2020-11-30T17:01:23.000Z</time>
            </trkpt>
            <trkpt lat="40.917691" lon="-8.515481">
                <ele>175.2</ele>
                <time>2020-11-30T17:01:24.000Z</time>
            </trkpt>
            <trkpt lat="40.917706" lon="-8.515507">
                <ele>175.3</ele>
                <time>2020-11-30T17:01:25.000Z</time>
            </trkpt>
            <trkpt lat="40.917723" lon="-8.515533">
                <ele>175.4</ele>
                <time>2020-11-30T17:01:26.000Z</time>
            </trkpt>
            <trkpt lat="40.91774" lon="-8.515559">
                <ele>175.4</ele>
                <time>2020-11-30T17:01:27.000Z</time>
            </trkpt>
            <trkpt lat="40.917757" lon="-8.515584">
                <ele>175.5</ele>
                <time>2020-11-30T17:01:28.000Z</time>
            </trkpt>
            <trkpt lat="40.917774" lon="-8.515609">
                <ele>175.6</ele>
                <time>2020-11-30T17:01:29.000Z</time>
            </trkpt>
            <trkpt lat="40.917792" lon="-8.515634">
                <ele>175.7</ele>
                <time>2020-11-30T17:01:30.000Z</time>
            </trkpt>
            <trkpt lat="40.917809" lon="-8.515658">
                <ele>175.8</ele>
                <time>2020-11-30T17:01:31.000Z</time>
            </trkpt>
            <trkpt lat="40.917826" lon="-8.515682">
                <ele>175.9</ele>
                <time>2020-11-30T17:01:32.000Z</time>
            </trkpt>
            <trkpt lat="40.917843" lon="-8.515705">
                <ele>176.0</ele>
                <time>2020-11-30T17:01:33.000Z</time>
            </trkpt>
            <trkpt lat="40.91786" lon="-8.515728">
                <ele>176.1</ele>
                <time>2020-11-30T17:01:34.000Z</time>
            </trkpt>
            <trkpt lat="40.917876" lon="-8.515751">
                <ele>176.2</ele>
                <time>2020-11-30T17:01:35.000Z</time>
            </trkpt>
            <trkpt lat="40.917891" lon="-8.515773">
                <ele>176.3</ele>
                <time>2020-11-30T17:01:36.000Z</time>
            </trkpt>
            <trkpt lat="40.917906" lon="-8.515794">
                <ele>176.3</ele>
                <time>2020-11-30T17:01:37.000Z</time>
            </trkpt>
            <trkpt lat="40.917921" lon="-8.515816">
                <ele>176.4</ele>
                <time>2020-11-30T17:01:38.000Z</time>
            </trkpt>
            <trkpt lat="40.917936" lon="-8.515837">
                <ele>176.5</ele>
                <time>2020-11-30T17:01:39.000Z</time>
            </trkpt>
            <trkpt lat="40.917951" lon="-8.515859">
                <ele>176.6</ele>
                <time>2020-11-30T17:01:40.000Z</time>
            </trkpt>
            <trkpt lat="40.917966" lon="-8.515881">
                <ele>176.6</ele>
                <time>2020-11-30T17:01:41.000Z</time>
            </trkpt>
            <trkpt lat="40.917981" lon="-8.515903">
                <ele>176.6</ele>
                <time>2020-11-30T17:01:42.000Z</time>
            </trkpt>
            <trkpt lat="40.917996" lon="-8.515926">
                <ele>176.7</ele>
                <time>2020-11-30T17:01:43.000Z</time>
            </trkpt>
            <trkpt lat="40.918013" lon="-8.51595">
                <ele>176.7</ele>
                <time>2020-11-30T17:01:44.000Z</time>
            </trkpt>
            <trkpt lat="40.91803" lon="-8.515974">
                <ele>176.7</ele>
                <time>2020-11-30T17:01:45.000Z</time>
            </trkpt>
            <trkpt lat="40.918048" lon="-8.516">
                <ele>176.8</ele>
                <time>2020-11-30T17:01:46.000Z</time>
            </trkpt>
            <trkpt lat="40.918067" lon="-8.516026">
                <ele>176.8</ele>
                <time>2020-11-30T17:01:47.000Z</time>
            </trkpt>
            <trkpt lat="40.918086" lon="-8.516053">
                <ele>176.9</ele>
                <time>2020-11-30T17:01:48.000Z</time>
            </trkpt>
            <trkpt lat="40.918106" lon="-8.516079">
                <ele>176.9</ele>
                <time>2020-11-30T17:01:49.000Z</time>
            </trkpt>
            <trkpt lat="40.918126" lon="-8.516105">
                <ele>177.0</ele>
                <time>2020-11-30T17:01:50.000Z</time>
            </trkpt>
            <trkpt lat="40.918147" lon="-8.516129">
                <ele>177.1</ele>
                <time>2020-11-30T17:01:51.000Z</time>
            </trkpt>
            <trkpt lat="40.918167" lon="-8.516153">
                <ele>177.1</ele>
                <time>2020-11-30T17:01:52.000Z</time>
            </trkpt>
            <trkpt lat="40.918185" lon="-8.516176">
                <ele>177.2</ele>
                <time>2020-11-30T17:01:53.000Z</time>
            </trkpt>
            <trkpt lat="40.918203" lon="-8.5162">
                <ele>177.2</ele>
                <time>2020-11-30T17:01:54.000Z</time>
            </trkpt>
            <trkpt lat="40.918218" lon="-8.516224">
                <ele>177.3</ele>
                <time>2020-11-30T17:01:55.000Z</time>
            </trkpt>
            <trkpt lat="40.918231" lon="-8.51625">
                <ele>177.3</ele>
                <time>2020-11-30T17:01:56.000Z</time>
            </trkpt>
            <trkpt lat="40.918242" lon="-8.516277">
                <ele>177.4</ele>
                <time>2020-11-30T17:01:57.000Z</time>
            </trkpt>
            <trkpt lat="40.91825" lon="-8.516305">
                <ele>177.4</ele>
                <time>2020-11-30T17:01:58.000Z</time>
            </trkpt>
            <trkpt lat="40.918257" lon="-8.516334">
                <ele>177.5</ele>
                <time>2020-11-30T17:01:59.000Z</time>
            </trkpt>
            <trkpt lat="40.918262" lon="-8.516364">
                <ele>177.5</ele>
                <time>2020-11-30T17:02:00.000Z</time>
            </trkpt>
            <trkpt lat="40.918266" lon="-8.516394">
                <ele>177.5</ele>
                <time>2020-11-30T17:02:01.000Z</time>
            </trkpt>
            <trkpt lat="40.918268" lon="-8.516426">
                <ele>177.6</ele>
                <time>2020-11-30T17:02:02.000Z</time>
            </trkpt>
            <trkpt lat="40.91827" lon="-8.516458">
                <ele>177.6</ele>
                <time>2020-11-30T17:02:03.000Z</time>
            </trkpt>
            <trkpt lat="40.918271" lon="-8.516491">
                <ele>177.7</ele>
                <time>2020-11-30T17:02:04.000Z</time>
            </trkpt>
            <trkpt lat="40.918272" lon="-8.516524">
                <ele>177.7</ele>
                <time>2020-11-30T17:02:05.000Z</time>
            </trkpt>
            <trkpt lat="40.918272" lon="-8.516557">
                <ele>177.7</ele>
                <time>2020-11-30T17:02:06.000Z</time>
            </trkpt>
            <trkpt lat="40.918272" lon="-8.516591">
                <ele>177.8</ele>
                <time>2020-11-30T17:02:07.000Z</time>
            </trkpt>
            <trkpt lat="40.918272" lon="-8.516625">
                <ele>177.8</ele>
                <time>2020-11-30T17:02:08.000Z</time>
            </trkpt>
            <trkpt lat="40.918272" lon="-8.51666">
                <ele>177.8</ele>
                <time>2020-11-30T17:02:09.000Z</time>
            </trkpt>
            <trkpt lat="40.918272" lon="-8.516694">
                <ele>177.7</ele>
                <time>2020-11-30T17:02:10.000Z</time>
            </trkpt>
            <trkpt lat="40.918271" lon="-8.516729">
                <ele>177.6</ele>
                <time>2020-11-30T17:02:11.000Z</time>
            </trkpt>
            <trkpt lat="40.918271" lon="-8.516764">
                <ele>177.5</ele>
                <time>2020-11-30T17:02:12.000Z</time>
            </trkpt>
            <trkpt lat="40.918271" lon="-8.516799">
                <ele>177.3</ele>
                <time>2020-11-30T17:02:13.000Z</time>
            </trkpt>
            <trkpt lat="40.918271" lon="-8.516834">
                <ele>177.2</ele>
                <time>2020-11-30T17:02:14.000Z</time>
            </trkpt>
            <trkpt lat="40.918271" lon="-8.51687">
                <ele>177.1</ele>
                <time>2020-11-30T17:02:15.000Z</time>
            </trkpt>
            <trkpt lat="40.918271" lon="-8.516905">
                <ele>176.9</ele>
                <time>2020-11-30T17:02:16.000Z</time>
            </trkpt>
            <trkpt lat="40.918271" lon="-8.51694">
                <ele>176.8</ele>
                <time>2020-11-30T17:02:17.000Z</time>
            </trkpt>
            <trkpt lat="40.918272" lon="-8.516976">
                <ele>176.7</ele>
                <time>2020-11-30T17:02:18.000Z</time>
            </trkpt>
            <trkpt lat="40.918273" lon="-8.517011">
                <ele>176.5</ele>
                <time>2020-11-30T17:02:19.000Z</time>
            </trkpt>
            <trkpt lat="40.918273" lon="-8.517046">
                <ele>176.4</ele>
                <time>2020-11-30T17:02:20.000Z</time>
            </trkpt>
            <trkpt lat="40.918274" lon="-8.51708">
                <ele>176.3</ele>
                <time>2020-11-30T17:02:21.000Z</time>
            </trkpt>
            <trkpt lat="40.918276" lon="-8.517115">
                <ele>176.1</ele>
                <time>2020-11-30T17:02:22.000Z</time>
            </trkpt>
            <trkpt lat="40.918277" lon="-8.517149">
                <ele>176.0</ele>
                <time>2020-11-30T17:02:23.000Z</time>
            </trkpt>
            <trkpt lat="40.918279" lon="-8.517183">
                <ele>175.9</ele>
                <time>2020-11-30T17:02:24.000Z</time>
            </trkpt>
            <trkpt lat="40.918281" lon="-8.517216">
                <ele>175.8</ele>
                <time>2020-11-30T17:02:25.000Z</time>
            </trkpt>
            <trkpt lat="40.918283" lon="-8.517249">
                <ele>175.7</ele>
                <time>2020-11-30T17:02:26.000Z</time>
            </trkpt>
            <trkpt lat="40.918286" lon="-8.517281">
                <ele>175.5</ele>
                <time>2020-11-30T17:02:27.000Z</time>
            </trkpt>
            <trkpt lat="40.918288" lon="-8.517313">
                <ele>175.4</ele>
                <time>2020-11-30T17:02:28.000Z</time>
            </trkpt>
            <trkpt lat="40.918291" lon="-8.517345">
                <ele>175.3</ele>
                <time>2020-11-30T17:02:29.000Z</time>
            </trkpt>
            <trkpt lat="40.918294" lon="-8.517377">
                <ele>175.2</ele>
                <time>2020-11-30T17:02:30.000Z</time>
            </trkpt>
            <trkpt lat="40.918297" lon="-8.517409">
                <ele>175.1</ele>
                <time>2020-11-30T17:02:31.000Z</time>
            </trkpt>
            <trkpt lat="40.9183" lon="-8.517441">
                <ele>175.0</ele>
                <time>2020-11-30T17:02:32.000Z</time>
            </trkpt>
            <trkpt lat="40.918302" lon="-8.517473">
                <ele>174.9</ele>
                <time>2020-11-30T17:02:33.000Z</time>
            </trkpt>
            <trkpt lat="40.918305" lon="-8.517506">
                <ele>174.8</ele>
                <time>2020-11-30T17:02:34.000Z</time>
            </trkpt>
            <trkpt lat="40.918307" lon="-8.51754">
                <ele>174.5</ele>
                <time>2020-11-30T17:02:35.000Z</time>
            </trkpt>
            <trkpt lat="40.918309" lon="-8.517574">
                <ele>174.1</ele>
                <time>2020-11-30T17:02:36.000Z</time>
            </trkpt>
            <trkpt lat="40.918311" lon="-8.51761">
                <ele>173.8</ele>
                <time>2020-11-30T17:02:37.000Z</time>
            </trkpt>
            <trkpt lat="40.918312" lon="-8.517646">
                <ele>173.5</ele>
                <time>2020-11-30T17:02:38.000Z</time>
            </trkpt>
            <trkpt lat="40.918313" lon="-8.517684">
                <ele>173.1</ele>
                <time>2020-11-30T17:02:39.000Z</time>
            </trkpt>
            <trkpt lat="40.918314" lon="-8.517722">
                <ele>172.8</ele>
                <time>2020-11-30T17:02:40.000Z</time>
            </trkpt>
            <trkpt lat="40.918314" lon="-8.517761">
                <ele>172.4</ele>
                <time>2020-11-30T17:02:41.000Z</time>
            </trkpt>
            <trkpt lat="40.918313" lon="-8.517801">
                <ele>172.0</ele>
                <time>2020-11-30T17:02:42.000Z</time>
            </trkpt>
            <trkpt lat="40.918313" lon="-8.517841">
                <ele>171.6</ele>
                <time>2020-11-30T17:02:43.000Z</time>
            </trkpt>
            <trkpt lat="40.918312" lon="-8.517882">
                <ele>171.2</ele>
                <time>2020-11-30T17:02:44.000Z</time>
            </trkpt>
            <trkpt lat="40.91831" lon="-8.517923">
                <ele>170.8</ele>
                <time>2020-11-30T17:02:45.000Z</time>
            </trkpt>
            <trkpt lat="40.918308" lon="-8.517964">
                <ele>170.4</ele>
                <time>2020-11-30T17:02:46.000Z</time>
            </trkpt>
            <trkpt lat="40.918306" lon="-8.518006">
                <ele>170.0</ele>
                <time>2020-11-30T17:02:47.000Z</time>
            </trkpt>
            <trkpt lat="40.918304" lon="-8.518048">
                <ele>169.6</ele>
                <time>2020-11-30T17:02:48.000Z</time>
            </trkpt>
            <trkpt lat="40.9183" lon="-8.518091">
                <ele>169.2</ele>
                <time>2020-11-30T17:02:49.000Z</time>
            </trkpt>
            <trkpt lat="40.918297" lon="-8.518133">
                <ele>168.8</ele>
                <time>2020-11-30T17:02:50.000Z</time>
            </trkpt>
            <trkpt lat="40.918293" lon="-8.518176">
                <ele>168.3</ele>
                <time>2020-11-30T17:02:51.000Z</time>
            </trkpt>
            <trkpt lat="40.918288" lon="-8.518218">
                <ele>167.9</ele>
                <time>2020-11-30T17:02:52.000Z</time>
            </trkpt>
            <trkpt lat="40.918283" lon="-8.51826">
                <ele>167.5</ele>
                <time>2020-11-30T17:02:53.000Z</time>
            </trkpt>
            <trkpt lat="40.918278" lon="-8.518303">
                <ele>167.1</ele>
                <time>2020-11-30T17:02:54.000Z</time>
            </trkpt>
            <trkpt lat="40.918271" lon="-8.518344">
                <ele>166.8</ele>
                <time>2020-11-30T17:02:55.000Z</time>
            </trkpt>
            <trkpt lat="40.918265" lon="-8.518386">
                <ele>166.8</ele>
                <time>2020-11-30T17:02:56.000Z</time>
            </trkpt>
            <trkpt lat="40.918257" lon="-8.518427">
                <ele>166.9</ele>
                <time>2020-11-30T17:02:57.000Z</time>
            </trkpt>
            <trkpt lat="40.91825" lon="-8.518468">
                <ele>166.9</ele>
                <time>2020-11-30T17:02:58.000Z</time>
            </trkpt>
            <trkpt lat="40.918241" lon="-8.518509">
                <ele>166.9</ele>
                <time>2020-11-30T17:02:59.000Z</time>
            </trkpt>
            <trkpt lat="40.918233" lon="-8.518549">
                <ele>167.0</ele>
                <time>2020-11-30T17:03:00.000Z</time>
            </trkpt>
            <trkpt lat="40.918223" lon="-8.518589">
                <ele>167.0</ele>
                <time>2020-11-30T17:03:01.000Z</time>
            </trkpt>
            <trkpt lat="40.918214" lon="-8.518628">
                <ele>167.1</ele>
                <time>2020-11-30T17:03:02.000Z</time>
            </trkpt>
            <trkpt lat="40.918205" lon="-8.518667">
                <ele>167.1</ele>
                <time>2020-11-30T17:03:03.000Z</time>
            </trkpt>
            <trkpt lat="40.918195" lon="-8.518706">
                <ele>167.2</ele>
                <time>2020-11-30T17:03:04.000Z</time>
            </trkpt>
            <trkpt lat="40.918186" lon="-8.518745">
                <ele>167.2</ele>
                <time>2020-11-30T17:03:05.000Z</time>
            </trkpt>
            <trkpt lat="40.918177" lon="-8.518783">
                <ele>167.3</ele>
                <time>2020-11-30T17:03:06.000Z</time>
            </trkpt>
            <trkpt lat="40.918168" lon="-8.518821">
                <ele>167.3</ele>
                <time>2020-11-30T17:03:07.000Z</time>
            </trkpt>
            <trkpt lat="40.918159" lon="-8.518859">
                <ele>167.4</ele>
                <time>2020-11-30T17:03:08.000Z</time>
            </trkpt>
            <trkpt lat="40.918151" lon="-8.518897">
                <ele>167.5</ele>
                <time>2020-11-30T17:03:09.000Z</time>
            </trkpt>
            <trkpt lat="40.918143" lon="-8.518935">
                <ele>167.5</ele>
                <time>2020-11-30T17:03:10.000Z</time>
            </trkpt>
            <trkpt lat="40.918136" lon="-8.518972">
                <ele>167.6</ele>
                <time>2020-11-30T17:03:11.000Z</time>
            </trkpt>
            <trkpt lat="40.918129" lon="-8.519009">
                <ele>167.7</ele>
                <time>2020-11-30T17:03:12.000Z</time>
            </trkpt>
            <trkpt lat="40.918122" lon="-8.519045">
                <ele>167.7</ele>
                <time>2020-11-30T17:03:13.000Z</time>
            </trkpt>
            <trkpt lat="40.918116" lon="-8.519081">
                <ele>167.8</ele>
                <time>2020-11-30T17:03:14.000Z</time>
            </trkpt>
            <trkpt lat="40.91811" lon="-8.519117">
                <ele>167.9</ele>
                <time>2020-11-30T17:03:15.000Z</time>
            </trkpt>
            <trkpt lat="40.918104" lon="-8.519152">
                <ele>168.0</ele>
                <time>2020-11-30T17:03:16.000Z</time>
            </trkpt>
            <trkpt lat="40.918099" lon="-8.519186">
                <ele>168.2</ele>
                <time>2020-11-30T17:03:17.000Z</time>
            </trkpt>
            <trkpt lat="40.918094" lon="-8.51922">
                <ele>168.4</ele>
                <time>2020-11-30T17:03:18.000Z</time>
            </trkpt>
            <trkpt lat="40.91809" lon="-8.519253">
                <ele>168.7</ele>
                <time>2020-11-30T17:03:19.000Z</time>
            </trkpt>
            <trkpt lat="40.918086" lon="-8.519286">
                <ele>169.0</ele>
                <time>2020-11-30T17:03:20.000Z</time>
            </trkpt>
            <trkpt lat="40.918082" lon="-8.519318">
                <ele>169.2</ele>
                <time>2020-11-30T17:03:21.000Z</time>
            </trkpt>
            <trkpt lat="40.918078" lon="-8.51935">
                <ele>169.5</ele>
                <time>2020-11-30T17:03:22.000Z</time>
            </trkpt>
            <trkpt lat="40.918073" lon="-8.519381">
                <ele>169.7</ele>
                <time>2020-11-30T17:03:23.000Z</time>
            </trkpt>
            <trkpt lat="40.918069" lon="-8.519413">
                <ele>170.0</ele>
                <time>2020-11-30T17:03:24.000Z</time>
            </trkpt>
            <trkpt lat="40.918064" lon="-8.519444">
                <ele>170.2</ele>
                <time>2020-11-30T17:03:25.000Z</time>
            </trkpt>
            <trkpt lat="40.918058" lon="-8.519474">
                <ele>170.5</ele>
                <time>2020-11-30T17:03:26.000Z</time>
            </trkpt>
            <trkpt lat="40.918052" lon="-8.519505">
                <ele>170.7</ele>
                <time>2020-11-30T17:03:27.000Z</time>
            </trkpt>
            <trkpt lat="40.918045" lon="-8.519536">
                <ele>170.9</ele>
                <time>2020-11-30T17:03:28.000Z</time>
            </trkpt>
            <trkpt lat="40.918038" lon="-8.519566">
                <ele>171.2</ele>
                <time>2020-11-30T17:03:29.000Z</time>
            </trkpt>
            <trkpt lat="40.91803" lon="-8.519597">
                <ele>171.4</ele>
                <time>2020-11-30T17:03:30.000Z</time>
            </trkpt>
            <trkpt lat="40.918022" lon="-8.519627">
                <ele>171.7</ele>
                <time>2020-11-30T17:03:31.000Z</time>
            </trkpt>
            <trkpt lat="40.918014" lon="-8.519657">
                <ele>171.9</ele>
                <time>2020-11-30T17:03:32.000Z</time>
            </trkpt>
            <trkpt lat="40.918006" lon="-8.519687">
                <ele>172.1</ele>
                <time>2020-11-30T17:03:33.000Z</time>
            </trkpt>
            <trkpt lat="40.917998" lon="-8.519717">
                <ele>172.4</ele>
                <time>2020-11-30T17:03:34.000Z</time>
            </trkpt>
            <trkpt lat="40.917991" lon="-8.519747">
                <ele>172.6</ele>
                <time>2020-11-30T17:03:35.000Z</time>
            </trkpt>
            <trkpt lat="40.917984" lon="-8.519777">
                <ele>172.8</ele>
                <time>2020-11-30T17:03:36.000Z</time>
            </trkpt>
            <trkpt lat="40.917977" lon="-8.519806">
                <ele>173.0</ele>
                <time>2020-11-30T17:03:37.000Z</time>
            </trkpt>
            <trkpt lat="40.917972" lon="-8.519835">
                <ele>173.3</ele>
                <time>2020-11-30T17:03:38.000Z</time>
            </trkpt>
            <trkpt lat="40.917967" lon="-8.519864">
                <ele>173.5</ele>
                <time>2020-11-30T17:03:39.000Z</time>
            </trkpt>
            <trkpt lat="40.917964" lon="-8.519893">
                <ele>173.7</ele>
                <time>2020-11-30T17:03:40.000Z</time>
            </trkpt>
            <trkpt lat="40.917961" lon="-8.519922">
                <ele>173.9</ele>
                <time>2020-11-30T17:03:41.000Z</time>
            </trkpt>
            <trkpt lat="40.917959" lon="-8.519951">
                <ele>174.2</ele>
                <time>2020-11-30T17:03:42.000Z</time>
            </trkpt>
            <trkpt lat="40.917958" lon="-8.51998">
                <ele>174.4</ele>
                <time>2020-11-30T17:03:43.000Z</time>
            </trkpt>
            <trkpt lat="40.917957" lon="-8.520009">
                <ele>174.6</ele>
                <time>2020-11-30T17:03:44.000Z</time>
            </trkpt>
            <trkpt lat="40.917957" lon="-8.520039">
                <ele>174.7</ele>
                <time>2020-11-30T17:03:45.000Z</time>
            </trkpt>
            <trkpt lat="40.917957" lon="-8.520069">
                <ele>174.9</ele>
                <time>2020-11-30T17:03:46.000Z</time>
            </trkpt>
            <trkpt lat="40.917958" lon="-8.5201">
                <ele>175.0</ele>
                <time>2020-11-30T17:03:47.000Z</time>
            </trkpt>
            <trkpt lat="40.917959" lon="-8.520132">
                <ele>175.2</ele>
                <time>2020-11-30T17:03:48.000Z</time>
            </trkpt>
            <trkpt lat="40.917961" lon="-8.520164">
                <ele>175.3</ele>
                <time>2020-11-30T17:03:49.000Z</time>
            </trkpt>
            <trkpt lat="40.917962" lon="-8.520197">
                <ele>175.5</ele>
                <time>2020-11-30T17:03:50.000Z</time>
            </trkpt>
            <trkpt lat="40.917964" lon="-8.520231">
                <ele>175.7</ele>
                <time>2020-11-30T17:03:51.000Z</time>
            </trkpt>
            <trkpt lat="40.917967" lon="-8.520264">
                <ele>175.8</ele>
                <time>2020-11-30T17:03:52.000Z</time>
            </trkpt>
            <trkpt lat="40.91797" lon="-8.520298">
                <ele>176.0</ele>
                <time>2020-11-30T17:03:53.000Z</time>
            </trkpt>
            <trkpt lat="40.917973" lon="-8.520333">
                <ele>176.2</ele>
                <time>2020-11-30T17:03:54.000Z</time>
            </trkpt>
            <trkpt lat="40.917976" lon="-8.520366">
                <ele>176.3</ele>
                <time>2020-11-30T17:03:55.000Z</time>
            </trkpt>
            <trkpt lat="40.91798" lon="-8.5204">
                <ele>176.5</ele>
                <time>2020-11-30T17:03:56.000Z</time>
            </trkpt>
            <trkpt lat="40.917984" lon="-8.520433">
                <ele>176.7</ele>
                <time>2020-11-30T17:03:57.000Z</time>
            </trkpt>
            <trkpt lat="40.917988" lon="-8.520466">
                <ele>176.8</ele>
                <time>2020-11-30T17:03:58.000Z</time>
            </trkpt>
            <trkpt lat="40.917993" lon="-8.520498">
                <ele>177.0</ele>
                <time>2020-11-30T17:03:59.000Z</time>
            </trkpt>
            <trkpt lat="40.917997" lon="-8.52053">
                <ele>177.1</ele>
                <time>2020-11-30T17:04:00.000Z</time>
            </trkpt>
            <trkpt lat="40.918" lon="-8.520562">
                <ele>177.3</ele>
                <time>2020-11-30T17:04:01.000Z</time>
            </trkpt>
            <trkpt lat="40.918002" lon="-8.520594">
                <ele>177.5</ele>
                <time>2020-11-30T17:04:02.000Z</time>
            </trkpt>
            <trkpt lat="40.918002" lon="-8.520627">
                <ele>177.6</ele>
                <time>2020-11-30T17:04:03.000Z</time>
            </trkpt>
            <trkpt lat="40.917998" lon="-8.520662">
                <ele>177.8</ele>
                <time>2020-11-30T17:04:04.000Z</time>
            </trkpt>
            <trkpt lat="40.917993" lon="-8.520697">
                <ele>177.9</ele>
                <time>2020-11-30T17:04:05.000Z</time>
            </trkpt>
            <trkpt lat="40.917985" lon="-8.520732">
                <ele>178.1</ele>
                <time>2020-11-30T17:04:06.000Z</time>
            </trkpt>
            <trkpt lat="40.917975" lon="-8.520766">
                <ele>178.2</ele>
                <time>2020-11-30T17:04:07.000Z</time>
            </trkpt>
            <trkpt lat="40.917964" lon="-8.520799">
                <ele>178.4</ele>
                <time>2020-11-30T17:04:08.000Z</time>
            </trkpt>
            <trkpt lat="40.917951" lon="-8.520829">
                <ele>178.5</ele>
                <time>2020-11-30T17:04:09.000Z</time>
            </trkpt>
            <trkpt lat="40.917938" lon="-8.520858">
                <ele>178.6</ele>
                <time>2020-11-30T17:04:10.000Z</time>
            </trkpt>
            <trkpt lat="40.917925" lon="-8.520885">
                <ele>178.7</ele>
                <time>2020-11-30T17:04:11.000Z</time>
            </trkpt>
            <trkpt lat="40.91791" lon="-8.52091">
                <ele>178.7</ele>
                <time>2020-11-30T17:04:12.000Z</time>
            </trkpt>
            <trkpt lat="40.917895" lon="-8.520935">
                <ele>178.8</ele>
                <time>2020-11-30T17:04:13.000Z</time>
            </trkpt>
            <trkpt lat="40.91788" lon="-8.520958">
                <ele>178.8</ele>
                <time>2020-11-30T17:04:14.000Z</time>
            </trkpt>
            <trkpt lat="40.917865" lon="-8.520982">
                <ele>178.9</ele>
                <time>2020-11-30T17:04:15.000Z</time>
            </trkpt>
            <trkpt lat="40.91785" lon="-8.521006">
                <ele>179.0</ele>
                <time>2020-11-30T17:04:16.000Z</time>
            </trkpt>
            <trkpt lat="40.917835" lon="-8.52103">
                <ele>179.1</ele>
                <time>2020-11-30T17:04:17.000Z</time>
            </trkpt>
            <trkpt lat="40.91782" lon="-8.521055">
                <ele>179.1</ele>
                <time>2020-11-30T17:04:18.000Z</time>
            </trkpt>
            <trkpt lat="40.917806" lon="-8.521081">
                <ele>179.2</ele>
                <time>2020-11-30T17:04:19.000Z</time>
            </trkpt>
            <trkpt lat="40.917793" lon="-8.521108">
                <ele>179.3</ele>
                <time>2020-11-30T17:04:20.000Z</time>
            </trkpt>
            <trkpt lat="40.91778" lon="-8.521137">
                <ele>179.4</ele>
                <time>2020-11-30T17:04:21.000Z</time>
            </trkpt>
            <trkpt lat="40.917768" lon="-8.521167">
                <ele>179.5</ele>
                <time>2020-11-30T17:04:22.000Z</time>
            </trkpt>
            <trkpt lat="40.917757" lon="-8.521197">
                <ele>179.7</ele>
                <time>2020-11-30T17:04:23.000Z</time>
            </trkpt>
            <trkpt lat="40.917746" lon="-8.521228">
                <ele>179.8</ele>
                <time>2020-11-30T17:04:24.000Z</time>
            </trkpt>
            <trkpt lat="40.917735" lon="-8.521259">
                <ele>179.9</ele>
                <time>2020-11-30T17:04:25.000Z</time>
            </trkpt>
            <trkpt lat="40.917725" lon="-8.521291">
                <ele>180.0</ele>
                <time>2020-11-30T17:04:26.000Z</time>
            </trkpt>
            <trkpt lat="40.917716" lon="-8.521322">
                <ele>180.1</ele>
                <time>2020-11-30T17:04:27.000Z</time>
            </trkpt>
            <trkpt lat="40.917707" lon="-8.521353">
                <ele>180.3</ele>
                <time>2020-11-30T17:04:28.000Z</time>
            </trkpt>
            <trkpt lat="40.917698" lon="-8.521383">
                <ele>180.4</ele>
                <time>2020-11-30T17:04:29.000Z</time>
            </trkpt>
            <trkpt lat="40.917689" lon="-8.521413">
                <ele>180.5</ele>
                <time>2020-11-30T17:04:30.000Z</time>
            </trkpt>
            <trkpt lat="40.917681" lon="-8.521442">
                <ele>180.7</ele>
                <time>2020-11-30T17:04:31.000Z</time>
            </trkpt>
            <trkpt lat="40.917673" lon="-8.521471">
                <ele>180.8</ele>
                <time>2020-11-30T17:04:32.000Z</time>
            </trkpt>
            <trkpt lat="40.917665" lon="-8.5215">
                <ele>180.9</ele>
                <time>2020-11-30T17:04:33.000Z</time>
            </trkpt>
            <trkpt lat="40.917657" lon="-8.521529">
                <ele>181.1</ele>
                <time>2020-11-30T17:04:34.000Z</time>
            </trkpt>
            <trkpt lat="40.917648" lon="-8.521559">
                <ele>181.2</ele>
                <time>2020-11-30T17:04:35.000Z</time>
            </trkpt>
            <trkpt lat="40.917639" lon="-8.521589">
                <ele>181.3</ele>
                <time>2020-11-30T17:04:36.000Z</time>
            </trkpt>
            <trkpt lat="40.91763" lon="-8.521619">
                <ele>181.5</ele>
                <time>2020-11-30T17:04:37.000Z</time>
            </trkpt>
            <trkpt lat="40.91762" lon="-8.521649">
                <ele>181.6</ele>
                <time>2020-11-30T17:04:38.000Z</time>
            </trkpt>
            <trkpt lat="40.917609" lon="-8.521679">
                <ele>181.7</ele>
                <time>2020-11-30T17:04:39.000Z</time>
            </trkpt>
            <trkpt lat="40.917597" lon="-8.521708">
                <ele>181.7</ele>
                <time>2020-11-30T17:04:40.000Z</time>
            </trkpt>
            <trkpt lat="40.917586" lon="-8.521737">
                <ele>181.7</ele>
                <time>2020-11-30T17:04:41.000Z</time>
            </trkpt>
            <trkpt lat="40.917577" lon="-8.521766">
                <ele>181.7</ele>
                <time>2020-11-30T17:04:42.000Z</time>
            </trkpt>
            <trkpt lat="40.917571" lon="-8.521795">
                <ele>181.7</ele>
                <time>2020-11-30T17:04:43.000Z</time>
            </trkpt>
            <trkpt lat="40.917571" lon="-8.521826">
                <ele>181.6</ele>
                <time>2020-11-30T17:04:44.000Z</time>
            </trkpt>
            <trkpt lat="40.917576" lon="-8.521858">
                <ele>181.6</ele>
                <time>2020-11-30T17:04:45.000Z</time>
            </trkpt>
            <trkpt lat="40.917588" lon="-8.52189">
                <ele>181.5</ele>
                <time>2020-11-30T17:04:46.000Z</time>
            </trkpt>
            <trkpt lat="40.917604" lon="-8.521922">
                <ele>181.4</ele>
                <time>2020-11-30T17:04:47.000Z</time>
            </trkpt>
            <trkpt lat="40.917624" lon="-8.521951">
                <ele>181.4</ele>
                <time>2020-11-30T17:04:48.000Z</time>
            </trkpt>
            <trkpt lat="40.917646" lon="-8.521978">
                <ele>181.3</ele>
                <time>2020-11-30T17:04:49.000Z</time>
            </trkpt>
            <trkpt lat="40.91767" lon="-8.522">
                <ele>181.2</ele>
                <time>2020-11-30T17:04:50.000Z</time>
            </trkpt>
            <trkpt lat="40.917695" lon="-8.522018">
                <ele>181.1</ele>
                <time>2020-11-30T17:04:51.000Z</time>
            </trkpt>
            <trkpt lat="40.91772" lon="-8.522033">
                <ele>181.0</ele>
                <time>2020-11-30T17:04:52.000Z</time>
            </trkpt>
            <trkpt lat="40.917746" lon="-8.522045">
                <ele>181.0</ele>
                <time>2020-11-30T17:04:53.000Z</time>
            </trkpt>
            <trkpt lat="40.917771" lon="-8.522056">
                <ele>180.9</ele>
                <time>2020-11-30T17:04:54.000Z</time>
            </trkpt>
            <trkpt lat="40.917797" lon="-8.522064">
                <ele>180.8</ele>
                <time>2020-11-30T17:04:55.000Z</time>
            </trkpt>
            <trkpt lat="40.917822" lon="-8.522072">
                <ele>180.7</ele>
                <time>2020-11-30T17:04:56.000Z</time>
            </trkpt>
            <trkpt lat="40.917846" lon="-8.522079">
                <ele>180.7</ele>
                <time>2020-11-30T17:04:57.000Z</time>
            </trkpt>
            <trkpt lat="40.91787" lon="-8.522086">
                <ele>180.6</ele>
                <time>2020-11-30T17:04:58.000Z</time>
            </trkpt>
            <trkpt lat="40.917893" lon="-8.522092">
                <ele>180.5</ele>
                <time>2020-11-30T17:04:59.000Z</time>
            </trkpt>
            <trkpt lat="40.917916" lon="-8.522099">
                <ele>180.5</ele>
                <time>2020-11-30T17:05:00.000Z</time>
            </trkpt>
            <trkpt lat="40.917938" lon="-8.522106">
                <ele>180.4</ele>
                <time>2020-11-30T17:05:01.000Z</time>
            </trkpt>
            <trkpt lat="40.917961" lon="-8.522113">
                <ele>180.4</ele>
                <time>2020-11-30T17:05:02.000Z</time>
            </trkpt>
            <trkpt lat="40.917983" lon="-8.52212">
                <ele>180.3</ele>
                <time>2020-11-30T17:05:03.000Z</time>
            </trkpt>
            <trkpt lat="40.918005" lon="-8.522127">
                <ele>180.2</ele>
                <time>2020-11-30T17:05:04.000Z</time>
            </trkpt>
            <trkpt lat="40.918029" lon="-8.522133">
                <ele>180.2</ele>
                <time>2020-11-30T17:05:05.000Z</time>
            </trkpt>
            <trkpt lat="40.918052" lon="-8.522139">
                <ele>180.1</ele>
                <time>2020-11-30T17:05:06.000Z</time>
            </trkpt>
            <trkpt lat="40.918076" lon="-8.522145">
                <ele>180.0</ele>
                <time>2020-11-30T17:05:07.000Z</time>
            </trkpt>
            <trkpt lat="40.9181" lon="-8.522153">
                <ele>180.0</ele>
                <time>2020-11-30T17:05:08.000Z</time>
            </trkpt>
            <trkpt lat="40.918124" lon="-8.522164">
                <ele>179.9</ele>
                <time>2020-11-30T17:05:09.000Z</time>
            </trkpt>
            <trkpt lat="40.918146" lon="-8.522179">
                <ele>179.8</ele>
                <time>2020-11-30T17:05:10.000Z</time>
            </trkpt>
            <trkpt lat="40.918167" lon="-8.522198">
                <ele>179.8</ele>
                <time>2020-11-30T17:05:11.000Z</time>
            </trkpt>
            <trkpt lat="40.918186" lon="-8.522222">
                <ele>179.7</ele>
                <time>2020-11-30T17:05:12.000Z</time>
            </trkpt>
            <trkpt lat="40.918202" lon="-8.522249">
                <ele>179.6</ele>
                <time>2020-11-30T17:05:13.000Z</time>
            </trkpt>
            <trkpt lat="40.918215" lon="-8.522278">
                <ele>179.6</ele>
                <time>2020-11-30T17:05:14.000Z</time>
            </trkpt>
            <trkpt lat="40.918225" lon="-8.52231">
                <ele>179.5</ele>
                <time>2020-11-30T17:05:15.000Z</time>
            </trkpt>
            <trkpt lat="40.91823" lon="-8.522343">
                <ele>179.4</ele>
                <time>2020-11-30T17:05:16.000Z</time>
            </trkpt>
            <trkpt lat="40.918231" lon="-8.522376">
                <ele>179.4</ele>
                <time>2020-11-30T17:05:17.000Z</time>
            </trkpt>
            <trkpt lat="40.91823" lon="-8.522411">
                <ele>179.4</ele>
                <time>2020-11-30T17:05:18.000Z</time>
            </trkpt>
            <trkpt lat="40.918226" lon="-8.522445">
                <ele>179.3</ele>
                <time>2020-11-30T17:05:19.000Z</time>
            </trkpt>
            <trkpt lat="40.918222" lon="-8.522479">
                <ele>179.3</ele>
                <time>2020-11-30T17:05:20.000Z</time>
            </trkpt>
            <trkpt lat="40.918217" lon="-8.522513">
                <ele>179.3</ele>
                <time>2020-11-30T17:05:21.000Z</time>
            </trkpt>
            <trkpt lat="40.918212" lon="-8.522546">
                <ele>179.4</ele>
                <time>2020-11-30T17:05:22.000Z</time>
            </trkpt>
            <trkpt lat="40.918206" lon="-8.522579">
                <ele>179.5</ele>
                <time>2020-11-30T17:05:23.000Z</time>
            </trkpt>
            <trkpt lat="40.918201" lon="-8.522609">
                <ele>179.6</ele>
                <time>2020-11-30T17:05:24.000Z</time>
            </trkpt>
            <trkpt lat="40.918195" lon="-8.522639">
                <ele>179.7</ele>
                <time>2020-11-30T17:05:25.000Z</time>
            </trkpt>
            <trkpt lat="40.918189" lon="-8.522666">
                <ele>179.8</ele>
                <time>2020-11-30T17:05:26.000Z</time>
            </trkpt>
            <trkpt lat="40.918182" lon="-8.522691">
                <ele>179.9</ele>
                <time>2020-11-30T17:05:27.000Z</time>
            </trkpt>
            <trkpt lat="40.918175" lon="-8.522714">
                <ele>180.0</ele>
                <time>2020-11-30T17:05:28.000Z</time>
            </trkpt>
            <trkpt lat="40.918168" lon="-8.522733">
                <ele>180.0</ele>
                <time>2020-11-30T17:05:29.000Z</time>
            </trkpt>
            <trkpt lat="40.91816" lon="-8.52275">
                <ele>180.1</ele>
                <time>2020-11-30T17:05:30.000Z</time>
            </trkpt>
            <trkpt lat="40.918152" lon="-8.522763">
                <ele>180.1</ele>
                <time>2020-11-30T17:05:31.000Z</time>
            </trkpt>
            <trkpt lat="40.918144" lon="-8.522773">
                <ele>180.1</ele>
                <time>2020-11-30T17:05:32.000Z</time>
            </trkpt>
            <trkpt lat="40.918135" lon="-8.52278">
                <ele>180.2</ele>
                <time>2020-11-30T17:05:33.000Z</time>
            </trkpt>
            <trkpt lat="40.918126" lon="-8.522785">
                <ele>180.2</ele>
                <time>2020-11-30T17:05:34.000Z</time>
            </trkpt>
            <trkpt lat="40.918117" lon="-8.522788">
                <ele>180.2</ele>
                <time>2020-11-30T17:05:35.000Z</time>
            </trkpt>
            <trkpt lat="40.918107" lon="-8.52279">
                <ele>180.2</ele>
                <time>2020-11-30T17:05:36.000Z</time>
            </trkpt>
            <trkpt lat="40.918097" lon="-8.52279">
                <ele>180.2</ele>
                <time>2020-11-30T17:05:37.000Z</time>
            </trkpt>
            <trkpt lat="40.918087" lon="-8.52279">
                <ele>180.2</ele>
                <time>2020-11-30T17:05:38.000Z</time>
            </trkpt>
            <trkpt lat="40.918077" lon="-8.52279">
                <ele>180.2</ele>
                <time>2020-11-30T17:05:39.000Z</time>
            </trkpt>
            <trkpt lat="40.918066" lon="-8.52279">
                <ele>180.2</ele>
                <time>2020-11-30T17:05:40.000Z</time>
            </trkpt>
            <trkpt lat="40.918056" lon="-8.522791">
                <ele>180.2</ele>
                <time>2020-11-30T17:05:41.000Z</time>
            </trkpt>
            <trkpt lat="40.918045" lon="-8.522792">
                <ele>180.3</ele>
                <time>2020-11-30T17:05:42.000Z</time>
            </trkpt>
            <trkpt lat="40.918033" lon="-8.522795">
                <ele>180.3</ele>
                <time>2020-11-30T17:05:43.000Z</time>
            </trkpt>
            <trkpt lat="40.918022" lon="-8.522798">
                <ele>180.3</ele>
                <time>2020-11-30T17:05:44.000Z</time>
            </trkpt>
            <trkpt lat="40.91801" lon="-8.522802">
                <ele>180.3</ele>
                <time>2020-11-30T17:05:45.000Z</time>
            </trkpt>
            <trkpt lat="40.917998" lon="-8.522807">
                <ele>180.3</ele>
                <time>2020-11-30T17:05:46.000Z</time>
            </trkpt>
            <trkpt lat="40.917985" lon="-8.522812">
                <ele>180.3</ele>
                <time>2020-11-30T17:05:47.000Z</time>
            </trkpt>
            <trkpt lat="40.917973" lon="-8.522817">
                <ele>180.3</ele>
                <time>2020-11-30T17:05:48.000Z</time>
            </trkpt>
            <trkpt lat="40.917959" lon="-8.522823">
                <ele>180.4</ele>
                <time>2020-11-30T17:05:49.000Z</time>
            </trkpt>
            <trkpt lat="40.917945" lon="-8.52283">
                <ele>180.4</ele>
                <time>2020-11-30T17:05:50.000Z</time>
            </trkpt>
            <trkpt lat="40.91793" lon="-8.522836">
                <ele>180.4</ele>
                <time>2020-11-30T17:05:51.000Z</time>
            </trkpt>
            <trkpt lat="40.917915" lon="-8.522842">
                <ele>180.4</ele>
                <time>2020-11-30T17:05:52.000Z</time>
            </trkpt>
            <trkpt lat="40.9179" lon="-8.522848">
                <ele>180.4</ele>
                <time>2020-11-30T17:05:53.000Z</time>
            </trkpt>
            <trkpt lat="40.917885" lon="-8.522854">
                <ele>180.4</ele>
                <time>2020-11-30T17:05:54.000Z</time>
            </trkpt>
            <trkpt lat="40.917871" lon="-8.522859">
                <ele>180.4</ele>
                <time>2020-11-30T17:05:55.000Z</time>
            </trkpt>
            <trkpt lat="40.917857" lon="-8.522863">
                <ele>180.5</ele>
                <time>2020-11-30T17:05:56.000Z</time>
            </trkpt>
            <trkpt lat="40.917845" lon="-8.522865">
                <ele>180.5</ele>
                <time>2020-11-30T17:05:57.000Z</time>
            </trkpt>
            <trkpt lat="40.917835" lon="-8.522868">
                <ele>180.5</ele>
                <time>2020-11-30T17:05:58.000Z</time>
            </trkpt>
            <trkpt lat="40.917825" lon="-8.522871">
                <ele>180.5</ele>
                <time>2020-11-30T17:05:59.000Z</time>
            </trkpt>
            <trkpt lat="40.917816" lon="-8.522877">
                <ele>180.5</ele>
                <time>2020-11-30T17:06:00.000Z</time>
            </trkpt>
            <trkpt lat="40.917806" lon="-8.522886">
                <ele>180.5</ele>
                <time>2020-11-30T17:06:01.000Z</time>
            </trkpt>
            <trkpt lat="40.917797" lon="-8.522899">
                <ele>180.5</ele>
                <time>2020-11-30T17:06:02.000Z</time>
            </trkpt>
            <trkpt lat="40.917788" lon="-8.522915">
                <ele>180.5</ele>
                <time>2020-11-30T17:06:03.000Z</time>
            </trkpt>
            <trkpt lat="40.917781" lon="-8.522933">
                <ele>180.5</ele>
                <time>2020-11-30T17:06:04.000Z</time>
            </trkpt>
            <trkpt lat="40.917775" lon="-8.522951">
                <ele>180.5</ele>
                <time>2020-11-30T17:06:05.000Z</time>
            </trkpt>
            <trkpt lat="40.917773" lon="-8.52297">
                <ele>180.5</ele>
                <time>2020-11-30T17:06:06.000Z</time>
            </trkpt>
            <trkpt lat="40.917775" lon="-8.522987">
                <ele>180.5</ele>
                <time>2020-11-30T17:06:07.000Z</time>
            </trkpt>
            <trkpt lat="40.917779" lon="-8.523003">
                <ele>180.5</ele>
                <time>2020-11-30T17:06:08.000Z</time>
            </trkpt>
            <trkpt lat="40.917785" lon="-8.523017">
                <ele>180.5</ele>
                <time>2020-11-30T17:06:09.000Z</time>
            </trkpt>
            <trkpt lat="40.917791" lon="-8.523028">
                <ele>180.6</ele>
                <time>2020-11-30T17:06:10.000Z</time>
            </trkpt>
            <trkpt lat="40.917797" lon="-8.523037">
                <ele>180.6</ele>
                <time>2020-11-30T17:06:11.000Z</time>
            </trkpt>
            <trkpt lat="40.917801" lon="-8.523044">
                <ele>180.6</ele>
                <time>2020-11-30T17:06:12.000Z</time>
            </trkpt>
            <trkpt lat="40.917803" lon="-8.523048">
                <ele>180.6</ele>
                <time>2020-11-30T17:06:13.000Z</time>
            </trkpt>
            <trkpt lat="40.917805" lon="-8.52305">
                <ele>180.6</ele>
                <time>2020-11-30T17:06:14.000Z</time>
            </trkpt>
            <trkpt lat="40.917805" lon="-8.523051">
                <ele>180.6</ele>
                <time>2020-11-30T17:06:15.000Z</time>
            </trkpt>
            <trkpt lat="40.917805" lon="-8.523051">
                <ele>180.6</ele>
                <time>2020-11-30T17:06:16.000Z</time>
            </trkpt>
            <trkpt lat="40.917804" lon="-8.523051">
                <ele>180.6</ele>
                <time>2020-11-30T17:06:17.000Z</time>
            </trkpt>
            <trkpt lat="40.917803" lon="-8.523051">
                <ele>180.6</ele>
                <time>2020-11-30T17:06:18.000Z</time>
            </trkpt>
            <trkpt lat="40.917803" lon="-8.523051">
                <ele>180.6</ele>
                <time>2020-11-30T17:06:19.000Z</time>
            </trkpt>
            <trkpt lat="40.917803" lon="-8.523053">
                <ele>180.6</ele>
                <time>2020-11-30T17:06:20.000Z</time>
            </trkpt>
            <trkpt lat="40.917803" lon="-8.523056">
                <ele>180.6</ele>
                <time>2020-11-30T17:06:21.000Z</time>
            </trkpt>
            <trkpt lat="40.917804" lon="-8.523061">
                <ele>180.6</ele>
                <time>2020-11-30T17:06:22.000Z</time>
            </trkpt>
            <trkpt lat="40.917807" lon="-8.523068">
                <ele>180.6</ele>
                <time>2020-11-30T17:06:23.000Z</time>
            </trkpt>
            <trkpt lat="40.91781" lon="-8.523077">
                <ele>180.6</ele>
                <time>2020-11-30T17:06:24.000Z</time>
            </trkpt>
            <trkpt lat="40.917814" lon="-8.523085">
                <ele>180.6</ele>
                <time>2020-11-30T17:06:25.000Z</time>
            </trkpt>
            <trkpt lat="40.917818" lon="-8.523092">
                <ele>180.6</ele>
                <time>2020-11-30T17:06:26.000Z</time>
            </trkpt>
            <trkpt lat="40.917823" lon="-8.5231">
                <ele>180.6</ele>
                <time>2020-11-30T17:06:27.000Z</time>
            </trkpt>
            <trkpt lat="40.917828" lon="-8.523111">
                <ele>180.6</ele>
                <time>2020-11-30T17:06:28.000Z</time>
            </trkpt>
            <trkpt lat="40.917833" lon="-8.523123">
                <ele>180.6</ele>
                <time>2020-11-30T17:06:29.000Z</time>
            </trkpt>
            <trkpt lat="40.917838" lon="-8.523132">
                <ele>180.7</ele>
                <time>2020-11-30T17:06:30.000Z</time>
            </trkpt>
            <trkpt lat="40.917842" lon="-8.523138">
                <ele>180.7</ele>
                <time>2020-11-30T17:06:31.000Z</time>
            </trkpt>
            <trkpt lat="40.917845" lon="-8.523142">
                <ele>180.7</ele>
                <time>2020-11-30T17:06:32.000Z</time>
            </trkpt>
            <trkpt lat="40.917848" lon="-8.523149">
                <ele>180.7</ele>
                <time>2020-11-30T17:06:33.000Z</time>
            </trkpt>
            <trkpt lat="40.91785" lon="-8.523157">
                <ele>180.7</ele>
                <time>2020-11-30T17:06:34.000Z</time>
            </trkpt>
            <trkpt lat="40.917852" lon="-8.523168">
                <ele>180.7</ele>
                <time>2020-11-30T17:06:35.000Z</time>
            </trkpt>
            <trkpt lat="40.917854" lon="-8.523181">
                <ele>180.7</ele>
                <time>2020-11-30T17:06:36.000Z</time>
            </trkpt>
            <trkpt lat="40.917855" lon="-8.523195">
                <ele>180.7</ele>
                <time>2020-11-30T17:06:37.000Z</time>
            </trkpt>
            <trkpt lat="40.917856" lon="-8.523211">
                <ele>180.8</ele>
                <time>2020-11-30T17:06:38.000Z</time>
            </trkpt>
            <trkpt lat="40.917857" lon="-8.523228">
                <ele>180.8</ele>
                <time>2020-11-30T17:06:39.000Z</time>
            </trkpt>
            <trkpt lat="40.917857" lon="-8.523245">
                <ele>180.8</ele>
                <time>2020-11-30T17:06:40.000Z</time>
            </trkpt>
            <trkpt lat="40.917857" lon="-8.523264">
                <ele>180.8</ele>
                <time>2020-11-30T17:06:41.000Z</time>
            </trkpt>
            <trkpt lat="40.917857" lon="-8.523283">
                <ele>180.8</ele>
                <time>2020-11-30T17:06:42.000Z</time>
            </trkpt>
            <trkpt lat="40.917856" lon="-8.523302">
                <ele>180.8</ele>
                <time>2020-11-30T17:06:43.000Z</time>
            </trkpt>
            <trkpt lat="40.917855" lon="-8.523321">
                <ele>180.8</ele>
                <time>2020-11-30T17:06:44.000Z</time>
            </trkpt>
            <trkpt lat="40.917854" lon="-8.523341">
                <ele>180.9</ele>
                <time>2020-11-30T17:06:45.000Z</time>
            </trkpt>
            <trkpt lat="40.917853" lon="-8.52336">
                <ele>180.9</ele>
                <time>2020-11-30T17:06:46.000Z</time>
            </trkpt>
            <trkpt lat="40.917852" lon="-8.52338">
                <ele>180.9</ele>
                <time>2020-11-30T17:06:47.000Z</time>
            </trkpt>
            <trkpt lat="40.917851" lon="-8.523399">
                <ele>181.0</ele>
                <time>2020-11-30T17:06:48.000Z</time>
            </trkpt>
            <trkpt lat="40.91785" lon="-8.523419">
                <ele>181.0</ele>
                <time>2020-11-30T17:06:49.000Z</time>
            </trkpt>
            <trkpt lat="40.917849" lon="-8.523439">
                <ele>181.1</ele>
                <time>2020-11-30T17:06:50.000Z</time>
            </trkpt>
            <trkpt lat="40.917849" lon="-8.52346">
                <ele>181.1</ele>
                <time>2020-11-30T17:06:51.000Z</time>
            </trkpt>
            <trkpt lat="40.917848" lon="-8.523481">
                <ele>181.1</ele>
                <time>2020-11-30T17:06:52.000Z</time>
            </trkpt>
            <trkpt lat="40.917848" lon="-8.523502">
                <ele>181.2</ele>
                <time>2020-11-30T17:06:53.000Z</time>
            </trkpt>
            <trkpt lat="40.917848" lon="-8.523523">
                <ele>181.2</ele>
                <time>2020-11-30T17:06:54.000Z</time>
            </trkpt>
            <trkpt lat="40.917848" lon="-8.523545">
                <ele>181.3</ele>
                <time>2020-11-30T17:06:55.000Z</time>
            </trkpt>
            <trkpt lat="40.917849" lon="-8.523566">
                <ele>181.3</ele>
                <time>2020-11-30T17:06:56.000Z</time>
            </trkpt>
            <trkpt lat="40.917849" lon="-8.523585">
                <ele>181.4</ele>
                <time>2020-11-30T17:06:57.000Z</time>
            </trkpt>
            <trkpt lat="40.91785" lon="-8.523603">
                <ele>181.4</ele>
                <time>2020-11-30T17:06:58.000Z</time>
            </trkpt>
            <trkpt lat="40.917851" lon="-8.523618">
                <ele>181.5</ele>
                <time>2020-11-30T17:06:59.000Z</time>
            </trkpt>
            <trkpt lat="40.917851" lon="-8.523631">
                <ele>181.5</ele>
                <time>2020-11-30T17:07:00.000Z</time>
            </trkpt>
            <trkpt lat="40.917851" lon="-8.523642">
                <ele>181.5</ele>
                <time>2020-11-30T17:07:01.000Z</time>
            </trkpt>
            <trkpt lat="40.917851" lon="-8.523651">
                <ele>181.5</ele>
                <time>2020-11-30T17:07:02.000Z</time>
            </trkpt>
            <trkpt lat="40.91785" lon="-8.523659">
                <ele>181.5</ele>
                <time>2020-11-30T17:07:03.000Z</time>
            </trkpt>
            <trkpt lat="40.917849" lon="-8.523667">
                <ele>181.5</ele>
                <time>2020-11-30T17:07:04.000Z</time>
            </trkpt>
            <trkpt lat="40.917847" lon="-8.523676">
                <ele>181.6</ele>
                <time>2020-11-30T17:07:05.000Z</time>
            </trkpt>
            <trkpt lat="40.917844" lon="-8.523686">
                <ele>181.6</ele>
                <time>2020-11-30T17:07:06.000Z</time>
            </trkpt>
            <trkpt lat="40.917841" lon="-8.523696">
                <ele>181.6</ele>
                <time>2020-11-30T17:07:07.000Z</time>
            </trkpt>
            <trkpt lat="40.917837" lon="-8.523707">
                <ele>181.5</ele>
                <time>2020-11-30T17:07:08.000Z</time>
            </trkpt>
            <trkpt lat="40.917832" lon="-8.52372">
                <ele>181.5</ele>
                <time>2020-11-30T17:07:09.000Z</time>
            </trkpt>
            <trkpt lat="40.917827" lon="-8.523733">
                <ele>181.5</ele>
                <time>2020-11-30T17:07:10.000Z</time>
            </trkpt>
            <trkpt lat="40.917821" lon="-8.523747">
                <ele>181.5</ele>
                <time>2020-11-30T17:07:11.000Z</time>
            </trkpt>
            <trkpt lat="40.917815" lon="-8.523762">
                <ele>181.5</ele>
                <time>2020-11-30T17:07:12.000Z</time>
            </trkpt>
            <trkpt lat="40.91781" lon="-8.523777">
                <ele>181.5</ele>
                <time>2020-11-30T17:07:13.000Z</time>
            </trkpt>
            <trkpt lat="40.917805" lon="-8.523791">
                <ele>181.4</ele>
                <time>2020-11-30T17:07:14.000Z</time>
            </trkpt>
            <trkpt lat="40.9178" lon="-8.523805">
                <ele>181.4</ele>
                <time>2020-11-30T17:07:15.000Z</time>
            </trkpt>
            <trkpt lat="40.917797" lon="-8.523818">
                <ele>181.4</ele>
                <time>2020-11-30T17:07:16.000Z</time>
            </trkpt>
            <trkpt lat="40.917793" lon="-8.523831">
                <ele>181.4</ele>
                <time>2020-11-30T17:07:17.000Z</time>
            </trkpt>
            <trkpt lat="40.917791" lon="-8.523843">
                <ele>181.4</ele>
                <time>2020-11-30T17:07:18.000Z</time>
            </trkpt>
            <trkpt lat="40.917788" lon="-8.523855">
                <ele>181.4</ele>
                <time>2020-11-30T17:07:19.000Z</time>
            </trkpt>
            <trkpt lat="40.917786" lon="-8.523867">
                <ele>181.4</ele>
                <time>2020-11-30T17:07:20.000Z</time>
            </trkpt>
            <trkpt lat="40.917783" lon="-8.523879">
                <ele>181.4</ele>
                <time>2020-11-30T17:07:21.000Z</time>
            </trkpt>
            <trkpt lat="40.917781" lon="-8.523891">
                <ele>181.4</ele>
                <time>2020-11-30T17:07:22.000Z</time>
            </trkpt>
            <trkpt lat="40.917778" lon="-8.523904">
                <ele>181.4</ele>
                <time>2020-11-30T17:07:23.000Z</time>
            </trkpt>
            <trkpt lat="40.917775" lon="-8.523916">
                <ele>181.3</ele>
                <time>2020-11-30T17:07:24.000Z</time>
            </trkpt>
            <trkpt lat="40.917771" lon="-8.523929">
                <ele>181.3</ele>
                <time>2020-11-30T17:07:25.000Z</time>
            </trkpt>
            <trkpt lat="40.917767" lon="-8.523942">
                <ele>181.3</ele>
                <time>2020-11-30T17:07:26.000Z</time>
            </trkpt>
            <trkpt lat="40.917763" lon="-8.523956">
                <ele>181.3</ele>
                <time>2020-11-30T17:07:27.000Z</time>
            </trkpt>
            <trkpt lat="40.917758" lon="-8.523969">
                <ele>181.2</ele>
                <time>2020-11-30T17:07:28.000Z</time>
            </trkpt>
            <trkpt lat="40.917753" lon="-8.523983">
                <ele>181.2</ele>
                <time>2020-11-30T17:07:29.000Z</time>
            </trkpt>
            <trkpt lat="40.917748" lon="-8.523997">
                <ele>181.1</ele>
                <time>2020-11-30T17:07:30.000Z</time>
            </trkpt>
            <trkpt lat="40.917742" lon="-8.52401">
                <ele>181.1</ele>
                <time>2020-11-30T17:07:31.000Z</time>
            </trkpt>
            <trkpt lat="40.917736" lon="-8.524024">
                <ele>181.0</ele>
                <time>2020-11-30T17:07:32.000Z</time>
            </trkpt>
            <trkpt lat="40.91773" lon="-8.524037">
                <ele>181.0</ele>
                <time>2020-11-30T17:07:33.000Z</time>
            </trkpt>
            <trkpt lat="40.917724" lon="-8.52405">
                <ele>180.9</ele>
                <time>2020-11-30T17:07:34.000Z</time>
            </trkpt>
            <trkpt lat="40.917717" lon="-8.524062">
                <ele>180.8</ele>
                <time>2020-11-30T17:07:35.000Z</time>
            </trkpt>
            <trkpt lat="40.917711" lon="-8.524074">
                <ele>180.8</ele>
                <time>2020-11-30T17:07:36.000Z</time>
            </trkpt>
            <trkpt lat="40.917705" lon="-8.524087">
                <ele>180.7</ele>
                <time>2020-11-30T17:07:37.000Z</time>
            </trkpt>
            <trkpt lat="40.9177" lon="-8.524099">
                <ele>180.6</ele>
                <time>2020-11-30T17:07:38.000Z</time>
            </trkpt>
            <trkpt lat="40.917696" lon="-8.524112">
                <ele>180.6</ele>
                <time>2020-11-30T17:07:39.000Z</time>
            </trkpt>
            <trkpt lat="40.917694" lon="-8.524126">
                <ele>180.6</ele>
                <time>2020-11-30T17:07:40.000Z</time>
            </trkpt>
            <trkpt lat="40.917693" lon="-8.524141">
                <ele>180.5</ele>
                <time>2020-11-30T17:07:41.000Z</time>
            </trkpt>
            <trkpt lat="40.917694" lon="-8.524156">
                <ele>180.6</ele>
                <time>2020-11-30T17:07:42.000Z</time>
            </trkpt>
            <trkpt lat="40.917695" lon="-8.524171">
                <ele>180.5</ele>
                <time>2020-11-30T17:07:43.000Z</time>
            </trkpt>
            <trkpt lat="40.917697" lon="-8.524186">
                <ele>180.4</ele>
                <time>2020-11-30T17:07:44.000Z</time>
            </trkpt>
            <trkpt lat="40.917699" lon="-8.5242">
                <ele>180.3</ele>
                <time>2020-11-30T17:07:45.000Z</time>
            </trkpt>
            <trkpt lat="40.917701" lon="-8.524213">
                <ele>180.2</ele>
                <time>2020-11-30T17:07:46.000Z</time>
            </trkpt>
            <trkpt lat="40.917703" lon="-8.524224">
                <ele>180.2</ele>
                <time>2020-11-30T17:07:47.000Z</time>
            </trkpt>
            <trkpt lat="40.917704" lon="-8.524235">
                <ele>180.1</ele>
                <time>2020-11-30T17:07:48.000Z</time>
            </trkpt>
            <trkpt lat="40.917705" lon="-8.524244">
                <ele>180.0</ele>
                <time>2020-11-30T17:07:49.000Z</time>
            </trkpt>
            <trkpt lat="40.917707" lon="-8.524252">
                <ele>180.0</ele>
                <time>2020-11-30T17:07:50.000Z</time>
            </trkpt>
            <trkpt lat="40.917708" lon="-8.524259">
                <ele>179.9</ele>
                <time>2020-11-30T17:07:51.000Z</time>
            </trkpt>
            <trkpt lat="40.917709" lon="-8.524265">
                <ele>179.9</ele>
                <time>2020-11-30T17:07:52.000Z</time>
            </trkpt>
            <trkpt lat="40.91771" lon="-8.52427">
                <ele>179.9</ele>
                <time>2020-11-30T17:07:53.000Z</time>
            </trkpt>
            <trkpt lat="40.917712" lon="-8.524275">
                <ele>179.9</ele>
                <time>2020-11-30T17:07:54.000Z</time>
            </trkpt>
            <trkpt lat="40.917714" lon="-8.524279">
                <ele>179.9</ele>
                <time>2020-11-30T17:07:55.000Z</time>
            </trkpt>
            <trkpt lat="40.917716" lon="-8.524282">
                <ele>179.9</ele>
                <time>2020-11-30T17:07:56.000Z</time>
            </trkpt>
            <trkpt lat="40.917718" lon="-8.524285">
                <ele>179.9</ele>
                <time>2020-11-30T17:07:57.000Z</time>
            </trkpt>
            <trkpt lat="40.917721" lon="-8.524287">
                <ele>179.9</ele>
                <time>2020-11-30T17:07:58.000Z</time>
            </trkpt>
            <trkpt lat="40.917724" lon="-8.524289">
                <ele>179.9</ele>
                <time>2020-11-30T17:07:59.000Z</time>
            </trkpt>
            <trkpt lat="40.917727" lon="-8.52429">
                <ele>179.9</ele>
                <time>2020-11-30T17:08:00.000Z</time>
            </trkpt>
            <trkpt lat="40.917729" lon="-8.52429">
                <ele>180.0</ele>
                <time>2020-11-30T17:08:01.000Z</time>
            </trkpt>
            <trkpt lat="40.917732" lon="-8.52429">
                <ele>180.0</ele>
                <time>2020-11-30T17:08:02.000Z</time>
            </trkpt>
            <trkpt lat="40.917735" lon="-8.524289">
                <ele>180.1</ele>
                <time>2020-11-30T17:08:03.000Z</time>
            </trkpt>
            <trkpt lat="40.917738" lon="-8.524287">
                <ele>180.1</ele>
                <time>2020-11-30T17:08:04.000Z</time>
            </trkpt>
            <trkpt lat="40.91774" lon="-8.524285">
                <ele>180.2</ele>
                <time>2020-11-30T17:08:05.000Z</time>
            </trkpt>
            <trkpt lat="40.917742" lon="-8.524282">
                <ele>180.2</ele>
                <time>2020-11-30T17:08:06.000Z</time>
            </trkpt>
            <trkpt lat="40.917744" lon="-8.524279">
                <ele>180.3</ele>
                <time>2020-11-30T17:08:07.000Z</time>
            </trkpt>
            <trkpt lat="40.917746" lon="-8.524275">
                <ele>180.3</ele>
                <time>2020-11-30T17:08:08.000Z</time>
            </trkpt>
            <trkpt lat="40.917748" lon="-8.524272">
                <ele>180.4</ele>
                <time>2020-11-30T17:08:09.000Z</time>
            </trkpt>
            <trkpt lat="40.91775" lon="-8.524269">
                <ele>180.4</ele>
                <time>2020-11-30T17:08:10.000Z</time>
            </trkpt>
            <trkpt lat="40.917752" lon="-8.524266">
                <ele>180.5</ele>
                <time>2020-11-30T17:08:11.000Z</time>
            </trkpt>
            <trkpt lat="40.917754" lon="-8.524265">
                <ele>180.5</ele>
                <time>2020-11-30T17:08:12.000Z</time>
            </trkpt>
            <trkpt lat="40.917757" lon="-8.524264">
                <ele>180.6</ele>
                <time>2020-11-30T17:08:13.000Z</time>
            </trkpt>
            <trkpt lat="40.917761" lon="-8.524265">
                <ele>180.6</ele>
                <time>2020-11-30T17:08:14.000Z</time>
            </trkpt>
            <trkpt lat="40.917765" lon="-8.524268">
                <ele>180.6</ele>
                <time>2020-11-30T17:08:15.000Z</time>
            </trkpt>
            <trkpt lat="40.917769" lon="-8.524272">
                <ele>180.7</ele>
                <time>2020-11-30T17:08:16.000Z</time>
            </trkpt>
            <trkpt lat="40.917774" lon="-8.524279">
                <ele>180.7</ele>
                <time>2020-11-30T17:08:17.000Z</time>
            </trkpt>
            <trkpt lat="40.91778" lon="-8.524287">
                <ele>180.7</ele>
                <time>2020-11-30T17:08:18.000Z</time>
            </trkpt>
            <trkpt lat="40.917785" lon="-8.524299">
                <ele>180.7</ele>
                <time>2020-11-30T17:08:19.000Z</time>
            </trkpt>
            <trkpt lat="40.91779" lon="-8.524313">
                <ele>180.6</ele>
                <time>2020-11-30T17:08:20.000Z</time>
            </trkpt>
            <trkpt lat="40.917795" lon="-8.52433">
                <ele>180.5</ele>
                <time>2020-11-30T17:08:21.000Z</time>
            </trkpt>
            <trkpt lat="40.917799" lon="-8.52435">
                <ele>180.4</ele>
                <time>2020-11-30T17:08:22.000Z</time>
            </trkpt>
            <trkpt lat="40.917802" lon="-8.524373">
                <ele>180.3</ele>
                <time>2020-11-30T17:08:23.000Z</time>
            </trkpt>
            <trkpt lat="40.917806" lon="-8.524396">
                <ele>180.1</ele>
                <time>2020-11-30T17:08:24.000Z</time>
            </trkpt>
            <trkpt lat="40.917811" lon="-8.52442">
                <ele>180.0</ele>
                <time>2020-11-30T17:08:25.000Z</time>
            </trkpt>
            <trkpt lat="40.917817" lon="-8.524444">
                <ele>179.9</ele>
                <time>2020-11-30T17:08:26.000Z</time>
            </trkpt>
            <trkpt lat="40.917825" lon="-8.524466">
                <ele>179.8</ele>
                <time>2020-11-30T17:08:27.000Z</time>
            </trkpt>
            <trkpt lat="40.917833" lon="-8.524487">
                <ele>179.8</ele>
                <time>2020-11-30T17:08:28.000Z</time>
            </trkpt>
            <trkpt lat="40.917842" lon="-8.524506">
                <ele>179.8</ele>
                <time>2020-11-30T17:08:29.000Z</time>
            </trkpt>
            <trkpt lat="40.91785" lon="-8.524525">
                <ele>179.7</ele>
                <time>2020-11-30T17:08:30.000Z</time>
            </trkpt>
            <trkpt lat="40.917855" lon="-8.524542">
                <ele>179.7</ele>
                <time>2020-11-30T17:08:31.000Z</time>
            </trkpt>
            <trkpt lat="40.917859" lon="-8.524559">
                <ele>179.6</ele>
                <time>2020-11-30T17:08:32.000Z</time>
            </trkpt>
            <trkpt lat="40.91786" lon="-8.524576">
                <ele>179.5</ele>
                <time>2020-11-30T17:08:33.000Z</time>
            </trkpt>
            <trkpt lat="40.917861" lon="-8.524594">
                <ele>179.3</ele>
                <time>2020-11-30T17:08:34.000Z</time>
            </trkpt>
            <trkpt lat="40.917862" lon="-8.524612">
                <ele>179.2</ele>
                <time>2020-11-30T17:08:35.000Z</time>
            </trkpt>
            <trkpt lat="40.917864" lon="-8.524631">
                <ele>179.1</ele>
                <time>2020-11-30T17:08:36.000Z</time>
            </trkpt>
            <trkpt lat="40.917868" lon="-8.524651">
                <ele>179.0</ele>
                <time>2020-11-30T17:08:37.000Z</time>
            </trkpt>
            <trkpt lat="40.917874" lon="-8.524673">
                <ele>178.9</ele>
                <time>2020-11-30T17:08:38.000Z</time>
            </trkpt>
            <trkpt lat="40.91788" lon="-8.524693">
                <ele>178.8</ele>
                <time>2020-11-30T17:08:39.000Z</time>
            </trkpt>
            <trkpt lat="40.917887" lon="-8.524713">
                <ele>178.8</ele>
                <time>2020-11-30T17:08:40.000Z</time>
            </trkpt>
            <trkpt lat="40.917894" lon="-8.52473">
                <ele>178.8</ele>
                <time>2020-11-30T17:08:41.000Z</time>
            </trkpt>
            <trkpt lat="40.9179" lon="-8.524744">
                <ele>178.7</ele>
                <time>2020-11-30T17:08:42.000Z</time>
            </trkpt>
            <trkpt lat="40.917905" lon="-8.524754">
                <ele>178.7</ele>
                <time>2020-11-30T17:08:43.000Z</time>
            </trkpt>
            <trkpt lat="40.91791" lon="-8.524763">
                <ele>178.7</ele>
                <time>2020-11-30T17:08:44.000Z</time>
            </trkpt>
            <trkpt lat="40.917915" lon="-8.524769">
                <ele>178.8</ele>
                <time>2020-11-30T17:08:45.000Z</time>
            </trkpt>
            <trkpt lat="40.91792" lon="-8.524775">
                <ele>178.8</ele>
                <time>2020-11-30T17:08:46.000Z</time>
            </trkpt>
            <trkpt lat="40.917925" lon="-8.524779">
                <ele>178.9</ele>
                <time>2020-11-30T17:08:47.000Z</time>
            </trkpt>
            <trkpt lat="40.917931" lon="-8.524782">
                <ele>178.9</ele>
                <time>2020-11-30T17:08:48.000Z</time>
            </trkpt>
            <trkpt lat="40.917937" lon="-8.524783">
                <ele>179.0</ele>
                <time>2020-11-30T17:08:49.000Z</time>
            </trkpt>
            <trkpt lat="40.917945" lon="-8.524783">
                <ele>179.1</ele>
                <time>2020-11-30T17:08:50.000Z</time>
            </trkpt>
            <trkpt lat="40.917955" lon="-8.524781">
                <ele>179.3</ele>
                <time>2020-11-30T17:08:51.000Z</time>
            </trkpt>
            <trkpt lat="40.917966" lon="-8.524777">
                <ele>179.5</ele>
                <time>2020-11-30T17:08:52.000Z</time>
            </trkpt>
            <trkpt lat="40.917979" lon="-8.524771">
                <ele>179.8</ele>
                <time>2020-11-30T17:08:53.000Z</time>
            </trkpt>
            <trkpt lat="40.917993" lon="-8.524765">
                <ele>180.0</ele>
                <time>2020-11-30T17:08:54.000Z</time>
            </trkpt>
            <trkpt lat="40.918006" lon="-8.524757">
                <ele>180.3</ele>
                <time>2020-11-30T17:08:55.000Z</time>
            </trkpt>
            <trkpt lat="40.918018" lon="-8.524749">
                <ele>180.6</ele>
                <time>2020-11-30T17:08:56.000Z</time>
            </trkpt>
            <trkpt lat="40.918029" lon="-8.524742">
                <ele>180.8</ele>
                <time>2020-11-30T17:08:57.000Z</time>
            </trkpt>
            <trkpt lat="40.918038" lon="-8.524735">
                <ele>181.0</ele>
                <time>2020-11-30T17:08:58.000Z</time>
            </trkpt>
            <trkpt lat="40.918045" lon="-8.524729">
                <ele>181.1</ele>
                <time>2020-11-30T17:08:59.000Z</time>
            </trkpt>
            <trkpt lat="40.91805" lon="-8.524724">
                <ele>181.2</ele>
                <time>2020-11-30T17:09:00.000Z</time>
            </trkpt>
            <trkpt lat="40.918055" lon="-8.52472">
                <ele>181.3</ele>
                <time>2020-11-30T17:09:01.000Z</time>
            </trkpt>
            <trkpt lat="40.91806" lon="-8.524715">
                <ele>181.5</ele>
                <time>2020-11-30T17:09:02.000Z</time>
            </trkpt>
            <trkpt lat="40.918067" lon="-8.52471">
                <ele>181.6</ele>
                <time>2020-11-30T17:09:03.000Z</time>
            </trkpt>
            <trkpt lat="40.918076" lon="-8.524706">
                <ele>181.8</ele>
                <time>2020-11-30T17:09:04.000Z</time>
            </trkpt>
            <trkpt lat="40.918086" lon="-8.524703">
                <ele>181.9</ele>
                <time>2020-11-30T17:09:05.000Z</time>
            </trkpt>
            <trkpt lat="40.918097" lon="-8.524703">
                <ele>182.1</ele>
                <time>2020-11-30T17:09:06.000Z</time>
            </trkpt>
            <trkpt lat="40.918108" lon="-8.524707">
                <ele>182.3</ele>
                <time>2020-11-30T17:09:07.000Z</time>
            </trkpt>
            <trkpt lat="40.918119" lon="-8.524716">
                <ele>182.4</ele>
                <time>2020-11-30T17:09:08.000Z</time>
            </trkpt>
            <trkpt lat="40.918129" lon="-8.524728">
                <ele>182.4</ele>
                <time>2020-11-30T17:09:09.000Z</time>
            </trkpt>
            <trkpt lat="40.918138" lon="-8.524742">
                <ele>182.5</ele>
                <time>2020-11-30T17:09:10.000Z</time>
            </trkpt>
            <trkpt lat="40.918146" lon="-8.524755">
                <ele>182.5</ele>
                <time>2020-11-30T17:09:11.000Z</time>
            </trkpt>
            <trkpt lat="40.918152" lon="-8.524768">
                <ele>182.5</ele>
                <time>2020-11-30T17:09:12.000Z</time>
            </trkpt>
            <trkpt lat="40.918156" lon="-8.524777">
                <ele>182.5</ele>
                <time>2020-11-30T17:09:13.000Z</time>
            </trkpt>
            <trkpt lat="40.918157" lon="-8.524783">
                <ele>182.5</ele>
                <time>2020-11-30T17:09:14.000Z</time>
            </trkpt>
            <trkpt lat="40.918158" lon="-8.524787">
                <ele>182.5</ele>
                <time>2020-11-30T17:09:15.000Z</time>
            </trkpt>
            <trkpt lat="40.918158" lon="-8.52479">
                <ele>182.5</ele>
                <time>2020-11-30T17:09:16.000Z</time>
            </trkpt>
            <trkpt lat="40.918157" lon="-8.524792">
                <ele>182.4</ele>
                <time>2020-11-30T17:09:17.000Z</time>
            </trkpt>
            <trkpt lat="40.918157" lon="-8.524793">
                <ele>182.4</ele>
                <time>2020-11-30T17:09:18.000Z</time>
            </trkpt>
            <trkpt lat="40.918156" lon="-8.524794">
                <ele>182.4</ele>
                <time>2020-11-30T17:09:19.000Z</time>
            </trkpt>
            <trkpt lat="40.918156" lon="-8.524795">
                <ele>182.4</ele>
                <time>2020-11-30T17:09:20.000Z</time>
            </trkpt>
            <trkpt lat="40.918156" lon="-8.524796">
                <ele>182.4</ele>
                <time>2020-11-30T17:09:21.000Z</time>
            </trkpt>
            <trkpt lat="40.918156" lon="-8.524796">
                <ele>182.4</ele>
                <time>2020-11-30T17:09:22.000Z</time>
            </trkpt>
            <trkpt lat="40.918156" lon="-8.524796">
                <ele>182.4</ele>
                <time>2020-11-30T17:09:23.000Z</time>
            </trkpt>
            <trkpt lat="40.918156" lon="-8.524796">
                <ele>182.4</ele>
                <time>2020-11-30T17:09:24.000Z</time>
            </trkpt>
            <trkpt lat="40.918156" lon="-8.524796">
                <ele>182.4</ele>
                <time>2020-11-30T17:09:25.000Z</time>
            </trkpt>
            <trkpt lat="40.918156" lon="-8.524796">
                <ele>182.4</ele>
                <time>2020-11-30T17:09:26.000Z</time>
            </trkpt>
            <trkpt lat="40.918156" lon="-8.524796">
                <ele>182.4</ele>
                <time>2020-11-30T17:09:27.000Z</time>
            </trkpt>
            <trkpt lat="40.918156" lon="-8.524796">
                <ele>182.4</ele>
                <time>2020-11-30T17:09:28.000Z</time>
            </trkpt>
            <trkpt lat="40.918156" lon="-8.524796">
                <ele>182.4</ele>
                <time>2020-11-30T17:09:29.000Z</time>
            </trkpt>
            <trkpt lat="40.918156" lon="-8.524796">
                <ele>182.4</ele>
                <time>2020-11-30T17:09:30.000Z</time>
            </trkpt>
            <trkpt lat="40.918156" lon="-8.524796">
                <ele>182.4</ele>
                <time>2020-11-30T17:09:31.000Z</time>
            </trkpt>
            <trkpt lat="40.918156" lon="-8.524796">
                <ele>182.4</ele>
                <time>2020-11-30T17:09:32.000Z</time>
            </trkpt>
            <trkpt lat="40.918156" lon="-8.524796">
                <ele>182.4</ele>
                <time>2020-11-30T17:09:33.000Z</time>
            </trkpt>
            <trkpt lat="40.918156" lon="-8.524796">
                <ele>182.4</ele>
                <time>2020-11-30T17:09:34.000Z</time>
            </trkpt>
            <trkpt lat="40.918156" lon="-8.524796">
                <ele>182.4</ele>
                <time>2020-11-30T17:09:35.000Z</time>
            </trkpt>
            <trkpt lat="40.918156" lon="-8.524796">
                <ele>182.4</ele>
                <time>2020-11-30T17:09:36.000Z</time>
            </trkpt>
            <trkpt lat="40.918156" lon="-8.524796">
                <ele>182.4</ele>
                <time>2020-11-30T17:09:37.000Z</time>
            </trkpt>
            <trkpt lat="40.918156" lon="-8.524796">
                <ele>182.4</ele>
                <time>2020-11-30T17:09:38.000Z</time>
            </trkpt>
            <trkpt lat="40.918156" lon="-8.524796">
                <ele>182.4</ele>
                <time>2020-11-30T17:09:39.000Z</time>
            </trkpt>
            <trkpt lat="40.918156" lon="-8.524796">
                <ele>182.4</ele>
                <time>2020-11-30T17:09:40.000Z</time>
            </trkpt>
            <trkpt lat="40.918156" lon="-8.524796">
                <ele>182.4</ele>
                <time>2020-11-30T17:09:41.000Z</time>
            </trkpt>
            <trkpt lat="40.918156" lon="-8.524796">
                <ele>182.4</ele>
                <time>2020-11-30T17:09:42.000Z</time>
            </trkpt>
            <trkpt lat="40.918156" lon="-8.524796">
                <ele>182.4</ele>
                <time>2020-11-30T17:09:43.000Z</time>
            </trkpt>
            <trkpt lat="40.918156" lon="-8.524796">
                <ele>182.4</ele>
                <time>2020-11-30T17:09:44.000Z</time>
            </trkpt>
            <trkpt lat="40.918156" lon="-8.524796">
                <ele>182.4</ele>
                <time>2020-11-30T17:09:45.000Z</time>
            </trkpt>
            <trkpt lat="40.918156" lon="-8.524796">
                <ele>182.4</ele>
                <time>2020-11-30T17:09:46.000Z</time>
            </trkpt>
            <trkpt lat="40.918156" lon="-8.524796">
                <ele>182.4</ele>
                <time>2020-11-30T17:09:47.000Z</time>
            </trkpt>
            <trkpt lat="40.918156" lon="-8.524796">
                <ele>182.4</ele>
                <time>2020-11-30T17:09:48.000Z</time>
            </trkpt>
            <trkpt lat="40.918156" lon="-8.524796">
                <ele>182.4</ele>
                <time>2020-11-30T17:09:49.000Z</time>
            </trkpt>
            <trkpt lat="40.918156" lon="-8.524796">
                <ele>182.4</ele>
                <time>2020-11-30T17:09:50.000Z</time>
            </trkpt>
            <trkpt lat="40.918156" lon="-8.524796">
                <ele>182.4</ele>
                <time>2020-11-30T17:09:51.000Z</time>
            </trkpt>
            <trkpt lat="40.918156" lon="-8.524797">
                <ele>182.4</ele>
                <time>2020-11-30T17:09:52.000Z</time>
            </trkpt>
            <trkpt lat="40.918157" lon="-8.524797">
                <ele>182.4</ele>
                <time>2020-11-30T17:09:53.000Z</time>
            </trkpt>
            <trkpt lat="40.918157" lon="-8.524798">
                <ele>182.4</ele>
                <time>2020-11-30T17:09:54.000Z</time>
            </trkpt>
            <trkpt lat="40.918158" lon="-8.524801">
                <ele>182.4</ele>
                <time>2020-11-30T17:09:55.000Z</time>
            </trkpt>
            <trkpt lat="40.91816" lon="-8.524807">
                <ele>182.4</ele>
                <time>2020-11-30T17:09:56.000Z</time>
            </trkpt>
            <trkpt lat="40.918162" lon="-8.524816">
                <ele>182.4</ele>
                <time>2020-11-30T17:09:57.000Z</time>
            </trkpt>
            <trkpt lat="40.918165" lon="-8.524831">
                <ele>182.3</ele>
                <time>2020-11-30T17:09:58.000Z</time>
            </trkpt>
            <trkpt lat="40.918169" lon="-8.524852">
                <ele>182.2</ele>
                <time>2020-11-30T17:09:59.000Z</time>
            </trkpt>
            <trkpt lat="40.918174" lon="-8.524878">
                <ele>182.1</ele>
                <time>2020-11-30T17:10:00.000Z</time>
            </trkpt>
            <trkpt lat="40.91818" lon="-8.524908">
                <ele>182.0</ele>
                <time>2020-11-30T17:10:01.000Z</time>
            </trkpt>
            <trkpt lat="40.918187" lon="-8.524941">
                <ele>181.9</ele>
                <time>2020-11-30T17:10:02.000Z</time>
            </trkpt>
            <trkpt lat="40.918196" lon="-8.524976">
                <ele>181.9</ele>
                <time>2020-11-30T17:10:03.000Z</time>
            </trkpt>
            <trkpt lat="40.918206" lon="-8.525012">
                <ele>181.7</ele>
                <time>2020-11-30T17:10:04.000Z</time>
            </trkpt>
            <trkpt lat="40.918218" lon="-8.525048">
                <ele>181.4</ele>
                <time>2020-11-30T17:10:05.000Z</time>
            </trkpt>
            <trkpt lat="40.91823" lon="-8.525084">
                <ele>181.0</ele>
                <time>2020-11-30T17:10:06.000Z</time>
            </trkpt>
            <trkpt lat="40.918242" lon="-8.52512">
                <ele>180.7</ele>
                <time>2020-11-30T17:10:07.000Z</time>
            </trkpt>
            <trkpt lat="40.918255" lon="-8.525154">
                <ele>180.4</ele>
                <time>2020-11-30T17:10:08.000Z</time>
            </trkpt>
            <trkpt lat="40.918267" lon="-8.525188">
                <ele>180.1</ele>
                <time>2020-11-30T17:10:09.000Z</time>
            </trkpt>
            <trkpt lat="40.918279" lon="-8.52522">
                <ele>179.8</ele>
                <time>2020-11-30T17:10:10.000Z</time>
            </trkpt>
            <trkpt lat="40.918291" lon="-8.525251">
                <ele>179.5</ele>
                <time>2020-11-30T17:10:11.000Z</time>
            </trkpt>
            <trkpt lat="40.918302" lon="-8.525282">
                <ele>179.2</ele>
                <time>2020-11-30T17:10:12.000Z</time>
            </trkpt>
            <trkpt lat="40.918313" lon="-8.525312">
                <ele>178.8</ele>
                <time>2020-11-30T17:10:13.000Z</time>
            </trkpt>
            <trkpt lat="40.918324" lon="-8.525342">
                <ele>178.5</ele>
                <time>2020-11-30T17:10:14.000Z</time>
            </trkpt>
            <trkpt lat="40.918335" lon="-8.525372">
                <ele>178.2</ele>
                <time>2020-11-30T17:10:15.000Z</time>
            </trkpt>
            <trkpt lat="40.918346" lon="-8.525402">
                <ele>177.8</ele>
                <time>2020-11-30T17:10:16.000Z</time>
            </trkpt>
            <trkpt lat="40.918357" lon="-8.525432">
                <ele>177.4</ele>
                <time>2020-11-30T17:10:17.000Z</time>
            </trkpt>
            <trkpt lat="40.918368" lon="-8.525463">
                <ele>176.9</ele>
                <time>2020-11-30T17:10:18.000Z</time>
            </trkpt>
            <trkpt lat="40.918378" lon="-8.525495">
                <ele>176.5</ele>
                <time>2020-11-30T17:10:19.000Z</time>
            </trkpt>
            <trkpt lat="40.918389" lon="-8.525527">
                <ele>176.1</ele>
                <time>2020-11-30T17:10:20.000Z</time>
            </trkpt>
            <trkpt lat="40.9184" lon="-8.52556">
                <ele>175.7</ele>
                <time>2020-11-30T17:10:21.000Z</time>
            </trkpt>
            <trkpt lat="40.918411" lon="-8.525593">
                <ele>175.3</ele>
                <time>2020-11-30T17:10:22.000Z</time>
            </trkpt>
            <trkpt lat="40.918422" lon="-8.525627">
                <ele>174.8</ele>
                <time>2020-11-30T17:10:23.000Z</time>
            </trkpt>
            <trkpt lat="40.918433" lon="-8.525661">
                <ele>174.4</ele>
                <time>2020-11-30T17:10:24.000Z</time>
            </trkpt>
            <trkpt lat="40.918444" lon="-8.525694">
                <ele>174.0</ele>
                <time>2020-11-30T17:10:25.000Z</time>
            </trkpt>
            <trkpt lat="40.918456" lon="-8.525728">
                <ele>173.7</ele>
                <time>2020-11-30T17:10:26.000Z</time>
            </trkpt>
            <trkpt lat="40.918467" lon="-8.525762">
                <ele>173.3</ele>
                <time>2020-11-30T17:10:27.000Z</time>
            </trkpt>
            <trkpt lat="40.91848" lon="-8.525795">
                <ele>172.9</ele>
                <time>2020-11-30T17:10:28.000Z</time>
            </trkpt>
            <trkpt lat="40.918492" lon="-8.525827">
                <ele>172.6</ele>
                <time>2020-11-30T17:10:29.000Z</time>
            </trkpt>
            <trkpt lat="40.918505" lon="-8.52586">
                <ele>172.7</ele>
                <time>2020-11-30T17:10:30.000Z</time>
            </trkpt>
            <trkpt lat="40.918518" lon="-8.525891">
                <ele>172.8</ele>
                <time>2020-11-30T17:10:31.000Z</time>
            </trkpt>
            <trkpt lat="40.918531" lon="-8.525923">
                <ele>172.9</ele>
                <time>2020-11-30T17:10:32.000Z</time>
            </trkpt>
            <trkpt lat="40.918545" lon="-8.525954">
                <ele>173.1</ele>
                <time>2020-11-30T17:10:33.000Z</time>
            </trkpt>
            <trkpt lat="40.918558" lon="-8.525984">
                <ele>173.2</ele>
                <time>2020-11-30T17:10:34.000Z</time>
            </trkpt>
            <trkpt lat="40.918572" lon="-8.526014">
                <ele>173.3</ele>
                <time>2020-11-30T17:10:35.000Z</time>
            </trkpt>
            <trkpt lat="40.918586" lon="-8.526043">
                <ele>173.4</ele>
                <time>2020-11-30T17:10:36.000Z</time>
            </trkpt>
            <trkpt lat="40.918599" lon="-8.526072">
                <ele>173.6</ele>
                <time>2020-11-30T17:10:37.000Z</time>
            </trkpt>
            <trkpt lat="40.918613" lon="-8.526101">
                <ele>173.7</ele>
                <time>2020-11-30T17:10:38.000Z</time>
            </trkpt>
            <trkpt lat="40.918626" lon="-8.52613">
                <ele>173.8</ele>
                <time>2020-11-30T17:10:39.000Z</time>
            </trkpt>
            <trkpt lat="40.91864" lon="-8.526158">
                <ele>173.9</ele>
                <time>2020-11-30T17:10:40.000Z</time>
            </trkpt>
            <trkpt lat="40.918652" lon="-8.526186">
                <ele>174.0</ele>
                <time>2020-11-30T17:10:41.000Z</time>
            </trkpt>
            <trkpt lat="40.918663" lon="-8.526213">
                <ele>174.1</ele>
                <time>2020-11-30T17:10:42.000Z</time>
            </trkpt>
            <trkpt lat="40.918673" lon="-8.526239">
                <ele>174.2</ele>
                <time>2020-11-30T17:10:43.000Z</time>
            </trkpt>
            <trkpt lat="40.918681" lon="-8.526265">
                <ele>174.2</ele>
                <time>2020-11-30T17:10:44.000Z</time>
            </trkpt>
            <trkpt lat="40.918686" lon="-8.526291">
                <ele>174.2</ele>
                <time>2020-11-30T17:10:45.000Z</time>
            </trkpt>
            <trkpt lat="40.91869" lon="-8.526315">
                <ele>174.3</ele>
                <time>2020-11-30T17:10:46.000Z</time>
            </trkpt>
            <trkpt lat="40.918692" lon="-8.526337">
                <ele>174.3</ele>
                <time>2020-11-30T17:10:47.000Z</time>
            </trkpt>
            <trkpt lat="40.918694" lon="-8.526358">
                <ele>174.3</ele>
                <time>2020-11-30T17:10:48.000Z</time>
            </trkpt>
            <trkpt lat="40.918696" lon="-8.526377">
                <ele>174.3</ele>
                <time>2020-11-30T17:10:49.000Z</time>
            </trkpt>
            <trkpt lat="40.918699" lon="-8.526394">
                <ele>174.3</ele>
                <time>2020-11-30T17:10:50.000Z</time>
            </trkpt>
            <trkpt lat="40.918703" lon="-8.526409">
                <ele>174.3</ele>
                <time>2020-11-30T17:10:51.000Z</time>
            </trkpt>
            <trkpt lat="40.918707" lon="-8.526422">
                <ele>174.3</ele>
                <time>2020-11-30T17:10:52.000Z</time>
            </trkpt>
            <trkpt lat="40.918712" lon="-8.526435">
                <ele>174.4</ele>
                <time>2020-11-30T17:10:53.000Z</time>
            </trkpt>
            <trkpt lat="40.918719" lon="-8.526447">
                <ele>174.4</ele>
                <time>2020-11-30T17:10:54.000Z</time>
            </trkpt>
            <trkpt lat="40.918726" lon="-8.52646">
                <ele>174.5</ele>
                <time>2020-11-30T17:10:55.000Z</time>
            </trkpt>
            <trkpt lat="40.918733" lon="-8.526473">
                <ele>174.5</ele>
                <time>2020-11-30T17:10:56.000Z</time>
            </trkpt>
            <trkpt lat="40.918742" lon="-8.526488">
                <ele>174.6</ele>
                <time>2020-11-30T17:10:57.000Z</time>
            </trkpt>
            <trkpt lat="40.918752" lon="-8.526504">
                <ele>174.6</ele>
                <time>2020-11-30T17:10:58.000Z</time>
            </trkpt>
            <trkpt lat="40.918762" lon="-8.526523">
                <ele>174.7</ele>
                <time>2020-11-30T17:10:59.000Z</time>
            </trkpt>
            <trkpt lat="40.918773" lon="-8.526545">
                <ele>174.7</ele>
                <time>2020-11-30T17:11:00.000Z</time>
            </trkpt>
            <trkpt lat="40.918785" lon="-8.526569">
                <ele>174.8</ele>
                <time>2020-11-30T17:11:01.000Z</time>
            </trkpt>
            <trkpt lat="40.918798" lon="-8.526595">
                <ele>174.8</ele>
                <time>2020-11-30T17:11:02.000Z</time>
            </trkpt>
            <trkpt lat="40.918812" lon="-8.526624">
                <ele>174.9</ele>
                <time>2020-11-30T17:11:03.000Z</time>
            </trkpt>
            <trkpt lat="40.918827" lon="-8.526654">
                <ele>175.0</ele>
                <time>2020-11-30T17:11:04.000Z</time>
            </trkpt>
            <trkpt lat="40.918842" lon="-8.526685">
                <ele>174.9</ele>
                <time>2020-11-30T17:11:05.000Z</time>
            </trkpt>
            <trkpt lat="40.918857" lon="-8.526718">
                <ele>174.8</ele>
                <time>2020-11-30T17:11:06.000Z</time>
            </trkpt>
            <trkpt lat="40.918874" lon="-8.526751">
                <ele>174.6</ele>
                <time>2020-11-30T17:11:07.000Z</time>
            </trkpt>
            <trkpt lat="40.918891" lon="-8.526786">
                <ele>174.5</ele>
                <time>2020-11-30T17:11:08.000Z</time>
            </trkpt>
            <trkpt lat="40.918908" lon="-8.52682">
                <ele>174.3</ele>
                <time>2020-11-30T17:11:09.000Z</time>
            </trkpt>
            <trkpt lat="40.918926" lon="-8.526854">
                <ele>174.2</ele>
                <time>2020-11-30T17:11:10.000Z</time>
            </trkpt>
            <trkpt lat="40.918945" lon="-8.526888">
                <ele>174.0</ele>
                <time>2020-11-30T17:11:11.000Z</time>
            </trkpt>
            <trkpt lat="40.918964" lon="-8.526922">
                <ele>173.9</ele>
                <time>2020-11-30T17:11:12.000Z</time>
            </trkpt>
            <trkpt lat="40.918983" lon="-8.526955">
                <ele>173.7</ele>
                <time>2020-11-30T17:11:13.000Z</time>
            </trkpt>
            <trkpt lat="40.919001" lon="-8.526989">
                <ele>173.5</ele>
                <time>2020-11-30T17:11:14.000Z</time>
            </trkpt>
            <trkpt lat="40.91902" lon="-8.527022">
                <ele>173.4</ele>
                <time>2020-11-30T17:11:15.000Z</time>
            </trkpt>
            <trkpt lat="40.919038" lon="-8.527055">
                <ele>173.2</ele>
                <time>2020-11-30T17:11:16.000Z</time>
            </trkpt>
            <trkpt lat="40.919055" lon="-8.527088">
                <ele>173.0</ele>
                <time>2020-11-30T17:11:17.000Z</time>
            </trkpt>
            <trkpt lat="40.919071" lon="-8.527121">
                <ele>172.8</ele>
                <time>2020-11-30T17:11:18.000Z</time>
            </trkpt>
            <trkpt lat="40.919086" lon="-8.527154">
                <ele>172.6</ele>
                <time>2020-11-30T17:11:19.000Z</time>
            </trkpt>
            <trkpt lat="40.9191" lon="-8.527187">
                <ele>172.4</ele>
                <time>2020-11-30T17:11:20.000Z</time>
            </trkpt>
            <trkpt lat="40.919112" lon="-8.52722">
                <ele>172.2</ele>
                <time>2020-11-30T17:11:21.000Z</time>
            </trkpt>
            <trkpt lat="40.919123" lon="-8.527254">
                <ele>171.9</ele>
                <time>2020-11-30T17:11:22.000Z</time>
            </trkpt>
            <trkpt lat="40.919134" lon="-8.527287">
                <ele>171.7</ele>
                <time>2020-11-30T17:11:23.000Z</time>
            </trkpt>
            <trkpt lat="40.919144" lon="-8.527321">
                <ele>171.4</ele>
                <time>2020-11-30T17:11:24.000Z</time>
            </trkpt>
            <trkpt lat="40.919155" lon="-8.527355">
                <ele>171.2</ele>
                <time>2020-11-30T17:11:25.000Z</time>
            </trkpt>
            <trkpt lat="40.919167" lon="-8.527389">
                <ele>170.9</ele>
                <time>2020-11-30T17:11:26.000Z</time>
            </trkpt>
            <trkpt lat="40.919179" lon="-8.527423">
                <ele>170.8</ele>
                <time>2020-11-30T17:11:27.000Z</time>
            </trkpt>
            <trkpt lat="40.919192" lon="-8.527457">
                <ele>170.6</ele>
                <time>2020-11-30T17:11:28.000Z</time>
            </trkpt>
            <trkpt lat="40.919205" lon="-8.527492">
                <ele>170.4</ele>
                <time>2020-11-30T17:11:29.000Z</time>
            </trkpt>
            <trkpt lat="40.919218" lon="-8.527526">
                <ele>170.4</ele>
                <time>2020-11-30T17:11:30.000Z</time>
            </trkpt>
            <trkpt lat="40.919231" lon="-8.527561">
                <ele>170.4</ele>
                <time>2020-11-30T17:11:31.000Z</time>
            </trkpt>
            <trkpt lat="40.919244" lon="-8.527595">
                <ele>170.4</ele>
                <time>2020-11-30T17:11:32.000Z</time>
            </trkpt>
            <trkpt lat="40.919257" lon="-8.52763">
                <ele>170.4</ele>
                <time>2020-11-30T17:11:33.000Z</time>
            </trkpt>
            <trkpt lat="40.91927" lon="-8.527664">
                <ele>170.5</ele>
                <time>2020-11-30T17:11:34.000Z</time>
            </trkpt>
            <trkpt lat="40.919283" lon="-8.527699">
                <ele>170.5</ele>
                <time>2020-11-30T17:11:35.000Z</time>
            </trkpt>
            <trkpt lat="40.919295" lon="-8.527733">
                <ele>170.5</ele>
                <time>2020-11-30T17:11:36.000Z</time>
            </trkpt>
            <trkpt lat="40.919308" lon="-8.527767">
                <ele>170.6</ele>
                <time>2020-11-30T17:11:37.000Z</time>
            </trkpt>
            <trkpt lat="40.919321" lon="-8.527802">
                <ele>170.6</ele>
                <time>2020-11-30T17:11:38.000Z</time>
            </trkpt>
            <trkpt lat="40.919333" lon="-8.527835">
                <ele>170.6</ele>
                <time>2020-11-30T17:11:39.000Z</time>
            </trkpt>
            <trkpt lat="40.919345" lon="-8.527869">
                <ele>170.7</ele>
                <time>2020-11-30T17:11:40.000Z</time>
            </trkpt>
            <trkpt lat="40.919358" lon="-8.527902">
                <ele>170.7</ele>
                <time>2020-11-30T17:11:41.000Z</time>
            </trkpt>
            <trkpt lat="40.919369" lon="-8.527936">
                <ele>170.8</ele>
                <time>2020-11-30T17:11:42.000Z</time>
            </trkpt>
            <trkpt lat="40.91938" lon="-8.52797">
                <ele>170.8</ele>
                <time>2020-11-30T17:11:43.000Z</time>
            </trkpt>
            <trkpt lat="40.91939" lon="-8.528004">
                <ele>170.8</ele>
                <time>2020-11-30T17:11:44.000Z</time>
            </trkpt>
            <trkpt lat="40.919397" lon="-8.528039">
                <ele>170.8</ele>
                <time>2020-11-30T17:11:45.000Z</time>
            </trkpt>
            <trkpt lat="40.919403" lon="-8.528075">
                <ele>170.8</ele>
                <time>2020-11-30T17:11:46.000Z</time>
            </trkpt>
            <trkpt lat="40.919406" lon="-8.528113">
                <ele>170.7</ele>
                <time>2020-11-30T17:11:47.000Z</time>
            </trkpt>
            <trkpt lat="40.919407" lon="-8.528151">
                <ele>170.6</ele>
                <time>2020-11-30T17:11:48.000Z</time>
            </trkpt>
            <trkpt lat="40.919408" lon="-8.528187">
                <ele>170.6</ele>
                <time>2020-11-30T17:11:49.000Z</time>
            </trkpt>
            <trkpt lat="40.919409" lon="-8.528222">
                <ele>170.5</ele>
                <time>2020-11-30T17:11:50.000Z</time>
            </trkpt>
            <trkpt lat="40.919411" lon="-8.528252">
                <ele>170.4</ele>
                <time>2020-11-30T17:11:51.000Z</time>
            </trkpt>
            <trkpt lat="40.919415" lon="-8.528278">
                <ele>170.4</ele>
                <time>2020-11-30T17:11:52.000Z</time>
            </trkpt>
            <trkpt lat="40.919422" lon="-8.528298">
                <ele>170.5</ele>
                <time>2020-11-30T17:11:53.000Z</time>
            </trkpt>
            <trkpt lat="40.919431" lon="-8.528312">
                <ele>170.5</ele>
                <time>2020-11-30T17:11:54.000Z</time>
            </trkpt>
            <trkpt lat="40.919443" lon="-8.52832">
                <ele>170.7</ele>
                <time>2020-11-30T17:11:55.000Z</time>
            </trkpt>
            <trkpt lat="40.919458" lon="-8.528321">
                <ele>170.9</ele>
                <time>2020-11-30T17:11:56.000Z</time>
            </trkpt>
            <trkpt lat="40.919476" lon="-8.528316">
                <ele>171.1</ele>
                <time>2020-11-30T17:11:57.000Z</time>
            </trkpt>
            <trkpt lat="40.919496" lon="-8.528305">
                <ele>171.4</ele>
                <time>2020-11-30T17:11:58.000Z</time>
            </trkpt>
            <trkpt lat="40.919516" lon="-8.528289">
                <ele>171.7</ele>
                <time>2020-11-30T17:11:59.000Z</time>
            </trkpt>
            <trkpt lat="40.919536" lon="-8.528269">
                <ele>172.0</ele>
                <time>2020-11-30T17:12:00.000Z</time>
            </trkpt>
            <trkpt lat="40.919555" lon="-8.528247">
                <ele>172.3</ele>
                <time>2020-11-30T17:12:01.000Z</time>
            </trkpt>
            <trkpt lat="40.919571" lon="-8.528223">
                <ele>172.5</ele>
                <time>2020-11-30T17:12:02.000Z</time>
            </trkpt>
            <trkpt lat="40.919586" lon="-8.528198">
                <ele>172.8</ele>
                <time>2020-11-30T17:12:03.000Z</time>
            </trkpt>
            <trkpt lat="40.919598" lon="-8.528173">
                <ele>173.0</ele>
                <time>2020-11-30T17:12:04.000Z</time>
            </trkpt>
            <trkpt lat="40.919609" lon="-8.528148">
                <ele>173.2</ele>
                <time>2020-11-30T17:12:05.000Z</time>
            </trkpt>
            <trkpt lat="40.919619" lon="-8.528123">
                <ele>173.3</ele>
                <time>2020-11-30T17:12:06.000Z</time>
            </trkpt>
            <trkpt lat="40.919629" lon="-8.528099">
                <ele>173.5</ele>
                <time>2020-11-30T17:12:07.000Z</time>
            </trkpt>
            <trkpt lat="40.919639" lon="-8.528076">
                <ele>173.6</ele>
                <time>2020-11-30T17:12:08.000Z</time>
            </trkpt>
            <trkpt lat="40.91965" lon="-8.528055">
                <ele>173.8</ele>
                <time>2020-11-30T17:12:09.000Z</time>
            </trkpt>
            <trkpt lat="40.919661" lon="-8.528036">
                <ele>174.0</ele>
                <time>2020-11-30T17:12:10.000Z</time>
            </trkpt>
            <trkpt lat="40.919674" lon="-8.52802">
                <ele>174.1</ele>
                <time>2020-11-30T17:12:11.000Z</time>
            </trkpt>
            <trkpt lat="40.919689" lon="-8.528006">
                <ele>174.3</ele>
                <time>2020-11-30T17:12:12.000Z</time>
            </trkpt>
            <trkpt lat="40.919706" lon="-8.527996">
                <ele>174.5</ele>
                <time>2020-11-30T17:12:13.000Z</time>
            </trkpt>
            <trkpt lat="40.919724" lon="-8.52799">
                <ele>174.8</ele>
                <time>2020-11-30T17:12:14.000Z</time>
            </trkpt>
            <trkpt lat="40.919744" lon="-8.527986">
                <ele>175.0</ele>
                <time>2020-11-30T17:12:15.000Z</time>
            </trkpt>
            <trkpt lat="40.919763" lon="-8.527986">
                <ele>175.2</ele>
                <time>2020-11-30T17:12:16.000Z</time>
            </trkpt>
            <trkpt lat="40.919782" lon="-8.527987">
                <ele>175.4</ele>
                <time>2020-11-30T17:12:17.000Z</time>
            </trkpt>
            <trkpt lat="40.9198" lon="-8.527992">
                <ele>175.7</ele>
                <time>2020-11-30T17:12:18.000Z</time>
            </trkpt>
            <trkpt lat="40.919817" lon="-8.527998">
                <ele>175.8</ele>
                <time>2020-11-30T17:12:19.000Z</time>
            </trkpt>
            <trkpt lat="40.919834" lon="-8.528005">
                <ele>176.0</ele>
                <time>2020-11-30T17:12:20.000Z</time>
            </trkpt>
            <trkpt lat="40.919851" lon="-8.528013">
                <ele>176.2</ele>
                <time>2020-11-30T17:12:21.000Z</time>
            </trkpt>
            <trkpt lat="40.919868" lon="-8.528021">
                <ele>176.4</ele>
                <time>2020-11-30T17:12:22.000Z</time>
            </trkpt>
            <trkpt lat="40.919886" lon="-8.528029">
                <ele>176.6</ele>
                <time>2020-11-30T17:12:23.000Z</time>
            </trkpt>
            <trkpt lat="40.919905" lon="-8.528036">
                <ele>176.9</ele>
                <time>2020-11-30T17:12:24.000Z</time>
            </trkpt>
            <trkpt lat="40.919925" lon="-8.528044">
                <ele>177.1</ele>
                <time>2020-11-30T17:12:25.000Z</time>
            </trkpt>
            <trkpt lat="40.919945" lon="-8.528051">
                <ele>177.3</ele>
                <time>2020-11-30T17:12:26.000Z</time>
            </trkpt>
            <trkpt lat="40.919966" lon="-8.528059">
                <ele>177.6</ele>
                <time>2020-11-30T17:12:27.000Z</time>
            </trkpt>
            <trkpt lat="40.919987" lon="-8.528067">
                <ele>177.8</ele>
                <time>2020-11-30T17:12:28.000Z</time>
            </trkpt>
            <trkpt lat="40.920009" lon="-8.528075">
                <ele>178.1</ele>
                <time>2020-11-30T17:12:29.000Z</time>
            </trkpt>
            <trkpt lat="40.92003" lon="-8.528085">
                <ele>178.2</ele>
                <time>2020-11-30T17:12:30.000Z</time>
            </trkpt>
            <trkpt lat="40.920052" lon="-8.528096">
                <ele>178.4</ele>
                <time>2020-11-30T17:12:31.000Z</time>
            </trkpt>
            <trkpt lat="40.920073" lon="-8.528108">
                <ele>178.6</ele>
                <time>2020-11-30T17:12:32.000Z</time>
            </trkpt>
            <trkpt lat="40.920094" lon="-8.528122">
                <ele>178.8</ele>
                <time>2020-11-30T17:12:33.000Z</time>
            </trkpt>
            <trkpt lat="40.920115" lon="-8.528137">
                <ele>179.0</ele>
                <time>2020-11-30T17:12:34.000Z</time>
            </trkpt>
            <trkpt lat="40.920136" lon="-8.528154">
                <ele>179.2</ele>
                <time>2020-11-30T17:12:35.000Z</time>
            </trkpt>
            <trkpt lat="40.920156" lon="-8.528172">
                <ele>179.4</ele>
                <time>2020-11-30T17:12:36.000Z</time>
            </trkpt>
            <trkpt lat="40.920176" lon="-8.528191">
                <ele>179.5</ele>
                <time>2020-11-30T17:12:37.000Z</time>
            </trkpt>
            <trkpt lat="40.920196" lon="-8.528211">
                <ele>179.7</ele>
                <time>2020-11-30T17:12:38.000Z</time>
            </trkpt>
            <trkpt lat="40.920215" lon="-8.528231">
                <ele>179.9</ele>
                <time>2020-11-30T17:12:39.000Z</time>
            </trkpt>
            <trkpt lat="40.920235" lon="-8.528253">
                <ele>180.1</ele>
                <time>2020-11-30T17:12:40.000Z</time>
            </trkpt>
            <trkpt lat="40.920254" lon="-8.528274">
                <ele>180.4</ele>
                <time>2020-11-30T17:12:41.000Z</time>
            </trkpt>
            <trkpt lat="40.920273" lon="-8.528296">
                <ele>180.6</ele>
                <time>2020-11-30T17:12:42.000Z</time>
            </trkpt>
            <trkpt lat="40.920293" lon="-8.528317">
                <ele>180.8</ele>
                <time>2020-11-30T17:12:43.000Z</time>
            </trkpt>
            <trkpt lat="40.920312" lon="-8.528338">
                <ele>181.0</ele>
                <time>2020-11-30T17:12:44.000Z</time>
            </trkpt>
            <trkpt lat="40.920331" lon="-8.528359">
                <ele>181.2</ele>
                <time>2020-11-30T17:12:45.000Z</time>
            </trkpt>
            <trkpt lat="40.92035" lon="-8.52838">
                <ele>181.5</ele>
                <time>2020-11-30T17:12:46.000Z</time>
            </trkpt>
            <trkpt lat="40.920369" lon="-8.528401">
                <ele>181.7</ele>
                <time>2020-11-30T17:12:47.000Z</time>
            </trkpt>
            <trkpt lat="40.920389" lon="-8.528421">
                <ele>182.0</ele>
                <time>2020-11-30T17:12:48.000Z</time>
            </trkpt>
            <trkpt lat="40.920409" lon="-8.528442">
                <ele>182.2</ele>
                <time>2020-11-30T17:12:49.000Z</time>
            </trkpt>
            <trkpt lat="40.920428" lon="-8.528462">
                <ele>182.5</ele>
                <time>2020-11-30T17:12:50.000Z</time>
            </trkpt>
            <trkpt lat="40.920448" lon="-8.528484">
                <ele>182.8</ele>
                <time>2020-11-30T17:12:51.000Z</time>
            </trkpt>
            <trkpt lat="40.920466" lon="-8.528506">
                <ele>183.1</ele>
                <time>2020-11-30T17:12:52.000Z</time>
            </trkpt>
            <trkpt lat="40.920483" lon="-8.52853">
                <ele>183.3</ele>
                <time>2020-11-30T17:12:53.000Z</time>
            </trkpt>
            <trkpt lat="40.920499" lon="-8.528555">
                <ele>183.6</ele>
                <time>2020-11-30T17:12:54.000Z</time>
            </trkpt>
            <trkpt lat="40.920513" lon="-8.528582">
                <ele>183.8</ele>
                <time>2020-11-30T17:12:55.000Z</time>
            </trkpt>
            <trkpt lat="40.920524" lon="-8.52861">
                <ele>184.1</ele>
                <time>2020-11-30T17:12:56.000Z</time>
            </trkpt>
            <trkpt lat="40.920533" lon="-8.52864">
                <ele>184.3</ele>
                <time>2020-11-30T17:12:57.000Z</time>
            </trkpt>
            <trkpt lat="40.920539" lon="-8.528672">
                <ele>184.5</ele>
                <time>2020-11-30T17:12:58.000Z</time>
            </trkpt>
            <trkpt lat="40.920541" lon="-8.528705">
                <ele>184.6</ele>
                <time>2020-11-30T17:12:59.000Z</time>
            </trkpt>
            <trkpt lat="40.920541" lon="-8.52874">
                <ele>184.8</ele>
                <time>2020-11-30T17:13:00.000Z</time>
            </trkpt>
            <trkpt lat="40.920538" lon="-8.528775">
                <ele>184.9</ele>
                <time>2020-11-30T17:13:01.000Z</time>
            </trkpt>
            <trkpt lat="40.920535" lon="-8.528811">
                <ele>185.0</ele>
                <time>2020-11-30T17:13:02.000Z</time>
            </trkpt>
            <trkpt lat="40.920531" lon="-8.528848">
                <ele>185.1</ele>
                <time>2020-11-30T17:13:03.000Z</time>
            </trkpt>
            <trkpt lat="40.920527" lon="-8.528885">
                <ele>185.2</ele>
                <time>2020-11-30T17:13:04.000Z</time>
            </trkpt>
            <trkpt lat="40.920524" lon="-8.528922">
                <ele>185.3</ele>
                <time>2020-11-30T17:13:05.000Z</time>
            </trkpt>
            <trkpt lat="40.920522" lon="-8.528959">
                <ele>185.4</ele>
                <time>2020-11-30T17:13:06.000Z</time>
            </trkpt>
            <trkpt lat="40.920521" lon="-8.528995">
                <ele>185.5</ele>
                <time>2020-11-30T17:13:07.000Z</time>
            </trkpt>
            <trkpt lat="40.920523" lon="-8.529031">
                <ele>185.6</ele>
                <time>2020-11-30T17:13:08.000Z</time>
            </trkpt>
            <trkpt lat="40.920528" lon="-8.529067">
                <ele>185.9</ele>
                <time>2020-11-30T17:13:09.000Z</time>
            </trkpt>
            <trkpt lat="40.920536" lon="-8.529101">
                <ele>186.1</ele>
                <time>2020-11-30T17:13:10.000Z</time>
            </trkpt>
            <trkpt lat="40.920548" lon="-8.529133">
                <ele>186.4</ele>
                <time>2020-11-30T17:13:11.000Z</time>
            </trkpt>
            <trkpt lat="40.920561" lon="-8.529163">
                <ele>186.7</ele>
                <time>2020-11-30T17:13:12.000Z</time>
            </trkpt>
            <trkpt lat="40.920577" lon="-8.529189">
                <ele>187.0</ele>
                <time>2020-11-30T17:13:13.000Z</time>
            </trkpt>
            <trkpt lat="40.920594" lon="-8.529212">
                <ele>187.3</ele>
                <time>2020-11-30T17:13:14.000Z</time>
            </trkpt>
            <trkpt lat="40.920612" lon="-8.52923">
                <ele>187.5</ele>
                <time>2020-11-30T17:13:15.000Z</time>
            </trkpt>
            <trkpt lat="40.920631" lon="-8.529244">
                <ele>187.8</ele>
                <time>2020-11-30T17:13:16.000Z</time>
            </trkpt>
            <trkpt lat="40.920651" lon="-8.529254">
                <ele>188.2</ele>
                <time>2020-11-30T17:13:17.000Z</time>
            </trkpt>
            <trkpt lat="40.920673" lon="-8.529261">
                <ele>188.5</ele>
                <time>2020-11-30T17:13:18.000Z</time>
            </trkpt>
            <trkpt lat="40.920695" lon="-8.529266">
                <ele>188.9</ele>
                <time>2020-11-30T17:13:19.000Z</time>
            </trkpt>
            <trkpt lat="40.920717" lon="-8.529269">
                <ele>189.2</ele>
                <time>2020-11-30T17:13:20.000Z</time>
            </trkpt>
            <trkpt lat="40.920741" lon="-8.529272">
                <ele>189.6</ele>
                <time>2020-11-30T17:13:21.000Z</time>
            </trkpt>
            <trkpt lat="40.920765" lon="-8.529274">
                <ele>190.0</ele>
                <time>2020-11-30T17:13:22.000Z</time>
            </trkpt>
            <trkpt lat="40.92079" lon="-8.529276">
                <ele>190.4</ele>
                <time>2020-11-30T17:13:23.000Z</time>
            </trkpt>
            <trkpt lat="40.920815" lon="-8.529279">
                <ele>190.8</ele>
                <time>2020-11-30T17:13:24.000Z</time>
            </trkpt>
            <trkpt lat="40.920841" lon="-8.529283">
                <ele>191.2</ele>
                <time>2020-11-30T17:13:25.000Z</time>
            </trkpt>
            <trkpt lat="40.920867" lon="-8.529288">
                <ele>191.5</ele>
                <time>2020-11-30T17:13:26.000Z</time>
            </trkpt>
            <trkpt lat="40.920893" lon="-8.529293">
                <ele>191.7</ele>
                <time>2020-11-30T17:13:27.000Z</time>
            </trkpt>
            <trkpt lat="40.920919" lon="-8.529299">
                <ele>192.0</ele>
                <time>2020-11-30T17:13:28.000Z</time>
            </trkpt>
            <trkpt lat="40.920945" lon="-8.529303">
                <ele>192.3</ele>
                <time>2020-11-30T17:13:29.000Z</time>
            </trkpt>
            <trkpt lat="40.92097" lon="-8.529307">
                <ele>192.5</ele>
                <time>2020-11-30T17:13:30.000Z</time>
            </trkpt>
            <trkpt lat="40.920994" lon="-8.529309">
                <ele>192.8</ele>
                <time>2020-11-30T17:13:31.000Z</time>
            </trkpt>
            <trkpt lat="40.921017" lon="-8.529308">
                <ele>193.0</ele>
                <time>2020-11-30T17:13:32.000Z</time>
            </trkpt>
            <trkpt lat="40.921039" lon="-8.529304">
                <ele>193.2</ele>
                <time>2020-11-30T17:13:33.000Z</time>
            </trkpt>
            <trkpt lat="40.921059" lon="-8.529298">
                <ele>193.4</ele>
                <time>2020-11-30T17:13:34.000Z</time>
            </trkpt>
            <trkpt lat="40.921078" lon="-8.529287">
                <ele>193.5</ele>
                <time>2020-11-30T17:13:35.000Z</time>
            </trkpt>
            <trkpt lat="40.921095" lon="-8.529273">
                <ele>193.6</ele>
                <time>2020-11-30T17:13:36.000Z</time>
            </trkpt>
            <trkpt lat="40.92111" lon="-8.529256">
                <ele>193.7</ele>
                <time>2020-11-30T17:13:37.000Z</time>
            </trkpt>
            <trkpt lat="40.921122" lon="-8.529237">
                <ele>193.7</ele>
                <time>2020-11-30T17:13:38.000Z</time>
            </trkpt>
            <trkpt lat="40.921133" lon="-8.529215">
                <ele>193.7</ele>
                <time>2020-11-30T17:13:39.000Z</time>
            </trkpt>
            <trkpt lat="40.921142" lon="-8.529192">
                <ele>193.7</ele>
                <time>2020-11-30T17:13:40.000Z</time>
            </trkpt>
            <trkpt lat="40.921149" lon="-8.529167">
                <ele>193.7</ele>
                <time>2020-11-30T17:13:41.000Z</time>
            </trkpt>
            <trkpt lat="40.921156" lon="-8.529142">
                <ele>193.5</ele>
                <time>2020-11-30T17:13:42.000Z</time>
            </trkpt>
            <trkpt lat="40.921162" lon="-8.529116">
                <ele>193.4</ele>
                <time>2020-11-30T17:13:43.000Z</time>
            </trkpt>
            <trkpt lat="40.92117" lon="-8.529091">
                <ele>193.3</ele>
                <time>2020-11-30T17:13:44.000Z</time>
            </trkpt>
            <trkpt lat="40.921179" lon="-8.529065">
                <ele>193.2</ele>
                <time>2020-11-30T17:13:45.000Z</time>
            </trkpt>
            <trkpt lat="40.921189" lon="-8.52904">
                <ele>193.1</ele>
                <time>2020-11-30T17:13:46.000Z</time>
            </trkpt>
            <trkpt lat="40.921201" lon="-8.529015">
                <ele>193.0</ele>
                <time>2020-11-30T17:13:47.000Z</time>
            </trkpt>
            <trkpt lat="40.921214" lon="-8.528991">
                <ele>193.0</ele>
                <time>2020-11-30T17:13:48.000Z</time>
            </trkpt>
            <trkpt lat="40.921227" lon="-8.528966">
                <ele>192.9</ele>
                <time>2020-11-30T17:13:49.000Z</time>
            </trkpt>
            <trkpt lat="40.921241" lon="-8.528941">
                <ele>192.8</ele>
                <time>2020-11-30T17:13:50.000Z</time>
            </trkpt>
            <trkpt lat="40.921255" lon="-8.528916">
                <ele>192.7</ele>
                <time>2020-11-30T17:13:51.000Z</time>
            </trkpt>
            <trkpt lat="40.921269" lon="-8.52889">
                <ele>192.7</ele>
                <time>2020-11-30T17:13:52.000Z</time>
            </trkpt>
            <trkpt lat="40.921283" lon="-8.528864">
                <ele>192.6</ele>
                <time>2020-11-30T17:13:53.000Z</time>
            </trkpt>
            <trkpt lat="40.921296" lon="-8.528837">
                <ele>192.5</ele>
                <time>2020-11-30T17:13:54.000Z</time>
            </trkpt>
            <trkpt lat="40.921309" lon="-8.528809">
                <ele>192.4</ele>
                <time>2020-11-30T17:13:55.000Z</time>
            </trkpt>
            <trkpt lat="40.921321" lon="-8.528781">
                <ele>192.2</ele>
                <time>2020-11-30T17:13:56.000Z</time>
            </trkpt>
            <trkpt lat="40.921332" lon="-8.528752">
                <ele>192.1</ele>
                <time>2020-11-30T17:13:57.000Z</time>
            </trkpt>
            <trkpt lat="40.921342" lon="-8.528722">
                <ele>192.0</ele>
                <time>2020-11-30T17:13:58.000Z</time>
            </trkpt>
            <trkpt lat="40.921352" lon="-8.528692">
                <ele>191.8</ele>
                <time>2020-11-30T17:13:59.000Z</time>
            </trkpt>
            <trkpt lat="40.921362" lon="-8.528662">
                <ele>191.6</ele>
                <time>2020-11-30T17:14:00.000Z</time>
            </trkpt>
            <trkpt lat="40.921373" lon="-8.528633">
                <ele>191.5</ele>
                <time>2020-11-30T17:14:01.000Z</time>
            </trkpt>
            <trkpt lat="40.921383" lon="-8.528603">
                <ele>191.3</ele>
                <time>2020-11-30T17:14:02.000Z</time>
            </trkpt>
            <trkpt lat="40.921395" lon="-8.528574">
                <ele>191.2</ele>
                <time>2020-11-30T17:14:03.000Z</time>
            </trkpt>
            <trkpt lat="40.921408" lon="-8.528546">
                <ele>191.1</ele>
                <time>2020-11-30T17:14:04.000Z</time>
            </trkpt>
            <trkpt lat="40.921421" lon="-8.528519">
                <ele>191.0</ele>
                <time>2020-11-30T17:14:05.000Z</time>
            </trkpt>
            <trkpt lat="40.921437" lon="-8.528493">
                <ele>190.9</ele>
                <time>2020-11-30T17:14:06.000Z</time>
            </trkpt>
            <trkpt lat="40.921453" lon="-8.528467">
                <ele>190.8</ele>
                <time>2020-11-30T17:14:07.000Z</time>
            </trkpt>
            <trkpt lat="40.921469" lon="-8.528441">
                <ele>190.7</ele>
                <time>2020-11-30T17:14:08.000Z</time>
            </trkpt>
            <trkpt lat="40.921485" lon="-8.528415">
                <ele>190.6</ele>
                <time>2020-11-30T17:14:09.000Z</time>
            </trkpt>
            <trkpt lat="40.9215" lon="-8.528387">
                <ele>190.4</ele>
                <time>2020-11-30T17:14:10.000Z</time>
            </trkpt>
            <trkpt lat="40.921514" lon="-8.528357">
                <ele>190.3</ele>
                <time>2020-11-30T17:14:11.000Z</time>
            </trkpt>
            <trkpt lat="40.921527" lon="-8.528325">
                <ele>190.2</ele>
                <time>2020-11-30T17:14:12.000Z</time>
            </trkpt>
            <trkpt lat="40.921539" lon="-8.528295">
                <ele>190.2</ele>
                <time>2020-11-30T17:14:13.000Z</time>
            </trkpt>
            <trkpt lat="40.921552" lon="-8.528265">
                <ele>190.3</ele>
                <time>2020-11-30T17:14:14.000Z</time>
            </trkpt>
            <trkpt lat="40.921565" lon="-8.528238">
                <ele>190.4</ele>
                <time>2020-11-30T17:14:15.000Z</time>
            </trkpt>
            <trkpt lat="40.92158" lon="-8.528214">
                <ele>190.5</ele>
                <time>2020-11-30T17:14:16.000Z</time>
            </trkpt>
            <trkpt lat="40.921596" lon="-8.528194">
                <ele>190.7</ele>
                <time>2020-11-30T17:14:17.000Z</time>
            </trkpt>
            <trkpt lat="40.921613" lon="-8.528177">
                <ele>190.8</ele>
                <time>2020-11-30T17:14:18.000Z</time>
            </trkpt>
            <trkpt lat="40.921631" lon="-8.528163">
                <ele>190.9</ele>
                <time>2020-11-30T17:14:19.000Z</time>
            </trkpt>
            <trkpt lat="40.92165" lon="-8.528151">
                <ele>191.1</ele>
                <time>2020-11-30T17:14:20.000Z</time>
            </trkpt>
            <trkpt lat="40.92167" lon="-8.528142">
                <ele>191.2</ele>
                <time>2020-11-30T17:14:21.000Z</time>
            </trkpt>
            <trkpt lat="40.92169" lon="-8.528136">
                <ele>191.3</ele>
                <time>2020-11-30T17:14:22.000Z</time>
            </trkpt>
            <trkpt lat="40.921712" lon="-8.528131">
                <ele>191.4</ele>
                <time>2020-11-30T17:14:23.000Z</time>
            </trkpt>
            <trkpt lat="40.921733" lon="-8.528129">
                <ele>191.5</ele>
                <time>2020-11-30T17:14:24.000Z</time>
            </trkpt>
            <trkpt lat="40.921755" lon="-8.528128">
                <ele>191.6</ele>
                <time>2020-11-30T17:14:25.000Z</time>
            </trkpt>
            <trkpt lat="40.921778" lon="-8.528129">
                <ele>191.7</ele>
                <time>2020-11-30T17:14:26.000Z</time>
            </trkpt>
            <trkpt lat="40.9218" lon="-8.52813">
                <ele>191.8</ele>
                <time>2020-11-30T17:14:27.000Z</time>
            </trkpt>
            <trkpt lat="40.921823" lon="-8.528132">
                <ele>191.9</ele>
                <time>2020-11-30T17:14:28.000Z</time>
            </trkpt>
            <trkpt lat="40.921845" lon="-8.528133">
                <ele>192.0</ele>
                <time>2020-11-30T17:14:29.000Z</time>
            </trkpt>
            <trkpt lat="40.921867" lon="-8.528133">
                <ele>192.1</ele>
                <time>2020-11-30T17:14:30.000Z</time>
            </trkpt>
            <trkpt lat="40.921888" lon="-8.528131">
                <ele>192.2</ele>
                <time>2020-11-30T17:14:31.000Z</time>
            </trkpt>
            <trkpt lat="40.921909" lon="-8.528128">
                <ele>192.3</ele>
                <time>2020-11-30T17:14:32.000Z</time>
            </trkpt>
            <trkpt lat="40.92193" lon="-8.528123">
                <ele>192.4</ele>
                <time>2020-11-30T17:14:33.000Z</time>
            </trkpt>
            <trkpt lat="40.921951" lon="-8.528117">
                <ele>192.5</ele>
                <time>2020-11-30T17:14:34.000Z</time>
            </trkpt>
            <trkpt lat="40.921975" lon="-8.528112">
                <ele>192.6</ele>
                <time>2020-11-30T17:14:35.000Z</time>
            </trkpt>
            <trkpt lat="40.922001" lon="-8.528108">
                <ele>192.7</ele>
                <time>2020-11-30T17:14:36.000Z</time>
            </trkpt>
            <trkpt lat="40.922031" lon="-8.528105">
                <ele>192.8</ele>
                <time>2020-11-30T17:14:37.000Z</time>
            </trkpt>
            <trkpt lat="40.922063" lon="-8.528104">
                <ele>193.0</ele>
                <time>2020-11-30T17:14:38.000Z</time>
            </trkpt>
            <trkpt lat="40.922095" lon="-8.528104">
                <ele>193.1</ele>
                <time>2020-11-30T17:14:39.000Z</time>
            </trkpt>
            <trkpt lat="40.922127" lon="-8.528105">
                <ele>193.2</ele>
                <time>2020-11-30T17:14:40.000Z</time>
            </trkpt>
            <trkpt lat="40.922157" lon="-8.528105">
                <ele>193.4</ele>
                <time>2020-11-30T17:14:41.000Z</time>
            </trkpt>
            <trkpt lat="40.922185" lon="-8.528106">
                <ele>193.5</ele>
                <time>2020-11-30T17:14:42.000Z</time>
            </trkpt>
            <trkpt lat="40.92221" lon="-8.528106">
                <ele>193.6</ele>
                <time>2020-11-30T17:14:43.000Z</time>
            </trkpt>
            <trkpt lat="40.922233" lon="-8.528106">
                <ele>193.7</ele>
                <time>2020-11-30T17:14:44.000Z</time>
            </trkpt>
            <trkpt lat="40.922255" lon="-8.528105">
                <ele>193.8</ele>
                <time>2020-11-30T17:14:45.000Z</time>
            </trkpt>
            <trkpt lat="40.922278" lon="-8.528105">
                <ele>193.9</ele>
                <time>2020-11-30T17:14:46.000Z</time>
            </trkpt>
            <trkpt lat="40.922301" lon="-8.528104">
                <ele>194.0</ele>
                <time>2020-11-30T17:14:47.000Z</time>
            </trkpt>
            <trkpt lat="40.922324" lon="-8.528102">
                <ele>194.1</ele>
                <time>2020-11-30T17:14:48.000Z</time>
            </trkpt>
            <trkpt lat="40.922348" lon="-8.528101">
                <ele>194.2</ele>
                <time>2020-11-30T17:14:49.000Z</time>
            </trkpt>
            <trkpt lat="40.922373" lon="-8.5281">
                <ele>194.3</ele>
                <time>2020-11-30T17:14:50.000Z</time>
            </trkpt>
            <trkpt lat="40.922397" lon="-8.528098">
                <ele>194.4</ele>
                <time>2020-11-30T17:14:51.000Z</time>
            </trkpt>
            <trkpt lat="40.922422" lon="-8.528096">
                <ele>194.5</ele>
                <time>2020-11-30T17:14:52.000Z</time>
            </trkpt>
            <trkpt lat="40.922447" lon="-8.528095">
                <ele>194.6</ele>
                <time>2020-11-30T17:14:53.000Z</time>
            </trkpt>
            <trkpt lat="40.922472" lon="-8.528094">
                <ele>194.7</ele>
                <time>2020-11-30T17:14:54.000Z</time>
            </trkpt>
            <trkpt lat="40.922497" lon="-8.528093">
                <ele>194.9</ele>
                <time>2020-11-30T17:14:55.000Z</time>
            </trkpt>
            <trkpt lat="40.922521" lon="-8.528092">
                <ele>194.8</ele>
                <time>2020-11-30T17:14:56.000Z</time>
            </trkpt>
            <trkpt lat="40.922545" lon="-8.528092">
                <ele>194.6</ele>
                <time>2020-11-30T17:14:57.000Z</time>
            </trkpt>
            <trkpt lat="40.922568" lon="-8.528092">
                <ele>194.5</ele>
                <time>2020-11-30T17:14:58.000Z</time>
            </trkpt>
            <trkpt lat="40.922591" lon="-8.528092">
                <ele>194.4</ele>
                <time>2020-11-30T17:14:59.000Z</time>
            </trkpt>
            <trkpt lat="40.922614" lon="-8.528092">
                <ele>194.2</ele>
                <time>2020-11-30T17:15:00.000Z</time>
            </trkpt>
            <trkpt lat="40.922636" lon="-8.528091">
                <ele>194.1</ele>
                <time>2020-11-30T17:15:01.000Z</time>
            </trkpt>
            <trkpt lat="40.922657" lon="-8.528091">
                <ele>194.0</ele>
                <time>2020-11-30T17:15:02.000Z</time>
            </trkpt>
            <trkpt lat="40.922679" lon="-8.52809">
                <ele>193.9</ele>
                <time>2020-11-30T17:15:03.000Z</time>
            </trkpt>
            <trkpt lat="40.922701" lon="-8.528089">
                <ele>193.8</ele>
                <time>2020-11-30T17:15:04.000Z</time>
            </trkpt>
            <trkpt lat="40.922722" lon="-8.528088">
                <ele>193.7</ele>
                <time>2020-11-30T17:15:05.000Z</time>
            </trkpt>
            <trkpt lat="40.922745" lon="-8.528087">
                <ele>193.5</ele>
                <time>2020-11-30T17:15:06.000Z</time>
            </trkpt>
            <trkpt lat="40.922767" lon="-8.528087">
                <ele>193.4</ele>
                <time>2020-11-30T17:15:07.000Z</time>
            </trkpt>
            <trkpt lat="40.92279" lon="-8.528086">
                <ele>193.3</ele>
                <time>2020-11-30T17:15:08.000Z</time>
            </trkpt>
            <trkpt lat="40.922812" lon="-8.528084">
                <ele>193.2</ele>
                <time>2020-11-30T17:15:09.000Z</time>
            </trkpt>
            <trkpt lat="40.922834" lon="-8.52808">
                <ele>193.1</ele>
                <time>2020-11-30T17:15:10.000Z</time>
            </trkpt>
            <trkpt lat="40.922854" lon="-8.528072">
                <ele>193.0</ele>
                <time>2020-11-30T17:15:11.000Z</time>
            </trkpt>
            <trkpt lat="40.922872" lon="-8.52806">
                <ele>192.9</ele>
                <time>2020-11-30T17:15:12.000Z</time>
            </trkpt>
            <trkpt lat="40.922888" lon="-8.528044">
                <ele>192.9</ele>
                <time>2020-11-30T17:15:13.000Z</time>
            </trkpt>
            <trkpt lat="40.922901" lon="-8.528023">
                <ele>192.8</ele>
                <time>2020-11-30T17:15:14.000Z</time>
            </trkpt>
            <trkpt lat="40.922911" lon="-8.528001">
                <ele>192.8</ele>
                <time>2020-11-30T17:15:15.000Z</time>
            </trkpt>
            <trkpt lat="40.922916" lon="-8.527978">
                <ele>192.9</ele>
                <time>2020-11-30T17:15:16.000Z</time>
            </trkpt>
            <trkpt lat="40.922917" lon="-8.527956">
                <ele>192.9</ele>
                <time>2020-11-30T17:15:17.000Z</time>
            </trkpt>
            <trkpt lat="40.922913" lon="-8.527936">
                <ele>193.0</ele>
                <time>2020-11-30T17:15:18.000Z</time>
            </trkpt>
            <trkpt lat="40.922905" lon="-8.527918">
                <ele>193.1</ele>
                <time>2020-11-30T17:15:19.000Z</time>
            </trkpt>
            <trkpt lat="40.922894" lon="-8.527901">
                <ele>193.2</ele>
                <time>2020-11-30T17:15:20.000Z</time>
            </trkpt>
            <trkpt lat="40.922881" lon="-8.527885">
                <ele>193.3</ele>
                <time>2020-11-30T17:15:21.000Z</time>
            </trkpt>
            <trkpt lat="40.922866" lon="-8.527869">
                <ele>193.4</ele>
                <time>2020-11-30T17:15:22.000Z</time>
            </trkpt>
            <trkpt lat="40.922851" lon="-8.527852">
                <ele>193.6</ele>
                <time>2020-11-30T17:15:23.000Z</time>
            </trkpt>
            <trkpt lat="40.922837" lon="-8.527834">
                <ele>193.7</ele>
                <time>2020-11-30T17:15:24.000Z</time>
            </trkpt>
            <trkpt lat="40.922825" lon="-8.527815">
                <ele>193.8</ele>
                <time>2020-11-30T17:15:25.000Z</time>
            </trkpt>
            <trkpt lat="40.922816" lon="-8.527793">
                <ele>193.9</ele>
                <time>2020-11-30T17:15:26.000Z</time>
            </trkpt>
            <trkpt lat="40.922811" lon="-8.527769">
                <ele>194.0</ele>
                <time>2020-11-30T17:15:27.000Z</time>
            </trkpt>
            <trkpt lat="40.92281" lon="-8.527742">
                <ele>194.1</ele>
                <time>2020-11-30T17:15:28.000Z</time>
            </trkpt>
            <trkpt lat="40.922813" lon="-8.527712">
                <ele>194.2</ele>
                <time>2020-11-30T17:15:29.000Z</time>
            </trkpt>
            <trkpt lat="40.922819" lon="-8.52768">
                <ele>194.2</ele>
                <time>2020-11-30T17:15:30.000Z</time>
            </trkpt>
            <trkpt lat="40.922827" lon="-8.527648">
                <ele>194.3</ele>
                <time>2020-11-30T17:15:31.000Z</time>
            </trkpt>
            <trkpt lat="40.922837" lon="-8.527616">
                <ele>194.3</ele>
                <time>2020-11-30T17:15:32.000Z</time>
            </trkpt>
            <trkpt lat="40.922846" lon="-8.527586">
                <ele>194.3</ele>
                <time>2020-11-30T17:15:33.000Z</time>
            </trkpt>
            <trkpt lat="40.922856" lon="-8.527556">
                <ele>194.3</ele>
                <time>2020-11-30T17:15:34.000Z</time>
            </trkpt>
            <trkpt lat="40.922866" lon="-8.527526">
                <ele>194.3</ele>
                <time>2020-11-30T17:15:35.000Z</time>
            </trkpt>
            <trkpt lat="40.922876" lon="-8.527496">
                <ele>194.3</ele>
                <time>2020-11-30T17:15:36.000Z</time>
            </trkpt>
            <trkpt lat="40.922885" lon="-8.527464">
                <ele>194.4</ele>
                <time>2020-11-30T17:15:37.000Z</time>
            </trkpt>
            <trkpt lat="40.922894" lon="-8.527432">
                <ele>194.4</ele>
                <time>2020-11-30T17:15:38.000Z</time>
            </trkpt>
            <trkpt lat="40.922903" lon="-8.527398">
                <ele>194.5</ele>
                <time>2020-11-30T17:15:39.000Z</time>
            </trkpt>
            <trkpt lat="40.922912" lon="-8.527363">
                <ele>194.6</ele>
                <time>2020-11-30T17:15:40.000Z</time>
            </trkpt>
            <trkpt lat="40.922921" lon="-8.527327">
                <ele>194.7</ele>
                <time>2020-11-30T17:15:41.000Z</time>
            </trkpt>
            <trkpt lat="40.92293" lon="-8.527292">
                <ele>194.8</ele>
                <time>2020-11-30T17:15:42.000Z</time>
            </trkpt>
            <trkpt lat="40.922939" lon="-8.527257">
                <ele>194.9</ele>
                <time>2020-11-30T17:15:43.000Z</time>
            </trkpt>
            <trkpt lat="40.922948" lon="-8.527223">
                <ele>195.0</ele>
                <time>2020-11-30T17:15:44.000Z</time>
            </trkpt>
            <trkpt lat="40.922958" lon="-8.527191">
                <ele>195.1</ele>
                <time>2020-11-30T17:15:45.000Z</time>
            </trkpt>
            <trkpt lat="40.922969" lon="-8.527159">
                <ele>195.2</ele>
                <time>2020-11-30T17:15:46.000Z</time>
            </trkpt>
            <trkpt lat="40.922981" lon="-8.52713">
                <ele>195.3</ele>
                <time>2020-11-30T17:15:47.000Z</time>
            </trkpt>
            <trkpt lat="40.922993" lon="-8.527103">
                <ele>195.3</ele>
                <time>2020-11-30T17:15:48.000Z</time>
            </trkpt>
            <trkpt lat="40.923007" lon="-8.527079">
                <ele>195.4</ele>
                <time>2020-11-30T17:15:49.000Z</time>
            </trkpt>
            <trkpt lat="40.923021" lon="-8.527056">
                <ele>195.4</ele>
                <time>2020-11-30T17:15:50.000Z</time>
            </trkpt>
            <trkpt lat="40.923035" lon="-8.527035">
                <ele>195.5</ele>
                <time>2020-11-30T17:15:51.000Z</time>
            </trkpt>
            <trkpt lat="40.92305" lon="-8.527016">
                <ele>195.5</ele>
                <time>2020-11-30T17:15:52.000Z</time>
            </trkpt>
            <trkpt lat="40.923066" lon="-8.526998">
                <ele>195.6</ele>
                <time>2020-11-30T17:15:53.000Z</time>
            </trkpt>
            <trkpt lat="40.923082" lon="-8.526981">
                <ele>195.6</ele>
                <time>2020-11-30T17:15:54.000Z</time>
            </trkpt>
            <trkpt lat="40.923098" lon="-8.526966">
                <ele>195.6</ele>
                <time>2020-11-30T17:15:55.000Z</time>
            </trkpt>
            <trkpt lat="40.923114" lon="-8.52695">
                <ele>195.7</ele>
                <time>2020-11-30T17:15:56.000Z</time>
            </trkpt>
            <trkpt lat="40.92313" lon="-8.526936">
                <ele>195.7</ele>
                <time>2020-11-30T17:15:57.000Z</time>
            </trkpt>
            <trkpt lat="40.923146" lon="-8.526922">
                <ele>195.7</ele>
                <time>2020-11-30T17:15:58.000Z</time>
            </trkpt>
            <trkpt lat="40.923161" lon="-8.526907">
                <ele>195.8</ele>
                <time>2020-11-30T17:15:59.000Z</time>
            </trkpt>
            <trkpt lat="40.923177" lon="-8.526893">
                <ele>195.8</ele>
                <time>2020-11-30T17:16:00.000Z</time>
            </trkpt>
            <trkpt lat="40.923192" lon="-8.526878">
                <ele>195.9</ele>
                <time>2020-11-30T17:16:01.000Z</time>
            </trkpt>
            <trkpt lat="40.923206" lon="-8.526863">
                <ele>195.9</ele>
                <time>2020-11-30T17:16:02.000Z</time>
            </trkpt>
            <trkpt lat="40.92322" lon="-8.526848">
                <ele>196.0</ele>
                <time>2020-11-30T17:16:03.000Z</time>
            </trkpt>
            <trkpt lat="40.923233" lon="-8.526831">
                <ele>196.1</ele>
                <time>2020-11-30T17:16:04.000Z</time>
            </trkpt>
            <trkpt lat="40.923245" lon="-8.526815">
                <ele>196.1</ele>
                <time>2020-11-30T17:16:05.000Z</time>
            </trkpt>
            <trkpt lat="40.923257" lon="-8.526801">
                <ele>196.2</ele>
                <time>2020-11-30T17:16:06.000Z</time>
            </trkpt>
            <trkpt lat="40.92327" lon="-8.526789">
                <ele>196.3</ele>
                <time>2020-11-30T17:16:07.000Z</time>
            </trkpt>
            <trkpt lat="40.923282" lon="-8.526782">
                <ele>196.3</ele>
                <time>2020-11-30T17:16:08.000Z</time>
            </trkpt>
            <trkpt lat="40.923294" lon="-8.526779">
                <ele>196.3</ele>
                <time>2020-11-30T17:16:09.000Z</time>
            </trkpt>
            <trkpt lat="40.923308" lon="-8.52678">
                <ele>196.2</ele>
                <time>2020-11-30T17:16:10.000Z</time>
            </trkpt>
            <trkpt lat="40.923322" lon="-8.526786">
                <ele>196.2</ele>
                <time>2020-11-30T17:16:11.000Z</time>
            </trkpt>
            <trkpt lat="40.923338" lon="-8.526795">
                <ele>196.0</ele>
                <time>2020-11-30T17:16:12.000Z</time>
            </trkpt>
            <trkpt lat="40.923354" lon="-8.526807">
                <ele>195.7</ele>
                <time>2020-11-30T17:16:13.000Z</time>
            </trkpt>
            <trkpt lat="40.923372" lon="-8.526822">
                <ele>195.4</ele>
                <time>2020-11-30T17:16:14.000Z</time>
            </trkpt>
            <trkpt lat="40.923389" lon="-8.526839">
                <ele>195.1</ele>
                <time>2020-11-30T17:16:15.000Z</time>
            </trkpt>
            <trkpt lat="40.9234" lon="-8.526858">
                <ele>194.9</ele>
                <time>2020-11-30T17:16:16.000Z</time>
            </trkpt>
            <trkpt lat="40.923405" lon="-8.526879">
                <ele>194.7</ele>
                <time>2020-11-30T17:16:17.000Z</time>
            </trkpt>
            <trkpt lat="40.923404" lon="-8.526899">
                <ele>194.5</ele>
                <time>2020-11-30T17:16:18.000Z</time>
            </trkpt>
            <trkpt lat="40.9234" lon="-8.526918">
                <ele>194.4</ele>
                <time>2020-11-30T17:16:19.000Z</time>
            </trkpt>
            <trkpt lat="40.923394" lon="-8.526937">
                <ele>194.4</ele>
                <time>2020-11-30T17:16:20.000Z</time>
            </trkpt>
            <trkpt lat="40.923384" lon="-8.526955">
                <ele>194.4</ele>
                <time>2020-11-30T17:16:21.000Z</time>
            </trkpt>
            <trkpt lat="40.923373" lon="-8.526973">
                <ele>194.4</ele>
                <time>2020-11-30T17:16:22.000Z</time>
            </trkpt>
            <trkpt lat="40.923358" lon="-8.526991">
                <ele>194.4</ele>
                <time>2020-11-30T17:16:23.000Z</time>
            </trkpt>
            <trkpt lat="40.923342" lon="-8.52701">
                <ele>194.4</ele>
                <time>2020-11-30T17:16:24.000Z</time>
            </trkpt>
            <trkpt lat="40.923325" lon="-8.527029">
                <ele>194.4</ele>
                <time>2020-11-30T17:16:25.000Z</time>
            </trkpt>
            <trkpt lat="40.923308" lon="-8.52705">
                <ele>194.3</ele>
                <time>2020-11-30T17:16:26.000Z</time>
            </trkpt>
            <trkpt lat="40.923293" lon="-8.527071">
                <ele>194.3</ele>
                <time>2020-11-30T17:16:27.000Z</time>
            </trkpt>
            <trkpt lat="40.923282" lon="-8.527093">
                <ele>194.1</ele>
                <time>2020-11-30T17:16:28.000Z</time>
            </trkpt>
            <trkpt lat="40.923274" lon="-8.527116">
                <ele>194.0</ele>
                <time>2020-11-30T17:16:29.000Z</time>
            </trkpt>
            <trkpt lat="40.923271" lon="-8.527139">
                <ele>193.9</ele>
                <time>2020-11-30T17:16:30.000Z</time>
            </trkpt>
            <trkpt lat="40.923272" lon="-8.527162">
                <ele>193.7</ele>
                <time>2020-11-30T17:16:31.000Z</time>
            </trkpt>
            <trkpt lat="40.923275" lon="-8.527186">
                <ele>193.5</ele>
                <time>2020-11-30T17:16:32.000Z</time>
            </trkpt>
            <trkpt lat="40.923282" lon="-8.527209">
                <ele>193.4</ele>
                <time>2020-11-30T17:16:33.000Z</time>
            </trkpt>
            <trkpt lat="40.92329" lon="-8.527231">
                <ele>193.2</ele>
                <time>2020-11-30T17:16:34.000Z</time>
            </trkpt>
            <trkpt lat="40.9233" lon="-8.527253">
                <ele>193.0</ele>
                <time>2020-11-30T17:16:35.000Z</time>
            </trkpt>
            <trkpt lat="40.92331" lon="-8.527273">
                <ele>192.8</ele>
                <time>2020-11-30T17:16:36.000Z</time>
            </trkpt>
            <trkpt lat="40.923322" lon="-8.527292">
                <ele>192.6</ele>
                <time>2020-11-30T17:16:37.000Z</time>
            </trkpt>
            <trkpt lat="40.923333" lon="-8.52731">
                <ele>192.4</ele>
                <time>2020-11-30T17:16:38.000Z</time>
            </trkpt>
            <trkpt lat="40.923344" lon="-8.527325">
                <ele>192.2</ele>
                <time>2020-11-30T17:16:39.000Z</time>
            </trkpt>
            <trkpt lat="40.923354" lon="-8.527338">
                <ele>192.0</ele>
                <time>2020-11-30T17:16:40.000Z</time>
            </trkpt>
            <trkpt lat="40.923363" lon="-8.52735">
                <ele>191.8</ele>
                <time>2020-11-30T17:16:41.000Z</time>
            </trkpt>
            <trkpt lat="40.923372" lon="-8.52736">
                <ele>191.6</ele>
                <time>2020-11-30T17:16:42.000Z</time>
            </trkpt>
            <trkpt lat="40.923381" lon="-8.527369">
                <ele>191.5</ele>
                <time>2020-11-30T17:16:43.000Z</time>
            </trkpt>
            <trkpt lat="40.92339" lon="-8.527377">
                <ele>191.3</ele>
                <time>2020-11-30T17:16:44.000Z</time>
            </trkpt>
            <trkpt lat="40.923399" lon="-8.527386">
                <ele>191.2</ele>
                <time>2020-11-30T17:16:45.000Z</time>
            </trkpt>
            <trkpt lat="40.92341" lon="-8.527395">
                <ele>191.0</ele>
                <time>2020-11-30T17:16:46.000Z</time>
            </trkpt>
            <trkpt lat="40.923421" lon="-8.527404">
                <ele>190.8</ele>
                <time>2020-11-30T17:16:47.000Z</time>
            </trkpt>
            <trkpt lat="40.923435" lon="-8.527415">
                <ele>190.6</ele>
                <time>2020-11-30T17:16:48.000Z</time>
            </trkpt>
            <trkpt lat="40.92345" lon="-8.527427">
                <ele>190.4</ele>
                <time>2020-11-30T17:16:49.000Z</time>
            </trkpt>
            <trkpt lat="40.923466" lon="-8.527441">
                <ele>190.1</ele>
                <time>2020-11-30T17:16:50.000Z</time>
            </trkpt>
            <trkpt lat="40.923485" lon="-8.527458">
                <ele>189.8</ele>
                <time>2020-11-30T17:16:51.000Z</time>
            </trkpt>
            <trkpt lat="40.923504" lon="-8.527476">
                <ele>189.5</ele>
                <time>2020-11-30T17:16:52.000Z</time>
            </trkpt>
            <trkpt lat="40.923523" lon="-8.527496">
                <ele>189.2</ele>
                <time>2020-11-30T17:16:53.000Z</time>
            </trkpt>
            <trkpt lat="40.923542" lon="-8.527518">
                <ele>189.0</ele>
                <time>2020-11-30T17:16:54.000Z</time>
            </trkpt>
            <trkpt lat="40.92356" lon="-8.527542">
                <ele>188.7</ele>
                <time>2020-11-30T17:16:55.000Z</time>
            </trkpt>
            <trkpt lat="40.923577" lon="-8.527565">
                <ele>188.5</ele>
                <time>2020-11-30T17:16:56.000Z</time>
            </trkpt>
            <trkpt lat="40.923592" lon="-8.527588">
                <ele>188.3</ele>
                <time>2020-11-30T17:16:57.000Z</time>
            </trkpt>
            <trkpt lat="40.923606" lon="-8.527607">
                <ele>188.1</ele>
                <time>2020-11-30T17:16:58.000Z</time>
            </trkpt>
            <trkpt lat="40.923618" lon="-8.527622">
                <ele>187.9</ele>
                <time>2020-11-30T17:16:59.000Z</time>
            </trkpt>
            <trkpt lat="40.923628" lon="-8.527631">
                <ele>187.8</ele>
                <time>2020-11-30T17:17:00.000Z</time>
            </trkpt>
            <trkpt lat="40.923636" lon="-8.527636">
                <ele>187.7</ele>
                <time>2020-11-30T17:17:01.000Z</time>
            </trkpt>
            <trkpt lat="40.923645" lon="-8.52764">
                <ele>187.6</ele>
                <time>2020-11-30T17:17:02.000Z</time>
            </trkpt>
            <trkpt lat="40.923654" lon="-8.527644">
                <ele>187.5</ele>
                <time>2020-11-30T17:17:03.000Z</time>
            </trkpt>
            <trkpt lat="40.923665" lon="-8.527651">
                <ele>187.3</ele>
                <time>2020-11-30T17:17:04.000Z</time>
            </trkpt>
            <trkpt lat="40.923678" lon="-8.527663">
                <ele>187.2</ele>
                <time>2020-11-30T17:17:05.000Z</time>
            </trkpt>
            <trkpt lat="40.923693" lon="-8.527679">
                <ele>187.0</ele>
                <time>2020-11-30T17:17:06.000Z</time>
            </trkpt>
            <trkpt lat="40.923709" lon="-8.527697">
                <ele>186.7</ele>
                <time>2020-11-30T17:17:07.000Z</time>
            </trkpt>
            <trkpt lat="40.923725" lon="-8.527716">
                <ele>186.5</ele>
                <time>2020-11-30T17:17:08.000Z</time>
            </trkpt>
            <trkpt lat="40.923741" lon="-8.527734">
                <ele>186.3</ele>
                <time>2020-11-30T17:17:09.000Z</time>
            </trkpt>
            <trkpt lat="40.923754" lon="-8.527751">
                <ele>186.1</ele>
                <time>2020-11-30T17:17:10.000Z</time>
            </trkpt>
            <trkpt lat="40.923767" lon="-8.527767">
                <ele>185.8</ele>
                <time>2020-11-30T17:17:11.000Z</time>
            </trkpt>
            <trkpt lat="40.923777" lon="-8.527782">
                <ele>185.7</ele>
                <time>2020-11-30T17:17:12.000Z</time>
            </trkpt>
            <trkpt lat="40.923786" lon="-8.527795">
                <ele>185.5</ele>
                <time>2020-11-30T17:17:13.000Z</time>
            </trkpt>
            <trkpt lat="40.923792" lon="-8.527809">
                <ele>185.4</ele>
                <time>2020-11-30T17:17:14.000Z</time>
            </trkpt>
            <trkpt lat="40.923797" lon="-8.527823">
                <ele>185.3</ele>
                <time>2020-11-30T17:17:15.000Z</time>
            </trkpt>
            <trkpt lat="40.923799" lon="-8.527837">
                <ele>185.2</ele>
                <time>2020-11-30T17:17:16.000Z</time>
            </trkpt>
            <trkpt lat="40.9238" lon="-8.527852">
                <ele>185.2</ele>
                <time>2020-11-30T17:17:17.000Z</time>
            </trkpt>
            <trkpt lat="40.9238" lon="-8.527868">
                <ele>185.1</ele>
                <time>2020-11-30T17:17:18.000Z</time>
            </trkpt>
            <trkpt lat="40.923799" lon="-8.527884">
                <ele>185.0</ele>
                <time>2020-11-30T17:17:19.000Z</time>
            </trkpt>
            <trkpt lat="40.923799" lon="-8.527901">
                <ele>185.0</ele>
                <time>2020-11-30T17:17:20.000Z</time>
            </trkpt>
            <trkpt lat="40.923799" lon="-8.527918">
                <ele>184.9</ele>
                <time>2020-11-30T17:17:21.000Z</time>
            </trkpt>
            <trkpt lat="40.9238" lon="-8.527936">
                <ele>184.8</ele>
                <time>2020-11-30T17:17:22.000Z</time>
            </trkpt>
            <trkpt lat="40.923801" lon="-8.527956">
                <ele>184.7</ele>
                <time>2020-11-30T17:17:23.000Z</time>
            </trkpt>
            <trkpt lat="40.923803" lon="-8.527978">
                <ele>184.6</ele>
                <time>2020-11-30T17:17:24.000Z</time>
            </trkpt>
            <trkpt lat="40.923804" lon="-8.528002">
                <ele>184.5</ele>
                <time>2020-11-30T17:17:25.000Z</time>
            </trkpt>
            <trkpt lat="40.923805" lon="-8.528028">
                <ele>184.4</ele>
                <time>2020-11-30T17:17:26.000Z</time>
            </trkpt>
            <trkpt lat="40.923806" lon="-8.528056">
                <ele>184.3</ele>
                <time>2020-11-30T17:17:27.000Z</time>
            </trkpt>
            <trkpt lat="40.923806" lon="-8.528083">
                <ele>184.2</ele>
                <time>2020-11-30T17:17:28.000Z</time>
            </trkpt>
            <trkpt lat="40.923806" lon="-8.528108">
                <ele>184.1</ele>
                <time>2020-11-30T17:17:29.000Z</time>
            </trkpt>
            <trkpt lat="40.923805" lon="-8.528128">
                <ele>184.0</ele>
                <time>2020-11-30T17:17:30.000Z</time>
            </trkpt>
            <trkpt lat="40.923803" lon="-8.528144">
                <ele>184.0</ele>
                <time>2020-11-30T17:17:31.000Z</time>
            </trkpt>
            <trkpt lat="40.923801" lon="-8.528155">
                <ele>184.0</ele>
                <time>2020-11-30T17:17:32.000Z</time>
            </trkpt>
            <trkpt lat="40.9238" lon="-8.528163">
                <ele>183.9</ele>
                <time>2020-11-30T17:17:33.000Z</time>
            </trkpt>
            <trkpt lat="40.923799" lon="-8.52817">
                <ele>183.9</ele>
                <time>2020-11-30T17:17:34.000Z</time>
            </trkpt>
            <trkpt lat="40.923799" lon="-8.528176">
                <ele>183.9</ele>
                <time>2020-11-30T17:17:35.000Z</time>
            </trkpt>
            <trkpt lat="40.923801" lon="-8.528185">
                <ele>183.8</ele>
                <time>2020-11-30T17:17:36.000Z</time>
            </trkpt>
            <trkpt lat="40.923805" lon="-8.528196">
                <ele>183.7</ele>
                <time>2020-11-30T17:17:37.000Z</time>
            </trkpt>
            <trkpt lat="40.92381" lon="-8.52821">
                <ele>183.6</ele>
                <time>2020-11-30T17:17:38.000Z</time>
            </trkpt>
            <trkpt lat="40.923816" lon="-8.528226">
                <ele>183.5</ele>
                <time>2020-11-30T17:17:39.000Z</time>
            </trkpt>
            <trkpt lat="40.923822" lon="-8.528246">
                <ele>183.3</ele>
                <time>2020-11-30T17:17:40.000Z</time>
            </trkpt>
            <trkpt lat="40.923826" lon="-8.528268">
                <ele>183.2</ele>
                <time>2020-11-30T17:17:41.000Z</time>
            </trkpt>
            <trkpt lat="40.923829" lon="-8.528293">
                <ele>183.0</ele>
                <time>2020-11-30T17:17:42.000Z</time>
            </trkpt>
            <trkpt lat="40.923829" lon="-8.52832">
                <ele>182.9</ele>
                <time>2020-11-30T17:17:43.000Z</time>
            </trkpt>
            <trkpt lat="40.923829" lon="-8.528349">
                <ele>182.9</ele>
                <time>2020-11-30T17:17:44.000Z</time>
            </trkpt>
            <trkpt lat="40.923827" lon="-8.528378">
                <ele>182.9</ele>
                <time>2020-11-30T17:17:45.000Z</time>
            </trkpt>
            <trkpt lat="40.923823" lon="-8.528407">
                <ele>183.0</ele>
                <time>2020-11-30T17:17:46.000Z</time>
            </trkpt>
            <trkpt lat="40.92382" lon="-8.528436">
                <ele>183.1</ele>
                <time>2020-11-30T17:17:47.000Z</time>
            </trkpt>
            <trkpt lat="40.923815" lon="-8.528464">
                <ele>183.1</ele>
                <time>2020-11-30T17:17:48.000Z</time>
            </trkpt>
            <trkpt lat="40.923811" lon="-8.52849">
                <ele>183.2</ele>
                <time>2020-11-30T17:17:49.000Z</time>
            </trkpt>
            <trkpt lat="40.923807" lon="-8.528514">
                <ele>183.3</ele>
                <time>2020-11-30T17:17:50.000Z</time>
            </trkpt>
            <trkpt lat="40.923803" lon="-8.528535">
                <ele>183.3</ele>
                <time>2020-11-30T17:17:51.000Z</time>
            </trkpt>
            <trkpt lat="40.9238" lon="-8.528552">
                <ele>183.4</ele>
                <time>2020-11-30T17:17:52.000Z</time>
            </trkpt>
            <trkpt lat="40.923797" lon="-8.528566">
                <ele>183.4</ele>
                <time>2020-11-30T17:17:53.000Z</time>
            </trkpt>
            <trkpt lat="40.923795" lon="-8.528576">
                <ele>183.4</ele>
                <time>2020-11-30T17:17:54.000Z</time>
            </trkpt>
            <trkpt lat="40.923793" lon="-8.528584">
                <ele>183.5</ele>
                <time>2020-11-30T17:17:55.000Z</time>
            </trkpt>
            <trkpt lat="40.923792" lon="-8.52859">
                <ele>183.5</ele>
                <time>2020-11-30T17:17:56.000Z</time>
            </trkpt>
            <trkpt lat="40.923791" lon="-8.528594">
                <ele>183.5</ele>
                <time>2020-11-30T17:17:57.000Z</time>
            </trkpt>
            <trkpt lat="40.92379" lon="-8.528597">
                <ele>183.5</ele>
                <time>2020-11-30T17:17:58.000Z</time>
            </trkpt>
            <trkpt lat="40.92379" lon="-8.528598">
                <ele>183.5</ele>
                <time>2020-11-30T17:17:59.000Z</time>
            </trkpt>
            <trkpt lat="40.92379" lon="-8.528598">
                <ele>183.5</ele>
                <time>2020-11-30T17:18:00.000Z</time>
            </trkpt>
            <trkpt lat="40.92379" lon="-8.528598">
                <ele>183.5</ele>
                <time>2020-11-30T17:18:01.000Z</time>
            </trkpt>
            <trkpt lat="40.92379" lon="-8.528597">
                <ele>183.5</ele>
                <time>2020-11-30T17:18:02.000Z</time>
            </trkpt>
            <trkpt lat="40.92379" lon="-8.528597">
                <ele>183.5</ele>
                <time>2020-11-30T17:18:03.000Z</time>
            </trkpt>
            <trkpt lat="40.92379" lon="-8.528597">
                <ele>183.5</ele>
                <time>2020-11-30T17:18:04.000Z</time>
            </trkpt>
            <trkpt lat="40.92379" lon="-8.528597">
                <ele>183.5</ele>
                <time>2020-11-30T17:18:05.000Z</time>
            </trkpt>
            <trkpt lat="40.92379" lon="-8.528598">
                <ele>183.5</ele>
                <time>2020-11-30T17:18:06.000Z</time>
            </trkpt>
            <trkpt lat="40.92379" lon="-8.528598">
                <ele>183.5</ele>
                <time>2020-11-30T17:18:07.000Z</time>
            </trkpt>
            <trkpt lat="40.92379" lon="-8.528598">
                <ele>183.5</ele>
                <time>2020-11-30T17:18:08.000Z</time>
            </trkpt>
            <trkpt lat="40.92379" lon="-8.528599">
                <ele>183.5</ele>
                <time>2020-11-30T17:18:09.000Z</time>
            </trkpt>
            <trkpt lat="40.92379" lon="-8.528599">
                <ele>183.5</ele>
                <time>2020-11-30T17:18:10.000Z</time>
            </trkpt>
            <trkpt lat="40.923791" lon="-8.5286">
                <ele>183.5</ele>
                <time>2020-11-30T17:18:11.000Z</time>
            </trkpt>
            <trkpt lat="40.923791" lon="-8.5286">
                <ele>183.5</ele>
                <time>2020-11-30T17:18:12.000Z</time>
            </trkpt>
            <trkpt lat="40.923792" lon="-8.528601">
                <ele>183.5</ele>
                <time>2020-11-30T17:18:13.000Z</time>
            </trkpt>
            <trkpt lat="40.923792" lon="-8.528602">
                <ele>183.5</ele>
                <time>2020-11-30T17:18:14.000Z</time>
            </trkpt>
            <trkpt lat="40.923792" lon="-8.528603">
                <ele>183.5</ele>
                <time>2020-11-30T17:18:15.000Z</time>
            </trkpt>
            <trkpt lat="40.923792" lon="-8.528606">
                <ele>183.5</ele>
                <time>2020-11-30T17:18:16.000Z</time>
            </trkpt>
            <trkpt lat="40.923791" lon="-8.52861">
                <ele>183.5</ele>
                <time>2020-11-30T17:18:17.000Z</time>
            </trkpt>
            <trkpt lat="40.92379" lon="-8.528616">
                <ele>183.5</ele>
                <time>2020-11-30T17:18:18.000Z</time>
            </trkpt>
            <trkpt lat="40.923787" lon="-8.528625">
                <ele>183.6</ele>
                <time>2020-11-30T17:18:19.000Z</time>
            </trkpt>
            <trkpt lat="40.923784" lon="-8.528636">
                <ele>183.6</ele>
                <time>2020-11-30T17:18:20.000Z</time>
            </trkpt>
            <trkpt lat="40.923779" lon="-8.528651">
                <ele>183.7</ele>
                <time>2020-11-30T17:18:21.000Z</time>
            </trkpt>
            <trkpt lat="40.923772" lon="-8.528669">
                <ele>183.7</ele>
                <time>2020-11-30T17:18:22.000Z</time>
            </trkpt>
            <trkpt lat="40.923764" lon="-8.528691">
                <ele>183.8</ele>
                <time>2020-11-30T17:18:23.000Z</time>
            </trkpt>
            <trkpt lat="40.923756" lon="-8.528717">
                <ele>183.9</ele>
                <time>2020-11-30T17:18:24.000Z</time>
            </trkpt>
            <trkpt lat="40.923748" lon="-8.528746">
                <ele>184.0</ele>
                <time>2020-11-30T17:18:25.000Z</time>
            </trkpt>
            <trkpt lat="40.923743" lon="-8.528779">
                <ele>184.1</ele>
                <time>2020-11-30T17:18:26.000Z</time>
            </trkpt>
            <trkpt lat="40.92374" lon="-8.528814">
                <ele>184.1</ele>
                <time>2020-11-30T17:18:27.000Z</time>
            </trkpt>
            <trkpt lat="40.923742" lon="-8.528852">
                <ele>184.1</ele>
                <time>2020-11-30T17:18:28.000Z</time>
            </trkpt>
            <trkpt lat="40.923747" lon="-8.528891">
                <ele>184.0</ele>
                <time>2020-11-30T17:18:29.000Z</time>
            </trkpt>
            <trkpt lat="40.923754" lon="-8.528931">
                <ele>184.0</ele>
                <time>2020-11-30T17:18:30.000Z</time>
            </trkpt>
            <trkpt lat="40.923762" lon="-8.52897">
                <ele>183.9</ele>
                <time>2020-11-30T17:18:31.000Z</time>
            </trkpt>
            <trkpt lat="40.92377" lon="-8.529009">
                <ele>183.8</ele>
                <time>2020-11-30T17:18:32.000Z</time>
            </trkpt>
            <trkpt lat="40.923778" lon="-8.529044">
                <ele>183.8</ele>
                <time>2020-11-30T17:18:33.000Z</time>
            </trkpt>
            <trkpt lat="40.923784" lon="-8.529079">
                <ele>183.7</ele>
                <time>2020-11-30T17:18:34.000Z</time>
            </trkpt>
            <trkpt lat="40.92379" lon="-8.529111">
                <ele>183.7</ele>
                <time>2020-11-30T17:18:35.000Z</time>
            </trkpt>
            <trkpt lat="40.923793" lon="-8.529144">
                <ele>183.7</ele>
                <time>2020-11-30T17:18:36.000Z</time>
            </trkpt>
            <trkpt lat="40.923796" lon="-8.529176">
                <ele>183.7</ele>
                <time>2020-11-30T17:18:37.000Z</time>
            </trkpt>
            <trkpt lat="40.923797" lon="-8.529208">
                <ele>184.0</ele>
                <time>2020-11-30T17:18:38.000Z</time>
            </trkpt>
            <trkpt lat="40.923796" lon="-8.529242">
                <ele>184.2</ele>
                <time>2020-11-30T17:18:39.000Z</time>
            </trkpt>
            <trkpt lat="40.923794" lon="-8.529276">
                <ele>184.5</ele>
                <time>2020-11-30T17:18:40.000Z</time>
            </trkpt>
            <trkpt lat="40.923794" lon="-8.529309">
                <ele>184.7</ele>
                <time>2020-11-30T17:18:41.000Z</time>
            </trkpt>
            <trkpt lat="40.923795" lon="-8.529341">
                <ele>184.9</ele>
                <time>2020-11-30T17:18:42.000Z</time>
            </trkpt>
            <trkpt lat="40.923799" lon="-8.529371">
                <ele>185.1</ele>
                <time>2020-11-30T17:18:43.000Z</time>
            </trkpt>
            <trkpt lat="40.923806" lon="-8.529398">
                <ele>185.3</ele>
                <time>2020-11-30T17:18:44.000Z</time>
            </trkpt>
            <trkpt lat="40.923817" lon="-8.529422">
                <ele>185.4</ele>
                <time>2020-11-30T17:18:45.000Z</time>
            </trkpt>
            <trkpt lat="40.92383" lon="-8.529445">
                <ele>185.4</ele>
                <time>2020-11-30T17:18:46.000Z</time>
            </trkpt>
            <trkpt lat="40.923845" lon="-8.529465">
                <ele>185.5</ele>
                <time>2020-11-30T17:18:47.000Z</time>
            </trkpt>
            <trkpt lat="40.923861" lon="-8.529484">
                <ele>185.5</ele>
                <time>2020-11-30T17:18:48.000Z</time>
            </trkpt>
            <trkpt lat="40.923877" lon="-8.529502">
                <ele>185.5</ele>
                <time>2020-11-30T17:18:49.000Z</time>
            </trkpt>
            <trkpt lat="40.923892" lon="-8.529519">
                <ele>185.5</ele>
                <time>2020-11-30T17:18:50.000Z</time>
            </trkpt>
            <trkpt lat="40.923903" lon="-8.529535">
                <ele>185.6</ele>
                <time>2020-11-30T17:18:51.000Z</time>
            </trkpt>
            <trkpt lat="40.923911" lon="-8.529552">
                <ele>185.6</ele>
                <time>2020-11-30T17:18:52.000Z</time>
            </trkpt>
            <trkpt lat="40.923913" lon="-8.52957">
                <ele>185.7</ele>
                <time>2020-11-30T17:18:53.000Z</time>
            </trkpt>
            <trkpt lat="40.923909" lon="-8.529588">
                <ele>185.9</ele>
                <time>2020-11-30T17:18:54.000Z</time>
            </trkpt>
            <trkpt lat="40.923899" lon="-8.529607">
                <ele>186.1</ele>
                <time>2020-11-30T17:18:55.000Z</time>
            </trkpt>
            <trkpt lat="40.923885" lon="-8.529626">
                <ele>186.3</ele>
                <time>2020-11-30T17:18:56.000Z</time>
            </trkpt>
            <trkpt lat="40.923869" lon="-8.529643">
                <ele>186.6</ele>
                <time>2020-11-30T17:18:57.000Z</time>
            </trkpt>
            <trkpt lat="40.92385" lon="-8.529658">
                <ele>186.8</ele>
                <time>2020-11-30T17:18:58.000Z</time>
            </trkpt>
            <trkpt lat="40.923832" lon="-8.529672">
                <ele>187.0</ele>
                <time>2020-11-30T17:18:59.000Z</time>
            </trkpt>
            <trkpt lat="40.923814" lon="-8.529684">
                <ele>187.3</ele>
                <time>2020-11-30T17:19:00.000Z</time>
            </trkpt>
            <trkpt lat="40.923797" lon="-8.529696">
                <ele>187.5</ele>
                <time>2020-11-30T17:19:01.000Z</time>
            </trkpt>
            <trkpt lat="40.92378" lon="-8.52971">
                <ele>187.7</ele>
                <time>2020-11-30T17:19:02.000Z</time>
            </trkpt>
            <trkpt lat="40.923765" lon="-8.529726">
                <ele>187.9</ele>
                <time>2020-11-30T17:19:03.000Z</time>
            </trkpt>
            <trkpt lat="40.923751" lon="-8.529747">
                <ele>188.2</ele>
                <time>2020-11-30T17:19:04.000Z</time>
            </trkpt>
            <trkpt lat="40.923738" lon="-8.529771">
                <ele>188.4</ele>
                <time>2020-11-30T17:19:05.000Z</time>
            </trkpt>
            <trkpt lat="40.923727" lon="-8.529798">
                <ele>188.7</ele>
                <time>2020-11-30T17:19:06.000Z</time>
            </trkpt>
            <trkpt lat="40.923717" lon="-8.529829">
                <ele>189.0</ele>
                <time>2020-11-30T17:19:07.000Z</time>
            </trkpt>
            <trkpt lat="40.923708" lon="-8.529861">
                <ele>189.3</ele>
                <time>2020-11-30T17:19:08.000Z</time>
            </trkpt>
            <trkpt lat="40.923701" lon="-8.529896">
                <ele>189.6</ele>
                <time>2020-11-30T17:19:09.000Z</time>
            </trkpt>
            <trkpt lat="40.923695" lon="-8.529932">
                <ele>189.9</ele>
                <time>2020-11-30T17:19:10.000Z</time>
            </trkpt>
            <trkpt lat="40.92369" lon="-8.529969">
                <ele>190.2</ele>
                <time>2020-11-30T17:19:11.000Z</time>
            </trkpt>
            <trkpt lat="40.923687" lon="-8.530006">
                <ele>190.5</ele>
                <time>2020-11-30T17:19:12.000Z</time>
            </trkpt>
            <trkpt lat="40.923684" lon="-8.530043">
                <ele>190.8</ele>
                <time>2020-11-30T17:19:13.000Z</time>
            </trkpt>
            <trkpt lat="40.923683" lon="-8.530079">
                <ele>191.1</ele>
                <time>2020-11-30T17:19:14.000Z</time>
            </trkpt>
            <trkpt lat="40.923682" lon="-8.530115">
                <ele>191.4</ele>
                <time>2020-11-30T17:19:15.000Z</time>
            </trkpt>
            <trkpt lat="40.923682" lon="-8.53015">
                <ele>191.7</ele>
                <time>2020-11-30T17:19:16.000Z</time>
            </trkpt>
            <trkpt lat="40.923683" lon="-8.530184">
                <ele>191.9</ele>
                <time>2020-11-30T17:19:17.000Z</time>
            </trkpt>
            <trkpt lat="40.923684" lon="-8.530217">
                <ele>192.2</ele>
                <time>2020-11-30T17:19:18.000Z</time>
            </trkpt>
            <trkpt lat="40.923684" lon="-8.530248">
                <ele>192.4</ele>
                <time>2020-11-30T17:19:19.000Z</time>
            </trkpt>
            <trkpt lat="40.923685" lon="-8.530278">
                <ele>192.7</ele>
                <time>2020-11-30T17:19:20.000Z</time>
            </trkpt>
            <trkpt lat="40.923685" lon="-8.530307">
                <ele>192.9</ele>
                <time>2020-11-30T17:19:21.000Z</time>
            </trkpt>
            <trkpt lat="40.923683" lon="-8.530333">
                <ele>193.1</ele>
                <time>2020-11-30T17:19:22.000Z</time>
            </trkpt>
            <trkpt lat="40.923679" lon="-8.530358">
                <ele>193.4</ele>
                <time>2020-11-30T17:19:23.000Z</time>
            </trkpt>
            <trkpt lat="40.923672" lon="-8.530381">
                <ele>193.6</ele>
                <time>2020-11-30T17:19:24.000Z</time>
            </trkpt>
            <trkpt lat="40.923662" lon="-8.530403">
                <ele>193.9</ele>
                <time>2020-11-30T17:19:25.000Z</time>
            </trkpt>
            <trkpt lat="40.92365" lon="-8.530422">
                <ele>194.2</ele>
                <time>2020-11-30T17:19:26.000Z</time>
            </trkpt>
            <trkpt lat="40.923635" lon="-8.53044">
                <ele>194.6</ele>
                <time>2020-11-30T17:19:27.000Z</time>
            </trkpt>
            <trkpt lat="40.923618" lon="-8.530458">
                <ele>194.9</ele>
                <time>2020-11-30T17:19:28.000Z</time>
            </trkpt>
            <trkpt lat="40.923599" lon="-8.530474">
                <ele>195.3</ele>
                <time>2020-11-30T17:19:29.000Z</time>
            </trkpt>
            <trkpt lat="40.92358" lon="-8.530489">
                <ele>195.7</ele>
                <time>2020-11-30T17:19:30.000Z</time>
            </trkpt>
            <trkpt lat="40.92356" lon="-8.530504">
                <ele>196.1</ele>
                <time>2020-11-30T17:19:31.000Z</time>
            </trkpt>
            <trkpt lat="40.92354" lon="-8.530519">
                <ele>196.5</ele>
                <time>2020-11-30T17:19:32.000Z</time>
            </trkpt>
            <trkpt lat="40.92352" lon="-8.530534">
                <ele>196.9</ele>
                <time>2020-11-30T17:19:33.000Z</time>
            </trkpt>
            <trkpt lat="40.923501" lon="-8.53055">
                <ele>197.3</ele>
                <time>2020-11-30T17:19:34.000Z</time>
            </trkpt>
            <trkpt lat="40.923484" lon="-8.530566">
                <ele>197.7</ele>
                <time>2020-11-30T17:19:35.000Z</time>
            </trkpt>
            <trkpt lat="40.923468" lon="-8.530582">
                <ele>198.1</ele>
                <time>2020-11-30T17:19:36.000Z</time>
            </trkpt>
            <trkpt lat="40.923453" lon="-8.530598">
                <ele>198.5</ele>
                <time>2020-11-30T17:19:37.000Z</time>
            </trkpt>
            <trkpt lat="40.923439" lon="-8.530615">
                <ele>198.9</ele>
                <time>2020-11-30T17:19:38.000Z</time>
            </trkpt>
            <trkpt lat="40.923426" lon="-8.530632">
                <ele>199.2</ele>
                <time>2020-11-30T17:19:39.000Z</time>
            </trkpt>
            <trkpt lat="40.923414" lon="-8.530649">
                <ele>199.6</ele>
                <time>2020-11-30T17:19:40.000Z</time>
            </trkpt>
            <trkpt lat="40.923402" lon="-8.530665">
                <ele>200.0</ele>
                <time>2020-11-30T17:19:41.000Z</time>
            </trkpt>
            <trkpt lat="40.923392" lon="-8.530681">
                <ele>200.3</ele>
                <time>2020-11-30T17:19:42.000Z</time>
            </trkpt>
            <trkpt lat="40.923382" lon="-8.530697">
                <ele>200.6</ele>
                <time>2020-11-30T17:19:43.000Z</time>
            </trkpt>
            <trkpt lat="40.923372" lon="-8.530713">
                <ele>201.0</ele>
                <time>2020-11-30T17:19:44.000Z</time>
            </trkpt>
            <trkpt lat="40.923363" lon="-8.530727">
                <ele>201.3</ele>
                <time>2020-11-30T17:19:45.000Z</time>
            </trkpt>
            <trkpt lat="40.923354" lon="-8.530742">
                <ele>201.6</ele>
                <time>2020-11-30T17:19:46.000Z</time>
            </trkpt>
            <trkpt lat="40.923346" lon="-8.530756">
                <ele>201.9</ele>
                <time>2020-11-30T17:19:47.000Z</time>
            </trkpt>
            <trkpt lat="40.923338" lon="-8.53077">
                <ele>202.2</ele>
                <time>2020-11-30T17:19:48.000Z</time>
            </trkpt>
            <trkpt lat="40.923329" lon="-8.530784">
                <ele>202.4</ele>
                <time>2020-11-30T17:19:49.000Z</time>
            </trkpt>
            <trkpt lat="40.923321" lon="-8.530798">
                <ele>202.6</ele>
                <time>2020-11-30T17:19:50.000Z</time>
            </trkpt>
            <trkpt lat="40.923313" lon="-8.530813">
                <ele>202.9</ele>
                <time>2020-11-30T17:19:51.000Z</time>
            </trkpt>
            <trkpt lat="40.923304" lon="-8.530828">
                <ele>203.1</ele>
                <time>2020-11-30T17:19:52.000Z</time>
            </trkpt>
            <trkpt lat="40.923296" lon="-8.530844">
                <ele>203.3</ele>
                <time>2020-11-30T17:19:53.000Z</time>
            </trkpt>
            <trkpt lat="40.923287" lon="-8.530861">
                <ele>203.5</ele>
                <time>2020-11-30T17:19:54.000Z</time>
            </trkpt>
            <trkpt lat="40.923277" lon="-8.53088">
                <ele>203.8</ele>
                <time>2020-11-30T17:19:55.000Z</time>
            </trkpt>
            <trkpt lat="40.923267" lon="-8.530898">
                <ele>204.0</ele>
                <time>2020-11-30T17:19:56.000Z</time>
            </trkpt>
            <trkpt lat="40.923257" lon="-8.530917">
                <ele>204.2</ele>
                <time>2020-11-30T17:19:57.000Z</time>
            </trkpt>
            <trkpt lat="40.923246" lon="-8.530936">
                <ele>204.5</ele>
                <time>2020-11-30T17:19:58.000Z</time>
            </trkpt>
            <trkpt lat="40.923235" lon="-8.530953">
                <ele>204.7</ele>
                <time>2020-11-30T17:19:59.000Z</time>
            </trkpt>
            <trkpt lat="40.923224" lon="-8.530969">
                <ele>204.9</ele>
                <time>2020-11-30T17:20:00.000Z</time>
            </trkpt>
            <trkpt lat="40.923212" lon="-8.530984">
                <ele>205.1</ele>
                <time>2020-11-30T17:20:01.000Z</time>
            </trkpt>
            <trkpt lat="40.9232" lon="-8.530997">
                <ele>205.3</ele>
                <time>2020-11-30T17:20:02.000Z</time>
            </trkpt>
            <trkpt lat="40.923187" lon="-8.531008">
                <ele>205.4</ele>
                <time>2020-11-30T17:20:03.000Z</time>
            </trkpt>
            <trkpt lat="40.923174" lon="-8.531019">
                <ele>205.6</ele>
                <time>2020-11-30T17:20:04.000Z</time>
            </trkpt>
            <trkpt lat="40.923161" lon="-8.531029">
                <ele>205.7</ele>
                <time>2020-11-30T17:20:05.000Z</time>
            </trkpt>
            <trkpt lat="40.923147" lon="-8.53104">
                <ele>205.8</ele>
                <time>2020-11-30T17:20:06.000Z</time>
            </trkpt>
            <trkpt lat="40.923134" lon="-8.53105">
                <ele>206.0</ele>
                <time>2020-11-30T17:20:07.000Z</time>
            </trkpt>
            <trkpt lat="40.92312" lon="-8.53106">
                <ele>206.1</ele>
                <time>2020-11-30T17:20:08.000Z</time>
            </trkpt>
            <trkpt lat="40.923106" lon="-8.531069">
                <ele>206.3</ele>
                <time>2020-11-30T17:20:09.000Z</time>
            </trkpt>
            <trkpt lat="40.923093" lon="-8.531079">
                <ele>206.4</ele>
                <time>2020-11-30T17:20:10.000Z</time>
            </trkpt>
            <trkpt lat="40.923079" lon="-8.531088">
                <ele>206.5</ele>
                <time>2020-11-30T17:20:11.000Z</time>
            </trkpt>
            <trkpt lat="40.923066" lon="-8.531096">
                <ele>206.6</ele>
                <time>2020-11-30T17:20:12.000Z</time>
            </trkpt>
            <trkpt lat="40.923052" lon="-8.531105">
                <ele>206.7</ele>
                <time>2020-11-30T17:20:13.000Z</time>
            </trkpt>
            <trkpt lat="40.92304" lon="-8.531113">
                <ele>206.8</ele>
                <time>2020-11-30T17:20:14.000Z</time>
            </trkpt>
            <trkpt lat="40.923027" lon="-8.53112">
                <ele>206.9</ele>
                <time>2020-11-30T17:20:15.000Z</time>
            </trkpt>
            <trkpt lat="40.923015" lon="-8.531127">
                <ele>207.0</ele>
                <time>2020-11-30T17:20:16.000Z</time>
            </trkpt>
            <trkpt lat="40.923004" lon="-8.531134">
                <ele>207.1</ele>
                <time>2020-11-30T17:20:17.000Z</time>
            </trkpt>
            <trkpt lat="40.922993" lon="-8.531141">
                <ele>207.2</ele>
                <time>2020-11-30T17:20:18.000Z</time>
            </trkpt>
            <trkpt lat="40.922983" lon="-8.531147">
                <ele>207.3</ele>
                <time>2020-11-30T17:20:19.000Z</time>
            </trkpt>
            <trkpt lat="40.922973" lon="-8.531154">
                <ele>207.4</ele>
                <time>2020-11-30T17:20:20.000Z</time>
            </trkpt>
            <trkpt lat="40.922963" lon="-8.53116">
                <ele>207.4</ele>
                <time>2020-11-30T17:20:21.000Z</time>
            </trkpt>
            <trkpt lat="40.922954" lon="-8.531167">
                <ele>207.5</ele>
                <time>2020-11-30T17:20:22.000Z</time>
            </trkpt>
            <trkpt lat="40.922944" lon="-8.531175">
                <ele>207.6</ele>
                <time>2020-11-30T17:20:23.000Z</time>
            </trkpt>
            <trkpt lat="40.922936" lon="-8.531182">
                <ele>207.7</ele>
                <time>2020-11-30T17:20:24.000Z</time>
            </trkpt>
            <trkpt lat="40.922927" lon="-8.531191">
                <ele>207.8</ele>
                <time>2020-11-30T17:20:25.000Z</time>
            </trkpt>
            <trkpt lat="40.922919" lon="-8.5312">
                <ele>207.9</ele>
                <time>2020-11-30T17:20:26.000Z</time>
            </trkpt>
            <trkpt lat="40.922911" lon="-8.53121">
                <ele>207.9</ele>
                <time>2020-11-30T17:20:27.000Z</time>
            </trkpt>
            <trkpt lat="40.922903" lon="-8.531221">
                <ele>208.1</ele>
                <time>2020-11-30T17:20:28.000Z</time>
            </trkpt>
            <trkpt lat="40.922894" lon="-8.531232">
                <ele>208.2</ele>
                <time>2020-11-30T17:20:29.000Z</time>
            </trkpt>
            <trkpt lat="40.922886" lon="-8.531244">
                <ele>208.3</ele>
                <time>2020-11-30T17:20:30.000Z</time>
            </trkpt>
            <trkpt lat="40.922878" lon="-8.531256">
                <ele>208.4</ele>
                <time>2020-11-30T17:20:31.000Z</time>
            </trkpt>
            <trkpt lat="40.92287" lon="-8.531268">
                <ele>208.5</ele>
                <time>2020-11-30T17:20:32.000Z</time>
            </trkpt>
            <trkpt lat="40.922861" lon="-8.531281">
                <ele>208.6</ele>
                <time>2020-11-30T17:20:33.000Z</time>
            </trkpt>
            <trkpt lat="40.922852" lon="-8.531293">
                <ele>208.7</ele>
                <time>2020-11-30T17:20:34.000Z</time>
            </trkpt>
            <trkpt lat="40.922842" lon="-8.531306">
                <ele>208.8</ele>
                <time>2020-11-30T17:20:35.000Z</time>
            </trkpt>
            <trkpt lat="40.922832" lon="-8.531319">
                <ele>208.9</ele>
                <time>2020-11-30T17:20:36.000Z</time>
            </trkpt>
            <trkpt lat="40.922822" lon="-8.531331">
                <ele>209.0</ele>
                <time>2020-11-30T17:20:37.000Z</time>
            </trkpt>
            <trkpt lat="40.922812" lon="-8.531343">
                <ele>209.1</ele>
                <time>2020-11-30T17:20:38.000Z</time>
            </trkpt>
            <trkpt lat="40.922801" lon="-8.531355">
                <ele>209.2</ele>
                <time>2020-11-30T17:20:39.000Z</time>
            </trkpt>
            <trkpt lat="40.92279" lon="-8.531367">
                <ele>209.3</ele>
                <time>2020-11-30T17:20:40.000Z</time>
            </trkpt>
            <trkpt lat="40.922779" lon="-8.531378">
                <ele>209.4</ele>
                <time>2020-11-30T17:20:41.000Z</time>
            </trkpt>
            <trkpt lat="40.922769" lon="-8.53139">
                <ele>209.5</ele>
                <time>2020-11-30T17:20:42.000Z</time>
            </trkpt>
            <trkpt lat="40.922758" lon="-8.531401">
                <ele>209.5</ele>
                <time>2020-11-30T17:20:43.000Z</time>
            </trkpt>
            <trkpt lat="40.922748" lon="-8.531411">
                <ele>209.6</ele>
                <time>2020-11-30T17:20:44.000Z</time>
            </trkpt>
            <trkpt lat="40.922738" lon="-8.531421">
                <ele>209.7</ele>
                <time>2020-11-30T17:20:45.000Z</time>
            </trkpt>
            <trkpt lat="40.922729" lon="-8.531431">
                <ele>209.8</ele>
                <time>2020-11-30T17:20:46.000Z</time>
            </trkpt>
            <trkpt lat="40.92272" lon="-8.53144">
                <ele>209.8</ele>
                <time>2020-11-30T17:20:47.000Z</time>
            </trkpt>
            <trkpt lat="40.922711" lon="-8.531449">
                <ele>209.9</ele>
                <time>2020-11-30T17:20:48.000Z</time>
            </trkpt>
            <trkpt lat="40.922703" lon="-8.531458">
                <ele>209.9</ele>
                <time>2020-11-30T17:20:49.000Z</time>
            </trkpt>
            <trkpt lat="40.922695" lon="-8.531466">
                <ele>210.0</ele>
                <time>2020-11-30T17:20:50.000Z</time>
            </trkpt>
            <trkpt lat="40.922686" lon="-8.531475">
                <ele>210.0</ele>
                <time>2020-11-30T17:20:51.000Z</time>
            </trkpt>
            <trkpt lat="40.922678" lon="-8.531483">
                <ele>210.1</ele>
                <time>2020-11-30T17:20:52.000Z</time>
            </trkpt>
            <trkpt lat="40.922669" lon="-8.531492">
                <ele>210.2</ele>
                <time>2020-11-30T17:20:53.000Z</time>
            </trkpt>
            <trkpt lat="40.922659" lon="-8.531501">
                <ele>210.2</ele>
                <time>2020-11-30T17:20:54.000Z</time>
            </trkpt>
            <trkpt lat="40.922649" lon="-8.531511">
                <ele>210.3</ele>
                <time>2020-11-30T17:20:55.000Z</time>
            </trkpt>
            <trkpt lat="40.922637" lon="-8.531521">
                <ele>210.3</ele>
                <time>2020-11-30T17:20:56.000Z</time>
            </trkpt>
            <trkpt lat="40.922625" lon="-8.531532">
                <ele>210.4</ele>
                <time>2020-11-30T17:20:57.000Z</time>
            </trkpt>
            <trkpt lat="40.922611" lon="-8.531543">
                <ele>210.4</ele>
                <time>2020-11-30T17:20:58.000Z</time>
            </trkpt>
            <trkpt lat="40.922596" lon="-8.531555">
                <ele>210.5</ele>
                <time>2020-11-30T17:20:59.000Z</time>
            </trkpt>
            <trkpt lat="40.922581" lon="-8.531568">
                <ele>210.6</ele>
                <time>2020-11-30T17:21:00.000Z</time>
            </trkpt>
            <trkpt lat="40.922564" lon="-8.531581">
                <ele>210.6</ele>
                <time>2020-11-30T17:21:01.000Z</time>
            </trkpt>
            <trkpt lat="40.922547" lon="-8.531594">
                <ele>210.7</ele>
                <time>2020-11-30T17:21:02.000Z</time>
            </trkpt>
            <trkpt lat="40.92253" lon="-8.531608">
                <ele>210.7</ele>
                <time>2020-11-30T17:21:03.000Z</time>
            </trkpt>
            <trkpt lat="40.922512" lon="-8.531623">
                <ele>210.8</ele>
                <time>2020-11-30T17:21:04.000Z</time>
            </trkpt>
            <trkpt lat="40.922493" lon="-8.531637">
                <ele>210.7</ele>
                <time>2020-11-30T17:21:05.000Z</time>
            </trkpt>
            <trkpt lat="40.922474" lon="-8.531652">
                <ele>210.5</ele>
                <time>2020-11-30T17:21:06.000Z</time>
            </trkpt>
            <trkpt lat="40.922455" lon="-8.531667">
                <ele>210.2</ele>
                <time>2020-11-30T17:21:07.000Z</time>
            </trkpt>
            <trkpt lat="40.922435" lon="-8.531682">
                <ele>209.8</ele>
                <time>2020-11-30T17:21:08.000Z</time>
            </trkpt>
            <trkpt lat="40.922415" lon="-8.531696">
                <ele>209.3</ele>
                <time>2020-11-30T17:21:09.000Z</time>
            </trkpt>
            <trkpt lat="40.922394" lon="-8.531709">
                <ele>208.9</ele>
                <time>2020-11-30T17:21:10.000Z</time>
            </trkpt>
            <trkpt lat="40.922373" lon="-8.53172">
                <ele>208.4</ele>
                <time>2020-11-30T17:21:11.000Z</time>
            </trkpt>
            <trkpt lat="40.922351" lon="-8.531729">
                <ele>208.0</ele>
                <time>2020-11-30T17:21:12.000Z</time>
            </trkpt>
            <trkpt lat="40.922328" lon="-8.531736">
                <ele>207.5</ele>
                <time>2020-11-30T17:21:13.000Z</time>
            </trkpt>
            <trkpt lat="40.922305" lon="-8.531742">
                <ele>207.1</ele>
                <time>2020-11-30T17:21:14.000Z</time>
            </trkpt>
            <trkpt lat="40.922282" lon="-8.531747">
                <ele>206.7</ele>
                <time>2020-11-30T17:21:15.000Z</time>
            </trkpt>
            <trkpt lat="40.922258" lon="-8.531753">
                <ele>206.2</ele>
                <time>2020-11-30T17:21:16.000Z</time>
            </trkpt>
            <trkpt lat="40.922234" lon="-8.531759">
                <ele>205.8</ele>
                <time>2020-11-30T17:21:17.000Z</time>
            </trkpt>
            <trkpt lat="40.922211" lon="-8.531766">
                <ele>205.4</ele>
                <time>2020-11-30T17:21:18.000Z</time>
            </trkpt>
            <trkpt lat="40.922187" lon="-8.531775">
                <ele>204.9</ele>
                <time>2020-11-30T17:21:19.000Z</time>
            </trkpt>
            <trkpt lat="40.922163" lon="-8.531785">
                <ele>204.4</ele>
                <time>2020-11-30T17:21:20.000Z</time>
            </trkpt>
            <trkpt lat="40.92214" lon="-8.531796">
                <ele>203.9</ele>
                <time>2020-11-30T17:21:21.000Z</time>
            </trkpt>
            <trkpt lat="40.922116" lon="-8.531809">
                <ele>203.4</ele>
                <time>2020-11-30T17:21:22.000Z</time>
            </trkpt>
            <trkpt lat="40.922092" lon="-8.531824">
                <ele>202.9</ele>
                <time>2020-11-30T17:21:23.000Z</time>
            </trkpt>
            <trkpt lat="40.922069" lon="-8.53184">
                <ele>202.4</ele>
                <time>2020-11-30T17:21:24.000Z</time>
            </trkpt>
            <trkpt lat="40.922046" lon="-8.531858">
                <ele>201.9</ele>
                <time>2020-11-30T17:21:25.000Z</time>
            </trkpt>
            <trkpt lat="40.922023" lon="-8.531878">
                <ele>201.4</ele>
                <time>2020-11-30T17:21:26.000Z</time>
            </trkpt>
            <trkpt lat="40.922" lon="-8.531899">
                <ele>200.8</ele>
                <time>2020-11-30T17:21:27.000Z</time>
            </trkpt>
            <trkpt lat="40.921978" lon="-8.531922">
                <ele>200.3</ele>
                <time>2020-11-30T17:21:28.000Z</time>
            </trkpt>
            <trkpt lat="40.921957" lon="-8.531947">
                <ele>199.7</ele>
                <time>2020-11-30T17:21:29.000Z</time>
            </trkpt>
            <trkpt lat="40.921937" lon="-8.531972">
                <ele>199.2</ele>
                <time>2020-11-30T17:21:30.000Z</time>
            </trkpt>
            <trkpt lat="40.921918" lon="-8.531999">
                <ele>198.7</ele>
                <time>2020-11-30T17:21:31.000Z</time>
            </trkpt>
            <trkpt lat="40.9219" lon="-8.532026">
                <ele>198.2</ele>
                <time>2020-11-30T17:21:32.000Z</time>
            </trkpt>
            <trkpt lat="40.921884" lon="-8.532053">
                <ele>197.7</ele>
                <time>2020-11-30T17:21:33.000Z</time>
            </trkpt>
            <trkpt lat="40.92187" lon="-8.532081">
                <ele>197.3</ele>
                <time>2020-11-30T17:21:34.000Z</time>
            </trkpt>
            <trkpt lat="40.921859" lon="-8.532109">
                <ele>196.9</ele>
                <time>2020-11-30T17:21:35.000Z</time>
            </trkpt>
            <trkpt lat="40.92185" lon="-8.532137">
                <ele>196.6</ele>
                <time>2020-11-30T17:21:36.000Z</time>
            </trkpt>
            <trkpt lat="40.921844" lon="-8.532164">
                <ele>196.3</ele>
                <time>2020-11-30T17:21:37.000Z</time>
            </trkpt>
            <trkpt lat="40.92184" lon="-8.532191">
                <ele>196.0</ele>
                <time>2020-11-30T17:21:38.000Z</time>
            </trkpt>
            <trkpt lat="40.921839" lon="-8.532218">
                <ele>195.8</ele>
                <time>2020-11-30T17:21:39.000Z</time>
            </trkpt>
            <trkpt lat="40.921838" lon="-8.532245">
                <ele>195.6</ele>
                <time>2020-11-30T17:21:40.000Z</time>
            </trkpt>
            <trkpt lat="40.921837" lon="-8.532274">
                <ele>195.3</ele>
                <time>2020-11-30T17:21:41.000Z</time>
            </trkpt>
            <trkpt lat="40.921835" lon="-8.532305">
                <ele>195.1</ele>
                <time>2020-11-30T17:21:42.000Z</time>
            </trkpt>
            <trkpt lat="40.921831" lon="-8.532339">
                <ele>194.8</ele>
                <time>2020-11-30T17:21:43.000Z</time>
            </trkpt>
            <trkpt lat="40.921824" lon="-8.532375">
                <ele>194.4</ele>
                <time>2020-11-30T17:21:44.000Z</time>
            </trkpt>
            <trkpt lat="40.921817" lon="-8.532411">
                <ele>194.0</ele>
                <time>2020-11-30T17:21:45.000Z</time>
            </trkpt>
            <trkpt lat="40.92181" lon="-8.532446">
                <ele>193.6</ele>
                <time>2020-11-30T17:21:46.000Z</time>
            </trkpt>
            <trkpt lat="40.921803" lon="-8.53248">
                <ele>193.3</ele>
                <time>2020-11-30T17:21:47.000Z</time>
            </trkpt>
            <trkpt lat="40.921797" lon="-8.532511">
                <ele>193.0</ele>
                <time>2020-11-30T17:21:48.000Z</time>
            </trkpt>
            <trkpt lat="40.921792" lon="-8.532541">
                <ele>192.7</ele>
                <time>2020-11-30T17:21:49.000Z</time>
            </trkpt>
            <trkpt lat="40.921788" lon="-8.532568">
                <ele>192.4</ele>
                <time>2020-11-30T17:21:50.000Z</time>
            </trkpt>
            <trkpt lat="40.921782" lon="-8.532596">
                <ele>192.2</ele>
                <time>2020-11-30T17:21:51.000Z</time>
            </trkpt>
            <trkpt lat="40.921776" lon="-8.532623">
                <ele>191.9</ele>
                <time>2020-11-30T17:21:52.000Z</time>
            </trkpt>
            <trkpt lat="40.921768" lon="-8.532652">
                <ele>191.6</ele>
                <time>2020-11-30T17:21:53.000Z</time>
            </trkpt>
            <trkpt lat="40.921758" lon="-8.53268">
                <ele>191.3</ele>
                <time>2020-11-30T17:21:54.000Z</time>
            </trkpt>
            <trkpt lat="40.921748" lon="-8.532709">
                <ele>191.0</ele>
                <time>2020-11-30T17:21:55.000Z</time>
            </trkpt>
            <trkpt lat="40.921736" lon="-8.532737">
                <ele>190.7</ele>
                <time>2020-11-30T17:21:56.000Z</time>
            </trkpt>
            <trkpt lat="40.921724" lon="-8.532764">
                <ele>190.4</ele>
                <time>2020-11-30T17:21:57.000Z</time>
            </trkpt>
            <trkpt lat="40.921712" lon="-8.532789">
                <ele>190.1</ele>
                <time>2020-11-30T17:21:58.000Z</time>
            </trkpt>
            <trkpt lat="40.921699" lon="-8.532813">
                <ele>189.9</ele>
                <time>2020-11-30T17:21:59.000Z</time>
            </trkpt>
            <trkpt lat="40.921688" lon="-8.532836">
                <ele>189.6</ele>
                <time>2020-11-30T17:22:00.000Z</time>
            </trkpt>
            <trkpt lat="40.921677" lon="-8.532859">
                <ele>189.4</ele>
                <time>2020-11-30T17:22:01.000Z</time>
            </trkpt>
            <trkpt lat="40.921669" lon="-8.532881">
                <ele>189.2</ele>
                <time>2020-11-30T17:22:02.000Z</time>
            </trkpt>
            <trkpt lat="40.921662" lon="-8.532905">
                <ele>189.0</ele>
                <time>2020-11-30T17:22:03.000Z</time>
            </trkpt>
            <trkpt lat="40.921658" lon="-8.532929">
                <ele>188.9</ele>
                <time>2020-11-30T17:22:04.000Z</time>
            </trkpt>
            <trkpt lat="40.921656" lon="-8.532953">
                <ele>188.7</ele>
                <time>2020-11-30T17:22:05.000Z</time>
            </trkpt>
            <trkpt lat="40.921656" lon="-8.532978">
                <ele>188.6</ele>
                <time>2020-11-30T17:22:06.000Z</time>
            </trkpt>
            <trkpt lat="40.921657" lon="-8.533003">
                <ele>188.5</ele>
                <time>2020-11-30T17:22:07.000Z</time>
            </trkpt>
            <trkpt lat="40.921657" lon="-8.533027">
                <ele>188.4</ele>
                <time>2020-11-30T17:22:08.000Z</time>
            </trkpt>
            <trkpt lat="40.921658" lon="-8.533051">
                <ele>188.3</ele>
                <time>2020-11-30T17:22:09.000Z</time>
            </trkpt>
            <trkpt lat="40.921658" lon="-8.533074">
                <ele>188.2</ele>
                <time>2020-11-30T17:22:10.000Z</time>
            </trkpt>
            <trkpt lat="40.921658" lon="-8.533096">
                <ele>188.1</ele>
                <time>2020-11-30T17:22:11.000Z</time>
            </trkpt>
            <trkpt lat="40.921657" lon="-8.533119">
                <ele>188.0</ele>
                <time>2020-11-30T17:22:12.000Z</time>
            </trkpt>
            <trkpt lat="40.921656" lon="-8.533142">
                <ele>187.8</ele>
                <time>2020-11-30T17:22:13.000Z</time>
            </trkpt>
            <trkpt lat="40.921653" lon="-8.533166">
                <ele>187.7</ele>
                <time>2020-11-30T17:22:14.000Z</time>
            </trkpt>
            <trkpt lat="40.92165" lon="-8.533189">
                <ele>187.6</ele>
                <time>2020-11-30T17:22:15.000Z</time>
            </trkpt>
            <trkpt lat="40.921643" lon="-8.533212">
                <ele>187.4</ele>
                <time>2020-11-30T17:22:16.000Z</time>
            </trkpt>
            <trkpt lat="40.921635" lon="-8.533233">
                <ele>187.3</ele>
                <time>2020-11-30T17:22:17.000Z</time>
            </trkpt>
            <trkpt lat="40.921622" lon="-8.533252">
                <ele>187.1</ele>
                <time>2020-11-30T17:22:18.000Z</time>
            </trkpt>
            <trkpt lat="40.921606" lon="-8.533267">
                <ele>186.9</ele>
                <time>2020-11-30T17:22:19.000Z</time>
            </trkpt>
            <trkpt lat="40.921588" lon="-8.533279">
                <ele>186.8</ele>
                <time>2020-11-30T17:22:20.000Z</time>
            </trkpt>
            <trkpt lat="40.921568" lon="-8.533288">
                <ele>186.6</ele>
                <time>2020-11-30T17:22:21.000Z</time>
            </trkpt>
            <trkpt lat="40.921548" lon="-8.533293">
                <ele>186.4</ele>
                <time>2020-11-30T17:22:22.000Z</time>
            </trkpt>
            <trkpt lat="40.921529" lon="-8.533295">
                <ele>186.3</ele>
                <time>2020-11-30T17:22:23.000Z</time>
            </trkpt>
            <trkpt lat="40.921513" lon="-8.533293">
                <ele>186.2</ele>
                <time>2020-11-30T17:22:24.000Z</time>
            </trkpt>
            <trkpt lat="40.921499" lon="-8.533288">
                <ele>186.2</ele>
                <time>2020-11-30T17:22:25.000Z</time>
            </trkpt>
            <trkpt lat="40.921486" lon="-8.533279">
                <ele>186.1</ele>
                <time>2020-11-30T17:22:26.000Z</time>
            </trkpt>
            <trkpt lat="40.921474" lon="-8.533268">
                <ele>186.1</ele>
                <time>2020-11-30T17:22:27.000Z</time>
            </trkpt>
            <trkpt lat="40.921462" lon="-8.533255">
                <ele>186.0</ele>
                <time>2020-11-30T17:22:28.000Z</time>
            </trkpt>
            <trkpt lat="40.921449" lon="-8.533239">
                <ele>186.0</ele>
                <time>2020-11-30T17:22:29.000Z</time>
            </trkpt>
            <trkpt lat="40.921436" lon="-8.533221">
                <ele>186.0</ele>
                <time>2020-11-30T17:22:30.000Z</time>
            </trkpt>
            <trkpt lat="40.921422" lon="-8.533201">
                <ele>185.9</ele>
                <time>2020-11-30T17:22:31.000Z</time>
            </trkpt>
            <trkpt lat="40.921407" lon="-8.53318">
                <ele>185.9</ele>
                <time>2020-11-30T17:22:32.000Z</time>
            </trkpt>
            <trkpt lat="40.921393" lon="-8.533158">
                <ele>185.9</ele>
                <time>2020-11-30T17:22:33.000Z</time>
            </trkpt>
            <trkpt lat="40.921378" lon="-8.533136">
                <ele>185.8</ele>
                <time>2020-11-30T17:22:34.000Z</time>
            </trkpt>
            <trkpt lat="40.921362" lon="-8.533113">
                <ele>185.7</ele>
                <time>2020-11-30T17:22:35.000Z</time>
            </trkpt>
            <trkpt lat="40.921347" lon="-8.533091">
                <ele>185.7</ele>
                <time>2020-11-30T17:22:36.000Z</time>
            </trkpt>
            <trkpt lat="40.921331" lon="-8.533068">
                <ele>185.6</ele>
                <time>2020-11-30T17:22:37.000Z</time>
            </trkpt>
            <trkpt lat="40.921315" lon="-8.533047">
                <ele>185.5</ele>
                <time>2020-11-30T17:22:38.000Z</time>
            </trkpt>
            <trkpt lat="40.9213" lon="-8.533027">
                <ele>185.5</ele>
                <time>2020-11-30T17:22:39.000Z</time>
            </trkpt>
            <trkpt lat="40.921284" lon="-8.533007">
                <ele>185.4</ele>
                <time>2020-11-30T17:22:40.000Z</time>
            </trkpt>
            <trkpt lat="40.921269" lon="-8.532988">
                <ele>185.3</ele>
                <time>2020-11-30T17:22:41.000Z</time>
            </trkpt>
            <trkpt lat="40.921254" lon="-8.532969">
                <ele>185.2</ele>
                <time>2020-11-30T17:22:42.000Z</time>
            </trkpt>
            <trkpt lat="40.921238" lon="-8.53295">
                <ele>185.1</ele>
                <time>2020-11-30T17:22:43.000Z</time>
            </trkpt>
            <trkpt lat="40.921223" lon="-8.532931">
                <ele>185.0</ele>
                <time>2020-11-30T17:22:44.000Z</time>
            </trkpt>
            <trkpt lat="40.921207" lon="-8.532911">
                <ele>184.9</ele>
                <time>2020-11-30T17:22:45.000Z</time>
            </trkpt>
            <trkpt lat="40.921192" lon="-8.532891">
                <ele>184.8</ele>
                <time>2020-11-30T17:22:46.000Z</time>
            </trkpt>
            <trkpt lat="40.921176" lon="-8.53287">
                <ele>184.6</ele>
                <time>2020-11-30T17:22:47.000Z</time>
            </trkpt>
            <trkpt lat="40.92116" lon="-8.532847">
                <ele>184.5</ele>
                <time>2020-11-30T17:22:48.000Z</time>
            </trkpt>
            <trkpt lat="40.921144" lon="-8.532822">
                <ele>184.4</ele>
                <time>2020-11-30T17:22:49.000Z</time>
            </trkpt>
            <trkpt lat="40.921128" lon="-8.532796">
                <ele>184.3</ele>
                <time>2020-11-30T17:22:50.000Z</time>
            </trkpt>
            <trkpt lat="40.921111" lon="-8.53277">
                <ele>184.1</ele>
                <time>2020-11-30T17:22:51.000Z</time>
            </trkpt>
            <trkpt lat="40.921094" lon="-8.532747">
                <ele>184.0</ele>
                <time>2020-11-30T17:22:52.000Z</time>
            </trkpt>
            <trkpt lat="40.921075" lon="-8.532728">
                <ele>183.8</ele>
                <time>2020-11-30T17:22:53.000Z</time>
            </trkpt>
            <trkpt lat="40.921055" lon="-8.532715">
                <ele>183.6</ele>
                <time>2020-11-30T17:22:54.000Z</time>
            </trkpt>
            <trkpt lat="40.921033" lon="-8.532711">
                <ele>183.3</ele>
                <time>2020-11-30T17:22:55.000Z</time>
            </trkpt>
            <trkpt lat="40.921011" lon="-8.532714">
                <ele>183.1</ele>
                <time>2020-11-30T17:22:56.000Z</time>
            </trkpt>
            <trkpt lat="40.920988" lon="-8.532723">
                <ele>182.9</ele>
                <time>2020-11-30T17:22:57.000Z</time>
            </trkpt>
            <trkpt lat="40.920966" lon="-8.532736">
                <ele>182.6</ele>
                <time>2020-11-30T17:22:58.000Z</time>
            </trkpt>
            <trkpt lat="40.920946" lon="-8.532754">
                <ele>182.5</ele>
                <time>2020-11-30T17:22:59.000Z</time>
            </trkpt>
            <trkpt lat="40.920927" lon="-8.532774">
                <ele>182.3</ele>
                <time>2020-11-30T17:23:00.000Z</time>
            </trkpt>
            <trkpt lat="40.92091" lon="-8.532796">
                <ele>182.1</ele>
                <time>2020-11-30T17:23:01.000Z</time>
            </trkpt>
            <trkpt lat="40.920895" lon="-8.53282">
                <ele>182.0</ele>
                <time>2020-11-30T17:23:02.000Z</time>
            </trkpt>
            <trkpt lat="40.920882" lon="-8.532845">
                <ele>181.9</ele>
                <time>2020-11-30T17:23:03.000Z</time>
            </trkpt>
            <trkpt lat="40.920869" lon="-8.532872">
                <ele>181.8</ele>
                <time>2020-11-30T17:23:04.000Z</time>
            </trkpt>
            <trkpt lat="40.920858" lon="-8.532899">
                <ele>181.7</ele>
                <time>2020-11-30T17:23:05.000Z</time>
            </trkpt>
            <trkpt lat="40.920847" lon="-8.532926">
                <ele>181.6</ele>
                <time>2020-11-30T17:23:06.000Z</time>
            </trkpt>
            <trkpt lat="40.920838" lon="-8.532954">
                <ele>181.6</ele>
                <time>2020-11-30T17:23:07.000Z</time>
            </trkpt>
            <trkpt lat="40.920828" lon="-8.532981">
                <ele>181.6</ele>
                <time>2020-11-30T17:23:08.000Z</time>
            </trkpt>
            <trkpt lat="40.920819" lon="-8.533007">
                <ele>181.6</ele>
                <time>2020-11-30T17:23:09.000Z</time>
            </trkpt>
            <trkpt lat="40.92081" lon="-8.533032">
                <ele>181.6</ele>
                <time>2020-11-30T17:23:10.000Z</time>
            </trkpt>
            <trkpt lat="40.9208" lon="-8.533057">
                <ele>181.6</ele>
                <time>2020-11-30T17:23:11.000Z</time>
            </trkpt>
            <trkpt lat="40.920791" lon="-8.533081">
                <ele>181.6</ele>
                <time>2020-11-30T17:23:12.000Z</time>
            </trkpt>
            <trkpt lat="40.920781" lon="-8.533104">
                <ele>181.6</ele>
                <time>2020-11-30T17:23:13.000Z</time>
            </trkpt>
            <trkpt lat="40.92077" lon="-8.533127">
                <ele>181.7</ele>
                <time>2020-11-30T17:23:14.000Z</time>
            </trkpt>
            <trkpt lat="40.920759" lon="-8.533149">
                <ele>181.7</ele>
                <time>2020-11-30T17:23:15.000Z</time>
            </trkpt>
            <trkpt lat="40.920746" lon="-8.533172">
                <ele>181.7</ele>
                <time>2020-11-30T17:23:16.000Z</time>
            </trkpt>
            <trkpt lat="40.920733" lon="-8.533194">
                <ele>181.8</ele>
                <time>2020-11-30T17:23:17.000Z</time>
            </trkpt>
            <trkpt lat="40.920718" lon="-8.533217">
                <ele>181.8</ele>
                <time>2020-11-30T17:23:18.000Z</time>
            </trkpt>
            <trkpt lat="40.920702" lon="-8.53324">
                <ele>181.9</ele>
                <time>2020-11-30T17:23:19.000Z</time>
            </trkpt>
            <trkpt lat="40.920684" lon="-8.533264">
                <ele>182.0</ele>
                <time>2020-11-30T17:23:20.000Z</time>
            </trkpt>
            <trkpt lat="40.920666" lon="-8.533287">
                <ele>182.1</ele>
                <time>2020-11-30T17:23:21.000Z</time>
            </trkpt>
            <trkpt lat="40.920648" lon="-8.533308">
                <ele>182.1</ele>
                <time>2020-11-30T17:23:22.000Z</time>
            </trkpt>
            <trkpt lat="40.92063" lon="-8.533327">
                <ele>182.2</ele>
                <time>2020-11-30T17:23:23.000Z</time>
            </trkpt>
            <trkpt lat="40.920613" lon="-8.533343">
                <ele>182.3</ele>
                <time>2020-11-30T17:23:24.000Z</time>
            </trkpt>
            <trkpt lat="40.920599" lon="-8.533354">
                <ele>182.4</ele>
                <time>2020-11-30T17:23:25.000Z</time>
            </trkpt>
            <trkpt lat="40.920587" lon="-8.533361">
                <ele>182.5</ele>
                <time>2020-11-30T17:23:26.000Z</time>
            </trkpt>
            <trkpt lat="40.920577" lon="-8.533365">
                <ele>182.5</ele>
                <time>2020-11-30T17:23:27.000Z</time>
            </trkpt>
            <trkpt lat="40.920569" lon="-8.533368">
                <ele>182.6</ele>
                <time>2020-11-30T17:23:28.000Z</time>
            </trkpt>
            <trkpt lat="40.920562" lon="-8.533373">
                <ele>182.6</ele>
                <time>2020-11-30T17:23:29.000Z</time>
            </trkpt>
            <trkpt lat="40.920557" lon="-8.533383">
                <ele>182.7</ele>
                <time>2020-11-30T17:23:30.000Z</time>
            </trkpt>
            <trkpt lat="40.920552" lon="-8.533399">
                <ele>182.8</ele>
                <time>2020-11-30T17:23:31.000Z</time>
            </trkpt>
            <trkpt lat="40.920547" lon="-8.53342">
                <ele>183.0</ele>
                <time>2020-11-30T17:23:32.000Z</time>
            </trkpt>
            <trkpt lat="40.920541" lon="-8.533446">
                <ele>183.2</ele>
                <time>2020-11-30T17:23:33.000Z</time>
            </trkpt>
            <trkpt lat="40.920533" lon="-8.533473">
                <ele>183.4</ele>
                <time>2020-11-30T17:23:34.000Z</time>
            </trkpt>
            <trkpt lat="40.920524" lon="-8.533501">
                <ele>183.6</ele>
                <time>2020-11-30T17:23:35.000Z</time>
            </trkpt>
            <trkpt lat="40.920511" lon="-8.533529">
                <ele>183.8</ele>
                <time>2020-11-30T17:23:36.000Z</time>
            </trkpt>
            <trkpt lat="40.920496" lon="-8.533556">
                <ele>184.0</ele>
                <time>2020-11-30T17:23:37.000Z</time>
            </trkpt>
            <trkpt lat="40.920479" lon="-8.533582">
                <ele>184.2</ele>
                <time>2020-11-30T17:23:38.000Z</time>
            </trkpt>
            <trkpt lat="40.920462" lon="-8.533609">
                <ele>184.4</ele>
                <time>2020-11-30T17:23:39.000Z</time>
            </trkpt>
            <trkpt lat="40.920444" lon="-8.533635">
                <ele>184.6</ele>
                <time>2020-11-30T17:23:40.000Z</time>
            </trkpt>
            <trkpt lat="40.920427" lon="-8.533661">
                <ele>184.8</ele>
                <time>2020-11-30T17:23:41.000Z</time>
            </trkpt>
            <trkpt lat="40.920411" lon="-8.533686">
                <ele>185.0</ele>
                <time>2020-11-30T17:23:42.000Z</time>
            </trkpt>
            <trkpt lat="40.920395" lon="-8.533712">
                <ele>185.3</ele>
                <time>2020-11-30T17:23:43.000Z</time>
            </trkpt>
            <trkpt lat="40.920379" lon="-8.533738">
                <ele>185.5</ele>
                <time>2020-11-30T17:23:44.000Z</time>
            </trkpt>
            <trkpt lat="40.920363" lon="-8.533763">
                <ele>185.7</ele>
                <time>2020-11-30T17:23:45.000Z</time>
            </trkpt>
            <trkpt lat="40.920347" lon="-8.533787">
                <ele>185.9</ele>
                <time>2020-11-30T17:23:46.000Z</time>
            </trkpt>
            <trkpt lat="40.920332" lon="-8.533811">
                <ele>186.0</ele>
                <time>2020-11-30T17:23:47.000Z</time>
            </trkpt>
            <trkpt lat="40.920315" lon="-8.533835">
                <ele>186.2</ele>
                <time>2020-11-30T17:23:48.000Z</time>
            </trkpt>
            <trkpt lat="40.920298" lon="-8.533857">
                <ele>186.4</ele>
                <time>2020-11-30T17:23:49.000Z</time>
            </trkpt>
            <trkpt lat="40.920281" lon="-8.533879">
                <ele>186.6</ele>
                <time>2020-11-30T17:23:50.000Z</time>
            </trkpt>
            <trkpt lat="40.920263" lon="-8.5339">
                <ele>186.8</ele>
                <time>2020-11-30T17:23:51.000Z</time>
            </trkpt>
            <trkpt lat="40.920244" lon="-8.533919">
                <ele>186.9</ele>
                <time>2020-11-30T17:23:52.000Z</time>
            </trkpt>
            <trkpt lat="40.920224" lon="-8.533938">
                <ele>187.1</ele>
                <time>2020-11-30T17:23:53.000Z</time>
            </trkpt>
            <trkpt lat="40.920204" lon="-8.533955">
                <ele>187.2</ele>
                <time>2020-11-30T17:23:54.000Z</time>
            </trkpt>
            <trkpt lat="40.920183" lon="-8.533972">
                <ele>187.4</ele>
                <time>2020-11-30T17:23:55.000Z</time>
            </trkpt>
            <trkpt lat="40.920162" lon="-8.533987">
                <ele>187.5</ele>
                <time>2020-11-30T17:23:56.000Z</time>
            </trkpt>
            <trkpt lat="40.920141" lon="-8.534001">
                <ele>187.6</ele>
                <time>2020-11-30T17:23:57.000Z</time>
            </trkpt>
            <trkpt lat="40.92012" lon="-8.534014">
                <ele>187.8</ele>
                <time>2020-11-30T17:23:58.000Z</time>
            </trkpt>
            <trkpt lat="40.920098" lon="-8.534026">
                <ele>187.9</ele>
                <time>2020-11-30T17:23:59.000Z</time>
            </trkpt>
            <trkpt lat="40.920077" lon="-8.534036">
                <ele>188.0</ele>
                <time>2020-11-30T17:24:00.000Z</time>
            </trkpt>
            <trkpt lat="40.920056" lon="-8.534045">
                <ele>188.1</ele>
                <time>2020-11-30T17:24:01.000Z</time>
            </trkpt>
            <trkpt lat="40.920034" lon="-8.534053">
                <ele>188.1</ele>
                <time>2020-11-30T17:24:02.000Z</time>
            </trkpt>
            <trkpt lat="40.920013" lon="-8.53406">
                <ele>188.2</ele>
                <time>2020-11-30T17:24:03.000Z</time>
            </trkpt>
            <trkpt lat="40.919992" lon="-8.534066">
                <ele>188.2</ele>
                <time>2020-11-30T17:24:04.000Z</time>
            </trkpt>
            <trkpt lat="40.91997" lon="-8.534071">
                <ele>188.2</ele>
                <time>2020-11-30T17:24:05.000Z</time>
            </trkpt>
            <trkpt lat="40.919949" lon="-8.534076">
                <ele>188.1</ele>
                <time>2020-11-30T17:24:06.000Z</time>
            </trkpt>
            <trkpt lat="40.919928" lon="-8.53408">
                <ele>188.1</ele>
                <time>2020-11-30T17:24:07.000Z</time>
            </trkpt>
            <trkpt lat="40.919906" lon="-8.534083">
                <ele>188.0</ele>
                <time>2020-11-30T17:24:08.000Z</time>
            </trkpt>
            <trkpt lat="40.919885" lon="-8.534087">
                <ele>187.9</ele>
                <time>2020-11-30T17:24:09.000Z</time>
            </trkpt>
            <trkpt lat="40.919863" lon="-8.53409">
                <ele>187.9</ele>
                <time>2020-11-30T17:24:10.000Z</time>
            </trkpt>
            <trkpt lat="40.919841" lon="-8.534093">
                <ele>187.8</ele>
                <time>2020-11-30T17:24:11.000Z</time>
            </trkpt>
            <trkpt lat="40.919818" lon="-8.534096">
                <ele>187.7</ele>
                <time>2020-11-30T17:24:12.000Z</time>
            </trkpt>
            <trkpt lat="40.919796" lon="-8.534099">
                <ele>187.6</ele>
                <time>2020-11-30T17:24:13.000Z</time>
            </trkpt>
            <trkpt lat="40.919773" lon="-8.534103">
                <ele>187.5</ele>
                <time>2020-11-30T17:24:14.000Z</time>
            </trkpt>
            <trkpt lat="40.91975" lon="-8.534106">
                <ele>187.5</ele>
                <time>2020-11-30T17:24:15.000Z</time>
            </trkpt>
            <trkpt lat="40.919727" lon="-8.534109">
                <ele>187.4</ele>
                <time>2020-11-30T17:24:16.000Z</time>
            </trkpt>
            <trkpt lat="40.919704" lon="-8.534113">
                <ele>187.3</ele>
                <time>2020-11-30T17:24:17.000Z</time>
            </trkpt>
            <trkpt lat="40.919681" lon="-8.534116">
                <ele>187.2</ele>
                <time>2020-11-30T17:24:18.000Z</time>
            </trkpt>
            <trkpt lat="40.919657" lon="-8.53412">
                <ele>187.1</ele>
                <time>2020-11-30T17:24:19.000Z</time>
            </trkpt>
            <trkpt lat="40.919634" lon="-8.534123">
                <ele>187.0</ele>
                <time>2020-11-30T17:24:20.000Z</time>
            </trkpt>
            <trkpt lat="40.919611" lon="-8.534127">
                <ele>186.9</ele>
                <time>2020-11-30T17:24:21.000Z</time>
            </trkpt>
            <trkpt lat="40.919587" lon="-8.53413">
                <ele>186.8</ele>
                <time>2020-11-30T17:24:22.000Z</time>
            </trkpt>
            <trkpt lat="40.919564" lon="-8.534134">
                <ele>186.8</ele>
                <time>2020-11-30T17:24:23.000Z</time>
            </trkpt>
            <trkpt lat="40.91954" lon="-8.534139">
                <ele>186.7</ele>
                <time>2020-11-30T17:24:24.000Z</time>
            </trkpt>
            <trkpt lat="40.919516" lon="-8.534146">
                <ele>186.6</ele>
                <time>2020-11-30T17:24:25.000Z</time>
            </trkpt>
            <trkpt lat="40.919492" lon="-8.534155">
                <ele>186.5</ele>
                <time>2020-11-30T17:24:26.000Z</time>
            </trkpt>
            <trkpt lat="40.919467" lon="-8.534166">
                <ele>186.4</ele>
                <time>2020-11-30T17:24:27.000Z</time>
            </trkpt>
            <trkpt lat="40.919443" lon="-8.534179">
                <ele>186.4</ele>
                <time>2020-11-30T17:24:28.000Z</time>
            </trkpt>
            <trkpt lat="40.919419" lon="-8.534195">
                <ele>186.4</ele>
                <time>2020-11-30T17:24:29.000Z</time>
            </trkpt>
            <trkpt lat="40.919397" lon="-8.534213">
                <ele>186.4</ele>
                <time>2020-11-30T17:24:30.000Z</time>
            </trkpt>
            <trkpt lat="40.919376" lon="-8.534232">
                <ele>186.5</ele>
                <time>2020-11-30T17:24:31.000Z</time>
            </trkpt>
            <trkpt lat="40.919358" lon="-8.534253">
                <ele>186.5</ele>
                <time>2020-11-30T17:24:32.000Z</time>
            </trkpt>
            <trkpt lat="40.919341" lon="-8.534275">
                <ele>186.6</ele>
                <time>2020-11-30T17:24:33.000Z</time>
            </trkpt>
            <trkpt lat="40.919326" lon="-8.534297">
                <ele>186.6</ele>
                <time>2020-11-30T17:24:34.000Z</time>
            </trkpt>
            <trkpt lat="40.919313" lon="-8.53432">
                <ele>186.7</ele>
                <time>2020-11-30T17:24:35.000Z</time>
            </trkpt>
            <trkpt lat="40.9193" lon="-8.534342">
                <ele>186.8</ele>
                <time>2020-11-30T17:24:36.000Z</time>
            </trkpt>
            <trkpt lat="40.919289" lon="-8.534364">
                <ele>186.9</ele>
                <time>2020-11-30T17:24:37.000Z</time>
            </trkpt>
            <trkpt lat="40.919277" lon="-8.534384">
                <ele>186.9</ele>
                <time>2020-11-30T17:24:38.000Z</time>
            </trkpt>
            <trkpt lat="40.919266" lon="-8.534403">
                <ele>187.0</ele>
                <time>2020-11-30T17:24:39.000Z</time>
            </trkpt>
            <trkpt lat="40.919254" lon="-8.53442">
                <ele>187.0</ele>
                <time>2020-11-30T17:24:40.000Z</time>
            </trkpt>
            <trkpt lat="40.919242" lon="-8.534434">
                <ele>187.1</ele>
                <time>2020-11-30T17:24:41.000Z</time>
            </trkpt>
            <trkpt lat="40.919229" lon="-8.534445">
                <ele>187.0</ele>
                <time>2020-11-30T17:24:42.000Z</time>
            </trkpt>
            <trkpt lat="40.919215" lon="-8.534454">
                <ele>187.0</ele>
                <time>2020-11-30T17:24:43.000Z</time>
            </trkpt>
            <trkpt lat="40.9192" lon="-8.53446">
                <ele>187.0</ele>
                <time>2020-11-30T17:24:44.000Z</time>
            </trkpt>
            <trkpt lat="40.919184" lon="-8.534466">
                <ele>186.9</ele>
                <time>2020-11-30T17:24:45.000Z</time>
            </trkpt>
            <trkpt lat="40.919167" lon="-8.53447">
                <ele>186.8</ele>
                <time>2020-11-30T17:24:46.000Z</time>
            </trkpt>
            <trkpt lat="40.919149" lon="-8.534474">
                <ele>186.7</ele>
                <time>2020-11-30T17:24:47.000Z</time>
            </trkpt>
            <trkpt lat="40.919131" lon="-8.534479">
                <ele>186.6</ele>
                <time>2020-11-30T17:24:48.000Z</time>
            </trkpt>
            <trkpt lat="40.919112" lon="-8.534483">
                <ele>186.4</ele>
                <time>2020-11-30T17:24:49.000Z</time>
            </trkpt>
            <trkpt lat="40.919092" lon="-8.534488">
                <ele>186.3</ele>
                <time>2020-11-30T17:24:50.000Z</time>
            </trkpt>
            <trkpt lat="40.919073" lon="-8.534493">
                <ele>186.1</ele>
                <time>2020-11-30T17:24:51.000Z</time>
            </trkpt>
            <trkpt lat="40.919054" lon="-8.534497">
                <ele>186.0</ele>
                <time>2020-11-30T17:24:52.000Z</time>
            </trkpt>
            <trkpt lat="40.919035" lon="-8.534502">
                <ele>185.9</ele>
                <time>2020-11-30T17:24:53.000Z</time>
            </trkpt>
            <trkpt lat="40.919016" lon="-8.534505">
                <ele>185.7</ele>
                <time>2020-11-30T17:24:54.000Z</time>
            </trkpt>
            <trkpt lat="40.918997" lon="-8.534508">
                <ele>185.6</ele>
                <time>2020-11-30T17:24:55.000Z</time>
            </trkpt>
            <trkpt lat="40.918978" lon="-8.534508">
                <ele>185.4</ele>
                <time>2020-11-30T17:24:56.000Z</time>
            </trkpt>
            <trkpt lat="40.918958" lon="-8.534506">
                <ele>185.2</ele>
                <time>2020-11-30T17:24:57.000Z</time>
            </trkpt>
            <trkpt lat="40.918937" lon="-8.534501">
                <ele>185.0</ele>
                <time>2020-11-30T17:24:58.000Z</time>
            </trkpt>
            <trkpt lat="40.918916" lon="-8.534495">
                <ele>184.8</ele>
                <time>2020-11-30T17:24:59.000Z</time>
            </trkpt>
            <trkpt lat="40.918895" lon="-8.534487">
                <ele>184.6</ele>
                <time>2020-11-30T17:25:00.000Z</time>
            </trkpt>
            <trkpt lat="40.918874" lon="-8.534478">
                <ele>184.3</ele>
                <time>2020-11-30T17:25:01.000Z</time>
            </trkpt>
            <trkpt lat="40.918853" lon="-8.53447">
                <ele>184.1</ele>
                <time>2020-11-30T17:25:02.000Z</time>
            </trkpt>
            <trkpt lat="40.918833" lon="-8.534463">
                <ele>183.9</ele>
                <time>2020-11-30T17:25:03.000Z</time>
            </trkpt>
            <trkpt lat="40.918813" lon="-8.534456">
                <ele>183.6</ele>
                <time>2020-11-30T17:25:04.000Z</time>
            </trkpt>
            <trkpt lat="40.918794" lon="-8.534451">
                <ele>183.4</ele>
                <time>2020-11-30T17:25:05.000Z</time>
            </trkpt>
            <trkpt lat="40.918776" lon="-8.534445">
                <ele>183.2</ele>
                <time>2020-11-30T17:25:06.000Z</time>
            </trkpt>
            <trkpt lat="40.918757" lon="-8.53444">
                <ele>183.0</ele>
                <time>2020-11-30T17:25:07.000Z</time>
            </trkpt>
            <trkpt lat="40.918739" lon="-8.534434">
                <ele>182.8</ele>
                <time>2020-11-30T17:25:08.000Z</time>
            </trkpt>
            <trkpt lat="40.91872" lon="-8.534428">
                <ele>182.6</ele>
                <time>2020-11-30T17:25:09.000Z</time>
            </trkpt>
            <trkpt lat="40.918702" lon="-8.53442">
                <ele>182.4</ele>
                <time>2020-11-30T17:25:10.000Z</time>
            </trkpt>
            <trkpt lat="40.918682" lon="-8.534412">
                <ele>182.2</ele>
                <time>2020-11-30T17:25:11.000Z</time>
            </trkpt>
            <trkpt lat="40.918663" lon="-8.534402">
                <ele>181.9</ele>
                <time>2020-11-30T17:25:12.000Z</time>
            </trkpt>
            <trkpt lat="40.918643" lon="-8.534391">
                <ele>181.7</ele>
                <time>2020-11-30T17:25:13.000Z</time>
            </trkpt>
            <trkpt lat="40.918622" lon="-8.53438">
                <ele>181.4</ele>
                <time>2020-11-30T17:25:14.000Z</time>
            </trkpt>
            <trkpt lat="40.918602" lon="-8.534369">
                <ele>181.1</ele>
                <time>2020-11-30T17:25:15.000Z</time>
            </trkpt>
            <trkpt lat="40.918583" lon="-8.534361">
                <ele>180.9</ele>
                <time>2020-11-30T17:25:16.000Z</time>
            </trkpt>
            <trkpt lat="40.918566" lon="-8.534357">
                <ele>180.7</ele>
                <time>2020-11-30T17:25:17.000Z</time>
            </trkpt>
            <trkpt lat="40.91855" lon="-8.534358">
                <ele>180.6</ele>
                <time>2020-11-30T17:25:18.000Z</time>
            </trkpt>
            <trkpt lat="40.918537" lon="-8.534362">
                <ele>180.5</ele>
                <time>2020-11-30T17:25:19.000Z</time>
            </trkpt>
            <trkpt lat="40.918525" lon="-8.534367">
                <ele>180.4</ele>
                <time>2020-11-30T17:25:20.000Z</time>
            </trkpt>
            <trkpt lat="40.918516" lon="-8.534371">
                <ele>180.4</ele>
                <time>2020-11-30T17:25:21.000Z</time>
            </trkpt>
            <trkpt lat="40.918509" lon="-8.534372">
                <ele>180.3</ele>
                <time>2020-11-30T17:25:22.000Z</time>
            </trkpt>
            <trkpt lat="40.918505" lon="-8.534368">
                <ele>180.2</ele>
                <time>2020-11-30T17:25:23.000Z</time>
            </trkpt>
            <trkpt lat="40.918501" lon="-8.53436">
                <ele>180.1</ele>
                <time>2020-11-30T17:25:24.000Z</time>
            </trkpt>
            <trkpt lat="40.918498" lon="-8.534348">
                <ele>180.0</ele>
                <time>2020-11-30T17:25:25.000Z</time>
            </trkpt>
            <trkpt lat="40.918494" lon="-8.534335">
                <ele>179.9</ele>
                <time>2020-11-30T17:25:26.000Z</time>
            </trkpt>
            <trkpt lat="40.918487" lon="-8.53432">
                <ele>179.7</ele>
                <time>2020-11-30T17:25:27.000Z</time>
            </trkpt>
            <trkpt lat="40.918478" lon="-8.534306">
                <ele>179.5</ele>
                <time>2020-11-30T17:25:28.000Z</time>
            </trkpt>
            <trkpt lat="40.918464" lon="-8.534292">
                <ele>179.3</ele>
                <time>2020-11-30T17:25:29.000Z</time>
            </trkpt>
            <trkpt lat="40.918447" lon="-8.534278">
                <ele>179.0</ele>
                <time>2020-11-30T17:25:30.000Z</time>
            </trkpt>
            <trkpt lat="40.918428" lon="-8.534264">
                <ele>178.7</ele>
                <time>2020-11-30T17:25:31.000Z</time>
            </trkpt>
            <trkpt lat="40.918408" lon="-8.534247">
                <ele>178.4</ele>
                <time>2020-11-30T17:25:32.000Z</time>
            </trkpt>
            <trkpt lat="40.918389" lon="-8.534227">
                <ele>178.0</ele>
                <time>2020-11-30T17:25:33.000Z</time>
            </trkpt>
            <trkpt lat="40.918371" lon="-8.534204">
                <ele>177.7</ele>
                <time>2020-11-30T17:25:34.000Z</time>
            </trkpt>
            <trkpt lat="40.918354" lon="-8.534178">
                <ele>177.3</ele>
                <time>2020-11-30T17:25:35.000Z</time>
            </trkpt>
            <trkpt lat="40.918339" lon="-8.534148">
                <ele>177.1</ele>
                <time>2020-11-30T17:25:36.000Z</time>
            </trkpt>
            <trkpt lat="40.918326" lon="-8.534116">
                <ele>177.0</ele>
                <time>2020-11-30T17:25:37.000Z</time>
            </trkpt>
            <trkpt lat="40.918313" lon="-8.534082">
                <ele>177.0</ele>
                <time>2020-11-30T17:25:38.000Z</time>
            </trkpt>
            <trkpt lat="40.918302" lon="-8.534046">
                <ele>176.9</ele>
                <time>2020-11-30T17:25:39.000Z</time>
            </trkpt>
            <trkpt lat="40.918292" lon="-8.53401">
                <ele>176.9</ele>
                <time>2020-11-30T17:25:40.000Z</time>
            </trkpt>
            <trkpt lat="40.918283" lon="-8.533973">
                <ele>176.9</ele>
                <time>2020-11-30T17:25:41.000Z</time>
            </trkpt>
            <trkpt lat="40.918276" lon="-8.533936">
                <ele>176.8</ele>
                <time>2020-11-30T17:25:42.000Z</time>
            </trkpt>
            <trkpt lat="40.918269" lon="-8.5339">
                <ele>176.8</ele>
                <time>2020-11-30T17:25:43.000Z</time>
            </trkpt>
            <trkpt lat="40.918264" lon="-8.533865">
                <ele>176.7</ele>
                <time>2020-11-30T17:25:44.000Z</time>
            </trkpt>
            <trkpt lat="40.91826" lon="-8.53383">
                <ele>176.7</ele>
                <time>2020-11-30T17:25:45.000Z</time>
            </trkpt>
            <trkpt lat="40.918256" lon="-8.533797">
                <ele>176.7</ele>
                <time>2020-11-30T17:25:46.000Z</time>
            </trkpt>
            <trkpt lat="40.918253" lon="-8.533764">
                <ele>176.6</ele>
                <time>2020-11-30T17:25:47.000Z</time>
            </trkpt>
            <trkpt lat="40.918252" lon="-8.533731">
                <ele>176.6</ele>
                <time>2020-11-30T17:25:48.000Z</time>
            </trkpt>
            <trkpt lat="40.91825" lon="-8.533699">
                <ele>176.6</ele>
                <time>2020-11-30T17:25:49.000Z</time>
            </trkpt>
            <trkpt lat="40.91825" lon="-8.533667">
                <ele>176.5</ele>
                <time>2020-11-30T17:25:50.000Z</time>
            </trkpt>
            <trkpt lat="40.918251" lon="-8.533635">
                <ele>176.5</ele>
                <time>2020-11-30T17:25:51.000Z</time>
            </trkpt>
            <trkpt lat="40.918252" lon="-8.533603">
                <ele>176.5</ele>
                <time>2020-11-30T17:25:52.000Z</time>
            </trkpt>
            <trkpt lat="40.918253" lon="-8.533571">
                <ele>176.5</ele>
                <time>2020-11-30T17:25:53.000Z</time>
            </trkpt>
            <trkpt lat="40.918255" lon="-8.533538">
                <ele>176.5</ele>
                <time>2020-11-30T17:25:54.000Z</time>
            </trkpt>
            <trkpt lat="40.918258" lon="-8.533505">
                <ele>176.5</ele>
                <time>2020-11-30T17:25:55.000Z</time>
            </trkpt>
            <trkpt lat="40.918261" lon="-8.533471">
                <ele>176.5</ele>
                <time>2020-11-30T17:25:56.000Z</time>
            </trkpt>
            <trkpt lat="40.918265" lon="-8.533438">
                <ele>176.5</ele>
                <time>2020-11-30T17:25:57.000Z</time>
            </trkpt>
            <trkpt lat="40.918269" lon="-8.533404">
                <ele>176.5</ele>
                <time>2020-11-30T17:25:58.000Z</time>
            </trkpt>
            <trkpt lat="40.918274" lon="-8.533369">
                <ele>176.5</ele>
                <time>2020-11-30T17:25:59.000Z</time>
            </trkpt>
            <trkpt lat="40.918279" lon="-8.533335">
                <ele>176.5</ele>
                <time>2020-11-30T17:26:00.000Z</time>
            </trkpt>
            <trkpt lat="40.918285" lon="-8.5333">
                <ele>176.4</ele>
                <time>2020-11-30T17:26:01.000Z</time>
            </trkpt>
            <trkpt lat="40.918292" lon="-8.533265">
                <ele>176.2</ele>
                <time>2020-11-30T17:26:02.000Z</time>
            </trkpt>
            <trkpt lat="40.918299" lon="-8.53323">
                <ele>176.0</ele>
                <time>2020-11-30T17:26:03.000Z</time>
            </trkpt>
            <trkpt lat="40.918306" lon="-8.533194">
                <ele>175.8</ele>
                <time>2020-11-30T17:26:04.000Z</time>
            </trkpt>
            <trkpt lat="40.918315" lon="-8.533159">
                <ele>175.6</ele>
                <time>2020-11-30T17:26:05.000Z</time>
            </trkpt>
            <trkpt lat="40.918323" lon="-8.533123">
                <ele>175.4</ele>
                <time>2020-11-30T17:26:06.000Z</time>
            </trkpt>
            <trkpt lat="40.918333" lon="-8.533088">
                <ele>175.2</ele>
                <time>2020-11-30T17:26:07.000Z</time>
            </trkpt>
            <trkpt lat="40.918343" lon="-8.533053">
                <ele>175.0</ele>
                <time>2020-11-30T17:26:08.000Z</time>
            </trkpt>
            <trkpt lat="40.918354" lon="-8.533018">
                <ele>174.8</ele>
                <time>2020-11-30T17:26:09.000Z</time>
            </trkpt>
            <trkpt lat="40.918366" lon="-8.532984">
                <ele>174.7</ele>
                <time>2020-11-30T17:26:10.000Z</time>
            </trkpt>
            <trkpt lat="40.918376" lon="-8.53295">
                <ele>174.5</ele>
                <time>2020-11-30T17:26:11.000Z</time>
            </trkpt>
            <trkpt lat="40.918384" lon="-8.532917">
                <ele>174.2</ele>
                <time>2020-11-30T17:26:12.000Z</time>
            </trkpt>
            <trkpt lat="40.918387" lon="-8.532883">
                <ele>174.0</ele>
                <time>2020-11-30T17:26:13.000Z</time>
            </trkpt>
            <trkpt lat="40.918384" lon="-8.532851">
                <ele>173.8</ele>
                <time>2020-11-30T17:26:14.000Z</time>
            </trkpt>
            <trkpt lat="40.918373" lon="-8.532818">
                <ele>173.5</ele>
                <time>2020-11-30T17:26:15.000Z</time>
            </trkpt>
            <trkpt lat="40.918356" lon="-8.532787">
                <ele>173.2</ele>
                <time>2020-11-30T17:26:16.000Z</time>
            </trkpt>
            <trkpt lat="40.918334" lon="-8.532758">
                <ele>172.9</ele>
                <time>2020-11-30T17:26:17.000Z</time>
            </trkpt>
            <trkpt lat="40.918309" lon="-8.532731">
                <ele>172.5</ele>
                <time>2020-11-30T17:26:18.000Z</time>
            </trkpt>
            <trkpt lat="40.918282" lon="-8.532708">
                <ele>172.1</ele>
                <time>2020-11-30T17:26:19.000Z</time>
            </trkpt>
            <trkpt lat="40.918256" lon="-8.532688">
                <ele>171.7</ele>
                <time>2020-11-30T17:26:20.000Z</time>
            </trkpt>
            <trkpt lat="40.91823" lon="-8.532672">
                <ele>171.4</ele>
                <time>2020-11-30T17:26:21.000Z</time>
            </trkpt>
            <trkpt lat="40.918204" lon="-8.532658">
                <ele>171.1</ele>
                <time>2020-11-30T17:26:22.000Z</time>
            </trkpt>
            <trkpt lat="40.918178" lon="-8.532645">
                <ele>170.7</ele>
                <time>2020-11-30T17:26:23.000Z</time>
            </trkpt>
            <trkpt lat="40.918152" lon="-8.532632">
                <ele>170.4</ele>
                <time>2020-11-30T17:26:24.000Z</time>
            </trkpt>
            <trkpt lat="40.918126" lon="-8.532619">
                <ele>170.1</ele>
                <time>2020-11-30T17:26:25.000Z</time>
            </trkpt>
            <trkpt lat="40.918099" lon="-8.532606">
                <ele>169.8</ele>
                <time>2020-11-30T17:26:26.000Z</time>
            </trkpt>
            <trkpt lat="40.918073" lon="-8.532592">
                <ele>169.5</ele>
                <time>2020-11-30T17:26:27.000Z</time>
            </trkpt>
            <trkpt lat="40.918046" lon="-8.532577">
                <ele>169.1</ele>
                <time>2020-11-30T17:26:28.000Z</time>
            </trkpt>
            <trkpt lat="40.918019" lon="-8.532562">
                <ele>168.8</ele>
                <time>2020-11-30T17:26:29.000Z</time>
            </trkpt>
            <trkpt lat="40.917993" lon="-8.532546">
                <ele>168.5</ele>
                <time>2020-11-30T17:26:30.000Z</time>
            </trkpt>
            <trkpt lat="40.917966" lon="-8.532529">
                <ele>168.1</ele>
                <time>2020-11-30T17:26:31.000Z</time>
            </trkpt>
            <trkpt lat="40.917939" lon="-8.532513">
                <ele>167.8</ele>
                <time>2020-11-30T17:26:32.000Z</time>
            </trkpt>
            <trkpt lat="40.917912" lon="-8.532496">
                <ele>167.4</ele>
                <time>2020-11-30T17:26:33.000Z</time>
            </trkpt>
            <trkpt lat="40.917885" lon="-8.532478">
                <ele>167.0</ele>
                <time>2020-11-30T17:26:34.000Z</time>
            </trkpt>
            <trkpt lat="40.917858" lon="-8.53246">
                <ele>166.5</ele>
                <time>2020-11-30T17:26:35.000Z</time>
            </trkpt>
            <trkpt lat="40.917831" lon="-8.532442">
                <ele>166.1</ele>
                <time>2020-11-30T17:26:36.000Z</time>
            </trkpt>
            <trkpt lat="40.917804" lon="-8.532423">
                <ele>165.7</ele>
                <time>2020-11-30T17:26:37.000Z</time>
            </trkpt>
            <trkpt lat="40.917777" lon="-8.532404">
                <ele>165.2</ele>
                <time>2020-11-30T17:26:38.000Z</time>
            </trkpt>
            <trkpt lat="40.91775" lon="-8.532386">
                <ele>164.8</ele>
                <time>2020-11-30T17:26:39.000Z</time>
            </trkpt>
            <trkpt lat="40.917724" lon="-8.532366">
                <ele>164.3</ele>
                <time>2020-11-30T17:26:40.000Z</time>
            </trkpt>
            <trkpt lat="40.917697" lon="-8.532347">
                <ele>163.9</ele>
                <time>2020-11-30T17:26:41.000Z</time>
            </trkpt>
            <trkpt lat="40.91767" lon="-8.532328">
                <ele>163.5</ele>
                <time>2020-11-30T17:26:42.000Z</time>
            </trkpt>
            <trkpt lat="40.917643" lon="-8.532309">
                <ele>163.1</ele>
                <time>2020-11-30T17:26:43.000Z</time>
            </trkpt>
            <trkpt lat="40.917617" lon="-8.532289">
                <ele>162.6</ele>
                <time>2020-11-30T17:26:44.000Z</time>
            </trkpt>
            <trkpt lat="40.91759" lon="-8.53227">
                <ele>162.2</ele>
                <time>2020-11-30T17:26:45.000Z</time>
            </trkpt>
            <trkpt lat="40.917564" lon="-8.532251">
                <ele>161.8</ele>
                <time>2020-11-30T17:26:46.000Z</time>
            </trkpt>
            <trkpt lat="40.917537" lon="-8.532232">
                <ele>161.4</ele>
                <time>2020-11-30T17:26:47.000Z</time>
            </trkpt>
            <trkpt lat="40.917511" lon="-8.532213">
                <ele>161.0</ele>
                <time>2020-11-30T17:26:48.000Z</time>
            </trkpt>
            <trkpt lat="40.917485" lon="-8.532195">
                <ele>160.8</ele>
                <time>2020-11-30T17:26:49.000Z</time>
            </trkpt>
            <trkpt lat="40.917458" lon="-8.532176">
                <ele>160.6</ele>
                <time>2020-11-30T17:26:50.000Z</time>
            </trkpt>
            <trkpt lat="40.917432" lon="-8.532157">
                <ele>160.5</ele>
                <time>2020-11-30T17:26:51.000Z</time>
            </trkpt>
            <trkpt lat="40.917405" lon="-8.532139">
                <ele>160.4</ele>
                <time>2020-11-30T17:26:52.000Z</time>
            </trkpt>
            <trkpt lat="40.917379" lon="-8.532121">
                <ele>160.2</ele>
                <time>2020-11-30T17:26:53.000Z</time>
            </trkpt>
            <trkpt lat="40.917352" lon="-8.532103">
                <ele>160.1</ele>
                <time>2020-11-30T17:26:54.000Z</time>
            </trkpt>
            <trkpt lat="40.917326" lon="-8.532085">
                <ele>159.9</ele>
                <time>2020-11-30T17:26:55.000Z</time>
            </trkpt>
            <trkpt lat="40.917299" lon="-8.532067">
                <ele>159.8</ele>
                <time>2020-11-30T17:26:56.000Z</time>
            </trkpt>
            <trkpt lat="40.917272" lon="-8.53205">
                <ele>159.6</ele>
                <time>2020-11-30T17:26:57.000Z</time>
            </trkpt>
            <trkpt lat="40.917245" lon="-8.532036">
                <ele>159.5</ele>
                <time>2020-11-30T17:26:58.000Z</time>
            </trkpt>
            <trkpt lat="40.917217" lon="-8.532024">
                <ele>159.4</ele>
                <time>2020-11-30T17:26:59.000Z</time>
            </trkpt>
            <trkpt lat="40.917188" lon="-8.532015">
                <ele>159.4</ele>
                <time>2020-11-30T17:27:00.000Z</time>
            </trkpt>
            <trkpt lat="40.917159" lon="-8.532011">
                <ele>159.4</ele>
                <time>2020-11-30T17:27:01.000Z</time>
            </trkpt>
            <trkpt lat="40.917129" lon="-8.532011">
                <ele>159.5</ele>
                <time>2020-11-30T17:27:02.000Z</time>
            </trkpt>
            <trkpt lat="40.9171" lon="-8.532014">
                <ele>159.6</ele>
                <time>2020-11-30T17:27:03.000Z</time>
            </trkpt>
            <trkpt lat="40.917073" lon="-8.532019">
                <ele>159.7</ele>
                <time>2020-11-30T17:27:04.000Z</time>
            </trkpt>
            <trkpt lat="40.917048" lon="-8.532026">
                <ele>159.8</ele>
                <time>2020-11-30T17:27:05.000Z</time>
            </trkpt>
            <trkpt lat="40.917026" lon="-8.532034">
                <ele>160.0</ele>
                <time>2020-11-30T17:27:06.000Z</time>
            </trkpt>
            <trkpt lat="40.917006" lon="-8.532041">
                <ele>160.1</ele>
                <time>2020-11-30T17:27:07.000Z</time>
            </trkpt>
            <trkpt lat="40.916988" lon="-8.532049">
                <ele>160.3</ele>
                <time>2020-11-30T17:27:08.000Z</time>
            </trkpt>
            <trkpt lat="40.916971" lon="-8.532056">
                <ele>160.4</ele>
                <time>2020-11-30T17:27:09.000Z</time>
            </trkpt>
            <trkpt lat="40.916955" lon="-8.532062">
                <ele>160.5</ele>
                <time>2020-11-30T17:27:10.000Z</time>
            </trkpt>
            <trkpt lat="40.916938" lon="-8.532067">
                <ele>160.6</ele>
                <time>2020-11-30T17:27:11.000Z</time>
            </trkpt>
            <trkpt lat="40.916921" lon="-8.53207">
                <ele>160.7</ele>
                <time>2020-11-30T17:27:12.000Z</time>
            </trkpt>
            <trkpt lat="40.916903" lon="-8.532073">
                <ele>160.8</ele>
                <time>2020-11-30T17:27:13.000Z</time>
            </trkpt>
            <trkpt lat="40.916884" lon="-8.532075">
                <ele>160.9</ele>
                <time>2020-11-30T17:27:14.000Z</time>
            </trkpt>
            <trkpt lat="40.916864" lon="-8.532076">
                <ele>160.9</ele>
                <time>2020-11-30T17:27:15.000Z</time>
            </trkpt>
            <trkpt lat="40.916842" lon="-8.532078">
                <ele>161.0</ele>
                <time>2020-11-30T17:27:16.000Z</time>
            </trkpt>
            <trkpt lat="40.91682" lon="-8.53208">
                <ele>161.1</ele>
                <time>2020-11-30T17:27:17.000Z</time>
            </trkpt>
            <trkpt lat="40.916797" lon="-8.532082">
                <ele>161.2</ele>
                <time>2020-11-30T17:27:18.000Z</time>
            </trkpt>
            <trkpt lat="40.916775" lon="-8.532086">
                <ele>161.3</ele>
                <time>2020-11-30T17:27:19.000Z</time>
            </trkpt>
            <trkpt lat="40.916754" lon="-8.532092">
                <ele>161.4</ele>
                <time>2020-11-30T17:27:20.000Z</time>
            </trkpt>
            <trkpt lat="40.916735" lon="-8.5321">
                <ele>161.6</ele>
                <time>2020-11-30T17:27:21.000Z</time>
            </trkpt>
            <trkpt lat="40.916717" lon="-8.532109">
                <ele>161.8</ele>
                <time>2020-11-30T17:27:22.000Z</time>
            </trkpt>
            <trkpt lat="40.9167" lon="-8.532121">
                <ele>162.0</ele>
                <time>2020-11-30T17:27:23.000Z</time>
            </trkpt>
            <trkpt lat="40.916683" lon="-8.532135">
                <ele>162.3</ele>
                <time>2020-11-30T17:27:24.000Z</time>
            </trkpt>
            <trkpt lat="40.916666" lon="-8.53215">
                <ele>162.5</ele>
                <time>2020-11-30T17:27:25.000Z</time>
            </trkpt>
            <trkpt lat="40.916649" lon="-8.532168">
                <ele>162.9</ele>
                <time>2020-11-30T17:27:26.000Z</time>
            </trkpt>
            <trkpt lat="40.916632" lon="-8.532188">
                <ele>163.3</ele>
                <time>2020-11-30T17:27:27.000Z</time>
            </trkpt>
            <trkpt lat="40.916615" lon="-8.532209">
                <ele>163.7</ele>
                <time>2020-11-30T17:27:28.000Z</time>
            </trkpt>
            <trkpt lat="40.916597" lon="-8.532231">
                <ele>164.2</ele>
                <time>2020-11-30T17:27:29.000Z</time>
            </trkpt>
            <trkpt lat="40.91658" lon="-8.532254">
                <ele>164.6</ele>
                <time>2020-11-30T17:27:30.000Z</time>
            </trkpt>
            <trkpt lat="40.916562" lon="-8.532278">
                <ele>165.0</ele>
                <time>2020-11-30T17:27:31.000Z</time>
            </trkpt>
            <trkpt lat="40.916545" lon="-8.532303">
                <ele>165.5</ele>
                <time>2020-11-30T17:27:32.000Z</time>
            </trkpt>
            <trkpt lat="40.916527" lon="-8.532328">
                <ele>165.9</ele>
                <time>2020-11-30T17:27:33.000Z</time>
            </trkpt>
            <trkpt lat="40.91651" lon="-8.532353">
                <ele>166.3</ele>
                <time>2020-11-30T17:27:34.000Z</time>
            </trkpt>
            <trkpt lat="40.916493" lon="-8.532378">
                <ele>166.7</ele>
                <time>2020-11-30T17:27:35.000Z</time>
            </trkpt>
            <trkpt lat="40.916476" lon="-8.532402">
                <ele>167.1</ele>
                <time>2020-11-30T17:27:36.000Z</time>
            </trkpt>
            <trkpt lat="40.91646" lon="-8.532426">
                <ele>167.5</ele>
                <time>2020-11-30T17:27:37.000Z</time>
            </trkpt>
            <trkpt lat="40.916444" lon="-8.532449">
                <ele>167.9</ele>
                <time>2020-11-30T17:27:38.000Z</time>
            </trkpt>
            <trkpt lat="40.916428" lon="-8.532472">
                <ele>168.2</ele>
                <time>2020-11-30T17:27:39.000Z</time>
            </trkpt>
            <trkpt lat="40.916413" lon="-8.532493">
                <ele>168.5</ele>
                <time>2020-11-30T17:27:40.000Z</time>
            </trkpt>
            <trkpt lat="40.916398" lon="-8.532514">
                <ele>168.8</ele>
                <time>2020-11-30T17:27:41.000Z</time>
            </trkpt>
            <trkpt lat="40.916384" lon="-8.532534">
                <ele>168.9</ele>
                <time>2020-11-30T17:27:42.000Z</time>
            </trkpt>
            <trkpt lat="40.91637" lon="-8.532553">
                <ele>169.1</ele>
                <time>2020-11-30T17:27:43.000Z</time>
            </trkpt>
            <trkpt lat="40.916356" lon="-8.532571">
                <ele>169.3</ele>
                <time>2020-11-30T17:27:44.000Z</time>
            </trkpt>
            <trkpt lat="40.916343" lon="-8.532588">
                <ele>169.5</ele>
                <time>2020-11-30T17:27:45.000Z</time>
            </trkpt>
            <trkpt lat="40.91633" lon="-8.532604">
                <ele>169.6</ele>
                <time>2020-11-30T17:27:46.000Z</time>
            </trkpt>
            <trkpt lat="40.916318" lon="-8.532619">
                <ele>169.7</ele>
                <time>2020-11-30T17:27:47.000Z</time>
            </trkpt>
            <trkpt lat="40.916306" lon="-8.532633">
                <ele>169.9</ele>
                <time>2020-11-30T17:27:48.000Z</time>
            </trkpt>
            <trkpt lat="40.916294" lon="-8.532646">
                <ele>170.0</ele>
                <time>2020-11-30T17:27:49.000Z</time>
            </trkpt>
            <trkpt lat="40.916283" lon="-8.532657">
                <ele>170.1</ele>
                <time>2020-11-30T17:27:50.000Z</time>
            </trkpt>
            <trkpt lat="40.916272" lon="-8.532668">
                <ele>170.2</ele>
                <time>2020-11-30T17:27:51.000Z</time>
            </trkpt>
            <trkpt lat="40.916262" lon="-8.532677">
                <ele>170.3</ele>
                <time>2020-11-30T17:27:52.000Z</time>
            </trkpt>
            <trkpt lat="40.916252" lon="-8.532685">
                <ele>170.3</ele>
                <time>2020-11-30T17:27:53.000Z</time>
            </trkpt>
            <trkpt lat="40.916243" lon="-8.532691">
                <ele>170.4</ele>
                <time>2020-11-30T17:27:54.000Z</time>
            </trkpt>
            <trkpt lat="40.916234" lon="-8.532696">
                <ele>170.4</ele>
                <time>2020-11-30T17:27:55.000Z</time>
            </trkpt>
            <trkpt lat="40.916226" lon="-8.5327">
                <ele>170.5</ele>
                <time>2020-11-30T17:27:56.000Z</time>
            </trkpt>
            <trkpt lat="40.916218" lon="-8.532703">
                <ele>170.5</ele>
                <time>2020-11-30T17:27:57.000Z</time>
            </trkpt>
            <trkpt lat="40.91621" lon="-8.532703">
                <ele>170.5</ele>
                <time>2020-11-30T17:27:58.000Z</time>
            </trkpt>
            <trkpt lat="40.916204" lon="-8.532703">
                <ele>170.5</ele>
                <time>2020-11-30T17:27:59.000Z</time>
            </trkpt>
            <trkpt lat="40.916197" lon="-8.532701">
                <ele>170.5</ele>
                <time>2020-11-30T17:28:00.000Z</time>
            </trkpt>
            <trkpt lat="40.916191" lon="-8.532697">
                <ele>170.5</ele>
                <time>2020-11-30T17:28:01.000Z</time>
            </trkpt>
            <trkpt lat="40.916186" lon="-8.532692">
                <ele>170.5</ele>
                <time>2020-11-30T17:28:02.000Z</time>
            </trkpt>
            <trkpt lat="40.916181" lon="-8.532685">
                <ele>170.4</ele>
                <time>2020-11-30T17:28:03.000Z</time>
            </trkpt>
            <trkpt lat="40.916177" lon="-8.532676">
                <ele>170.4</ele>
                <time>2020-11-30T17:28:04.000Z</time>
            </trkpt>
            <trkpt lat="40.916173" lon="-8.532666">
                <ele>170.3</ele>
                <time>2020-11-30T17:28:05.000Z</time>
            </trkpt>
            <trkpt lat="40.91617" lon="-8.532653">
                <ele>170.2</ele>
                <time>2020-11-30T17:28:06.000Z</time>
            </trkpt>
        </trkseg>
    </trk>
</gpx>
